<?xml version="1.0" encoding="UTF-8" standalone="no" ?>
<gpx xmlns="http://www.topografix.com/GPX/1/1" xmlns:xsi="http://www.w3.org/2001/XMLSchema-instance" xsi:schemaLocation="http://www.topografix.com/GPX/1/1 http://www.topografix.com/GPX/1/1/gpx.xsd" version="1.1" creator="VisuGPX - https://www.visugpx.com">
  <metadata>
    <name>Day 20: Saint-Méen-le-Grand -&gt; Rennes</name>
  </metadata>
  <trk>
    <name><![CDATA[Day 20: Saint-Méen-le-Grand -> Rennes_1]]></name>
    <trkseg>
      <trkpt lat="48.18938" lon="-2.16833">
        <ele>163</ele>
        <time>2025-05-16T07:36:27Z</time>
      </trkpt>
      <trkpt lat="48.18937" lon="-2.16833">
        <ele>163</ele>
        <time>2025-05-16T07:36:28Z</time>
      </trkpt>
      <trkpt lat="48.18937" lon="-2.16834">
        <ele>163</ele>
        <time>2025-05-16T07:36:29Z</time>
      </trkpt>
      <trkpt lat="48.18936" lon="-2.16832">
        <ele>163</ele>
        <time>2025-05-16T07:36:30Z</time>
      </trkpt>
      <trkpt lat="48.18936" lon="-2.16831">
        <ele>163</ele>
        <time>2025-05-16T07:36:32Z</time>
      </trkpt>
      <trkpt lat="48.18936" lon="-2.16831">
        <ele>163</ele>
        <time>2025-05-16T07:36:33Z</time>
      </trkpt>
      <trkpt lat="48.18935" lon="-2.16831">
        <ele>163</ele>
        <time>2025-05-16T07:36:34Z</time>
      </trkpt>
      <trkpt lat="48.18935" lon="-2.16831">
        <ele>163</ele>
        <time>2025-05-16T07:36:35Z</time>
      </trkpt>
      <trkpt lat="48.18935" lon="-2.16831">
        <ele>163</ele>
        <time>2025-05-16T07:36:36Z</time>
      </trkpt>
      <trkpt lat="48.18934" lon="-2.16831">
        <ele>163</ele>
        <time>2025-05-16T07:36:37Z</time>
      </trkpt>
      <trkpt lat="48.18935" lon="-2.16834">
        <ele>163</ele>
        <time>2025-05-16T07:36:38Z</time>
      </trkpt>
      <trkpt lat="48.18935" lon="-2.16835">
        <ele>163</ele>
        <time>2025-05-16T07:36:39Z</time>
      </trkpt>
      <trkpt lat="48.18935" lon="-2.16836">
        <ele>163</ele>
        <time>2025-05-16T07:36:40Z</time>
      </trkpt>
      <trkpt lat="48.18936" lon="-2.16836">
        <ele>163</ele>
        <time>2025-05-16T07:36:41Z</time>
      </trkpt>
      <trkpt lat="48.18938" lon="-2.16837">
        <ele>163</ele>
        <time>2025-05-16T07:36:42Z</time>
      </trkpt>
      <trkpt lat="48.18939" lon="-2.16838">
        <ele>163</ele>
        <time>2025-05-16T07:36:43Z</time>
      </trkpt>
      <trkpt lat="48.18939" lon="-2.1684">
        <ele>163</ele>
        <time>2025-05-16T07:36:44Z</time>
      </trkpt>
      <trkpt lat="48.1894" lon="-2.16844">
        <ele>163</ele>
        <time>2025-05-16T07:36:45Z</time>
      </trkpt>
      <trkpt lat="48.1894" lon="-2.16848">
        <ele>163</ele>
        <time>2025-05-16T07:36:46Z</time>
      </trkpt>
      <trkpt lat="48.1894" lon="-2.16851">
        <ele>163</ele>
        <time>2025-05-16T07:36:47Z</time>
      </trkpt>
      <trkpt lat="48.1894" lon="-2.16855">
        <ele>163</ele>
        <time>2025-05-16T07:36:48Z</time>
      </trkpt>
      <trkpt lat="48.1894" lon="-2.16859">
        <ele>163</ele>
        <time>2025-05-16T07:36:49Z</time>
      </trkpt>
      <trkpt lat="48.1894" lon="-2.16863">
        <ele>163</ele>
        <time>2025-05-16T07:36:50Z</time>
      </trkpt>
      <trkpt lat="48.1894" lon="-2.16867">
        <ele>163</ele>
        <time>2025-05-16T07:36:51Z</time>
      </trkpt>
      <trkpt lat="48.18941" lon="-2.16871">
        <ele>163</ele>
        <time>2025-05-16T07:36:52Z</time>
      </trkpt>
      <trkpt lat="48.18941" lon="-2.16875">
        <ele>163</ele>
        <time>2025-05-16T07:36:53Z</time>
      </trkpt>
      <trkpt lat="48.18942" lon="-2.16878">
        <ele>163</ele>
        <time>2025-05-16T07:36:54Z</time>
      </trkpt>
      <trkpt lat="48.18944" lon="-2.16881">
        <ele>163</ele>
        <time>2025-05-16T07:36:55Z</time>
      </trkpt>
      <trkpt lat="48.18946" lon="-2.16884">
        <ele>163</ele>
        <time>2025-05-16T07:36:56Z</time>
      </trkpt>
      <trkpt lat="48.18948" lon="-2.16885">
        <ele>163</ele>
        <time>2025-05-16T07:36:57Z</time>
      </trkpt>
      <trkpt lat="48.1895" lon="-2.16886">
        <ele>163</ele>
        <time>2025-05-16T07:36:58Z</time>
      </trkpt>
      <trkpt lat="48.18952" lon="-2.16888">
        <ele>163</ele>
        <time>2025-05-16T07:36:59Z</time>
      </trkpt>
      <trkpt lat="48.18953" lon="-2.16889">
        <ele>163</ele>
        <time>2025-05-16T07:37:00Z</time>
      </trkpt>
      <trkpt lat="48.18955" lon="-2.16888">
        <ele>163</ele>
        <time>2025-05-16T07:37:01Z</time>
      </trkpt>
      <trkpt lat="48.18957" lon="-2.16887">
        <ele>163</ele>
        <time>2025-05-16T07:37:02Z</time>
      </trkpt>
      <trkpt lat="48.18959" lon="-2.16885">
        <ele>163</ele>
        <time>2025-05-16T07:37:03Z</time>
      </trkpt>
      <trkpt lat="48.18963" lon="-2.16885">
        <ele>163</ele>
        <time>2025-05-16T07:37:04Z</time>
      </trkpt>
      <trkpt lat="48.18965" lon="-2.16884">
        <ele>163</ele>
        <time>2025-05-16T07:37:05Z</time>
      </trkpt>
      <trkpt lat="48.18968" lon="-2.16882">
        <ele>163</ele>
        <time>2025-05-16T07:37:06Z</time>
      </trkpt>
      <trkpt lat="48.18971" lon="-2.16881">
        <ele>163</ele>
        <time>2025-05-16T07:37:07Z</time>
      </trkpt>
      <trkpt lat="48.18973" lon="-2.1688">
        <ele>163</ele>
        <time>2025-05-16T07:37:08Z</time>
      </trkpt>
      <trkpt lat="48.18976" lon="-2.1688">
        <ele>163</ele>
        <time>2025-05-16T07:37:09Z</time>
      </trkpt>
      <trkpt lat="48.18979" lon="-2.1688">
        <ele>163</ele>
        <time>2025-05-16T07:37:10Z</time>
      </trkpt>
      <trkpt lat="48.18981" lon="-2.1688">
        <ele>163</ele>
        <time>2025-05-16T07:37:11Z</time>
      </trkpt>
      <trkpt lat="48.18984" lon="-2.16881">
        <ele>163</ele>
        <time>2025-05-16T07:37:12Z</time>
      </trkpt>
      <trkpt lat="48.18987" lon="-2.16881">
        <ele>163</ele>
        <time>2025-05-16T07:37:13Z</time>
      </trkpt>
      <trkpt lat="48.1899" lon="-2.1688">
        <ele>163</ele>
        <time>2025-05-16T07:37:14Z</time>
      </trkpt>
      <trkpt lat="48.18993" lon="-2.1688">
        <ele>163</ele>
        <time>2025-05-16T07:37:15Z</time>
      </trkpt>
      <trkpt lat="48.18996" lon="-2.1688">
        <ele>163</ele>
        <time>2025-05-16T07:37:16Z</time>
      </trkpt>
      <trkpt lat="48.18999" lon="-2.16881">
        <ele>163</ele>
        <time>2025-05-16T07:37:17Z</time>
      </trkpt>
      <trkpt lat="48.19002" lon="-2.16882">
        <ele>163</ele>
        <time>2025-05-16T07:37:18Z</time>
      </trkpt>
      <trkpt lat="48.19004" lon="-2.16882">
        <ele>163</ele>
        <time>2025-05-16T07:37:19Z</time>
      </trkpt>
      <trkpt lat="48.19007" lon="-2.16882">
        <ele>163</ele>
        <time>2025-05-16T07:37:20Z</time>
      </trkpt>
      <trkpt lat="48.1901" lon="-2.16883">
        <ele>163</ele>
        <time>2025-05-16T07:37:21Z</time>
      </trkpt>
      <trkpt lat="48.19012" lon="-2.16884">
        <ele>163</ele>
        <time>2025-05-16T07:37:22Z</time>
      </trkpt>
      <trkpt lat="48.19015" lon="-2.16884">
        <ele>163</ele>
        <time>2025-05-16T07:37:23Z</time>
      </trkpt>
      <trkpt lat="48.19018" lon="-2.16884">
        <ele>163</ele>
        <time>2025-05-16T07:37:24Z</time>
      </trkpt>
      <trkpt lat="48.19021" lon="-2.16884">
        <ele>163</ele>
        <time>2025-05-16T07:37:25Z</time>
      </trkpt>
      <trkpt lat="48.19024" lon="-2.16882">
        <ele>163</ele>
        <time>2025-05-16T07:37:26Z</time>
      </trkpt>
      <trkpt lat="48.19026" lon="-2.16881">
        <ele>163</ele>
        <time>2025-05-16T07:37:27Z</time>
      </trkpt>
      <trkpt lat="48.19029" lon="-2.16879">
        <ele>163</ele>
        <time>2025-05-16T07:37:28Z</time>
      </trkpt>
      <trkpt lat="48.19032" lon="-2.16876">
        <ele>163</ele>
        <time>2025-05-16T07:37:29Z</time>
      </trkpt>
      <trkpt lat="48.19034" lon="-2.16872">
        <ele>163</ele>
        <time>2025-05-16T07:37:30Z</time>
      </trkpt>
      <trkpt lat="48.19035" lon="-2.16867">
        <ele>163</ele>
        <time>2025-05-16T07:37:31Z</time>
      </trkpt>
      <trkpt lat="48.19036" lon="-2.16862">
        <ele>163</ele>
        <time>2025-05-16T07:37:32Z</time>
      </trkpt>
      <trkpt lat="48.19038" lon="-2.16857">
        <ele>163</ele>
        <time>2025-05-16T07:37:33Z</time>
      </trkpt>
      <trkpt lat="48.19039" lon="-2.16853">
        <ele>163</ele>
        <time>2025-05-16T07:37:34Z</time>
      </trkpt>
      <trkpt lat="48.19041" lon="-2.16848">
        <ele>163</ele>
        <time>2025-05-16T07:37:35Z</time>
      </trkpt>
      <trkpt lat="48.19042" lon="-2.16844">
        <ele>163</ele>
        <time>2025-05-16T07:37:36Z</time>
      </trkpt>
      <trkpt lat="48.19043" lon="-2.16839">
        <ele>163</ele>
        <time>2025-05-16T07:37:37Z</time>
      </trkpt>
      <trkpt lat="48.19044" lon="-2.16834">
        <ele>163</ele>
        <time>2025-05-16T07:37:38Z</time>
      </trkpt>
      <trkpt lat="48.19046" lon="-2.16829">
        <ele>163</ele>
        <time>2025-05-16T07:37:39Z</time>
      </trkpt>
      <trkpt lat="48.19047" lon="-2.16825">
        <ele>163</ele>
        <time>2025-05-16T07:37:40Z</time>
      </trkpt>
      <trkpt lat="48.19048" lon="-2.1682">
        <ele>163</ele>
        <time>2025-05-16T07:37:41Z</time>
      </trkpt>
      <trkpt lat="48.19049" lon="-2.16815">
        <ele>163</ele>
        <time>2025-05-16T07:37:42Z</time>
      </trkpt>
      <trkpt lat="48.1905" lon="-2.1681">
        <ele>163</ele>
        <time>2025-05-16T07:37:43Z</time>
      </trkpt>
      <trkpt lat="48.1905" lon="-2.16806">
        <ele>163</ele>
        <time>2025-05-16T07:37:44Z</time>
      </trkpt>
      <trkpt lat="48.19051" lon="-2.16801">
        <ele>163</ele>
        <time>2025-05-16T07:37:45Z</time>
      </trkpt>
      <trkpt lat="48.19052" lon="-2.16796">
        <ele>163</ele>
        <time>2025-05-16T07:37:46Z</time>
      </trkpt>
      <trkpt lat="48.19053" lon="-2.16792">
        <ele>163</ele>
        <time>2025-05-16T07:37:47Z</time>
      </trkpt>
      <trkpt lat="48.19054" lon="-2.16787">
        <ele>163</ele>
        <time>2025-05-16T07:37:48Z</time>
      </trkpt>
      <trkpt lat="48.19055" lon="-2.16782">
        <ele>163</ele>
        <time>2025-05-16T07:37:49Z</time>
      </trkpt>
      <trkpt lat="48.19056" lon="-2.16777">
        <ele>163</ele>
        <time>2025-05-16T07:37:50Z</time>
      </trkpt>
      <trkpt lat="48.19056" lon="-2.16772">
        <ele>163</ele>
        <time>2025-05-16T07:37:51Z</time>
      </trkpt>
      <trkpt lat="48.19057" lon="-2.16767">
        <ele>163</ele>
        <time>2025-05-16T07:37:52Z</time>
      </trkpt>
      <trkpt lat="48.19058" lon="-2.16762">
        <ele>163</ele>
        <time>2025-05-16T07:37:53Z</time>
      </trkpt>
      <trkpt lat="48.19059" lon="-2.16758">
        <ele>163</ele>
        <time>2025-05-16T07:37:54Z</time>
      </trkpt>
      <trkpt lat="48.1906" lon="-2.16753">
        <ele>163</ele>
        <time>2025-05-16T07:37:55Z</time>
      </trkpt>
      <trkpt lat="48.19061" lon="-2.16748">
        <ele>163</ele>
        <time>2025-05-16T07:37:56Z</time>
      </trkpt>
      <trkpt lat="48.19061" lon="-2.16743">
        <ele>163</ele>
        <time>2025-05-16T07:37:57Z</time>
      </trkpt>
      <trkpt lat="48.19062" lon="-2.16738">
        <ele>163</ele>
        <time>2025-05-16T07:37:58Z</time>
      </trkpt>
      <trkpt lat="48.19063" lon="-2.16733">
        <ele>163</ele>
        <time>2025-05-16T07:37:59Z</time>
      </trkpt>
      <trkpt lat="48.19063" lon="-2.16728">
        <ele>163</ele>
        <time>2025-05-16T07:38:00Z</time>
      </trkpt>
      <trkpt lat="48.19064" lon="-2.16723">
        <ele>163</ele>
        <time>2025-05-16T07:38:01Z</time>
      </trkpt>
      <trkpt lat="48.19064" lon="-2.16718">
        <ele>163</ele>
        <time>2025-05-16T07:38:02Z</time>
      </trkpt>
      <trkpt lat="48.19064" lon="-2.16714">
        <ele>163</ele>
        <time>2025-05-16T07:38:03Z</time>
      </trkpt>
      <trkpt lat="48.19065" lon="-2.16709">
        <ele>163</ele>
        <time>2025-05-16T07:38:04Z</time>
      </trkpt>
      <trkpt lat="48.19065" lon="-2.16704">
        <ele>163</ele>
        <time>2025-05-16T07:38:05Z</time>
      </trkpt>
      <trkpt lat="48.19066" lon="-2.16699">
        <ele>163</ele>
        <time>2025-05-16T07:38:06Z</time>
      </trkpt>
      <trkpt lat="48.19067" lon="-2.16694">
        <ele>163</ele>
        <time>2025-05-16T07:38:07Z</time>
      </trkpt>
      <trkpt lat="48.19067" lon="-2.16689">
        <ele>161</ele>
        <time>2025-05-16T07:38:08Z</time>
      </trkpt>
      <trkpt lat="48.19068" lon="-2.16684">
        <ele>161</ele>
        <time>2025-05-16T07:38:09Z</time>
      </trkpt>
      <trkpt lat="48.19068" lon="-2.16679">
        <ele>161</ele>
        <time>2025-05-16T07:38:10Z</time>
      </trkpt>
      <trkpt lat="48.19069" lon="-2.16674">
        <ele>161</ele>
        <time>2025-05-16T07:38:11Z</time>
      </trkpt>
      <trkpt lat="48.19069" lon="-2.16669">
        <ele>161</ele>
        <time>2025-05-16T07:38:12Z</time>
      </trkpt>
      <trkpt lat="48.1907" lon="-2.16663">
        <ele>161</ele>
        <time>2025-05-16T07:38:13Z</time>
      </trkpt>
      <trkpt lat="48.19071" lon="-2.16658">
        <ele>162</ele>
        <time>2025-05-16T07:38:14Z</time>
      </trkpt>
      <trkpt lat="48.19072" lon="-2.16653">
        <ele>162</ele>
        <time>2025-05-16T07:38:15Z</time>
      </trkpt>
      <trkpt lat="48.19072" lon="-2.16648">
        <ele>161</ele>
        <time>2025-05-16T07:38:16Z</time>
      </trkpt>
      <trkpt lat="48.19073" lon="-2.16643">
        <ele>162</ele>
        <time>2025-05-16T07:38:17Z</time>
      </trkpt>
      <trkpt lat="48.19073" lon="-2.16639">
        <ele>161</ele>
        <time>2025-05-16T07:38:18Z</time>
      </trkpt>
      <trkpt lat="48.19073" lon="-2.16634">
        <ele>161</ele>
        <time>2025-05-16T07:38:19Z</time>
      </trkpt>
      <trkpt lat="48.19074" lon="-2.16629">
        <ele>161</ele>
        <time>2025-05-16T07:38:20Z</time>
      </trkpt>
      <trkpt lat="48.19075" lon="-2.16624">
        <ele>161</ele>
        <time>2025-05-16T07:38:21Z</time>
      </trkpt>
      <trkpt lat="48.19075" lon="-2.16619">
        <ele>161</ele>
        <time>2025-05-16T07:38:22Z</time>
      </trkpt>
      <trkpt lat="48.19076" lon="-2.16614">
        <ele>161</ele>
        <time>2025-05-16T07:38:23Z</time>
      </trkpt>
      <trkpt lat="48.19076" lon="-2.1661">
        <ele>161</ele>
        <time>2025-05-16T07:38:24Z</time>
      </trkpt>
      <trkpt lat="48.19077" lon="-2.16605">
        <ele>161</ele>
        <time>2025-05-16T07:38:25Z</time>
      </trkpt>
      <trkpt lat="48.19077" lon="-2.166">
        <ele>161</ele>
        <time>2025-05-16T07:38:26Z</time>
      </trkpt>
      <trkpt lat="48.19078" lon="-2.16595">
        <ele>161</ele>
        <time>2025-05-16T07:38:27Z</time>
      </trkpt>
      <trkpt lat="48.19078" lon="-2.1659">
        <ele>161</ele>
        <time>2025-05-16T07:38:28Z</time>
      </trkpt>
      <trkpt lat="48.19079" lon="-2.16585">
        <ele>162</ele>
        <time>2025-05-16T07:38:29Z</time>
      </trkpt>
      <trkpt lat="48.19079" lon="-2.1658">
        <ele>162</ele>
        <time>2025-05-16T07:38:30Z</time>
      </trkpt>
      <trkpt lat="48.1908" lon="-2.16575">
        <ele>162</ele>
        <time>2025-05-16T07:38:31Z</time>
      </trkpt>
      <trkpt lat="48.19081" lon="-2.1657">
        <ele>162</ele>
        <time>2025-05-16T07:38:32Z</time>
      </trkpt>
      <trkpt lat="48.19081" lon="-2.16565">
        <ele>162</ele>
        <time>2025-05-16T07:38:33Z</time>
      </trkpt>
      <trkpt lat="48.19081" lon="-2.1656">
        <ele>161</ele>
        <time>2025-05-16T07:38:34Z</time>
      </trkpt>
      <trkpt lat="48.19082" lon="-2.16556">
        <ele>161</ele>
        <time>2025-05-16T07:38:35Z</time>
      </trkpt>
      <trkpt lat="48.19082" lon="-2.16551">
        <ele>161</ele>
        <time>2025-05-16T07:38:36Z</time>
      </trkpt>
      <trkpt lat="48.19082" lon="-2.16546">
        <ele>162</ele>
        <time>2025-05-16T07:38:37Z</time>
      </trkpt>
      <trkpt lat="48.19083" lon="-2.16542">
        <ele>162</ele>
        <time>2025-05-16T07:38:38Z</time>
      </trkpt>
      <trkpt lat="48.19083" lon="-2.16538">
        <ele>162</ele>
        <time>2025-05-16T07:38:39Z</time>
      </trkpt>
      <trkpt lat="48.19084" lon="-2.16534">
        <ele>163</ele>
        <time>2025-05-16T07:38:40Z</time>
      </trkpt>
      <trkpt lat="48.19085" lon="-2.16531">
        <ele>163</ele>
        <time>2025-05-16T07:38:41Z</time>
      </trkpt>
      <trkpt lat="48.19085" lon="-2.16528">
        <ele>164</ele>
        <time>2025-05-16T07:38:42Z</time>
      </trkpt>
      <trkpt lat="48.19084" lon="-2.16525">
        <ele>163</ele>
        <time>2025-05-16T07:38:43Z</time>
      </trkpt>
      <trkpt lat="48.19084" lon="-2.16524">
        <ele>163</ele>
        <time>2025-05-16T07:38:44Z</time>
      </trkpt>
      <trkpt lat="48.19084" lon="-2.16523">
        <ele>163</ele>
        <time>2025-05-16T07:38:45Z</time>
      </trkpt>
      <trkpt lat="48.19084" lon="-2.16524">
        <ele>162</ele>
        <time>2025-05-16T07:38:46Z</time>
      </trkpt>
      <trkpt lat="48.19084" lon="-2.16523">
        <ele>162</ele>
        <time>2025-05-16T07:38:47Z</time>
      </trkpt>
      <trkpt lat="48.19084" lon="-2.16523">
        <ele>162</ele>
        <time>2025-05-16T07:38:48Z</time>
      </trkpt>
      <trkpt lat="48.19085" lon="-2.16522">
        <ele>162</ele>
        <time>2025-05-16T07:38:49Z</time>
      </trkpt>
      <trkpt lat="48.19085" lon="-2.16521">
        <ele>162</ele>
        <time>2025-05-16T07:38:50Z</time>
      </trkpt>
      <trkpt lat="48.19085" lon="-2.16518">
        <ele>162</ele>
        <time>2025-05-16T07:38:51Z</time>
      </trkpt>
      <trkpt lat="48.19085" lon="-2.16516">
        <ele>162</ele>
        <time>2025-05-16T07:38:52Z</time>
      </trkpt>
      <trkpt lat="48.19086" lon="-2.16513">
        <ele>162</ele>
        <time>2025-05-16T07:38:53Z</time>
      </trkpt>
      <trkpt lat="48.19086" lon="-2.1651">
        <ele>162</ele>
        <time>2025-05-16T07:38:54Z</time>
      </trkpt>
      <trkpt lat="48.19086" lon="-2.16506">
        <ele>162</ele>
        <time>2025-05-16T07:38:55Z</time>
      </trkpt>
      <trkpt lat="48.19087" lon="-2.16503">
        <ele>162</ele>
        <time>2025-05-16T07:38:56Z</time>
      </trkpt>
      <trkpt lat="48.19087" lon="-2.16499">
        <ele>162</ele>
        <time>2025-05-16T07:38:57Z</time>
      </trkpt>
      <trkpt lat="48.19087" lon="-2.16495">
        <ele>162</ele>
        <time>2025-05-16T07:38:58Z</time>
      </trkpt>
      <trkpt lat="48.19088" lon="-2.16491">
        <ele>162</ele>
        <time>2025-05-16T07:38:59Z</time>
      </trkpt>
      <trkpt lat="48.19088" lon="-2.16487">
        <ele>162</ele>
        <time>2025-05-16T07:39:00Z</time>
      </trkpt>
      <trkpt lat="48.19088" lon="-2.16482">
        <ele>162</ele>
        <time>2025-05-16T07:39:01Z</time>
      </trkpt>
      <trkpt lat="48.19088" lon="-2.16478">
        <ele>162</ele>
        <time>2025-05-16T07:39:02Z</time>
      </trkpt>
      <trkpt lat="48.19089" lon="-2.16473">
        <ele>162</ele>
        <time>2025-05-16T07:39:03Z</time>
      </trkpt>
      <trkpt lat="48.19089" lon="-2.16468">
        <ele>162</ele>
        <time>2025-05-16T07:39:04Z</time>
      </trkpt>
      <trkpt lat="48.1909" lon="-2.16463">
        <ele>162</ele>
        <time>2025-05-16T07:39:05Z</time>
      </trkpt>
      <trkpt lat="48.1909" lon="-2.16459">
        <ele>162</ele>
        <time>2025-05-16T07:39:06Z</time>
      </trkpt>
      <trkpt lat="48.1909" lon="-2.16454">
        <ele>162</ele>
        <time>2025-05-16T07:39:07Z</time>
      </trkpt>
      <trkpt lat="48.1909" lon="-2.16449">
        <ele>162</ele>
        <time>2025-05-16T07:39:08Z</time>
      </trkpt>
      <trkpt lat="48.19091" lon="-2.16444">
        <ele>162</ele>
        <time>2025-05-16T07:39:09Z</time>
      </trkpt>
      <trkpt lat="48.19091" lon="-2.16439">
        <ele>162</ele>
        <time>2025-05-16T07:39:10Z</time>
      </trkpt>
      <trkpt lat="48.19091" lon="-2.16434">
        <ele>162</ele>
        <time>2025-05-16T07:39:11Z</time>
      </trkpt>
      <trkpt lat="48.19092" lon="-2.16429">
        <ele>162</ele>
        <time>2025-05-16T07:39:12Z</time>
      </trkpt>
      <trkpt lat="48.19092" lon="-2.16424">
        <ele>162</ele>
        <time>2025-05-16T07:39:13Z</time>
      </trkpt>
      <trkpt lat="48.19093" lon="-2.16418">
        <ele>162</ele>
        <time>2025-05-16T07:39:14Z</time>
      </trkpt>
      <trkpt lat="48.19093" lon="-2.16413">
        <ele>163</ele>
        <time>2025-05-16T07:39:15Z</time>
      </trkpt>
      <trkpt lat="48.19093" lon="-2.16408">
        <ele>163</ele>
        <time>2025-05-16T07:39:16Z</time>
      </trkpt>
      <trkpt lat="48.19093" lon="-2.16403">
        <ele>163</ele>
        <time>2025-05-16T07:39:17Z</time>
      </trkpt>
      <trkpt lat="48.19093" lon="-2.16397">
        <ele>163</ele>
        <time>2025-05-16T07:39:18Z</time>
      </trkpt>
      <trkpt lat="48.19094" lon="-2.16392">
        <ele>163</ele>
        <time>2025-05-16T07:39:19Z</time>
      </trkpt>
      <trkpt lat="48.19094" lon="-2.16387">
        <ele>163</ele>
        <time>2025-05-16T07:39:20Z</time>
      </trkpt>
      <trkpt lat="48.19094" lon="-2.16381">
        <ele>163</ele>
        <time>2025-05-16T07:39:21Z</time>
      </trkpt>
      <trkpt lat="48.19095" lon="-2.16376">
        <ele>163</ele>
        <time>2025-05-16T07:39:22Z</time>
      </trkpt>
      <trkpt lat="48.19095" lon="-2.16371">
        <ele>163</ele>
        <time>2025-05-16T07:39:23Z</time>
      </trkpt>
      <trkpt lat="48.19095" lon="-2.16365">
        <ele>163</ele>
        <time>2025-05-16T07:39:24Z</time>
      </trkpt>
      <trkpt lat="48.19095" lon="-2.1636">
        <ele>163</ele>
        <time>2025-05-16T07:39:25Z</time>
      </trkpt>
      <trkpt lat="48.19095" lon="-2.16354">
        <ele>162</ele>
        <time>2025-05-16T07:39:26Z</time>
      </trkpt>
      <trkpt lat="48.19095" lon="-2.16349">
        <ele>162</ele>
        <time>2025-05-16T07:39:27Z</time>
      </trkpt>
      <trkpt lat="48.19095" lon="-2.16343">
        <ele>162</ele>
        <time>2025-05-16T07:39:28Z</time>
      </trkpt>
      <trkpt lat="48.19095" lon="-2.16337">
        <ele>162</ele>
        <time>2025-05-16T07:39:29Z</time>
      </trkpt>
      <trkpt lat="48.19095" lon="-2.16331">
        <ele>162</ele>
        <time>2025-05-16T07:39:30Z</time>
      </trkpt>
      <trkpt lat="48.19094" lon="-2.16325">
        <ele>162</ele>
        <time>2025-05-16T07:39:31Z</time>
      </trkpt>
      <trkpt lat="48.19095" lon="-2.16319">
        <ele>162</ele>
        <time>2025-05-16T07:39:32Z</time>
      </trkpt>
      <trkpt lat="48.19094" lon="-2.16314">
        <ele>162</ele>
        <time>2025-05-16T07:39:33Z</time>
      </trkpt>
      <trkpt lat="48.19094" lon="-2.16307">
        <ele>162</ele>
        <time>2025-05-16T07:39:34Z</time>
      </trkpt>
      <trkpt lat="48.19094" lon="-2.16302">
        <ele>162</ele>
        <time>2025-05-16T07:39:35Z</time>
      </trkpt>
      <trkpt lat="48.19094" lon="-2.16296">
        <ele>162</ele>
        <time>2025-05-16T07:39:36Z</time>
      </trkpt>
      <trkpt lat="48.19093" lon="-2.1629">
        <ele>162</ele>
        <time>2025-05-16T07:39:37Z</time>
      </trkpt>
      <trkpt lat="48.19093" lon="-2.16284">
        <ele>162</ele>
        <time>2025-05-16T07:39:38Z</time>
      </trkpt>
      <trkpt lat="48.19093" lon="-2.16278">
        <ele>162</ele>
        <time>2025-05-16T07:39:39Z</time>
      </trkpt>
      <trkpt lat="48.19092" lon="-2.16273">
        <ele>162</ele>
        <time>2025-05-16T07:39:40Z</time>
      </trkpt>
      <trkpt lat="48.19092" lon="-2.16267">
        <ele>162</ele>
        <time>2025-05-16T07:39:41Z</time>
      </trkpt>
      <trkpt lat="48.19091" lon="-2.16261">
        <ele>162</ele>
        <time>2025-05-16T07:39:42Z</time>
      </trkpt>
      <trkpt lat="48.19091" lon="-2.16254">
        <ele>162</ele>
        <time>2025-05-16T07:39:43Z</time>
      </trkpt>
      <trkpt lat="48.1909" lon="-2.16248">
        <ele>162</ele>
        <time>2025-05-16T07:39:44Z</time>
      </trkpt>
      <trkpt lat="48.1909" lon="-2.16241">
        <ele>162</ele>
        <time>2025-05-16T07:39:45Z</time>
      </trkpt>
      <trkpt lat="48.1909" lon="-2.16235">
        <ele>162</ele>
        <time>2025-05-16T07:39:46Z</time>
      </trkpt>
      <trkpt lat="48.19089" lon="-2.16228">
        <ele>162</ele>
        <time>2025-05-16T07:39:47Z</time>
      </trkpt>
      <trkpt lat="48.19089" lon="-2.16222">
        <ele>162</ele>
        <time>2025-05-16T07:39:48Z</time>
      </trkpt>
      <trkpt lat="48.19088" lon="-2.16215">
        <ele>162</ele>
        <time>2025-05-16T07:39:49Z</time>
      </trkpt>
      <trkpt lat="48.19088" lon="-2.16209">
        <ele>162</ele>
        <time>2025-05-16T07:39:50Z</time>
      </trkpt>
      <trkpt lat="48.19088" lon="-2.16203">
        <ele>162</ele>
        <time>2025-05-16T07:39:51Z</time>
      </trkpt>
      <trkpt lat="48.19088" lon="-2.16196">
        <ele>162</ele>
        <time>2025-05-16T07:39:52Z</time>
      </trkpt>
      <trkpt lat="48.19087" lon="-2.1619">
        <ele>162</ele>
        <time>2025-05-16T07:39:53Z</time>
      </trkpt>
      <trkpt lat="48.19087" lon="-2.16184">
        <ele>161</ele>
        <time>2025-05-16T07:39:54Z</time>
      </trkpt>
      <trkpt lat="48.19087" lon="-2.16177">
        <ele>161</ele>
        <time>2025-05-16T07:39:55Z</time>
      </trkpt>
      <trkpt lat="48.19087" lon="-2.1617">
        <ele>161</ele>
        <time>2025-05-16T07:39:56Z</time>
      </trkpt>
      <trkpt lat="48.19088" lon="-2.16164">
        <ele>161</ele>
        <time>2025-05-16T07:39:57Z</time>
      </trkpt>
      <trkpt lat="48.19088" lon="-2.16157">
        <ele>160</ele>
        <time>2025-05-16T07:39:58Z</time>
      </trkpt>
      <trkpt lat="48.19088" lon="-2.1615">
        <ele>160</ele>
        <time>2025-05-16T07:39:59Z</time>
      </trkpt>
      <trkpt lat="48.19088" lon="-2.16143">
        <ele>160</ele>
        <time>2025-05-16T07:40:00Z</time>
      </trkpt>
      <trkpt lat="48.19088" lon="-2.16136">
        <ele>160</ele>
        <time>2025-05-16T07:40:01Z</time>
      </trkpt>
      <trkpt lat="48.19088" lon="-2.16129">
        <ele>160</ele>
        <time>2025-05-16T07:40:02Z</time>
      </trkpt>
      <trkpt lat="48.19089" lon="-2.16123">
        <ele>160</ele>
        <time>2025-05-16T07:40:03Z</time>
      </trkpt>
      <trkpt lat="48.1909" lon="-2.16116">
        <ele>160</ele>
        <time>2025-05-16T07:40:04Z</time>
      </trkpt>
      <trkpt lat="48.19091" lon="-2.16109">
        <ele>160</ele>
        <time>2025-05-16T07:40:05Z</time>
      </trkpt>
      <trkpt lat="48.19091" lon="-2.16102">
        <ele>160</ele>
        <time>2025-05-16T07:40:06Z</time>
      </trkpt>
      <trkpt lat="48.19092" lon="-2.16094">
        <ele>160</ele>
        <time>2025-05-16T07:40:07Z</time>
      </trkpt>
      <trkpt lat="48.19093" lon="-2.16087">
        <ele>160</ele>
        <time>2025-05-16T07:40:08Z</time>
      </trkpt>
      <trkpt lat="48.19094" lon="-2.1608">
        <ele>160</ele>
        <time>2025-05-16T07:40:09Z</time>
      </trkpt>
      <trkpt lat="48.19096" lon="-2.16072">
        <ele>160</ele>
        <time>2025-05-16T07:40:10Z</time>
      </trkpt>
      <trkpt lat="48.19097" lon="-2.16064">
        <ele>160</ele>
        <time>2025-05-16T07:40:11Z</time>
      </trkpt>
      <trkpt lat="48.19098" lon="-2.16057">
        <ele>160</ele>
        <time>2025-05-16T07:40:12Z</time>
      </trkpt>
      <trkpt lat="48.191" lon="-2.16049">
        <ele>160</ele>
        <time>2025-05-16T07:40:13Z</time>
      </trkpt>
      <trkpt lat="48.19102" lon="-2.16041">
        <ele>160</ele>
        <time>2025-05-16T07:40:14Z</time>
      </trkpt>
      <trkpt lat="48.19103" lon="-2.16033">
        <ele>159</ele>
        <time>2025-05-16T07:40:15Z</time>
      </trkpt>
      <trkpt lat="48.19104" lon="-2.16025">
        <ele>159</ele>
        <time>2025-05-16T07:40:16Z</time>
      </trkpt>
      <trkpt lat="48.19106" lon="-2.16016">
        <ele>159</ele>
        <time>2025-05-16T07:40:17Z</time>
      </trkpt>
      <trkpt lat="48.19108" lon="-2.16008">
        <ele>159</ele>
        <time>2025-05-16T07:40:18Z</time>
      </trkpt>
      <trkpt lat="48.19109" lon="-2.15999">
        <ele>158</ele>
        <time>2025-05-16T07:40:19Z</time>
      </trkpt>
      <trkpt lat="48.19111" lon="-2.1599">
        <ele>158</ele>
        <time>2025-05-16T07:40:20Z</time>
      </trkpt>
      <trkpt lat="48.19112" lon="-2.15981">
        <ele>157</ele>
        <time>2025-05-16T07:40:21Z</time>
      </trkpt>
      <trkpt lat="48.19113" lon="-2.15972">
        <ele>157</ele>
        <time>2025-05-16T07:40:22Z</time>
      </trkpt>
      <trkpt lat="48.19114" lon="-2.15963">
        <ele>157</ele>
        <time>2025-05-16T07:40:23Z</time>
      </trkpt>
      <trkpt lat="48.19116" lon="-2.15953">
        <ele>158</ele>
        <time>2025-05-16T07:40:24Z</time>
      </trkpt>
      <trkpt lat="48.19117" lon="-2.15943">
        <ele>158</ele>
        <time>2025-05-16T07:40:25Z</time>
      </trkpt>
      <trkpt lat="48.19118" lon="-2.15934">
        <ele>158</ele>
        <time>2025-05-16T07:40:26Z</time>
      </trkpt>
      <trkpt lat="48.19118" lon="-2.15924">
        <ele>158</ele>
        <time>2025-05-16T07:40:27Z</time>
      </trkpt>
      <trkpt lat="48.19118" lon="-2.15915">
        <ele>158</ele>
        <time>2025-05-16T07:40:28Z</time>
      </trkpt>
      <trkpt lat="48.19118" lon="-2.15906">
        <ele>158</ele>
        <time>2025-05-16T07:40:29Z</time>
      </trkpt>
      <trkpt lat="48.19118" lon="-2.15897">
        <ele>158</ele>
        <time>2025-05-16T07:40:30Z</time>
      </trkpt>
      <trkpt lat="48.19118" lon="-2.15889">
        <ele>158</ele>
        <time>2025-05-16T07:40:31Z</time>
      </trkpt>
      <trkpt lat="48.19118" lon="-2.1588">
        <ele>158</ele>
        <time>2025-05-16T07:40:32Z</time>
      </trkpt>
      <trkpt lat="48.19117" lon="-2.15872">
        <ele>159</ele>
        <time>2025-05-16T07:40:33Z</time>
      </trkpt>
      <trkpt lat="48.19117" lon="-2.15865">
        <ele>159</ele>
        <time>2025-05-16T07:40:34Z</time>
      </trkpt>
      <trkpt lat="48.19116" lon="-2.15858">
        <ele>159</ele>
        <time>2025-05-16T07:40:35Z</time>
      </trkpt>
      <trkpt lat="48.19116" lon="-2.15851">
        <ele>159</ele>
        <time>2025-05-16T07:40:36Z</time>
      </trkpt>
      <trkpt lat="48.19115" lon="-2.15844">
        <ele>159</ele>
        <time>2025-05-16T07:40:37Z</time>
      </trkpt>
      <trkpt lat="48.19114" lon="-2.15837">
        <ele>160</ele>
        <time>2025-05-16T07:40:38Z</time>
      </trkpt>
      <trkpt lat="48.19114" lon="-2.1583">
        <ele>160</ele>
        <time>2025-05-16T07:40:39Z</time>
      </trkpt>
      <trkpt lat="48.19113" lon="-2.15824">
        <ele>161</ele>
        <time>2025-05-16T07:40:40Z</time>
      </trkpt>
      <trkpt lat="48.19112" lon="-2.15817">
        <ele>161</ele>
        <time>2025-05-16T07:40:41Z</time>
      </trkpt>
      <trkpt lat="48.19111" lon="-2.15811">
        <ele>161</ele>
        <time>2025-05-16T07:40:42Z</time>
      </trkpt>
      <trkpt lat="48.1911" lon="-2.15804">
        <ele>161</ele>
        <time>2025-05-16T07:40:43Z</time>
      </trkpt>
      <trkpt lat="48.1911" lon="-2.15798">
        <ele>161</ele>
        <time>2025-05-16T07:40:44Z</time>
      </trkpt>
      <trkpt lat="48.19109" lon="-2.15792">
        <ele>161</ele>
        <time>2025-05-16T07:40:45Z</time>
      </trkpt>
      <trkpt lat="48.19108" lon="-2.15785">
        <ele>161</ele>
        <time>2025-05-16T07:40:46Z</time>
      </trkpt>
      <trkpt lat="48.19107" lon="-2.15779">
        <ele>161</ele>
        <time>2025-05-16T07:40:47Z</time>
      </trkpt>
      <trkpt lat="48.19106" lon="-2.15774">
        <ele>161</ele>
        <time>2025-05-16T07:40:48Z</time>
      </trkpt>
      <trkpt lat="48.19105" lon="-2.15768">
        <ele>161</ele>
        <time>2025-05-16T07:40:49Z</time>
      </trkpt>
      <trkpt lat="48.19105" lon="-2.15762">
        <ele>161</ele>
        <time>2025-05-16T07:40:50Z</time>
      </trkpt>
      <trkpt lat="48.19104" lon="-2.15755">
        <ele>162</ele>
        <time>2025-05-16T07:40:51Z</time>
      </trkpt>
      <trkpt lat="48.19103" lon="-2.15749">
        <ele>162</ele>
        <time>2025-05-16T07:40:52Z</time>
      </trkpt>
      <trkpt lat="48.19103" lon="-2.15743">
        <ele>161</ele>
        <time>2025-05-16T07:40:53Z</time>
      </trkpt>
      <trkpt lat="48.19102" lon="-2.15737">
        <ele>161</ele>
        <time>2025-05-16T07:40:54Z</time>
      </trkpt>
      <trkpt lat="48.19101" lon="-2.15731">
        <ele>161</ele>
        <time>2025-05-16T07:40:55Z</time>
      </trkpt>
      <trkpt lat="48.191" lon="-2.15726">
        <ele>161</ele>
        <time>2025-05-16T07:40:56Z</time>
      </trkpt>
      <trkpt lat="48.191" lon="-2.1572">
        <ele>161</ele>
        <time>2025-05-16T07:40:57Z</time>
      </trkpt>
      <trkpt lat="48.19099" lon="-2.15714">
        <ele>161</ele>
        <time>2025-05-16T07:40:58Z</time>
      </trkpt>
      <trkpt lat="48.19098" lon="-2.15708">
        <ele>161</ele>
        <time>2025-05-16T07:40:59Z</time>
      </trkpt>
      <trkpt lat="48.19098" lon="-2.15702">
        <ele>161</ele>
        <time>2025-05-16T07:41:00Z</time>
      </trkpt>
      <trkpt lat="48.19097" lon="-2.15696">
        <ele>161</ele>
        <time>2025-05-16T07:41:01Z</time>
      </trkpt>
      <trkpt lat="48.19096" lon="-2.1569">
        <ele>161</ele>
        <time>2025-05-16T07:41:02Z</time>
      </trkpt>
      <trkpt lat="48.19096" lon="-2.15684">
        <ele>161</ele>
        <time>2025-05-16T07:41:03Z</time>
      </trkpt>
      <trkpt lat="48.19095" lon="-2.15679">
        <ele>161</ele>
        <time>2025-05-16T07:41:04Z</time>
      </trkpt>
      <trkpt lat="48.19094" lon="-2.15673">
        <ele>161</ele>
        <time>2025-05-16T07:41:05Z</time>
      </trkpt>
      <trkpt lat="48.19093" lon="-2.15667">
        <ele>162</ele>
        <time>2025-05-16T07:41:06Z</time>
      </trkpt>
      <trkpt lat="48.19093" lon="-2.15662">
        <ele>162</ele>
        <time>2025-05-16T07:41:07Z</time>
      </trkpt>
      <trkpt lat="48.19093" lon="-2.15656">
        <ele>162</ele>
        <time>2025-05-16T07:41:08Z</time>
      </trkpt>
      <trkpt lat="48.19092" lon="-2.1565">
        <ele>162</ele>
        <time>2025-05-16T07:41:09Z</time>
      </trkpt>
      <trkpt lat="48.19091" lon="-2.15644">
        <ele>162</ele>
        <time>2025-05-16T07:41:10Z</time>
      </trkpt>
      <trkpt lat="48.19091" lon="-2.15638">
        <ele>162</ele>
        <time>2025-05-16T07:41:11Z</time>
      </trkpt>
      <trkpt lat="48.1909" lon="-2.15632">
        <ele>161</ele>
        <time>2025-05-16T07:41:12Z</time>
      </trkpt>
      <trkpt lat="48.1909" lon="-2.15627">
        <ele>161</ele>
        <time>2025-05-16T07:41:13Z</time>
      </trkpt>
      <trkpt lat="48.19089" lon="-2.15621">
        <ele>161</ele>
        <time>2025-05-16T07:41:14Z</time>
      </trkpt>
      <trkpt lat="48.19088" lon="-2.15615">
        <ele>161</ele>
        <time>2025-05-16T07:41:15Z</time>
      </trkpt>
      <trkpt lat="48.19088" lon="-2.15609">
        <ele>162</ele>
        <time>2025-05-16T07:41:16Z</time>
      </trkpt>
      <trkpt lat="48.19087" lon="-2.15602">
        <ele>162</ele>
        <time>2025-05-16T07:41:17Z</time>
      </trkpt>
      <trkpt lat="48.19087" lon="-2.15596">
        <ele>162</ele>
        <time>2025-05-16T07:41:18Z</time>
      </trkpt>
      <trkpt lat="48.19086" lon="-2.1559">
        <ele>162</ele>
        <time>2025-05-16T07:41:19Z</time>
      </trkpt>
      <trkpt lat="48.19086" lon="-2.15584">
        <ele>162</ele>
        <time>2025-05-16T07:41:20Z</time>
      </trkpt>
      <trkpt lat="48.19085" lon="-2.15577">
        <ele>162</ele>
        <time>2025-05-16T07:41:21Z</time>
      </trkpt>
      <trkpt lat="48.19084" lon="-2.15571">
        <ele>162</ele>
        <time>2025-05-16T07:41:22Z</time>
      </trkpt>
      <trkpt lat="48.19083" lon="-2.15565">
        <ele>162</ele>
        <time>2025-05-16T07:41:23Z</time>
      </trkpt>
      <trkpt lat="48.19083" lon="-2.1556">
        <ele>162</ele>
        <time>2025-05-16T07:41:24Z</time>
      </trkpt>
      <trkpt lat="48.19082" lon="-2.15553">
        <ele>161</ele>
        <time>2025-05-16T07:41:25Z</time>
      </trkpt>
      <trkpt lat="48.19081" lon="-2.15547">
        <ele>161</ele>
        <time>2025-05-16T07:41:26Z</time>
      </trkpt>
      <trkpt lat="48.19081" lon="-2.15541">
        <ele>161</ele>
        <time>2025-05-16T07:41:27Z</time>
      </trkpt>
      <trkpt lat="48.1908" lon="-2.15535">
        <ele>161</ele>
        <time>2025-05-16T07:41:28Z</time>
      </trkpt>
      <trkpt lat="48.19079" lon="-2.15529">
        <ele>162</ele>
        <time>2025-05-16T07:41:29Z</time>
      </trkpt>
      <trkpt lat="48.19078" lon="-2.15523">
        <ele>162</ele>
        <time>2025-05-16T07:41:30Z</time>
      </trkpt>
      <trkpt lat="48.19078" lon="-2.15516">
        <ele>162</ele>
        <time>2025-05-16T07:41:31Z</time>
      </trkpt>
      <trkpt lat="48.19077" lon="-2.1551">
        <ele>162</ele>
        <time>2025-05-16T07:41:32Z</time>
      </trkpt>
      <trkpt lat="48.19077" lon="-2.15504">
        <ele>162</ele>
        <time>2025-05-16T07:41:33Z</time>
      </trkpt>
      <trkpt lat="48.19076" lon="-2.15498">
        <ele>162</ele>
        <time>2025-05-16T07:41:34Z</time>
      </trkpt>
      <trkpt lat="48.19076" lon="-2.15491">
        <ele>162</ele>
        <time>2025-05-16T07:41:35Z</time>
      </trkpt>
      <trkpt lat="48.19075" lon="-2.15485">
        <ele>162</ele>
        <time>2025-05-16T07:41:36Z</time>
      </trkpt>
      <trkpt lat="48.19074" lon="-2.15479">
        <ele>162</ele>
        <time>2025-05-16T07:41:37Z</time>
      </trkpt>
      <trkpt lat="48.19074" lon="-2.15472">
        <ele>162</ele>
        <time>2025-05-16T07:41:38Z</time>
      </trkpt>
      <trkpt lat="48.19073" lon="-2.15465">
        <ele>162</ele>
        <time>2025-05-16T07:41:39Z</time>
      </trkpt>
      <trkpt lat="48.19072" lon="-2.15458">
        <ele>162</ele>
        <time>2025-05-16T07:41:40Z</time>
      </trkpt>
      <trkpt lat="48.19071" lon="-2.15452">
        <ele>162</ele>
        <time>2025-05-16T07:41:41Z</time>
      </trkpt>
      <trkpt lat="48.1907" lon="-2.15445">
        <ele>162</ele>
        <time>2025-05-16T07:41:42Z</time>
      </trkpt>
      <trkpt lat="48.19069" lon="-2.15439">
        <ele>161</ele>
        <time>2025-05-16T07:41:43Z</time>
      </trkpt>
      <trkpt lat="48.19069" lon="-2.15432">
        <ele>161</ele>
        <time>2025-05-16T07:41:44Z</time>
      </trkpt>
      <trkpt lat="48.19068" lon="-2.15425">
        <ele>162</ele>
        <time>2025-05-16T07:41:45Z</time>
      </trkpt>
      <trkpt lat="48.19067" lon="-2.15418">
        <ele>162</ele>
        <time>2025-05-16T07:41:46Z</time>
      </trkpt>
      <trkpt lat="48.19066" lon="-2.15411">
        <ele>162</ele>
        <time>2025-05-16T07:41:47Z</time>
      </trkpt>
      <trkpt lat="48.19065" lon="-2.15404">
        <ele>161</ele>
        <time>2025-05-16T07:41:48Z</time>
      </trkpt>
      <trkpt lat="48.19065" lon="-2.15397">
        <ele>161</ele>
        <time>2025-05-16T07:41:49Z</time>
      </trkpt>
      <trkpt lat="48.19064" lon="-2.1539">
        <ele>161</ele>
        <time>2025-05-16T07:41:50Z</time>
      </trkpt>
      <trkpt lat="48.19063" lon="-2.15383">
        <ele>161</ele>
        <time>2025-05-16T07:41:51Z</time>
      </trkpt>
      <trkpt lat="48.19063" lon="-2.15376">
        <ele>161</ele>
        <time>2025-05-16T07:41:52Z</time>
      </trkpt>
      <trkpt lat="48.19062" lon="-2.15369">
        <ele>161</ele>
        <time>2025-05-16T07:41:53Z</time>
      </trkpt>
      <trkpt lat="48.19062" lon="-2.15362">
        <ele>161</ele>
        <time>2025-05-16T07:41:54Z</time>
      </trkpt>
      <trkpt lat="48.19061" lon="-2.15355">
        <ele>161</ele>
        <time>2025-05-16T07:41:55Z</time>
      </trkpt>
      <trkpt lat="48.1906" lon="-2.15347">
        <ele>161</ele>
        <time>2025-05-16T07:41:56Z</time>
      </trkpt>
      <trkpt lat="48.19059" lon="-2.1534">
        <ele>161</ele>
        <time>2025-05-16T07:41:57Z</time>
      </trkpt>
      <trkpt lat="48.19058" lon="-2.15333">
        <ele>160</ele>
        <time>2025-05-16T07:41:58Z</time>
      </trkpt>
      <trkpt lat="48.19057" lon="-2.15325">
        <ele>160</ele>
        <time>2025-05-16T07:41:59Z</time>
      </trkpt>
      <trkpt lat="48.19056" lon="-2.15318">
        <ele>160</ele>
        <time>2025-05-16T07:42:00Z</time>
      </trkpt>
      <trkpt lat="48.19055" lon="-2.15311">
        <ele>160</ele>
        <time>2025-05-16T07:42:01Z</time>
      </trkpt>
      <trkpt lat="48.19054" lon="-2.15303">
        <ele>160</ele>
        <time>2025-05-16T07:42:02Z</time>
      </trkpt>
      <trkpt lat="48.19054" lon="-2.15296">
        <ele>160</ele>
        <time>2025-05-16T07:42:03Z</time>
      </trkpt>
      <trkpt lat="48.19053" lon="-2.15288">
        <ele>160</ele>
        <time>2025-05-16T07:42:04Z</time>
      </trkpt>
      <trkpt lat="48.19052" lon="-2.1528">
        <ele>160</ele>
        <time>2025-05-16T07:42:05Z</time>
      </trkpt>
      <trkpt lat="48.19052" lon="-2.15273">
        <ele>160</ele>
        <time>2025-05-16T07:42:06Z</time>
      </trkpt>
      <trkpt lat="48.19051" lon="-2.15265">
        <ele>160</ele>
        <time>2025-05-16T07:42:07Z</time>
      </trkpt>
      <trkpt lat="48.1905" lon="-2.15258">
        <ele>160</ele>
        <time>2025-05-16T07:42:08Z</time>
      </trkpt>
      <trkpt lat="48.1905" lon="-2.15251">
        <ele>160</ele>
        <time>2025-05-16T07:42:09Z</time>
      </trkpt>
      <trkpt lat="48.19048" lon="-2.15244">
        <ele>160</ele>
        <time>2025-05-16T07:42:10Z</time>
      </trkpt>
      <trkpt lat="48.19048" lon="-2.15237">
        <ele>160</ele>
        <time>2025-05-16T07:42:11Z</time>
      </trkpt>
      <trkpt lat="48.19047" lon="-2.1523">
        <ele>160</ele>
        <time>2025-05-16T07:42:12Z</time>
      </trkpt>
      <trkpt lat="48.19046" lon="-2.15223">
        <ele>161</ele>
        <time>2025-05-16T07:42:13Z</time>
      </trkpt>
      <trkpt lat="48.19045" lon="-2.15215">
        <ele>161</ele>
        <time>2025-05-16T07:42:14Z</time>
      </trkpt>
      <trkpt lat="48.19044" lon="-2.15208">
        <ele>160</ele>
        <time>2025-05-16T07:42:15Z</time>
      </trkpt>
      <trkpt lat="48.19043" lon="-2.15202">
        <ele>160</ele>
        <time>2025-05-16T07:42:16Z</time>
      </trkpt>
      <trkpt lat="48.19042" lon="-2.15195">
        <ele>160</ele>
        <time>2025-05-16T07:42:17Z</time>
      </trkpt>
      <trkpt lat="48.19042" lon="-2.15188">
        <ele>160</ele>
        <time>2025-05-16T07:42:18Z</time>
      </trkpt>
      <trkpt lat="48.19041" lon="-2.15182">
        <ele>160</ele>
        <time>2025-05-16T07:42:19Z</time>
      </trkpt>
      <trkpt lat="48.1904" lon="-2.15175">
        <ele>161</ele>
        <time>2025-05-16T07:42:20Z</time>
      </trkpt>
      <trkpt lat="48.19039" lon="-2.15168">
        <ele>161</ele>
        <time>2025-05-16T07:42:21Z</time>
      </trkpt>
      <trkpt lat="48.19039" lon="-2.15161">
        <ele>160</ele>
        <time>2025-05-16T07:42:22Z</time>
      </trkpt>
      <trkpt lat="48.19038" lon="-2.15155">
        <ele>160</ele>
        <time>2025-05-16T07:42:23Z</time>
      </trkpt>
      <trkpt lat="48.19037" lon="-2.15148">
        <ele>160</ele>
        <time>2025-05-16T07:42:24Z</time>
      </trkpt>
      <trkpt lat="48.19036" lon="-2.15142">
        <ele>160</ele>
        <time>2025-05-16T07:42:25Z</time>
      </trkpt>
      <trkpt lat="48.19036" lon="-2.15135">
        <ele>160</ele>
        <time>2025-05-16T07:42:26Z</time>
      </trkpt>
      <trkpt lat="48.19035" lon="-2.15129">
        <ele>160</ele>
        <time>2025-05-16T07:42:27Z</time>
      </trkpt>
      <trkpt lat="48.19034" lon="-2.15122">
        <ele>160</ele>
        <time>2025-05-16T07:42:28Z</time>
      </trkpt>
      <trkpt lat="48.19033" lon="-2.15115">
        <ele>160</ele>
        <time>2025-05-16T07:42:29Z</time>
      </trkpt>
      <trkpt lat="48.19033" lon="-2.15108">
        <ele>160</ele>
        <time>2025-05-16T07:42:30Z</time>
      </trkpt>
      <trkpt lat="48.19032" lon="-2.15101">
        <ele>160</ele>
        <time>2025-05-16T07:42:31Z</time>
      </trkpt>
      <trkpt lat="48.19031" lon="-2.15094">
        <ele>160</ele>
        <time>2025-05-16T07:42:32Z</time>
      </trkpt>
      <trkpt lat="48.19031" lon="-2.15087">
        <ele>160</ele>
        <time>2025-05-16T07:42:33Z</time>
      </trkpt>
      <trkpt lat="48.1903" lon="-2.1508">
        <ele>160</ele>
        <time>2025-05-16T07:42:34Z</time>
      </trkpt>
      <trkpt lat="48.19029" lon="-2.15073">
        <ele>159</ele>
        <time>2025-05-16T07:42:35Z</time>
      </trkpt>
      <trkpt lat="48.19028" lon="-2.15066">
        <ele>159</ele>
        <time>2025-05-16T07:42:36Z</time>
      </trkpt>
      <trkpt lat="48.19027" lon="-2.15058">
        <ele>159</ele>
        <time>2025-05-16T07:42:37Z</time>
      </trkpt>
      <trkpt lat="48.19027" lon="-2.1505">
        <ele>160</ele>
        <time>2025-05-16T07:42:38Z</time>
      </trkpt>
      <trkpt lat="48.19026" lon="-2.15043">
        <ele>160</ele>
        <time>2025-05-16T07:42:39Z</time>
      </trkpt>
      <trkpt lat="48.19025" lon="-2.15037">
        <ele>160</ele>
        <time>2025-05-16T07:42:40Z</time>
      </trkpt>
      <trkpt lat="48.19024" lon="-2.1503">
        <ele>161</ele>
        <time>2025-05-16T07:42:41Z</time>
      </trkpt>
      <trkpt lat="48.19023" lon="-2.15023">
        <ele>161</ele>
        <time>2025-05-16T07:42:42Z</time>
      </trkpt>
      <trkpt lat="48.19023" lon="-2.15016">
        <ele>161</ele>
        <time>2025-05-16T07:42:43Z</time>
      </trkpt>
      <trkpt lat="48.19022" lon="-2.15009">
        <ele>161</ele>
        <time>2025-05-16T07:42:44Z</time>
      </trkpt>
      <trkpt lat="48.19021" lon="-2.15002">
        <ele>160</ele>
        <time>2025-05-16T07:42:45Z</time>
      </trkpt>
      <trkpt lat="48.19021" lon="-2.14995">
        <ele>160</ele>
        <time>2025-05-16T07:42:46Z</time>
      </trkpt>
      <trkpt lat="48.1902" lon="-2.14988">
        <ele>160</ele>
        <time>2025-05-16T07:42:47Z</time>
      </trkpt>
      <trkpt lat="48.19019" lon="-2.14981">
        <ele>160</ele>
        <time>2025-05-16T07:42:48Z</time>
      </trkpt>
      <trkpt lat="48.19019" lon="-2.14974">
        <ele>160</ele>
        <time>2025-05-16T07:42:49Z</time>
      </trkpt>
      <trkpt lat="48.19018" lon="-2.14968">
        <ele>160</ele>
        <time>2025-05-16T07:42:50Z</time>
      </trkpt>
      <trkpt lat="48.19018" lon="-2.14961">
        <ele>160</ele>
        <time>2025-05-16T07:42:51Z</time>
      </trkpt>
      <trkpt lat="48.19017" lon="-2.14955">
        <ele>160</ele>
        <time>2025-05-16T07:42:52Z</time>
      </trkpt>
      <trkpt lat="48.19016" lon="-2.14948">
        <ele>160</ele>
        <time>2025-05-16T07:42:53Z</time>
      </trkpt>
      <trkpt lat="48.19016" lon="-2.14941">
        <ele>160</ele>
        <time>2025-05-16T07:42:54Z</time>
      </trkpt>
      <trkpt lat="48.19015" lon="-2.14934">
        <ele>160</ele>
        <time>2025-05-16T07:42:55Z</time>
      </trkpt>
      <trkpt lat="48.19014" lon="-2.14927">
        <ele>160</ele>
        <time>2025-05-16T07:42:56Z</time>
      </trkpt>
      <trkpt lat="48.19014" lon="-2.1492">
        <ele>160</ele>
        <time>2025-05-16T07:42:57Z</time>
      </trkpt>
      <trkpt lat="48.19013" lon="-2.14913">
        <ele>159</ele>
        <time>2025-05-16T07:42:58Z</time>
      </trkpt>
      <trkpt lat="48.19013" lon="-2.14906">
        <ele>159</ele>
        <time>2025-05-16T07:42:59Z</time>
      </trkpt>
      <trkpt lat="48.19012" lon="-2.14899">
        <ele>158</ele>
        <time>2025-05-16T07:43:00Z</time>
      </trkpt>
      <trkpt lat="48.19012" lon="-2.14891">
        <ele>158</ele>
        <time>2025-05-16T07:43:01Z</time>
      </trkpt>
      <trkpt lat="48.19011" lon="-2.14884">
        <ele>158</ele>
        <time>2025-05-16T07:43:02Z</time>
      </trkpt>
      <trkpt lat="48.19011" lon="-2.14877">
        <ele>158</ele>
        <time>2025-05-16T07:43:03Z</time>
      </trkpt>
      <trkpt lat="48.19011" lon="-2.1487">
        <ele>158</ele>
        <time>2025-05-16T07:43:04Z</time>
      </trkpt>
      <trkpt lat="48.1901" lon="-2.14863">
        <ele>158</ele>
        <time>2025-05-16T07:43:05Z</time>
      </trkpt>
      <trkpt lat="48.1901" lon="-2.14856">
        <ele>159</ele>
        <time>2025-05-16T07:43:06Z</time>
      </trkpt>
      <trkpt lat="48.1901" lon="-2.14849">
        <ele>159</ele>
        <time>2025-05-16T07:43:07Z</time>
      </trkpt>
      <trkpt lat="48.1901" lon="-2.14842">
        <ele>159</ele>
        <time>2025-05-16T07:43:08Z</time>
      </trkpt>
      <trkpt lat="48.19009" lon="-2.14835">
        <ele>158</ele>
        <time>2025-05-16T07:43:09Z</time>
      </trkpt>
      <trkpt lat="48.19009" lon="-2.14827">
        <ele>158</ele>
        <time>2025-05-16T07:43:10Z</time>
      </trkpt>
      <trkpt lat="48.19009" lon="-2.1482">
        <ele>158</ele>
        <time>2025-05-16T07:43:11Z</time>
      </trkpt>
      <trkpt lat="48.19009" lon="-2.14813">
        <ele>158</ele>
        <time>2025-05-16T07:43:12Z</time>
      </trkpt>
      <trkpt lat="48.19009" lon="-2.14806">
        <ele>158</ele>
        <time>2025-05-16T07:43:13Z</time>
      </trkpt>
      <trkpt lat="48.19009" lon="-2.14799">
        <ele>158</ele>
        <time>2025-05-16T07:43:14Z</time>
      </trkpt>
      <trkpt lat="48.19009" lon="-2.14792">
        <ele>158</ele>
        <time>2025-05-16T07:43:15Z</time>
      </trkpt>
      <trkpt lat="48.19009" lon="-2.14786">
        <ele>158</ele>
        <time>2025-05-16T07:43:16Z</time>
      </trkpt>
      <trkpt lat="48.19009" lon="-2.14779">
        <ele>157</ele>
        <time>2025-05-16T07:43:17Z</time>
      </trkpt>
      <trkpt lat="48.19008" lon="-2.14772">
        <ele>158</ele>
        <time>2025-05-16T07:43:18Z</time>
      </trkpt>
      <trkpt lat="48.19009" lon="-2.14764">
        <ele>158</ele>
        <time>2025-05-16T07:43:19Z</time>
      </trkpt>
      <trkpt lat="48.19009" lon="-2.14757">
        <ele>158</ele>
        <time>2025-05-16T07:43:20Z</time>
      </trkpt>
      <trkpt lat="48.19009" lon="-2.1475">
        <ele>158</ele>
        <time>2025-05-16T07:43:21Z</time>
      </trkpt>
      <trkpt lat="48.19009" lon="-2.14743">
        <ele>158</ele>
        <time>2025-05-16T07:43:22Z</time>
      </trkpt>
      <trkpt lat="48.1901" lon="-2.14736">
        <ele>158</ele>
        <time>2025-05-16T07:43:23Z</time>
      </trkpt>
      <trkpt lat="48.1901" lon="-2.14728">
        <ele>158</ele>
        <time>2025-05-16T07:43:24Z</time>
      </trkpt>
      <trkpt lat="48.1901" lon="-2.1472">
        <ele>158</ele>
        <time>2025-05-16T07:43:25Z</time>
      </trkpt>
      <trkpt lat="48.1901" lon="-2.14713">
        <ele>158</ele>
        <time>2025-05-16T07:43:26Z</time>
      </trkpt>
      <trkpt lat="48.19011" lon="-2.14706">
        <ele>158</ele>
        <time>2025-05-16T07:43:27Z</time>
      </trkpt>
      <trkpt lat="48.19011" lon="-2.14698">
        <ele>158</ele>
        <time>2025-05-16T07:43:28Z</time>
      </trkpt>
      <trkpt lat="48.19011" lon="-2.14691">
        <ele>158</ele>
        <time>2025-05-16T07:43:29Z</time>
      </trkpt>
      <trkpt lat="48.19011" lon="-2.14684">
        <ele>158</ele>
        <time>2025-05-16T07:43:30Z</time>
      </trkpt>
      <trkpt lat="48.19012" lon="-2.14676">
        <ele>157</ele>
        <time>2025-05-16T07:43:31Z</time>
      </trkpt>
      <trkpt lat="48.19012" lon="-2.14669">
        <ele>157</ele>
        <time>2025-05-16T07:43:32Z</time>
      </trkpt>
      <trkpt lat="48.19013" lon="-2.14662">
        <ele>157</ele>
        <time>2025-05-16T07:43:33Z</time>
      </trkpt>
      <trkpt lat="48.19013" lon="-2.14654">
        <ele>158</ele>
        <time>2025-05-16T07:43:34Z</time>
      </trkpt>
      <trkpt lat="48.19013" lon="-2.14648">
        <ele>158</ele>
        <time>2025-05-16T07:43:35Z</time>
      </trkpt>
      <trkpt lat="48.19014" lon="-2.14641">
        <ele>158</ele>
        <time>2025-05-16T07:43:36Z</time>
      </trkpt>
      <trkpt lat="48.19014" lon="-2.14633">
        <ele>157</ele>
        <time>2025-05-16T07:43:37Z</time>
      </trkpt>
      <trkpt lat="48.19014" lon="-2.14626">
        <ele>157</ele>
        <time>2025-05-16T07:43:38Z</time>
      </trkpt>
      <trkpt lat="48.19014" lon="-2.14619">
        <ele>158</ele>
        <time>2025-05-16T07:43:39Z</time>
      </trkpt>
      <trkpt lat="48.19014" lon="-2.14612">
        <ele>158</ele>
        <time>2025-05-16T07:43:40Z</time>
      </trkpt>
      <trkpt lat="48.19015" lon="-2.14605">
        <ele>158</ele>
        <time>2025-05-16T07:43:41Z</time>
      </trkpt>
      <trkpt lat="48.19015" lon="-2.14598">
        <ele>158</ele>
        <time>2025-05-16T07:43:42Z</time>
      </trkpt>
      <trkpt lat="48.19016" lon="-2.1459">
        <ele>158</ele>
        <time>2025-05-16T07:43:43Z</time>
      </trkpt>
      <trkpt lat="48.19016" lon="-2.14583">
        <ele>158</ele>
        <time>2025-05-16T07:43:44Z</time>
      </trkpt>
      <trkpt lat="48.19017" lon="-2.14576">
        <ele>158</ele>
        <time>2025-05-16T07:43:45Z</time>
      </trkpt>
      <trkpt lat="48.19017" lon="-2.14569">
        <ele>158</ele>
        <time>2025-05-16T07:43:46Z</time>
      </trkpt>
      <trkpt lat="48.19017" lon="-2.14562">
        <ele>157</ele>
        <time>2025-05-16T07:43:47Z</time>
      </trkpt>
      <trkpt lat="48.19018" lon="-2.14555">
        <ele>157</ele>
        <time>2025-05-16T07:43:48Z</time>
      </trkpt>
      <trkpt lat="48.19018" lon="-2.14548">
        <ele>157</ele>
        <time>2025-05-16T07:43:49Z</time>
      </trkpt>
      <trkpt lat="48.19019" lon="-2.14541">
        <ele>157</ele>
        <time>2025-05-16T07:43:50Z</time>
      </trkpt>
      <trkpt lat="48.19019" lon="-2.14534">
        <ele>158</ele>
        <time>2025-05-16T07:43:51Z</time>
      </trkpt>
      <trkpt lat="48.1902" lon="-2.14527">
        <ele>157</ele>
        <time>2025-05-16T07:43:52Z</time>
      </trkpt>
      <trkpt lat="48.1902" lon="-2.1452">
        <ele>157</ele>
        <time>2025-05-16T07:43:53Z</time>
      </trkpt>
      <trkpt lat="48.19021" lon="-2.14513">
        <ele>156</ele>
        <time>2025-05-16T07:43:54Z</time>
      </trkpt>
      <trkpt lat="48.19021" lon="-2.14506">
        <ele>156</ele>
        <time>2025-05-16T07:43:55Z</time>
      </trkpt>
      <trkpt lat="48.19021" lon="-2.14499">
        <ele>156</ele>
        <time>2025-05-16T07:43:56Z</time>
      </trkpt>
      <trkpt lat="48.19022" lon="-2.14492">
        <ele>156</ele>
        <time>2025-05-16T07:43:57Z</time>
      </trkpt>
      <trkpt lat="48.19023" lon="-2.14484">
        <ele>156</ele>
        <time>2025-05-16T07:43:58Z</time>
      </trkpt>
      <trkpt lat="48.19023" lon="-2.14477">
        <ele>156</ele>
        <time>2025-05-16T07:43:59Z</time>
      </trkpt>
      <trkpt lat="48.19023" lon="-2.1447">
        <ele>156</ele>
        <time>2025-05-16T07:44:00Z</time>
      </trkpt>
      <trkpt lat="48.19024" lon="-2.14462">
        <ele>156</ele>
        <time>2025-05-16T07:44:01Z</time>
      </trkpt>
      <trkpt lat="48.19024" lon="-2.14455">
        <ele>156</ele>
        <time>2025-05-16T07:44:02Z</time>
      </trkpt>
      <trkpt lat="48.19025" lon="-2.14448">
        <ele>156</ele>
        <time>2025-05-16T07:44:03Z</time>
      </trkpt>
      <trkpt lat="48.19025" lon="-2.14441">
        <ele>156</ele>
        <time>2025-05-16T07:44:04Z</time>
      </trkpt>
      <trkpt lat="48.19026" lon="-2.14433">
        <ele>156</ele>
        <time>2025-05-16T07:44:05Z</time>
      </trkpt>
      <trkpt lat="48.19026" lon="-2.14426">
        <ele>156</ele>
        <time>2025-05-16T07:44:06Z</time>
      </trkpt>
      <trkpt lat="48.19026" lon="-2.14419">
        <ele>156</ele>
        <time>2025-05-16T07:44:07Z</time>
      </trkpt>
      <trkpt lat="48.19027" lon="-2.14411">
        <ele>156</ele>
        <time>2025-05-16T07:44:08Z</time>
      </trkpt>
      <trkpt lat="48.19027" lon="-2.14404">
        <ele>156</ele>
        <time>2025-05-16T07:44:09Z</time>
      </trkpt>
      <trkpt lat="48.19028" lon="-2.14397">
        <ele>156</ele>
        <time>2025-05-16T07:44:10Z</time>
      </trkpt>
      <trkpt lat="48.19028" lon="-2.14389">
        <ele>156</ele>
        <time>2025-05-16T07:44:11Z</time>
      </trkpt>
      <trkpt lat="48.19029" lon="-2.14382">
        <ele>156</ele>
        <time>2025-05-16T07:44:12Z</time>
      </trkpt>
      <trkpt lat="48.19029" lon="-2.14375">
        <ele>156</ele>
        <time>2025-05-16T07:44:13Z</time>
      </trkpt>
      <trkpt lat="48.1903" lon="-2.14368">
        <ele>157</ele>
        <time>2025-05-16T07:44:14Z</time>
      </trkpt>
      <trkpt lat="48.1903" lon="-2.1436">
        <ele>157</ele>
        <time>2025-05-16T07:44:15Z</time>
      </trkpt>
      <trkpt lat="48.19031" lon="-2.14353">
        <ele>157</ele>
        <time>2025-05-16T07:44:16Z</time>
      </trkpt>
      <trkpt lat="48.19031" lon="-2.14346">
        <ele>157</ele>
        <time>2025-05-16T07:44:17Z</time>
      </trkpt>
      <trkpt lat="48.19031" lon="-2.14338">
        <ele>157</ele>
        <time>2025-05-16T07:44:18Z</time>
      </trkpt>
      <trkpt lat="48.19032" lon="-2.14332">
        <ele>157</ele>
        <time>2025-05-16T07:44:19Z</time>
      </trkpt>
      <trkpt lat="48.19032" lon="-2.14324">
        <ele>156</ele>
        <time>2025-05-16T07:44:20Z</time>
      </trkpt>
      <trkpt lat="48.19032" lon="-2.14317">
        <ele>156</ele>
        <time>2025-05-16T07:44:21Z</time>
      </trkpt>
      <trkpt lat="48.19032" lon="-2.1431">
        <ele>155</ele>
        <time>2025-05-16T07:44:22Z</time>
      </trkpt>
      <trkpt lat="48.19033" lon="-2.14303">
        <ele>155</ele>
        <time>2025-05-16T07:44:23Z</time>
      </trkpt>
      <trkpt lat="48.19033" lon="-2.14296">
        <ele>155</ele>
        <time>2025-05-16T07:44:24Z</time>
      </trkpt>
      <trkpt lat="48.19033" lon="-2.14289">
        <ele>155</ele>
        <time>2025-05-16T07:44:25Z</time>
      </trkpt>
      <trkpt lat="48.19034" lon="-2.14281">
        <ele>155</ele>
        <time>2025-05-16T07:44:26Z</time>
      </trkpt>
      <trkpt lat="48.19034" lon="-2.14274">
        <ele>155</ele>
        <time>2025-05-16T07:44:27Z</time>
      </trkpt>
      <trkpt lat="48.19035" lon="-2.14267">
        <ele>155</ele>
        <time>2025-05-16T07:44:28Z</time>
      </trkpt>
      <trkpt lat="48.19035" lon="-2.1426">
        <ele>155</ele>
        <time>2025-05-16T07:44:29Z</time>
      </trkpt>
      <trkpt lat="48.19036" lon="-2.14253">
        <ele>155</ele>
        <time>2025-05-16T07:44:30Z</time>
      </trkpt>
      <trkpt lat="48.19036" lon="-2.14246">
        <ele>156</ele>
        <time>2025-05-16T07:44:31Z</time>
      </trkpt>
      <trkpt lat="48.19037" lon="-2.14238">
        <ele>156</ele>
        <time>2025-05-16T07:44:32Z</time>
      </trkpt>
      <trkpt lat="48.19037" lon="-2.14231">
        <ele>155</ele>
        <time>2025-05-16T07:44:33Z</time>
      </trkpt>
      <trkpt lat="48.19038" lon="-2.14224">
        <ele>155</ele>
        <time>2025-05-16T07:44:34Z</time>
      </trkpt>
      <trkpt lat="48.19038" lon="-2.14217">
        <ele>155</ele>
        <time>2025-05-16T07:44:35Z</time>
      </trkpt>
      <trkpt lat="48.19039" lon="-2.14209">
        <ele>155</ele>
        <time>2025-05-16T07:44:36Z</time>
      </trkpt>
      <trkpt lat="48.19039" lon="-2.14201">
        <ele>155</ele>
        <time>2025-05-16T07:44:37Z</time>
      </trkpt>
      <trkpt lat="48.19039" lon="-2.14193">
        <ele>155</ele>
        <time>2025-05-16T07:44:38Z</time>
      </trkpt>
      <trkpt lat="48.19039" lon="-2.14185">
        <ele>154</ele>
        <time>2025-05-16T07:44:39Z</time>
      </trkpt>
      <trkpt lat="48.19039" lon="-2.14178">
        <ele>154</ele>
        <time>2025-05-16T07:44:40Z</time>
      </trkpt>
      <trkpt lat="48.1904" lon="-2.1417">
        <ele>154</ele>
        <time>2025-05-16T07:44:41Z</time>
      </trkpt>
      <trkpt lat="48.1904" lon="-2.14162">
        <ele>154</ele>
        <time>2025-05-16T07:44:42Z</time>
      </trkpt>
      <trkpt lat="48.19041" lon="-2.14155">
        <ele>154</ele>
        <time>2025-05-16T07:44:43Z</time>
      </trkpt>
      <trkpt lat="48.19041" lon="-2.14147">
        <ele>154</ele>
        <time>2025-05-16T07:44:44Z</time>
      </trkpt>
      <trkpt lat="48.19042" lon="-2.14139">
        <ele>154</ele>
        <time>2025-05-16T07:44:45Z</time>
      </trkpt>
      <trkpt lat="48.19043" lon="-2.14131">
        <ele>154</ele>
        <time>2025-05-16T07:44:46Z</time>
      </trkpt>
      <trkpt lat="48.19043" lon="-2.14123">
        <ele>154</ele>
        <time>2025-05-16T07:44:47Z</time>
      </trkpt>
      <trkpt lat="48.19043" lon="-2.14115">
        <ele>154</ele>
        <time>2025-05-16T07:44:48Z</time>
      </trkpt>
      <trkpt lat="48.19044" lon="-2.14107">
        <ele>154</ele>
        <time>2025-05-16T07:44:49Z</time>
      </trkpt>
      <trkpt lat="48.19044" lon="-2.14099">
        <ele>153</ele>
        <time>2025-05-16T07:44:50Z</time>
      </trkpt>
      <trkpt lat="48.19045" lon="-2.14091">
        <ele>153</ele>
        <time>2025-05-16T07:44:51Z</time>
      </trkpt>
      <trkpt lat="48.19045" lon="-2.14084">
        <ele>153</ele>
        <time>2025-05-16T07:44:52Z</time>
      </trkpt>
      <trkpt lat="48.19046" lon="-2.14076">
        <ele>153</ele>
        <time>2025-05-16T07:44:53Z</time>
      </trkpt>
      <trkpt lat="48.19046" lon="-2.14068">
        <ele>153</ele>
        <time>2025-05-16T07:44:54Z</time>
      </trkpt>
      <trkpt lat="48.19047" lon="-2.1406">
        <ele>153</ele>
        <time>2025-05-16T07:44:55Z</time>
      </trkpt>
      <trkpt lat="48.19047" lon="-2.14052">
        <ele>152</ele>
        <time>2025-05-16T07:44:56Z</time>
      </trkpt>
      <trkpt lat="48.19048" lon="-2.14044">
        <ele>153</ele>
        <time>2025-05-16T07:44:57Z</time>
      </trkpt>
      <trkpt lat="48.19049" lon="-2.14036">
        <ele>153</ele>
        <time>2025-05-16T07:44:58Z</time>
      </trkpt>
      <trkpt lat="48.19049" lon="-2.14028">
        <ele>152</ele>
        <time>2025-05-16T07:44:59Z</time>
      </trkpt>
      <trkpt lat="48.19049" lon="-2.14019">
        <ele>152</ele>
        <time>2025-05-16T07:45:00Z</time>
      </trkpt>
      <trkpt lat="48.1905" lon="-2.14011">
        <ele>152</ele>
        <time>2025-05-16T07:45:01Z</time>
      </trkpt>
      <trkpt lat="48.1905" lon="-2.14002">
        <ele>152</ele>
        <time>2025-05-16T07:45:02Z</time>
      </trkpt>
      <trkpt lat="48.1905" lon="-2.13994">
        <ele>151</ele>
        <time>2025-05-16T07:45:03Z</time>
      </trkpt>
      <trkpt lat="48.1905" lon="-2.13986">
        <ele>152</ele>
        <time>2025-05-16T07:45:04Z</time>
      </trkpt>
      <trkpt lat="48.19051" lon="-2.13977">
        <ele>151</ele>
        <time>2025-05-16T07:45:05Z</time>
      </trkpt>
      <trkpt lat="48.19051" lon="-2.13969">
        <ele>151</ele>
        <time>2025-05-16T07:45:06Z</time>
      </trkpt>
      <trkpt lat="48.19052" lon="-2.1396">
        <ele>151</ele>
        <time>2025-05-16T07:45:07Z</time>
      </trkpt>
      <trkpt lat="48.19052" lon="-2.13952">
        <ele>151</ele>
        <time>2025-05-16T07:45:08Z</time>
      </trkpt>
      <trkpt lat="48.19053" lon="-2.13944">
        <ele>151</ele>
        <time>2025-05-16T07:45:09Z</time>
      </trkpt>
      <trkpt lat="48.19053" lon="-2.13935">
        <ele>151</ele>
        <time>2025-05-16T07:45:10Z</time>
      </trkpt>
      <trkpt lat="48.19053" lon="-2.13927">
        <ele>151</ele>
        <time>2025-05-16T07:45:11Z</time>
      </trkpt>
      <trkpt lat="48.19054" lon="-2.13918">
        <ele>151</ele>
        <time>2025-05-16T07:45:12Z</time>
      </trkpt>
      <trkpt lat="48.19055" lon="-2.1391">
        <ele>151</ele>
        <time>2025-05-16T07:45:13Z</time>
      </trkpt>
      <trkpt lat="48.19055" lon="-2.13902">
        <ele>151</ele>
        <time>2025-05-16T07:45:14Z</time>
      </trkpt>
      <trkpt lat="48.19055" lon="-2.13893">
        <ele>150</ele>
        <time>2025-05-16T07:45:15Z</time>
      </trkpt>
      <trkpt lat="48.19056" lon="-2.13884">
        <ele>150</ele>
        <time>2025-05-16T07:45:16Z</time>
      </trkpt>
      <trkpt lat="48.19056" lon="-2.13876">
        <ele>150</ele>
        <time>2025-05-16T07:45:17Z</time>
      </trkpt>
      <trkpt lat="48.19057" lon="-2.13867">
        <ele>150</ele>
        <time>2025-05-16T07:45:18Z</time>
      </trkpt>
      <trkpt lat="48.19057" lon="-2.13858">
        <ele>150</ele>
        <time>2025-05-16T07:45:19Z</time>
      </trkpt>
      <trkpt lat="48.19058" lon="-2.1385">
        <ele>150</ele>
        <time>2025-05-16T07:45:20Z</time>
      </trkpt>
      <trkpt lat="48.19058" lon="-2.13841">
        <ele>150</ele>
        <time>2025-05-16T07:45:21Z</time>
      </trkpt>
      <trkpt lat="48.19059" lon="-2.13833">
        <ele>150</ele>
        <time>2025-05-16T07:45:22Z</time>
      </trkpt>
      <trkpt lat="48.19059" lon="-2.13824">
        <ele>150</ele>
        <time>2025-05-16T07:45:23Z</time>
      </trkpt>
      <trkpt lat="48.1906" lon="-2.13815">
        <ele>149</ele>
        <time>2025-05-16T07:45:24Z</time>
      </trkpt>
      <trkpt lat="48.1906" lon="-2.13806">
        <ele>149</ele>
        <time>2025-05-16T07:45:25Z</time>
      </trkpt>
      <trkpt lat="48.1906" lon="-2.13797">
        <ele>149</ele>
        <time>2025-05-16T07:45:26Z</time>
      </trkpt>
      <trkpt lat="48.19061" lon="-2.13788">
        <ele>149</ele>
        <time>2025-05-16T07:45:27Z</time>
      </trkpt>
      <trkpt lat="48.19062" lon="-2.13779">
        <ele>149</ele>
        <time>2025-05-16T07:45:28Z</time>
      </trkpt>
      <trkpt lat="48.19062" lon="-2.13771">
        <ele>149</ele>
        <time>2025-05-16T07:45:29Z</time>
      </trkpt>
      <trkpt lat="48.19062" lon="-2.13762">
        <ele>149</ele>
        <time>2025-05-16T07:45:30Z</time>
      </trkpt>
      <trkpt lat="48.19063" lon="-2.13754">
        <ele>149</ele>
        <time>2025-05-16T07:45:31Z</time>
      </trkpt>
      <trkpt lat="48.19064" lon="-2.13746">
        <ele>149</ele>
        <time>2025-05-16T07:45:32Z</time>
      </trkpt>
      <trkpt lat="48.19064" lon="-2.13737">
        <ele>149</ele>
        <time>2025-05-16T07:45:33Z</time>
      </trkpt>
      <trkpt lat="48.19065" lon="-2.13729">
        <ele>149</ele>
        <time>2025-05-16T07:45:34Z</time>
      </trkpt>
      <trkpt lat="48.19065" lon="-2.1372">
        <ele>149</ele>
        <time>2025-05-16T07:45:35Z</time>
      </trkpt>
      <trkpt lat="48.19066" lon="-2.13711">
        <ele>149</ele>
        <time>2025-05-16T07:45:36Z</time>
      </trkpt>
      <trkpt lat="48.19067" lon="-2.13702">
        <ele>148</ele>
        <time>2025-05-16T07:45:37Z</time>
      </trkpt>
      <trkpt lat="48.19067" lon="-2.13694">
        <ele>148</ele>
        <time>2025-05-16T07:45:38Z</time>
      </trkpt>
      <trkpt lat="48.19067" lon="-2.13685">
        <ele>148</ele>
        <time>2025-05-16T07:45:39Z</time>
      </trkpt>
      <trkpt lat="48.19068" lon="-2.13677">
        <ele>148</ele>
        <time>2025-05-16T07:45:40Z</time>
      </trkpt>
      <trkpt lat="48.19068" lon="-2.13669">
        <ele>148</ele>
        <time>2025-05-16T07:45:41Z</time>
      </trkpt>
      <trkpt lat="48.19069" lon="-2.1366">
        <ele>148</ele>
        <time>2025-05-16T07:45:42Z</time>
      </trkpt>
      <trkpt lat="48.19069" lon="-2.13651">
        <ele>148</ele>
        <time>2025-05-16T07:45:43Z</time>
      </trkpt>
      <trkpt lat="48.19069" lon="-2.13642">
        <ele>148</ele>
        <time>2025-05-16T07:45:44Z</time>
      </trkpt>
      <trkpt lat="48.1907" lon="-2.13633">
        <ele>148</ele>
        <time>2025-05-16T07:45:45Z</time>
      </trkpt>
      <trkpt lat="48.1907" lon="-2.13624">
        <ele>147</ele>
        <time>2025-05-16T07:45:46Z</time>
      </trkpt>
      <trkpt lat="48.1907" lon="-2.13616">
        <ele>147</ele>
        <time>2025-05-16T07:45:47Z</time>
      </trkpt>
      <trkpt lat="48.19071" lon="-2.13607">
        <ele>147</ele>
        <time>2025-05-16T07:45:48Z</time>
      </trkpt>
      <trkpt lat="48.19071" lon="-2.13598">
        <ele>147</ele>
        <time>2025-05-16T07:45:49Z</time>
      </trkpt>
      <trkpt lat="48.19072" lon="-2.1359">
        <ele>147</ele>
        <time>2025-05-16T07:45:50Z</time>
      </trkpt>
      <trkpt lat="48.19072" lon="-2.13581">
        <ele>147</ele>
        <time>2025-05-16T07:45:51Z</time>
      </trkpt>
      <trkpt lat="48.19073" lon="-2.13571">
        <ele>147</ele>
        <time>2025-05-16T07:45:52Z</time>
      </trkpt>
      <trkpt lat="48.19074" lon="-2.13563">
        <ele>147</ele>
        <time>2025-05-16T07:45:53Z</time>
      </trkpt>
      <trkpt lat="48.19074" lon="-2.13554">
        <ele>147</ele>
        <time>2025-05-16T07:45:54Z</time>
      </trkpt>
      <trkpt lat="48.19075" lon="-2.13544">
        <ele>146</ele>
        <time>2025-05-16T07:45:55Z</time>
      </trkpt>
      <trkpt lat="48.19076" lon="-2.13535">
        <ele>146</ele>
        <time>2025-05-16T07:45:56Z</time>
      </trkpt>
      <trkpt lat="48.19076" lon="-2.13526">
        <ele>146</ele>
        <time>2025-05-16T07:45:57Z</time>
      </trkpt>
      <trkpt lat="48.19076" lon="-2.13517">
        <ele>146</ele>
        <time>2025-05-16T07:45:58Z</time>
      </trkpt>
      <trkpt lat="48.19077" lon="-2.13508">
        <ele>146</ele>
        <time>2025-05-16T07:45:59Z</time>
      </trkpt>
      <trkpt lat="48.19077" lon="-2.13499">
        <ele>147</ele>
        <time>2025-05-16T07:46:00Z</time>
      </trkpt>
      <trkpt lat="48.19077" lon="-2.1349">
        <ele>147</ele>
        <time>2025-05-16T07:46:01Z</time>
      </trkpt>
      <trkpt lat="48.19078" lon="-2.13481">
        <ele>147</ele>
        <time>2025-05-16T07:46:02Z</time>
      </trkpt>
      <trkpt lat="48.19079" lon="-2.13472">
        <ele>146</ele>
        <time>2025-05-16T07:46:03Z</time>
      </trkpt>
      <trkpt lat="48.19079" lon="-2.13463">
        <ele>146</ele>
        <time>2025-05-16T07:46:04Z</time>
      </trkpt>
      <trkpt lat="48.19079" lon="-2.13455">
        <ele>146</ele>
        <time>2025-05-16T07:46:05Z</time>
      </trkpt>
      <trkpt lat="48.19079" lon="-2.13446">
        <ele>145</ele>
        <time>2025-05-16T07:46:06Z</time>
      </trkpt>
      <trkpt lat="48.1908" lon="-2.13437">
        <ele>145</ele>
        <time>2025-05-16T07:46:07Z</time>
      </trkpt>
      <trkpt lat="48.1908" lon="-2.13428">
        <ele>146</ele>
        <time>2025-05-16T07:46:08Z</time>
      </trkpt>
      <trkpt lat="48.19081" lon="-2.13419">
        <ele>146</ele>
        <time>2025-05-16T07:46:09Z</time>
      </trkpt>
      <trkpt lat="48.19081" lon="-2.1341">
        <ele>146</ele>
        <time>2025-05-16T07:46:10Z</time>
      </trkpt>
      <trkpt lat="48.19081" lon="-2.13401">
        <ele>146</ele>
        <time>2025-05-16T07:46:11Z</time>
      </trkpt>
      <trkpt lat="48.19082" lon="-2.13392">
        <ele>146</ele>
        <time>2025-05-16T07:46:12Z</time>
      </trkpt>
      <trkpt lat="48.19082" lon="-2.13384">
        <ele>146</ele>
        <time>2025-05-16T07:46:13Z</time>
      </trkpt>
      <trkpt lat="48.19082" lon="-2.13376">
        <ele>146</ele>
        <time>2025-05-16T07:46:14Z</time>
      </trkpt>
      <trkpt lat="48.19082" lon="-2.13367">
        <ele>145</ele>
        <time>2025-05-16T07:46:15Z</time>
      </trkpt>
      <trkpt lat="48.19083" lon="-2.13358">
        <ele>145</ele>
        <time>2025-05-16T07:46:16Z</time>
      </trkpt>
      <trkpt lat="48.19083" lon="-2.1335">
        <ele>146</ele>
        <time>2025-05-16T07:46:17Z</time>
      </trkpt>
      <trkpt lat="48.19084" lon="-2.13341">
        <ele>146</ele>
        <time>2025-05-16T07:46:18Z</time>
      </trkpt>
      <trkpt lat="48.19084" lon="-2.13333">
        <ele>146</ele>
        <time>2025-05-16T07:46:19Z</time>
      </trkpt>
      <trkpt lat="48.19084" lon="-2.13324">
        <ele>146</ele>
        <time>2025-05-16T07:46:20Z</time>
      </trkpt>
      <trkpt lat="48.19084" lon="-2.13316">
        <ele>146</ele>
        <time>2025-05-16T07:46:21Z</time>
      </trkpt>
      <trkpt lat="48.19084" lon="-2.13308">
        <ele>146</ele>
        <time>2025-05-16T07:46:22Z</time>
      </trkpt>
      <trkpt lat="48.19084" lon="-2.13299">
        <ele>146</ele>
        <time>2025-05-16T07:46:23Z</time>
      </trkpt>
      <trkpt lat="48.19085" lon="-2.13291">
        <ele>146</ele>
        <time>2025-05-16T07:46:24Z</time>
      </trkpt>
      <trkpt lat="48.19085" lon="-2.13283">
        <ele>146</ele>
        <time>2025-05-16T07:46:25Z</time>
      </trkpt>
      <trkpt lat="48.19085" lon="-2.13275">
        <ele>145</ele>
        <time>2025-05-16T07:46:26Z</time>
      </trkpt>
      <trkpt lat="48.19085" lon="-2.13267">
        <ele>145</ele>
        <time>2025-05-16T07:46:27Z</time>
      </trkpt>
      <trkpt lat="48.19085" lon="-2.13259">
        <ele>145</ele>
        <time>2025-05-16T07:46:28Z</time>
      </trkpt>
      <trkpt lat="48.19085" lon="-2.13251">
        <ele>145</ele>
        <time>2025-05-16T07:46:29Z</time>
      </trkpt>
      <trkpt lat="48.19085" lon="-2.13243">
        <ele>145</ele>
        <time>2025-05-16T07:46:30Z</time>
      </trkpt>
      <trkpt lat="48.19085" lon="-2.13235">
        <ele>144</ele>
        <time>2025-05-16T07:46:31Z</time>
      </trkpt>
      <trkpt lat="48.19085" lon="-2.13227">
        <ele>144</ele>
        <time>2025-05-16T07:46:32Z</time>
      </trkpt>
      <trkpt lat="48.19085" lon="-2.13219">
        <ele>144</ele>
        <time>2025-05-16T07:46:33Z</time>
      </trkpt>
      <trkpt lat="48.19085" lon="-2.13211">
        <ele>144</ele>
        <time>2025-05-16T07:46:34Z</time>
      </trkpt>
      <trkpt lat="48.19085" lon="-2.13203">
        <ele>144</ele>
        <time>2025-05-16T07:46:35Z</time>
      </trkpt>
      <trkpt lat="48.19085" lon="-2.13194">
        <ele>144</ele>
        <time>2025-05-16T07:46:36Z</time>
      </trkpt>
      <trkpt lat="48.19085" lon="-2.13187">
        <ele>143</ele>
        <time>2025-05-16T07:46:37Z</time>
      </trkpt>
      <trkpt lat="48.19085" lon="-2.13179">
        <ele>144</ele>
        <time>2025-05-16T07:46:38Z</time>
      </trkpt>
      <trkpt lat="48.19085" lon="-2.13171">
        <ele>144</ele>
        <time>2025-05-16T07:46:39Z</time>
      </trkpt>
      <trkpt lat="48.19085" lon="-2.13163">
        <ele>144</ele>
        <time>2025-05-16T07:46:40Z</time>
      </trkpt>
      <trkpt lat="48.19085" lon="-2.13156">
        <ele>144</ele>
        <time>2025-05-16T07:46:41Z</time>
      </trkpt>
      <trkpt lat="48.19085" lon="-2.13149">
        <ele>144</ele>
        <time>2025-05-16T07:46:42Z</time>
      </trkpt>
      <trkpt lat="48.19085" lon="-2.13141">
        <ele>144</ele>
        <time>2025-05-16T07:46:43Z</time>
      </trkpt>
      <trkpt lat="48.19085" lon="-2.13134">
        <ele>144</ele>
        <time>2025-05-16T07:46:44Z</time>
      </trkpt>
      <trkpt lat="48.19085" lon="-2.13127">
        <ele>144</ele>
        <time>2025-05-16T07:46:45Z</time>
      </trkpt>
      <trkpt lat="48.19085" lon="-2.13119">
        <ele>144</ele>
        <time>2025-05-16T07:46:46Z</time>
      </trkpt>
      <trkpt lat="48.19085" lon="-2.13112">
        <ele>144</ele>
        <time>2025-05-16T07:46:47Z</time>
      </trkpt>
      <trkpt lat="48.19085" lon="-2.13105">
        <ele>144</ele>
        <time>2025-05-16T07:46:48Z</time>
      </trkpt>
      <trkpt lat="48.19085" lon="-2.13097">
        <ele>144</ele>
        <time>2025-05-16T07:46:49Z</time>
      </trkpt>
      <trkpt lat="48.19085" lon="-2.1309">
        <ele>144</ele>
        <time>2025-05-16T07:46:50Z</time>
      </trkpt>
      <trkpt lat="48.19085" lon="-2.13083">
        <ele>144</ele>
        <time>2025-05-16T07:46:51Z</time>
      </trkpt>
      <trkpt lat="48.19085" lon="-2.13076">
        <ele>144</ele>
        <time>2025-05-16T07:46:52Z</time>
      </trkpt>
      <trkpt lat="48.19085" lon="-2.13068">
        <ele>144</ele>
        <time>2025-05-16T07:46:53Z</time>
      </trkpt>
      <trkpt lat="48.19085" lon="-2.13061">
        <ele>144</ele>
        <time>2025-05-16T07:46:54Z</time>
      </trkpt>
      <trkpt lat="48.19085" lon="-2.13054">
        <ele>144</ele>
        <time>2025-05-16T07:46:55Z</time>
      </trkpt>
      <trkpt lat="48.19085" lon="-2.13047">
        <ele>144</ele>
        <time>2025-05-16T07:46:56Z</time>
      </trkpt>
      <trkpt lat="48.19085" lon="-2.13039">
        <ele>144</ele>
        <time>2025-05-16T07:46:57Z</time>
      </trkpt>
      <trkpt lat="48.19086" lon="-2.13032">
        <ele>144</ele>
        <time>2025-05-16T07:46:58Z</time>
      </trkpt>
      <trkpt lat="48.19085" lon="-2.13025">
        <ele>144</ele>
        <time>2025-05-16T07:46:59Z</time>
      </trkpt>
      <trkpt lat="48.19085" lon="-2.13019">
        <ele>144</ele>
        <time>2025-05-16T07:47:00Z</time>
      </trkpt>
      <trkpt lat="48.19085" lon="-2.13012">
        <ele>144</ele>
        <time>2025-05-16T07:47:01Z</time>
      </trkpt>
      <trkpt lat="48.19086" lon="-2.13006">
        <ele>144</ele>
        <time>2025-05-16T07:47:02Z</time>
      </trkpt>
      <trkpt lat="48.19086" lon="-2.12999">
        <ele>145</ele>
        <time>2025-05-16T07:47:03Z</time>
      </trkpt>
      <trkpt lat="48.19085" lon="-2.12992">
        <ele>145</ele>
        <time>2025-05-16T07:47:04Z</time>
      </trkpt>
      <trkpt lat="48.19085" lon="-2.12986">
        <ele>145</ele>
        <time>2025-05-16T07:47:05Z</time>
      </trkpt>
      <trkpt lat="48.19086" lon="-2.1298">
        <ele>145</ele>
        <time>2025-05-16T07:47:06Z</time>
      </trkpt>
      <trkpt lat="48.19086" lon="-2.12974">
        <ele>145</ele>
        <time>2025-05-16T07:47:07Z</time>
      </trkpt>
      <trkpt lat="48.19086" lon="-2.12968">
        <ele>145</ele>
        <time>2025-05-16T07:47:08Z</time>
      </trkpt>
      <trkpt lat="48.19086" lon="-2.12962">
        <ele>145</ele>
        <time>2025-05-16T07:47:09Z</time>
      </trkpt>
      <trkpt lat="48.19085" lon="-2.12956">
        <ele>145</ele>
        <time>2025-05-16T07:47:10Z</time>
      </trkpt>
      <trkpt lat="48.19085" lon="-2.1295">
        <ele>145</ele>
        <time>2025-05-16T07:47:11Z</time>
      </trkpt>
      <trkpt lat="48.19085" lon="-2.12945">
        <ele>145</ele>
        <time>2025-05-16T07:47:12Z</time>
      </trkpt>
      <trkpt lat="48.19086" lon="-2.12939">
        <ele>145</ele>
        <time>2025-05-16T07:47:13Z</time>
      </trkpt>
      <trkpt lat="48.19086" lon="-2.12934">
        <ele>146</ele>
        <time>2025-05-16T07:47:14Z</time>
      </trkpt>
      <trkpt lat="48.19085" lon="-2.12928">
        <ele>146</ele>
        <time>2025-05-16T07:47:15Z</time>
      </trkpt>
      <trkpt lat="48.19085" lon="-2.12922">
        <ele>146</ele>
        <time>2025-05-16T07:47:16Z</time>
      </trkpt>
      <trkpt lat="48.19085" lon="-2.12917">
        <ele>146</ele>
        <time>2025-05-16T07:47:17Z</time>
      </trkpt>
      <trkpt lat="48.19085" lon="-2.12912">
        <ele>146</ele>
        <time>2025-05-16T07:47:18Z</time>
      </trkpt>
      <trkpt lat="48.19085" lon="-2.12906">
        <ele>146</ele>
        <time>2025-05-16T07:47:19Z</time>
      </trkpt>
      <trkpt lat="48.19085" lon="-2.12901">
        <ele>146</ele>
        <time>2025-05-16T07:47:20Z</time>
      </trkpt>
      <trkpt lat="48.19086" lon="-2.12896">
        <ele>147</ele>
        <time>2025-05-16T07:47:21Z</time>
      </trkpt>
      <trkpt lat="48.19086" lon="-2.12891">
        <ele>147</ele>
        <time>2025-05-16T07:47:22Z</time>
      </trkpt>
      <trkpt lat="48.19086" lon="-2.12886">
        <ele>147</ele>
        <time>2025-05-16T07:47:23Z</time>
      </trkpt>
      <trkpt lat="48.19086" lon="-2.12881">
        <ele>147</ele>
        <time>2025-05-16T07:47:24Z</time>
      </trkpt>
      <trkpt lat="48.19086" lon="-2.12875">
        <ele>147</ele>
        <time>2025-05-16T07:47:25Z</time>
      </trkpt>
      <trkpt lat="48.19085" lon="-2.1287">
        <ele>147</ele>
        <time>2025-05-16T07:47:26Z</time>
      </trkpt>
      <trkpt lat="48.19085" lon="-2.12865">
        <ele>147</ele>
        <time>2025-05-16T07:47:27Z</time>
      </trkpt>
      <trkpt lat="48.19085" lon="-2.1286">
        <ele>147</ele>
        <time>2025-05-16T07:47:28Z</time>
      </trkpt>
      <trkpt lat="48.19085" lon="-2.12855">
        <ele>147</ele>
        <time>2025-05-16T07:47:29Z</time>
      </trkpt>
      <trkpt lat="48.19085" lon="-2.1285">
        <ele>147</ele>
        <time>2025-05-16T07:47:30Z</time>
      </trkpt>
      <trkpt lat="48.19085" lon="-2.12845">
        <ele>147</ele>
        <time>2025-05-16T07:47:31Z</time>
      </trkpt>
      <trkpt lat="48.19085" lon="-2.1284">
        <ele>147</ele>
        <time>2025-05-16T07:47:32Z</time>
      </trkpt>
      <trkpt lat="48.19086" lon="-2.12835">
        <ele>147</ele>
        <time>2025-05-16T07:47:33Z</time>
      </trkpt>
      <trkpt lat="48.19086" lon="-2.1283">
        <ele>148</ele>
        <time>2025-05-16T07:47:34Z</time>
      </trkpt>
      <trkpt lat="48.19086" lon="-2.12825">
        <ele>148</ele>
        <time>2025-05-16T07:47:35Z</time>
      </trkpt>
      <trkpt lat="48.19086" lon="-2.12819">
        <ele>148</ele>
        <time>2025-05-16T07:47:36Z</time>
      </trkpt>
      <trkpt lat="48.19086" lon="-2.12814">
        <ele>149</ele>
        <time>2025-05-16T07:47:37Z</time>
      </trkpt>
      <trkpt lat="48.19086" lon="-2.12809">
        <ele>149</ele>
        <time>2025-05-16T07:47:38Z</time>
      </trkpt>
      <trkpt lat="48.19086" lon="-2.12804">
        <ele>149</ele>
        <time>2025-05-16T07:47:39Z</time>
      </trkpt>
      <trkpt lat="48.19086" lon="-2.12799">
        <ele>149</ele>
        <time>2025-05-16T07:47:40Z</time>
      </trkpt>
      <trkpt lat="48.19086" lon="-2.12794">
        <ele>149</ele>
        <time>2025-05-16T07:47:41Z</time>
      </trkpt>
      <trkpt lat="48.19086" lon="-2.12789">
        <ele>150</ele>
        <time>2025-05-16T07:47:42Z</time>
      </trkpt>
      <trkpt lat="48.19086" lon="-2.12784">
        <ele>149</ele>
        <time>2025-05-16T07:47:43Z</time>
      </trkpt>
      <trkpt lat="48.19086" lon="-2.1278">
        <ele>150</ele>
        <time>2025-05-16T07:47:44Z</time>
      </trkpt>
      <trkpt lat="48.19086" lon="-2.12774">
        <ele>150</ele>
        <time>2025-05-16T07:47:45Z</time>
      </trkpt>
      <trkpt lat="48.19086" lon="-2.12769">
        <ele>149</ele>
        <time>2025-05-16T07:47:46Z</time>
      </trkpt>
      <trkpt lat="48.19086" lon="-2.12764">
        <ele>149</ele>
        <time>2025-05-16T07:47:47Z</time>
      </trkpt>
      <trkpt lat="48.19087" lon="-2.12759">
        <ele>150</ele>
        <time>2025-05-16T07:47:48Z</time>
      </trkpt>
      <trkpt lat="48.19086" lon="-2.12754">
        <ele>150</ele>
        <time>2025-05-16T07:47:49Z</time>
      </trkpt>
      <trkpt lat="48.19086" lon="-2.12749">
        <ele>150</ele>
        <time>2025-05-16T07:47:50Z</time>
      </trkpt>
      <trkpt lat="48.19086" lon="-2.12744">
        <ele>150</ele>
        <time>2025-05-16T07:47:51Z</time>
      </trkpt>
      <trkpt lat="48.19086" lon="-2.12739">
        <ele>150</ele>
        <time>2025-05-16T07:47:52Z</time>
      </trkpt>
      <trkpt lat="48.19086" lon="-2.12735">
        <ele>150</ele>
        <time>2025-05-16T07:47:53Z</time>
      </trkpt>
      <trkpt lat="48.19086" lon="-2.1273">
        <ele>150</ele>
        <time>2025-05-16T07:47:54Z</time>
      </trkpt>
      <trkpt lat="48.19086" lon="-2.12725">
        <ele>150</ele>
        <time>2025-05-16T07:47:55Z</time>
      </trkpt>
      <trkpt lat="48.19086" lon="-2.12719">
        <ele>151</ele>
        <time>2025-05-16T07:47:56Z</time>
      </trkpt>
      <trkpt lat="48.19086" lon="-2.12715">
        <ele>151</ele>
        <time>2025-05-16T07:47:57Z</time>
      </trkpt>
      <trkpt lat="48.19086" lon="-2.1271">
        <ele>150</ele>
        <time>2025-05-16T07:47:58Z</time>
      </trkpt>
      <trkpt lat="48.19086" lon="-2.12705">
        <ele>150</ele>
        <time>2025-05-16T07:47:59Z</time>
      </trkpt>
      <trkpt lat="48.19086" lon="-2.127">
        <ele>150</ele>
        <time>2025-05-16T07:48:00Z</time>
      </trkpt>
      <trkpt lat="48.19087" lon="-2.12695">
        <ele>150</ele>
        <time>2025-05-16T07:48:01Z</time>
      </trkpt>
      <trkpt lat="48.19087" lon="-2.1269">
        <ele>150</ele>
        <time>2025-05-16T07:48:02Z</time>
      </trkpt>
      <trkpt lat="48.19087" lon="-2.12685">
        <ele>151</ele>
        <time>2025-05-16T07:48:03Z</time>
      </trkpt>
      <trkpt lat="48.19087" lon="-2.12681">
        <ele>151</ele>
        <time>2025-05-16T07:48:04Z</time>
      </trkpt>
      <trkpt lat="48.19087" lon="-2.12676">
        <ele>151</ele>
        <time>2025-05-16T07:48:05Z</time>
      </trkpt>
      <trkpt lat="48.19087" lon="-2.12671">
        <ele>151</ele>
        <time>2025-05-16T07:48:06Z</time>
      </trkpt>
      <trkpt lat="48.19087" lon="-2.12667">
        <ele>151</ele>
        <time>2025-05-16T07:48:07Z</time>
      </trkpt>
      <trkpt lat="48.19087" lon="-2.12661">
        <ele>151</ele>
        <time>2025-05-16T07:48:08Z</time>
      </trkpt>
      <trkpt lat="48.19087" lon="-2.12657">
        <ele>152</ele>
        <time>2025-05-16T07:48:09Z</time>
      </trkpt>
      <trkpt lat="48.19087" lon="-2.12652">
        <ele>152</ele>
        <time>2025-05-16T07:48:10Z</time>
      </trkpt>
      <trkpt lat="48.19087" lon="-2.12647">
        <ele>152</ele>
        <time>2025-05-16T07:48:11Z</time>
      </trkpt>
      <trkpt lat="48.19087" lon="-2.12643">
        <ele>152</ele>
        <time>2025-05-16T07:48:12Z</time>
      </trkpt>
      <trkpt lat="48.19087" lon="-2.12638">
        <ele>152</ele>
        <time>2025-05-16T07:48:13Z</time>
      </trkpt>
      <trkpt lat="48.19087" lon="-2.12633">
        <ele>152</ele>
        <time>2025-05-16T07:48:14Z</time>
      </trkpt>
      <trkpt lat="48.19087" lon="-2.12628">
        <ele>152</ele>
        <time>2025-05-16T07:48:15Z</time>
      </trkpt>
      <trkpt lat="48.19087" lon="-2.12623">
        <ele>152</ele>
        <time>2025-05-16T07:48:16Z</time>
      </trkpt>
      <trkpt lat="48.19087" lon="-2.12618">
        <ele>152</ele>
        <time>2025-05-16T07:48:17Z</time>
      </trkpt>
      <trkpt lat="48.19087" lon="-2.12613">
        <ele>152</ele>
        <time>2025-05-16T07:48:18Z</time>
      </trkpt>
      <trkpt lat="48.19087" lon="-2.12608">
        <ele>152</ele>
        <time>2025-05-16T07:48:19Z</time>
      </trkpt>
      <trkpt lat="48.19087" lon="-2.12603">
        <ele>152</ele>
        <time>2025-05-16T07:48:20Z</time>
      </trkpt>
      <trkpt lat="48.19086" lon="-2.12599">
        <ele>151</ele>
        <time>2025-05-16T07:48:21Z</time>
      </trkpt>
      <trkpt lat="48.19086" lon="-2.12594">
        <ele>151</ele>
        <time>2025-05-16T07:48:22Z</time>
      </trkpt>
      <trkpt lat="48.19087" lon="-2.12589">
        <ele>151</ele>
        <time>2025-05-16T07:48:23Z</time>
      </trkpt>
      <trkpt lat="48.19087" lon="-2.12584">
        <ele>151</ele>
        <time>2025-05-16T07:48:24Z</time>
      </trkpt>
      <trkpt lat="48.19087" lon="-2.12578">
        <ele>151</ele>
        <time>2025-05-16T07:48:25Z</time>
      </trkpt>
      <trkpt lat="48.19087" lon="-2.12573">
        <ele>151</ele>
        <time>2025-05-16T07:48:26Z</time>
      </trkpt>
      <trkpt lat="48.19087" lon="-2.12568">
        <ele>151</ele>
        <time>2025-05-16T07:48:27Z</time>
      </trkpt>
      <trkpt lat="48.19087" lon="-2.12563">
        <ele>151</ele>
        <time>2025-05-16T07:48:28Z</time>
      </trkpt>
      <trkpt lat="48.19087" lon="-2.12558">
        <ele>151</ele>
        <time>2025-05-16T07:48:29Z</time>
      </trkpt>
      <trkpt lat="48.19087" lon="-2.12553">
        <ele>151</ele>
        <time>2025-05-16T07:48:30Z</time>
      </trkpt>
      <trkpt lat="48.19087" lon="-2.12548">
        <ele>151</ele>
        <time>2025-05-16T07:48:31Z</time>
      </trkpt>
      <trkpt lat="48.19088" lon="-2.12543">
        <ele>152</ele>
        <time>2025-05-16T07:48:32Z</time>
      </trkpt>
      <trkpt lat="48.19088" lon="-2.12538">
        <ele>152</ele>
        <time>2025-05-16T07:48:33Z</time>
      </trkpt>
      <trkpt lat="48.19088" lon="-2.12533">
        <ele>152</ele>
        <time>2025-05-16T07:48:34Z</time>
      </trkpt>
      <trkpt lat="48.19088" lon="-2.12528">
        <ele>152</ele>
        <time>2025-05-16T07:48:35Z</time>
      </trkpt>
      <trkpt lat="48.19087" lon="-2.12523">
        <ele>152</ele>
        <time>2025-05-16T07:48:36Z</time>
      </trkpt>
      <trkpt lat="48.19087" lon="-2.12517">
        <ele>151</ele>
        <time>2025-05-16T07:48:37Z</time>
      </trkpt>
      <trkpt lat="48.19087" lon="-2.12512">
        <ele>151</ele>
        <time>2025-05-16T07:48:38Z</time>
      </trkpt>
      <trkpt lat="48.19087" lon="-2.12507">
        <ele>151</ele>
        <time>2025-05-16T07:48:39Z</time>
      </trkpt>
      <trkpt lat="48.19087" lon="-2.12502">
        <ele>152</ele>
        <time>2025-05-16T07:48:40Z</time>
      </trkpt>
      <trkpt lat="48.19088" lon="-2.12497">
        <ele>152</ele>
        <time>2025-05-16T07:48:41Z</time>
      </trkpt>
      <trkpt lat="48.19087" lon="-2.12491">
        <ele>152</ele>
        <time>2025-05-16T07:48:42Z</time>
      </trkpt>
      <trkpt lat="48.19087" lon="-2.12486">
        <ele>151</ele>
        <time>2025-05-16T07:48:43Z</time>
      </trkpt>
      <trkpt lat="48.19087" lon="-2.12481">
        <ele>151</ele>
        <time>2025-05-16T07:48:44Z</time>
      </trkpt>
      <trkpt lat="48.19087" lon="-2.12475">
        <ele>151</ele>
        <time>2025-05-16T07:48:45Z</time>
      </trkpt>
      <trkpt lat="48.19087" lon="-2.1247">
        <ele>151</ele>
        <time>2025-05-16T07:48:46Z</time>
      </trkpt>
      <trkpt lat="48.19087" lon="-2.12465">
        <ele>151</ele>
        <time>2025-05-16T07:48:47Z</time>
      </trkpt>
      <trkpt lat="48.19087" lon="-2.12459">
        <ele>151</ele>
        <time>2025-05-16T07:48:48Z</time>
      </trkpt>
      <trkpt lat="48.19087" lon="-2.12454">
        <ele>151</ele>
        <time>2025-05-16T07:48:49Z</time>
      </trkpt>
      <trkpt lat="48.19087" lon="-2.12449">
        <ele>151</ele>
        <time>2025-05-16T07:48:50Z</time>
      </trkpt>
      <trkpt lat="48.19087" lon="-2.12443">
        <ele>151</ele>
        <time>2025-05-16T07:48:51Z</time>
      </trkpt>
      <trkpt lat="48.19087" lon="-2.12438">
        <ele>151</ele>
        <time>2025-05-16T07:48:52Z</time>
      </trkpt>
      <trkpt lat="48.19087" lon="-2.12432">
        <ele>151</ele>
        <time>2025-05-16T07:48:53Z</time>
      </trkpt>
      <trkpt lat="48.19087" lon="-2.12427">
        <ele>151</ele>
        <time>2025-05-16T07:48:54Z</time>
      </trkpt>
      <trkpt lat="48.19087" lon="-2.12421">
        <ele>151</ele>
        <time>2025-05-16T07:48:55Z</time>
      </trkpt>
      <trkpt lat="48.19088" lon="-2.12415">
        <ele>151</ele>
        <time>2025-05-16T07:48:56Z</time>
      </trkpt>
      <trkpt lat="48.19088" lon="-2.12409">
        <ele>151</ele>
        <time>2025-05-16T07:48:57Z</time>
      </trkpt>
      <trkpt lat="48.19088" lon="-2.12403">
        <ele>151</ele>
        <time>2025-05-16T07:48:58Z</time>
      </trkpt>
      <trkpt lat="48.19088" lon="-2.12398">
        <ele>151</ele>
        <time>2025-05-16T07:48:59Z</time>
      </trkpt>
      <trkpt lat="48.19088" lon="-2.12392">
        <ele>151</ele>
        <time>2025-05-16T07:49:00Z</time>
      </trkpt>
      <trkpt lat="48.19088" lon="-2.12386">
        <ele>151</ele>
        <time>2025-05-16T07:49:01Z</time>
      </trkpt>
      <trkpt lat="48.19088" lon="-2.1238">
        <ele>150</ele>
        <time>2025-05-16T07:49:02Z</time>
      </trkpt>
      <trkpt lat="48.19088" lon="-2.12373">
        <ele>150</ele>
        <time>2025-05-16T07:49:03Z</time>
      </trkpt>
      <trkpt lat="48.19088" lon="-2.12368">
        <ele>150</ele>
        <time>2025-05-16T07:49:04Z</time>
      </trkpt>
      <trkpt lat="48.19088" lon="-2.12362">
        <ele>150</ele>
        <time>2025-05-16T07:49:05Z</time>
      </trkpt>
      <trkpt lat="48.19088" lon="-2.12356">
        <ele>150</ele>
        <time>2025-05-16T07:49:06Z</time>
      </trkpt>
      <trkpt lat="48.19088" lon="-2.1235">
        <ele>150</ele>
        <time>2025-05-16T07:49:07Z</time>
      </trkpt>
      <trkpt lat="48.19088" lon="-2.12344">
        <ele>151</ele>
        <time>2025-05-16T07:49:08Z</time>
      </trkpt>
      <trkpt lat="48.19088" lon="-2.12338">
        <ele>152</ele>
        <time>2025-05-16T07:49:09Z</time>
      </trkpt>
      <trkpt lat="48.19088" lon="-2.12332">
        <ele>152</ele>
        <time>2025-05-16T07:49:10Z</time>
      </trkpt>
      <trkpt lat="48.19088" lon="-2.12326">
        <ele>152</ele>
        <time>2025-05-16T07:49:11Z</time>
      </trkpt>
      <trkpt lat="48.19088" lon="-2.1232">
        <ele>152</ele>
        <time>2025-05-16T07:49:12Z</time>
      </trkpt>
      <trkpt lat="48.19088" lon="-2.12314">
        <ele>152</ele>
        <time>2025-05-16T07:49:13Z</time>
      </trkpt>
      <trkpt lat="48.19088" lon="-2.12308">
        <ele>152</ele>
        <time>2025-05-16T07:49:14Z</time>
      </trkpt>
      <trkpt lat="48.19088" lon="-2.12302">
        <ele>152</ele>
        <time>2025-05-16T07:49:15Z</time>
      </trkpt>
      <trkpt lat="48.19088" lon="-2.12296">
        <ele>152</ele>
        <time>2025-05-16T07:49:16Z</time>
      </trkpt>
      <trkpt lat="48.19088" lon="-2.1229">
        <ele>152</ele>
        <time>2025-05-16T07:49:17Z</time>
      </trkpt>
      <trkpt lat="48.19089" lon="-2.12284">
        <ele>151</ele>
        <time>2025-05-16T07:49:18Z</time>
      </trkpt>
      <trkpt lat="48.19089" lon="-2.12278">
        <ele>151</ele>
        <time>2025-05-16T07:49:19Z</time>
      </trkpt>
      <trkpt lat="48.19089" lon="-2.12272">
        <ele>151</ele>
        <time>2025-05-16T07:49:20Z</time>
      </trkpt>
      <trkpt lat="48.19089" lon="-2.12267">
        <ele>151</ele>
        <time>2025-05-16T07:49:21Z</time>
      </trkpt>
      <trkpt lat="48.19089" lon="-2.12261">
        <ele>151</ele>
        <time>2025-05-16T07:49:22Z</time>
      </trkpt>
      <trkpt lat="48.19089" lon="-2.12254">
        <ele>150</ele>
        <time>2025-05-16T07:49:23Z</time>
      </trkpt>
      <trkpt lat="48.19089" lon="-2.12248">
        <ele>150</ele>
        <time>2025-05-16T07:49:24Z</time>
      </trkpt>
      <trkpt lat="48.1909" lon="-2.12243">
        <ele>150</ele>
        <time>2025-05-16T07:49:25Z</time>
      </trkpt>
      <trkpt lat="48.19091" lon="-2.12236">
        <ele>150</ele>
        <time>2025-05-16T07:49:26Z</time>
      </trkpt>
      <trkpt lat="48.19091" lon="-2.1223">
        <ele>150</ele>
        <time>2025-05-16T07:49:27Z</time>
      </trkpt>
      <trkpt lat="48.19092" lon="-2.12224">
        <ele>150</ele>
        <time>2025-05-16T07:49:28Z</time>
      </trkpt>
      <trkpt lat="48.19092" lon="-2.12218">
        <ele>150</ele>
        <time>2025-05-16T07:49:29Z</time>
      </trkpt>
      <trkpt lat="48.19093" lon="-2.12212">
        <ele>150</ele>
        <time>2025-05-16T07:49:30Z</time>
      </trkpt>
      <trkpt lat="48.19093" lon="-2.12206">
        <ele>150</ele>
        <time>2025-05-16T07:49:31Z</time>
      </trkpt>
      <trkpt lat="48.19093" lon="-2.12199">
        <ele>151</ele>
        <time>2025-05-16T07:49:32Z</time>
      </trkpt>
      <trkpt lat="48.19094" lon="-2.12193">
        <ele>151</ele>
        <time>2025-05-16T07:49:33Z</time>
      </trkpt>
      <trkpt lat="48.19095" lon="-2.12186">
        <ele>152</ele>
        <time>2025-05-16T07:49:34Z</time>
      </trkpt>
      <trkpt lat="48.19096" lon="-2.12179">
        <ele>152</ele>
        <time>2025-05-16T07:49:35Z</time>
      </trkpt>
      <trkpt lat="48.19097" lon="-2.12173">
        <ele>151</ele>
        <time>2025-05-16T07:49:36Z</time>
      </trkpt>
      <trkpt lat="48.19098" lon="-2.12167">
        <ele>152</ele>
        <time>2025-05-16T07:49:37Z</time>
      </trkpt>
      <trkpt lat="48.19099" lon="-2.12161">
        <ele>152</ele>
        <time>2025-05-16T07:49:38Z</time>
      </trkpt>
      <trkpt lat="48.191" lon="-2.12155">
        <ele>152</ele>
        <time>2025-05-16T07:49:39Z</time>
      </trkpt>
      <trkpt lat="48.19101" lon="-2.12149">
        <ele>151</ele>
        <time>2025-05-16T07:49:40Z</time>
      </trkpt>
      <trkpt lat="48.19102" lon="-2.12143">
        <ele>151</ele>
        <time>2025-05-16T07:49:41Z</time>
      </trkpt>
      <trkpt lat="48.19103" lon="-2.12137">
        <ele>151</ele>
        <time>2025-05-16T07:49:42Z</time>
      </trkpt>
      <trkpt lat="48.19104" lon="-2.12131">
        <ele>151</ele>
        <time>2025-05-16T07:49:43Z</time>
      </trkpt>
      <trkpt lat="48.19105" lon="-2.12125">
        <ele>151</ele>
        <time>2025-05-16T07:49:44Z</time>
      </trkpt>
      <trkpt lat="48.19107" lon="-2.12119">
        <ele>151</ele>
        <time>2025-05-16T07:49:45Z</time>
      </trkpt>
      <trkpt lat="48.19108" lon="-2.12113">
        <ele>151</ele>
        <time>2025-05-16T07:49:46Z</time>
      </trkpt>
      <trkpt lat="48.19109" lon="-2.12107">
        <ele>151</ele>
        <time>2025-05-16T07:49:47Z</time>
      </trkpt>
      <trkpt lat="48.1911" lon="-2.12102">
        <ele>151</ele>
        <time>2025-05-16T07:49:48Z</time>
      </trkpt>
      <trkpt lat="48.19111" lon="-2.12096">
        <ele>150</ele>
        <time>2025-05-16T07:49:49Z</time>
      </trkpt>
      <trkpt lat="48.19112" lon="-2.1209">
        <ele>150</ele>
        <time>2025-05-16T07:49:50Z</time>
      </trkpt>
      <trkpt lat="48.19114" lon="-2.12084">
        <ele>150</ele>
        <time>2025-05-16T07:49:51Z</time>
      </trkpt>
      <trkpt lat="48.19115" lon="-2.12078">
        <ele>150</ele>
        <time>2025-05-16T07:49:52Z</time>
      </trkpt>
      <trkpt lat="48.19117" lon="-2.12072">
        <ele>150</ele>
        <time>2025-05-16T07:49:53Z</time>
      </trkpt>
      <trkpt lat="48.19119" lon="-2.12066">
        <ele>150</ele>
        <time>2025-05-16T07:49:54Z</time>
      </trkpt>
      <trkpt lat="48.1912" lon="-2.1206">
        <ele>151</ele>
        <time>2025-05-16T07:49:55Z</time>
      </trkpt>
      <trkpt lat="48.19122" lon="-2.12055">
        <ele>151</ele>
        <time>2025-05-16T07:49:56Z</time>
      </trkpt>
      <trkpt lat="48.19124" lon="-2.12048">
        <ele>150</ele>
        <time>2025-05-16T07:49:57Z</time>
      </trkpt>
      <trkpt lat="48.19125" lon="-2.12042">
        <ele>150</ele>
        <time>2025-05-16T07:49:58Z</time>
      </trkpt>
      <trkpt lat="48.19127" lon="-2.12037">
        <ele>150</ele>
        <time>2025-05-16T07:49:59Z</time>
      </trkpt>
      <trkpt lat="48.19128" lon="-2.12031">
        <ele>151</ele>
        <time>2025-05-16T07:50:00Z</time>
      </trkpt>
      <trkpt lat="48.1913" lon="-2.12025">
        <ele>151</ele>
        <time>2025-05-16T07:50:01Z</time>
      </trkpt>
      <trkpt lat="48.19131" lon="-2.12019">
        <ele>150</ele>
        <time>2025-05-16T07:50:02Z</time>
      </trkpt>
      <trkpt lat="48.19133" lon="-2.12013">
        <ele>151</ele>
        <time>2025-05-16T07:50:03Z</time>
      </trkpt>
      <trkpt lat="48.19135" lon="-2.12007">
        <ele>151</ele>
        <time>2025-05-16T07:50:04Z</time>
      </trkpt>
      <trkpt lat="48.19136" lon="-2.12002">
        <ele>151</ele>
        <time>2025-05-16T07:50:05Z</time>
      </trkpt>
      <trkpt lat="48.19138" lon="-2.11996">
        <ele>151</ele>
        <time>2025-05-16T07:50:06Z</time>
      </trkpt>
      <trkpt lat="48.1914" lon="-2.1199">
        <ele>151</ele>
        <time>2025-05-16T07:50:07Z</time>
      </trkpt>
      <trkpt lat="48.19141" lon="-2.11984">
        <ele>150</ele>
        <time>2025-05-16T07:50:08Z</time>
      </trkpt>
      <trkpt lat="48.19143" lon="-2.11978">
        <ele>150</ele>
        <time>2025-05-16T07:50:09Z</time>
      </trkpt>
      <trkpt lat="48.19144" lon="-2.11973">
        <ele>150</ele>
        <time>2025-05-16T07:50:10Z</time>
      </trkpt>
      <trkpt lat="48.19146" lon="-2.11967">
        <ele>150</ele>
        <time>2025-05-16T07:50:11Z</time>
      </trkpt>
      <trkpt lat="48.19148" lon="-2.11961">
        <ele>150</ele>
        <time>2025-05-16T07:50:12Z</time>
      </trkpt>
      <trkpt lat="48.19149" lon="-2.11956">
        <ele>150</ele>
        <time>2025-05-16T07:50:13Z</time>
      </trkpt>
      <trkpt lat="48.19151" lon="-2.1195">
        <ele>150</ele>
        <time>2025-05-16T07:50:14Z</time>
      </trkpt>
      <trkpt lat="48.19152" lon="-2.11945">
        <ele>150</ele>
        <time>2025-05-16T07:50:15Z</time>
      </trkpt>
      <trkpt lat="48.19154" lon="-2.11939">
        <ele>150</ele>
        <time>2025-05-16T07:50:16Z</time>
      </trkpt>
      <trkpt lat="48.19155" lon="-2.11933">
        <ele>149</ele>
        <time>2025-05-16T07:50:17Z</time>
      </trkpt>
      <trkpt lat="48.19157" lon="-2.11928">
        <ele>150</ele>
        <time>2025-05-16T07:50:18Z</time>
      </trkpt>
      <trkpt lat="48.19158" lon="-2.11921">
        <ele>150</ele>
        <time>2025-05-16T07:50:19Z</time>
      </trkpt>
      <trkpt lat="48.1916" lon="-2.11916">
        <ele>150</ele>
        <time>2025-05-16T07:50:20Z</time>
      </trkpt>
      <trkpt lat="48.19162" lon="-2.11909">
        <ele>150</ele>
        <time>2025-05-16T07:50:21Z</time>
      </trkpt>
      <trkpt lat="48.19163" lon="-2.11903">
        <ele>150</ele>
        <time>2025-05-16T07:50:22Z</time>
      </trkpt>
      <trkpt lat="48.19165" lon="-2.11897">
        <ele>150</ele>
        <time>2025-05-16T07:50:23Z</time>
      </trkpt>
      <trkpt lat="48.19167" lon="-2.11892">
        <ele>150</ele>
        <time>2025-05-16T07:50:24Z</time>
      </trkpt>
      <trkpt lat="48.19168" lon="-2.11886">
        <ele>150</ele>
        <time>2025-05-16T07:50:25Z</time>
      </trkpt>
      <trkpt lat="48.1917" lon="-2.1188">
        <ele>150</ele>
        <time>2025-05-16T07:50:26Z</time>
      </trkpt>
      <trkpt lat="48.19172" lon="-2.11874">
        <ele>150</ele>
        <time>2025-05-16T07:50:27Z</time>
      </trkpt>
      <trkpt lat="48.19173" lon="-2.11869">
        <ele>150</ele>
        <time>2025-05-16T07:50:28Z</time>
      </trkpt>
      <trkpt lat="48.19175" lon="-2.11863">
        <ele>150</ele>
        <time>2025-05-16T07:50:29Z</time>
      </trkpt>
      <trkpt lat="48.19177" lon="-2.11857">
        <ele>150</ele>
        <time>2025-05-16T07:50:30Z</time>
      </trkpt>
      <trkpt lat="48.19178" lon="-2.11851">
        <ele>150</ele>
        <time>2025-05-16T07:50:31Z</time>
      </trkpt>
      <trkpt lat="48.1918" lon="-2.11845">
        <ele>150</ele>
        <time>2025-05-16T07:50:32Z</time>
      </trkpt>
      <trkpt lat="48.19182" lon="-2.1184">
        <ele>150</ele>
        <time>2025-05-16T07:50:33Z</time>
      </trkpt>
      <trkpt lat="48.19184" lon="-2.11834">
        <ele>150</ele>
        <time>2025-05-16T07:50:34Z</time>
      </trkpt>
      <trkpt lat="48.19186" lon="-2.11828">
        <ele>150</ele>
        <time>2025-05-16T07:50:35Z</time>
      </trkpt>
      <trkpt lat="48.19187" lon="-2.11822">
        <ele>150</ele>
        <time>2025-05-16T07:50:36Z</time>
      </trkpt>
      <trkpt lat="48.19188" lon="-2.11816">
        <ele>150</ele>
        <time>2025-05-16T07:50:37Z</time>
      </trkpt>
      <trkpt lat="48.1919" lon="-2.1181">
        <ele>150</ele>
        <time>2025-05-16T07:50:38Z</time>
      </trkpt>
      <trkpt lat="48.19192" lon="-2.11804">
        <ele>150</ele>
        <time>2025-05-16T07:50:39Z</time>
      </trkpt>
      <trkpt lat="48.19193" lon="-2.11798">
        <ele>150</ele>
        <time>2025-05-16T07:50:40Z</time>
      </trkpt>
      <trkpt lat="48.19195" lon="-2.11792">
        <ele>150</ele>
        <time>2025-05-16T07:50:41Z</time>
      </trkpt>
      <trkpt lat="48.19197" lon="-2.11786">
        <ele>149</ele>
        <time>2025-05-16T07:50:42Z</time>
      </trkpt>
      <trkpt lat="48.19199" lon="-2.11781">
        <ele>149</ele>
        <time>2025-05-16T07:50:43Z</time>
      </trkpt>
      <trkpt lat="48.192" lon="-2.11775">
        <ele>149</ele>
        <time>2025-05-16T07:50:44Z</time>
      </trkpt>
      <trkpt lat="48.19201" lon="-2.1177">
        <ele>149</ele>
        <time>2025-05-16T07:50:45Z</time>
      </trkpt>
      <trkpt lat="48.19203" lon="-2.11766">
        <ele>149</ele>
        <time>2025-05-16T07:50:46Z</time>
      </trkpt>
      <trkpt lat="48.19204" lon="-2.11761">
        <ele>149</ele>
        <time>2025-05-16T07:50:47Z</time>
      </trkpt>
      <trkpt lat="48.19205" lon="-2.11758">
        <ele>150</ele>
        <time>2025-05-16T07:50:48Z</time>
      </trkpt>
      <trkpt lat="48.19206" lon="-2.11754">
        <ele>150</ele>
        <time>2025-05-16T07:50:49Z</time>
      </trkpt>
      <trkpt lat="48.19207" lon="-2.11749">
        <ele>151</ele>
        <time>2025-05-16T07:50:50Z</time>
      </trkpt>
      <trkpt lat="48.19209" lon="-2.11745">
        <ele>151</ele>
        <time>2025-05-16T07:50:51Z</time>
      </trkpt>
      <trkpt lat="48.1921" lon="-2.11741">
        <ele>151</ele>
        <time>2025-05-16T07:50:52Z</time>
      </trkpt>
      <trkpt lat="48.19211" lon="-2.11736">
        <ele>151</ele>
        <time>2025-05-16T07:50:53Z</time>
      </trkpt>
      <trkpt lat="48.19213" lon="-2.11732">
        <ele>151</ele>
        <time>2025-05-16T07:50:54Z</time>
      </trkpt>
      <trkpt lat="48.19215" lon="-2.11727">
        <ele>151</ele>
        <time>2025-05-16T07:50:55Z</time>
      </trkpt>
      <trkpt lat="48.19216" lon="-2.11722">
        <ele>151</ele>
        <time>2025-05-16T07:50:56Z</time>
      </trkpt>
      <trkpt lat="48.19218" lon="-2.11717">
        <ele>150</ele>
        <time>2025-05-16T07:50:57Z</time>
      </trkpt>
      <trkpt lat="48.19219" lon="-2.11712">
        <ele>150</ele>
        <time>2025-05-16T07:50:58Z</time>
      </trkpt>
      <trkpt lat="48.19221" lon="-2.11706">
        <ele>150</ele>
        <time>2025-05-16T07:50:59Z</time>
      </trkpt>
      <trkpt lat="48.19222" lon="-2.11701">
        <ele>150</ele>
        <time>2025-05-16T07:51:00Z</time>
      </trkpt>
      <trkpt lat="48.19224" lon="-2.11696">
        <ele>151</ele>
        <time>2025-05-16T07:51:01Z</time>
      </trkpt>
      <trkpt lat="48.19225" lon="-2.1169">
        <ele>151</ele>
        <time>2025-05-16T07:51:02Z</time>
      </trkpt>
      <trkpt lat="48.19227" lon="-2.11685">
        <ele>151</ele>
        <time>2025-05-16T07:51:03Z</time>
      </trkpt>
      <trkpt lat="48.19229" lon="-2.11679">
        <ele>151</ele>
        <time>2025-05-16T07:51:04Z</time>
      </trkpt>
      <trkpt lat="48.19231" lon="-2.11674">
        <ele>151</ele>
        <time>2025-05-16T07:51:05Z</time>
      </trkpt>
      <trkpt lat="48.19233" lon="-2.11668">
        <ele>151</ele>
        <time>2025-05-16T07:51:06Z</time>
      </trkpt>
      <trkpt lat="48.19234" lon="-2.11663">
        <ele>151</ele>
        <time>2025-05-16T07:51:07Z</time>
      </trkpt>
      <trkpt lat="48.19236" lon="-2.11657">
        <ele>151</ele>
        <time>2025-05-16T07:51:08Z</time>
      </trkpt>
      <trkpt lat="48.19238" lon="-2.11652">
        <ele>150</ele>
        <time>2025-05-16T07:51:09Z</time>
      </trkpt>
      <trkpt lat="48.19239" lon="-2.11646">
        <ele>151</ele>
        <time>2025-05-16T07:51:10Z</time>
      </trkpt>
      <trkpt lat="48.19241" lon="-2.1164">
        <ele>151</ele>
        <time>2025-05-16T07:51:11Z</time>
      </trkpt>
      <trkpt lat="48.19243" lon="-2.11635">
        <ele>151</ele>
        <time>2025-05-16T07:51:12Z</time>
      </trkpt>
      <trkpt lat="48.19245" lon="-2.1163">
        <ele>151</ele>
        <time>2025-05-16T07:51:13Z</time>
      </trkpt>
      <trkpt lat="48.19246" lon="-2.11624">
        <ele>151</ele>
        <time>2025-05-16T07:51:14Z</time>
      </trkpt>
      <trkpt lat="48.19248" lon="-2.11619">
        <ele>150</ele>
        <time>2025-05-16T07:51:15Z</time>
      </trkpt>
      <trkpt lat="48.1925" lon="-2.11613">
        <ele>151</ele>
        <time>2025-05-16T07:51:16Z</time>
      </trkpt>
      <trkpt lat="48.19251" lon="-2.11607">
        <ele>151</ele>
        <time>2025-05-16T07:51:17Z</time>
      </trkpt>
      <trkpt lat="48.19253" lon="-2.11602">
        <ele>150</ele>
        <time>2025-05-16T07:51:18Z</time>
      </trkpt>
      <trkpt lat="48.19254" lon="-2.11596">
        <ele>151</ele>
        <time>2025-05-16T07:51:19Z</time>
      </trkpt>
      <trkpt lat="48.19256" lon="-2.11591">
        <ele>150</ele>
        <time>2025-05-16T07:51:20Z</time>
      </trkpt>
      <trkpt lat="48.19258" lon="-2.11585">
        <ele>151</ele>
        <time>2025-05-16T07:51:21Z</time>
      </trkpt>
      <trkpt lat="48.1926" lon="-2.11579">
        <ele>151</ele>
        <time>2025-05-16T07:51:22Z</time>
      </trkpt>
      <trkpt lat="48.19261" lon="-2.11574">
        <ele>151</ele>
        <time>2025-05-16T07:51:23Z</time>
      </trkpt>
      <trkpt lat="48.19263" lon="-2.11568">
        <ele>151</ele>
        <time>2025-05-16T07:51:24Z</time>
      </trkpt>
      <trkpt lat="48.19265" lon="-2.11562">
        <ele>151</ele>
        <time>2025-05-16T07:51:25Z</time>
      </trkpt>
      <trkpt lat="48.19267" lon="-2.11557">
        <ele>152</ele>
        <time>2025-05-16T07:51:26Z</time>
      </trkpt>
      <trkpt lat="48.19269" lon="-2.11552">
        <ele>152</ele>
        <time>2025-05-16T07:51:27Z</time>
      </trkpt>
      <trkpt lat="48.1927" lon="-2.11546">
        <ele>152</ele>
        <time>2025-05-16T07:51:28Z</time>
      </trkpt>
      <trkpt lat="48.19272" lon="-2.1154">
        <ele>152</ele>
        <time>2025-05-16T07:51:29Z</time>
      </trkpt>
      <trkpt lat="48.19274" lon="-2.11535">
        <ele>151</ele>
        <time>2025-05-16T07:51:30Z</time>
      </trkpt>
      <trkpt lat="48.19276" lon="-2.11529">
        <ele>151</ele>
        <time>2025-05-16T07:51:31Z</time>
      </trkpt>
      <trkpt lat="48.19277" lon="-2.11524">
        <ele>151</ele>
        <time>2025-05-16T07:51:32Z</time>
      </trkpt>
      <trkpt lat="48.19279" lon="-2.11518">
        <ele>151</ele>
        <time>2025-05-16T07:51:33Z</time>
      </trkpt>
      <trkpt lat="48.19281" lon="-2.11512">
        <ele>151</ele>
        <time>2025-05-16T07:51:34Z</time>
      </trkpt>
      <trkpt lat="48.19282" lon="-2.11507">
        <ele>151</ele>
        <time>2025-05-16T07:51:35Z</time>
      </trkpt>
      <trkpt lat="48.19284" lon="-2.11501">
        <ele>151</ele>
        <time>2025-05-16T07:51:36Z</time>
      </trkpt>
      <trkpt lat="48.19286" lon="-2.11495">
        <ele>151</ele>
        <time>2025-05-16T07:51:37Z</time>
      </trkpt>
      <trkpt lat="48.19287" lon="-2.11489">
        <ele>151</ele>
        <time>2025-05-16T07:51:38Z</time>
      </trkpt>
      <trkpt lat="48.19289" lon="-2.11484">
        <ele>151</ele>
        <time>2025-05-16T07:51:39Z</time>
      </trkpt>
      <trkpt lat="48.1929" lon="-2.11478">
        <ele>151</ele>
        <time>2025-05-16T07:51:40Z</time>
      </trkpt>
      <trkpt lat="48.19292" lon="-2.11473">
        <ele>151</ele>
        <time>2025-05-16T07:51:41Z</time>
      </trkpt>
      <trkpt lat="48.19294" lon="-2.11467">
        <ele>151</ele>
        <time>2025-05-16T07:51:42Z</time>
      </trkpt>
      <trkpt lat="48.19296" lon="-2.11462">
        <ele>151</ele>
        <time>2025-05-16T07:51:43Z</time>
      </trkpt>
      <trkpt lat="48.19297" lon="-2.11456">
        <ele>151</ele>
        <time>2025-05-16T07:51:44Z</time>
      </trkpt>
      <trkpt lat="48.19299" lon="-2.1145">
        <ele>151</ele>
        <time>2025-05-16T07:51:45Z</time>
      </trkpt>
      <trkpt lat="48.19301" lon="-2.11445">
        <ele>151</ele>
        <time>2025-05-16T07:51:46Z</time>
      </trkpt>
      <trkpt lat="48.19303" lon="-2.1144">
        <ele>151</ele>
        <time>2025-05-16T07:51:47Z</time>
      </trkpt>
      <trkpt lat="48.19304" lon="-2.11434">
        <ele>151</ele>
        <time>2025-05-16T07:51:48Z</time>
      </trkpt>
      <trkpt lat="48.19306" lon="-2.11429">
        <ele>151</ele>
        <time>2025-05-16T07:51:49Z</time>
      </trkpt>
      <trkpt lat="48.19308" lon="-2.11424">
        <ele>151</ele>
        <time>2025-05-16T07:51:50Z</time>
      </trkpt>
      <trkpt lat="48.19309" lon="-2.11418">
        <ele>151</ele>
        <time>2025-05-16T07:51:51Z</time>
      </trkpt>
      <trkpt lat="48.19311" lon="-2.11413">
        <ele>151</ele>
        <time>2025-05-16T07:51:52Z</time>
      </trkpt>
      <trkpt lat="48.19313" lon="-2.11408">
        <ele>151</ele>
        <time>2025-05-16T07:51:53Z</time>
      </trkpt>
      <trkpt lat="48.19314" lon="-2.11402">
        <ele>151</ele>
        <time>2025-05-16T07:51:54Z</time>
      </trkpt>
      <trkpt lat="48.19316" lon="-2.11397">
        <ele>151</ele>
        <time>2025-05-16T07:51:55Z</time>
      </trkpt>
      <trkpt lat="48.19317" lon="-2.11392">
        <ele>151</ele>
        <time>2025-05-16T07:51:56Z</time>
      </trkpt>
      <trkpt lat="48.19319" lon="-2.11386">
        <ele>152</ele>
        <time>2025-05-16T07:51:57Z</time>
      </trkpt>
      <trkpt lat="48.19321" lon="-2.11381">
        <ele>152</ele>
        <time>2025-05-16T07:51:58Z</time>
      </trkpt>
      <trkpt lat="48.19323" lon="-2.11376">
        <ele>152</ele>
        <time>2025-05-16T07:51:59Z</time>
      </trkpt>
      <trkpt lat="48.19325" lon="-2.11371">
        <ele>152</ele>
        <time>2025-05-16T07:52:00Z</time>
      </trkpt>
      <trkpt lat="48.19326" lon="-2.11365">
        <ele>151</ele>
        <time>2025-05-16T07:52:01Z</time>
      </trkpt>
      <trkpt lat="48.19327" lon="-2.1136">
        <ele>151</ele>
        <time>2025-05-16T07:52:02Z</time>
      </trkpt>
      <trkpt lat="48.19329" lon="-2.11355">
        <ele>152</ele>
        <time>2025-05-16T07:52:03Z</time>
      </trkpt>
      <trkpt lat="48.19331" lon="-2.11349">
        <ele>152</ele>
        <time>2025-05-16T07:52:04Z</time>
      </trkpt>
      <trkpt lat="48.19332" lon="-2.11344">
        <ele>153</ele>
        <time>2025-05-16T07:52:05Z</time>
      </trkpt>
      <trkpt lat="48.19334" lon="-2.11339">
        <ele>153</ele>
        <time>2025-05-16T07:52:06Z</time>
      </trkpt>
      <trkpt lat="48.19336" lon="-2.11334">
        <ele>153</ele>
        <time>2025-05-16T07:52:07Z</time>
      </trkpt>
      <trkpt lat="48.19337" lon="-2.11329">
        <ele>152</ele>
        <time>2025-05-16T07:52:08Z</time>
      </trkpt>
      <trkpt lat="48.19339" lon="-2.11324">
        <ele>152</ele>
        <time>2025-05-16T07:52:09Z</time>
      </trkpt>
      <trkpt lat="48.1934" lon="-2.11319">
        <ele>153</ele>
        <time>2025-05-16T07:52:10Z</time>
      </trkpt>
      <trkpt lat="48.19342" lon="-2.11314">
        <ele>152</ele>
        <time>2025-05-16T07:52:11Z</time>
      </trkpt>
      <trkpt lat="48.19344" lon="-2.11309">
        <ele>152</ele>
        <time>2025-05-16T07:52:12Z</time>
      </trkpt>
      <trkpt lat="48.19345" lon="-2.11304">
        <ele>152</ele>
        <time>2025-05-16T07:52:13Z</time>
      </trkpt>
      <trkpt lat="48.19347" lon="-2.11299">
        <ele>152</ele>
        <time>2025-05-16T07:52:14Z</time>
      </trkpt>
      <trkpt lat="48.19349" lon="-2.11294">
        <ele>153</ele>
        <time>2025-05-16T07:52:15Z</time>
      </trkpt>
      <trkpt lat="48.1935" lon="-2.11288">
        <ele>152</ele>
        <time>2025-05-16T07:52:16Z</time>
      </trkpt>
      <trkpt lat="48.19352" lon="-2.11284">
        <ele>152</ele>
        <time>2025-05-16T07:52:17Z</time>
      </trkpt>
      <trkpt lat="48.19353" lon="-2.11279">
        <ele>152</ele>
        <time>2025-05-16T07:52:18Z</time>
      </trkpt>
      <trkpt lat="48.19355" lon="-2.11274">
        <ele>152</ele>
        <time>2025-05-16T07:52:19Z</time>
      </trkpt>
      <trkpt lat="48.19356" lon="-2.11269">
        <ele>152</ele>
        <time>2025-05-16T07:52:20Z</time>
      </trkpt>
      <trkpt lat="48.19358" lon="-2.11264">
        <ele>153</ele>
        <time>2025-05-16T07:52:21Z</time>
      </trkpt>
      <trkpt lat="48.1936" lon="-2.1126">
        <ele>153</ele>
        <time>2025-05-16T07:52:22Z</time>
      </trkpt>
      <trkpt lat="48.19361" lon="-2.11255">
        <ele>153</ele>
        <time>2025-05-16T07:52:23Z</time>
      </trkpt>
      <trkpt lat="48.19363" lon="-2.1125">
        <ele>153</ele>
        <time>2025-05-16T07:52:24Z</time>
      </trkpt>
      <trkpt lat="48.19364" lon="-2.11245">
        <ele>153</ele>
        <time>2025-05-16T07:52:25Z</time>
      </trkpt>
      <trkpt lat="48.19365" lon="-2.11241">
        <ele>153</ele>
        <time>2025-05-16T07:52:26Z</time>
      </trkpt>
      <trkpt lat="48.19366" lon="-2.11237">
        <ele>153</ele>
        <time>2025-05-16T07:52:27Z</time>
      </trkpt>
      <trkpt lat="48.19368" lon="-2.11232">
        <ele>153</ele>
        <time>2025-05-16T07:52:28Z</time>
      </trkpt>
      <trkpt lat="48.1937" lon="-2.11227">
        <ele>153</ele>
        <time>2025-05-16T07:52:29Z</time>
      </trkpt>
      <trkpt lat="48.19371" lon="-2.11222">
        <ele>153</ele>
        <time>2025-05-16T07:52:30Z</time>
      </trkpt>
      <trkpt lat="48.19373" lon="-2.11218">
        <ele>153</ele>
        <time>2025-05-16T07:52:31Z</time>
      </trkpt>
      <trkpt lat="48.19374" lon="-2.11213">
        <ele>153</ele>
        <time>2025-05-16T07:52:32Z</time>
      </trkpt>
      <trkpt lat="48.19375" lon="-2.11209">
        <ele>153</ele>
        <time>2025-05-16T07:52:33Z</time>
      </trkpt>
      <trkpt lat="48.19376" lon="-2.11204">
        <ele>154</ele>
        <time>2025-05-16T07:52:34Z</time>
      </trkpt>
      <trkpt lat="48.19378" lon="-2.112">
        <ele>154</ele>
        <time>2025-05-16T07:52:35Z</time>
      </trkpt>
      <trkpt lat="48.19379" lon="-2.11196">
        <ele>154</ele>
        <time>2025-05-16T07:52:36Z</time>
      </trkpt>
      <trkpt lat="48.19381" lon="-2.11192">
        <ele>154</ele>
        <time>2025-05-16T07:52:37Z</time>
      </trkpt>
      <trkpt lat="48.19382" lon="-2.11188">
        <ele>154</ele>
        <time>2025-05-16T07:52:38Z</time>
      </trkpt>
      <trkpt lat="48.19384" lon="-2.11184">
        <ele>154</ele>
        <time>2025-05-16T07:52:39Z</time>
      </trkpt>
      <trkpt lat="48.19385" lon="-2.1118">
        <ele>154</ele>
        <time>2025-05-16T07:52:40Z</time>
      </trkpt>
      <trkpt lat="48.19386" lon="-2.11175">
        <ele>154</ele>
        <time>2025-05-16T07:52:41Z</time>
      </trkpt>
      <trkpt lat="48.19388" lon="-2.11171">
        <ele>154</ele>
        <time>2025-05-16T07:52:42Z</time>
      </trkpt>
      <trkpt lat="48.19389" lon="-2.11167">
        <ele>154</ele>
        <time>2025-05-16T07:52:43Z</time>
      </trkpt>
      <trkpt lat="48.1939" lon="-2.11162">
        <ele>154</ele>
        <time>2025-05-16T07:52:44Z</time>
      </trkpt>
      <trkpt lat="48.19391" lon="-2.11158">
        <ele>154</ele>
        <time>2025-05-16T07:52:45Z</time>
      </trkpt>
      <trkpt lat="48.19393" lon="-2.11154">
        <ele>153</ele>
        <time>2025-05-16T07:52:46Z</time>
      </trkpt>
      <trkpt lat="48.19394" lon="-2.11149">
        <ele>153</ele>
        <time>2025-05-16T07:52:47Z</time>
      </trkpt>
      <trkpt lat="48.19396" lon="-2.11144">
        <ele>153</ele>
        <time>2025-05-16T07:52:48Z</time>
      </trkpt>
      <trkpt lat="48.19397" lon="-2.1114">
        <ele>153</ele>
        <time>2025-05-16T07:52:49Z</time>
      </trkpt>
      <trkpt lat="48.19399" lon="-2.11135">
        <ele>153</ele>
        <time>2025-05-16T07:52:50Z</time>
      </trkpt>
      <trkpt lat="48.194" lon="-2.1113">
        <ele>153</ele>
        <time>2025-05-16T07:52:51Z</time>
      </trkpt>
      <trkpt lat="48.19402" lon="-2.11126">
        <ele>153</ele>
        <time>2025-05-16T07:52:52Z</time>
      </trkpt>
      <trkpt lat="48.19404" lon="-2.11121">
        <ele>153</ele>
        <time>2025-05-16T07:52:53Z</time>
      </trkpt>
      <trkpt lat="48.19405" lon="-2.11117">
        <ele>153</ele>
        <time>2025-05-16T07:52:54Z</time>
      </trkpt>
      <trkpt lat="48.19406" lon="-2.11112">
        <ele>153</ele>
        <time>2025-05-16T07:52:55Z</time>
      </trkpt>
      <trkpt lat="48.19408" lon="-2.11107">
        <ele>153</ele>
        <time>2025-05-16T07:52:56Z</time>
      </trkpt>
      <trkpt lat="48.19409" lon="-2.11103">
        <ele>152</ele>
        <time>2025-05-16T07:52:57Z</time>
      </trkpt>
      <trkpt lat="48.19411" lon="-2.11098">
        <ele>153</ele>
        <time>2025-05-16T07:52:58Z</time>
      </trkpt>
      <trkpt lat="48.19412" lon="-2.11093">
        <ele>153</ele>
        <time>2025-05-16T07:52:59Z</time>
      </trkpt>
      <trkpt lat="48.19414" lon="-2.11088">
        <ele>152</ele>
        <time>2025-05-16T07:53:00Z</time>
      </trkpt>
      <trkpt lat="48.19415" lon="-2.11083">
        <ele>153</ele>
        <time>2025-05-16T07:53:01Z</time>
      </trkpt>
      <trkpt lat="48.19417" lon="-2.11078">
        <ele>153</ele>
        <time>2025-05-16T07:53:02Z</time>
      </trkpt>
      <trkpt lat="48.19419" lon="-2.11073">
        <ele>153</ele>
        <time>2025-05-16T07:53:03Z</time>
      </trkpt>
      <trkpt lat="48.19421" lon="-2.11068">
        <ele>153</ele>
        <time>2025-05-16T07:53:04Z</time>
      </trkpt>
      <trkpt lat="48.19422" lon="-2.11063">
        <ele>153</ele>
        <time>2025-05-16T07:53:05Z</time>
      </trkpt>
      <trkpt lat="48.19424" lon="-2.11057">
        <ele>153</ele>
        <time>2025-05-16T07:53:06Z</time>
      </trkpt>
      <trkpt lat="48.19425" lon="-2.11052">
        <ele>153</ele>
        <time>2025-05-16T07:53:07Z</time>
      </trkpt>
      <trkpt lat="48.19427" lon="-2.11046">
        <ele>153</ele>
        <time>2025-05-16T07:53:08Z</time>
      </trkpt>
      <trkpt lat="48.19429" lon="-2.11041">
        <ele>153</ele>
        <time>2025-05-16T07:53:09Z</time>
      </trkpt>
      <trkpt lat="48.19431" lon="-2.11035">
        <ele>153</ele>
        <time>2025-05-16T07:53:10Z</time>
      </trkpt>
      <trkpt lat="48.19433" lon="-2.11028">
        <ele>153</ele>
        <time>2025-05-16T07:53:11Z</time>
      </trkpt>
      <trkpt lat="48.19434" lon="-2.11022">
        <ele>153</ele>
        <time>2025-05-16T07:53:12Z</time>
      </trkpt>
      <trkpt lat="48.19436" lon="-2.11016">
        <ele>153</ele>
        <time>2025-05-16T07:53:13Z</time>
      </trkpt>
      <trkpt lat="48.19437" lon="-2.1101">
        <ele>153</ele>
        <time>2025-05-16T07:53:14Z</time>
      </trkpt>
      <trkpt lat="48.19439" lon="-2.11005">
        <ele>152</ele>
        <time>2025-05-16T07:53:15Z</time>
      </trkpt>
      <trkpt lat="48.19441" lon="-2.10999">
        <ele>152</ele>
        <time>2025-05-16T07:53:16Z</time>
      </trkpt>
      <trkpt lat="48.19444" lon="-2.10993">
        <ele>152</ele>
        <time>2025-05-16T07:53:17Z</time>
      </trkpt>
      <trkpt lat="48.19446" lon="-2.10986">
        <ele>152</ele>
        <time>2025-05-16T07:53:18Z</time>
      </trkpt>
      <trkpt lat="48.19448" lon="-2.1098">
        <ele>151</ele>
        <time>2025-05-16T07:53:19Z</time>
      </trkpt>
      <trkpt lat="48.1945" lon="-2.10974">
        <ele>151</ele>
        <time>2025-05-16T07:53:20Z</time>
      </trkpt>
      <trkpt lat="48.19452" lon="-2.10967">
        <ele>151</ele>
        <time>2025-05-16T07:53:21Z</time>
      </trkpt>
      <trkpt lat="48.19454" lon="-2.10961">
        <ele>151</ele>
        <time>2025-05-16T07:53:22Z</time>
      </trkpt>
      <trkpt lat="48.19456" lon="-2.10955">
        <ele>151</ele>
        <time>2025-05-16T07:53:23Z</time>
      </trkpt>
      <trkpt lat="48.19459" lon="-2.10949">
        <ele>150</ele>
        <time>2025-05-16T07:53:24Z</time>
      </trkpt>
      <trkpt lat="48.1946" lon="-2.10942">
        <ele>150</ele>
        <time>2025-05-16T07:53:25Z</time>
      </trkpt>
      <trkpt lat="48.19462" lon="-2.10936">
        <ele>150</ele>
        <time>2025-05-16T07:53:26Z</time>
      </trkpt>
      <trkpt lat="48.19465" lon="-2.10929">
        <ele>150</ele>
        <time>2025-05-16T07:53:27Z</time>
      </trkpt>
      <trkpt lat="48.19467" lon="-2.10923">
        <ele>150</ele>
        <time>2025-05-16T07:53:28Z</time>
      </trkpt>
      <trkpt lat="48.19469" lon="-2.10916">
        <ele>150</ele>
        <time>2025-05-16T07:53:29Z</time>
      </trkpt>
      <trkpt lat="48.19471" lon="-2.10908">
        <ele>150</ele>
        <time>2025-05-16T07:53:30Z</time>
      </trkpt>
      <trkpt lat="48.19474" lon="-2.10901">
        <ele>151</ele>
        <time>2025-05-16T07:53:31Z</time>
      </trkpt>
      <trkpt lat="48.19476" lon="-2.10894">
        <ele>150</ele>
        <time>2025-05-16T07:53:32Z</time>
      </trkpt>
      <trkpt lat="48.19479" lon="-2.10887">
        <ele>151</ele>
        <time>2025-05-16T07:53:33Z</time>
      </trkpt>
      <trkpt lat="48.19481" lon="-2.1088">
        <ele>151</ele>
        <time>2025-05-16T07:53:34Z</time>
      </trkpt>
      <trkpt lat="48.19483" lon="-2.10874">
        <ele>150</ele>
        <time>2025-05-16T07:53:35Z</time>
      </trkpt>
      <trkpt lat="48.19485" lon="-2.10867">
        <ele>150</ele>
        <time>2025-05-16T07:53:36Z</time>
      </trkpt>
      <trkpt lat="48.19487" lon="-2.1086">
        <ele>150</ele>
        <time>2025-05-16T07:53:37Z</time>
      </trkpt>
      <trkpt lat="48.19489" lon="-2.10853">
        <ele>149</ele>
        <time>2025-05-16T07:53:38Z</time>
      </trkpt>
      <trkpt lat="48.19492" lon="-2.10847">
        <ele>149</ele>
        <time>2025-05-16T07:53:39Z</time>
      </trkpt>
      <trkpt lat="48.19494" lon="-2.1084">
        <ele>148</ele>
        <time>2025-05-16T07:53:40Z</time>
      </trkpt>
      <trkpt lat="48.19496" lon="-2.10833">
        <ele>148</ele>
        <time>2025-05-16T07:53:41Z</time>
      </trkpt>
      <trkpt lat="48.19499" lon="-2.10826">
        <ele>148</ele>
        <time>2025-05-16T07:53:42Z</time>
      </trkpt>
      <trkpt lat="48.19501" lon="-2.10818">
        <ele>149</ele>
        <time>2025-05-16T07:53:43Z</time>
      </trkpt>
      <trkpt lat="48.19504" lon="-2.10811">
        <ele>149</ele>
        <time>2025-05-16T07:53:44Z</time>
      </trkpt>
      <trkpt lat="48.19506" lon="-2.10803">
        <ele>148</ele>
        <time>2025-05-16T07:53:45Z</time>
      </trkpt>
      <trkpt lat="48.19509" lon="-2.10796">
        <ele>148</ele>
        <time>2025-05-16T07:53:46Z</time>
      </trkpt>
      <trkpt lat="48.19511" lon="-2.10789">
        <ele>148</ele>
        <time>2025-05-16T07:53:47Z</time>
      </trkpt>
      <trkpt lat="48.19514" lon="-2.10782">
        <ele>148</ele>
        <time>2025-05-16T07:53:48Z</time>
      </trkpt>
      <trkpt lat="48.19516" lon="-2.10774">
        <ele>148</ele>
        <time>2025-05-16T07:53:49Z</time>
      </trkpt>
      <trkpt lat="48.19518" lon="-2.10767">
        <ele>148</ele>
        <time>2025-05-16T07:53:50Z</time>
      </trkpt>
      <trkpt lat="48.1952" lon="-2.1076">
        <ele>147</ele>
        <time>2025-05-16T07:53:51Z</time>
      </trkpt>
      <trkpt lat="48.19523" lon="-2.10753">
        <ele>147</ele>
        <time>2025-05-16T07:53:52Z</time>
      </trkpt>
      <trkpt lat="48.19525" lon="-2.10746">
        <ele>147</ele>
        <time>2025-05-16T07:53:53Z</time>
      </trkpt>
      <trkpt lat="48.19527" lon="-2.10738">
        <ele>147</ele>
        <time>2025-05-16T07:53:54Z</time>
      </trkpt>
      <trkpt lat="48.1953" lon="-2.10731">
        <ele>148</ele>
        <time>2025-05-16T07:53:55Z</time>
      </trkpt>
      <trkpt lat="48.19532" lon="-2.10724">
        <ele>148</ele>
        <time>2025-05-16T07:53:56Z</time>
      </trkpt>
      <trkpt lat="48.19534" lon="-2.10716">
        <ele>147</ele>
        <time>2025-05-16T07:53:57Z</time>
      </trkpt>
      <trkpt lat="48.19536" lon="-2.10709">
        <ele>147</ele>
        <time>2025-05-16T07:53:58Z</time>
      </trkpt>
      <trkpt lat="48.19538" lon="-2.10702">
        <ele>146</ele>
        <time>2025-05-16T07:53:59Z</time>
      </trkpt>
      <trkpt lat="48.19541" lon="-2.10695">
        <ele>146</ele>
        <time>2025-05-16T07:54:00Z</time>
      </trkpt>
      <trkpt lat="48.19543" lon="-2.10688">
        <ele>146</ele>
        <time>2025-05-16T07:54:01Z</time>
      </trkpt>
      <trkpt lat="48.19546" lon="-2.1068">
        <ele>146</ele>
        <time>2025-05-16T07:54:02Z</time>
      </trkpt>
      <trkpt lat="48.19549" lon="-2.10672">
        <ele>146</ele>
        <time>2025-05-16T07:54:03Z</time>
      </trkpt>
      <trkpt lat="48.19551" lon="-2.10665">
        <ele>146</ele>
        <time>2025-05-16T07:54:04Z</time>
      </trkpt>
      <trkpt lat="48.19553" lon="-2.10657">
        <ele>146</ele>
        <time>2025-05-16T07:54:05Z</time>
      </trkpt>
      <trkpt lat="48.19556" lon="-2.1065">
        <ele>145</ele>
        <time>2025-05-16T07:54:06Z</time>
      </trkpt>
      <trkpt lat="48.19558" lon="-2.10642">
        <ele>145</ele>
        <time>2025-05-16T07:54:07Z</time>
      </trkpt>
      <trkpt lat="48.1956" lon="-2.10635">
        <ele>145</ele>
        <time>2025-05-16T07:54:08Z</time>
      </trkpt>
      <trkpt lat="48.19563" lon="-2.10628">
        <ele>144</ele>
        <time>2025-05-16T07:54:09Z</time>
      </trkpt>
      <trkpt lat="48.19566" lon="-2.1062">
        <ele>144</ele>
        <time>2025-05-16T07:54:10Z</time>
      </trkpt>
      <trkpt lat="48.19568" lon="-2.10612">
        <ele>144</ele>
        <time>2025-05-16T07:54:11Z</time>
      </trkpt>
      <trkpt lat="48.19571" lon="-2.10605">
        <ele>145</ele>
        <time>2025-05-16T07:54:12Z</time>
      </trkpt>
      <trkpt lat="48.19573" lon="-2.10597">
        <ele>144</ele>
        <time>2025-05-16T07:54:13Z</time>
      </trkpt>
      <trkpt lat="48.19576" lon="-2.1059">
        <ele>144</ele>
        <time>2025-05-16T07:54:14Z</time>
      </trkpt>
      <trkpt lat="48.19578" lon="-2.10582">
        <ele>144</ele>
        <time>2025-05-16T07:54:15Z</time>
      </trkpt>
      <trkpt lat="48.1958" lon="-2.10574">
        <ele>144</ele>
        <time>2025-05-16T07:54:16Z</time>
      </trkpt>
      <trkpt lat="48.19583" lon="-2.10567">
        <ele>144</ele>
        <time>2025-05-16T07:54:17Z</time>
      </trkpt>
      <trkpt lat="48.19585" lon="-2.1056">
        <ele>144</ele>
        <time>2025-05-16T07:54:18Z</time>
      </trkpt>
      <trkpt lat="48.19587" lon="-2.10553">
        <ele>144</ele>
        <time>2025-05-16T07:54:19Z</time>
      </trkpt>
      <trkpt lat="48.1959" lon="-2.10546">
        <ele>144</ele>
        <time>2025-05-16T07:54:20Z</time>
      </trkpt>
      <trkpt lat="48.19592" lon="-2.10539">
        <ele>144</ele>
        <time>2025-05-16T07:54:21Z</time>
      </trkpt>
      <trkpt lat="48.19594" lon="-2.10532">
        <ele>144</ele>
        <time>2025-05-16T07:54:22Z</time>
      </trkpt>
      <trkpt lat="48.19597" lon="-2.10525">
        <ele>144</ele>
        <time>2025-05-16T07:54:23Z</time>
      </trkpt>
      <trkpt lat="48.19599" lon="-2.10518">
        <ele>144</ele>
        <time>2025-05-16T07:54:24Z</time>
      </trkpt>
      <trkpt lat="48.19601" lon="-2.10511">
        <ele>144</ele>
        <time>2025-05-16T07:54:25Z</time>
      </trkpt>
      <trkpt lat="48.19604" lon="-2.10504">
        <ele>144</ele>
        <time>2025-05-16T07:54:26Z</time>
      </trkpt>
      <trkpt lat="48.19606" lon="-2.10497">
        <ele>144</ele>
        <time>2025-05-16T07:54:27Z</time>
      </trkpt>
      <trkpt lat="48.19608" lon="-2.10491">
        <ele>144</ele>
        <time>2025-05-16T07:54:28Z</time>
      </trkpt>
      <trkpt lat="48.1961" lon="-2.10484">
        <ele>143</ele>
        <time>2025-05-16T07:54:29Z</time>
      </trkpt>
      <trkpt lat="48.19612" lon="-2.10477">
        <ele>143</ele>
        <time>2025-05-16T07:54:30Z</time>
      </trkpt>
      <trkpt lat="48.19614" lon="-2.10471">
        <ele>143</ele>
        <time>2025-05-16T07:54:31Z</time>
      </trkpt>
      <trkpt lat="48.19617" lon="-2.10464">
        <ele>143</ele>
        <time>2025-05-16T07:54:32Z</time>
      </trkpt>
      <trkpt lat="48.19619" lon="-2.10458">
        <ele>143</ele>
        <time>2025-05-16T07:54:33Z</time>
      </trkpt>
      <trkpt lat="48.19621" lon="-2.10451">
        <ele>143</ele>
        <time>2025-05-16T07:54:34Z</time>
      </trkpt>
      <trkpt lat="48.19623" lon="-2.10445">
        <ele>143</ele>
        <time>2025-05-16T07:54:35Z</time>
      </trkpt>
      <trkpt lat="48.19625" lon="-2.10438">
        <ele>143</ele>
        <time>2025-05-16T07:54:36Z</time>
      </trkpt>
      <trkpt lat="48.19627" lon="-2.10432">
        <ele>143</ele>
        <time>2025-05-16T07:54:37Z</time>
      </trkpt>
      <trkpt lat="48.19629" lon="-2.10426">
        <ele>143</ele>
        <time>2025-05-16T07:54:38Z</time>
      </trkpt>
      <trkpt lat="48.19631" lon="-2.1042">
        <ele>143</ele>
        <time>2025-05-16T07:54:39Z</time>
      </trkpt>
      <trkpt lat="48.19634" lon="-2.10414">
        <ele>143</ele>
        <time>2025-05-16T07:54:40Z</time>
      </trkpt>
      <trkpt lat="48.19635" lon="-2.10408">
        <ele>143</ele>
        <time>2025-05-16T07:54:41Z</time>
      </trkpt>
      <trkpt lat="48.19637" lon="-2.10402">
        <ele>143</ele>
        <time>2025-05-16T07:54:42Z</time>
      </trkpt>
      <trkpt lat="48.19639" lon="-2.10396">
        <ele>142</ele>
        <time>2025-05-16T07:54:43Z</time>
      </trkpt>
      <trkpt lat="48.19641" lon="-2.1039">
        <ele>142</ele>
        <time>2025-05-16T07:54:44Z</time>
      </trkpt>
      <trkpt lat="48.19643" lon="-2.10384">
        <ele>142</ele>
        <time>2025-05-16T07:54:45Z</time>
      </trkpt>
      <trkpt lat="48.19645" lon="-2.10378">
        <ele>142</ele>
        <time>2025-05-16T07:54:46Z</time>
      </trkpt>
      <trkpt lat="48.19647" lon="-2.10372">
        <ele>142</ele>
        <time>2025-05-16T07:54:47Z</time>
      </trkpt>
      <trkpt lat="48.19649" lon="-2.10366">
        <ele>142</ele>
        <time>2025-05-16T07:54:48Z</time>
      </trkpt>
      <trkpt lat="48.19651" lon="-2.1036">
        <ele>142</ele>
        <time>2025-05-16T07:54:49Z</time>
      </trkpt>
      <trkpt lat="48.19653" lon="-2.10355">
        <ele>142</ele>
        <time>2025-05-16T07:54:50Z</time>
      </trkpt>
      <trkpt lat="48.19655" lon="-2.10349">
        <ele>142</ele>
        <time>2025-05-16T07:54:51Z</time>
      </trkpt>
      <trkpt lat="48.19657" lon="-2.10343">
        <ele>142</ele>
        <time>2025-05-16T07:54:52Z</time>
      </trkpt>
      <trkpt lat="48.19659" lon="-2.10337">
        <ele>142</ele>
        <time>2025-05-16T07:54:53Z</time>
      </trkpt>
      <trkpt lat="48.19661" lon="-2.10331">
        <ele>142</ele>
        <time>2025-05-16T07:54:54Z</time>
      </trkpt>
      <trkpt lat="48.19663" lon="-2.10325">
        <ele>142</ele>
        <time>2025-05-16T07:54:55Z</time>
      </trkpt>
      <trkpt lat="48.19665" lon="-2.10319">
        <ele>142</ele>
        <time>2025-05-16T07:54:56Z</time>
      </trkpt>
      <trkpt lat="48.19666" lon="-2.10313">
        <ele>142</ele>
        <time>2025-05-16T07:54:57Z</time>
      </trkpt>
      <trkpt lat="48.19668" lon="-2.10307">
        <ele>142</ele>
        <time>2025-05-16T07:54:58Z</time>
      </trkpt>
      <trkpt lat="48.1967" lon="-2.10301">
        <ele>142</ele>
        <time>2025-05-16T07:54:59Z</time>
      </trkpt>
      <trkpt lat="48.19672" lon="-2.10295">
        <ele>142</ele>
        <time>2025-05-16T07:55:00Z</time>
      </trkpt>
      <trkpt lat="48.19674" lon="-2.10289">
        <ele>142</ele>
        <time>2025-05-16T07:55:01Z</time>
      </trkpt>
      <trkpt lat="48.19676" lon="-2.10283">
        <ele>142</ele>
        <time>2025-05-16T07:55:02Z</time>
      </trkpt>
      <trkpt lat="48.19677" lon="-2.10278">
        <ele>142</ele>
        <time>2025-05-16T07:55:03Z</time>
      </trkpt>
      <trkpt lat="48.19679" lon="-2.10271">
        <ele>142</ele>
        <time>2025-05-16T07:55:04Z</time>
      </trkpt>
      <trkpt lat="48.19681" lon="-2.10265">
        <ele>141</ele>
        <time>2025-05-16T07:55:05Z</time>
      </trkpt>
      <trkpt lat="48.19682" lon="-2.1026">
        <ele>141</ele>
        <time>2025-05-16T07:55:06Z</time>
      </trkpt>
      <trkpt lat="48.19684" lon="-2.10254">
        <ele>142</ele>
        <time>2025-05-16T07:55:07Z</time>
      </trkpt>
      <trkpt lat="48.19685" lon="-2.10248">
        <ele>142</ele>
        <time>2025-05-16T07:55:08Z</time>
      </trkpt>
      <trkpt lat="48.19687" lon="-2.10242">
        <ele>142</ele>
        <time>2025-05-16T07:55:09Z</time>
      </trkpt>
      <trkpt lat="48.19689" lon="-2.10236">
        <ele>142</ele>
        <time>2025-05-16T07:55:10Z</time>
      </trkpt>
      <trkpt lat="48.1969" lon="-2.1023">
        <ele>141</ele>
        <time>2025-05-16T07:55:11Z</time>
      </trkpt>
      <trkpt lat="48.1969" lon="-2.10223">
        <ele>141</ele>
        <time>2025-05-16T07:55:12Z</time>
      </trkpt>
      <trkpt lat="48.1969" lon="-2.10217">
        <ele>140</ele>
        <time>2025-05-16T07:55:13Z</time>
      </trkpt>
      <trkpt lat="48.1969" lon="-2.10211">
        <ele>140</ele>
        <time>2025-05-16T07:55:14Z</time>
      </trkpt>
      <trkpt lat="48.19688" lon="-2.10205">
        <ele>140</ele>
        <time>2025-05-16T07:55:15Z</time>
      </trkpt>
      <trkpt lat="48.19686" lon="-2.102">
        <ele>140</ele>
        <time>2025-05-16T07:55:16Z</time>
      </trkpt>
      <trkpt lat="48.19683" lon="-2.10196">
        <ele>140</ele>
        <time>2025-05-16T07:55:17Z</time>
      </trkpt>
      <trkpt lat="48.19679" lon="-2.10193">
        <ele>140</ele>
        <time>2025-05-16T07:55:18Z</time>
      </trkpt>
      <trkpt lat="48.19676" lon="-2.1019">
        <ele>139</ele>
        <time>2025-05-16T07:55:19Z</time>
      </trkpt>
      <trkpt lat="48.19672" lon="-2.10187">
        <ele>139</ele>
        <time>2025-05-16T07:55:20Z</time>
      </trkpt>
      <trkpt lat="48.19669" lon="-2.10185">
        <ele>140</ele>
        <time>2025-05-16T07:55:21Z</time>
      </trkpt>
      <trkpt lat="48.19666" lon="-2.10183">
        <ele>140</ele>
        <time>2025-05-16T07:55:22Z</time>
      </trkpt>
      <trkpt lat="48.19663" lon="-2.10181">
        <ele>140</ele>
        <time>2025-05-16T07:55:23Z</time>
      </trkpt>
      <trkpt lat="48.1966" lon="-2.1018">
        <ele>140</ele>
        <time>2025-05-16T07:55:24Z</time>
      </trkpt>
      <trkpt lat="48.19658" lon="-2.1018">
        <ele>140</ele>
        <time>2025-05-16T07:55:25Z</time>
      </trkpt>
      <trkpt lat="48.19656" lon="-2.10179">
        <ele>140</ele>
        <time>2025-05-16T07:55:26Z</time>
      </trkpt>
      <trkpt lat="48.19656" lon="-2.10179">
        <ele>140</ele>
        <time>2025-05-16T07:55:27Z</time>
      </trkpt>
      <trkpt lat="48.19656" lon="-2.10179">
        <ele>140</ele>
        <time>2025-05-16T07:55:28Z</time>
      </trkpt>
      <trkpt lat="48.19656" lon="-2.10179">
        <ele>140</ele>
        <time>2025-05-16T07:55:29Z</time>
      </trkpt>
      <trkpt lat="48.19656" lon="-2.10179">
        <ele>140</ele>
        <time>2025-05-16T07:55:30Z</time>
      </trkpt>
      <trkpt lat="48.19656" lon="-2.10179">
        <ele>140</ele>
        <time>2025-05-16T07:55:31Z</time>
      </trkpt>
      <trkpt lat="48.19656" lon="-2.10179">
        <ele>140</ele>
        <time>2025-05-16T07:55:32Z</time>
      </trkpt>
      <trkpt lat="48.19656" lon="-2.10179">
        <ele>140</ele>
        <time>2025-05-16T07:55:33Z</time>
      </trkpt>
      <trkpt lat="48.19656" lon="-2.10179">
        <ele>140</ele>
        <time>2025-05-16T07:55:34Z</time>
      </trkpt>
      <trkpt lat="48.19656" lon="-2.10179">
        <ele>140</ele>
        <time>2025-05-16T07:55:35Z</time>
      </trkpt>
      <trkpt lat="48.19656" lon="-2.10179">
        <ele>140</ele>
        <time>2025-05-16T07:55:36Z</time>
      </trkpt>
      <trkpt lat="48.19656" lon="-2.10179">
        <ele>140</ele>
        <time>2025-05-16T07:55:37Z</time>
      </trkpt>
      <trkpt lat="48.19656" lon="-2.10179">
        <ele>140</ele>
        <time>2025-05-16T07:55:38Z</time>
      </trkpt>
      <trkpt lat="48.19656" lon="-2.10179">
        <ele>140</ele>
        <time>2025-05-16T07:55:39Z</time>
      </trkpt>
      <trkpt lat="48.19656" lon="-2.10179">
        <ele>140</ele>
        <time>2025-05-16T07:55:40Z</time>
      </trkpt>
      <trkpt lat="48.19656" lon="-2.10179">
        <ele>140</ele>
        <time>2025-05-16T07:55:41Z</time>
      </trkpt>
      <trkpt lat="48.19656" lon="-2.10179">
        <ele>140</ele>
        <time>2025-05-16T07:55:42Z</time>
      </trkpt>
      <trkpt lat="48.19656" lon="-2.10179">
        <ele>140</ele>
        <time>2025-05-16T07:55:43Z</time>
      </trkpt>
      <trkpt lat="48.19656" lon="-2.10179">
        <ele>140</ele>
        <time>2025-05-16T07:55:44Z</time>
      </trkpt>
      <trkpt lat="48.19656" lon="-2.10179">
        <ele>140</ele>
        <time>2025-05-16T07:55:45Z</time>
      </trkpt>
      <trkpt lat="48.19656" lon="-2.10179">
        <ele>140</ele>
        <time>2025-05-16T07:55:46Z</time>
      </trkpt>
      <trkpt lat="48.19656" lon="-2.10179">
        <ele>140</ele>
        <time>2025-05-16T07:55:47Z</time>
      </trkpt>
      <trkpt lat="48.19656" lon="-2.10179">
        <ele>140</ele>
        <time>2025-05-16T07:55:48Z</time>
      </trkpt>
      <trkpt lat="48.19656" lon="-2.10179">
        <ele>140</ele>
        <time>2025-05-16T07:55:49Z</time>
      </trkpt>
      <trkpt lat="48.19656" lon="-2.10179">
        <ele>140</ele>
        <time>2025-05-16T07:55:50Z</time>
      </trkpt>
      <trkpt lat="48.19656" lon="-2.10179">
        <ele>140</ele>
        <time>2025-05-16T07:55:51Z</time>
      </trkpt>
      <trkpt lat="48.19656" lon="-2.10179">
        <ele>140</ele>
        <time>2025-05-16T07:55:52Z</time>
      </trkpt>
      <trkpt lat="48.19656" lon="-2.10179">
        <ele>140</ele>
        <time>2025-05-16T07:55:53Z</time>
      </trkpt>
      <trkpt lat="48.19656" lon="-2.10179">
        <ele>140</ele>
        <time>2025-05-16T07:55:54Z</time>
      </trkpt>
      <trkpt lat="48.19656" lon="-2.10179">
        <ele>140</ele>
        <time>2025-05-16T07:55:55Z</time>
      </trkpt>
      <trkpt lat="48.19656" lon="-2.10179">
        <ele>140</ele>
        <time>2025-05-16T07:55:56Z</time>
      </trkpt>
      <trkpt lat="48.19656" lon="-2.10179">
        <ele>140</ele>
        <time>2025-05-16T07:55:57Z</time>
      </trkpt>
      <trkpt lat="48.19656" lon="-2.10179">
        <ele>140</ele>
        <time>2025-05-16T07:55:58Z</time>
      </trkpt>
      <trkpt lat="48.19656" lon="-2.10179">
        <ele>140</ele>
        <time>2025-05-16T07:55:59Z</time>
      </trkpt>
      <trkpt lat="48.19652" lon="-2.10176">
        <ele>141</ele>
        <time>2025-05-16T07:56:00Z</time>
      </trkpt>
      <trkpt lat="48.19651" lon="-2.10176">
        <ele>141</ele>
        <time>2025-05-16T07:56:01Z</time>
      </trkpt>
      <trkpt lat="48.19649" lon="-2.10174">
        <ele>141</ele>
        <time>2025-05-16T07:56:02Z</time>
      </trkpt>
      <trkpt lat="48.19648" lon="-2.10174">
        <ele>141</ele>
        <time>2025-05-16T07:56:03Z</time>
      </trkpt>
      <trkpt lat="48.19646" lon="-2.10173">
        <ele>141</ele>
        <time>2025-05-16T07:56:04Z</time>
      </trkpt>
      <trkpt lat="48.19644" lon="-2.10173">
        <ele>141</ele>
        <time>2025-05-16T07:56:05Z</time>
      </trkpt>
      <trkpt lat="48.19641" lon="-2.10172">
        <ele>141</ele>
        <time>2025-05-16T07:56:06Z</time>
      </trkpt>
      <trkpt lat="48.19638" lon="-2.10172">
        <ele>141</ele>
        <time>2025-05-16T07:56:07Z</time>
      </trkpt>
      <trkpt lat="48.19635" lon="-2.10171">
        <ele>141</ele>
        <time>2025-05-16T07:56:08Z</time>
      </trkpt>
      <trkpt lat="48.19632" lon="-2.1017">
        <ele>141</ele>
        <time>2025-05-16T07:56:09Z</time>
      </trkpt>
      <trkpt lat="48.19628" lon="-2.10169">
        <ele>141</ele>
        <time>2025-05-16T07:56:10Z</time>
      </trkpt>
      <trkpt lat="48.19625" lon="-2.10168">
        <ele>141</ele>
        <time>2025-05-16T07:56:11Z</time>
      </trkpt>
      <trkpt lat="48.19622" lon="-2.10168">
        <ele>141</ele>
        <time>2025-05-16T07:56:12Z</time>
      </trkpt>
      <trkpt lat="48.19619" lon="-2.10167">
        <ele>141</ele>
        <time>2025-05-16T07:56:13Z</time>
      </trkpt>
      <trkpt lat="48.19616" lon="-2.10166">
        <ele>141</ele>
        <time>2025-05-16T07:56:14Z</time>
      </trkpt>
      <trkpt lat="48.19613" lon="-2.10165">
        <ele>141</ele>
        <time>2025-05-16T07:56:15Z</time>
      </trkpt>
      <trkpt lat="48.19609" lon="-2.10165">
        <ele>141</ele>
        <time>2025-05-16T07:56:16Z</time>
      </trkpt>
      <trkpt lat="48.19606" lon="-2.10164">
        <ele>142</ele>
        <time>2025-05-16T07:56:17Z</time>
      </trkpt>
      <trkpt lat="48.19603" lon="-2.10163">
        <ele>142</ele>
        <time>2025-05-16T07:56:18Z</time>
      </trkpt>
      <trkpt lat="48.196" lon="-2.10163">
        <ele>142</ele>
        <time>2025-05-16T07:56:19Z</time>
      </trkpt>
      <trkpt lat="48.19597" lon="-2.10162">
        <ele>143</ele>
        <time>2025-05-16T07:56:20Z</time>
      </trkpt>
      <trkpt lat="48.19594" lon="-2.10162">
        <ele>143</ele>
        <time>2025-05-16T07:56:21Z</time>
      </trkpt>
      <trkpt lat="48.19591" lon="-2.10161">
        <ele>143</ele>
        <time>2025-05-16T07:56:22Z</time>
      </trkpt>
      <trkpt lat="48.19588" lon="-2.1016">
        <ele>144</ele>
        <time>2025-05-16T07:56:23Z</time>
      </trkpt>
      <trkpt lat="48.19585" lon="-2.10159">
        <ele>144</ele>
        <time>2025-05-16T07:56:24Z</time>
      </trkpt>
      <trkpt lat="48.19582" lon="-2.10159">
        <ele>144</ele>
        <time>2025-05-16T07:56:25Z</time>
      </trkpt>
      <trkpt lat="48.19579" lon="-2.10158">
        <ele>144</ele>
        <time>2025-05-16T07:56:26Z</time>
      </trkpt>
      <trkpt lat="48.19576" lon="-2.10158">
        <ele>144</ele>
        <time>2025-05-16T07:56:27Z</time>
      </trkpt>
      <trkpt lat="48.19573" lon="-2.10157">
        <ele>145</ele>
        <time>2025-05-16T07:56:28Z</time>
      </trkpt>
      <trkpt lat="48.1957" lon="-2.10157">
        <ele>145</ele>
        <time>2025-05-16T07:56:29Z</time>
      </trkpt>
      <trkpt lat="48.19566" lon="-2.10156">
        <ele>146</ele>
        <time>2025-05-16T07:56:30Z</time>
      </trkpt>
      <trkpt lat="48.19563" lon="-2.10155">
        <ele>147</ele>
        <time>2025-05-16T07:56:31Z</time>
      </trkpt>
      <trkpt lat="48.1956" lon="-2.10155">
        <ele>147</ele>
        <time>2025-05-16T07:56:32Z</time>
      </trkpt>
      <trkpt lat="48.19557" lon="-2.10155">
        <ele>147</ele>
        <time>2025-05-16T07:56:33Z</time>
      </trkpt>
      <trkpt lat="48.19554" lon="-2.10155">
        <ele>146</ele>
        <time>2025-05-16T07:56:34Z</time>
      </trkpt>
      <trkpt lat="48.19551" lon="-2.10154">
        <ele>146</ele>
        <time>2025-05-16T07:56:35Z</time>
      </trkpt>
      <trkpt lat="48.19548" lon="-2.10153">
        <ele>147</ele>
        <time>2025-05-16T07:56:36Z</time>
      </trkpt>
      <trkpt lat="48.19545" lon="-2.10152">
        <ele>147</ele>
        <time>2025-05-16T07:56:37Z</time>
      </trkpt>
      <trkpt lat="48.19542" lon="-2.10151">
        <ele>147</ele>
        <time>2025-05-16T07:56:38Z</time>
      </trkpt>
      <trkpt lat="48.19539" lon="-2.10151">
        <ele>147</ele>
        <time>2025-05-16T07:56:39Z</time>
      </trkpt>
      <trkpt lat="48.19536" lon="-2.1015">
        <ele>148</ele>
        <time>2025-05-16T07:56:40Z</time>
      </trkpt>
      <trkpt lat="48.19533" lon="-2.10149">
        <ele>148</ele>
        <time>2025-05-16T07:56:41Z</time>
      </trkpt>
      <trkpt lat="48.1953" lon="-2.10147">
        <ele>148</ele>
        <time>2025-05-16T07:56:42Z</time>
      </trkpt>
      <trkpt lat="48.19527" lon="-2.10147">
        <ele>147</ele>
        <time>2025-05-16T07:56:43Z</time>
      </trkpt>
      <trkpt lat="48.19524" lon="-2.10146">
        <ele>147</ele>
        <time>2025-05-16T07:56:44Z</time>
      </trkpt>
      <trkpt lat="48.19521" lon="-2.10146">
        <ele>146</ele>
        <time>2025-05-16T07:56:45Z</time>
      </trkpt>
      <trkpt lat="48.19518" lon="-2.10145">
        <ele>145</ele>
        <time>2025-05-16T07:56:46Z</time>
      </trkpt>
      <trkpt lat="48.19515" lon="-2.10144">
        <ele>145</ele>
        <time>2025-05-16T07:56:47Z</time>
      </trkpt>
      <trkpt lat="48.19511" lon="-2.10143">
        <ele>145</ele>
        <time>2025-05-16T07:56:48Z</time>
      </trkpt>
      <trkpt lat="48.19508" lon="-2.10142">
        <ele>145</ele>
        <time>2025-05-16T07:56:49Z</time>
      </trkpt>
      <trkpt lat="48.19505" lon="-2.10142">
        <ele>145</ele>
        <time>2025-05-16T07:56:50Z</time>
      </trkpt>
      <trkpt lat="48.19501" lon="-2.10141">
        <ele>145</ele>
        <time>2025-05-16T07:56:51Z</time>
      </trkpt>
      <trkpt lat="48.19498" lon="-2.10141">
        <ele>145</ele>
        <time>2025-05-16T07:56:52Z</time>
      </trkpt>
      <trkpt lat="48.19494" lon="-2.10141">
        <ele>145</ele>
        <time>2025-05-16T07:56:53Z</time>
      </trkpt>
      <trkpt lat="48.19491" lon="-2.1014">
        <ele>145</ele>
        <time>2025-05-16T07:56:54Z</time>
      </trkpt>
      <trkpt lat="48.19488" lon="-2.10141">
        <ele>145</ele>
        <time>2025-05-16T07:56:55Z</time>
      </trkpt>
      <trkpt lat="48.19484" lon="-2.10141">
        <ele>145</ele>
        <time>2025-05-16T07:56:56Z</time>
      </trkpt>
      <trkpt lat="48.19481" lon="-2.10141">
        <ele>145</ele>
        <time>2025-05-16T07:56:57Z</time>
      </trkpt>
      <trkpt lat="48.19478" lon="-2.10141">
        <ele>145</ele>
        <time>2025-05-16T07:56:58Z</time>
      </trkpt>
      <trkpt lat="48.19475" lon="-2.10141">
        <ele>145</ele>
        <time>2025-05-16T07:56:59Z</time>
      </trkpt>
      <trkpt lat="48.19472" lon="-2.10141">
        <ele>145</ele>
        <time>2025-05-16T07:57:00Z</time>
      </trkpt>
      <trkpt lat="48.19468" lon="-2.10141">
        <ele>145</ele>
        <time>2025-05-16T07:57:01Z</time>
      </trkpt>
      <trkpt lat="48.19465" lon="-2.10142">
        <ele>145</ele>
        <time>2025-05-16T07:57:02Z</time>
      </trkpt>
      <trkpt lat="48.19462" lon="-2.10142">
        <ele>145</ele>
        <time>2025-05-16T07:57:03Z</time>
      </trkpt>
      <trkpt lat="48.19459" lon="-2.10143">
        <ele>146</ele>
        <time>2025-05-16T07:57:04Z</time>
      </trkpt>
      <trkpt lat="48.19455" lon="-2.10143">
        <ele>146</ele>
        <time>2025-05-16T07:57:05Z</time>
      </trkpt>
      <trkpt lat="48.19452" lon="-2.10143">
        <ele>146</ele>
        <time>2025-05-16T07:57:06Z</time>
      </trkpt>
      <trkpt lat="48.19448" lon="-2.10143">
        <ele>146</ele>
        <time>2025-05-16T07:57:07Z</time>
      </trkpt>
      <trkpt lat="48.19445" lon="-2.10143">
        <ele>146</ele>
        <time>2025-05-16T07:57:08Z</time>
      </trkpt>
      <trkpt lat="48.19442" lon="-2.10143">
        <ele>146</ele>
        <time>2025-05-16T07:57:09Z</time>
      </trkpt>
      <trkpt lat="48.19439" lon="-2.10142">
        <ele>146</ele>
        <time>2025-05-16T07:57:10Z</time>
      </trkpt>
      <trkpt lat="48.19436" lon="-2.10142">
        <ele>146</ele>
        <time>2025-05-16T07:57:11Z</time>
      </trkpt>
      <trkpt lat="48.19433" lon="-2.10142">
        <ele>147</ele>
        <time>2025-05-16T07:57:12Z</time>
      </trkpt>
      <trkpt lat="48.19431" lon="-2.10143">
        <ele>147</ele>
        <time>2025-05-16T07:57:13Z</time>
      </trkpt>
      <trkpt lat="48.19428" lon="-2.10142">
        <ele>147</ele>
        <time>2025-05-16T07:57:14Z</time>
      </trkpt>
      <trkpt lat="48.19425" lon="-2.10142">
        <ele>147</ele>
        <time>2025-05-16T07:57:15Z</time>
      </trkpt>
      <trkpt lat="48.19422" lon="-2.10142">
        <ele>147</ele>
        <time>2025-05-16T07:57:16Z</time>
      </trkpt>
      <trkpt lat="48.19419" lon="-2.10141">
        <ele>147</ele>
        <time>2025-05-16T07:57:17Z</time>
      </trkpt>
      <trkpt lat="48.19416" lon="-2.1014">
        <ele>147</ele>
        <time>2025-05-16T07:57:18Z</time>
      </trkpt>
      <trkpt lat="48.19413" lon="-2.1014">
        <ele>147</ele>
        <time>2025-05-16T07:57:19Z</time>
      </trkpt>
      <trkpt lat="48.19411" lon="-2.10139">
        <ele>147</ele>
        <time>2025-05-16T07:57:20Z</time>
      </trkpt>
      <trkpt lat="48.19408" lon="-2.10137">
        <ele>147</ele>
        <time>2025-05-16T07:57:21Z</time>
      </trkpt>
      <trkpt lat="48.19405" lon="-2.10136">
        <ele>147</ele>
        <time>2025-05-16T07:57:22Z</time>
      </trkpt>
      <trkpt lat="48.19403" lon="-2.10135">
        <ele>147</ele>
        <time>2025-05-16T07:57:23Z</time>
      </trkpt>
      <trkpt lat="48.194" lon="-2.10134">
        <ele>147</ele>
        <time>2025-05-16T07:57:24Z</time>
      </trkpt>
      <trkpt lat="48.19397" lon="-2.10133">
        <ele>147</ele>
        <time>2025-05-16T07:57:25Z</time>
      </trkpt>
      <trkpt lat="48.19395" lon="-2.10131">
        <ele>148</ele>
        <time>2025-05-16T07:57:26Z</time>
      </trkpt>
      <trkpt lat="48.19393" lon="-2.10129">
        <ele>148</ele>
        <time>2025-05-16T07:57:27Z</time>
      </trkpt>
      <trkpt lat="48.1939" lon="-2.10128">
        <ele>148</ele>
        <time>2025-05-16T07:57:28Z</time>
      </trkpt>
      <trkpt lat="48.19388" lon="-2.10126">
        <ele>148</ele>
        <time>2025-05-16T07:57:29Z</time>
      </trkpt>
      <trkpt lat="48.19386" lon="-2.10125">
        <ele>148</ele>
        <time>2025-05-16T07:57:30Z</time>
      </trkpt>
      <trkpt lat="48.19384" lon="-2.10123">
        <ele>148</ele>
        <time>2025-05-16T07:57:31Z</time>
      </trkpt>
      <trkpt lat="48.19382" lon="-2.10122">
        <ele>149</ele>
        <time>2025-05-16T07:57:32Z</time>
      </trkpt>
      <trkpt lat="48.1938" lon="-2.10121">
        <ele>149</ele>
        <time>2025-05-16T07:57:33Z</time>
      </trkpt>
      <trkpt lat="48.19377" lon="-2.10119">
        <ele>149</ele>
        <time>2025-05-16T07:57:34Z</time>
      </trkpt>
      <trkpt lat="48.19375" lon="-2.10118">
        <ele>149</ele>
        <time>2025-05-16T07:57:35Z</time>
      </trkpt>
      <trkpt lat="48.19374" lon="-2.10116">
        <ele>149</ele>
        <time>2025-05-16T07:57:36Z</time>
      </trkpt>
      <trkpt lat="48.19372" lon="-2.10114">
        <ele>150</ele>
        <time>2025-05-16T07:57:37Z</time>
      </trkpt>
      <trkpt lat="48.1937" lon="-2.10113">
        <ele>150</ele>
        <time>2025-05-16T07:57:38Z</time>
      </trkpt>
      <trkpt lat="48.19368" lon="-2.10111">
        <ele>150</ele>
        <time>2025-05-16T07:57:39Z</time>
      </trkpt>
      <trkpt lat="48.19366" lon="-2.10109">
        <ele>150</ele>
        <time>2025-05-16T07:57:40Z</time>
      </trkpt>
      <trkpt lat="48.19364" lon="-2.10108">
        <ele>150</ele>
        <time>2025-05-16T07:57:41Z</time>
      </trkpt>
      <trkpt lat="48.19362" lon="-2.10106">
        <ele>151</ele>
        <time>2025-05-16T07:57:42Z</time>
      </trkpt>
      <trkpt lat="48.19361" lon="-2.10104">
        <ele>151</ele>
        <time>2025-05-16T07:57:43Z</time>
      </trkpt>
      <trkpt lat="48.19359" lon="-2.10102">
        <ele>151</ele>
        <time>2025-05-16T07:57:44Z</time>
      </trkpt>
      <trkpt lat="48.19357" lon="-2.10101">
        <ele>151</ele>
        <time>2025-05-16T07:57:45Z</time>
      </trkpt>
      <trkpt lat="48.19355" lon="-2.101">
        <ele>151</ele>
        <time>2025-05-16T07:57:46Z</time>
      </trkpt>
      <trkpt lat="48.19352" lon="-2.10098">
        <ele>151</ele>
        <time>2025-05-16T07:57:47Z</time>
      </trkpt>
      <trkpt lat="48.1935" lon="-2.10097">
        <ele>151</ele>
        <time>2025-05-16T07:57:48Z</time>
      </trkpt>
      <trkpt lat="48.19348" lon="-2.10095">
        <ele>151</ele>
        <time>2025-05-16T07:57:49Z</time>
      </trkpt>
      <trkpt lat="48.19346" lon="-2.10093">
        <ele>151</ele>
        <time>2025-05-16T07:57:50Z</time>
      </trkpt>
      <trkpt lat="48.19344" lon="-2.10092">
        <ele>151</ele>
        <time>2025-05-16T07:57:51Z</time>
      </trkpt>
      <trkpt lat="48.19342" lon="-2.1009">
        <ele>151</ele>
        <time>2025-05-16T07:57:52Z</time>
      </trkpt>
      <trkpt lat="48.1934" lon="-2.10088">
        <ele>151</ele>
        <time>2025-05-16T07:57:53Z</time>
      </trkpt>
      <trkpt lat="48.19338" lon="-2.10086">
        <ele>151</ele>
        <time>2025-05-16T07:57:54Z</time>
      </trkpt>
      <trkpt lat="48.19337" lon="-2.10085">
        <ele>151</ele>
        <time>2025-05-16T07:57:55Z</time>
      </trkpt>
      <trkpt lat="48.19335" lon="-2.10083">
        <ele>151</ele>
        <time>2025-05-16T07:57:56Z</time>
      </trkpt>
      <trkpt lat="48.19333" lon="-2.10082">
        <ele>151</ele>
        <time>2025-05-16T07:57:57Z</time>
      </trkpt>
      <trkpt lat="48.19331" lon="-2.1008">
        <ele>152</ele>
        <time>2025-05-16T07:57:58Z</time>
      </trkpt>
      <trkpt lat="48.19329" lon="-2.10078">
        <ele>151</ele>
        <time>2025-05-16T07:57:59Z</time>
      </trkpt>
      <trkpt lat="48.19327" lon="-2.10076">
        <ele>151</ele>
        <time>2025-05-16T07:58:00Z</time>
      </trkpt>
      <trkpt lat="48.19325" lon="-2.10075">
        <ele>152</ele>
        <time>2025-05-16T07:58:01Z</time>
      </trkpt>
      <trkpt lat="48.19323" lon="-2.10073">
        <ele>152</ele>
        <time>2025-05-16T07:58:02Z</time>
      </trkpt>
      <trkpt lat="48.19321" lon="-2.10072">
        <ele>152</ele>
        <time>2025-05-16T07:58:03Z</time>
      </trkpt>
      <trkpt lat="48.19319" lon="-2.1007">
        <ele>152</ele>
        <time>2025-05-16T07:58:04Z</time>
      </trkpt>
      <trkpt lat="48.19317" lon="-2.10068">
        <ele>152</ele>
        <time>2025-05-16T07:58:05Z</time>
      </trkpt>
      <trkpt lat="48.19315" lon="-2.10066">
        <ele>152</ele>
        <time>2025-05-16T07:58:06Z</time>
      </trkpt>
      <trkpt lat="48.19312" lon="-2.10065">
        <ele>152</ele>
        <time>2025-05-16T07:58:07Z</time>
      </trkpt>
      <trkpt lat="48.1931" lon="-2.10063">
        <ele>153</ele>
        <time>2025-05-16T07:58:08Z</time>
      </trkpt>
      <trkpt lat="48.19308" lon="-2.10062">
        <ele>153</ele>
        <time>2025-05-16T07:58:09Z</time>
      </trkpt>
      <trkpt lat="48.19306" lon="-2.1006">
        <ele>153</ele>
        <time>2025-05-16T07:58:10Z</time>
      </trkpt>
      <trkpt lat="48.19303" lon="-2.10059">
        <ele>154</ele>
        <time>2025-05-16T07:58:11Z</time>
      </trkpt>
      <trkpt lat="48.19301" lon="-2.10057">
        <ele>154</ele>
        <time>2025-05-16T07:58:12Z</time>
      </trkpt>
      <trkpt lat="48.19298" lon="-2.10055">
        <ele>154</ele>
        <time>2025-05-16T07:58:13Z</time>
      </trkpt>
      <trkpt lat="48.19296" lon="-2.10053">
        <ele>154</ele>
        <time>2025-05-16T07:58:14Z</time>
      </trkpt>
      <trkpt lat="48.19294" lon="-2.10051">
        <ele>154</ele>
        <time>2025-05-16T07:58:15Z</time>
      </trkpt>
      <trkpt lat="48.19291" lon="-2.10049">
        <ele>154</ele>
        <time>2025-05-16T07:58:16Z</time>
      </trkpt>
      <trkpt lat="48.19289" lon="-2.10047">
        <ele>154</ele>
        <time>2025-05-16T07:58:17Z</time>
      </trkpt>
      <trkpt lat="48.19287" lon="-2.10045">
        <ele>153</ele>
        <time>2025-05-16T07:58:18Z</time>
      </trkpt>
      <trkpt lat="48.19285" lon="-2.10043">
        <ele>154</ele>
        <time>2025-05-16T07:58:19Z</time>
      </trkpt>
      <trkpt lat="48.19282" lon="-2.10041">
        <ele>154</ele>
        <time>2025-05-16T07:58:20Z</time>
      </trkpt>
      <trkpt lat="48.1928" lon="-2.10039">
        <ele>154</ele>
        <time>2025-05-16T07:58:21Z</time>
      </trkpt>
      <trkpt lat="48.19277" lon="-2.10036">
        <ele>153</ele>
        <time>2025-05-16T07:58:22Z</time>
      </trkpt>
      <trkpt lat="48.19274" lon="-2.10034">
        <ele>153</ele>
        <time>2025-05-16T07:58:23Z</time>
      </trkpt>
      <trkpt lat="48.19271" lon="-2.10032">
        <ele>153</ele>
        <time>2025-05-16T07:58:24Z</time>
      </trkpt>
      <trkpt lat="48.19268" lon="-2.10029">
        <ele>153</ele>
        <time>2025-05-16T07:58:25Z</time>
      </trkpt>
      <trkpt lat="48.19265" lon="-2.10027">
        <ele>153</ele>
        <time>2025-05-16T07:58:26Z</time>
      </trkpt>
      <trkpt lat="48.19262" lon="-2.10024">
        <ele>153</ele>
        <time>2025-05-16T07:58:27Z</time>
      </trkpt>
      <trkpt lat="48.19259" lon="-2.10021">
        <ele>153</ele>
        <time>2025-05-16T07:58:28Z</time>
      </trkpt>
      <trkpt lat="48.19255" lon="-2.10018">
        <ele>153</ele>
        <time>2025-05-16T07:58:29Z</time>
      </trkpt>
      <trkpt lat="48.19251" lon="-2.10015">
        <ele>152</ele>
        <time>2025-05-16T07:58:30Z</time>
      </trkpt>
      <trkpt lat="48.19247" lon="-2.10012">
        <ele>151</ele>
        <time>2025-05-16T07:58:31Z</time>
      </trkpt>
      <trkpt lat="48.19242" lon="-2.10008">
        <ele>151</ele>
        <time>2025-05-16T07:58:32Z</time>
      </trkpt>
      <trkpt lat="48.19238" lon="-2.10005">
        <ele>151</ele>
        <time>2025-05-16T07:58:33Z</time>
      </trkpt>
      <trkpt lat="48.19233" lon="-2.10001">
        <ele>151</ele>
        <time>2025-05-16T07:58:34Z</time>
      </trkpt>
      <trkpt lat="48.19228" lon="-2.09997">
        <ele>150</ele>
        <time>2025-05-16T07:58:35Z</time>
      </trkpt>
      <trkpt lat="48.19223" lon="-2.09992">
        <ele>150</ele>
        <time>2025-05-16T07:58:36Z</time>
      </trkpt>
      <trkpt lat="48.19217" lon="-2.09989">
        <ele>150</ele>
        <time>2025-05-16T07:58:37Z</time>
      </trkpt>
      <trkpt lat="48.19211" lon="-2.09986">
        <ele>150</ele>
        <time>2025-05-16T07:58:38Z</time>
      </trkpt>
      <trkpt lat="48.19204" lon="-2.09983">
        <ele>149</ele>
        <time>2025-05-16T07:58:39Z</time>
      </trkpt>
      <trkpt lat="48.19198" lon="-2.09981">
        <ele>149</ele>
        <time>2025-05-16T07:58:40Z</time>
      </trkpt>
      <trkpt lat="48.19191" lon="-2.0998">
        <ele>149</ele>
        <time>2025-05-16T07:58:41Z</time>
      </trkpt>
      <trkpt lat="48.19184" lon="-2.09979">
        <ele>149</ele>
        <time>2025-05-16T07:58:42Z</time>
      </trkpt>
      <trkpt lat="48.19178" lon="-2.09981">
        <ele>149</ele>
        <time>2025-05-16T07:58:43Z</time>
      </trkpt>
      <trkpt lat="48.19171" lon="-2.09982">
        <ele>148</ele>
        <time>2025-05-16T07:58:44Z</time>
      </trkpt>
      <trkpt lat="48.19164" lon="-2.09983">
        <ele>148</ele>
        <time>2025-05-16T07:58:45Z</time>
      </trkpt>
      <trkpt lat="48.19158" lon="-2.09985">
        <ele>148</ele>
        <time>2025-05-16T07:58:46Z</time>
      </trkpt>
      <trkpt lat="48.19152" lon="-2.09988">
        <ele>147</ele>
        <time>2025-05-16T07:58:47Z</time>
      </trkpt>
      <trkpt lat="48.19145" lon="-2.09991">
        <ele>147</ele>
        <time>2025-05-16T07:58:48Z</time>
      </trkpt>
      <trkpt lat="48.19139" lon="-2.09993">
        <ele>148</ele>
        <time>2025-05-16T07:58:49Z</time>
      </trkpt>
      <trkpt lat="48.19133" lon="-2.09997">
        <ele>148</ele>
        <time>2025-05-16T07:58:50Z</time>
      </trkpt>
      <trkpt lat="48.19128" lon="-2.1">
        <ele>148</ele>
        <time>2025-05-16T07:58:51Z</time>
      </trkpt>
      <trkpt lat="48.19122" lon="-2.10003">
        <ele>148</ele>
        <time>2025-05-16T07:58:52Z</time>
      </trkpt>
      <trkpt lat="48.19116" lon="-2.10005">
        <ele>148</ele>
        <time>2025-05-16T07:58:53Z</time>
      </trkpt>
      <trkpt lat="48.1911" lon="-2.10008">
        <ele>148</ele>
        <time>2025-05-16T07:58:54Z</time>
      </trkpt>
      <trkpt lat="48.19104" lon="-2.10012">
        <ele>149</ele>
        <time>2025-05-16T07:58:55Z</time>
      </trkpt>
      <trkpt lat="48.19098" lon="-2.10014">
        <ele>149</ele>
        <time>2025-05-16T07:58:56Z</time>
      </trkpt>
      <trkpt lat="48.19092" lon="-2.10017">
        <ele>149</ele>
        <time>2025-05-16T07:58:57Z</time>
      </trkpt>
      <trkpt lat="48.19086" lon="-2.10019">
        <ele>148</ele>
        <time>2025-05-16T07:58:58Z</time>
      </trkpt>
      <trkpt lat="48.1908" lon="-2.10022">
        <ele>148</ele>
        <time>2025-05-16T07:58:59Z</time>
      </trkpt>
      <trkpt lat="48.19074" lon="-2.10024">
        <ele>147</ele>
        <time>2025-05-16T07:59:00Z</time>
      </trkpt>
      <trkpt lat="48.19068" lon="-2.10024">
        <ele>147</ele>
        <time>2025-05-16T07:59:01Z</time>
      </trkpt>
      <trkpt lat="48.19062" lon="-2.10024">
        <ele>147</ele>
        <time>2025-05-16T07:59:02Z</time>
      </trkpt>
      <trkpt lat="48.19056" lon="-2.10024">
        <ele>147</ele>
        <time>2025-05-16T07:59:03Z</time>
      </trkpt>
      <trkpt lat="48.19049" lon="-2.10024">
        <ele>147</ele>
        <time>2025-05-16T07:59:04Z</time>
      </trkpt>
      <trkpt lat="48.19043" lon="-2.10024">
        <ele>147</ele>
        <time>2025-05-16T07:59:05Z</time>
      </trkpt>
      <trkpt lat="48.19036" lon="-2.10023">
        <ele>146</ele>
        <time>2025-05-16T07:59:06Z</time>
      </trkpt>
      <trkpt lat="48.19029" lon="-2.10022">
        <ele>146</ele>
        <time>2025-05-16T07:59:07Z</time>
      </trkpt>
      <trkpt lat="48.19023" lon="-2.10021">
        <ele>146</ele>
        <time>2025-05-16T07:59:08Z</time>
      </trkpt>
      <trkpt lat="48.19016" lon="-2.1002">
        <ele>146</ele>
        <time>2025-05-16T07:59:09Z</time>
      </trkpt>
      <trkpt lat="48.1901" lon="-2.1002">
        <ele>146</ele>
        <time>2025-05-16T07:59:10Z</time>
      </trkpt>
      <trkpt lat="48.19003" lon="-2.1002">
        <ele>146</ele>
        <time>2025-05-16T07:59:11Z</time>
      </trkpt>
      <trkpt lat="48.18997" lon="-2.10019">
        <ele>146</ele>
        <time>2025-05-16T07:59:12Z</time>
      </trkpt>
      <trkpt lat="48.1899" lon="-2.10019">
        <ele>146</ele>
        <time>2025-05-16T07:59:13Z</time>
      </trkpt>
      <trkpt lat="48.18983" lon="-2.10018">
        <ele>145</ele>
        <time>2025-05-16T07:59:14Z</time>
      </trkpt>
      <trkpt lat="48.18977" lon="-2.10017">
        <ele>145</ele>
        <time>2025-05-16T07:59:15Z</time>
      </trkpt>
      <trkpt lat="48.18971" lon="-2.10017">
        <ele>145</ele>
        <time>2025-05-16T07:59:16Z</time>
      </trkpt>
      <trkpt lat="48.18964" lon="-2.10016">
        <ele>145</ele>
        <time>2025-05-16T07:59:17Z</time>
      </trkpt>
      <trkpt lat="48.18958" lon="-2.10016">
        <ele>144</ele>
        <time>2025-05-16T07:59:18Z</time>
      </trkpt>
      <trkpt lat="48.18951" lon="-2.10015">
        <ele>144</ele>
        <time>2025-05-16T07:59:19Z</time>
      </trkpt>
      <trkpt lat="48.18944" lon="-2.10014">
        <ele>144</ele>
        <time>2025-05-16T07:59:20Z</time>
      </trkpt>
      <trkpt lat="48.18937" lon="-2.10014">
        <ele>143</ele>
        <time>2025-05-16T07:59:21Z</time>
      </trkpt>
      <trkpt lat="48.18929" lon="-2.10013">
        <ele>143</ele>
        <time>2025-05-16T07:59:22Z</time>
      </trkpt>
      <trkpt lat="48.18922" lon="-2.10013">
        <ele>143</ele>
        <time>2025-05-16T07:59:23Z</time>
      </trkpt>
      <trkpt lat="48.18915" lon="-2.10012">
        <ele>143</ele>
        <time>2025-05-16T07:59:24Z</time>
      </trkpt>
      <trkpt lat="48.18907" lon="-2.10011">
        <ele>143</ele>
        <time>2025-05-16T07:59:25Z</time>
      </trkpt>
      <trkpt lat="48.18899" lon="-2.1001">
        <ele>143</ele>
        <time>2025-05-16T07:59:26Z</time>
      </trkpt>
      <trkpt lat="48.18892" lon="-2.1001">
        <ele>144</ele>
        <time>2025-05-16T07:59:27Z</time>
      </trkpt>
      <trkpt lat="48.18884" lon="-2.1001">
        <ele>144</ele>
        <time>2025-05-16T07:59:28Z</time>
      </trkpt>
      <trkpt lat="48.18876" lon="-2.1001">
        <ele>144</ele>
        <time>2025-05-16T07:59:29Z</time>
      </trkpt>
      <trkpt lat="48.18869" lon="-2.10009">
        <ele>143</ele>
        <time>2025-05-16T07:59:30Z</time>
      </trkpt>
      <trkpt lat="48.18861" lon="-2.1001">
        <ele>143</ele>
        <time>2025-05-16T07:59:31Z</time>
      </trkpt>
      <trkpt lat="48.18854" lon="-2.1001">
        <ele>143</ele>
        <time>2025-05-16T07:59:32Z</time>
      </trkpt>
      <trkpt lat="48.18847" lon="-2.1001">
        <ele>143</ele>
        <time>2025-05-16T07:59:33Z</time>
      </trkpt>
      <trkpt lat="48.1884" lon="-2.1001">
        <ele>143</ele>
        <time>2025-05-16T07:59:34Z</time>
      </trkpt>
      <trkpt lat="48.18833" lon="-2.10011">
        <ele>143</ele>
        <time>2025-05-16T07:59:35Z</time>
      </trkpt>
      <trkpt lat="48.18826" lon="-2.10011">
        <ele>144</ele>
        <time>2025-05-16T07:59:36Z</time>
      </trkpt>
      <trkpt lat="48.18821" lon="-2.10012">
        <ele>144</ele>
        <time>2025-05-16T07:59:37Z</time>
      </trkpt>
      <trkpt lat="48.18815" lon="-2.10012">
        <ele>145</ele>
        <time>2025-05-16T07:59:38Z</time>
      </trkpt>
      <trkpt lat="48.1881" lon="-2.10012">
        <ele>145</ele>
        <time>2025-05-16T07:59:39Z</time>
      </trkpt>
      <trkpt lat="48.18804" lon="-2.10012">
        <ele>146</ele>
        <time>2025-05-16T07:59:40Z</time>
      </trkpt>
      <trkpt lat="48.18799" lon="-2.10013">
        <ele>146</ele>
        <time>2025-05-16T07:59:41Z</time>
      </trkpt>
      <trkpt lat="48.18794" lon="-2.10013">
        <ele>146</ele>
        <time>2025-05-16T07:59:42Z</time>
      </trkpt>
      <trkpt lat="48.18789" lon="-2.10013">
        <ele>146</ele>
        <time>2025-05-16T07:59:43Z</time>
      </trkpt>
      <trkpt lat="48.18784" lon="-2.10014">
        <ele>146</ele>
        <time>2025-05-16T07:59:44Z</time>
      </trkpt>
      <trkpt lat="48.18778" lon="-2.10014">
        <ele>146</ele>
        <time>2025-05-16T07:59:45Z</time>
      </trkpt>
      <trkpt lat="48.18773" lon="-2.10015">
        <ele>146</ele>
        <time>2025-05-16T07:59:46Z</time>
      </trkpt>
      <trkpt lat="48.18768" lon="-2.10015">
        <ele>146</ele>
        <time>2025-05-16T07:59:47Z</time>
      </trkpt>
      <trkpt lat="48.18763" lon="-2.10015">
        <ele>146</ele>
        <time>2025-05-16T07:59:48Z</time>
      </trkpt>
      <trkpt lat="48.18759" lon="-2.10016">
        <ele>147</ele>
        <time>2025-05-16T07:59:49Z</time>
      </trkpt>
      <trkpt lat="48.18754" lon="-2.10016">
        <ele>147</ele>
        <time>2025-05-16T07:59:50Z</time>
      </trkpt>
      <trkpt lat="48.18749" lon="-2.10016">
        <ele>147</ele>
        <time>2025-05-16T07:59:51Z</time>
      </trkpt>
      <trkpt lat="48.18745" lon="-2.10017">
        <ele>147</ele>
        <time>2025-05-16T07:59:52Z</time>
      </trkpt>
      <trkpt lat="48.18741" lon="-2.10017">
        <ele>147</ele>
        <time>2025-05-16T07:59:53Z</time>
      </trkpt>
      <trkpt lat="48.18736" lon="-2.10017">
        <ele>147</ele>
        <time>2025-05-16T07:59:54Z</time>
      </trkpt>
      <trkpt lat="48.18732" lon="-2.10017">
        <ele>147</ele>
        <time>2025-05-16T07:59:55Z</time>
      </trkpt>
      <trkpt lat="48.18727" lon="-2.10017">
        <ele>147</ele>
        <time>2025-05-16T07:59:56Z</time>
      </trkpt>
      <trkpt lat="48.18723" lon="-2.10018">
        <ele>147</ele>
        <time>2025-05-16T07:59:57Z</time>
      </trkpt>
      <trkpt lat="48.18719" lon="-2.10018">
        <ele>147</ele>
        <time>2025-05-16T07:59:58Z</time>
      </trkpt>
      <trkpt lat="48.18715" lon="-2.10018">
        <ele>147</ele>
        <time>2025-05-16T07:59:59Z</time>
      </trkpt>
      <trkpt lat="48.18711" lon="-2.10018">
        <ele>148</ele>
        <time>2025-05-16T08:00:00Z</time>
      </trkpt>
      <trkpt lat="48.18707" lon="-2.10018">
        <ele>148</ele>
        <time>2025-05-16T08:00:01Z</time>
      </trkpt>
      <trkpt lat="48.18703" lon="-2.10018">
        <ele>148</ele>
        <time>2025-05-16T08:00:02Z</time>
      </trkpt>
      <trkpt lat="48.187" lon="-2.10019">
        <ele>148</ele>
        <time>2025-05-16T08:00:03Z</time>
      </trkpt>
      <trkpt lat="48.18696" lon="-2.10019">
        <ele>148</ele>
        <time>2025-05-16T08:00:04Z</time>
      </trkpt>
      <trkpt lat="48.18692" lon="-2.10019">
        <ele>147</ele>
        <time>2025-05-16T08:00:05Z</time>
      </trkpt>
      <trkpt lat="48.18688" lon="-2.1002">
        <ele>147</ele>
        <time>2025-05-16T08:00:06Z</time>
      </trkpt>
      <trkpt lat="48.18684" lon="-2.1002">
        <ele>148</ele>
        <time>2025-05-16T08:00:07Z</time>
      </trkpt>
      <trkpt lat="48.18681" lon="-2.1002">
        <ele>148</ele>
        <time>2025-05-16T08:00:08Z</time>
      </trkpt>
      <trkpt lat="48.18677" lon="-2.1002">
        <ele>148</ele>
        <time>2025-05-16T08:00:09Z</time>
      </trkpt>
      <trkpt lat="48.18673" lon="-2.10021">
        <ele>148</ele>
        <time>2025-05-16T08:00:10Z</time>
      </trkpt>
      <trkpt lat="48.1867" lon="-2.10022">
        <ele>148</ele>
        <time>2025-05-16T08:00:11Z</time>
      </trkpt>
      <trkpt lat="48.18666" lon="-2.10021">
        <ele>149</ele>
        <time>2025-05-16T08:00:12Z</time>
      </trkpt>
      <trkpt lat="48.18663" lon="-2.10021">
        <ele>149</ele>
        <time>2025-05-16T08:00:13Z</time>
      </trkpt>
      <trkpt lat="48.18659" lon="-2.10021">
        <ele>149</ele>
        <time>2025-05-16T08:00:14Z</time>
      </trkpt>
      <trkpt lat="48.18656" lon="-2.10021">
        <ele>149</ele>
        <time>2025-05-16T08:00:15Z</time>
      </trkpt>
      <trkpt lat="48.18652" lon="-2.10021">
        <ele>149</ele>
        <time>2025-05-16T08:00:16Z</time>
      </trkpt>
      <trkpt lat="48.18649" lon="-2.10022">
        <ele>149</ele>
        <time>2025-05-16T08:00:17Z</time>
      </trkpt>
      <trkpt lat="48.18646" lon="-2.10022">
        <ele>150</ele>
        <time>2025-05-16T08:00:18Z</time>
      </trkpt>
      <trkpt lat="48.18643" lon="-2.10022">
        <ele>150</ele>
        <time>2025-05-16T08:00:19Z</time>
      </trkpt>
      <trkpt lat="48.1864" lon="-2.10022">
        <ele>150</ele>
        <time>2025-05-16T08:00:20Z</time>
      </trkpt>
      <trkpt lat="48.18636" lon="-2.10022">
        <ele>150</ele>
        <time>2025-05-16T08:00:21Z</time>
      </trkpt>
      <trkpt lat="48.18633" lon="-2.10022">
        <ele>150</ele>
        <time>2025-05-16T08:00:22Z</time>
      </trkpt>
      <trkpt lat="48.1863" lon="-2.10022">
        <ele>150</ele>
        <time>2025-05-16T08:00:23Z</time>
      </trkpt>
      <trkpt lat="48.18626" lon="-2.10023">
        <ele>150</ele>
        <time>2025-05-16T08:00:24Z</time>
      </trkpt>
      <trkpt lat="48.18623" lon="-2.10023">
        <ele>150</ele>
        <time>2025-05-16T08:00:25Z</time>
      </trkpt>
      <trkpt lat="48.1862" lon="-2.10024">
        <ele>150</ele>
        <time>2025-05-16T08:00:26Z</time>
      </trkpt>
      <trkpt lat="48.18616" lon="-2.10024">
        <ele>150</ele>
        <time>2025-05-16T08:00:27Z</time>
      </trkpt>
      <trkpt lat="48.18613" lon="-2.10024">
        <ele>150</ele>
        <time>2025-05-16T08:00:28Z</time>
      </trkpt>
      <trkpt lat="48.1861" lon="-2.10024">
        <ele>150</ele>
        <time>2025-05-16T08:00:29Z</time>
      </trkpt>
      <trkpt lat="48.18607" lon="-2.10024">
        <ele>150</ele>
        <time>2025-05-16T08:00:30Z</time>
      </trkpt>
      <trkpt lat="48.18604" lon="-2.10024">
        <ele>150</ele>
        <time>2025-05-16T08:00:31Z</time>
      </trkpt>
      <trkpt lat="48.186" lon="-2.10024">
        <ele>150</ele>
        <time>2025-05-16T08:00:32Z</time>
      </trkpt>
      <trkpt lat="48.18597" lon="-2.10025">
        <ele>151</ele>
        <time>2025-05-16T08:00:33Z</time>
      </trkpt>
      <trkpt lat="48.18594" lon="-2.10025">
        <ele>151</ele>
        <time>2025-05-16T08:00:34Z</time>
      </trkpt>
      <trkpt lat="48.18591" lon="-2.10026">
        <ele>151</ele>
        <time>2025-05-16T08:00:35Z</time>
      </trkpt>
      <trkpt lat="48.18588" lon="-2.10026">
        <ele>152</ele>
        <time>2025-05-16T08:00:36Z</time>
      </trkpt>
      <trkpt lat="48.18585" lon="-2.10026">
        <ele>152</ele>
        <time>2025-05-16T08:00:37Z</time>
      </trkpt>
      <trkpt lat="48.18582" lon="-2.10026">
        <ele>152</ele>
        <time>2025-05-16T08:00:38Z</time>
      </trkpt>
      <trkpt lat="48.18579" lon="-2.10026">
        <ele>152</ele>
        <time>2025-05-16T08:00:39Z</time>
      </trkpt>
      <trkpt lat="48.18575" lon="-2.10027">
        <ele>152</ele>
        <time>2025-05-16T08:00:40Z</time>
      </trkpt>
      <trkpt lat="48.18572" lon="-2.10027">
        <ele>152</ele>
        <time>2025-05-16T08:00:41Z</time>
      </trkpt>
      <trkpt lat="48.18569" lon="-2.10027">
        <ele>152</ele>
        <time>2025-05-16T08:00:42Z</time>
      </trkpt>
      <trkpt lat="48.18566" lon="-2.10027">
        <ele>152</ele>
        <time>2025-05-16T08:00:43Z</time>
      </trkpt>
      <trkpt lat="48.18563" lon="-2.10026">
        <ele>152</ele>
        <time>2025-05-16T08:00:44Z</time>
      </trkpt>
      <trkpt lat="48.18559" lon="-2.10027">
        <ele>152</ele>
        <time>2025-05-16T08:00:45Z</time>
      </trkpt>
      <trkpt lat="48.18556" lon="-2.10027">
        <ele>153</ele>
        <time>2025-05-16T08:00:46Z</time>
      </trkpt>
      <trkpt lat="48.18553" lon="-2.10028">
        <ele>153</ele>
        <time>2025-05-16T08:00:47Z</time>
      </trkpt>
      <trkpt lat="48.1855" lon="-2.10028">
        <ele>153</ele>
        <time>2025-05-16T08:00:48Z</time>
      </trkpt>
      <trkpt lat="48.18546" lon="-2.10029">
        <ele>153</ele>
        <time>2025-05-16T08:00:49Z</time>
      </trkpt>
      <trkpt lat="48.18543" lon="-2.10029">
        <ele>153</ele>
        <time>2025-05-16T08:00:50Z</time>
      </trkpt>
      <trkpt lat="48.1854" lon="-2.10029">
        <ele>153</ele>
        <time>2025-05-16T08:00:51Z</time>
      </trkpt>
      <trkpt lat="48.18537" lon="-2.10029">
        <ele>153</ele>
        <time>2025-05-16T08:00:52Z</time>
      </trkpt>
      <trkpt lat="48.18533" lon="-2.10029">
        <ele>153</ele>
        <time>2025-05-16T08:00:53Z</time>
      </trkpt>
      <trkpt lat="48.1853" lon="-2.1003">
        <ele>153</ele>
        <time>2025-05-16T08:00:54Z</time>
      </trkpt>
      <trkpt lat="48.18527" lon="-2.1003">
        <ele>153</ele>
        <time>2025-05-16T08:00:55Z</time>
      </trkpt>
      <trkpt lat="48.18524" lon="-2.1003">
        <ele>153</ele>
        <time>2025-05-16T08:00:56Z</time>
      </trkpt>
      <trkpt lat="48.1852" lon="-2.1003">
        <ele>153</ele>
        <time>2025-05-16T08:00:57Z</time>
      </trkpt>
      <trkpt lat="48.18517" lon="-2.1003">
        <ele>153</ele>
        <time>2025-05-16T08:00:58Z</time>
      </trkpt>
      <trkpt lat="48.18514" lon="-2.1003">
        <ele>153</ele>
        <time>2025-05-16T08:00:59Z</time>
      </trkpt>
      <trkpt lat="48.18511" lon="-2.1003">
        <ele>153</ele>
        <time>2025-05-16T08:01:00Z</time>
      </trkpt>
      <trkpt lat="48.18508" lon="-2.10031">
        <ele>154</ele>
        <time>2025-05-16T08:01:01Z</time>
      </trkpt>
      <trkpt lat="48.18504" lon="-2.10031">
        <ele>154</ele>
        <time>2025-05-16T08:01:02Z</time>
      </trkpt>
      <trkpt lat="48.18501" lon="-2.10032">
        <ele>154</ele>
        <time>2025-05-16T08:01:03Z</time>
      </trkpt>
      <trkpt lat="48.18497" lon="-2.10032">
        <ele>154</ele>
        <time>2025-05-16T08:01:04Z</time>
      </trkpt>
      <trkpt lat="48.18494" lon="-2.10032">
        <ele>154</ele>
        <time>2025-05-16T08:01:05Z</time>
      </trkpt>
      <trkpt lat="48.1849" lon="-2.10032">
        <ele>154</ele>
        <time>2025-05-16T08:01:06Z</time>
      </trkpt>
      <trkpt lat="48.18487" lon="-2.10033">
        <ele>154</ele>
        <time>2025-05-16T08:01:07Z</time>
      </trkpt>
      <trkpt lat="48.18484" lon="-2.10033">
        <ele>154</ele>
        <time>2025-05-16T08:01:08Z</time>
      </trkpt>
      <trkpt lat="48.18481" lon="-2.10033">
        <ele>154</ele>
        <time>2025-05-16T08:01:09Z</time>
      </trkpt>
      <trkpt lat="48.18477" lon="-2.10034">
        <ele>154</ele>
        <time>2025-05-16T08:01:10Z</time>
      </trkpt>
      <trkpt lat="48.18474" lon="-2.10034">
        <ele>154</ele>
        <time>2025-05-16T08:01:11Z</time>
      </trkpt>
      <trkpt lat="48.18471" lon="-2.10034">
        <ele>154</ele>
        <time>2025-05-16T08:01:12Z</time>
      </trkpt>
      <trkpt lat="48.18468" lon="-2.10034">
        <ele>154</ele>
        <time>2025-05-16T08:01:13Z</time>
      </trkpt>
      <trkpt lat="48.18465" lon="-2.10033">
        <ele>154</ele>
        <time>2025-05-16T08:01:14Z</time>
      </trkpt>
      <trkpt lat="48.18461" lon="-2.10033">
        <ele>154</ele>
        <time>2025-05-16T08:01:15Z</time>
      </trkpt>
      <trkpt lat="48.18458" lon="-2.10033">
        <ele>154</ele>
        <time>2025-05-16T08:01:16Z</time>
      </trkpt>
      <trkpt lat="48.18454" lon="-2.10033">
        <ele>154</ele>
        <time>2025-05-16T08:01:17Z</time>
      </trkpt>
      <trkpt lat="48.18451" lon="-2.10033">
        <ele>155</ele>
        <time>2025-05-16T08:01:18Z</time>
      </trkpt>
      <trkpt lat="48.18448" lon="-2.10033">
        <ele>155</ele>
        <time>2025-05-16T08:01:19Z</time>
      </trkpt>
      <trkpt lat="48.18445" lon="-2.10032">
        <ele>155</ele>
        <time>2025-05-16T08:01:20Z</time>
      </trkpt>
      <trkpt lat="48.18441" lon="-2.10032">
        <ele>155</ele>
        <time>2025-05-16T08:01:21Z</time>
      </trkpt>
      <trkpt lat="48.18438" lon="-2.10031">
        <ele>155</ele>
        <time>2025-05-16T08:01:22Z</time>
      </trkpt>
      <trkpt lat="48.18435" lon="-2.1003">
        <ele>155</ele>
        <time>2025-05-16T08:01:23Z</time>
      </trkpt>
      <trkpt lat="48.18432" lon="-2.10029">
        <ele>155</ele>
        <time>2025-05-16T08:01:24Z</time>
      </trkpt>
      <trkpt lat="48.18429" lon="-2.10028">
        <ele>155</ele>
        <time>2025-05-16T08:01:25Z</time>
      </trkpt>
      <trkpt lat="48.18425" lon="-2.10027">
        <ele>155</ele>
        <time>2025-05-16T08:01:26Z</time>
      </trkpt>
      <trkpt lat="48.18422" lon="-2.10026">
        <ele>155</ele>
        <time>2025-05-16T08:01:27Z</time>
      </trkpt>
      <trkpt lat="48.18419" lon="-2.10025">
        <ele>155</ele>
        <time>2025-05-16T08:01:28Z</time>
      </trkpt>
      <trkpt lat="48.18415" lon="-2.10024">
        <ele>155</ele>
        <time>2025-05-16T08:01:29Z</time>
      </trkpt>
      <trkpt lat="48.18412" lon="-2.10023">
        <ele>155</ele>
        <time>2025-05-16T08:01:30Z</time>
      </trkpt>
      <trkpt lat="48.18409" lon="-2.10022">
        <ele>156</ele>
        <time>2025-05-16T08:01:31Z</time>
      </trkpt>
      <trkpt lat="48.18406" lon="-2.10021">
        <ele>156</ele>
        <time>2025-05-16T08:01:32Z</time>
      </trkpt>
      <trkpt lat="48.18403" lon="-2.1002">
        <ele>156</ele>
        <time>2025-05-16T08:01:33Z</time>
      </trkpt>
      <trkpt lat="48.184" lon="-2.10019">
        <ele>155</ele>
        <time>2025-05-16T08:01:34Z</time>
      </trkpt>
      <trkpt lat="48.18396" lon="-2.10017">
        <ele>155</ele>
        <time>2025-05-16T08:01:35Z</time>
      </trkpt>
      <trkpt lat="48.18393" lon="-2.10016">
        <ele>155</ele>
        <time>2025-05-16T08:01:36Z</time>
      </trkpt>
      <trkpt lat="48.1839" lon="-2.10015">
        <ele>155</ele>
        <time>2025-05-16T08:01:37Z</time>
      </trkpt>
      <trkpt lat="48.18387" lon="-2.10014">
        <ele>155</ele>
        <time>2025-05-16T08:01:38Z</time>
      </trkpt>
      <trkpt lat="48.18383" lon="-2.10013">
        <ele>155</ele>
        <time>2025-05-16T08:01:39Z</time>
      </trkpt>
      <trkpt lat="48.1838" lon="-2.10012">
        <ele>155</ele>
        <time>2025-05-16T08:01:40Z</time>
      </trkpt>
      <trkpt lat="48.18377" lon="-2.10011">
        <ele>155</ele>
        <time>2025-05-16T08:01:41Z</time>
      </trkpt>
      <trkpt lat="48.18373" lon="-2.1001">
        <ele>155</ele>
        <time>2025-05-16T08:01:42Z</time>
      </trkpt>
      <trkpt lat="48.1837" lon="-2.10009">
        <ele>156</ele>
        <time>2025-05-16T08:01:43Z</time>
      </trkpt>
      <trkpt lat="48.18367" lon="-2.10008">
        <ele>155</ele>
        <time>2025-05-16T08:01:44Z</time>
      </trkpt>
      <trkpt lat="48.18363" lon="-2.10007">
        <ele>155</ele>
        <time>2025-05-16T08:01:45Z</time>
      </trkpt>
      <trkpt lat="48.1836" lon="-2.10006">
        <ele>155</ele>
        <time>2025-05-16T08:01:46Z</time>
      </trkpt>
      <trkpt lat="48.18357" lon="-2.10005">
        <ele>155</ele>
        <time>2025-05-16T08:01:47Z</time>
      </trkpt>
      <trkpt lat="48.18354" lon="-2.10004">
        <ele>156</ele>
        <time>2025-05-16T08:01:48Z</time>
      </trkpt>
      <trkpt lat="48.18351" lon="-2.10003">
        <ele>156</ele>
        <time>2025-05-16T08:01:49Z</time>
      </trkpt>
      <trkpt lat="48.18348" lon="-2.10002">
        <ele>155</ele>
        <time>2025-05-16T08:01:50Z</time>
      </trkpt>
      <trkpt lat="48.18345" lon="-2.10001">
        <ele>156</ele>
        <time>2025-05-16T08:01:51Z</time>
      </trkpt>
      <trkpt lat="48.18342" lon="-2.1">
        <ele>155</ele>
        <time>2025-05-16T08:01:52Z</time>
      </trkpt>
      <trkpt lat="48.18338" lon="-2.09999">
        <ele>156</ele>
        <time>2025-05-16T08:01:53Z</time>
      </trkpt>
      <trkpt lat="48.18335" lon="-2.09998">
        <ele>156</ele>
        <time>2025-05-16T08:01:54Z</time>
      </trkpt>
      <trkpt lat="48.18332" lon="-2.09997">
        <ele>156</ele>
        <time>2025-05-16T08:01:55Z</time>
      </trkpt>
      <trkpt lat="48.18329" lon="-2.09996">
        <ele>156</ele>
        <time>2025-05-16T08:01:56Z</time>
      </trkpt>
      <trkpt lat="48.18326" lon="-2.09995">
        <ele>156</ele>
        <time>2025-05-16T08:01:57Z</time>
      </trkpt>
      <trkpt lat="48.18323" lon="-2.09995">
        <ele>156</ele>
        <time>2025-05-16T08:01:58Z</time>
      </trkpt>
      <trkpt lat="48.18319" lon="-2.09993">
        <ele>156</ele>
        <time>2025-05-16T08:01:59Z</time>
      </trkpt>
      <trkpt lat="48.18316" lon="-2.09993">
        <ele>156</ele>
        <time>2025-05-16T08:02:00Z</time>
      </trkpt>
      <trkpt lat="48.18313" lon="-2.09992">
        <ele>157</ele>
        <time>2025-05-16T08:02:01Z</time>
      </trkpt>
      <trkpt lat="48.1831" lon="-2.09992">
        <ele>157</ele>
        <time>2025-05-16T08:02:02Z</time>
      </trkpt>
      <trkpt lat="48.18306" lon="-2.09991">
        <ele>157</ele>
        <time>2025-05-16T08:02:03Z</time>
      </trkpt>
      <trkpt lat="48.18303" lon="-2.0999">
        <ele>157</ele>
        <time>2025-05-16T08:02:04Z</time>
      </trkpt>
      <trkpt lat="48.183" lon="-2.0999">
        <ele>157</ele>
        <time>2025-05-16T08:02:05Z</time>
      </trkpt>
      <trkpt lat="48.18296" lon="-2.09989">
        <ele>157</ele>
        <time>2025-05-16T08:02:06Z</time>
      </trkpt>
      <trkpt lat="48.18293" lon="-2.09989">
        <ele>158</ele>
        <time>2025-05-16T08:02:07Z</time>
      </trkpt>
      <trkpt lat="48.18289" lon="-2.09989">
        <ele>158</ele>
        <time>2025-05-16T08:02:08Z</time>
      </trkpt>
      <trkpt lat="48.18286" lon="-2.09989">
        <ele>157</ele>
        <time>2025-05-16T08:02:09Z</time>
      </trkpt>
      <trkpt lat="48.18282" lon="-2.0999">
        <ele>157</ele>
        <time>2025-05-16T08:02:10Z</time>
      </trkpt>
      <trkpt lat="48.18278" lon="-2.09989">
        <ele>156</ele>
        <time>2025-05-16T08:02:11Z</time>
      </trkpt>
      <trkpt lat="48.18274" lon="-2.09989">
        <ele>156</ele>
        <time>2025-05-16T08:02:12Z</time>
      </trkpt>
      <trkpt lat="48.1827" lon="-2.09989">
        <ele>156</ele>
        <time>2025-05-16T08:02:13Z</time>
      </trkpt>
      <trkpt lat="48.18266" lon="-2.09988">
        <ele>156</ele>
        <time>2025-05-16T08:02:14Z</time>
      </trkpt>
      <trkpt lat="48.18262" lon="-2.09987">
        <ele>156</ele>
        <time>2025-05-16T08:02:15Z</time>
      </trkpt>
      <trkpt lat="48.18258" lon="-2.09987">
        <ele>156</ele>
        <time>2025-05-16T08:02:16Z</time>
      </trkpt>
      <trkpt lat="48.18254" lon="-2.09986">
        <ele>156</ele>
        <time>2025-05-16T08:02:17Z</time>
      </trkpt>
      <trkpt lat="48.1825" lon="-2.09986">
        <ele>157</ele>
        <time>2025-05-16T08:02:18Z</time>
      </trkpt>
      <trkpt lat="48.18246" lon="-2.09986">
        <ele>157</ele>
        <time>2025-05-16T08:02:19Z</time>
      </trkpt>
      <trkpt lat="48.18242" lon="-2.09985">
        <ele>156</ele>
        <time>2025-05-16T08:02:20Z</time>
      </trkpt>
      <trkpt lat="48.18237" lon="-2.09985">
        <ele>156</ele>
        <time>2025-05-16T08:02:21Z</time>
      </trkpt>
      <trkpt lat="48.18233" lon="-2.09985">
        <ele>156</ele>
        <time>2025-05-16T08:02:22Z</time>
      </trkpt>
      <trkpt lat="48.18228" lon="-2.09985">
        <ele>156</ele>
        <time>2025-05-16T08:02:23Z</time>
      </trkpt>
      <trkpt lat="48.18224" lon="-2.09985">
        <ele>156</ele>
        <time>2025-05-16T08:02:24Z</time>
      </trkpt>
      <trkpt lat="48.1822" lon="-2.09985">
        <ele>156</ele>
        <time>2025-05-16T08:02:25Z</time>
      </trkpt>
      <trkpt lat="48.18215" lon="-2.09984">
        <ele>156</ele>
        <time>2025-05-16T08:02:26Z</time>
      </trkpt>
      <trkpt lat="48.1821" lon="-2.09984">
        <ele>156</ele>
        <time>2025-05-16T08:02:27Z</time>
      </trkpt>
      <trkpt lat="48.18206" lon="-2.09984">
        <ele>156</ele>
        <time>2025-05-16T08:02:28Z</time>
      </trkpt>
      <trkpt lat="48.18201" lon="-2.09983">
        <ele>156</ele>
        <time>2025-05-16T08:02:29Z</time>
      </trkpt>
      <trkpt lat="48.18197" lon="-2.09983">
        <ele>157</ele>
        <time>2025-05-16T08:02:30Z</time>
      </trkpt>
      <trkpt lat="48.18193" lon="-2.09983">
        <ele>157</ele>
        <time>2025-05-16T08:02:31Z</time>
      </trkpt>
      <trkpt lat="48.18189" lon="-2.09982">
        <ele>156</ele>
        <time>2025-05-16T08:02:32Z</time>
      </trkpt>
      <trkpt lat="48.18184" lon="-2.09982">
        <ele>157</ele>
        <time>2025-05-16T08:02:33Z</time>
      </trkpt>
      <trkpt lat="48.1818" lon="-2.09982">
        <ele>156</ele>
        <time>2025-05-16T08:02:34Z</time>
      </trkpt>
      <trkpt lat="48.18175" lon="-2.09982">
        <ele>156</ele>
        <time>2025-05-16T08:02:35Z</time>
      </trkpt>
      <trkpt lat="48.18171" lon="-2.09982">
        <ele>155</ele>
        <time>2025-05-16T08:02:36Z</time>
      </trkpt>
      <trkpt lat="48.18167" lon="-2.09982">
        <ele>155</ele>
        <time>2025-05-16T08:02:37Z</time>
      </trkpt>
      <trkpt lat="48.18162" lon="-2.09982">
        <ele>155</ele>
        <time>2025-05-16T08:02:38Z</time>
      </trkpt>
      <trkpt lat="48.18157" lon="-2.09981">
        <ele>155</ele>
        <time>2025-05-16T08:02:39Z</time>
      </trkpt>
      <trkpt lat="48.18153" lon="-2.09981">
        <ele>156</ele>
        <time>2025-05-16T08:02:40Z</time>
      </trkpt>
      <trkpt lat="48.18148" lon="-2.09981">
        <ele>156</ele>
        <time>2025-05-16T08:02:41Z</time>
      </trkpt>
      <trkpt lat="48.18143" lon="-2.09982">
        <ele>156</ele>
        <time>2025-05-16T08:02:42Z</time>
      </trkpt>
      <trkpt lat="48.18139" lon="-2.09982">
        <ele>156</ele>
        <time>2025-05-16T08:02:43Z</time>
      </trkpt>
      <trkpt lat="48.18134" lon="-2.09983">
        <ele>156</ele>
        <time>2025-05-16T08:02:44Z</time>
      </trkpt>
      <trkpt lat="48.1813" lon="-2.09983">
        <ele>156</ele>
        <time>2025-05-16T08:02:45Z</time>
      </trkpt>
      <trkpt lat="48.18125" lon="-2.09984">
        <ele>156</ele>
        <time>2025-05-16T08:02:46Z</time>
      </trkpt>
      <trkpt lat="48.18121" lon="-2.09984">
        <ele>156</ele>
        <time>2025-05-16T08:02:47Z</time>
      </trkpt>
      <trkpt lat="48.18117" lon="-2.09985">
        <ele>157</ele>
        <time>2025-05-16T08:02:48Z</time>
      </trkpt>
      <trkpt lat="48.18112" lon="-2.09985">
        <ele>157</ele>
        <time>2025-05-16T08:02:49Z</time>
      </trkpt>
      <trkpt lat="48.18108" lon="-2.09986">
        <ele>157</ele>
        <time>2025-05-16T08:02:50Z</time>
      </trkpt>
      <trkpt lat="48.18103" lon="-2.09988">
        <ele>157</ele>
        <time>2025-05-16T08:02:51Z</time>
      </trkpt>
      <trkpt lat="48.18098" lon="-2.09989">
        <ele>157</ele>
        <time>2025-05-16T08:02:52Z</time>
      </trkpt>
      <trkpt lat="48.18093" lon="-2.0999">
        <ele>157</ele>
        <time>2025-05-16T08:02:53Z</time>
      </trkpt>
      <trkpt lat="48.18088" lon="-2.09991">
        <ele>157</ele>
        <time>2025-05-16T08:02:54Z</time>
      </trkpt>
      <trkpt lat="48.18083" lon="-2.09993">
        <ele>156</ele>
        <time>2025-05-16T08:02:55Z</time>
      </trkpt>
      <trkpt lat="48.18078" lon="-2.09994">
        <ele>156</ele>
        <time>2025-05-16T08:02:56Z</time>
      </trkpt>
      <trkpt lat="48.18074" lon="-2.09996">
        <ele>155</ele>
        <time>2025-05-16T08:02:57Z</time>
      </trkpt>
      <trkpt lat="48.18069" lon="-2.09997">
        <ele>154</ele>
        <time>2025-05-16T08:02:58Z</time>
      </trkpt>
      <trkpt lat="48.18064" lon="-2.09997">
        <ele>154</ele>
        <time>2025-05-16T08:02:59Z</time>
      </trkpt>
      <trkpt lat="48.18059" lon="-2.09998">
        <ele>154</ele>
        <time>2025-05-16T08:03:00Z</time>
      </trkpt>
      <trkpt lat="48.18054" lon="-2.09998">
        <ele>154</ele>
        <time>2025-05-16T08:03:01Z</time>
      </trkpt>
      <trkpt lat="48.18049" lon="-2.09999">
        <ele>154</ele>
        <time>2025-05-16T08:03:02Z</time>
      </trkpt>
      <trkpt lat="48.18044" lon="-2.1">
        <ele>154</ele>
        <time>2025-05-16T08:03:03Z</time>
      </trkpt>
      <trkpt lat="48.18039" lon="-2.10001">
        <ele>155</ele>
        <time>2025-05-16T08:03:04Z</time>
      </trkpt>
      <trkpt lat="48.18033" lon="-2.10002">
        <ele>155</ele>
        <time>2025-05-16T08:03:05Z</time>
      </trkpt>
      <trkpt lat="48.18028" lon="-2.10003">
        <ele>154</ele>
        <time>2025-05-16T08:03:06Z</time>
      </trkpt>
      <trkpt lat="48.18023" lon="-2.10004">
        <ele>154</ele>
        <time>2025-05-16T08:03:07Z</time>
      </trkpt>
      <trkpt lat="48.18018" lon="-2.10005">
        <ele>154</ele>
        <time>2025-05-16T08:03:08Z</time>
      </trkpt>
      <trkpt lat="48.18012" lon="-2.10006">
        <ele>154</ele>
        <time>2025-05-16T08:03:09Z</time>
      </trkpt>
      <trkpt lat="48.18007" lon="-2.10006">
        <ele>153</ele>
        <time>2025-05-16T08:03:10Z</time>
      </trkpt>
      <trkpt lat="48.18002" lon="-2.10007">
        <ele>153</ele>
        <time>2025-05-16T08:03:11Z</time>
      </trkpt>
      <trkpt lat="48.17996" lon="-2.10009">
        <ele>153</ele>
        <time>2025-05-16T08:03:12Z</time>
      </trkpt>
      <trkpt lat="48.17991" lon="-2.10009">
        <ele>153</ele>
        <time>2025-05-16T08:03:13Z</time>
      </trkpt>
      <trkpt lat="48.17985" lon="-2.1001">
        <ele>154</ele>
        <time>2025-05-16T08:03:14Z</time>
      </trkpt>
      <trkpt lat="48.1798" lon="-2.1001">
        <ele>154</ele>
        <time>2025-05-16T08:03:15Z</time>
      </trkpt>
      <trkpt lat="48.17975" lon="-2.1001">
        <ele>154</ele>
        <time>2025-05-16T08:03:16Z</time>
      </trkpt>
      <trkpt lat="48.17969" lon="-2.10011">
        <ele>154</ele>
        <time>2025-05-16T08:03:17Z</time>
      </trkpt>
      <trkpt lat="48.17964" lon="-2.10011">
        <ele>155</ele>
        <time>2025-05-16T08:03:18Z</time>
      </trkpt>
      <trkpt lat="48.17959" lon="-2.10011">
        <ele>155</ele>
        <time>2025-05-16T08:03:19Z</time>
      </trkpt>
      <trkpt lat="48.17953" lon="-2.1001">
        <ele>155</ele>
        <time>2025-05-16T08:03:20Z</time>
      </trkpt>
      <trkpt lat="48.17948" lon="-2.10009">
        <ele>155</ele>
        <time>2025-05-16T08:03:21Z</time>
      </trkpt>
      <trkpt lat="48.17943" lon="-2.10009">
        <ele>154</ele>
        <time>2025-05-16T08:03:22Z</time>
      </trkpt>
      <trkpt lat="48.17939" lon="-2.10007">
        <ele>154</ele>
        <time>2025-05-16T08:03:23Z</time>
      </trkpt>
      <trkpt lat="48.17934" lon="-2.10005">
        <ele>154</ele>
        <time>2025-05-16T08:03:24Z</time>
      </trkpt>
      <trkpt lat="48.17929" lon="-2.10003">
        <ele>154</ele>
        <time>2025-05-16T08:03:25Z</time>
      </trkpt>
      <trkpt lat="48.17924" lon="-2.10001">
        <ele>154</ele>
        <time>2025-05-16T08:03:26Z</time>
      </trkpt>
      <trkpt lat="48.1792" lon="-2.09999">
        <ele>154</ele>
        <time>2025-05-16T08:03:27Z</time>
      </trkpt>
      <trkpt lat="48.17916" lon="-2.09995">
        <ele>155</ele>
        <time>2025-05-16T08:03:28Z</time>
      </trkpt>
      <trkpt lat="48.17912" lon="-2.09993">
        <ele>154</ele>
        <time>2025-05-16T08:03:29Z</time>
      </trkpt>
      <trkpt lat="48.17908" lon="-2.0999">
        <ele>155</ele>
        <time>2025-05-16T08:03:30Z</time>
      </trkpt>
      <trkpt lat="48.17904" lon="-2.09987">
        <ele>155</ele>
        <time>2025-05-16T08:03:31Z</time>
      </trkpt>
      <trkpt lat="48.17899" lon="-2.09983">
        <ele>154</ele>
        <time>2025-05-16T08:03:32Z</time>
      </trkpt>
      <trkpt lat="48.17895" lon="-2.0998">
        <ele>155</ele>
        <time>2025-05-16T08:03:33Z</time>
      </trkpt>
      <trkpt lat="48.17891" lon="-2.09976">
        <ele>155</ele>
        <time>2025-05-16T08:03:34Z</time>
      </trkpt>
      <trkpt lat="48.17887" lon="-2.09973">
        <ele>155</ele>
        <time>2025-05-16T08:03:35Z</time>
      </trkpt>
      <trkpt lat="48.17883" lon="-2.09969">
        <ele>155</ele>
        <time>2025-05-16T08:03:36Z</time>
      </trkpt>
      <trkpt lat="48.17879" lon="-2.09965">
        <ele>155</ele>
        <time>2025-05-16T08:03:37Z</time>
      </trkpt>
      <trkpt lat="48.17875" lon="-2.09962">
        <ele>154</ele>
        <time>2025-05-16T08:03:38Z</time>
      </trkpt>
      <trkpt lat="48.17871" lon="-2.09958">
        <ele>154</ele>
        <time>2025-05-16T08:03:39Z</time>
      </trkpt>
      <trkpt lat="48.17867" lon="-2.09953">
        <ele>155</ele>
        <time>2025-05-16T08:03:40Z</time>
      </trkpt>
      <trkpt lat="48.17863" lon="-2.09949">
        <ele>155</ele>
        <time>2025-05-16T08:03:41Z</time>
      </trkpt>
      <trkpt lat="48.1786" lon="-2.09945">
        <ele>155</ele>
        <time>2025-05-16T08:03:42Z</time>
      </trkpt>
      <trkpt lat="48.17856" lon="-2.09941">
        <ele>156</ele>
        <time>2025-05-16T08:03:43Z</time>
      </trkpt>
      <trkpt lat="48.17852" lon="-2.09937">
        <ele>156</ele>
        <time>2025-05-16T08:03:44Z</time>
      </trkpt>
      <trkpt lat="48.17849" lon="-2.09932">
        <ele>156</ele>
        <time>2025-05-16T08:03:45Z</time>
      </trkpt>
      <trkpt lat="48.17845" lon="-2.09927">
        <ele>156</ele>
        <time>2025-05-16T08:03:46Z</time>
      </trkpt>
      <trkpt lat="48.17841" lon="-2.09922">
        <ele>155</ele>
        <time>2025-05-16T08:03:47Z</time>
      </trkpt>
      <trkpt lat="48.17837" lon="-2.09917">
        <ele>155</ele>
        <time>2025-05-16T08:03:48Z</time>
      </trkpt>
      <trkpt lat="48.17834" lon="-2.09912">
        <ele>154</ele>
        <time>2025-05-16T08:03:49Z</time>
      </trkpt>
      <trkpt lat="48.1783" lon="-2.09907">
        <ele>154</ele>
        <time>2025-05-16T08:03:50Z</time>
      </trkpt>
      <trkpt lat="48.17827" lon="-2.09902">
        <ele>154</ele>
        <time>2025-05-16T08:03:51Z</time>
      </trkpt>
      <trkpt lat="48.17824" lon="-2.09896">
        <ele>154</ele>
        <time>2025-05-16T08:03:52Z</time>
      </trkpt>
      <trkpt lat="48.17821" lon="-2.09891">
        <ele>154</ele>
        <time>2025-05-16T08:03:53Z</time>
      </trkpt>
      <trkpt lat="48.17817" lon="-2.09885">
        <ele>154</ele>
        <time>2025-05-16T08:03:54Z</time>
      </trkpt>
      <trkpt lat="48.17814" lon="-2.09879">
        <ele>154</ele>
        <time>2025-05-16T08:03:55Z</time>
      </trkpt>
      <trkpt lat="48.1781" lon="-2.09873">
        <ele>154</ele>
        <time>2025-05-16T08:03:56Z</time>
      </trkpt>
      <trkpt lat="48.17807" lon="-2.09867">
        <ele>154</ele>
        <time>2025-05-16T08:03:57Z</time>
      </trkpt>
      <trkpt lat="48.17803" lon="-2.09861">
        <ele>153</ele>
        <time>2025-05-16T08:03:58Z</time>
      </trkpt>
      <trkpt lat="48.178" lon="-2.09854">
        <ele>153</ele>
        <time>2025-05-16T08:03:59Z</time>
      </trkpt>
      <trkpt lat="48.17796" lon="-2.09847">
        <ele>154</ele>
        <time>2025-05-16T08:04:00Z</time>
      </trkpt>
      <trkpt lat="48.17793" lon="-2.0984">
        <ele>154</ele>
        <time>2025-05-16T08:04:01Z</time>
      </trkpt>
      <trkpt lat="48.17789" lon="-2.09834">
        <ele>153</ele>
        <time>2025-05-16T08:04:02Z</time>
      </trkpt>
      <trkpt lat="48.17786" lon="-2.09827">
        <ele>153</ele>
        <time>2025-05-16T08:04:03Z</time>
      </trkpt>
      <trkpt lat="48.17782" lon="-2.0982">
        <ele>153</ele>
        <time>2025-05-16T08:04:04Z</time>
      </trkpt>
      <trkpt lat="48.17779" lon="-2.09813">
        <ele>153</ele>
        <time>2025-05-16T08:04:05Z</time>
      </trkpt>
      <trkpt lat="48.17775" lon="-2.09807">
        <ele>153</ele>
        <time>2025-05-16T08:04:06Z</time>
      </trkpt>
      <trkpt lat="48.17771" lon="-2.098">
        <ele>153</ele>
        <time>2025-05-16T08:04:07Z</time>
      </trkpt>
      <trkpt lat="48.17768" lon="-2.09794">
        <ele>153</ele>
        <time>2025-05-16T08:04:08Z</time>
      </trkpt>
      <trkpt lat="48.17765" lon="-2.09788">
        <ele>153</ele>
        <time>2025-05-16T08:04:09Z</time>
      </trkpt>
      <trkpt lat="48.17762" lon="-2.09781">
        <ele>153</ele>
        <time>2025-05-16T08:04:10Z</time>
      </trkpt>
      <trkpt lat="48.17759" lon="-2.09775">
        <ele>152</ele>
        <time>2025-05-16T08:04:11Z</time>
      </trkpt>
      <trkpt lat="48.17755" lon="-2.09768">
        <ele>152</ele>
        <time>2025-05-16T08:04:12Z</time>
      </trkpt>
      <trkpt lat="48.17752" lon="-2.09762">
        <ele>153</ele>
        <time>2025-05-16T08:04:13Z</time>
      </trkpt>
      <trkpt lat="48.17749" lon="-2.09755">
        <ele>152</ele>
        <time>2025-05-16T08:04:14Z</time>
      </trkpt>
      <trkpt lat="48.17745" lon="-2.09749">
        <ele>152</ele>
        <time>2025-05-16T08:04:15Z</time>
      </trkpt>
      <trkpt lat="48.17741" lon="-2.09744">
        <ele>151</ele>
        <time>2025-05-16T08:04:16Z</time>
      </trkpt>
      <trkpt lat="48.17738" lon="-2.09736">
        <ele>152</ele>
        <time>2025-05-16T08:04:17Z</time>
      </trkpt>
      <trkpt lat="48.17735" lon="-2.09729">
        <ele>152</ele>
        <time>2025-05-16T08:04:18Z</time>
      </trkpt>
      <trkpt lat="48.17731" lon="-2.09721">
        <ele>152</ele>
        <time>2025-05-16T08:04:19Z</time>
      </trkpt>
      <trkpt lat="48.17728" lon="-2.09714">
        <ele>152</ele>
        <time>2025-05-16T08:04:20Z</time>
      </trkpt>
      <trkpt lat="48.17725" lon="-2.09707">
        <ele>152</ele>
        <time>2025-05-16T08:04:21Z</time>
      </trkpt>
      <trkpt lat="48.17723" lon="-2.09702">
        <ele>152</ele>
        <time>2025-05-16T08:04:22Z</time>
      </trkpt>
      <trkpt lat="48.17721" lon="-2.09698">
        <ele>152</ele>
        <time>2025-05-16T08:04:23Z</time>
      </trkpt>
      <trkpt lat="48.17719" lon="-2.09693">
        <ele>152</ele>
        <time>2025-05-16T08:04:24Z</time>
      </trkpt>
      <trkpt lat="48.17717" lon="-2.09688">
        <ele>152</ele>
        <time>2025-05-16T08:04:25Z</time>
      </trkpt>
      <trkpt lat="48.17715" lon="-2.09682">
        <ele>152</ele>
        <time>2025-05-16T08:04:26Z</time>
      </trkpt>
      <trkpt lat="48.17713" lon="-2.09678">
        <ele>152</ele>
        <time>2025-05-16T08:04:27Z</time>
      </trkpt>
      <trkpt lat="48.17711" lon="-2.09673">
        <ele>152</ele>
        <time>2025-05-16T08:04:28Z</time>
      </trkpt>
      <trkpt lat="48.1771" lon="-2.09668">
        <ele>153</ele>
        <time>2025-05-16T08:04:29Z</time>
      </trkpt>
      <trkpt lat="48.17709" lon="-2.09664">
        <ele>152</ele>
        <time>2025-05-16T08:04:30Z</time>
      </trkpt>
      <trkpt lat="48.17708" lon="-2.09659">
        <ele>152</ele>
        <time>2025-05-16T08:04:31Z</time>
      </trkpt>
      <trkpt lat="48.17707" lon="-2.09653">
        <ele>152</ele>
        <time>2025-05-16T08:04:32Z</time>
      </trkpt>
      <trkpt lat="48.17707" lon="-2.09648">
        <ele>152</ele>
        <time>2025-05-16T08:04:33Z</time>
      </trkpt>
      <trkpt lat="48.17706" lon="-2.09642">
        <ele>152</ele>
        <time>2025-05-16T08:04:34Z</time>
      </trkpt>
      <trkpt lat="48.17706" lon="-2.09636">
        <ele>152</ele>
        <time>2025-05-16T08:04:35Z</time>
      </trkpt>
      <trkpt lat="48.17706" lon="-2.0963">
        <ele>152</ele>
        <time>2025-05-16T08:04:36Z</time>
      </trkpt>
      <trkpt lat="48.17706" lon="-2.09625">
        <ele>152</ele>
        <time>2025-05-16T08:04:37Z</time>
      </trkpt>
      <trkpt lat="48.17705" lon="-2.09619">
        <ele>152</ele>
        <time>2025-05-16T08:04:38Z</time>
      </trkpt>
      <trkpt lat="48.17705" lon="-2.09614">
        <ele>152</ele>
        <time>2025-05-16T08:04:39Z</time>
      </trkpt>
      <trkpt lat="48.17705" lon="-2.09608">
        <ele>151</ele>
        <time>2025-05-16T08:04:40Z</time>
      </trkpt>
      <trkpt lat="48.17705" lon="-2.09603">
        <ele>151</ele>
        <time>2025-05-16T08:04:41Z</time>
      </trkpt>
      <trkpt lat="48.17705" lon="-2.09598">
        <ele>151</ele>
        <time>2025-05-16T08:04:42Z</time>
      </trkpt>
      <trkpt lat="48.17705" lon="-2.09592">
        <ele>151</ele>
        <time>2025-05-16T08:04:43Z</time>
      </trkpt>
      <trkpt lat="48.17705" lon="-2.09586">
        <ele>151</ele>
        <time>2025-05-16T08:04:44Z</time>
      </trkpt>
      <trkpt lat="48.17705" lon="-2.09581">
        <ele>151</ele>
        <time>2025-05-16T08:04:45Z</time>
      </trkpt>
      <trkpt lat="48.17704" lon="-2.09576">
        <ele>151</ele>
        <time>2025-05-16T08:04:46Z</time>
      </trkpt>
      <trkpt lat="48.17704" lon="-2.0957">
        <ele>151</ele>
        <time>2025-05-16T08:04:47Z</time>
      </trkpt>
      <trkpt lat="48.17704" lon="-2.09564">
        <ele>151</ele>
        <time>2025-05-16T08:04:48Z</time>
      </trkpt>
      <trkpt lat="48.17704" lon="-2.09559">
        <ele>151</ele>
        <time>2025-05-16T08:04:49Z</time>
      </trkpt>
      <trkpt lat="48.17704" lon="-2.09553">
        <ele>151</ele>
        <time>2025-05-16T08:04:50Z</time>
      </trkpt>
      <trkpt lat="48.17704" lon="-2.09548">
        <ele>151</ele>
        <time>2025-05-16T08:04:51Z</time>
      </trkpt>
      <trkpt lat="48.17704" lon="-2.09542">
        <ele>150</ele>
        <time>2025-05-16T08:04:52Z</time>
      </trkpt>
      <trkpt lat="48.17703" lon="-2.09536">
        <ele>150</ele>
        <time>2025-05-16T08:04:53Z</time>
      </trkpt>
      <trkpt lat="48.17703" lon="-2.0953">
        <ele>150</ele>
        <time>2025-05-16T08:04:54Z</time>
      </trkpt>
      <trkpt lat="48.17703" lon="-2.09524">
        <ele>150</ele>
        <time>2025-05-16T08:04:55Z</time>
      </trkpt>
      <trkpt lat="48.17703" lon="-2.09518">
        <ele>150</ele>
        <time>2025-05-16T08:04:56Z</time>
      </trkpt>
      <trkpt lat="48.17703" lon="-2.09512">
        <ele>150</ele>
        <time>2025-05-16T08:04:57Z</time>
      </trkpt>
      <trkpt lat="48.17703" lon="-2.09505">
        <ele>151</ele>
        <time>2025-05-16T08:04:58Z</time>
      </trkpt>
      <trkpt lat="48.17702" lon="-2.09499">
        <ele>151</ele>
        <time>2025-05-16T08:04:59Z</time>
      </trkpt>
      <trkpt lat="48.17703" lon="-2.09492">
        <ele>151</ele>
        <time>2025-05-16T08:05:00Z</time>
      </trkpt>
      <trkpt lat="48.17702" lon="-2.09485">
        <ele>151</ele>
        <time>2025-05-16T08:05:01Z</time>
      </trkpt>
      <trkpt lat="48.17703" lon="-2.09478">
        <ele>151</ele>
        <time>2025-05-16T08:05:02Z</time>
      </trkpt>
      <trkpt lat="48.17703" lon="-2.09471">
        <ele>151</ele>
        <time>2025-05-16T08:05:03Z</time>
      </trkpt>
      <trkpt lat="48.17702" lon="-2.09463">
        <ele>151</ele>
        <time>2025-05-16T08:05:04Z</time>
      </trkpt>
      <trkpt lat="48.17702" lon="-2.09456">
        <ele>151</ele>
        <time>2025-05-16T08:05:05Z</time>
      </trkpt>
      <trkpt lat="48.17702" lon="-2.09448">
        <ele>150</ele>
        <time>2025-05-16T08:05:06Z</time>
      </trkpt>
      <trkpt lat="48.17701" lon="-2.0944">
        <ele>151</ele>
        <time>2025-05-16T08:05:07Z</time>
      </trkpt>
      <trkpt lat="48.17701" lon="-2.09433">
        <ele>151</ele>
        <time>2025-05-16T08:05:08Z</time>
      </trkpt>
      <trkpt lat="48.17701" lon="-2.09425">
        <ele>150</ele>
        <time>2025-05-16T08:05:09Z</time>
      </trkpt>
      <trkpt lat="48.17701" lon="-2.09417">
        <ele>150</ele>
        <time>2025-05-16T08:05:10Z</time>
      </trkpt>
      <trkpt lat="48.177" lon="-2.0941">
        <ele>150</ele>
        <time>2025-05-16T08:05:11Z</time>
      </trkpt>
      <trkpt lat="48.177" lon="-2.09402">
        <ele>150</ele>
        <time>2025-05-16T08:05:12Z</time>
      </trkpt>
      <trkpt lat="48.17699" lon="-2.09395">
        <ele>149</ele>
        <time>2025-05-16T08:05:13Z</time>
      </trkpt>
      <trkpt lat="48.17699" lon="-2.09386">
        <ele>149</ele>
        <time>2025-05-16T08:05:14Z</time>
      </trkpt>
      <trkpt lat="48.17699" lon="-2.09378">
        <ele>149</ele>
        <time>2025-05-16T08:05:15Z</time>
      </trkpt>
      <trkpt lat="48.17698" lon="-2.0937">
        <ele>149</ele>
        <time>2025-05-16T08:05:16Z</time>
      </trkpt>
      <trkpt lat="48.17698" lon="-2.09362">
        <ele>149</ele>
        <time>2025-05-16T08:05:17Z</time>
      </trkpt>
      <trkpt lat="48.17698" lon="-2.09354">
        <ele>148</ele>
        <time>2025-05-16T08:05:18Z</time>
      </trkpt>
      <trkpt lat="48.17698" lon="-2.09346">
        <ele>148</ele>
        <time>2025-05-16T08:05:19Z</time>
      </trkpt>
      <trkpt lat="48.17698" lon="-2.09337">
        <ele>148</ele>
        <time>2025-05-16T08:05:20Z</time>
      </trkpt>
      <trkpt lat="48.17697" lon="-2.09329">
        <ele>148</ele>
        <time>2025-05-16T08:05:21Z</time>
      </trkpt>
      <trkpt lat="48.17697" lon="-2.0932">
        <ele>148</ele>
        <time>2025-05-16T08:05:22Z</time>
      </trkpt>
      <trkpt lat="48.17697" lon="-2.09313">
        <ele>148</ele>
        <time>2025-05-16T08:05:23Z</time>
      </trkpt>
      <trkpt lat="48.17696" lon="-2.09305">
        <ele>148</ele>
        <time>2025-05-16T08:05:24Z</time>
      </trkpt>
      <trkpt lat="48.17697" lon="-2.09296">
        <ele>148</ele>
        <time>2025-05-16T08:05:25Z</time>
      </trkpt>
      <trkpt lat="48.17697" lon="-2.09288">
        <ele>148</ele>
        <time>2025-05-16T08:05:26Z</time>
      </trkpt>
      <trkpt lat="48.17697" lon="-2.0928">
        <ele>147</ele>
        <time>2025-05-16T08:05:27Z</time>
      </trkpt>
      <trkpt lat="48.17696" lon="-2.09272">
        <ele>147</ele>
        <time>2025-05-16T08:05:28Z</time>
      </trkpt>
      <trkpt lat="48.17696" lon="-2.09264">
        <ele>148</ele>
        <time>2025-05-16T08:05:29Z</time>
      </trkpt>
      <trkpt lat="48.17695" lon="-2.09256">
        <ele>148</ele>
        <time>2025-05-16T08:05:30Z</time>
      </trkpt>
      <trkpt lat="48.17695" lon="-2.09247">
        <ele>147</ele>
        <time>2025-05-16T08:05:31Z</time>
      </trkpt>
      <trkpt lat="48.17695" lon="-2.09239">
        <ele>147</ele>
        <time>2025-05-16T08:05:32Z</time>
      </trkpt>
      <trkpt lat="48.17695" lon="-2.09231">
        <ele>147</ele>
        <time>2025-05-16T08:05:33Z</time>
      </trkpt>
      <trkpt lat="48.17695" lon="-2.09222">
        <ele>147</ele>
        <time>2025-05-16T08:05:34Z</time>
      </trkpt>
      <trkpt lat="48.17695" lon="-2.09215">
        <ele>147</ele>
        <time>2025-05-16T08:05:35Z</time>
      </trkpt>
      <trkpt lat="48.17694" lon="-2.09207">
        <ele>147</ele>
        <time>2025-05-16T08:05:36Z</time>
      </trkpt>
      <trkpt lat="48.17694" lon="-2.09198">
        <ele>147</ele>
        <time>2025-05-16T08:05:37Z</time>
      </trkpt>
      <trkpt lat="48.17694" lon="-2.0919">
        <ele>147</ele>
        <time>2025-05-16T08:05:38Z</time>
      </trkpt>
      <trkpt lat="48.17693" lon="-2.09182">
        <ele>147</ele>
        <time>2025-05-16T08:05:39Z</time>
      </trkpt>
      <trkpt lat="48.17693" lon="-2.09175">
        <ele>147</ele>
        <time>2025-05-16T08:05:40Z</time>
      </trkpt>
      <trkpt lat="48.17692" lon="-2.09167">
        <ele>147</ele>
        <time>2025-05-16T08:05:41Z</time>
      </trkpt>
      <trkpt lat="48.17691" lon="-2.0916">
        <ele>147</ele>
        <time>2025-05-16T08:05:42Z</time>
      </trkpt>
      <trkpt lat="48.1769" lon="-2.09153">
        <ele>147</ele>
        <time>2025-05-16T08:05:43Z</time>
      </trkpt>
      <trkpt lat="48.17688" lon="-2.09145">
        <ele>147</ele>
        <time>2025-05-16T08:05:44Z</time>
      </trkpt>
      <trkpt lat="48.17687" lon="-2.09138">
        <ele>147</ele>
        <time>2025-05-16T08:05:45Z</time>
      </trkpt>
      <trkpt lat="48.17685" lon="-2.09131">
        <ele>147</ele>
        <time>2025-05-16T08:05:46Z</time>
      </trkpt>
      <trkpt lat="48.17684" lon="-2.09124">
        <ele>147</ele>
        <time>2025-05-16T08:05:47Z</time>
      </trkpt>
      <trkpt lat="48.17682" lon="-2.09116">
        <ele>147</ele>
        <time>2025-05-16T08:05:48Z</time>
      </trkpt>
      <trkpt lat="48.1768" lon="-2.09109">
        <ele>147</ele>
        <time>2025-05-16T08:05:49Z</time>
      </trkpt>
      <trkpt lat="48.17679" lon="-2.09102">
        <ele>147</ele>
        <time>2025-05-16T08:05:50Z</time>
      </trkpt>
      <trkpt lat="48.17677" lon="-2.09095">
        <ele>147</ele>
        <time>2025-05-16T08:05:51Z</time>
      </trkpt>
      <trkpt lat="48.17674" lon="-2.09088">
        <ele>147</ele>
        <time>2025-05-16T08:05:52Z</time>
      </trkpt>
      <trkpt lat="48.17672" lon="-2.09081">
        <ele>147</ele>
        <time>2025-05-16T08:05:53Z</time>
      </trkpt>
      <trkpt lat="48.1767" lon="-2.09073">
        <ele>147</ele>
        <time>2025-05-16T08:05:54Z</time>
      </trkpt>
      <trkpt lat="48.17667" lon="-2.09065">
        <ele>146</ele>
        <time>2025-05-16T08:05:55Z</time>
      </trkpt>
      <trkpt lat="48.17664" lon="-2.09058">
        <ele>146</ele>
        <time>2025-05-16T08:05:56Z</time>
      </trkpt>
      <trkpt lat="48.17661" lon="-2.0905">
        <ele>146</ele>
        <time>2025-05-16T08:05:57Z</time>
      </trkpt>
      <trkpt lat="48.17658" lon="-2.09043">
        <ele>146</ele>
        <time>2025-05-16T08:05:58Z</time>
      </trkpt>
      <trkpt lat="48.17654" lon="-2.09036">
        <ele>145</ele>
        <time>2025-05-16T08:05:59Z</time>
      </trkpt>
      <trkpt lat="48.17651" lon="-2.09029">
        <ele>145</ele>
        <time>2025-05-16T08:06:00Z</time>
      </trkpt>
      <trkpt lat="48.17647" lon="-2.09021">
        <ele>144</ele>
        <time>2025-05-16T08:06:01Z</time>
      </trkpt>
      <trkpt lat="48.17643" lon="-2.09014">
        <ele>144</ele>
        <time>2025-05-16T08:06:02Z</time>
      </trkpt>
      <trkpt lat="48.17639" lon="-2.09007">
        <ele>144</ele>
        <time>2025-05-16T08:06:03Z</time>
      </trkpt>
      <trkpt lat="48.17635" lon="-2.09">
        <ele>144</ele>
        <time>2025-05-16T08:06:04Z</time>
      </trkpt>
      <trkpt lat="48.17631" lon="-2.08993">
        <ele>144</ele>
        <time>2025-05-16T08:06:05Z</time>
      </trkpt>
      <trkpt lat="48.17626" lon="-2.08987">
        <ele>144</ele>
        <time>2025-05-16T08:06:06Z</time>
      </trkpt>
      <trkpt lat="48.17622" lon="-2.0898">
        <ele>144</ele>
        <time>2025-05-16T08:06:07Z</time>
      </trkpt>
      <trkpt lat="48.17617" lon="-2.08974">
        <ele>144</ele>
        <time>2025-05-16T08:06:08Z</time>
      </trkpt>
      <trkpt lat="48.17612" lon="-2.08968">
        <ele>143</ele>
        <time>2025-05-16T08:06:09Z</time>
      </trkpt>
      <trkpt lat="48.17608" lon="-2.08962">
        <ele>143</ele>
        <time>2025-05-16T08:06:10Z</time>
      </trkpt>
      <trkpt lat="48.17602" lon="-2.08956">
        <ele>142</ele>
        <time>2025-05-16T08:06:11Z</time>
      </trkpt>
      <trkpt lat="48.17597" lon="-2.08951">
        <ele>142</ele>
        <time>2025-05-16T08:06:12Z</time>
      </trkpt>
      <trkpt lat="48.17592" lon="-2.08947">
        <ele>142</ele>
        <time>2025-05-16T08:06:13Z</time>
      </trkpt>
      <trkpt lat="48.17587" lon="-2.08942">
        <ele>142</ele>
        <time>2025-05-16T08:06:14Z</time>
      </trkpt>
      <trkpt lat="48.17581" lon="-2.08937">
        <ele>142</ele>
        <time>2025-05-16T08:06:15Z</time>
      </trkpt>
      <trkpt lat="48.17575" lon="-2.08932">
        <ele>142</ele>
        <time>2025-05-16T08:06:16Z</time>
      </trkpt>
      <trkpt lat="48.1757" lon="-2.08928">
        <ele>141</ele>
        <time>2025-05-16T08:06:17Z</time>
      </trkpt>
      <trkpt lat="48.17564" lon="-2.08923">
        <ele>141</ele>
        <time>2025-05-16T08:06:18Z</time>
      </trkpt>
      <trkpt lat="48.17558" lon="-2.08919">
        <ele>141</ele>
        <time>2025-05-16T08:06:19Z</time>
      </trkpt>
      <trkpt lat="48.17551" lon="-2.08914">
        <ele>140</ele>
        <time>2025-05-16T08:06:20Z</time>
      </trkpt>
      <trkpt lat="48.17545" lon="-2.0891">
        <ele>140</ele>
        <time>2025-05-16T08:06:21Z</time>
      </trkpt>
      <trkpt lat="48.17539" lon="-2.08906">
        <ele>140</ele>
        <time>2025-05-16T08:06:22Z</time>
      </trkpt>
      <trkpt lat="48.17532" lon="-2.08902">
        <ele>140</ele>
        <time>2025-05-16T08:06:23Z</time>
      </trkpt>
      <trkpt lat="48.17526" lon="-2.08898">
        <ele>140</ele>
        <time>2025-05-16T08:06:24Z</time>
      </trkpt>
      <trkpt lat="48.1752" lon="-2.08893">
        <ele>140</ele>
        <time>2025-05-16T08:06:25Z</time>
      </trkpt>
      <trkpt lat="48.17514" lon="-2.08889">
        <ele>139</ele>
        <time>2025-05-16T08:06:26Z</time>
      </trkpt>
      <trkpt lat="48.17508" lon="-2.08885">
        <ele>139</ele>
        <time>2025-05-16T08:06:27Z</time>
      </trkpt>
      <trkpt lat="48.17502" lon="-2.08881">
        <ele>139</ele>
        <time>2025-05-16T08:06:28Z</time>
      </trkpt>
      <trkpt lat="48.17496" lon="-2.08877">
        <ele>139</ele>
        <time>2025-05-16T08:06:29Z</time>
      </trkpt>
      <trkpt lat="48.17491" lon="-2.08873">
        <ele>139</ele>
        <time>2025-05-16T08:06:30Z</time>
      </trkpt>
      <trkpt lat="48.17486" lon="-2.08868">
        <ele>140</ele>
        <time>2025-05-16T08:06:31Z</time>
      </trkpt>
      <trkpt lat="48.17481" lon="-2.08862">
        <ele>140</ele>
        <time>2025-05-16T08:06:32Z</time>
      </trkpt>
      <trkpt lat="48.17477" lon="-2.08855">
        <ele>141</ele>
        <time>2025-05-16T08:06:33Z</time>
      </trkpt>
      <trkpt lat="48.17473" lon="-2.08849">
        <ele>142</ele>
        <time>2025-05-16T08:06:34Z</time>
      </trkpt>
      <trkpt lat="48.17469" lon="-2.08843">
        <ele>142</ele>
        <time>2025-05-16T08:06:35Z</time>
      </trkpt>
      <trkpt lat="48.17466" lon="-2.08837">
        <ele>142</ele>
        <time>2025-05-16T08:06:36Z</time>
      </trkpt>
      <trkpt lat="48.17462" lon="-2.08831">
        <ele>142</ele>
        <time>2025-05-16T08:06:37Z</time>
      </trkpt>
      <trkpt lat="48.17459" lon="-2.08826">
        <ele>142</ele>
        <time>2025-05-16T08:06:38Z</time>
      </trkpt>
      <trkpt lat="48.17456" lon="-2.0882">
        <ele>141</ele>
        <time>2025-05-16T08:06:39Z</time>
      </trkpt>
      <trkpt lat="48.17453" lon="-2.08814">
        <ele>141</ele>
        <time>2025-05-16T08:06:40Z</time>
      </trkpt>
      <trkpt lat="48.17451" lon="-2.08809">
        <ele>141</ele>
        <time>2025-05-16T08:06:41Z</time>
      </trkpt>
      <trkpt lat="48.17448" lon="-2.08803">
        <ele>141</ele>
        <time>2025-05-16T08:06:42Z</time>
      </trkpt>
      <trkpt lat="48.17446" lon="-2.08799">
        <ele>141</ele>
        <time>2025-05-16T08:06:43Z</time>
      </trkpt>
      <trkpt lat="48.17444" lon="-2.08794">
        <ele>141</ele>
        <time>2025-05-16T08:06:44Z</time>
      </trkpt>
      <trkpt lat="48.17442" lon="-2.08789">
        <ele>141</ele>
        <time>2025-05-16T08:06:45Z</time>
      </trkpt>
      <trkpt lat="48.1744" lon="-2.08785">
        <ele>142</ele>
        <time>2025-05-16T08:06:46Z</time>
      </trkpt>
      <trkpt lat="48.17439" lon="-2.08781">
        <ele>142</ele>
        <time>2025-05-16T08:06:47Z</time>
      </trkpt>
      <trkpt lat="48.17437" lon="-2.08777">
        <ele>142</ele>
        <time>2025-05-16T08:06:48Z</time>
      </trkpt>
      <trkpt lat="48.17435" lon="-2.08773">
        <ele>142</ele>
        <time>2025-05-16T08:06:49Z</time>
      </trkpt>
      <trkpt lat="48.17433" lon="-2.08769">
        <ele>141</ele>
        <time>2025-05-16T08:06:50Z</time>
      </trkpt>
      <trkpt lat="48.17431" lon="-2.08765">
        <ele>141</ele>
        <time>2025-05-16T08:06:51Z</time>
      </trkpt>
      <trkpt lat="48.1743" lon="-2.08761">
        <ele>141</ele>
        <time>2025-05-16T08:06:52Z</time>
      </trkpt>
      <trkpt lat="48.17428" lon="-2.08757">
        <ele>141</ele>
        <time>2025-05-16T08:06:53Z</time>
      </trkpt>
      <trkpt lat="48.17426" lon="-2.08752">
        <ele>141</ele>
        <time>2025-05-16T08:06:54Z</time>
      </trkpt>
      <trkpt lat="48.17425" lon="-2.08748">
        <ele>141</ele>
        <time>2025-05-16T08:06:55Z</time>
      </trkpt>
      <trkpt lat="48.17423" lon="-2.08744">
        <ele>141</ele>
        <time>2025-05-16T08:06:56Z</time>
      </trkpt>
      <trkpt lat="48.17422" lon="-2.08741">
        <ele>141</ele>
        <time>2025-05-16T08:06:57Z</time>
      </trkpt>
      <trkpt lat="48.1742" lon="-2.08738">
        <ele>141</ele>
        <time>2025-05-16T08:06:58Z</time>
      </trkpt>
      <trkpt lat="48.17419" lon="-2.08734">
        <ele>141</ele>
        <time>2025-05-16T08:06:59Z</time>
      </trkpt>
      <trkpt lat="48.17418" lon="-2.08731">
        <ele>142</ele>
        <time>2025-05-16T08:07:00Z</time>
      </trkpt>
      <trkpt lat="48.17417" lon="-2.08727">
        <ele>142</ele>
        <time>2025-05-16T08:07:01Z</time>
      </trkpt>
      <trkpt lat="48.17416" lon="-2.08724">
        <ele>142</ele>
        <time>2025-05-16T08:07:02Z</time>
      </trkpt>
      <trkpt lat="48.17414" lon="-2.08721">
        <ele>142</ele>
        <time>2025-05-16T08:07:03Z</time>
      </trkpt>
      <trkpt lat="48.17413" lon="-2.08718">
        <ele>142</ele>
        <time>2025-05-16T08:07:04Z</time>
      </trkpt>
      <trkpt lat="48.17412" lon="-2.08715">
        <ele>142</ele>
        <time>2025-05-16T08:07:05Z</time>
      </trkpt>
      <trkpt lat="48.17411" lon="-2.08711">
        <ele>142</ele>
        <time>2025-05-16T08:07:06Z</time>
      </trkpt>
      <trkpt lat="48.1741" lon="-2.08708">
        <ele>142</ele>
        <time>2025-05-16T08:07:07Z</time>
      </trkpt>
      <trkpt lat="48.17408" lon="-2.08705">
        <ele>142</ele>
        <time>2025-05-16T08:07:08Z</time>
      </trkpt>
      <trkpt lat="48.17407" lon="-2.08701">
        <ele>142</ele>
        <time>2025-05-16T08:07:09Z</time>
      </trkpt>
      <trkpt lat="48.17405" lon="-2.08698">
        <ele>142</ele>
        <time>2025-05-16T08:07:10Z</time>
      </trkpt>
      <trkpt lat="48.17404" lon="-2.08694">
        <ele>142</ele>
        <time>2025-05-16T08:07:11Z</time>
      </trkpt>
      <trkpt lat="48.17403" lon="-2.0869">
        <ele>142</ele>
        <time>2025-05-16T08:07:12Z</time>
      </trkpt>
      <trkpt lat="48.17402" lon="-2.08686">
        <ele>142</ele>
        <time>2025-05-16T08:07:13Z</time>
      </trkpt>
      <trkpt lat="48.174" lon="-2.08682">
        <ele>142</ele>
        <time>2025-05-16T08:07:14Z</time>
      </trkpt>
      <trkpt lat="48.17398" lon="-2.08678">
        <ele>142</ele>
        <time>2025-05-16T08:07:15Z</time>
      </trkpt>
      <trkpt lat="48.17397" lon="-2.08674">
        <ele>142</ele>
        <time>2025-05-16T08:07:16Z</time>
      </trkpt>
      <trkpt lat="48.17395" lon="-2.0867">
        <ele>143</ele>
        <time>2025-05-16T08:07:17Z</time>
      </trkpt>
      <trkpt lat="48.17394" lon="-2.08665">
        <ele>143</ele>
        <time>2025-05-16T08:07:18Z</time>
      </trkpt>
      <trkpt lat="48.17392" lon="-2.08661">
        <ele>143</ele>
        <time>2025-05-16T08:07:19Z</time>
      </trkpt>
      <trkpt lat="48.1739" lon="-2.08657">
        <ele>143</ele>
        <time>2025-05-16T08:07:20Z</time>
      </trkpt>
      <trkpt lat="48.17388" lon="-2.08653">
        <ele>143</ele>
        <time>2025-05-16T08:07:21Z</time>
      </trkpt>
      <trkpt lat="48.17387" lon="-2.08647">
        <ele>143</ele>
        <time>2025-05-16T08:07:22Z</time>
      </trkpt>
      <trkpt lat="48.17385" lon="-2.08643">
        <ele>142</ele>
        <time>2025-05-16T08:07:23Z</time>
      </trkpt>
      <trkpt lat="48.17383" lon="-2.08638">
        <ele>142</ele>
        <time>2025-05-16T08:07:24Z</time>
      </trkpt>
      <trkpt lat="48.17381" lon="-2.08633">
        <ele>142</ele>
        <time>2025-05-16T08:07:25Z</time>
      </trkpt>
      <trkpt lat="48.1738" lon="-2.08628">
        <ele>142</ele>
        <time>2025-05-16T08:07:26Z</time>
      </trkpt>
      <trkpt lat="48.17378" lon="-2.08623">
        <ele>143</ele>
        <time>2025-05-16T08:07:27Z</time>
      </trkpt>
      <trkpt lat="48.17376" lon="-2.08617">
        <ele>143</ele>
        <time>2025-05-16T08:07:28Z</time>
      </trkpt>
      <trkpt lat="48.17374" lon="-2.08612">
        <ele>143</ele>
        <time>2025-05-16T08:07:29Z</time>
      </trkpt>
      <trkpt lat="48.17372" lon="-2.08606">
        <ele>143</ele>
        <time>2025-05-16T08:07:30Z</time>
      </trkpt>
      <trkpt lat="48.1737" lon="-2.08601">
        <ele>143</ele>
        <time>2025-05-16T08:07:31Z</time>
      </trkpt>
      <trkpt lat="48.17368" lon="-2.08596">
        <ele>142</ele>
        <time>2025-05-16T08:07:32Z</time>
      </trkpt>
      <trkpt lat="48.17366" lon="-2.08591">
        <ele>142</ele>
        <time>2025-05-16T08:07:33Z</time>
      </trkpt>
      <trkpt lat="48.17364" lon="-2.08586">
        <ele>142</ele>
        <time>2025-05-16T08:07:34Z</time>
      </trkpt>
      <trkpt lat="48.17362" lon="-2.08581">
        <ele>142</ele>
        <time>2025-05-16T08:07:35Z</time>
      </trkpt>
      <trkpt lat="48.1736" lon="-2.08577">
        <ele>142</ele>
        <time>2025-05-16T08:07:36Z</time>
      </trkpt>
      <trkpt lat="48.17359" lon="-2.08571">
        <ele>142</ele>
        <time>2025-05-16T08:07:37Z</time>
      </trkpt>
      <trkpt lat="48.17357" lon="-2.08567">
        <ele>142</ele>
        <time>2025-05-16T08:07:38Z</time>
      </trkpt>
      <trkpt lat="48.17355" lon="-2.08563">
        <ele>142</ele>
        <time>2025-05-16T08:07:39Z</time>
      </trkpt>
      <trkpt lat="48.17354" lon="-2.0856">
        <ele>142</ele>
        <time>2025-05-16T08:07:40Z</time>
      </trkpt>
      <trkpt lat="48.17354" lon="-2.08558">
        <ele>142</ele>
        <time>2025-05-16T08:07:41Z</time>
      </trkpt>
      <trkpt lat="48.17353" lon="-2.08558">
        <ele>142</ele>
        <time>2025-05-16T08:07:42Z</time>
      </trkpt>
      <trkpt lat="48.17354" lon="-2.08558">
        <ele>142</ele>
        <time>2025-05-16T08:07:43Z</time>
      </trkpt>
      <trkpt lat="48.17354" lon="-2.08558">
        <ele>142</ele>
        <time>2025-05-16T08:07:44Z</time>
      </trkpt>
      <trkpt lat="48.17354" lon="-2.08558">
        <ele>142</ele>
        <time>2025-05-16T08:07:45Z</time>
      </trkpt>
      <trkpt lat="48.17354" lon="-2.08558">
        <ele>142</ele>
        <time>2025-05-16T08:07:46Z</time>
      </trkpt>
      <trkpt lat="48.17354" lon="-2.08558">
        <ele>142</ele>
        <time>2025-05-16T08:07:47Z</time>
      </trkpt>
      <trkpt lat="48.17354" lon="-2.08558">
        <ele>142</ele>
        <time>2025-05-16T08:07:48Z</time>
      </trkpt>
      <trkpt lat="48.17354" lon="-2.08558">
        <ele>142</ele>
        <time>2025-05-16T08:07:49Z</time>
      </trkpt>
      <trkpt lat="48.17354" lon="-2.08558">
        <ele>142</ele>
        <time>2025-05-16T08:07:50Z</time>
      </trkpt>
      <trkpt lat="48.17354" lon="-2.08558">
        <ele>142</ele>
        <time>2025-05-16T08:07:51Z</time>
      </trkpt>
      <trkpt lat="48.17354" lon="-2.08558">
        <ele>142</ele>
        <time>2025-05-16T08:07:52Z</time>
      </trkpt>
      <trkpt lat="48.17354" lon="-2.08558">
        <ele>142</ele>
        <time>2025-05-16T08:07:53Z</time>
      </trkpt>
      <trkpt lat="48.17354" lon="-2.08558">
        <ele>142</ele>
        <time>2025-05-16T08:07:54Z</time>
      </trkpt>
      <trkpt lat="48.17354" lon="-2.08558">
        <ele>142</ele>
        <time>2025-05-16T08:07:55Z</time>
      </trkpt>
      <trkpt lat="48.17354" lon="-2.08558">
        <ele>142</ele>
        <time>2025-05-16T08:07:56Z</time>
      </trkpt>
      <trkpt lat="48.17354" lon="-2.08558">
        <ele>142</ele>
        <time>2025-05-16T08:07:57Z</time>
      </trkpt>
      <trkpt lat="48.17354" lon="-2.08558">
        <ele>142</ele>
        <time>2025-05-16T08:07:58Z</time>
      </trkpt>
      <trkpt lat="48.17354" lon="-2.08558">
        <ele>142</ele>
        <time>2025-05-16T08:07:59Z</time>
      </trkpt>
      <trkpt lat="48.17354" lon="-2.08558">
        <ele>142</ele>
        <time>2025-05-16T08:08:00Z</time>
      </trkpt>
      <trkpt lat="48.17354" lon="-2.08558">
        <ele>142</ele>
        <time>2025-05-16T08:08:01Z</time>
      </trkpt>
      <trkpt lat="48.17354" lon="-2.08558">
        <ele>142</ele>
        <time>2025-05-16T08:08:02Z</time>
      </trkpt>
      <trkpt lat="48.17354" lon="-2.08558">
        <ele>142</ele>
        <time>2025-05-16T08:08:03Z</time>
      </trkpt>
      <trkpt lat="48.17354" lon="-2.08557">
        <ele>142</ele>
        <time>2025-05-16T08:08:04Z</time>
      </trkpt>
      <trkpt lat="48.17353" lon="-2.08555">
        <ele>143</ele>
        <time>2025-05-16T08:08:05Z</time>
      </trkpt>
      <trkpt lat="48.17353" lon="-2.08553">
        <ele>143</ele>
        <time>2025-05-16T08:08:06Z</time>
      </trkpt>
      <trkpt lat="48.17352" lon="-2.08551">
        <ele>143</ele>
        <time>2025-05-16T08:08:07Z</time>
      </trkpt>
      <trkpt lat="48.17351" lon="-2.08549">
        <ele>143</ele>
        <time>2025-05-16T08:08:08Z</time>
      </trkpt>
      <trkpt lat="48.1735" lon="-2.08546">
        <ele>144</ele>
        <time>2025-05-16T08:08:09Z</time>
      </trkpt>
      <trkpt lat="48.17349" lon="-2.08543">
        <ele>144</ele>
        <time>2025-05-16T08:08:10Z</time>
      </trkpt>
      <trkpt lat="48.17348" lon="-2.0854">
        <ele>145</ele>
        <time>2025-05-16T08:08:11Z</time>
      </trkpt>
      <trkpt lat="48.17347" lon="-2.08537">
        <ele>144</ele>
        <time>2025-05-16T08:08:12Z</time>
      </trkpt>
      <trkpt lat="48.17346" lon="-2.08534">
        <ele>144</ele>
        <time>2025-05-16T08:08:13Z</time>
      </trkpt>
      <trkpt lat="48.17344" lon="-2.0853">
        <ele>144</ele>
        <time>2025-05-16T08:08:14Z</time>
      </trkpt>
      <trkpt lat="48.17343" lon="-2.08527">
        <ele>145</ele>
        <time>2025-05-16T08:08:15Z</time>
      </trkpt>
      <trkpt lat="48.17341" lon="-2.08523">
        <ele>144</ele>
        <time>2025-05-16T08:08:16Z</time>
      </trkpt>
      <trkpt lat="48.17339" lon="-2.08519">
        <ele>144</ele>
        <time>2025-05-16T08:08:17Z</time>
      </trkpt>
      <trkpt lat="48.17338" lon="-2.08515">
        <ele>144</ele>
        <time>2025-05-16T08:08:18Z</time>
      </trkpt>
      <trkpt lat="48.17336" lon="-2.0851">
        <ele>144</ele>
        <time>2025-05-16T08:08:19Z</time>
      </trkpt>
      <trkpt lat="48.17334" lon="-2.08506">
        <ele>144</ele>
        <time>2025-05-16T08:08:20Z</time>
      </trkpt>
      <trkpt lat="48.17333" lon="-2.08502">
        <ele>144</ele>
        <time>2025-05-16T08:08:21Z</time>
      </trkpt>
      <trkpt lat="48.17331" lon="-2.08497">
        <ele>144</ele>
        <time>2025-05-16T08:08:22Z</time>
      </trkpt>
      <trkpt lat="48.1733" lon="-2.08493">
        <ele>144</ele>
        <time>2025-05-16T08:08:23Z</time>
      </trkpt>
      <trkpt lat="48.17328" lon="-2.08489">
        <ele>144</ele>
        <time>2025-05-16T08:08:24Z</time>
      </trkpt>
      <trkpt lat="48.17327" lon="-2.08484">
        <ele>144</ele>
        <time>2025-05-16T08:08:25Z</time>
      </trkpt>
      <trkpt lat="48.17325" lon="-2.0848">
        <ele>144</ele>
        <time>2025-05-16T08:08:26Z</time>
      </trkpt>
      <trkpt lat="48.17324" lon="-2.08475">
        <ele>145</ele>
        <time>2025-05-16T08:08:27Z</time>
      </trkpt>
      <trkpt lat="48.17322" lon="-2.08471">
        <ele>145</ele>
        <time>2025-05-16T08:08:28Z</time>
      </trkpt>
      <trkpt lat="48.1732" lon="-2.08466">
        <ele>145</ele>
        <time>2025-05-16T08:08:29Z</time>
      </trkpt>
      <trkpt lat="48.17319" lon="-2.08461">
        <ele>145</ele>
        <time>2025-05-16T08:08:30Z</time>
      </trkpt>
      <trkpt lat="48.17318" lon="-2.08457">
        <ele>144</ele>
        <time>2025-05-16T08:08:31Z</time>
      </trkpt>
      <trkpt lat="48.17316" lon="-2.08452">
        <ele>144</ele>
        <time>2025-05-16T08:08:32Z</time>
      </trkpt>
      <trkpt lat="48.17315" lon="-2.08447">
        <ele>144</ele>
        <time>2025-05-16T08:08:33Z</time>
      </trkpt>
      <trkpt lat="48.17314" lon="-2.08443">
        <ele>144</ele>
        <time>2025-05-16T08:08:34Z</time>
      </trkpt>
      <trkpt lat="48.17312" lon="-2.08438">
        <ele>145</ele>
        <time>2025-05-16T08:08:35Z</time>
      </trkpt>
      <trkpt lat="48.17311" lon="-2.08433">
        <ele>145</ele>
        <time>2025-05-16T08:08:36Z</time>
      </trkpt>
      <trkpt lat="48.1731" lon="-2.08428">
        <ele>145</ele>
        <time>2025-05-16T08:08:37Z</time>
      </trkpt>
      <trkpt lat="48.17309" lon="-2.08423">
        <ele>144</ele>
        <time>2025-05-16T08:08:38Z</time>
      </trkpt>
      <trkpt lat="48.17308" lon="-2.08417">
        <ele>144</ele>
        <time>2025-05-16T08:08:39Z</time>
      </trkpt>
      <trkpt lat="48.17307" lon="-2.08412">
        <ele>145</ele>
        <time>2025-05-16T08:08:40Z</time>
      </trkpt>
      <trkpt lat="48.17305" lon="-2.08407">
        <ele>145</ele>
        <time>2025-05-16T08:08:41Z</time>
      </trkpt>
      <trkpt lat="48.17305" lon="-2.08402">
        <ele>145</ele>
        <time>2025-05-16T08:08:42Z</time>
      </trkpt>
      <trkpt lat="48.17304" lon="-2.08397">
        <ele>145</ele>
        <time>2025-05-16T08:08:43Z</time>
      </trkpt>
      <trkpt lat="48.17303" lon="-2.08392">
        <ele>145</ele>
        <time>2025-05-16T08:08:44Z</time>
      </trkpt>
      <trkpt lat="48.17302" lon="-2.08387">
        <ele>145</ele>
        <time>2025-05-16T08:08:45Z</time>
      </trkpt>
      <trkpt lat="48.17302" lon="-2.08382">
        <ele>145</ele>
        <time>2025-05-16T08:08:46Z</time>
      </trkpt>
      <trkpt lat="48.17301" lon="-2.08377">
        <ele>146</ele>
        <time>2025-05-16T08:08:47Z</time>
      </trkpt>
      <trkpt lat="48.173" lon="-2.08372">
        <ele>146</ele>
        <time>2025-05-16T08:08:48Z</time>
      </trkpt>
      <trkpt lat="48.173" lon="-2.08367">
        <ele>146</ele>
        <time>2025-05-16T08:08:49Z</time>
      </trkpt>
      <trkpt lat="48.17299" lon="-2.08362">
        <ele>147</ele>
        <time>2025-05-16T08:08:50Z</time>
      </trkpt>
      <trkpt lat="48.17298" lon="-2.08357">
        <ele>147</ele>
        <time>2025-05-16T08:08:51Z</time>
      </trkpt>
      <trkpt lat="48.17298" lon="-2.08352">
        <ele>147</ele>
        <time>2025-05-16T08:08:52Z</time>
      </trkpt>
      <trkpt lat="48.17298" lon="-2.08347">
        <ele>148</ele>
        <time>2025-05-16T08:08:53Z</time>
      </trkpt>
      <trkpt lat="48.17297" lon="-2.08342">
        <ele>148</ele>
        <time>2025-05-16T08:08:54Z</time>
      </trkpt>
      <trkpt lat="48.17297" lon="-2.08337">
        <ele>148</ele>
        <time>2025-05-16T08:08:55Z</time>
      </trkpt>
      <trkpt lat="48.17296" lon="-2.08332">
        <ele>148</ele>
        <time>2025-05-16T08:08:56Z</time>
      </trkpt>
      <trkpt lat="48.17296" lon="-2.08328">
        <ele>148</ele>
        <time>2025-05-16T08:08:57Z</time>
      </trkpt>
      <trkpt lat="48.17295" lon="-2.08324">
        <ele>148</ele>
        <time>2025-05-16T08:08:58Z</time>
      </trkpt>
      <trkpt lat="48.17295" lon="-2.08319">
        <ele>148</ele>
        <time>2025-05-16T08:08:59Z</time>
      </trkpt>
      <trkpt lat="48.17294" lon="-2.08314">
        <ele>148</ele>
        <time>2025-05-16T08:09:00Z</time>
      </trkpt>
      <trkpt lat="48.17294" lon="-2.0831">
        <ele>148</ele>
        <time>2025-05-16T08:09:01Z</time>
      </trkpt>
      <trkpt lat="48.17293" lon="-2.08305">
        <ele>148</ele>
        <time>2025-05-16T08:09:02Z</time>
      </trkpt>
      <trkpt lat="48.17293" lon="-2.08301">
        <ele>149</ele>
        <time>2025-05-16T08:09:03Z</time>
      </trkpt>
      <trkpt lat="48.17292" lon="-2.08297">
        <ele>149</ele>
        <time>2025-05-16T08:09:04Z</time>
      </trkpt>
      <trkpt lat="48.17292" lon="-2.08292">
        <ele>149</ele>
        <time>2025-05-16T08:09:05Z</time>
      </trkpt>
      <trkpt lat="48.17292" lon="-2.08288">
        <ele>149</ele>
        <time>2025-05-16T08:09:06Z</time>
      </trkpt>
      <trkpt lat="48.17291" lon="-2.08284">
        <ele>148</ele>
        <time>2025-05-16T08:09:07Z</time>
      </trkpt>
      <trkpt lat="48.17291" lon="-2.0828">
        <ele>148</ele>
        <time>2025-05-16T08:09:08Z</time>
      </trkpt>
      <trkpt lat="48.1729" lon="-2.08276">
        <ele>148</ele>
        <time>2025-05-16T08:09:09Z</time>
      </trkpt>
      <trkpt lat="48.1729" lon="-2.08271">
        <ele>148</ele>
        <time>2025-05-16T08:09:10Z</time>
      </trkpt>
      <trkpt lat="48.1729" lon="-2.08266">
        <ele>149</ele>
        <time>2025-05-16T08:09:11Z</time>
      </trkpt>
      <trkpt lat="48.17289" lon="-2.08262">
        <ele>149</ele>
        <time>2025-05-16T08:09:12Z</time>
      </trkpt>
      <trkpt lat="48.17289" lon="-2.08257">
        <ele>149</ele>
        <time>2025-05-16T08:09:13Z</time>
      </trkpt>
      <trkpt lat="48.17288" lon="-2.08252">
        <ele>149</ele>
        <time>2025-05-16T08:09:14Z</time>
      </trkpt>
      <trkpt lat="48.17288" lon="-2.08247">
        <ele>150</ele>
        <time>2025-05-16T08:09:15Z</time>
      </trkpt>
      <trkpt lat="48.17287" lon="-2.08243">
        <ele>149</ele>
        <time>2025-05-16T08:09:16Z</time>
      </trkpt>
      <trkpt lat="48.17286" lon="-2.08239">
        <ele>149</ele>
        <time>2025-05-16T08:09:17Z</time>
      </trkpt>
      <trkpt lat="48.17286" lon="-2.08234">
        <ele>149</ele>
        <time>2025-05-16T08:09:18Z</time>
      </trkpt>
      <trkpt lat="48.17285" lon="-2.08229">
        <ele>149</ele>
        <time>2025-05-16T08:09:19Z</time>
      </trkpt>
      <trkpt lat="48.17285" lon="-2.08225">
        <ele>149</ele>
        <time>2025-05-16T08:09:20Z</time>
      </trkpt>
      <trkpt lat="48.17285" lon="-2.0822">
        <ele>149</ele>
        <time>2025-05-16T08:09:21Z</time>
      </trkpt>
      <trkpt lat="48.17285" lon="-2.08215">
        <ele>149</ele>
        <time>2025-05-16T08:09:22Z</time>
      </trkpt>
      <trkpt lat="48.17284" lon="-2.0821">
        <ele>148</ele>
        <time>2025-05-16T08:09:23Z</time>
      </trkpt>
      <trkpt lat="48.17284" lon="-2.08206">
        <ele>148</ele>
        <time>2025-05-16T08:09:24Z</time>
      </trkpt>
      <trkpt lat="48.17283" lon="-2.08201">
        <ele>148</ele>
        <time>2025-05-16T08:09:25Z</time>
      </trkpt>
      <trkpt lat="48.17282" lon="-2.08196">
        <ele>148</ele>
        <time>2025-05-16T08:09:26Z</time>
      </trkpt>
      <trkpt lat="48.17282" lon="-2.08191">
        <ele>149</ele>
        <time>2025-05-16T08:09:27Z</time>
      </trkpt>
      <trkpt lat="48.17281" lon="-2.08186">
        <ele>149</ele>
        <time>2025-05-16T08:09:28Z</time>
      </trkpt>
      <trkpt lat="48.17281" lon="-2.0818">
        <ele>149</ele>
        <time>2025-05-16T08:09:29Z</time>
      </trkpt>
      <trkpt lat="48.1728" lon="-2.08175">
        <ele>149</ele>
        <time>2025-05-16T08:09:30Z</time>
      </trkpt>
      <trkpt lat="48.1728" lon="-2.0817">
        <ele>149</ele>
        <time>2025-05-16T08:09:31Z</time>
      </trkpt>
      <trkpt lat="48.17279" lon="-2.08164">
        <ele>149</ele>
        <time>2025-05-16T08:09:32Z</time>
      </trkpt>
      <trkpt lat="48.17278" lon="-2.08159">
        <ele>149</ele>
        <time>2025-05-16T08:09:33Z</time>
      </trkpt>
      <trkpt lat="48.17277" lon="-2.08154">
        <ele>149</ele>
        <time>2025-05-16T08:09:34Z</time>
      </trkpt>
      <trkpt lat="48.17277" lon="-2.08148">
        <ele>149</ele>
        <time>2025-05-16T08:09:35Z</time>
      </trkpt>
      <trkpt lat="48.17276" lon="-2.08143">
        <ele>149</ele>
        <time>2025-05-16T08:09:36Z</time>
      </trkpt>
      <trkpt lat="48.17276" lon="-2.08137">
        <ele>149</ele>
        <time>2025-05-16T08:09:37Z</time>
      </trkpt>
      <trkpt lat="48.17275" lon="-2.08132">
        <ele>148</ele>
        <time>2025-05-16T08:09:38Z</time>
      </trkpt>
      <trkpt lat="48.17275" lon="-2.08127">
        <ele>148</ele>
        <time>2025-05-16T08:09:39Z</time>
      </trkpt>
      <trkpt lat="48.17274" lon="-2.08121">
        <ele>148</ele>
        <time>2025-05-16T08:09:40Z</time>
      </trkpt>
      <trkpt lat="48.17274" lon="-2.08116">
        <ele>148</ele>
        <time>2025-05-16T08:09:41Z</time>
      </trkpt>
      <trkpt lat="48.17273" lon="-2.0811">
        <ele>147</ele>
        <time>2025-05-16T08:09:42Z</time>
      </trkpt>
      <trkpt lat="48.17273" lon="-2.08105">
        <ele>147</ele>
        <time>2025-05-16T08:09:43Z</time>
      </trkpt>
      <trkpt lat="48.17272" lon="-2.08099">
        <ele>147</ele>
        <time>2025-05-16T08:09:44Z</time>
      </trkpt>
      <trkpt lat="48.17272" lon="-2.08093">
        <ele>147</ele>
        <time>2025-05-16T08:09:45Z</time>
      </trkpt>
      <trkpt lat="48.17271" lon="-2.08088">
        <ele>148</ele>
        <time>2025-05-16T08:09:46Z</time>
      </trkpt>
      <trkpt lat="48.17271" lon="-2.08083">
        <ele>148</ele>
        <time>2025-05-16T08:09:47Z</time>
      </trkpt>
      <trkpt lat="48.1727" lon="-2.08078">
        <ele>148</ele>
        <time>2025-05-16T08:09:48Z</time>
      </trkpt>
      <trkpt lat="48.1727" lon="-2.08072">
        <ele>148</ele>
        <time>2025-05-16T08:09:49Z</time>
      </trkpt>
      <trkpt lat="48.17269" lon="-2.08067">
        <ele>148</ele>
        <time>2025-05-16T08:09:50Z</time>
      </trkpt>
      <trkpt lat="48.17268" lon="-2.08062">
        <ele>148</ele>
        <time>2025-05-16T08:09:51Z</time>
      </trkpt>
      <trkpt lat="48.17268" lon="-2.08057">
        <ele>148</ele>
        <time>2025-05-16T08:09:52Z</time>
      </trkpt>
      <trkpt lat="48.17267" lon="-2.08051">
        <ele>148</ele>
        <time>2025-05-16T08:09:53Z</time>
      </trkpt>
      <trkpt lat="48.17267" lon="-2.08046">
        <ele>148</ele>
        <time>2025-05-16T08:09:54Z</time>
      </trkpt>
      <trkpt lat="48.17266" lon="-2.08041">
        <ele>148</ele>
        <time>2025-05-16T08:09:55Z</time>
      </trkpt>
      <trkpt lat="48.17265" lon="-2.08035">
        <ele>148</ele>
        <time>2025-05-16T08:09:56Z</time>
      </trkpt>
      <trkpt lat="48.17265" lon="-2.08028">
        <ele>148</ele>
        <time>2025-05-16T08:09:57Z</time>
      </trkpt>
      <trkpt lat="48.17264" lon="-2.08022">
        <ele>148</ele>
        <time>2025-05-16T08:09:58Z</time>
      </trkpt>
      <trkpt lat="48.17263" lon="-2.08017">
        <ele>148</ele>
        <time>2025-05-16T08:09:59Z</time>
      </trkpt>
      <trkpt lat="48.17262" lon="-2.08011">
        <ele>149</ele>
        <time>2025-05-16T08:10:00Z</time>
      </trkpt>
      <trkpt lat="48.17262" lon="-2.08005">
        <ele>149</ele>
        <time>2025-05-16T08:10:01Z</time>
      </trkpt>
      <trkpt lat="48.17261" lon="-2.07999">
        <ele>149</ele>
        <time>2025-05-16T08:10:02Z</time>
      </trkpt>
      <trkpt lat="48.1726" lon="-2.07993">
        <ele>149</ele>
        <time>2025-05-16T08:10:03Z</time>
      </trkpt>
      <trkpt lat="48.1726" lon="-2.07988">
        <ele>148</ele>
        <time>2025-05-16T08:10:04Z</time>
      </trkpt>
      <trkpt lat="48.17259" lon="-2.07982">
        <ele>148</ele>
        <time>2025-05-16T08:10:05Z</time>
      </trkpt>
      <trkpt lat="48.17258" lon="-2.07976">
        <ele>148</ele>
        <time>2025-05-16T08:10:06Z</time>
      </trkpt>
      <trkpt lat="48.17257" lon="-2.07969">
        <ele>148</ele>
        <time>2025-05-16T08:10:07Z</time>
      </trkpt>
      <trkpt lat="48.17256" lon="-2.07963">
        <ele>147</ele>
        <time>2025-05-16T08:10:08Z</time>
      </trkpt>
      <trkpt lat="48.17254" lon="-2.07957">
        <ele>147</ele>
        <time>2025-05-16T08:10:09Z</time>
      </trkpt>
      <trkpt lat="48.17253" lon="-2.07952">
        <ele>147</ele>
        <time>2025-05-16T08:10:10Z</time>
      </trkpt>
      <trkpt lat="48.17251" lon="-2.07946">
        <ele>147</ele>
        <time>2025-05-16T08:10:11Z</time>
      </trkpt>
      <trkpt lat="48.1725" lon="-2.07941">
        <ele>147</ele>
        <time>2025-05-16T08:10:12Z</time>
      </trkpt>
      <trkpt lat="48.17248" lon="-2.07936">
        <ele>148</ele>
        <time>2025-05-16T08:10:13Z</time>
      </trkpt>
      <trkpt lat="48.17247" lon="-2.0793">
        <ele>148</ele>
        <time>2025-05-16T08:10:14Z</time>
      </trkpt>
      <trkpt lat="48.17245" lon="-2.07926">
        <ele>148</ele>
        <time>2025-05-16T08:10:15Z</time>
      </trkpt>
      <trkpt lat="48.17243" lon="-2.07921">
        <ele>148</ele>
        <time>2025-05-16T08:10:16Z</time>
      </trkpt>
      <trkpt lat="48.17241" lon="-2.07915">
        <ele>149</ele>
        <time>2025-05-16T08:10:17Z</time>
      </trkpt>
      <trkpt lat="48.17239" lon="-2.0791">
        <ele>149</ele>
        <time>2025-05-16T08:10:18Z</time>
      </trkpt>
      <trkpt lat="48.17236" lon="-2.07905">
        <ele>149</ele>
        <time>2025-05-16T08:10:19Z</time>
      </trkpt>
      <trkpt lat="48.17233" lon="-2.079">
        <ele>149</ele>
        <time>2025-05-16T08:10:20Z</time>
      </trkpt>
      <trkpt lat="48.1723" lon="-2.07895">
        <ele>149</ele>
        <time>2025-05-16T08:10:21Z</time>
      </trkpt>
      <trkpt lat="48.17228" lon="-2.0789">
        <ele>149</ele>
        <time>2025-05-16T08:10:22Z</time>
      </trkpt>
      <trkpt lat="48.17225" lon="-2.07885">
        <ele>149</ele>
        <time>2025-05-16T08:10:23Z</time>
      </trkpt>
      <trkpt lat="48.17222" lon="-2.07881">
        <ele>149</ele>
        <time>2025-05-16T08:10:24Z</time>
      </trkpt>
      <trkpt lat="48.1722" lon="-2.07876">
        <ele>149</ele>
        <time>2025-05-16T08:10:25Z</time>
      </trkpt>
      <trkpt lat="48.17217" lon="-2.07872">
        <ele>149</ele>
        <time>2025-05-16T08:10:26Z</time>
      </trkpt>
      <trkpt lat="48.17214" lon="-2.07868">
        <ele>149</ele>
        <time>2025-05-16T08:10:27Z</time>
      </trkpt>
      <trkpt lat="48.17211" lon="-2.07864">
        <ele>149</ele>
        <time>2025-05-16T08:10:28Z</time>
      </trkpt>
      <trkpt lat="48.17208" lon="-2.07859">
        <ele>149</ele>
        <time>2025-05-16T08:10:29Z</time>
      </trkpt>
      <trkpt lat="48.17204" lon="-2.07855">
        <ele>149</ele>
        <time>2025-05-16T08:10:30Z</time>
      </trkpt>
      <trkpt lat="48.17201" lon="-2.07851">
        <ele>149</ele>
        <time>2025-05-16T08:10:31Z</time>
      </trkpt>
      <trkpt lat="48.17198" lon="-2.07847">
        <ele>149</ele>
        <time>2025-05-16T08:10:32Z</time>
      </trkpt>
      <trkpt lat="48.17194" lon="-2.07844">
        <ele>149</ele>
        <time>2025-05-16T08:10:33Z</time>
      </trkpt>
      <trkpt lat="48.17191" lon="-2.0784">
        <ele>149</ele>
        <time>2025-05-16T08:10:34Z</time>
      </trkpt>
      <trkpt lat="48.17187" lon="-2.07836">
        <ele>148</ele>
        <time>2025-05-16T08:10:35Z</time>
      </trkpt>
      <trkpt lat="48.17184" lon="-2.07832">
        <ele>149</ele>
        <time>2025-05-16T08:10:36Z</time>
      </trkpt>
      <trkpt lat="48.17181" lon="-2.07829">
        <ele>149</ele>
        <time>2025-05-16T08:10:37Z</time>
      </trkpt>
      <trkpt lat="48.17177" lon="-2.07825">
        <ele>149</ele>
        <time>2025-05-16T08:10:38Z</time>
      </trkpt>
      <trkpt lat="48.17174" lon="-2.0782">
        <ele>149</ele>
        <time>2025-05-16T08:10:39Z</time>
      </trkpt>
      <trkpt lat="48.17171" lon="-2.07816">
        <ele>149</ele>
        <time>2025-05-16T08:10:40Z</time>
      </trkpt>
      <trkpt lat="48.17169" lon="-2.07812">
        <ele>149</ele>
        <time>2025-05-16T08:10:41Z</time>
      </trkpt>
      <trkpt lat="48.17166" lon="-2.07809">
        <ele>149</ele>
        <time>2025-05-16T08:10:42Z</time>
      </trkpt>
      <trkpt lat="48.17163" lon="-2.07805">
        <ele>150</ele>
        <time>2025-05-16T08:10:43Z</time>
      </trkpt>
      <trkpt lat="48.17159" lon="-2.07802">
        <ele>149</ele>
        <time>2025-05-16T08:10:44Z</time>
      </trkpt>
      <trkpt lat="48.17156" lon="-2.07799">
        <ele>149</ele>
        <time>2025-05-16T08:10:45Z</time>
      </trkpt>
      <trkpt lat="48.17153" lon="-2.07795">
        <ele>149</ele>
        <time>2025-05-16T08:10:46Z</time>
      </trkpt>
      <trkpt lat="48.17149" lon="-2.07791">
        <ele>149</ele>
        <time>2025-05-16T08:10:47Z</time>
      </trkpt>
      <trkpt lat="48.17146" lon="-2.07787">
        <ele>149</ele>
        <time>2025-05-16T08:10:48Z</time>
      </trkpt>
      <trkpt lat="48.17143" lon="-2.07784">
        <ele>149</ele>
        <time>2025-05-16T08:10:49Z</time>
      </trkpt>
      <trkpt lat="48.17139" lon="-2.0778">
        <ele>149</ele>
        <time>2025-05-16T08:10:50Z</time>
      </trkpt>
      <trkpt lat="48.17136" lon="-2.07776">
        <ele>149</ele>
        <time>2025-05-16T08:10:51Z</time>
      </trkpt>
      <trkpt lat="48.17133" lon="-2.07771">
        <ele>149</ele>
        <time>2025-05-16T08:10:52Z</time>
      </trkpt>
      <trkpt lat="48.17129" lon="-2.07768">
        <ele>149</ele>
        <time>2025-05-16T08:10:53Z</time>
      </trkpt>
      <trkpt lat="48.17126" lon="-2.07764">
        <ele>149</ele>
        <time>2025-05-16T08:10:54Z</time>
      </trkpt>
      <trkpt lat="48.17123" lon="-2.0776">
        <ele>149</ele>
        <time>2025-05-16T08:10:55Z</time>
      </trkpt>
      <trkpt lat="48.17119" lon="-2.07756">
        <ele>149</ele>
        <time>2025-05-16T08:10:56Z</time>
      </trkpt>
      <trkpt lat="48.17115" lon="-2.07752">
        <ele>149</ele>
        <time>2025-05-16T08:10:57Z</time>
      </trkpt>
      <trkpt lat="48.17112" lon="-2.07748">
        <ele>149</ele>
        <time>2025-05-16T08:10:58Z</time>
      </trkpt>
      <trkpt lat="48.17109" lon="-2.07744">
        <ele>149</ele>
        <time>2025-05-16T08:10:59Z</time>
      </trkpt>
      <trkpt lat="48.17105" lon="-2.07741">
        <ele>149</ele>
        <time>2025-05-16T08:11:00Z</time>
      </trkpt>
      <trkpt lat="48.17102" lon="-2.07736">
        <ele>149</ele>
        <time>2025-05-16T08:11:01Z</time>
      </trkpt>
      <trkpt lat="48.17099" lon="-2.07733">
        <ele>149</ele>
        <time>2025-05-16T08:11:02Z</time>
      </trkpt>
      <trkpt lat="48.17095" lon="-2.07728">
        <ele>150</ele>
        <time>2025-05-16T08:11:03Z</time>
      </trkpt>
      <trkpt lat="48.17092" lon="-2.07724">
        <ele>149</ele>
        <time>2025-05-16T08:11:04Z</time>
      </trkpt>
      <trkpt lat="48.17089" lon="-2.07719">
        <ele>149</ele>
        <time>2025-05-16T08:11:05Z</time>
      </trkpt>
      <trkpt lat="48.17086" lon="-2.07714">
        <ele>149</ele>
        <time>2025-05-16T08:11:06Z</time>
      </trkpt>
      <trkpt lat="48.17083" lon="-2.07709">
        <ele>149</ele>
        <time>2025-05-16T08:11:07Z</time>
      </trkpt>
      <trkpt lat="48.17081" lon="-2.07703">
        <ele>148</ele>
        <time>2025-05-16T08:11:08Z</time>
      </trkpt>
      <trkpt lat="48.17078" lon="-2.07697">
        <ele>148</ele>
        <time>2025-05-16T08:11:09Z</time>
      </trkpt>
      <trkpt lat="48.17076" lon="-2.07691">
        <ele>148</ele>
        <time>2025-05-16T08:11:10Z</time>
      </trkpt>
      <trkpt lat="48.17075" lon="-2.07685">
        <ele>148</ele>
        <time>2025-05-16T08:11:11Z</time>
      </trkpt>
      <trkpt lat="48.17074" lon="-2.07678">
        <ele>148</ele>
        <time>2025-05-16T08:11:12Z</time>
      </trkpt>
      <trkpt lat="48.17072" lon="-2.07671">
        <ele>148</ele>
        <time>2025-05-16T08:11:13Z</time>
      </trkpt>
      <trkpt lat="48.17072" lon="-2.07663">
        <ele>147</ele>
        <time>2025-05-16T08:11:14Z</time>
      </trkpt>
      <trkpt lat="48.17071" lon="-2.07656">
        <ele>147</ele>
        <time>2025-05-16T08:11:15Z</time>
      </trkpt>
      <trkpt lat="48.17069" lon="-2.07649">
        <ele>147</ele>
        <time>2025-05-16T08:11:16Z</time>
      </trkpt>
      <trkpt lat="48.17068" lon="-2.07641">
        <ele>147</ele>
        <time>2025-05-16T08:11:17Z</time>
      </trkpt>
      <trkpt lat="48.17067" lon="-2.07634">
        <ele>147</ele>
        <time>2025-05-16T08:11:18Z</time>
      </trkpt>
      <trkpt lat="48.17066" lon="-2.07626">
        <ele>147</ele>
        <time>2025-05-16T08:11:19Z</time>
      </trkpt>
      <trkpt lat="48.17065" lon="-2.07618">
        <ele>147</ele>
        <time>2025-05-16T08:11:20Z</time>
      </trkpt>
      <trkpt lat="48.17064" lon="-2.0761">
        <ele>147</ele>
        <time>2025-05-16T08:11:21Z</time>
      </trkpt>
      <trkpt lat="48.17063" lon="-2.07601">
        <ele>147</ele>
        <time>2025-05-16T08:11:22Z</time>
      </trkpt>
      <trkpt lat="48.17062" lon="-2.07593">
        <ele>147</ele>
        <time>2025-05-16T08:11:23Z</time>
      </trkpt>
      <trkpt lat="48.17061" lon="-2.07585">
        <ele>147</ele>
        <time>2025-05-16T08:11:24Z</time>
      </trkpt>
      <trkpt lat="48.1706" lon="-2.07576">
        <ele>147</ele>
        <time>2025-05-16T08:11:25Z</time>
      </trkpt>
      <trkpt lat="48.17058" lon="-2.07567">
        <ele>146</ele>
        <time>2025-05-16T08:11:26Z</time>
      </trkpt>
      <trkpt lat="48.17057" lon="-2.07558">
        <ele>146</ele>
        <time>2025-05-16T08:11:27Z</time>
      </trkpt>
      <trkpt lat="48.17055" lon="-2.07549">
        <ele>145</ele>
        <time>2025-05-16T08:11:28Z</time>
      </trkpt>
      <trkpt lat="48.17054" lon="-2.0754">
        <ele>145</ele>
        <time>2025-05-16T08:11:29Z</time>
      </trkpt>
      <trkpt lat="48.17053" lon="-2.0753">
        <ele>145</ele>
        <time>2025-05-16T08:11:30Z</time>
      </trkpt>
      <trkpt lat="48.17051" lon="-2.07521">
        <ele>145</ele>
        <time>2025-05-16T08:11:31Z</time>
      </trkpt>
      <trkpt lat="48.17049" lon="-2.07512">
        <ele>144</ele>
        <time>2025-05-16T08:11:32Z</time>
      </trkpt>
      <trkpt lat="48.17048" lon="-2.07503">
        <ele>144</ele>
        <time>2025-05-16T08:11:33Z</time>
      </trkpt>
      <trkpt lat="48.17046" lon="-2.07494">
        <ele>144</ele>
        <time>2025-05-16T08:11:34Z</time>
      </trkpt>
      <trkpt lat="48.17045" lon="-2.07485">
        <ele>144</ele>
        <time>2025-05-16T08:11:35Z</time>
      </trkpt>
      <trkpt lat="48.17044" lon="-2.07476">
        <ele>144</ele>
        <time>2025-05-16T08:11:36Z</time>
      </trkpt>
      <trkpt lat="48.17043" lon="-2.07467">
        <ele>144</ele>
        <time>2025-05-16T08:11:37Z</time>
      </trkpt>
      <trkpt lat="48.17042" lon="-2.07459">
        <ele>145</ele>
        <time>2025-05-16T08:11:38Z</time>
      </trkpt>
      <trkpt lat="48.17042" lon="-2.07451">
        <ele>145</ele>
        <time>2025-05-16T08:11:39Z</time>
      </trkpt>
      <trkpt lat="48.17042" lon="-2.07443">
        <ele>145</ele>
        <time>2025-05-16T08:11:40Z</time>
      </trkpt>
      <trkpt lat="48.17043" lon="-2.07435">
        <ele>145</ele>
        <time>2025-05-16T08:11:41Z</time>
      </trkpt>
      <trkpt lat="48.17044" lon="-2.07428">
        <ele>145</ele>
        <time>2025-05-16T08:11:42Z</time>
      </trkpt>
      <trkpt lat="48.17045" lon="-2.07421">
        <ele>145</ele>
        <time>2025-05-16T08:11:43Z</time>
      </trkpt>
      <trkpt lat="48.17046" lon="-2.07415">
        <ele>145</ele>
        <time>2025-05-16T08:11:44Z</time>
      </trkpt>
      <trkpt lat="48.17047" lon="-2.07409">
        <ele>145</ele>
        <time>2025-05-16T08:11:45Z</time>
      </trkpt>
      <trkpt lat="48.17049" lon="-2.07402">
        <ele>145</ele>
        <time>2025-05-16T08:11:46Z</time>
      </trkpt>
      <trkpt lat="48.17051" lon="-2.07397">
        <ele>145</ele>
        <time>2025-05-16T08:11:47Z</time>
      </trkpt>
      <trkpt lat="48.17052" lon="-2.07391">
        <ele>145</ele>
        <time>2025-05-16T08:11:48Z</time>
      </trkpt>
      <trkpt lat="48.17054" lon="-2.07385">
        <ele>145</ele>
        <time>2025-05-16T08:11:49Z</time>
      </trkpt>
      <trkpt lat="48.17055" lon="-2.0738">
        <ele>145</ele>
        <time>2025-05-16T08:11:50Z</time>
      </trkpt>
      <trkpt lat="48.17057" lon="-2.07374">
        <ele>145</ele>
        <time>2025-05-16T08:11:51Z</time>
      </trkpt>
      <trkpt lat="48.17058" lon="-2.07369">
        <ele>144</ele>
        <time>2025-05-16T08:11:52Z</time>
      </trkpt>
      <trkpt lat="48.17058" lon="-2.07364">
        <ele>144</ele>
        <time>2025-05-16T08:11:53Z</time>
      </trkpt>
      <trkpt lat="48.17059" lon="-2.07359">
        <ele>144</ele>
        <time>2025-05-16T08:11:54Z</time>
      </trkpt>
      <trkpt lat="48.1706" lon="-2.07354">
        <ele>144</ele>
        <time>2025-05-16T08:11:55Z</time>
      </trkpt>
      <trkpt lat="48.17061" lon="-2.07348">
        <ele>144</ele>
        <time>2025-05-16T08:11:56Z</time>
      </trkpt>
      <trkpt lat="48.17061" lon="-2.07342">
        <ele>144</ele>
        <time>2025-05-16T08:11:57Z</time>
      </trkpt>
      <trkpt lat="48.17062" lon="-2.07336">
        <ele>144</ele>
        <time>2025-05-16T08:11:58Z</time>
      </trkpt>
      <trkpt lat="48.17062" lon="-2.07329">
        <ele>144</ele>
        <time>2025-05-16T08:11:59Z</time>
      </trkpt>
      <trkpt lat="48.17062" lon="-2.07323">
        <ele>144</ele>
        <time>2025-05-16T08:12:00Z</time>
      </trkpt>
      <trkpt lat="48.17062" lon="-2.07316">
        <ele>144</ele>
        <time>2025-05-16T08:12:01Z</time>
      </trkpt>
      <trkpt lat="48.17061" lon="-2.07309">
        <ele>144</ele>
        <time>2025-05-16T08:12:02Z</time>
      </trkpt>
      <trkpt lat="48.17061" lon="-2.07302">
        <ele>143</ele>
        <time>2025-05-16T08:12:03Z</time>
      </trkpt>
      <trkpt lat="48.17059" lon="-2.07294">
        <ele>143</ele>
        <time>2025-05-16T08:12:04Z</time>
      </trkpt>
      <trkpt lat="48.17059" lon="-2.07286">
        <ele>143</ele>
        <time>2025-05-16T08:12:05Z</time>
      </trkpt>
      <trkpt lat="48.17058" lon="-2.07279">
        <ele>143</ele>
        <time>2025-05-16T08:12:06Z</time>
      </trkpt>
      <trkpt lat="48.17058" lon="-2.07271">
        <ele>143</ele>
        <time>2025-05-16T08:12:07Z</time>
      </trkpt>
      <trkpt lat="48.17057" lon="-2.07263">
        <ele>142</ele>
        <time>2025-05-16T08:12:08Z</time>
      </trkpt>
      <trkpt lat="48.17056" lon="-2.07254">
        <ele>142</ele>
        <time>2025-05-16T08:12:09Z</time>
      </trkpt>
      <trkpt lat="48.17055" lon="-2.07246">
        <ele>142</ele>
        <time>2025-05-16T08:12:10Z</time>
      </trkpt>
      <trkpt lat="48.17055" lon="-2.07237">
        <ele>142</ele>
        <time>2025-05-16T08:12:11Z</time>
      </trkpt>
      <trkpt lat="48.17054" lon="-2.07229">
        <ele>142</ele>
        <time>2025-05-16T08:12:12Z</time>
      </trkpt>
      <trkpt lat="48.17053" lon="-2.0722">
        <ele>143</ele>
        <time>2025-05-16T08:12:13Z</time>
      </trkpt>
      <trkpt lat="48.17052" lon="-2.07212">
        <ele>143</ele>
        <time>2025-05-16T08:12:14Z</time>
      </trkpt>
      <trkpt lat="48.17052" lon="-2.07203">
        <ele>142</ele>
        <time>2025-05-16T08:12:15Z</time>
      </trkpt>
      <trkpt lat="48.17051" lon="-2.07194">
        <ele>142</ele>
        <time>2025-05-16T08:12:16Z</time>
      </trkpt>
      <trkpt lat="48.1705" lon="-2.07185">
        <ele>142</ele>
        <time>2025-05-16T08:12:17Z</time>
      </trkpt>
      <trkpt lat="48.17049" lon="-2.07176">
        <ele>142</ele>
        <time>2025-05-16T08:12:18Z</time>
      </trkpt>
      <trkpt lat="48.17048" lon="-2.07167">
        <ele>142</ele>
        <time>2025-05-16T08:12:19Z</time>
      </trkpt>
      <trkpt lat="48.17047" lon="-2.07158">
        <ele>141</ele>
        <time>2025-05-16T08:12:20Z</time>
      </trkpt>
      <trkpt lat="48.17046" lon="-2.0715">
        <ele>141</ele>
        <time>2025-05-16T08:12:21Z</time>
      </trkpt>
      <trkpt lat="48.17046" lon="-2.07141">
        <ele>141</ele>
        <time>2025-05-16T08:12:22Z</time>
      </trkpt>
      <trkpt lat="48.17046" lon="-2.07132">
        <ele>140</ele>
        <time>2025-05-16T08:12:23Z</time>
      </trkpt>
      <trkpt lat="48.17045" lon="-2.07122">
        <ele>140</ele>
        <time>2025-05-16T08:12:24Z</time>
      </trkpt>
      <trkpt lat="48.17044" lon="-2.07113">
        <ele>140</ele>
        <time>2025-05-16T08:12:25Z</time>
      </trkpt>
      <trkpt lat="48.17043" lon="-2.07104">
        <ele>139</ele>
        <time>2025-05-16T08:12:26Z</time>
      </trkpt>
      <trkpt lat="48.17042" lon="-2.07095">
        <ele>139</ele>
        <time>2025-05-16T08:12:27Z</time>
      </trkpt>
      <trkpt lat="48.17041" lon="-2.07086">
        <ele>139</ele>
        <time>2025-05-16T08:12:28Z</time>
      </trkpt>
      <trkpt lat="48.1704" lon="-2.07077">
        <ele>139</ele>
        <time>2025-05-16T08:12:29Z</time>
      </trkpt>
      <trkpt lat="48.17039" lon="-2.07068">
        <ele>139</ele>
        <time>2025-05-16T08:12:30Z</time>
      </trkpt>
      <trkpt lat="48.17038" lon="-2.07059">
        <ele>139</ele>
        <time>2025-05-16T08:12:31Z</time>
      </trkpt>
      <trkpt lat="48.17036" lon="-2.07051">
        <ele>138</ele>
        <time>2025-05-16T08:12:32Z</time>
      </trkpt>
      <trkpt lat="48.17034" lon="-2.07042">
        <ele>138</ele>
        <time>2025-05-16T08:12:33Z</time>
      </trkpt>
      <trkpt lat="48.17031" lon="-2.07034">
        <ele>138</ele>
        <time>2025-05-16T08:12:34Z</time>
      </trkpt>
      <trkpt lat="48.17028" lon="-2.07026">
        <ele>138</ele>
        <time>2025-05-16T08:12:35Z</time>
      </trkpt>
      <trkpt lat="48.17024" lon="-2.07018">
        <ele>138</ele>
        <time>2025-05-16T08:12:36Z</time>
      </trkpt>
      <trkpt lat="48.1702" lon="-2.07011">
        <ele>138</ele>
        <time>2025-05-16T08:12:37Z</time>
      </trkpt>
      <trkpt lat="48.17016" lon="-2.07004">
        <ele>138</ele>
        <time>2025-05-16T08:12:38Z</time>
      </trkpt>
      <trkpt lat="48.17012" lon="-2.06996">
        <ele>138</ele>
        <time>2025-05-16T08:12:39Z</time>
      </trkpt>
      <trkpt lat="48.17008" lon="-2.06989">
        <ele>138</ele>
        <time>2025-05-16T08:12:40Z</time>
      </trkpt>
      <trkpt lat="48.17003" lon="-2.06981">
        <ele>138</ele>
        <time>2025-05-16T08:12:41Z</time>
      </trkpt>
      <trkpt lat="48.16999" lon="-2.06974">
        <ele>137</ele>
        <time>2025-05-16T08:12:42Z</time>
      </trkpt>
      <trkpt lat="48.16995" lon="-2.06966">
        <ele>137</ele>
        <time>2025-05-16T08:12:43Z</time>
      </trkpt>
      <trkpt lat="48.1699" lon="-2.06958">
        <ele>136</ele>
        <time>2025-05-16T08:12:44Z</time>
      </trkpt>
      <trkpt lat="48.16985" lon="-2.0695">
        <ele>136</ele>
        <time>2025-05-16T08:12:45Z</time>
      </trkpt>
      <trkpt lat="48.1698" lon="-2.06942">
        <ele>135</ele>
        <time>2025-05-16T08:12:46Z</time>
      </trkpt>
      <trkpt lat="48.16976" lon="-2.06934">
        <ele>135</ele>
        <time>2025-05-16T08:12:47Z</time>
      </trkpt>
      <trkpt lat="48.1697" lon="-2.06925">
        <ele>135</ele>
        <time>2025-05-16T08:12:48Z</time>
      </trkpt>
      <trkpt lat="48.16965" lon="-2.06917">
        <ele>134</ele>
        <time>2025-05-16T08:12:49Z</time>
      </trkpt>
      <trkpt lat="48.1696" lon="-2.06909">
        <ele>134</ele>
        <time>2025-05-16T08:12:50Z</time>
      </trkpt>
      <trkpt lat="48.16955" lon="-2.06902">
        <ele>134</ele>
        <time>2025-05-16T08:12:51Z</time>
      </trkpt>
      <trkpt lat="48.1695" lon="-2.06894">
        <ele>133</ele>
        <time>2025-05-16T08:12:52Z</time>
      </trkpt>
      <trkpt lat="48.16945" lon="-2.06887">
        <ele>133</ele>
        <time>2025-05-16T08:12:53Z</time>
      </trkpt>
      <trkpt lat="48.16941" lon="-2.0688">
        <ele>134</ele>
        <time>2025-05-16T08:12:54Z</time>
      </trkpt>
      <trkpt lat="48.16936" lon="-2.06873">
        <ele>133</ele>
        <time>2025-05-16T08:12:55Z</time>
      </trkpt>
      <trkpt lat="48.1693" lon="-2.06867">
        <ele>133</ele>
        <time>2025-05-16T08:12:56Z</time>
      </trkpt>
      <trkpt lat="48.16925" lon="-2.06861">
        <ele>133</ele>
        <time>2025-05-16T08:12:57Z</time>
      </trkpt>
      <trkpt lat="48.1692" lon="-2.06854">
        <ele>133</ele>
        <time>2025-05-16T08:12:58Z</time>
      </trkpt>
      <trkpt lat="48.16915" lon="-2.06848">
        <ele>133</ele>
        <time>2025-05-16T08:12:59Z</time>
      </trkpt>
      <trkpt lat="48.1691" lon="-2.06843">
        <ele>132</ele>
        <time>2025-05-16T08:13:00Z</time>
      </trkpt>
      <trkpt lat="48.16904" lon="-2.06838">
        <ele>133</ele>
        <time>2025-05-16T08:13:01Z</time>
      </trkpt>
      <trkpt lat="48.16899" lon="-2.06833">
        <ele>132</ele>
        <time>2025-05-16T08:13:02Z</time>
      </trkpt>
      <trkpt lat="48.16893" lon="-2.06829">
        <ele>131</ele>
        <time>2025-05-16T08:13:03Z</time>
      </trkpt>
      <trkpt lat="48.16887" lon="-2.06824">
        <ele>132</ele>
        <time>2025-05-16T08:13:04Z</time>
      </trkpt>
      <trkpt lat="48.16881" lon="-2.0682">
        <ele>132</ele>
        <time>2025-05-16T08:13:05Z</time>
      </trkpt>
      <trkpt lat="48.16876" lon="-2.06816">
        <ele>132</ele>
        <time>2025-05-16T08:13:06Z</time>
      </trkpt>
      <trkpt lat="48.1687" lon="-2.06812">
        <ele>132</ele>
        <time>2025-05-16T08:13:07Z</time>
      </trkpt>
      <trkpt lat="48.16865" lon="-2.06807">
        <ele>133</ele>
        <time>2025-05-16T08:13:08Z</time>
      </trkpt>
      <trkpt lat="48.1686" lon="-2.06802">
        <ele>134</ele>
        <time>2025-05-16T08:13:09Z</time>
      </trkpt>
      <trkpt lat="48.16855" lon="-2.06798">
        <ele>134</ele>
        <time>2025-05-16T08:13:10Z</time>
      </trkpt>
      <trkpt lat="48.1685" lon="-2.06794">
        <ele>135</ele>
        <time>2025-05-16T08:13:11Z</time>
      </trkpt>
      <trkpt lat="48.16845" lon="-2.0679">
        <ele>135</ele>
        <time>2025-05-16T08:13:12Z</time>
      </trkpt>
      <trkpt lat="48.1684" lon="-2.06787">
        <ele>135</ele>
        <time>2025-05-16T08:13:13Z</time>
      </trkpt>
      <trkpt lat="48.16835" lon="-2.06784">
        <ele>135</ele>
        <time>2025-05-16T08:13:14Z</time>
      </trkpt>
      <trkpt lat="48.1683" lon="-2.0678">
        <ele>136</ele>
        <time>2025-05-16T08:13:15Z</time>
      </trkpt>
      <trkpt lat="48.16826" lon="-2.06777">
        <ele>136</ele>
        <time>2025-05-16T08:13:16Z</time>
      </trkpt>
      <trkpt lat="48.16822" lon="-2.06774">
        <ele>136</ele>
        <time>2025-05-16T08:13:17Z</time>
      </trkpt>
      <trkpt lat="48.16818" lon="-2.06771">
        <ele>136</ele>
        <time>2025-05-16T08:13:18Z</time>
      </trkpt>
      <trkpt lat="48.16814" lon="-2.06768">
        <ele>137</ele>
        <time>2025-05-16T08:13:19Z</time>
      </trkpt>
      <trkpt lat="48.16811" lon="-2.06766">
        <ele>137</ele>
        <time>2025-05-16T08:13:20Z</time>
      </trkpt>
      <trkpt lat="48.16808" lon="-2.06764">
        <ele>137</ele>
        <time>2025-05-16T08:13:21Z</time>
      </trkpt>
      <trkpt lat="48.16805" lon="-2.06761">
        <ele>137</ele>
        <time>2025-05-16T08:13:22Z</time>
      </trkpt>
      <trkpt lat="48.16802" lon="-2.06759">
        <ele>137</ele>
        <time>2025-05-16T08:13:23Z</time>
      </trkpt>
      <trkpt lat="48.16798" lon="-2.06756">
        <ele>138</ele>
        <time>2025-05-16T08:13:24Z</time>
      </trkpt>
      <trkpt lat="48.16796" lon="-2.06755">
        <ele>138</ele>
        <time>2025-05-16T08:13:25Z</time>
      </trkpt>
      <trkpt lat="48.16793" lon="-2.06753">
        <ele>138</ele>
        <time>2025-05-16T08:13:26Z</time>
      </trkpt>
      <trkpt lat="48.1679" lon="-2.0675">
        <ele>139</ele>
        <time>2025-05-16T08:13:27Z</time>
      </trkpt>
      <trkpt lat="48.16787" lon="-2.06748">
        <ele>139</ele>
        <time>2025-05-16T08:13:28Z</time>
      </trkpt>
      <trkpt lat="48.16784" lon="-2.06745">
        <ele>139</ele>
        <time>2025-05-16T08:13:29Z</time>
      </trkpt>
      <trkpt lat="48.16781" lon="-2.06743">
        <ele>140</ele>
        <time>2025-05-16T08:13:30Z</time>
      </trkpt>
      <trkpt lat="48.16778" lon="-2.0674">
        <ele>139</ele>
        <time>2025-05-16T08:13:31Z</time>
      </trkpt>
      <trkpt lat="48.16776" lon="-2.06737">
        <ele>140</ele>
        <time>2025-05-16T08:13:32Z</time>
      </trkpt>
      <trkpt lat="48.16773" lon="-2.06734">
        <ele>140</ele>
        <time>2025-05-16T08:13:33Z</time>
      </trkpt>
      <trkpt lat="48.16771" lon="-2.06731">
        <ele>140</ele>
        <time>2025-05-16T08:13:34Z</time>
      </trkpt>
      <trkpt lat="48.16768" lon="-2.06728">
        <ele>141</ele>
        <time>2025-05-16T08:13:35Z</time>
      </trkpt>
      <trkpt lat="48.16766" lon="-2.06724">
        <ele>141</ele>
        <time>2025-05-16T08:13:36Z</time>
      </trkpt>
      <trkpt lat="48.16764" lon="-2.06721">
        <ele>141</ele>
        <time>2025-05-16T08:13:37Z</time>
      </trkpt>
      <trkpt lat="48.16761" lon="-2.06717">
        <ele>141</ele>
        <time>2025-05-16T08:13:38Z</time>
      </trkpt>
      <trkpt lat="48.16759" lon="-2.06714">
        <ele>141</ele>
        <time>2025-05-16T08:13:39Z</time>
      </trkpt>
      <trkpt lat="48.16756" lon="-2.0671">
        <ele>141</ele>
        <time>2025-05-16T08:13:40Z</time>
      </trkpt>
      <trkpt lat="48.16754" lon="-2.06706">
        <ele>141</ele>
        <time>2025-05-16T08:13:41Z</time>
      </trkpt>
      <trkpt lat="48.16751" lon="-2.06703">
        <ele>142</ele>
        <time>2025-05-16T08:13:42Z</time>
      </trkpt>
      <trkpt lat="48.16749" lon="-2.06699">
        <ele>141</ele>
        <time>2025-05-16T08:13:43Z</time>
      </trkpt>
      <trkpt lat="48.16746" lon="-2.06695">
        <ele>141</ele>
        <time>2025-05-16T08:13:44Z</time>
      </trkpt>
      <trkpt lat="48.16744" lon="-2.06692">
        <ele>142</ele>
        <time>2025-05-16T08:13:45Z</time>
      </trkpt>
      <trkpt lat="48.16742" lon="-2.06687">
        <ele>142</ele>
        <time>2025-05-16T08:13:46Z</time>
      </trkpt>
      <trkpt lat="48.1674" lon="-2.06683">
        <ele>142</ele>
        <time>2025-05-16T08:13:47Z</time>
      </trkpt>
      <trkpt lat="48.16738" lon="-2.06679">
        <ele>142</ele>
        <time>2025-05-16T08:13:48Z</time>
      </trkpt>
      <trkpt lat="48.16736" lon="-2.06674">
        <ele>141</ele>
        <time>2025-05-16T08:13:49Z</time>
      </trkpt>
      <trkpt lat="48.16733" lon="-2.0667">
        <ele>141</ele>
        <time>2025-05-16T08:13:50Z</time>
      </trkpt>
      <trkpt lat="48.16731" lon="-2.06666">
        <ele>141</ele>
        <time>2025-05-16T08:13:51Z</time>
      </trkpt>
      <trkpt lat="48.16729" lon="-2.06661">
        <ele>141</ele>
        <time>2025-05-16T08:13:52Z</time>
      </trkpt>
      <trkpt lat="48.16727" lon="-2.06657">
        <ele>141</ele>
        <time>2025-05-16T08:13:53Z</time>
      </trkpt>
      <trkpt lat="48.16725" lon="-2.06653">
        <ele>140</ele>
        <time>2025-05-16T08:13:54Z</time>
      </trkpt>
      <trkpt lat="48.16723" lon="-2.06648">
        <ele>139</ele>
        <time>2025-05-16T08:13:55Z</time>
      </trkpt>
      <trkpt lat="48.16721" lon="-2.06645">
        <ele>139</ele>
        <time>2025-05-16T08:13:56Z</time>
      </trkpt>
      <trkpt lat="48.16719" lon="-2.06641">
        <ele>140</ele>
        <time>2025-05-16T08:13:57Z</time>
      </trkpt>
      <trkpt lat="48.16716" lon="-2.06638">
        <ele>141</ele>
        <time>2025-05-16T08:13:58Z</time>
      </trkpt>
      <trkpt lat="48.16714" lon="-2.06634">
        <ele>141</ele>
        <time>2025-05-16T08:13:59Z</time>
      </trkpt>
      <trkpt lat="48.16711" lon="-2.06631">
        <ele>141</ele>
        <time>2025-05-16T08:14:00Z</time>
      </trkpt>
      <trkpt lat="48.16708" lon="-2.06628">
        <ele>142</ele>
        <time>2025-05-16T08:14:01Z</time>
      </trkpt>
      <trkpt lat="48.16706" lon="-2.06625">
        <ele>142</ele>
        <time>2025-05-16T08:14:02Z</time>
      </trkpt>
      <trkpt lat="48.16704" lon="-2.06622">
        <ele>142</ele>
        <time>2025-05-16T08:14:03Z</time>
      </trkpt>
      <trkpt lat="48.16702" lon="-2.0662">
        <ele>143</ele>
        <time>2025-05-16T08:14:04Z</time>
      </trkpt>
      <trkpt lat="48.167" lon="-2.06617">
        <ele>143</ele>
        <time>2025-05-16T08:14:05Z</time>
      </trkpt>
      <trkpt lat="48.16697" lon="-2.06615">
        <ele>143</ele>
        <time>2025-05-16T08:14:06Z</time>
      </trkpt>
      <trkpt lat="48.16695" lon="-2.06612">
        <ele>143</ele>
        <time>2025-05-16T08:14:07Z</time>
      </trkpt>
      <trkpt lat="48.16692" lon="-2.06611">
        <ele>143</ele>
        <time>2025-05-16T08:14:08Z</time>
      </trkpt>
      <trkpt lat="48.1669" lon="-2.06609">
        <ele>143</ele>
        <time>2025-05-16T08:14:09Z</time>
      </trkpt>
      <trkpt lat="48.16687" lon="-2.06607">
        <ele>143</ele>
        <time>2025-05-16T08:14:10Z</time>
      </trkpt>
      <trkpt lat="48.16685" lon="-2.06604">
        <ele>143</ele>
        <time>2025-05-16T08:14:11Z</time>
      </trkpt>
      <trkpt lat="48.16682" lon="-2.06602">
        <ele>143</ele>
        <time>2025-05-16T08:14:12Z</time>
      </trkpt>
      <trkpt lat="48.1668" lon="-2.066">
        <ele>144</ele>
        <time>2025-05-16T08:14:13Z</time>
      </trkpt>
      <trkpt lat="48.16677" lon="-2.06598">
        <ele>144</ele>
        <time>2025-05-16T08:14:14Z</time>
      </trkpt>
      <trkpt lat="48.16674" lon="-2.06597">
        <ele>144</ele>
        <time>2025-05-16T08:14:15Z</time>
      </trkpt>
      <trkpt lat="48.16672" lon="-2.06595">
        <ele>144</ele>
        <time>2025-05-16T08:14:16Z</time>
      </trkpt>
      <trkpt lat="48.1667" lon="-2.06592">
        <ele>144</ele>
        <time>2025-05-16T08:14:17Z</time>
      </trkpt>
      <trkpt lat="48.16668" lon="-2.0659">
        <ele>145</ele>
        <time>2025-05-16T08:14:18Z</time>
      </trkpt>
      <trkpt lat="48.16666" lon="-2.06588">
        <ele>144</ele>
        <time>2025-05-16T08:14:19Z</time>
      </trkpt>
      <trkpt lat="48.16663" lon="-2.06587">
        <ele>145</ele>
        <time>2025-05-16T08:14:20Z</time>
      </trkpt>
      <trkpt lat="48.16661" lon="-2.06586">
        <ele>145</ele>
        <time>2025-05-16T08:14:21Z</time>
      </trkpt>
      <trkpt lat="48.16659" lon="-2.06585">
        <ele>145</ele>
        <time>2025-05-16T08:14:22Z</time>
      </trkpt>
      <trkpt lat="48.16657" lon="-2.06584">
        <ele>146</ele>
        <time>2025-05-16T08:14:23Z</time>
      </trkpt>
      <trkpt lat="48.16655" lon="-2.06583">
        <ele>147</ele>
        <time>2025-05-16T08:14:24Z</time>
      </trkpt>
      <trkpt lat="48.16654" lon="-2.06582">
        <ele>147</ele>
        <time>2025-05-16T08:14:25Z</time>
      </trkpt>
      <trkpt lat="48.16652" lon="-2.06581">
        <ele>147</ele>
        <time>2025-05-16T08:14:26Z</time>
      </trkpt>
      <trkpt lat="48.16651" lon="-2.0658">
        <ele>147</ele>
        <time>2025-05-16T08:14:27Z</time>
      </trkpt>
      <trkpt lat="48.1665" lon="-2.0658">
        <ele>148</ele>
        <time>2025-05-16T08:14:28Z</time>
      </trkpt>
      <trkpt lat="48.16649" lon="-2.06579">
        <ele>148</ele>
        <time>2025-05-16T08:14:29Z</time>
      </trkpt>
      <trkpt lat="48.16648" lon="-2.06577">
        <ele>148</ele>
        <time>2025-05-16T08:14:30Z</time>
      </trkpt>
      <trkpt lat="48.16647" lon="-2.06577">
        <ele>147</ele>
        <time>2025-05-16T08:14:31Z</time>
      </trkpt>
      <trkpt lat="48.16646" lon="-2.06576">
        <ele>147</ele>
        <time>2025-05-16T08:14:32Z</time>
      </trkpt>
      <trkpt lat="48.16645" lon="-2.06576">
        <ele>147</ele>
        <time>2025-05-16T08:14:33Z</time>
      </trkpt>
      <trkpt lat="48.16645" lon="-2.06575">
        <ele>147</ele>
        <time>2025-05-16T08:14:34Z</time>
      </trkpt>
      <trkpt lat="48.16645" lon="-2.06575">
        <ele>147</ele>
        <time>2025-05-16T08:14:35Z</time>
      </trkpt>
      <trkpt lat="48.16643" lon="-2.06573">
        <ele>147</ele>
        <time>2025-05-16T08:14:36Z</time>
      </trkpt>
      <trkpt lat="48.16643" lon="-2.06571">
        <ele>147</ele>
        <time>2025-05-16T08:14:37Z</time>
      </trkpt>
      <trkpt lat="48.16643" lon="-2.06569">
        <ele>146</ele>
        <time>2025-05-16T08:14:38Z</time>
      </trkpt>
      <trkpt lat="48.16642" lon="-2.06567">
        <ele>146</ele>
        <time>2025-05-16T08:14:39Z</time>
      </trkpt>
      <trkpt lat="48.16642" lon="-2.06565">
        <ele>146</ele>
        <time>2025-05-16T08:14:40Z</time>
      </trkpt>
      <trkpt lat="48.16642" lon="-2.06564">
        <ele>147</ele>
        <time>2025-05-16T08:14:41Z</time>
      </trkpt>
      <trkpt lat="48.16642" lon="-2.06563">
        <ele>147</ele>
        <time>2025-05-16T08:14:42Z</time>
      </trkpt>
      <trkpt lat="48.16641" lon="-2.06562">
        <ele>147</ele>
        <time>2025-05-16T08:14:43Z</time>
      </trkpt>
      <trkpt lat="48.16641" lon="-2.06562">
        <ele>147</ele>
        <time>2025-05-16T08:14:44Z</time>
      </trkpt>
      <trkpt lat="48.16641" lon="-2.06561">
        <ele>147</ele>
        <time>2025-05-16T08:14:45Z</time>
      </trkpt>
      <trkpt lat="48.16641" lon="-2.06561">
        <ele>147</ele>
        <time>2025-05-16T08:14:46Z</time>
      </trkpt>
      <trkpt lat="48.16641" lon="-2.06561">
        <ele>147</ele>
        <time>2025-05-16T08:14:47Z</time>
      </trkpt>
      <trkpt lat="48.16641" lon="-2.06562">
        <ele>147</ele>
        <time>2025-05-16T08:14:48Z</time>
      </trkpt>
      <trkpt lat="48.16641" lon="-2.06562">
        <ele>147</ele>
        <time>2025-05-16T08:14:49Z</time>
      </trkpt>
      <trkpt lat="48.16641" lon="-2.06562">
        <ele>147</ele>
        <time>2025-05-16T08:14:50Z</time>
      </trkpt>
      <trkpt lat="48.16641" lon="-2.06562">
        <ele>147</ele>
        <time>2025-05-16T08:14:51Z</time>
      </trkpt>
      <trkpt lat="48.16641" lon="-2.06562">
        <ele>147</ele>
        <time>2025-05-16T08:14:52Z</time>
      </trkpt>
      <trkpt lat="48.16641" lon="-2.06562">
        <ele>147</ele>
        <time>2025-05-16T08:14:53Z</time>
      </trkpt>
      <trkpt lat="48.16641" lon="-2.06562">
        <ele>147</ele>
        <time>2025-05-16T08:14:54Z</time>
      </trkpt>
      <trkpt lat="48.16641" lon="-2.06562">
        <ele>147</ele>
        <time>2025-05-16T08:14:55Z</time>
      </trkpt>
      <trkpt lat="48.16641" lon="-2.06562">
        <ele>147</ele>
        <time>2025-05-16T08:14:56Z</time>
      </trkpt>
      <trkpt lat="48.16641" lon="-2.06562">
        <ele>147</ele>
        <time>2025-05-16T08:14:57Z</time>
      </trkpt>
      <trkpt lat="48.16641" lon="-2.06562">
        <ele>147</ele>
        <time>2025-05-16T08:14:58Z</time>
      </trkpt>
      <trkpt lat="48.16641" lon="-2.06562">
        <ele>147</ele>
        <time>2025-05-16T08:14:59Z</time>
      </trkpt>
      <trkpt lat="48.16641" lon="-2.06562">
        <ele>147</ele>
        <time>2025-05-16T08:15:00Z</time>
      </trkpt>
      <trkpt lat="48.16641" lon="-2.06562">
        <ele>147</ele>
        <time>2025-05-16T08:15:01Z</time>
      </trkpt>
      <trkpt lat="48.16642" lon="-2.06562">
        <ele>150</ele>
        <time>2025-05-16T08:15:02Z</time>
      </trkpt>
      <trkpt lat="48.16643" lon="-2.06564">
        <ele>150</ele>
        <time>2025-05-16T08:15:03Z</time>
      </trkpt>
      <trkpt lat="48.16643" lon="-2.06565">
        <ele>150</ele>
        <time>2025-05-16T08:15:04Z</time>
      </trkpt>
      <trkpt lat="48.16642" lon="-2.06566">
        <ele>150</ele>
        <time>2025-05-16T08:15:05Z</time>
      </trkpt>
      <trkpt lat="48.1664" lon="-2.06567">
        <ele>150</ele>
        <time>2025-05-16T08:15:06Z</time>
      </trkpt>
      <trkpt lat="48.16639" lon="-2.06568">
        <ele>150</ele>
        <time>2025-05-16T08:15:07Z</time>
      </trkpt>
      <trkpt lat="48.16637" lon="-2.06569">
        <ele>150</ele>
        <time>2025-05-16T08:15:08Z</time>
      </trkpt>
      <trkpt lat="48.16635" lon="-2.0657">
        <ele>149</ele>
        <time>2025-05-16T08:15:09Z</time>
      </trkpt>
      <trkpt lat="48.16633" lon="-2.06571">
        <ele>149</ele>
        <time>2025-05-16T08:15:10Z</time>
      </trkpt>
      <trkpt lat="48.16632" lon="-2.06572">
        <ele>149</ele>
        <time>2025-05-16T08:15:11Z</time>
      </trkpt>
      <trkpt lat="48.16631" lon="-2.06572">
        <ele>148</ele>
        <time>2025-05-16T08:15:12Z</time>
      </trkpt>
      <trkpt lat="48.1663" lon="-2.06573">
        <ele>148</ele>
        <time>2025-05-16T08:15:13Z</time>
      </trkpt>
      <trkpt lat="48.16629" lon="-2.06573">
        <ele>148</ele>
        <time>2025-05-16T08:15:14Z</time>
      </trkpt>
      <trkpt lat="48.16629" lon="-2.06573">
        <ele>148</ele>
        <time>2025-05-16T08:15:15Z</time>
      </trkpt>
      <trkpt lat="48.16629" lon="-2.06573">
        <ele>148</ele>
        <time>2025-05-16T08:15:16Z</time>
      </trkpt>
      <trkpt lat="48.16629" lon="-2.06573">
        <ele>148</ele>
        <time>2025-05-16T08:15:17Z</time>
      </trkpt>
      <trkpt lat="48.16629" lon="-2.06573">
        <ele>148</ele>
        <time>2025-05-16T08:15:18Z</time>
      </trkpt>
      <trkpt lat="48.16629" lon="-2.06573">
        <ele>148</ele>
        <time>2025-05-16T08:15:19Z</time>
      </trkpt>
      <trkpt lat="48.16629" lon="-2.06573">
        <ele>148</ele>
        <time>2025-05-16T08:15:20Z</time>
      </trkpt>
      <trkpt lat="48.16629" lon="-2.06573">
        <ele>148</ele>
        <time>2025-05-16T08:15:21Z</time>
      </trkpt>
      <trkpt lat="48.16629" lon="-2.06573">
        <ele>148</ele>
        <time>2025-05-16T08:15:22Z</time>
      </trkpt>
      <trkpt lat="48.16629" lon="-2.06573">
        <ele>148</ele>
        <time>2025-05-16T08:15:23Z</time>
      </trkpt>
      <trkpt lat="48.16629" lon="-2.06573">
        <ele>148</ele>
        <time>2025-05-16T08:15:24Z</time>
      </trkpt>
      <trkpt lat="48.16629" lon="-2.06573">
        <ele>148</ele>
        <time>2025-05-16T08:15:25Z</time>
      </trkpt>
      <trkpt lat="48.16629" lon="-2.06573">
        <ele>148</ele>
        <time>2025-05-16T08:15:26Z</time>
      </trkpt>
      <trkpt lat="48.16629" lon="-2.06573">
        <ele>148</ele>
        <time>2025-05-16T08:15:27Z</time>
      </trkpt>
      <trkpt lat="48.16629" lon="-2.06573">
        <ele>148</ele>
        <time>2025-05-16T08:15:28Z</time>
      </trkpt>
      <trkpt lat="48.16629" lon="-2.06573">
        <ele>148</ele>
        <time>2025-05-16T08:15:29Z</time>
      </trkpt>
      <trkpt lat="48.16629" lon="-2.06573">
        <ele>148</ele>
        <time>2025-05-16T08:15:30Z</time>
      </trkpt>
      <trkpt lat="48.16629" lon="-2.06573">
        <ele>148</ele>
        <time>2025-05-16T08:15:31Z</time>
      </trkpt>
      <trkpt lat="48.16629" lon="-2.06573">
        <ele>148</ele>
        <time>2025-05-16T08:15:32Z</time>
      </trkpt>
      <trkpt lat="48.16629" lon="-2.06573">
        <ele>148</ele>
        <time>2025-05-16T08:15:33Z</time>
      </trkpt>
      <trkpt lat="48.16629" lon="-2.06573">
        <ele>148</ele>
        <time>2025-05-16T08:15:34Z</time>
      </trkpt>
      <trkpt lat="48.16629" lon="-2.06573">
        <ele>148</ele>
        <time>2025-05-16T08:15:35Z</time>
      </trkpt>
      <trkpt lat="48.16629" lon="-2.06573">
        <ele>148</ele>
        <time>2025-05-16T08:15:36Z</time>
      </trkpt>
      <trkpt lat="48.16629" lon="-2.06573">
        <ele>148</ele>
        <time>2025-05-16T08:15:37Z</time>
      </trkpt>
      <trkpt lat="48.16632" lon="-2.06574">
        <ele>149</ele>
        <time>2025-05-16T08:15:38Z</time>
      </trkpt>
      <trkpt lat="48.16633" lon="-2.06574">
        <ele>150</ele>
        <time>2025-05-16T08:15:39Z</time>
      </trkpt>
      <trkpt lat="48.16634" lon="-2.06575">
        <ele>150</ele>
        <time>2025-05-16T08:15:40Z</time>
      </trkpt>
      <trkpt lat="48.16635" lon="-2.06575">
        <ele>150</ele>
        <time>2025-05-16T08:15:41Z</time>
      </trkpt>
      <trkpt lat="48.16636" lon="-2.06573">
        <ele>150</ele>
        <time>2025-05-16T08:15:42Z</time>
      </trkpt>
      <trkpt lat="48.16637" lon="-2.06571">
        <ele>150</ele>
        <time>2025-05-16T08:15:43Z</time>
      </trkpt>
      <trkpt lat="48.16638" lon="-2.0657">
        <ele>149</ele>
        <time>2025-05-16T08:15:44Z</time>
      </trkpt>
      <trkpt lat="48.16653" lon="-2.06495">
        <ele>145</ele>
        <time>2025-05-16T08:16:21Z</time>
      </trkpt>
      <trkpt lat="48.16654" lon="-2.0649">
        <ele>145</ele>
        <time>2025-05-16T08:16:22Z</time>
      </trkpt>
      <trkpt lat="48.16655" lon="-2.06486">
        <ele>145</ele>
        <time>2025-05-16T08:16:23Z</time>
      </trkpt>
      <trkpt lat="48.16657" lon="-2.06482">
        <ele>146</ele>
        <time>2025-05-16T08:16:24Z</time>
      </trkpt>
      <trkpt lat="48.16658" lon="-2.06477">
        <ele>145</ele>
        <time>2025-05-16T08:16:25Z</time>
      </trkpt>
      <trkpt lat="48.1666" lon="-2.06473">
        <ele>145</ele>
        <time>2025-05-16T08:16:26Z</time>
      </trkpt>
      <trkpt lat="48.16661" lon="-2.06468">
        <ele>144</ele>
        <time>2025-05-16T08:16:27Z</time>
      </trkpt>
      <trkpt lat="48.16662" lon="-2.06464">
        <ele>144</ele>
        <time>2025-05-16T08:16:28Z</time>
      </trkpt>
      <trkpt lat="48.16663" lon="-2.06461">
        <ele>144</ele>
        <time>2025-05-16T08:16:29Z</time>
      </trkpt>
      <trkpt lat="48.16664" lon="-2.06458">
        <ele>144</ele>
        <time>2025-05-16T08:16:30Z</time>
      </trkpt>
      <trkpt lat="48.16664" lon="-2.06455">
        <ele>144</ele>
        <time>2025-05-16T08:16:31Z</time>
      </trkpt>
      <trkpt lat="48.16663" lon="-2.06454">
        <ele>144</ele>
        <time>2025-05-16T08:16:32Z</time>
      </trkpt>
      <trkpt lat="48.16663" lon="-2.06453">
        <ele>144</ele>
        <time>2025-05-16T08:16:33Z</time>
      </trkpt>
      <trkpt lat="48.16663" lon="-2.06452">
        <ele>144</ele>
        <time>2025-05-16T08:16:34Z</time>
      </trkpt>
      <trkpt lat="48.16663" lon="-2.06453">
        <ele>144</ele>
        <time>2025-05-16T08:16:35Z</time>
      </trkpt>
      <trkpt lat="48.16663" lon="-2.06453">
        <ele>144</ele>
        <time>2025-05-16T08:16:36Z</time>
      </trkpt>
      <trkpt lat="48.16663" lon="-2.06453">
        <ele>144</ele>
        <time>2025-05-16T08:16:37Z</time>
      </trkpt>
      <trkpt lat="48.16666" lon="-2.06451">
        <ele>144</ele>
        <time>2025-05-16T08:16:38Z</time>
      </trkpt>
      <trkpt lat="48.16668" lon="-2.0645">
        <ele>145</ele>
        <time>2025-05-16T08:16:39Z</time>
      </trkpt>
      <trkpt lat="48.16669" lon="-2.0645">
        <ele>145</ele>
        <time>2025-05-16T08:16:40Z</time>
      </trkpt>
      <trkpt lat="48.16671" lon="-2.06449">
        <ele>145</ele>
        <time>2025-05-16T08:16:41Z</time>
      </trkpt>
      <trkpt lat="48.16672" lon="-2.06447">
        <ele>145</ele>
        <time>2025-05-16T08:16:42Z</time>
      </trkpt>
      <trkpt lat="48.16672" lon="-2.06445">
        <ele>144</ele>
        <time>2025-05-16T08:16:43Z</time>
      </trkpt>
      <trkpt lat="48.16671" lon="-2.06442">
        <ele>144</ele>
        <time>2025-05-16T08:16:44Z</time>
      </trkpt>
      <trkpt lat="48.1667" lon="-2.06438">
        <ele>144</ele>
        <time>2025-05-16T08:16:45Z</time>
      </trkpt>
      <trkpt lat="48.16669" lon="-2.06434">
        <ele>145</ele>
        <time>2025-05-16T08:16:46Z</time>
      </trkpt>
      <trkpt lat="48.16669" lon="-2.06431">
        <ele>146</ele>
        <time>2025-05-16T08:16:47Z</time>
      </trkpt>
      <trkpt lat="48.16669" lon="-2.06428">
        <ele>146</ele>
        <time>2025-05-16T08:16:48Z</time>
      </trkpt>
      <trkpt lat="48.16668" lon="-2.06425">
        <ele>147</ele>
        <time>2025-05-16T08:16:49Z</time>
      </trkpt>
      <trkpt lat="48.16669" lon="-2.06421">
        <ele>147</ele>
        <time>2025-05-16T08:16:50Z</time>
      </trkpt>
      <trkpt lat="48.16669" lon="-2.06417">
        <ele>147</ele>
        <time>2025-05-16T08:16:51Z</time>
      </trkpt>
      <trkpt lat="48.16669" lon="-2.06412">
        <ele>147</ele>
        <time>2025-05-16T08:16:52Z</time>
      </trkpt>
      <trkpt lat="48.16669" lon="-2.06408">
        <ele>146</ele>
        <time>2025-05-16T08:16:53Z</time>
      </trkpt>
      <trkpt lat="48.16669" lon="-2.06403">
        <ele>146</ele>
        <time>2025-05-16T08:16:54Z</time>
      </trkpt>
      <trkpt lat="48.16669" lon="-2.06399">
        <ele>146</ele>
        <time>2025-05-16T08:16:55Z</time>
      </trkpt>
      <trkpt lat="48.16669" lon="-2.06394">
        <ele>147</ele>
        <time>2025-05-16T08:16:56Z</time>
      </trkpt>
      <trkpt lat="48.16668" lon="-2.0639">
        <ele>147</ele>
        <time>2025-05-16T08:16:57Z</time>
      </trkpt>
      <trkpt lat="48.16666" lon="-2.06387">
        <ele>147</ele>
        <time>2025-05-16T08:16:58Z</time>
      </trkpt>
      <trkpt lat="48.16664" lon="-2.06383">
        <ele>147</ele>
        <time>2025-05-16T08:16:59Z</time>
      </trkpt>
      <trkpt lat="48.16661" lon="-2.06381">
        <ele>147</ele>
        <time>2025-05-16T08:17:00Z</time>
      </trkpt>
      <trkpt lat="48.16658" lon="-2.06377">
        <ele>147</ele>
        <time>2025-05-16T08:17:01Z</time>
      </trkpt>
      <trkpt lat="48.16655" lon="-2.06374">
        <ele>148</ele>
        <time>2025-05-16T08:17:02Z</time>
      </trkpt>
      <trkpt lat="48.16653" lon="-2.06372">
        <ele>148</ele>
        <time>2025-05-16T08:17:03Z</time>
      </trkpt>
      <trkpt lat="48.1665" lon="-2.06369">
        <ele>148</ele>
        <time>2025-05-16T08:17:04Z</time>
      </trkpt>
      <trkpt lat="48.16647" lon="-2.06367">
        <ele>149</ele>
        <time>2025-05-16T08:17:05Z</time>
      </trkpt>
      <trkpt lat="48.16645" lon="-2.06364">
        <ele>149</ele>
        <time>2025-05-16T08:17:06Z</time>
      </trkpt>
      <trkpt lat="48.16642" lon="-2.06361">
        <ele>149</ele>
        <time>2025-05-16T08:17:07Z</time>
      </trkpt>
      <trkpt lat="48.1664" lon="-2.06358">
        <ele>149</ele>
        <time>2025-05-16T08:17:08Z</time>
      </trkpt>
      <trkpt lat="48.16637" lon="-2.06356">
        <ele>149</ele>
        <time>2025-05-16T08:17:09Z</time>
      </trkpt>
      <trkpt lat="48.16634" lon="-2.06356">
        <ele>149</ele>
        <time>2025-05-16T08:17:10Z</time>
      </trkpt>
      <trkpt lat="48.1663" lon="-2.06358">
        <ele>149</ele>
        <time>2025-05-16T08:17:11Z</time>
      </trkpt>
      <trkpt lat="48.16627" lon="-2.06361">
        <ele>148</ele>
        <time>2025-05-16T08:17:12Z</time>
      </trkpt>
      <trkpt lat="48.16624" lon="-2.06363">
        <ele>148</ele>
        <time>2025-05-16T08:17:13Z</time>
      </trkpt>
      <trkpt lat="48.16621" lon="-2.06364">
        <ele>147</ele>
        <time>2025-05-16T08:17:14Z</time>
      </trkpt>
      <trkpt lat="48.16618" lon="-2.06365">
        <ele>147</ele>
        <time>2025-05-16T08:17:15Z</time>
      </trkpt>
      <trkpt lat="48.16615" lon="-2.06365">
        <ele>147</ele>
        <time>2025-05-16T08:17:16Z</time>
      </trkpt>
      <trkpt lat="48.16612" lon="-2.06366">
        <ele>147</ele>
        <time>2025-05-16T08:17:17Z</time>
      </trkpt>
      <trkpt lat="48.16609" lon="-2.06366">
        <ele>147</ele>
        <time>2025-05-16T08:17:18Z</time>
      </trkpt>
      <trkpt lat="48.16606" lon="-2.06367">
        <ele>147</ele>
        <time>2025-05-16T08:17:19Z</time>
      </trkpt>
      <trkpt lat="48.16603" lon="-2.06367">
        <ele>147</ele>
        <time>2025-05-16T08:17:20Z</time>
      </trkpt>
      <trkpt lat="48.166" lon="-2.06366">
        <ele>147</ele>
        <time>2025-05-16T08:17:21Z</time>
      </trkpt>
      <trkpt lat="48.16596" lon="-2.06367">
        <ele>147</ele>
        <time>2025-05-16T08:17:22Z</time>
      </trkpt>
      <trkpt lat="48.16593" lon="-2.06368">
        <ele>147</ele>
        <time>2025-05-16T08:17:23Z</time>
      </trkpt>
      <trkpt lat="48.1659" lon="-2.06368">
        <ele>147</ele>
        <time>2025-05-16T08:17:24Z</time>
      </trkpt>
      <trkpt lat="48.16587" lon="-2.06369">
        <ele>147</ele>
        <time>2025-05-16T08:17:25Z</time>
      </trkpt>
      <trkpt lat="48.16584" lon="-2.06369">
        <ele>148</ele>
        <time>2025-05-16T08:17:26Z</time>
      </trkpt>
      <trkpt lat="48.16581" lon="-2.0637">
        <ele>148</ele>
        <time>2025-05-16T08:17:27Z</time>
      </trkpt>
      <trkpt lat="48.16578" lon="-2.0637">
        <ele>148</ele>
        <time>2025-05-16T08:17:28Z</time>
      </trkpt>
      <trkpt lat="48.16575" lon="-2.0637">
        <ele>148</ele>
        <time>2025-05-16T08:17:29Z</time>
      </trkpt>
      <trkpt lat="48.16572" lon="-2.0637">
        <ele>148</ele>
        <time>2025-05-16T08:17:30Z</time>
      </trkpt>
      <trkpt lat="48.16569" lon="-2.06371">
        <ele>148</ele>
        <time>2025-05-16T08:17:31Z</time>
      </trkpt>
      <trkpt lat="48.16566" lon="-2.06372">
        <ele>148</ele>
        <time>2025-05-16T08:17:32Z</time>
      </trkpt>
      <trkpt lat="48.16563" lon="-2.06373">
        <ele>148</ele>
        <time>2025-05-16T08:17:33Z</time>
      </trkpt>
      <trkpt lat="48.16559" lon="-2.06373">
        <ele>147</ele>
        <time>2025-05-16T08:17:34Z</time>
      </trkpt>
      <trkpt lat="48.16556" lon="-2.06374">
        <ele>147</ele>
        <time>2025-05-16T08:17:35Z</time>
      </trkpt>
      <trkpt lat="48.16553" lon="-2.06375">
        <ele>147</ele>
        <time>2025-05-16T08:17:36Z</time>
      </trkpt>
      <trkpt lat="48.1655" lon="-2.06375">
        <ele>148</ele>
        <time>2025-05-16T08:17:37Z</time>
      </trkpt>
      <trkpt lat="48.16547" lon="-2.06377">
        <ele>148</ele>
        <time>2025-05-16T08:17:38Z</time>
      </trkpt>
      <trkpt lat="48.16543" lon="-2.06378">
        <ele>148</ele>
        <time>2025-05-16T08:17:39Z</time>
      </trkpt>
      <trkpt lat="48.1654" lon="-2.0638">
        <ele>148</ele>
        <time>2025-05-16T08:17:40Z</time>
      </trkpt>
      <trkpt lat="48.16537" lon="-2.0638">
        <ele>148</ele>
        <time>2025-05-16T08:17:41Z</time>
      </trkpt>
      <trkpt lat="48.16534" lon="-2.06381">
        <ele>148</ele>
        <time>2025-05-16T08:17:42Z</time>
      </trkpt>
      <trkpt lat="48.16531" lon="-2.06382">
        <ele>148</ele>
        <time>2025-05-16T08:17:43Z</time>
      </trkpt>
      <trkpt lat="48.16528" lon="-2.06383">
        <ele>148</ele>
        <time>2025-05-16T08:17:44Z</time>
      </trkpt>
      <trkpt lat="48.16524" lon="-2.06384">
        <ele>148</ele>
        <time>2025-05-16T08:17:45Z</time>
      </trkpt>
      <trkpt lat="48.16522" lon="-2.06385">
        <ele>148</ele>
        <time>2025-05-16T08:17:46Z</time>
      </trkpt>
      <trkpt lat="48.16518" lon="-2.06386">
        <ele>149</ele>
        <time>2025-05-16T08:17:47Z</time>
      </trkpt>
      <trkpt lat="48.16515" lon="-2.06387">
        <ele>149</ele>
        <time>2025-05-16T08:17:48Z</time>
      </trkpt>
      <trkpt lat="48.16512" lon="-2.06388">
        <ele>149</ele>
        <time>2025-05-16T08:17:49Z</time>
      </trkpt>
      <trkpt lat="48.16509" lon="-2.0639">
        <ele>148</ele>
        <time>2025-05-16T08:17:50Z</time>
      </trkpt>
      <trkpt lat="48.16506" lon="-2.0639">
        <ele>149</ele>
        <time>2025-05-16T08:17:51Z</time>
      </trkpt>
      <trkpt lat="48.16503" lon="-2.06391">
        <ele>149</ele>
        <time>2025-05-16T08:17:52Z</time>
      </trkpt>
      <trkpt lat="48.165" lon="-2.0639">
        <ele>149</ele>
        <time>2025-05-16T08:17:53Z</time>
      </trkpt>
      <trkpt lat="48.16496" lon="-2.06391">
        <ele>150</ele>
        <time>2025-05-16T08:17:54Z</time>
      </trkpt>
      <trkpt lat="48.16493" lon="-2.06392">
        <ele>150</ele>
        <time>2025-05-16T08:17:55Z</time>
      </trkpt>
      <trkpt lat="48.1649" lon="-2.06393">
        <ele>150</ele>
        <time>2025-05-16T08:17:56Z</time>
      </trkpt>
      <trkpt lat="48.16487" lon="-2.06394">
        <ele>151</ele>
        <time>2025-05-16T08:17:57Z</time>
      </trkpt>
      <trkpt lat="48.16484" lon="-2.06394">
        <ele>151</ele>
        <time>2025-05-16T08:17:58Z</time>
      </trkpt>
      <trkpt lat="48.1648" lon="-2.06395">
        <ele>151</ele>
        <time>2025-05-16T08:17:59Z</time>
      </trkpt>
      <trkpt lat="48.16477" lon="-2.06396">
        <ele>152</ele>
        <time>2025-05-16T08:18:00Z</time>
      </trkpt>
      <trkpt lat="48.16474" lon="-2.06398">
        <ele>152</ele>
        <time>2025-05-16T08:18:01Z</time>
      </trkpt>
      <trkpt lat="48.16471" lon="-2.06399">
        <ele>152</ele>
        <time>2025-05-16T08:18:02Z</time>
      </trkpt>
      <trkpt lat="48.16468" lon="-2.064">
        <ele>151</ele>
        <time>2025-05-16T08:18:03Z</time>
      </trkpt>
      <trkpt lat="48.16464" lon="-2.06401">
        <ele>151</ele>
        <time>2025-05-16T08:18:04Z</time>
      </trkpt>
      <trkpt lat="48.16461" lon="-2.06401">
        <ele>151</ele>
        <time>2025-05-16T08:18:05Z</time>
      </trkpt>
      <trkpt lat="48.16458" lon="-2.06402">
        <ele>150</ele>
        <time>2025-05-16T08:18:06Z</time>
      </trkpt>
      <trkpt lat="48.16455" lon="-2.06403">
        <ele>149</ele>
        <time>2025-05-16T08:18:07Z</time>
      </trkpt>
      <trkpt lat="48.16452" lon="-2.06404">
        <ele>149</ele>
        <time>2025-05-16T08:18:08Z</time>
      </trkpt>
      <trkpt lat="48.16449" lon="-2.06405">
        <ele>150</ele>
        <time>2025-05-16T08:18:09Z</time>
      </trkpt>
      <trkpt lat="48.16446" lon="-2.06406">
        <ele>150</ele>
        <time>2025-05-16T08:18:10Z</time>
      </trkpt>
      <trkpt lat="48.16442" lon="-2.06406">
        <ele>150</ele>
        <time>2025-05-16T08:18:11Z</time>
      </trkpt>
      <trkpt lat="48.16439" lon="-2.06407">
        <ele>150</ele>
        <time>2025-05-16T08:18:12Z</time>
      </trkpt>
      <trkpt lat="48.16436" lon="-2.06407">
        <ele>150</ele>
        <time>2025-05-16T08:18:13Z</time>
      </trkpt>
      <trkpt lat="48.16433" lon="-2.06407">
        <ele>150</ele>
        <time>2025-05-16T08:18:14Z</time>
      </trkpt>
      <trkpt lat="48.16429" lon="-2.06408">
        <ele>150</ele>
        <time>2025-05-16T08:18:15Z</time>
      </trkpt>
      <trkpt lat="48.16426" lon="-2.06409">
        <ele>149</ele>
        <time>2025-05-16T08:18:16Z</time>
      </trkpt>
      <trkpt lat="48.16423" lon="-2.06409">
        <ele>149</ele>
        <time>2025-05-16T08:18:17Z</time>
      </trkpt>
      <trkpt lat="48.1642" lon="-2.0641">
        <ele>149</ele>
        <time>2025-05-16T08:18:18Z</time>
      </trkpt>
      <trkpt lat="48.16417" lon="-2.06411">
        <ele>149</ele>
        <time>2025-05-16T08:18:19Z</time>
      </trkpt>
      <trkpt lat="48.16414" lon="-2.06412">
        <ele>149</ele>
        <time>2025-05-16T08:18:20Z</time>
      </trkpt>
      <trkpt lat="48.1641" lon="-2.06412">
        <ele>149</ele>
        <time>2025-05-16T08:18:21Z</time>
      </trkpt>
      <trkpt lat="48.16407" lon="-2.06413">
        <ele>149</ele>
        <time>2025-05-16T08:18:22Z</time>
      </trkpt>
      <trkpt lat="48.16404" lon="-2.06413">
        <ele>149</ele>
        <time>2025-05-16T08:18:23Z</time>
      </trkpt>
      <trkpt lat="48.16401" lon="-2.06413">
        <ele>149</ele>
        <time>2025-05-16T08:18:24Z</time>
      </trkpt>
      <trkpt lat="48.16398" lon="-2.06414">
        <ele>149</ele>
        <time>2025-05-16T08:18:25Z</time>
      </trkpt>
      <trkpt lat="48.16395" lon="-2.06414">
        <ele>149</ele>
        <time>2025-05-16T08:18:26Z</time>
      </trkpt>
      <trkpt lat="48.16393" lon="-2.06416">
        <ele>150</ele>
        <time>2025-05-16T08:18:27Z</time>
      </trkpt>
      <trkpt lat="48.1639" lon="-2.06417">
        <ele>150</ele>
        <time>2025-05-16T08:18:28Z</time>
      </trkpt>
      <trkpt lat="48.16387" lon="-2.06417">
        <ele>151</ele>
        <time>2025-05-16T08:18:29Z</time>
      </trkpt>
      <trkpt lat="48.16384" lon="-2.06418">
        <ele>151</ele>
        <time>2025-05-16T08:18:30Z</time>
      </trkpt>
      <trkpt lat="48.16381" lon="-2.06417">
        <ele>151</ele>
        <time>2025-05-16T08:18:31Z</time>
      </trkpt>
      <trkpt lat="48.16378" lon="-2.06417">
        <ele>151</ele>
        <time>2025-05-16T08:18:32Z</time>
      </trkpt>
      <trkpt lat="48.16375" lon="-2.06418">
        <ele>151</ele>
        <time>2025-05-16T08:18:33Z</time>
      </trkpt>
      <trkpt lat="48.16372" lon="-2.06418">
        <ele>151</ele>
        <time>2025-05-16T08:18:34Z</time>
      </trkpt>
      <trkpt lat="48.16369" lon="-2.06419">
        <ele>151</ele>
        <time>2025-05-16T08:18:35Z</time>
      </trkpt>
      <trkpt lat="48.16366" lon="-2.06419">
        <ele>151</ele>
        <time>2025-05-16T08:18:36Z</time>
      </trkpt>
      <trkpt lat="48.16363" lon="-2.0642">
        <ele>150</ele>
        <time>2025-05-16T08:18:37Z</time>
      </trkpt>
      <trkpt lat="48.1636" lon="-2.0642">
        <ele>150</ele>
        <time>2025-05-16T08:18:38Z</time>
      </trkpt>
      <trkpt lat="48.16357" lon="-2.06421">
        <ele>150</ele>
        <time>2025-05-16T08:18:39Z</time>
      </trkpt>
      <trkpt lat="48.16355" lon="-2.06422">
        <ele>150</ele>
        <time>2025-05-16T08:18:40Z</time>
      </trkpt>
      <trkpt lat="48.16354" lon="-2.06423">
        <ele>150</ele>
        <time>2025-05-16T08:18:41Z</time>
      </trkpt>
      <trkpt lat="48.16353" lon="-2.06423">
        <ele>150</ele>
        <time>2025-05-16T08:18:42Z</time>
      </trkpt>
      <trkpt lat="48.16353" lon="-2.06423">
        <ele>151</ele>
        <time>2025-05-16T08:18:43Z</time>
      </trkpt>
      <trkpt lat="48.16353" lon="-2.06423">
        <ele>151</ele>
        <time>2025-05-16T08:18:44Z</time>
      </trkpt>
      <trkpt lat="48.16353" lon="-2.06423">
        <ele>151</ele>
        <time>2025-05-16T08:18:45Z</time>
      </trkpt>
      <trkpt lat="48.16353" lon="-2.06423">
        <ele>151</ele>
        <time>2025-05-16T08:18:46Z</time>
      </trkpt>
      <trkpt lat="48.16353" lon="-2.06423">
        <ele>151</ele>
        <time>2025-05-16T08:18:47Z</time>
      </trkpt>
      <trkpt lat="48.16353" lon="-2.06423">
        <ele>151</ele>
        <time>2025-05-16T08:18:48Z</time>
      </trkpt>
      <trkpt lat="48.16353" lon="-2.06423">
        <ele>151</ele>
        <time>2025-05-16T08:18:49Z</time>
      </trkpt>
      <trkpt lat="48.16353" lon="-2.06423">
        <ele>151</ele>
        <time>2025-05-16T08:18:50Z</time>
      </trkpt>
      <trkpt lat="48.16353" lon="-2.06423">
        <ele>151</ele>
        <time>2025-05-16T08:18:51Z</time>
      </trkpt>
      <trkpt lat="48.16348" lon="-2.06423">
        <ele>152</ele>
        <time>2025-05-16T08:18:52Z</time>
      </trkpt>
      <trkpt lat="48.16345" lon="-2.06424">
        <ele>151</ele>
        <time>2025-05-16T08:18:53Z</time>
      </trkpt>
      <trkpt lat="48.16343" lon="-2.06425">
        <ele>151</ele>
        <time>2025-05-16T08:18:54Z</time>
      </trkpt>
      <trkpt lat="48.16341" lon="-2.06427">
        <ele>151</ele>
        <time>2025-05-16T08:18:55Z</time>
      </trkpt>
      <trkpt lat="48.1634" lon="-2.06429">
        <ele>151</ele>
        <time>2025-05-16T08:18:56Z</time>
      </trkpt>
      <trkpt lat="48.16338" lon="-2.06432">
        <ele>151</ele>
        <time>2025-05-16T08:18:57Z</time>
      </trkpt>
      <trkpt lat="48.16338" lon="-2.06436">
        <ele>152</ele>
        <time>2025-05-16T08:18:58Z</time>
      </trkpt>
      <trkpt lat="48.16338" lon="-2.06439">
        <ele>152</ele>
        <time>2025-05-16T08:18:59Z</time>
      </trkpt>
      <trkpt lat="48.16338" lon="-2.06443">
        <ele>152</ele>
        <time>2025-05-16T08:19:00Z</time>
      </trkpt>
      <trkpt lat="48.16339" lon="-2.06447">
        <ele>152</ele>
        <time>2025-05-16T08:19:01Z</time>
      </trkpt>
      <trkpt lat="48.1634" lon="-2.06452">
        <ele>153</ele>
        <time>2025-05-16T08:19:02Z</time>
      </trkpt>
      <trkpt lat="48.16341" lon="-2.06456">
        <ele>153</ele>
        <time>2025-05-16T08:19:03Z</time>
      </trkpt>
      <trkpt lat="48.16342" lon="-2.06461">
        <ele>152</ele>
        <time>2025-05-16T08:19:04Z</time>
      </trkpt>
      <trkpt lat="48.16342" lon="-2.06465">
        <ele>152</ele>
        <time>2025-05-16T08:19:05Z</time>
      </trkpt>
      <trkpt lat="48.16343" lon="-2.06469">
        <ele>152</ele>
        <time>2025-05-16T08:19:06Z</time>
      </trkpt>
      <trkpt lat="48.16344" lon="-2.06473">
        <ele>151</ele>
        <time>2025-05-16T08:19:07Z</time>
      </trkpt>
      <trkpt lat="48.16345" lon="-2.06477">
        <ele>151</ele>
        <time>2025-05-16T08:19:08Z</time>
      </trkpt>
      <trkpt lat="48.16346" lon="-2.06482">
        <ele>151</ele>
        <time>2025-05-16T08:19:09Z</time>
      </trkpt>
      <trkpt lat="48.16347" lon="-2.06486">
        <ele>151</ele>
        <time>2025-05-16T08:19:10Z</time>
      </trkpt>
      <trkpt lat="48.16348" lon="-2.0649">
        <ele>150</ele>
        <time>2025-05-16T08:19:11Z</time>
      </trkpt>
      <trkpt lat="48.16349" lon="-2.06494">
        <ele>150</ele>
        <time>2025-05-16T08:19:12Z</time>
      </trkpt>
      <trkpt lat="48.1635" lon="-2.06499">
        <ele>151</ele>
        <time>2025-05-16T08:19:13Z</time>
      </trkpt>
      <trkpt lat="48.16351" lon="-2.06503">
        <ele>151</ele>
        <time>2025-05-16T08:19:14Z</time>
      </trkpt>
      <trkpt lat="48.16352" lon="-2.06507">
        <ele>151</ele>
        <time>2025-05-16T08:19:15Z</time>
      </trkpt>
      <trkpt lat="48.16353" lon="-2.06512">
        <ele>151</ele>
        <time>2025-05-16T08:19:16Z</time>
      </trkpt>
      <trkpt lat="48.16353" lon="-2.06516">
        <ele>151</ele>
        <time>2025-05-16T08:19:17Z</time>
      </trkpt>
      <trkpt lat="48.16354" lon="-2.0652">
        <ele>151</ele>
        <time>2025-05-16T08:19:18Z</time>
      </trkpt>
      <trkpt lat="48.16354" lon="-2.06524">
        <ele>151</ele>
        <time>2025-05-16T08:19:19Z</time>
      </trkpt>
      <trkpt lat="48.16355" lon="-2.06529">
        <ele>150</ele>
        <time>2025-05-16T08:19:20Z</time>
      </trkpt>
      <trkpt lat="48.16356" lon="-2.06534">
        <ele>150</ele>
        <time>2025-05-16T08:19:21Z</time>
      </trkpt>
      <trkpt lat="48.16357" lon="-2.06538">
        <ele>150</ele>
        <time>2025-05-16T08:19:22Z</time>
      </trkpt>
      <trkpt lat="48.16357" lon="-2.06543">
        <ele>150</ele>
        <time>2025-05-16T08:19:23Z</time>
      </trkpt>
      <trkpt lat="48.16358" lon="-2.06546">
        <ele>149</ele>
        <time>2025-05-16T08:19:24Z</time>
      </trkpt>
      <trkpt lat="48.16359" lon="-2.06551">
        <ele>149</ele>
        <time>2025-05-16T08:19:25Z</time>
      </trkpt>
      <trkpt lat="48.1636" lon="-2.06555">
        <ele>149</ele>
        <time>2025-05-16T08:19:26Z</time>
      </trkpt>
      <trkpt lat="48.16361" lon="-2.0656">
        <ele>150</ele>
        <time>2025-05-16T08:19:27Z</time>
      </trkpt>
      <trkpt lat="48.16362" lon="-2.06564">
        <ele>150</ele>
        <time>2025-05-16T08:19:28Z</time>
      </trkpt>
      <trkpt lat="48.16363" lon="-2.06567">
        <ele>150</ele>
        <time>2025-05-16T08:19:29Z</time>
      </trkpt>
      <trkpt lat="48.16364" lon="-2.0657">
        <ele>150</ele>
        <time>2025-05-16T08:19:30Z</time>
      </trkpt>
      <trkpt lat="48.16365" lon="-2.06572">
        <ele>150</ele>
        <time>2025-05-16T08:19:31Z</time>
      </trkpt>
      <trkpt lat="48.16366" lon="-2.06573">
        <ele>150</ele>
        <time>2025-05-16T08:19:32Z</time>
      </trkpt>
      <trkpt lat="48.16366" lon="-2.06574">
        <ele>150</ele>
        <time>2025-05-16T08:19:33Z</time>
      </trkpt>
      <trkpt lat="48.16367" lon="-2.06575">
        <ele>150</ele>
        <time>2025-05-16T08:19:34Z</time>
      </trkpt>
      <trkpt lat="48.16367" lon="-2.06577">
        <ele>150</ele>
        <time>2025-05-16T08:19:35Z</time>
      </trkpt>
      <trkpt lat="48.16366" lon="-2.0658">
        <ele>150</ele>
        <time>2025-05-16T08:19:36Z</time>
      </trkpt>
      <trkpt lat="48.16364" lon="-2.06583">
        <ele>149</ele>
        <time>2025-05-16T08:19:37Z</time>
      </trkpt>
      <trkpt lat="48.16361" lon="-2.06587">
        <ele>149</ele>
        <time>2025-05-16T08:19:38Z</time>
      </trkpt>
      <trkpt lat="48.16357" lon="-2.06589">
        <ele>148</ele>
        <time>2025-05-16T08:19:39Z</time>
      </trkpt>
      <trkpt lat="48.16353" lon="-2.06591">
        <ele>148</ele>
        <time>2025-05-16T08:19:40Z</time>
      </trkpt>
      <trkpt lat="48.1635" lon="-2.06593">
        <ele>148</ele>
        <time>2025-05-16T08:19:41Z</time>
      </trkpt>
      <trkpt lat="48.16346" lon="-2.06595">
        <ele>148</ele>
        <time>2025-05-16T08:19:42Z</time>
      </trkpt>
      <trkpt lat="48.16342" lon="-2.06598">
        <ele>148</ele>
        <time>2025-05-16T08:19:43Z</time>
      </trkpt>
      <trkpt lat="48.16337" lon="-2.06601">
        <ele>147</ele>
        <time>2025-05-16T08:19:44Z</time>
      </trkpt>
      <trkpt lat="48.16333" lon="-2.06603">
        <ele>147</ele>
        <time>2025-05-16T08:19:45Z</time>
      </trkpt>
      <trkpt lat="48.16328" lon="-2.06606">
        <ele>147</ele>
        <time>2025-05-16T08:19:46Z</time>
      </trkpt>
      <trkpt lat="48.16323" lon="-2.0661">
        <ele>147</ele>
        <time>2025-05-16T08:19:47Z</time>
      </trkpt>
      <trkpt lat="48.16318" lon="-2.06614">
        <ele>147</ele>
        <time>2025-05-16T08:19:48Z</time>
      </trkpt>
      <trkpt lat="48.16313" lon="-2.06618">
        <ele>147</ele>
        <time>2025-05-16T08:19:49Z</time>
      </trkpt>
      <trkpt lat="48.16308" lon="-2.06622">
        <ele>146</ele>
        <time>2025-05-16T08:19:50Z</time>
      </trkpt>
      <trkpt lat="48.16303" lon="-2.06626">
        <ele>146</ele>
        <time>2025-05-16T08:19:51Z</time>
      </trkpt>
      <trkpt lat="48.16298" lon="-2.06631">
        <ele>145</ele>
        <time>2025-05-16T08:19:52Z</time>
      </trkpt>
      <trkpt lat="48.16293" lon="-2.06635">
        <ele>145</ele>
        <time>2025-05-16T08:19:53Z</time>
      </trkpt>
      <trkpt lat="48.16287" lon="-2.0664">
        <ele>145</ele>
        <time>2025-05-16T08:19:54Z</time>
      </trkpt>
      <trkpt lat="48.16282" lon="-2.06645">
        <ele>145</ele>
        <time>2025-05-16T08:19:55Z</time>
      </trkpt>
      <trkpt lat="48.16276" lon="-2.06651">
        <ele>146</ele>
        <time>2025-05-16T08:19:56Z</time>
      </trkpt>
      <trkpt lat="48.1627" lon="-2.06656">
        <ele>146</ele>
        <time>2025-05-16T08:19:57Z</time>
      </trkpt>
      <trkpt lat="48.16264" lon="-2.0666">
        <ele>145</ele>
        <time>2025-05-16T08:19:58Z</time>
      </trkpt>
      <trkpt lat="48.16258" lon="-2.06665">
        <ele>145</ele>
        <time>2025-05-16T08:19:59Z</time>
      </trkpt>
      <trkpt lat="48.16252" lon="-2.06671">
        <ele>145</ele>
        <time>2025-05-16T08:20:00Z</time>
      </trkpt>
      <trkpt lat="48.16246" lon="-2.06676">
        <ele>145</ele>
        <time>2025-05-16T08:20:01Z</time>
      </trkpt>
      <trkpt lat="48.1624" lon="-2.06681">
        <ele>145</ele>
        <time>2025-05-16T08:20:02Z</time>
      </trkpt>
      <trkpt lat="48.16233" lon="-2.06686">
        <ele>145</ele>
        <time>2025-05-16T08:20:03Z</time>
      </trkpt>
      <trkpt lat="48.16227" lon="-2.06691">
        <ele>144</ele>
        <time>2025-05-16T08:20:04Z</time>
      </trkpt>
      <trkpt lat="48.16221" lon="-2.06696">
        <ele>144</ele>
        <time>2025-05-16T08:20:05Z</time>
      </trkpt>
      <trkpt lat="48.16215" lon="-2.06702">
        <ele>144</ele>
        <time>2025-05-16T08:20:06Z</time>
      </trkpt>
      <trkpt lat="48.16209" lon="-2.06707">
        <ele>144</ele>
        <time>2025-05-16T08:20:07Z</time>
      </trkpt>
      <trkpt lat="48.16203" lon="-2.06712">
        <ele>144</ele>
        <time>2025-05-16T08:20:08Z</time>
      </trkpt>
      <trkpt lat="48.16197" lon="-2.06717">
        <ele>144</ele>
        <time>2025-05-16T08:20:09Z</time>
      </trkpt>
      <trkpt lat="48.16192" lon="-2.06721">
        <ele>144</ele>
        <time>2025-05-16T08:20:10Z</time>
      </trkpt>
      <trkpt lat="48.16186" lon="-2.06723">
        <ele>144</ele>
        <time>2025-05-16T08:20:11Z</time>
      </trkpt>
      <trkpt lat="48.16181" lon="-2.06723">
        <ele>144</ele>
        <time>2025-05-16T08:20:12Z</time>
      </trkpt>
      <trkpt lat="48.16177" lon="-2.06719">
        <ele>144</ele>
        <time>2025-05-16T08:20:13Z</time>
      </trkpt>
      <trkpt lat="48.16173" lon="-2.06713">
        <ele>144</ele>
        <time>2025-05-16T08:20:14Z</time>
      </trkpt>
      <trkpt lat="48.1617" lon="-2.06706">
        <ele>144</ele>
        <time>2025-05-16T08:20:15Z</time>
      </trkpt>
      <trkpt lat="48.16168" lon="-2.06697">
        <ele>144</ele>
        <time>2025-05-16T08:20:16Z</time>
      </trkpt>
      <trkpt lat="48.16166" lon="-2.06688">
        <ele>143</ele>
        <time>2025-05-16T08:20:17Z</time>
      </trkpt>
      <trkpt lat="48.16163" lon="-2.06679">
        <ele>143</ele>
        <time>2025-05-16T08:20:18Z</time>
      </trkpt>
      <trkpt lat="48.1616" lon="-2.0667">
        <ele>143</ele>
        <time>2025-05-16T08:20:19Z</time>
      </trkpt>
      <trkpt lat="48.16157" lon="-2.06661">
        <ele>143</ele>
        <time>2025-05-16T08:20:20Z</time>
      </trkpt>
      <trkpt lat="48.16155" lon="-2.06652">
        <ele>143</ele>
        <time>2025-05-16T08:20:21Z</time>
      </trkpt>
      <trkpt lat="48.16152" lon="-2.06643">
        <ele>143</ele>
        <time>2025-05-16T08:20:22Z</time>
      </trkpt>
      <trkpt lat="48.16149" lon="-2.06633">
        <ele>143</ele>
        <time>2025-05-16T08:20:23Z</time>
      </trkpt>
      <trkpt lat="48.16146" lon="-2.06624">
        <ele>142</ele>
        <time>2025-05-16T08:20:24Z</time>
      </trkpt>
      <trkpt lat="48.16144" lon="-2.06615">
        <ele>142</ele>
        <time>2025-05-16T08:20:25Z</time>
      </trkpt>
      <trkpt lat="48.1614" lon="-2.06607">
        <ele>142</ele>
        <time>2025-05-16T08:20:26Z</time>
      </trkpt>
      <trkpt lat="48.16137" lon="-2.06598">
        <ele>142</ele>
        <time>2025-05-16T08:20:27Z</time>
      </trkpt>
      <trkpt lat="48.16133" lon="-2.0659">
        <ele>141</ele>
        <time>2025-05-16T08:20:28Z</time>
      </trkpt>
      <trkpt lat="48.1613" lon="-2.06581">
        <ele>141</ele>
        <time>2025-05-16T08:20:29Z</time>
      </trkpt>
      <trkpt lat="48.16127" lon="-2.06572">
        <ele>141</ele>
        <time>2025-05-16T08:20:30Z</time>
      </trkpt>
      <trkpt lat="48.16123" lon="-2.06565">
        <ele>141</ele>
        <time>2025-05-16T08:20:31Z</time>
      </trkpt>
      <trkpt lat="48.16119" lon="-2.06557">
        <ele>140</ele>
        <time>2025-05-16T08:20:32Z</time>
      </trkpt>
      <trkpt lat="48.16116" lon="-2.0655">
        <ele>140</ele>
        <time>2025-05-16T08:20:33Z</time>
      </trkpt>
      <trkpt lat="48.16112" lon="-2.06543">
        <ele>141</ele>
        <time>2025-05-16T08:20:34Z</time>
      </trkpt>
      <trkpt lat="48.16109" lon="-2.06535">
        <ele>141</ele>
        <time>2025-05-16T08:20:35Z</time>
      </trkpt>
      <trkpt lat="48.16105" lon="-2.06528">
        <ele>141</ele>
        <time>2025-05-16T08:20:36Z</time>
      </trkpt>
      <trkpt lat="48.16102" lon="-2.06521">
        <ele>141</ele>
        <time>2025-05-16T08:20:37Z</time>
      </trkpt>
      <trkpt lat="48.16098" lon="-2.06513">
        <ele>140</ele>
        <time>2025-05-16T08:20:38Z</time>
      </trkpt>
      <trkpt lat="48.16094" lon="-2.06506">
        <ele>140</ele>
        <time>2025-05-16T08:20:39Z</time>
      </trkpt>
      <trkpt lat="48.16091" lon="-2.06499">
        <ele>140</ele>
        <time>2025-05-16T08:20:40Z</time>
      </trkpt>
      <trkpt lat="48.16087" lon="-2.06492">
        <ele>140</ele>
        <time>2025-05-16T08:20:41Z</time>
      </trkpt>
      <trkpt lat="48.16084" lon="-2.06485">
        <ele>140</ele>
        <time>2025-05-16T08:20:42Z</time>
      </trkpt>
      <trkpt lat="48.16081" lon="-2.06478">
        <ele>141</ele>
        <time>2025-05-16T08:20:43Z</time>
      </trkpt>
      <trkpt lat="48.16078" lon="-2.06472">
        <ele>141</ele>
        <time>2025-05-16T08:20:44Z</time>
      </trkpt>
      <trkpt lat="48.16075" lon="-2.06465">
        <ele>141</ele>
        <time>2025-05-16T08:20:45Z</time>
      </trkpt>
      <trkpt lat="48.16072" lon="-2.06458">
        <ele>141</ele>
        <time>2025-05-16T08:20:46Z</time>
      </trkpt>
      <trkpt lat="48.16068" lon="-2.06451">
        <ele>140</ele>
        <time>2025-05-16T08:20:47Z</time>
      </trkpt>
      <trkpt lat="48.16065" lon="-2.06445">
        <ele>140</ele>
        <time>2025-05-16T08:20:48Z</time>
      </trkpt>
      <trkpt lat="48.16062" lon="-2.06437">
        <ele>140</ele>
        <time>2025-05-16T08:20:49Z</time>
      </trkpt>
      <trkpt lat="48.16059" lon="-2.0643">
        <ele>140</ele>
        <time>2025-05-16T08:20:50Z</time>
      </trkpt>
      <trkpt lat="48.16056" lon="-2.06423">
        <ele>139</ele>
        <time>2025-05-16T08:20:51Z</time>
      </trkpt>
      <trkpt lat="48.16052" lon="-2.06416">
        <ele>139</ele>
        <time>2025-05-16T08:20:52Z</time>
      </trkpt>
      <trkpt lat="48.16049" lon="-2.06409">
        <ele>138</ele>
        <time>2025-05-16T08:20:53Z</time>
      </trkpt>
      <trkpt lat="48.16046" lon="-2.06402">
        <ele>138</ele>
        <time>2025-05-16T08:20:54Z</time>
      </trkpt>
      <trkpt lat="48.16042" lon="-2.06395">
        <ele>138</ele>
        <time>2025-05-16T08:20:55Z</time>
      </trkpt>
      <trkpt lat="48.16039" lon="-2.06388">
        <ele>138</ele>
        <time>2025-05-16T08:20:56Z</time>
      </trkpt>
      <trkpt lat="48.16035" lon="-2.0638">
        <ele>137</ele>
        <time>2025-05-16T08:20:57Z</time>
      </trkpt>
      <trkpt lat="48.16032" lon="-2.06373">
        <ele>137</ele>
        <time>2025-05-16T08:20:58Z</time>
      </trkpt>
      <trkpt lat="48.16028" lon="-2.06366">
        <ele>137</ele>
        <time>2025-05-16T08:20:59Z</time>
      </trkpt>
      <trkpt lat="48.16024" lon="-2.06359">
        <ele>137</ele>
        <time>2025-05-16T08:21:00Z</time>
      </trkpt>
      <trkpt lat="48.1602" lon="-2.06353">
        <ele>137</ele>
        <time>2025-05-16T08:21:01Z</time>
      </trkpt>
      <trkpt lat="48.16015" lon="-2.06347">
        <ele>137</ele>
        <time>2025-05-16T08:21:02Z</time>
      </trkpt>
      <trkpt lat="48.1601" lon="-2.06342">
        <ele>137</ele>
        <time>2025-05-16T08:21:03Z</time>
      </trkpt>
      <trkpt lat="48.16005" lon="-2.06338">
        <ele>137</ele>
        <time>2025-05-16T08:21:04Z</time>
      </trkpt>
      <trkpt lat="48.16" lon="-2.06334">
        <ele>137</ele>
        <time>2025-05-16T08:21:05Z</time>
      </trkpt>
      <trkpt lat="48.15994" lon="-2.0633">
        <ele>137</ele>
        <time>2025-05-16T08:21:06Z</time>
      </trkpt>
      <trkpt lat="48.15988" lon="-2.06326">
        <ele>136</ele>
        <time>2025-05-16T08:21:07Z</time>
      </trkpt>
      <trkpt lat="48.15982" lon="-2.06323">
        <ele>136</ele>
        <time>2025-05-16T08:21:08Z</time>
      </trkpt>
      <trkpt lat="48.15976" lon="-2.06319">
        <ele>136</ele>
        <time>2025-05-16T08:21:09Z</time>
      </trkpt>
      <trkpt lat="48.15971" lon="-2.06316">
        <ele>136</ele>
        <time>2025-05-16T08:21:10Z</time>
      </trkpt>
      <trkpt lat="48.15965" lon="-2.06312">
        <ele>136</ele>
        <time>2025-05-16T08:21:11Z</time>
      </trkpt>
      <trkpt lat="48.15959" lon="-2.06308">
        <ele>136</ele>
        <time>2025-05-16T08:21:12Z</time>
      </trkpt>
      <trkpt lat="48.15954" lon="-2.06305">
        <ele>136</ele>
        <time>2025-05-16T08:21:13Z</time>
      </trkpt>
      <trkpt lat="48.15948" lon="-2.06301">
        <ele>136</ele>
        <time>2025-05-16T08:21:14Z</time>
      </trkpt>
      <trkpt lat="48.15943" lon="-2.06297">
        <ele>135</ele>
        <time>2025-05-16T08:21:15Z</time>
      </trkpt>
      <trkpt lat="48.15938" lon="-2.06292">
        <ele>135</ele>
        <time>2025-05-16T08:21:16Z</time>
      </trkpt>
      <trkpt lat="48.15933" lon="-2.06288">
        <ele>135</ele>
        <time>2025-05-16T08:21:17Z</time>
      </trkpt>
      <trkpt lat="48.15927" lon="-2.06284">
        <ele>135</ele>
        <time>2025-05-16T08:21:18Z</time>
      </trkpt>
      <trkpt lat="48.15922" lon="-2.0628">
        <ele>135</ele>
        <time>2025-05-16T08:21:19Z</time>
      </trkpt>
      <trkpt lat="48.15917" lon="-2.06276">
        <ele>136</ele>
        <time>2025-05-16T08:21:20Z</time>
      </trkpt>
      <trkpt lat="48.15911" lon="-2.06271">
        <ele>136</ele>
        <time>2025-05-16T08:21:21Z</time>
      </trkpt>
      <trkpt lat="48.15906" lon="-2.06267">
        <ele>136</ele>
        <time>2025-05-16T08:21:22Z</time>
      </trkpt>
      <trkpt lat="48.159" lon="-2.06262">
        <ele>135</ele>
        <time>2025-05-16T08:21:23Z</time>
      </trkpt>
      <trkpt lat="48.15895" lon="-2.06256">
        <ele>135</ele>
        <time>2025-05-16T08:21:24Z</time>
      </trkpt>
      <trkpt lat="48.15889" lon="-2.06251">
        <ele>134</ele>
        <time>2025-05-16T08:21:25Z</time>
      </trkpt>
      <trkpt lat="48.15884" lon="-2.06245">
        <ele>134</ele>
        <time>2025-05-16T08:21:26Z</time>
      </trkpt>
      <trkpt lat="48.15878" lon="-2.06239">
        <ele>133</ele>
        <time>2025-05-16T08:21:27Z</time>
      </trkpt>
      <trkpt lat="48.15872" lon="-2.06232">
        <ele>133</ele>
        <time>2025-05-16T08:21:28Z</time>
      </trkpt>
      <trkpt lat="48.15867" lon="-2.06225">
        <ele>133</ele>
        <time>2025-05-16T08:21:29Z</time>
      </trkpt>
      <trkpt lat="48.15861" lon="-2.06218">
        <ele>134</ele>
        <time>2025-05-16T08:21:30Z</time>
      </trkpt>
      <trkpt lat="48.15855" lon="-2.0621">
        <ele>134</ele>
        <time>2025-05-16T08:21:31Z</time>
      </trkpt>
      <trkpt lat="48.1585" lon="-2.06202">
        <ele>134</ele>
        <time>2025-05-16T08:21:32Z</time>
      </trkpt>
      <trkpt lat="48.15846" lon="-2.06194">
        <ele>134</ele>
        <time>2025-05-16T08:21:33Z</time>
      </trkpt>
      <trkpt lat="48.15842" lon="-2.06185">
        <ele>134</ele>
        <time>2025-05-16T08:21:34Z</time>
      </trkpt>
      <trkpt lat="48.15838" lon="-2.06176">
        <ele>134</ele>
        <time>2025-05-16T08:21:35Z</time>
      </trkpt>
      <trkpt lat="48.15836" lon="-2.06167">
        <ele>133</ele>
        <time>2025-05-16T08:21:36Z</time>
      </trkpt>
      <trkpt lat="48.15834" lon="-2.06157">
        <ele>133</ele>
        <time>2025-05-16T08:21:37Z</time>
      </trkpt>
      <trkpt lat="48.15832" lon="-2.06147">
        <ele>133</ele>
        <time>2025-05-16T08:21:38Z</time>
      </trkpt>
      <trkpt lat="48.15831" lon="-2.06138">
        <ele>133</ele>
        <time>2025-05-16T08:21:39Z</time>
      </trkpt>
      <trkpt lat="48.1583" lon="-2.06128">
        <ele>133</ele>
        <time>2025-05-16T08:21:40Z</time>
      </trkpt>
      <trkpt lat="48.1583" lon="-2.06118">
        <ele>133</ele>
        <time>2025-05-16T08:21:41Z</time>
      </trkpt>
      <trkpt lat="48.15829" lon="-2.06108">
        <ele>132</ele>
        <time>2025-05-16T08:21:42Z</time>
      </trkpt>
      <trkpt lat="48.15828" lon="-2.06099">
        <ele>132</ele>
        <time>2025-05-16T08:21:43Z</time>
      </trkpt>
      <trkpt lat="48.15828" lon="-2.06089">
        <ele>132</ele>
        <time>2025-05-16T08:21:44Z</time>
      </trkpt>
      <trkpt lat="48.15827" lon="-2.06081">
        <ele>132</ele>
        <time>2025-05-16T08:21:45Z</time>
      </trkpt>
      <trkpt lat="48.15827" lon="-2.06072">
        <ele>132</ele>
        <time>2025-05-16T08:21:46Z</time>
      </trkpt>
      <trkpt lat="48.15827" lon="-2.06064">
        <ele>133</ele>
        <time>2025-05-16T08:21:47Z</time>
      </trkpt>
      <trkpt lat="48.15826" lon="-2.06056">
        <ele>132</ele>
        <time>2025-05-16T08:21:48Z</time>
      </trkpt>
      <trkpt lat="48.15826" lon="-2.06049">
        <ele>132</ele>
        <time>2025-05-16T08:21:49Z</time>
      </trkpt>
      <trkpt lat="48.15826" lon="-2.06041">
        <ele>133</ele>
        <time>2025-05-16T08:21:50Z</time>
      </trkpt>
      <trkpt lat="48.15825" lon="-2.06034">
        <ele>133</ele>
        <time>2025-05-16T08:21:51Z</time>
      </trkpt>
      <trkpt lat="48.15825" lon="-2.06027">
        <ele>133</ele>
        <time>2025-05-16T08:21:52Z</time>
      </trkpt>
      <trkpt lat="48.15825" lon="-2.06021">
        <ele>133</ele>
        <time>2025-05-16T08:21:53Z</time>
      </trkpt>
      <trkpt lat="48.15825" lon="-2.06014">
        <ele>133</ele>
        <time>2025-05-16T08:21:54Z</time>
      </trkpt>
      <trkpt lat="48.15824" lon="-2.06007">
        <ele>133</ele>
        <time>2025-05-16T08:21:55Z</time>
      </trkpt>
      <trkpt lat="48.15824" lon="-2.06">
        <ele>134</ele>
        <time>2025-05-16T08:21:56Z</time>
      </trkpt>
      <trkpt lat="48.15824" lon="-2.05994">
        <ele>134</ele>
        <time>2025-05-16T08:21:57Z</time>
      </trkpt>
      <trkpt lat="48.15823" lon="-2.05988">
        <ele>134</ele>
        <time>2025-05-16T08:21:58Z</time>
      </trkpt>
      <trkpt lat="48.15823" lon="-2.05982">
        <ele>134</ele>
        <time>2025-05-16T08:21:59Z</time>
      </trkpt>
      <trkpt lat="48.15822" lon="-2.05977">
        <ele>134</ele>
        <time>2025-05-16T08:22:00Z</time>
      </trkpt>
      <trkpt lat="48.15821" lon="-2.05971">
        <ele>135</ele>
        <time>2025-05-16T08:22:01Z</time>
      </trkpt>
      <trkpt lat="48.15821" lon="-2.05965">
        <ele>135</ele>
        <time>2025-05-16T08:22:02Z</time>
      </trkpt>
      <trkpt lat="48.1582" lon="-2.05959">
        <ele>135</ele>
        <time>2025-05-16T08:22:03Z</time>
      </trkpt>
      <trkpt lat="48.15819" lon="-2.05953">
        <ele>135</ele>
        <time>2025-05-16T08:22:04Z</time>
      </trkpt>
      <trkpt lat="48.15818" lon="-2.05947">
        <ele>135</ele>
        <time>2025-05-16T08:22:05Z</time>
      </trkpt>
      <trkpt lat="48.15816" lon="-2.05941">
        <ele>135</ele>
        <time>2025-05-16T08:22:06Z</time>
      </trkpt>
      <trkpt lat="48.15815" lon="-2.05935">
        <ele>135</ele>
        <time>2025-05-16T08:22:07Z</time>
      </trkpt>
      <trkpt lat="48.15814" lon="-2.05929">
        <ele>135</ele>
        <time>2025-05-16T08:22:08Z</time>
      </trkpt>
      <trkpt lat="48.15813" lon="-2.05924">
        <ele>135</ele>
        <time>2025-05-16T08:22:09Z</time>
      </trkpt>
      <trkpt lat="48.15812" lon="-2.05918">
        <ele>135</ele>
        <time>2025-05-16T08:22:10Z</time>
      </trkpt>
      <trkpt lat="48.1581" lon="-2.05913">
        <ele>135</ele>
        <time>2025-05-16T08:22:11Z</time>
      </trkpt>
      <trkpt lat="48.15809" lon="-2.05907">
        <ele>135</ele>
        <time>2025-05-16T08:22:12Z</time>
      </trkpt>
      <trkpt lat="48.15808" lon="-2.05901">
        <ele>135</ele>
        <time>2025-05-16T08:22:13Z</time>
      </trkpt>
      <trkpt lat="48.15807" lon="-2.05895">
        <ele>135</ele>
        <time>2025-05-16T08:22:14Z</time>
      </trkpt>
      <trkpt lat="48.15805" lon="-2.0589">
        <ele>135</ele>
        <time>2025-05-16T08:22:15Z</time>
      </trkpt>
      <trkpt lat="48.15804" lon="-2.05884">
        <ele>135</ele>
        <time>2025-05-16T08:22:16Z</time>
      </trkpt>
      <trkpt lat="48.15802" lon="-2.05879">
        <ele>136</ele>
        <time>2025-05-16T08:22:17Z</time>
      </trkpt>
      <trkpt lat="48.15801" lon="-2.05873">
        <ele>136</ele>
        <time>2025-05-16T08:22:18Z</time>
      </trkpt>
      <trkpt lat="48.15799" lon="-2.05867">
        <ele>136</ele>
        <time>2025-05-16T08:22:19Z</time>
      </trkpt>
      <trkpt lat="48.15798" lon="-2.05862">
        <ele>136</ele>
        <time>2025-05-16T08:22:20Z</time>
      </trkpt>
      <trkpt lat="48.15797" lon="-2.05856">
        <ele>136</ele>
        <time>2025-05-16T08:22:21Z</time>
      </trkpt>
      <trkpt lat="48.15795" lon="-2.0585">
        <ele>136</ele>
        <time>2025-05-16T08:22:22Z</time>
      </trkpt>
      <trkpt lat="48.15794" lon="-2.05843">
        <ele>136</ele>
        <time>2025-05-16T08:22:23Z</time>
      </trkpt>
      <trkpt lat="48.15793" lon="-2.05837">
        <ele>136</ele>
        <time>2025-05-16T08:22:24Z</time>
      </trkpt>
      <trkpt lat="48.15791" lon="-2.05832">
        <ele>136</ele>
        <time>2025-05-16T08:22:25Z</time>
      </trkpt>
      <trkpt lat="48.1579" lon="-2.05826">
        <ele>136</ele>
        <time>2025-05-16T08:22:26Z</time>
      </trkpt>
      <trkpt lat="48.15789" lon="-2.05821">
        <ele>136</ele>
        <time>2025-05-16T08:22:27Z</time>
      </trkpt>
      <trkpt lat="48.15787" lon="-2.05815">
        <ele>136</ele>
        <time>2025-05-16T08:22:28Z</time>
      </trkpt>
      <trkpt lat="48.15786" lon="-2.05809">
        <ele>136</ele>
        <time>2025-05-16T08:22:29Z</time>
      </trkpt>
      <trkpt lat="48.15785" lon="-2.05803">
        <ele>136</ele>
        <time>2025-05-16T08:22:30Z</time>
      </trkpt>
      <trkpt lat="48.15784" lon="-2.05797">
        <ele>136</ele>
        <time>2025-05-16T08:22:31Z</time>
      </trkpt>
      <trkpt lat="48.15782" lon="-2.05792">
        <ele>136</ele>
        <time>2025-05-16T08:22:32Z</time>
      </trkpt>
      <trkpt lat="48.15781" lon="-2.05786">
        <ele>136</ele>
        <time>2025-05-16T08:22:33Z</time>
      </trkpt>
      <trkpt lat="48.1578" lon="-2.0578">
        <ele>135</ele>
        <time>2025-05-16T08:22:34Z</time>
      </trkpt>
      <trkpt lat="48.15778" lon="-2.05774">
        <ele>135</ele>
        <time>2025-05-16T08:22:35Z</time>
      </trkpt>
      <trkpt lat="48.15777" lon="-2.05768">
        <ele>135</ele>
        <time>2025-05-16T08:22:36Z</time>
      </trkpt>
      <trkpt lat="48.15775" lon="-2.05762">
        <ele>135</ele>
        <time>2025-05-16T08:22:37Z</time>
      </trkpt>
      <trkpt lat="48.15774" lon="-2.05756">
        <ele>134</ele>
        <time>2025-05-16T08:22:38Z</time>
      </trkpt>
      <trkpt lat="48.15773" lon="-2.0575">
        <ele>134</ele>
        <time>2025-05-16T08:22:39Z</time>
      </trkpt>
      <trkpt lat="48.15771" lon="-2.05744">
        <ele>135</ele>
        <time>2025-05-16T08:22:40Z</time>
      </trkpt>
      <trkpt lat="48.1577" lon="-2.05739">
        <ele>135</ele>
        <time>2025-05-16T08:22:41Z</time>
      </trkpt>
      <trkpt lat="48.15768" lon="-2.05733">
        <ele>135</ele>
        <time>2025-05-16T08:22:42Z</time>
      </trkpt>
      <trkpt lat="48.15766" lon="-2.05727">
        <ele>135</ele>
        <time>2025-05-16T08:22:43Z</time>
      </trkpt>
      <trkpt lat="48.15763" lon="-2.05722">
        <ele>134</ele>
        <time>2025-05-16T08:22:44Z</time>
      </trkpt>
      <trkpt lat="48.1576" lon="-2.05717">
        <ele>134</ele>
        <time>2025-05-16T08:22:45Z</time>
      </trkpt>
      <trkpt lat="48.15757" lon="-2.05713">
        <ele>134</ele>
        <time>2025-05-16T08:22:46Z</time>
      </trkpt>
      <trkpt lat="48.15753" lon="-2.0571">
        <ele>134</ele>
        <time>2025-05-16T08:22:47Z</time>
      </trkpt>
      <trkpt lat="48.15749" lon="-2.05707">
        <ele>134</ele>
        <time>2025-05-16T08:22:48Z</time>
      </trkpt>
      <trkpt lat="48.15746" lon="-2.05705">
        <ele>134</ele>
        <time>2025-05-16T08:22:49Z</time>
      </trkpt>
      <trkpt lat="48.15741" lon="-2.05704">
        <ele>134</ele>
        <time>2025-05-16T08:22:50Z</time>
      </trkpt>
      <trkpt lat="48.15737" lon="-2.05702">
        <ele>134</ele>
        <time>2025-05-16T08:22:51Z</time>
      </trkpt>
      <trkpt lat="48.15733" lon="-2.05701">
        <ele>134</ele>
        <time>2025-05-16T08:22:52Z</time>
      </trkpt>
      <trkpt lat="48.15729" lon="-2.05699">
        <ele>135</ele>
        <time>2025-05-16T08:22:53Z</time>
      </trkpt>
      <trkpt lat="48.15725" lon="-2.05698">
        <ele>135</ele>
        <time>2025-05-16T08:22:54Z</time>
      </trkpt>
      <trkpt lat="48.15721" lon="-2.05696">
        <ele>135</ele>
        <time>2025-05-16T08:22:55Z</time>
      </trkpt>
      <trkpt lat="48.15717" lon="-2.05694">
        <ele>136</ele>
        <time>2025-05-16T08:22:56Z</time>
      </trkpt>
      <trkpt lat="48.15713" lon="-2.05693">
        <ele>137</ele>
        <time>2025-05-16T08:22:57Z</time>
      </trkpt>
      <trkpt lat="48.15708" lon="-2.05692">
        <ele>137</ele>
        <time>2025-05-16T08:22:58Z</time>
      </trkpt>
      <trkpt lat="48.15704" lon="-2.05691">
        <ele>136</ele>
        <time>2025-05-16T08:22:59Z</time>
      </trkpt>
      <trkpt lat="48.157" lon="-2.0569">
        <ele>136</ele>
        <time>2025-05-16T08:23:00Z</time>
      </trkpt>
      <trkpt lat="48.15696" lon="-2.05689">
        <ele>136</ele>
        <time>2025-05-16T08:23:01Z</time>
      </trkpt>
      <trkpt lat="48.15692" lon="-2.05688">
        <ele>136</ele>
        <time>2025-05-16T08:23:02Z</time>
      </trkpt>
      <trkpt lat="48.15688" lon="-2.05687">
        <ele>136</ele>
        <time>2025-05-16T08:23:03Z</time>
      </trkpt>
      <trkpt lat="48.15683" lon="-2.05685">
        <ele>136</ele>
        <time>2025-05-16T08:23:04Z</time>
      </trkpt>
      <trkpt lat="48.15679" lon="-2.05684">
        <ele>136</ele>
        <time>2025-05-16T08:23:05Z</time>
      </trkpt>
      <trkpt lat="48.15675" lon="-2.05683">
        <ele>136</ele>
        <time>2025-05-16T08:23:06Z</time>
      </trkpt>
      <trkpt lat="48.1567" lon="-2.05682">
        <ele>135</ele>
        <time>2025-05-16T08:23:07Z</time>
      </trkpt>
      <trkpt lat="48.15666" lon="-2.05681">
        <ele>135</ele>
        <time>2025-05-16T08:23:08Z</time>
      </trkpt>
      <trkpt lat="48.15662" lon="-2.0568">
        <ele>135</ele>
        <time>2025-05-16T08:23:09Z</time>
      </trkpt>
      <trkpt lat="48.15657" lon="-2.05678">
        <ele>136</ele>
        <time>2025-05-16T08:23:10Z</time>
      </trkpt>
      <trkpt lat="48.15653" lon="-2.05676">
        <ele>135</ele>
        <time>2025-05-16T08:23:11Z</time>
      </trkpt>
      <trkpt lat="48.15649" lon="-2.05675">
        <ele>135</ele>
        <time>2025-05-16T08:23:12Z</time>
      </trkpt>
      <trkpt lat="48.15645" lon="-2.05674">
        <ele>136</ele>
        <time>2025-05-16T08:23:13Z</time>
      </trkpt>
      <trkpt lat="48.1564" lon="-2.05672">
        <ele>136</ele>
        <time>2025-05-16T08:23:14Z</time>
      </trkpt>
      <trkpt lat="48.15636" lon="-2.05672">
        <ele>136</ele>
        <time>2025-05-16T08:23:15Z</time>
      </trkpt>
      <trkpt lat="48.15631" lon="-2.0567">
        <ele>136</ele>
        <time>2025-05-16T08:23:16Z</time>
      </trkpt>
      <trkpt lat="48.15628" lon="-2.0567">
        <ele>137</ele>
        <time>2025-05-16T08:23:17Z</time>
      </trkpt>
      <trkpt lat="48.15622" lon="-2.0567">
        <ele>135</ele>
        <time>2025-05-16T08:23:18Z</time>
      </trkpt>
      <trkpt lat="48.15619" lon="-2.0567">
        <ele>135</ele>
        <time>2025-05-16T08:23:19Z</time>
      </trkpt>
      <trkpt lat="48.15616" lon="-2.05669">
        <ele>135</ele>
        <time>2025-05-16T08:23:20Z</time>
      </trkpt>
      <trkpt lat="48.15612" lon="-2.05669">
        <ele>135</ele>
        <time>2025-05-16T08:23:21Z</time>
      </trkpt>
      <trkpt lat="48.15609" lon="-2.05669">
        <ele>135</ele>
        <time>2025-05-16T08:23:22Z</time>
      </trkpt>
      <trkpt lat="48.15605" lon="-2.05669">
        <ele>134</ele>
        <time>2025-05-16T08:23:23Z</time>
      </trkpt>
      <trkpt lat="48.15601" lon="-2.0567">
        <ele>135</ele>
        <time>2025-05-16T08:23:24Z</time>
      </trkpt>
      <trkpt lat="48.15597" lon="-2.0567">
        <ele>134</ele>
        <time>2025-05-16T08:23:25Z</time>
      </trkpt>
      <trkpt lat="48.15593" lon="-2.0567">
        <ele>134</ele>
        <time>2025-05-16T08:23:26Z</time>
      </trkpt>
      <trkpt lat="48.15589" lon="-2.05669">
        <ele>135</ele>
        <time>2025-05-16T08:23:27Z</time>
      </trkpt>
      <trkpt lat="48.15585" lon="-2.0567">
        <ele>134</ele>
        <time>2025-05-16T08:23:28Z</time>
      </trkpt>
      <trkpt lat="48.15581" lon="-2.0567">
        <ele>134</ele>
        <time>2025-05-16T08:23:29Z</time>
      </trkpt>
      <trkpt lat="48.15576" lon="-2.0567">
        <ele>134</ele>
        <time>2025-05-16T08:23:30Z</time>
      </trkpt>
      <trkpt lat="48.15572" lon="-2.0567">
        <ele>133</ele>
        <time>2025-05-16T08:23:31Z</time>
      </trkpt>
      <trkpt lat="48.15568" lon="-2.0567">
        <ele>133</ele>
        <time>2025-05-16T08:23:32Z</time>
      </trkpt>
      <trkpt lat="48.15564" lon="-2.0567">
        <ele>133</ele>
        <time>2025-05-16T08:23:33Z</time>
      </trkpt>
      <trkpt lat="48.1556" lon="-2.0567">
        <ele>133</ele>
        <time>2025-05-16T08:23:34Z</time>
      </trkpt>
      <trkpt lat="48.15555" lon="-2.05669">
        <ele>133</ele>
        <time>2025-05-16T08:23:35Z</time>
      </trkpt>
      <trkpt lat="48.1555" lon="-2.05668">
        <ele>133</ele>
        <time>2025-05-16T08:23:36Z</time>
      </trkpt>
      <trkpt lat="48.15546" lon="-2.05665">
        <ele>133</ele>
        <time>2025-05-16T08:23:37Z</time>
      </trkpt>
      <trkpt lat="48.15542" lon="-2.05661">
        <ele>133</ele>
        <time>2025-05-16T08:23:38Z</time>
      </trkpt>
      <trkpt lat="48.15538" lon="-2.05655">
        <ele>133</ele>
        <time>2025-05-16T08:23:39Z</time>
      </trkpt>
      <trkpt lat="48.15535" lon="-2.05649">
        <ele>133</ele>
        <time>2025-05-16T08:23:40Z</time>
      </trkpt>
      <trkpt lat="48.15534" lon="-2.05642">
        <ele>133</ele>
        <time>2025-05-16T08:23:41Z</time>
      </trkpt>
      <trkpt lat="48.15532" lon="-2.05636">
        <ele>133</ele>
        <time>2025-05-16T08:23:42Z</time>
      </trkpt>
      <trkpt lat="48.15531" lon="-2.05629">
        <ele>133</ele>
        <time>2025-05-16T08:23:43Z</time>
      </trkpt>
      <trkpt lat="48.1553" lon="-2.05622">
        <ele>133</ele>
        <time>2025-05-16T08:23:44Z</time>
      </trkpt>
      <trkpt lat="48.1553" lon="-2.05614">
        <ele>133</ele>
        <time>2025-05-16T08:23:45Z</time>
      </trkpt>
      <trkpt lat="48.1553" lon="-2.05607">
        <ele>133</ele>
        <time>2025-05-16T08:23:46Z</time>
      </trkpt>
      <trkpt lat="48.15529" lon="-2.056">
        <ele>133</ele>
        <time>2025-05-16T08:23:47Z</time>
      </trkpt>
      <trkpt lat="48.15529" lon="-2.05593">
        <ele>133</ele>
        <time>2025-05-16T08:23:48Z</time>
      </trkpt>
      <trkpt lat="48.15528" lon="-2.05586">
        <ele>133</ele>
        <time>2025-05-16T08:23:49Z</time>
      </trkpt>
      <trkpt lat="48.15528" lon="-2.05578">
        <ele>134</ele>
        <time>2025-05-16T08:23:50Z</time>
      </trkpt>
      <trkpt lat="48.15527" lon="-2.05571">
        <ele>134</ele>
        <time>2025-05-16T08:23:51Z</time>
      </trkpt>
      <trkpt lat="48.15526" lon="-2.05563">
        <ele>134</ele>
        <time>2025-05-16T08:23:52Z</time>
      </trkpt>
      <trkpt lat="48.15526" lon="-2.05556">
        <ele>134</ele>
        <time>2025-05-16T08:23:53Z</time>
      </trkpt>
      <trkpt lat="48.15526" lon="-2.05548">
        <ele>134</ele>
        <time>2025-05-16T08:23:54Z</time>
      </trkpt>
      <trkpt lat="48.15525" lon="-2.05541">
        <ele>134</ele>
        <time>2025-05-16T08:23:55Z</time>
      </trkpt>
      <trkpt lat="48.15524" lon="-2.05533">
        <ele>134</ele>
        <time>2025-05-16T08:23:56Z</time>
      </trkpt>
      <trkpt lat="48.15524" lon="-2.05526">
        <ele>134</ele>
        <time>2025-05-16T08:23:57Z</time>
      </trkpt>
      <trkpt lat="48.15524" lon="-2.05518">
        <ele>134</ele>
        <time>2025-05-16T08:23:58Z</time>
      </trkpt>
      <trkpt lat="48.15525" lon="-2.0551">
        <ele>133</ele>
        <time>2025-05-16T08:23:59Z</time>
      </trkpt>
      <trkpt lat="48.15525" lon="-2.05503">
        <ele>134</ele>
        <time>2025-05-16T08:24:00Z</time>
      </trkpt>
      <trkpt lat="48.15525" lon="-2.05495">
        <ele>134</ele>
        <time>2025-05-16T08:24:01Z</time>
      </trkpt>
      <trkpt lat="48.15525" lon="-2.05488">
        <ele>134</ele>
        <time>2025-05-16T08:24:02Z</time>
      </trkpt>
      <trkpt lat="48.15525" lon="-2.05482">
        <ele>134</ele>
        <time>2025-05-16T08:24:03Z</time>
      </trkpt>
      <trkpt lat="48.15526" lon="-2.05475">
        <ele>134</ele>
        <time>2025-05-16T08:24:04Z</time>
      </trkpt>
      <trkpt lat="48.15527" lon="-2.05469">
        <ele>134</ele>
        <time>2025-05-16T08:24:05Z</time>
      </trkpt>
      <trkpt lat="48.15528" lon="-2.05463">
        <ele>134</ele>
        <time>2025-05-16T08:24:06Z</time>
      </trkpt>
      <trkpt lat="48.15529" lon="-2.05456">
        <ele>135</ele>
        <time>2025-05-16T08:24:07Z</time>
      </trkpt>
      <trkpt lat="48.15529" lon="-2.0545">
        <ele>135</ele>
        <time>2025-05-16T08:24:08Z</time>
      </trkpt>
      <trkpt lat="48.1553" lon="-2.05444">
        <ele>135</ele>
        <time>2025-05-16T08:24:09Z</time>
      </trkpt>
      <trkpt lat="48.15531" lon="-2.05438">
        <ele>135</ele>
        <time>2025-05-16T08:24:10Z</time>
      </trkpt>
      <trkpt lat="48.15532" lon="-2.05432">
        <ele>135</ele>
        <time>2025-05-16T08:24:11Z</time>
      </trkpt>
      <trkpt lat="48.15532" lon="-2.05426">
        <ele>135</ele>
        <time>2025-05-16T08:24:12Z</time>
      </trkpt>
      <trkpt lat="48.15533" lon="-2.05421">
        <ele>136</ele>
        <time>2025-05-16T08:24:13Z</time>
      </trkpt>
      <trkpt lat="48.15534" lon="-2.05415">
        <ele>136</ele>
        <time>2025-05-16T08:24:14Z</time>
      </trkpt>
      <trkpt lat="48.15534" lon="-2.05409">
        <ele>135</ele>
        <time>2025-05-16T08:24:15Z</time>
      </trkpt>
      <trkpt lat="48.15534" lon="-2.05403">
        <ele>136</ele>
        <time>2025-05-16T08:24:16Z</time>
      </trkpt>
      <trkpt lat="48.15535" lon="-2.05397">
        <ele>136</ele>
        <time>2025-05-16T08:24:17Z</time>
      </trkpt>
      <trkpt lat="48.15535" lon="-2.05391">
        <ele>136</ele>
        <time>2025-05-16T08:24:18Z</time>
      </trkpt>
      <trkpt lat="48.15536" lon="-2.05385">
        <ele>136</ele>
        <time>2025-05-16T08:24:19Z</time>
      </trkpt>
      <trkpt lat="48.15537" lon="-2.05379">
        <ele>136</ele>
        <time>2025-05-16T08:24:20Z</time>
      </trkpt>
      <trkpt lat="48.15537" lon="-2.05373">
        <ele>136</ele>
        <time>2025-05-16T08:24:21Z</time>
      </trkpt>
      <trkpt lat="48.15537" lon="-2.05367">
        <ele>136</ele>
        <time>2025-05-16T08:24:22Z</time>
      </trkpt>
      <trkpt lat="48.15538" lon="-2.05361">
        <ele>136</ele>
        <time>2025-05-16T08:24:23Z</time>
      </trkpt>
      <trkpt lat="48.15538" lon="-2.05355">
        <ele>135</ele>
        <time>2025-05-16T08:24:24Z</time>
      </trkpt>
      <trkpt lat="48.15538" lon="-2.05348">
        <ele>135</ele>
        <time>2025-05-16T08:24:25Z</time>
      </trkpt>
      <trkpt lat="48.15539" lon="-2.05342">
        <ele>135</ele>
        <time>2025-05-16T08:24:26Z</time>
      </trkpt>
      <trkpt lat="48.15539" lon="-2.05336">
        <ele>135</ele>
        <time>2025-05-16T08:24:27Z</time>
      </trkpt>
      <trkpt lat="48.15539" lon="-2.0533">
        <ele>136</ele>
        <time>2025-05-16T08:24:28Z</time>
      </trkpt>
      <trkpt lat="48.15539" lon="-2.05325">
        <ele>136</ele>
        <time>2025-05-16T08:24:29Z</time>
      </trkpt>
      <trkpt lat="48.1554" lon="-2.05318">
        <ele>136</ele>
        <time>2025-05-16T08:24:30Z</time>
      </trkpt>
      <trkpt lat="48.1554" lon="-2.05312">
        <ele>136</ele>
        <time>2025-05-16T08:24:31Z</time>
      </trkpt>
      <trkpt lat="48.15541" lon="-2.05306">
        <ele>136</ele>
        <time>2025-05-16T08:24:32Z</time>
      </trkpt>
      <trkpt lat="48.15541" lon="-2.053">
        <ele>136</ele>
        <time>2025-05-16T08:24:33Z</time>
      </trkpt>
      <trkpt lat="48.15541" lon="-2.05294">
        <ele>136</ele>
        <time>2025-05-16T08:24:34Z</time>
      </trkpt>
      <trkpt lat="48.15541" lon="-2.05288">
        <ele>136</ele>
        <time>2025-05-16T08:24:35Z</time>
      </trkpt>
      <trkpt lat="48.15541" lon="-2.05282">
        <ele>136</ele>
        <time>2025-05-16T08:24:36Z</time>
      </trkpt>
      <trkpt lat="48.15541" lon="-2.05276">
        <ele>136</ele>
        <time>2025-05-16T08:24:37Z</time>
      </trkpt>
      <trkpt lat="48.15541" lon="-2.05269">
        <ele>136</ele>
        <time>2025-05-16T08:24:38Z</time>
      </trkpt>
      <trkpt lat="48.1554" lon="-2.05263">
        <ele>137</ele>
        <time>2025-05-16T08:24:39Z</time>
      </trkpt>
      <trkpt lat="48.1554" lon="-2.05257">
        <ele>137</ele>
        <time>2025-05-16T08:24:40Z</time>
      </trkpt>
      <trkpt lat="48.15539" lon="-2.05251">
        <ele>137</ele>
        <time>2025-05-16T08:24:41Z</time>
      </trkpt>
      <trkpt lat="48.15539" lon="-2.05245">
        <ele>137</ele>
        <time>2025-05-16T08:24:42Z</time>
      </trkpt>
      <trkpt lat="48.15538" lon="-2.05239">
        <ele>137</ele>
        <time>2025-05-16T08:24:43Z</time>
      </trkpt>
      <trkpt lat="48.15537" lon="-2.05233">
        <ele>137</ele>
        <time>2025-05-16T08:24:44Z</time>
      </trkpt>
      <trkpt lat="48.15536" lon="-2.05228">
        <ele>137</ele>
        <time>2025-05-16T08:24:45Z</time>
      </trkpt>
      <trkpt lat="48.15535" lon="-2.05222">
        <ele>137</ele>
        <time>2025-05-16T08:24:46Z</time>
      </trkpt>
      <trkpt lat="48.15534" lon="-2.05217">
        <ele>137</ele>
        <time>2025-05-16T08:24:47Z</time>
      </trkpt>
      <trkpt lat="48.15533" lon="-2.05211">
        <ele>137</ele>
        <time>2025-05-16T08:24:48Z</time>
      </trkpt>
      <trkpt lat="48.15531" lon="-2.05206">
        <ele>137</ele>
        <time>2025-05-16T08:24:49Z</time>
      </trkpt>
      <trkpt lat="48.1553" lon="-2.052">
        <ele>138</ele>
        <time>2025-05-16T08:24:50Z</time>
      </trkpt>
      <trkpt lat="48.15529" lon="-2.05195">
        <ele>138</ele>
        <time>2025-05-16T08:24:51Z</time>
      </trkpt>
      <trkpt lat="48.15527" lon="-2.05189">
        <ele>138</ele>
        <time>2025-05-16T08:24:52Z</time>
      </trkpt>
      <trkpt lat="48.15526" lon="-2.05184">
        <ele>138</ele>
        <time>2025-05-16T08:24:53Z</time>
      </trkpt>
      <trkpt lat="48.15525" lon="-2.05179">
        <ele>138</ele>
        <time>2025-05-16T08:24:54Z</time>
      </trkpt>
      <trkpt lat="48.15524" lon="-2.05174">
        <ele>138</ele>
        <time>2025-05-16T08:24:55Z</time>
      </trkpt>
      <trkpt lat="48.15523" lon="-2.05169">
        <ele>138</ele>
        <time>2025-05-16T08:24:56Z</time>
      </trkpt>
      <trkpt lat="48.15522" lon="-2.05164">
        <ele>138</ele>
        <time>2025-05-16T08:24:57Z</time>
      </trkpt>
      <trkpt lat="48.15521" lon="-2.05159">
        <ele>138</ele>
        <time>2025-05-16T08:24:58Z</time>
      </trkpt>
      <trkpt lat="48.15521" lon="-2.05153">
        <ele>139</ele>
        <time>2025-05-16T08:24:59Z</time>
      </trkpt>
      <trkpt lat="48.1552" lon="-2.05148">
        <ele>139</ele>
        <time>2025-05-16T08:25:00Z</time>
      </trkpt>
      <trkpt lat="48.1552" lon="-2.05143">
        <ele>139</ele>
        <time>2025-05-16T08:25:01Z</time>
      </trkpt>
      <trkpt lat="48.15519" lon="-2.05138">
        <ele>138</ele>
        <time>2025-05-16T08:25:02Z</time>
      </trkpt>
      <trkpt lat="48.15519" lon="-2.05133">
        <ele>138</ele>
        <time>2025-05-16T08:25:03Z</time>
      </trkpt>
      <trkpt lat="48.15519" lon="-2.05127">
        <ele>138</ele>
        <time>2025-05-16T08:25:04Z</time>
      </trkpt>
      <trkpt lat="48.15519" lon="-2.05122">
        <ele>138</ele>
        <time>2025-05-16T08:25:05Z</time>
      </trkpt>
      <trkpt lat="48.15519" lon="-2.05117">
        <ele>138</ele>
        <time>2025-05-16T08:25:06Z</time>
      </trkpt>
      <trkpt lat="48.15519" lon="-2.05112">
        <ele>138</ele>
        <time>2025-05-16T08:25:07Z</time>
      </trkpt>
      <trkpt lat="48.15519" lon="-2.05107">
        <ele>138</ele>
        <time>2025-05-16T08:25:08Z</time>
      </trkpt>
      <trkpt lat="48.15519" lon="-2.05102">
        <ele>138</ele>
        <time>2025-05-16T08:25:09Z</time>
      </trkpt>
      <trkpt lat="48.15519" lon="-2.05097">
        <ele>138</ele>
        <time>2025-05-16T08:25:10Z</time>
      </trkpt>
      <trkpt lat="48.15519" lon="-2.05092">
        <ele>137</ele>
        <time>2025-05-16T08:25:11Z</time>
      </trkpt>
      <trkpt lat="48.1552" lon="-2.05087">
        <ele>137</ele>
        <time>2025-05-16T08:25:12Z</time>
      </trkpt>
      <trkpt lat="48.1552" lon="-2.05082">
        <ele>138</ele>
        <time>2025-05-16T08:25:13Z</time>
      </trkpt>
      <trkpt lat="48.1552" lon="-2.05077">
        <ele>138</ele>
        <time>2025-05-16T08:25:14Z</time>
      </trkpt>
      <trkpt lat="48.15521" lon="-2.05073">
        <ele>138</ele>
        <time>2025-05-16T08:25:15Z</time>
      </trkpt>
      <trkpt lat="48.15521" lon="-2.05069">
        <ele>138</ele>
        <time>2025-05-16T08:25:16Z</time>
      </trkpt>
      <trkpt lat="48.15522" lon="-2.05065">
        <ele>138</ele>
        <time>2025-05-16T08:25:17Z</time>
      </trkpt>
      <trkpt lat="48.15522" lon="-2.0506">
        <ele>138</ele>
        <time>2025-05-16T08:25:18Z</time>
      </trkpt>
      <trkpt lat="48.15522" lon="-2.05056">
        <ele>138</ele>
        <time>2025-05-16T08:25:19Z</time>
      </trkpt>
      <trkpt lat="48.15523" lon="-2.05051">
        <ele>138</ele>
        <time>2025-05-16T08:25:20Z</time>
      </trkpt>
      <trkpt lat="48.15523" lon="-2.05047">
        <ele>138</ele>
        <time>2025-05-16T08:25:21Z</time>
      </trkpt>
      <trkpt lat="48.15523" lon="-2.05043">
        <ele>138</ele>
        <time>2025-05-16T08:25:22Z</time>
      </trkpt>
      <trkpt lat="48.15523" lon="-2.05039">
        <ele>138</ele>
        <time>2025-05-16T08:25:23Z</time>
      </trkpt>
      <trkpt lat="48.15523" lon="-2.05034">
        <ele>138</ele>
        <time>2025-05-16T08:25:24Z</time>
      </trkpt>
      <trkpt lat="48.15523" lon="-2.0503">
        <ele>137</ele>
        <time>2025-05-16T08:25:25Z</time>
      </trkpt>
      <trkpt lat="48.15523" lon="-2.05026">
        <ele>137</ele>
        <time>2025-05-16T08:25:26Z</time>
      </trkpt>
      <trkpt lat="48.15522" lon="-2.05022">
        <ele>138</ele>
        <time>2025-05-16T08:25:27Z</time>
      </trkpt>
      <trkpt lat="48.15521" lon="-2.05016">
        <ele>138</ele>
        <time>2025-05-16T08:25:28Z</time>
      </trkpt>
      <trkpt lat="48.15521" lon="-2.05012">
        <ele>138</ele>
        <time>2025-05-16T08:25:29Z</time>
      </trkpt>
      <trkpt lat="48.1552" lon="-2.05007">
        <ele>138</ele>
        <time>2025-05-16T08:25:30Z</time>
      </trkpt>
      <trkpt lat="48.1552" lon="-2.05001">
        <ele>138</ele>
        <time>2025-05-16T08:25:31Z</time>
      </trkpt>
      <trkpt lat="48.15519" lon="-2.04996">
        <ele>138</ele>
        <time>2025-05-16T08:25:32Z</time>
      </trkpt>
      <trkpt lat="48.15519" lon="-2.04991">
        <ele>139</ele>
        <time>2025-05-16T08:25:33Z</time>
      </trkpt>
      <trkpt lat="48.15518" lon="-2.04986">
        <ele>139</ele>
        <time>2025-05-16T08:25:34Z</time>
      </trkpt>
      <trkpt lat="48.15518" lon="-2.0498">
        <ele>139</ele>
        <time>2025-05-16T08:25:35Z</time>
      </trkpt>
      <trkpt lat="48.15518" lon="-2.04974">
        <ele>139</ele>
        <time>2025-05-16T08:25:36Z</time>
      </trkpt>
      <trkpt lat="48.15517" lon="-2.04968">
        <ele>139</ele>
        <time>2025-05-16T08:25:37Z</time>
      </trkpt>
      <trkpt lat="48.15517" lon="-2.04962">
        <ele>139</ele>
        <time>2025-05-16T08:25:38Z</time>
      </trkpt>
      <trkpt lat="48.15516" lon="-2.04956">
        <ele>139</ele>
        <time>2025-05-16T08:25:39Z</time>
      </trkpt>
      <trkpt lat="48.15516" lon="-2.0495">
        <ele>138</ele>
        <time>2025-05-16T08:25:40Z</time>
      </trkpt>
      <trkpt lat="48.15515" lon="-2.04944">
        <ele>138</ele>
        <time>2025-05-16T08:25:41Z</time>
      </trkpt>
      <trkpt lat="48.15515" lon="-2.04938">
        <ele>138</ele>
        <time>2025-05-16T08:25:42Z</time>
      </trkpt>
      <trkpt lat="48.15514" lon="-2.04932">
        <ele>138</ele>
        <time>2025-05-16T08:25:43Z</time>
      </trkpt>
      <trkpt lat="48.15514" lon="-2.04926">
        <ele>138</ele>
        <time>2025-05-16T08:25:44Z</time>
      </trkpt>
      <trkpt lat="48.15513" lon="-2.0492">
        <ele>138</ele>
        <time>2025-05-16T08:25:45Z</time>
      </trkpt>
      <trkpt lat="48.15513" lon="-2.04914">
        <ele>138</ele>
        <time>2025-05-16T08:25:46Z</time>
      </trkpt>
      <trkpt lat="48.15512" lon="-2.04908">
        <ele>138</ele>
        <time>2025-05-16T08:25:47Z</time>
      </trkpt>
      <trkpt lat="48.15512" lon="-2.04903">
        <ele>138</ele>
        <time>2025-05-16T08:25:48Z</time>
      </trkpt>
      <trkpt lat="48.15511" lon="-2.04896">
        <ele>138</ele>
        <time>2025-05-16T08:25:49Z</time>
      </trkpt>
      <trkpt lat="48.15511" lon="-2.04891">
        <ele>138</ele>
        <time>2025-05-16T08:25:50Z</time>
      </trkpt>
      <trkpt lat="48.1551" lon="-2.04884">
        <ele>139</ele>
        <time>2025-05-16T08:25:51Z</time>
      </trkpt>
      <trkpt lat="48.15509" lon="-2.04879">
        <ele>139</ele>
        <time>2025-05-16T08:25:52Z</time>
      </trkpt>
      <trkpt lat="48.15509" lon="-2.04873">
        <ele>139</ele>
        <time>2025-05-16T08:25:53Z</time>
      </trkpt>
      <trkpt lat="48.15508" lon="-2.04867">
        <ele>138</ele>
        <time>2025-05-16T08:25:54Z</time>
      </trkpt>
      <trkpt lat="48.15508" lon="-2.04861">
        <ele>138</ele>
        <time>2025-05-16T08:25:55Z</time>
      </trkpt>
      <trkpt lat="48.15508" lon="-2.04855">
        <ele>138</ele>
        <time>2025-05-16T08:25:56Z</time>
      </trkpt>
      <trkpt lat="48.15507" lon="-2.04849">
        <ele>138</ele>
        <time>2025-05-16T08:25:57Z</time>
      </trkpt>
      <trkpt lat="48.15507" lon="-2.04843">
        <ele>137</ele>
        <time>2025-05-16T08:25:58Z</time>
      </trkpt>
      <trkpt lat="48.15507" lon="-2.04837">
        <ele>137</ele>
        <time>2025-05-16T08:25:59Z</time>
      </trkpt>
      <trkpt lat="48.15507" lon="-2.04831">
        <ele>137</ele>
        <time>2025-05-16T08:26:00Z</time>
      </trkpt>
      <trkpt lat="48.15506" lon="-2.04825">
        <ele>137</ele>
        <time>2025-05-16T08:26:01Z</time>
      </trkpt>
      <trkpt lat="48.15507" lon="-2.04819">
        <ele>137</ele>
        <time>2025-05-16T08:26:02Z</time>
      </trkpt>
      <trkpt lat="48.15507" lon="-2.04812">
        <ele>137</ele>
        <time>2025-05-16T08:26:03Z</time>
      </trkpt>
      <trkpt lat="48.15507" lon="-2.04806">
        <ele>137</ele>
        <time>2025-05-16T08:26:04Z</time>
      </trkpt>
      <trkpt lat="48.15507" lon="-2.048">
        <ele>137</ele>
        <time>2025-05-16T08:26:05Z</time>
      </trkpt>
      <trkpt lat="48.15507" lon="-2.04794">
        <ele>137</ele>
        <time>2025-05-16T08:26:06Z</time>
      </trkpt>
      <trkpt lat="48.15507" lon="-2.04789">
        <ele>137</ele>
        <time>2025-05-16T08:26:07Z</time>
      </trkpt>
      <trkpt lat="48.15507" lon="-2.04783">
        <ele>137</ele>
        <time>2025-05-16T08:26:08Z</time>
      </trkpt>
      <trkpt lat="48.15508" lon="-2.04777">
        <ele>137</ele>
        <time>2025-05-16T08:26:09Z</time>
      </trkpt>
      <trkpt lat="48.15508" lon="-2.04771">
        <ele>137</ele>
        <time>2025-05-16T08:26:10Z</time>
      </trkpt>
      <trkpt lat="48.15508" lon="-2.04765">
        <ele>137</ele>
        <time>2025-05-16T08:26:11Z</time>
      </trkpt>
      <trkpt lat="48.15508" lon="-2.0476">
        <ele>137</ele>
        <time>2025-05-16T08:26:12Z</time>
      </trkpt>
      <trkpt lat="48.15508" lon="-2.04754">
        <ele>137</ele>
        <time>2025-05-16T08:26:13Z</time>
      </trkpt>
      <trkpt lat="48.15509" lon="-2.04748">
        <ele>137</ele>
        <time>2025-05-16T08:26:14Z</time>
      </trkpt>
      <trkpt lat="48.15509" lon="-2.04742">
        <ele>137</ele>
        <time>2025-05-16T08:26:15Z</time>
      </trkpt>
      <trkpt lat="48.15509" lon="-2.04736">
        <ele>137</ele>
        <time>2025-05-16T08:26:16Z</time>
      </trkpt>
      <trkpt lat="48.15509" lon="-2.0473">
        <ele>136</ele>
        <time>2025-05-16T08:26:17Z</time>
      </trkpt>
      <trkpt lat="48.1551" lon="-2.04724">
        <ele>137</ele>
        <time>2025-05-16T08:26:18Z</time>
      </trkpt>
      <trkpt lat="48.1551" lon="-2.04718">
        <ele>137</ele>
        <time>2025-05-16T08:26:19Z</time>
      </trkpt>
      <trkpt lat="48.1551" lon="-2.04712">
        <ele>137</ele>
        <time>2025-05-16T08:26:20Z</time>
      </trkpt>
      <trkpt lat="48.1551" lon="-2.04706">
        <ele>137</ele>
        <time>2025-05-16T08:26:21Z</time>
      </trkpt>
      <trkpt lat="48.15511" lon="-2.047">
        <ele>137</ele>
        <time>2025-05-16T08:26:22Z</time>
      </trkpt>
      <trkpt lat="48.15511" lon="-2.04694">
        <ele>137</ele>
        <time>2025-05-16T08:26:23Z</time>
      </trkpt>
      <trkpt lat="48.15511" lon="-2.04687">
        <ele>137</ele>
        <time>2025-05-16T08:26:24Z</time>
      </trkpt>
      <trkpt lat="48.15511" lon="-2.04682">
        <ele>137</ele>
        <time>2025-05-16T08:26:25Z</time>
      </trkpt>
      <trkpt lat="48.15511" lon="-2.04676">
        <ele>137</ele>
        <time>2025-05-16T08:26:26Z</time>
      </trkpt>
      <trkpt lat="48.15511" lon="-2.0467">
        <ele>137</ele>
        <time>2025-05-16T08:26:27Z</time>
      </trkpt>
      <trkpt lat="48.15511" lon="-2.04663">
        <ele>137</ele>
        <time>2025-05-16T08:26:28Z</time>
      </trkpt>
      <trkpt lat="48.15511" lon="-2.04657">
        <ele>137</ele>
        <time>2025-05-16T08:26:29Z</time>
      </trkpt>
      <trkpt lat="48.15511" lon="-2.04651">
        <ele>137</ele>
        <time>2025-05-16T08:26:30Z</time>
      </trkpt>
      <trkpt lat="48.15512" lon="-2.04644">
        <ele>137</ele>
        <time>2025-05-16T08:26:31Z</time>
      </trkpt>
      <trkpt lat="48.15512" lon="-2.04638">
        <ele>137</ele>
        <time>2025-05-16T08:26:32Z</time>
      </trkpt>
      <trkpt lat="48.15511" lon="-2.04632">
        <ele>137</ele>
        <time>2025-05-16T08:26:33Z</time>
      </trkpt>
      <trkpt lat="48.15511" lon="-2.04626">
        <ele>137</ele>
        <time>2025-05-16T08:26:34Z</time>
      </trkpt>
      <trkpt lat="48.15511" lon="-2.0462">
        <ele>137</ele>
        <time>2025-05-16T08:26:35Z</time>
      </trkpt>
      <trkpt lat="48.1551" lon="-2.04614">
        <ele>137</ele>
        <time>2025-05-16T08:26:36Z</time>
      </trkpt>
      <trkpt lat="48.1551" lon="-2.04608">
        <ele>137</ele>
        <time>2025-05-16T08:26:37Z</time>
      </trkpt>
      <trkpt lat="48.15509" lon="-2.04602">
        <ele>137</ele>
        <time>2025-05-16T08:26:38Z</time>
      </trkpt>
      <trkpt lat="48.15508" lon="-2.04596">
        <ele>137</ele>
        <time>2025-05-16T08:26:39Z</time>
      </trkpt>
      <trkpt lat="48.15507" lon="-2.0459">
        <ele>136</ele>
        <time>2025-05-16T08:26:40Z</time>
      </trkpt>
      <trkpt lat="48.15507" lon="-2.04584">
        <ele>136</ele>
        <time>2025-05-16T08:26:41Z</time>
      </trkpt>
      <trkpt lat="48.15506" lon="-2.04578">
        <ele>136</ele>
        <time>2025-05-16T08:26:42Z</time>
      </trkpt>
      <trkpt lat="48.15505" lon="-2.04573">
        <ele>136</ele>
        <time>2025-05-16T08:26:43Z</time>
      </trkpt>
      <trkpt lat="48.15503" lon="-2.04567">
        <ele>137</ele>
        <time>2025-05-16T08:26:44Z</time>
      </trkpt>
      <trkpt lat="48.15502" lon="-2.04561">
        <ele>137</ele>
        <time>2025-05-16T08:26:45Z</time>
      </trkpt>
      <trkpt lat="48.155" lon="-2.04555">
        <ele>137</ele>
        <time>2025-05-16T08:26:46Z</time>
      </trkpt>
      <trkpt lat="48.15499" lon="-2.0455">
        <ele>137</ele>
        <time>2025-05-16T08:26:47Z</time>
      </trkpt>
      <trkpt lat="48.15497" lon="-2.04544">
        <ele>137</ele>
        <time>2025-05-16T08:26:48Z</time>
      </trkpt>
      <trkpt lat="48.15495" lon="-2.04538">
        <ele>137</ele>
        <time>2025-05-16T08:26:49Z</time>
      </trkpt>
      <trkpt lat="48.15493" lon="-2.04532">
        <ele>137</ele>
        <time>2025-05-16T08:26:50Z</time>
      </trkpt>
      <trkpt lat="48.15491" lon="-2.04526">
        <ele>137</ele>
        <time>2025-05-16T08:26:51Z</time>
      </trkpt>
      <trkpt lat="48.15489" lon="-2.0452">
        <ele>137</ele>
        <time>2025-05-16T08:26:52Z</time>
      </trkpt>
      <trkpt lat="48.15487" lon="-2.04514">
        <ele>137</ele>
        <time>2025-05-16T08:26:53Z</time>
      </trkpt>
      <trkpt lat="48.15485" lon="-2.04508">
        <ele>136</ele>
        <time>2025-05-16T08:26:54Z</time>
      </trkpt>
      <trkpt lat="48.15483" lon="-2.04501">
        <ele>137</ele>
        <time>2025-05-16T08:26:55Z</time>
      </trkpt>
      <trkpt lat="48.15482" lon="-2.04494">
        <ele>137</ele>
        <time>2025-05-16T08:26:56Z</time>
      </trkpt>
      <trkpt lat="48.1548" lon="-2.04488">
        <ele>137</ele>
        <time>2025-05-16T08:26:57Z</time>
      </trkpt>
      <trkpt lat="48.15478" lon="-2.04481">
        <ele>137</ele>
        <time>2025-05-16T08:26:58Z</time>
      </trkpt>
      <trkpt lat="48.15476" lon="-2.04474">
        <ele>136</ele>
        <time>2025-05-16T08:26:59Z</time>
      </trkpt>
      <trkpt lat="48.15475" lon="-2.04466">
        <ele>135</ele>
        <time>2025-05-16T08:27:00Z</time>
      </trkpt>
      <trkpt lat="48.15474" lon="-2.04459">
        <ele>135</ele>
        <time>2025-05-16T08:27:01Z</time>
      </trkpt>
      <trkpt lat="48.15473" lon="-2.04451">
        <ele>134</ele>
        <time>2025-05-16T08:27:02Z</time>
      </trkpt>
      <trkpt lat="48.15473" lon="-2.04444">
        <ele>135</ele>
        <time>2025-05-16T08:27:03Z</time>
      </trkpt>
      <trkpt lat="48.15472" lon="-2.04437">
        <ele>135</ele>
        <time>2025-05-16T08:27:04Z</time>
      </trkpt>
      <trkpt lat="48.15472" lon="-2.0443">
        <ele>135</ele>
        <time>2025-05-16T08:27:05Z</time>
      </trkpt>
      <trkpt lat="48.15472" lon="-2.04423">
        <ele>135</ele>
        <time>2025-05-16T08:27:06Z</time>
      </trkpt>
      <trkpt lat="48.15472" lon="-2.04416">
        <ele>135</ele>
        <time>2025-05-16T08:27:07Z</time>
      </trkpt>
      <trkpt lat="48.15472" lon="-2.04409">
        <ele>135</ele>
        <time>2025-05-16T08:27:08Z</time>
      </trkpt>
      <trkpt lat="48.15472" lon="-2.04402">
        <ele>135</ele>
        <time>2025-05-16T08:27:09Z</time>
      </trkpt>
      <trkpt lat="48.15471" lon="-2.04395">
        <ele>134</ele>
        <time>2025-05-16T08:27:10Z</time>
      </trkpt>
      <trkpt lat="48.15471" lon="-2.04388">
        <ele>134</ele>
        <time>2025-05-16T08:27:11Z</time>
      </trkpt>
      <trkpt lat="48.15471" lon="-2.04381">
        <ele>134</ele>
        <time>2025-05-16T08:27:12Z</time>
      </trkpt>
      <trkpt lat="48.15471" lon="-2.04374">
        <ele>134</ele>
        <time>2025-05-16T08:27:13Z</time>
      </trkpt>
      <trkpt lat="48.15471" lon="-2.04367">
        <ele>134</ele>
        <time>2025-05-16T08:27:14Z</time>
      </trkpt>
      <trkpt lat="48.15471" lon="-2.04359">
        <ele>134</ele>
        <time>2025-05-16T08:27:15Z</time>
      </trkpt>
      <trkpt lat="48.15471" lon="-2.04352">
        <ele>134</ele>
        <time>2025-05-16T08:27:16Z</time>
      </trkpt>
      <trkpt lat="48.1547" lon="-2.04345">
        <ele>134</ele>
        <time>2025-05-16T08:27:17Z</time>
      </trkpt>
      <trkpt lat="48.1547" lon="-2.04338">
        <ele>134</ele>
        <time>2025-05-16T08:27:18Z</time>
      </trkpt>
      <trkpt lat="48.1547" lon="-2.0433">
        <ele>134</ele>
        <time>2025-05-16T08:27:19Z</time>
      </trkpt>
      <trkpt lat="48.15469" lon="-2.04323">
        <ele>133</ele>
        <time>2025-05-16T08:27:20Z</time>
      </trkpt>
      <trkpt lat="48.15469" lon="-2.04316">
        <ele>133</ele>
        <time>2025-05-16T08:27:21Z</time>
      </trkpt>
      <trkpt lat="48.15469" lon="-2.04308">
        <ele>133</ele>
        <time>2025-05-16T08:27:22Z</time>
      </trkpt>
      <trkpt lat="48.15469" lon="-2.043">
        <ele>133</ele>
        <time>2025-05-16T08:27:23Z</time>
      </trkpt>
      <trkpt lat="48.15468" lon="-2.04293">
        <ele>133</ele>
        <time>2025-05-16T08:27:24Z</time>
      </trkpt>
      <trkpt lat="48.15468" lon="-2.04285">
        <ele>133</ele>
        <time>2025-05-16T08:27:25Z</time>
      </trkpt>
      <trkpt lat="48.15468" lon="-2.04278">
        <ele>133</ele>
        <time>2025-05-16T08:27:26Z</time>
      </trkpt>
      <trkpt lat="48.15468" lon="-2.04271">
        <ele>133</ele>
        <time>2025-05-16T08:27:27Z</time>
      </trkpt>
      <trkpt lat="48.15468" lon="-2.04263">
        <ele>133</ele>
        <time>2025-05-16T08:27:28Z</time>
      </trkpt>
      <trkpt lat="48.15467" lon="-2.04255">
        <ele>132</ele>
        <time>2025-05-16T08:27:29Z</time>
      </trkpt>
      <trkpt lat="48.15467" lon="-2.04247">
        <ele>132</ele>
        <time>2025-05-16T08:27:30Z</time>
      </trkpt>
      <trkpt lat="48.15467" lon="-2.0424">
        <ele>132</ele>
        <time>2025-05-16T08:27:31Z</time>
      </trkpt>
      <trkpt lat="48.15466" lon="-2.04232">
        <ele>132</ele>
        <time>2025-05-16T08:27:32Z</time>
      </trkpt>
      <trkpt lat="48.15466" lon="-2.04224">
        <ele>132</ele>
        <time>2025-05-16T08:27:33Z</time>
      </trkpt>
      <trkpt lat="48.15466" lon="-2.04215">
        <ele>131</ele>
        <time>2025-05-16T08:27:34Z</time>
      </trkpt>
      <trkpt lat="48.15466" lon="-2.04207">
        <ele>131</ele>
        <time>2025-05-16T08:27:35Z</time>
      </trkpt>
      <trkpt lat="48.15466" lon="-2.04199">
        <ele>131</ele>
        <time>2025-05-16T08:27:36Z</time>
      </trkpt>
      <trkpt lat="48.15466" lon="-2.04191">
        <ele>131</ele>
        <time>2025-05-16T08:27:37Z</time>
      </trkpt>
      <trkpt lat="48.15465" lon="-2.04184">
        <ele>131</ele>
        <time>2025-05-16T08:27:38Z</time>
      </trkpt>
      <trkpt lat="48.15465" lon="-2.04176">
        <ele>131</ele>
        <time>2025-05-16T08:27:39Z</time>
      </trkpt>
      <trkpt lat="48.15465" lon="-2.04167">
        <ele>130</ele>
        <time>2025-05-16T08:27:40Z</time>
      </trkpt>
      <trkpt lat="48.15464" lon="-2.04159">
        <ele>130</ele>
        <time>2025-05-16T08:27:41Z</time>
      </trkpt>
      <trkpt lat="48.15464" lon="-2.04151">
        <ele>130</ele>
        <time>2025-05-16T08:27:42Z</time>
      </trkpt>
      <trkpt lat="48.15464" lon="-2.04143">
        <ele>130</ele>
        <time>2025-05-16T08:27:43Z</time>
      </trkpt>
      <trkpt lat="48.15463" lon="-2.04135">
        <ele>130</ele>
        <time>2025-05-16T08:27:44Z</time>
      </trkpt>
      <trkpt lat="48.15463" lon="-2.04127">
        <ele>130</ele>
        <time>2025-05-16T08:27:45Z</time>
      </trkpt>
      <trkpt lat="48.15463" lon="-2.04119">
        <ele>130</ele>
        <time>2025-05-16T08:27:46Z</time>
      </trkpt>
      <trkpt lat="48.15463" lon="-2.04111">
        <ele>130</ele>
        <time>2025-05-16T08:27:47Z</time>
      </trkpt>
      <trkpt lat="48.15463" lon="-2.04103">
        <ele>130</ele>
        <time>2025-05-16T08:27:48Z</time>
      </trkpt>
      <trkpt lat="48.15463" lon="-2.04095">
        <ele>130</ele>
        <time>2025-05-16T08:27:49Z</time>
      </trkpt>
      <trkpt lat="48.15462" lon="-2.04087">
        <ele>130</ele>
        <time>2025-05-16T08:27:50Z</time>
      </trkpt>
      <trkpt lat="48.15462" lon="-2.04078">
        <ele>130</ele>
        <time>2025-05-16T08:27:51Z</time>
      </trkpt>
      <trkpt lat="48.15462" lon="-2.04069">
        <ele>129</ele>
        <time>2025-05-16T08:27:52Z</time>
      </trkpt>
      <trkpt lat="48.15461" lon="-2.04061">
        <ele>129</ele>
        <time>2025-05-16T08:27:53Z</time>
      </trkpt>
      <trkpt lat="48.15461" lon="-2.04052">
        <ele>129</ele>
        <time>2025-05-16T08:27:54Z</time>
      </trkpt>
      <trkpt lat="48.15461" lon="-2.04043">
        <ele>129</ele>
        <time>2025-05-16T08:27:55Z</time>
      </trkpt>
      <trkpt lat="48.15461" lon="-2.04035">
        <ele>129</ele>
        <time>2025-05-16T08:27:56Z</time>
      </trkpt>
      <trkpt lat="48.15461" lon="-2.04026">
        <ele>128</ele>
        <time>2025-05-16T08:27:57Z</time>
      </trkpt>
      <trkpt lat="48.15461" lon="-2.04017">
        <ele>128</ele>
        <time>2025-05-16T08:27:58Z</time>
      </trkpt>
      <trkpt lat="48.15461" lon="-2.04008">
        <ele>128</ele>
        <time>2025-05-16T08:27:59Z</time>
      </trkpt>
      <trkpt lat="48.15461" lon="-2.03999">
        <ele>128</ele>
        <time>2025-05-16T08:28:00Z</time>
      </trkpt>
      <trkpt lat="48.15461" lon="-2.0399">
        <ele>128</ele>
        <time>2025-05-16T08:28:01Z</time>
      </trkpt>
      <trkpt lat="48.15461" lon="-2.03981">
        <ele>128</ele>
        <time>2025-05-16T08:28:02Z</time>
      </trkpt>
      <trkpt lat="48.15461" lon="-2.03972">
        <ele>127</ele>
        <time>2025-05-16T08:28:03Z</time>
      </trkpt>
      <trkpt lat="48.1546" lon="-2.03962">
        <ele>127</ele>
        <time>2025-05-16T08:28:04Z</time>
      </trkpt>
      <trkpt lat="48.1546" lon="-2.03953">
        <ele>126</ele>
        <time>2025-05-16T08:28:05Z</time>
      </trkpt>
      <trkpt lat="48.15461" lon="-2.03944">
        <ele>126</ele>
        <time>2025-05-16T08:28:06Z</time>
      </trkpt>
      <trkpt lat="48.15461" lon="-2.03935">
        <ele>126</ele>
        <time>2025-05-16T08:28:07Z</time>
      </trkpt>
      <trkpt lat="48.1546" lon="-2.03925">
        <ele>125</ele>
        <time>2025-05-16T08:28:08Z</time>
      </trkpt>
      <trkpt lat="48.1546" lon="-2.03916">
        <ele>125</ele>
        <time>2025-05-16T08:28:09Z</time>
      </trkpt>
      <trkpt lat="48.15459" lon="-2.03908">
        <ele>125</ele>
        <time>2025-05-16T08:28:10Z</time>
      </trkpt>
      <trkpt lat="48.15459" lon="-2.03899">
        <ele>125</ele>
        <time>2025-05-16T08:28:11Z</time>
      </trkpt>
      <trkpt lat="48.15458" lon="-2.0389">
        <ele>125</ele>
        <time>2025-05-16T08:28:12Z</time>
      </trkpt>
      <trkpt lat="48.15457" lon="-2.03881">
        <ele>125</ele>
        <time>2025-05-16T08:28:13Z</time>
      </trkpt>
      <trkpt lat="48.15456" lon="-2.03872">
        <ele>125</ele>
        <time>2025-05-16T08:28:14Z</time>
      </trkpt>
      <trkpt lat="48.15456" lon="-2.03863">
        <ele>125</ele>
        <time>2025-05-16T08:28:15Z</time>
      </trkpt>
      <trkpt lat="48.15455" lon="-2.03854">
        <ele>125</ele>
        <time>2025-05-16T08:28:16Z</time>
      </trkpt>
      <trkpt lat="48.15454" lon="-2.03845">
        <ele>125</ele>
        <time>2025-05-16T08:28:17Z</time>
      </trkpt>
      <trkpt lat="48.15453" lon="-2.03836">
        <ele>125</ele>
        <time>2025-05-16T08:28:18Z</time>
      </trkpt>
      <trkpt lat="48.15451" lon="-2.03827">
        <ele>125</ele>
        <time>2025-05-16T08:28:19Z</time>
      </trkpt>
      <trkpt lat="48.1545" lon="-2.03817">
        <ele>124</ele>
        <time>2025-05-16T08:28:20Z</time>
      </trkpt>
      <trkpt lat="48.15449" lon="-2.03808">
        <ele>124</ele>
        <time>2025-05-16T08:28:21Z</time>
      </trkpt>
      <trkpt lat="48.15448" lon="-2.03799">
        <ele>123</ele>
        <time>2025-05-16T08:28:22Z</time>
      </trkpt>
      <trkpt lat="48.15447" lon="-2.03789">
        <ele>123</ele>
        <time>2025-05-16T08:28:23Z</time>
      </trkpt>
      <trkpt lat="48.15446" lon="-2.03779">
        <ele>123</ele>
        <time>2025-05-16T08:28:24Z</time>
      </trkpt>
      <trkpt lat="48.15444" lon="-2.03769">
        <ele>123</ele>
        <time>2025-05-16T08:28:25Z</time>
      </trkpt>
      <trkpt lat="48.15443" lon="-2.03759">
        <ele>123</ele>
        <time>2025-05-16T08:28:26Z</time>
      </trkpt>
      <trkpt lat="48.15442" lon="-2.0375">
        <ele>123</ele>
        <time>2025-05-16T08:28:27Z</time>
      </trkpt>
      <trkpt lat="48.15441" lon="-2.03741">
        <ele>122</ele>
        <time>2025-05-16T08:28:28Z</time>
      </trkpt>
      <trkpt lat="48.1544" lon="-2.03731">
        <ele>122</ele>
        <time>2025-05-16T08:28:29Z</time>
      </trkpt>
      <trkpt lat="48.15439" lon="-2.03722">
        <ele>121</ele>
        <time>2025-05-16T08:28:30Z</time>
      </trkpt>
      <trkpt lat="48.15438" lon="-2.03712">
        <ele>121</ele>
        <time>2025-05-16T08:28:31Z</time>
      </trkpt>
      <trkpt lat="48.15438" lon="-2.03703">
        <ele>121</ele>
        <time>2025-05-16T08:28:32Z</time>
      </trkpt>
      <trkpt lat="48.15437" lon="-2.03694">
        <ele>121</ele>
        <time>2025-05-16T08:28:33Z</time>
      </trkpt>
      <trkpt lat="48.15436" lon="-2.03685">
        <ele>121</ele>
        <time>2025-05-16T08:28:34Z</time>
      </trkpt>
      <trkpt lat="48.15436" lon="-2.03677">
        <ele>121</ele>
        <time>2025-05-16T08:28:35Z</time>
      </trkpt>
      <trkpt lat="48.15436" lon="-2.03669">
        <ele>121</ele>
        <time>2025-05-16T08:28:36Z</time>
      </trkpt>
      <trkpt lat="48.15436" lon="-2.03662">
        <ele>121</ele>
        <time>2025-05-16T08:28:37Z</time>
      </trkpt>
      <trkpt lat="48.15436" lon="-2.03656">
        <ele>121</ele>
        <time>2025-05-16T08:28:38Z</time>
      </trkpt>
      <trkpt lat="48.15435" lon="-2.0365">
        <ele>121</ele>
        <time>2025-05-16T08:28:39Z</time>
      </trkpt>
      <trkpt lat="48.15433" lon="-2.03646">
        <ele>121</ele>
        <time>2025-05-16T08:28:40Z</time>
      </trkpt>
      <trkpt lat="48.1543" lon="-2.03642">
        <ele>121</ele>
        <time>2025-05-16T08:28:41Z</time>
      </trkpt>
      <trkpt lat="48.15426" lon="-2.0364">
        <ele>121</ele>
        <time>2025-05-16T08:28:42Z</time>
      </trkpt>
      <trkpt lat="48.15422" lon="-2.03638">
        <ele>120</ele>
        <time>2025-05-16T08:28:43Z</time>
      </trkpt>
      <trkpt lat="48.15418" lon="-2.03636">
        <ele>120</ele>
        <time>2025-05-16T08:28:44Z</time>
      </trkpt>
      <trkpt lat="48.15413" lon="-2.03634">
        <ele>120</ele>
        <time>2025-05-16T08:28:45Z</time>
      </trkpt>
      <trkpt lat="48.15409" lon="-2.03631">
        <ele>120</ele>
        <time>2025-05-16T08:28:46Z</time>
      </trkpt>
      <trkpt lat="48.15405" lon="-2.03628">
        <ele>120</ele>
        <time>2025-05-16T08:28:47Z</time>
      </trkpt>
      <trkpt lat="48.154" lon="-2.03624">
        <ele>119</ele>
        <time>2025-05-16T08:28:48Z</time>
      </trkpt>
      <trkpt lat="48.15396" lon="-2.03621">
        <ele>120</ele>
        <time>2025-05-16T08:28:49Z</time>
      </trkpt>
      <trkpt lat="48.15392" lon="-2.03616">
        <ele>120</ele>
        <time>2025-05-16T08:28:50Z</time>
      </trkpt>
      <trkpt lat="48.15387" lon="-2.03611">
        <ele>121</ele>
        <time>2025-05-16T08:28:51Z</time>
      </trkpt>
      <trkpt lat="48.15383" lon="-2.03606">
        <ele>121</ele>
        <time>2025-05-16T08:28:52Z</time>
      </trkpt>
      <trkpt lat="48.15379" lon="-2.036">
        <ele>121</ele>
        <time>2025-05-16T08:28:53Z</time>
      </trkpt>
      <trkpt lat="48.15375" lon="-2.03595">
        <ele>121</ele>
        <time>2025-05-16T08:28:54Z</time>
      </trkpt>
      <trkpt lat="48.15372" lon="-2.03589">
        <ele>120</ele>
        <time>2025-05-16T08:28:55Z</time>
      </trkpt>
      <trkpt lat="48.15369" lon="-2.03581">
        <ele>119</ele>
        <time>2025-05-16T08:28:56Z</time>
      </trkpt>
      <trkpt lat="48.15366" lon="-2.03574">
        <ele>119</ele>
        <time>2025-05-16T08:28:57Z</time>
      </trkpt>
      <trkpt lat="48.15363" lon="-2.03567">
        <ele>119</ele>
        <time>2025-05-16T08:28:58Z</time>
      </trkpt>
      <trkpt lat="48.1536" lon="-2.03559">
        <ele>119</ele>
        <time>2025-05-16T08:28:59Z</time>
      </trkpt>
      <trkpt lat="48.15357" lon="-2.03551">
        <ele>119</ele>
        <time>2025-05-16T08:29:00Z</time>
      </trkpt>
      <trkpt lat="48.15352" lon="-2.03545">
        <ele>118</ele>
        <time>2025-05-16T08:29:01Z</time>
      </trkpt>
      <trkpt lat="48.15347" lon="-2.0354">
        <ele>117</ele>
        <time>2025-05-16T08:29:02Z</time>
      </trkpt>
      <trkpt lat="48.15341" lon="-2.03539">
        <ele>117</ele>
        <time>2025-05-16T08:29:03Z</time>
      </trkpt>
      <trkpt lat="48.15335" lon="-2.03539">
        <ele>117</ele>
        <time>2025-05-16T08:29:04Z</time>
      </trkpt>
      <trkpt lat="48.1533" lon="-2.03538">
        <ele>117</ele>
        <time>2025-05-16T08:29:05Z</time>
      </trkpt>
      <trkpt lat="48.15326" lon="-2.03539">
        <ele>117</ele>
        <time>2025-05-16T08:29:06Z</time>
      </trkpt>
      <trkpt lat="48.15322" lon="-2.03539">
        <ele>117</ele>
        <time>2025-05-16T08:29:07Z</time>
      </trkpt>
      <trkpt lat="48.15318" lon="-2.0354">
        <ele>117</ele>
        <time>2025-05-16T08:29:08Z</time>
      </trkpt>
      <trkpt lat="48.15314" lon="-2.03541">
        <ele>117</ele>
        <time>2025-05-16T08:29:09Z</time>
      </trkpt>
      <trkpt lat="48.15311" lon="-2.03543">
        <ele>117</ele>
        <time>2025-05-16T08:29:10Z</time>
      </trkpt>
      <trkpt lat="48.15308" lon="-2.03544">
        <ele>118</ele>
        <time>2025-05-16T08:29:11Z</time>
      </trkpt>
      <trkpt lat="48.15303" lon="-2.03547">
        <ele>118</ele>
        <time>2025-05-16T08:29:12Z</time>
      </trkpt>
      <trkpt lat="48.15299" lon="-2.03549">
        <ele>118</ele>
        <time>2025-05-16T08:29:13Z</time>
      </trkpt>
      <trkpt lat="48.15295" lon="-2.03551">
        <ele>118</ele>
        <time>2025-05-16T08:29:14Z</time>
      </trkpt>
      <trkpt lat="48.15292" lon="-2.03553">
        <ele>118</ele>
        <time>2025-05-16T08:29:15Z</time>
      </trkpt>
      <trkpt lat="48.15288" lon="-2.03554">
        <ele>117</ele>
        <time>2025-05-16T08:29:16Z</time>
      </trkpt>
      <trkpt lat="48.15284" lon="-2.03556">
        <ele>117</ele>
        <time>2025-05-16T08:29:17Z</time>
      </trkpt>
      <trkpt lat="48.15281" lon="-2.03557">
        <ele>116</ele>
        <time>2025-05-16T08:29:18Z</time>
      </trkpt>
      <trkpt lat="48.15277" lon="-2.03558">
        <ele>116</ele>
        <time>2025-05-16T08:29:19Z</time>
      </trkpt>
      <trkpt lat="48.15274" lon="-2.0356">
        <ele>116</ele>
        <time>2025-05-16T08:29:20Z</time>
      </trkpt>
      <trkpt lat="48.15271" lon="-2.03562">
        <ele>115</ele>
        <time>2025-05-16T08:29:21Z</time>
      </trkpt>
      <trkpt lat="48.15268" lon="-2.03563">
        <ele>115</ele>
        <time>2025-05-16T08:29:22Z</time>
      </trkpt>
      <trkpt lat="48.15264" lon="-2.03564">
        <ele>115</ele>
        <time>2025-05-16T08:29:23Z</time>
      </trkpt>
      <trkpt lat="48.15261" lon="-2.03566">
        <ele>115</ele>
        <time>2025-05-16T08:29:24Z</time>
      </trkpt>
      <trkpt lat="48.15257" lon="-2.03565">
        <ele>114</ele>
        <time>2025-05-16T08:29:25Z</time>
      </trkpt>
      <trkpt lat="48.15253" lon="-2.03565">
        <ele>114</ele>
        <time>2025-05-16T08:29:26Z</time>
      </trkpt>
      <trkpt lat="48.1525" lon="-2.03564">
        <ele>114</ele>
        <time>2025-05-16T08:29:27Z</time>
      </trkpt>
      <trkpt lat="48.15246" lon="-2.03564">
        <ele>114</ele>
        <time>2025-05-16T08:29:28Z</time>
      </trkpt>
      <trkpt lat="48.15243" lon="-2.03563">
        <ele>114</ele>
        <time>2025-05-16T08:29:29Z</time>
      </trkpt>
      <trkpt lat="48.1524" lon="-2.03562">
        <ele>114</ele>
        <time>2025-05-16T08:29:30Z</time>
      </trkpt>
      <trkpt lat="48.15237" lon="-2.03561">
        <ele>114</ele>
        <time>2025-05-16T08:29:31Z</time>
      </trkpt>
      <trkpt lat="48.15234" lon="-2.0356">
        <ele>114</ele>
        <time>2025-05-16T08:29:32Z</time>
      </trkpt>
      <trkpt lat="48.1523" lon="-2.03559">
        <ele>114</ele>
        <time>2025-05-16T08:29:33Z</time>
      </trkpt>
      <trkpt lat="48.15227" lon="-2.03559">
        <ele>113</ele>
        <time>2025-05-16T08:29:34Z</time>
      </trkpt>
      <trkpt lat="48.15224" lon="-2.03558">
        <ele>113</ele>
        <time>2025-05-16T08:29:35Z</time>
      </trkpt>
      <trkpt lat="48.15221" lon="-2.03557">
        <ele>112</ele>
        <time>2025-05-16T08:29:36Z</time>
      </trkpt>
      <trkpt lat="48.15219" lon="-2.03556">
        <ele>112</ele>
        <time>2025-05-16T08:29:37Z</time>
      </trkpt>
      <trkpt lat="48.15215" lon="-2.03555">
        <ele>112</ele>
        <time>2025-05-16T08:29:38Z</time>
      </trkpt>
      <trkpt lat="48.15212" lon="-2.03555">
        <ele>112</ele>
        <time>2025-05-16T08:29:39Z</time>
      </trkpt>
      <trkpt lat="48.15209" lon="-2.03554">
        <ele>112</ele>
        <time>2025-05-16T08:29:40Z</time>
      </trkpt>
      <trkpt lat="48.15206" lon="-2.03553">
        <ele>112</ele>
        <time>2025-05-16T08:29:41Z</time>
      </trkpt>
      <trkpt lat="48.15202" lon="-2.03553">
        <ele>113</ele>
        <time>2025-05-16T08:29:42Z</time>
      </trkpt>
      <trkpt lat="48.15199" lon="-2.03552">
        <ele>113</ele>
        <time>2025-05-16T08:29:43Z</time>
      </trkpt>
      <trkpt lat="48.15195" lon="-2.03551">
        <ele>113</ele>
        <time>2025-05-16T08:29:44Z</time>
      </trkpt>
      <trkpt lat="48.15192" lon="-2.03551">
        <ele>113</ele>
        <time>2025-05-16T08:29:45Z</time>
      </trkpt>
      <trkpt lat="48.15189" lon="-2.0355">
        <ele>114</ele>
        <time>2025-05-16T08:29:46Z</time>
      </trkpt>
      <trkpt lat="48.15185" lon="-2.0355">
        <ele>115</ele>
        <time>2025-05-16T08:29:47Z</time>
      </trkpt>
      <trkpt lat="48.15182" lon="-2.03551">
        <ele>115</ele>
        <time>2025-05-16T08:29:48Z</time>
      </trkpt>
      <trkpt lat="48.15178" lon="-2.03552">
        <ele>116</ele>
        <time>2025-05-16T08:29:49Z</time>
      </trkpt>
      <trkpt lat="48.15175" lon="-2.03552">
        <ele>116</ele>
        <time>2025-05-16T08:29:50Z</time>
      </trkpt>
      <trkpt lat="48.15171" lon="-2.03554">
        <ele>116</ele>
        <time>2025-05-16T08:29:51Z</time>
      </trkpt>
      <trkpt lat="48.15168" lon="-2.03555">
        <ele>115</ele>
        <time>2025-05-16T08:29:52Z</time>
      </trkpt>
      <trkpt lat="48.15164" lon="-2.03556">
        <ele>115</ele>
        <time>2025-05-16T08:29:53Z</time>
      </trkpt>
      <trkpt lat="48.15161" lon="-2.03557">
        <ele>115</ele>
        <time>2025-05-16T08:29:54Z</time>
      </trkpt>
      <trkpt lat="48.15158" lon="-2.03558">
        <ele>115</ele>
        <time>2025-05-16T08:29:55Z</time>
      </trkpt>
      <trkpt lat="48.15155" lon="-2.0356">
        <ele>115</ele>
        <time>2025-05-16T08:29:56Z</time>
      </trkpt>
      <trkpt lat="48.15151" lon="-2.03562">
        <ele>115</ele>
        <time>2025-05-16T08:29:57Z</time>
      </trkpt>
      <trkpt lat="48.15148" lon="-2.03564">
        <ele>115</ele>
        <time>2025-05-16T08:29:58Z</time>
      </trkpt>
      <trkpt lat="48.15145" lon="-2.03567">
        <ele>115</ele>
        <time>2025-05-16T08:29:59Z</time>
      </trkpt>
      <trkpt lat="48.15142" lon="-2.03569">
        <ele>115</ele>
        <time>2025-05-16T08:30:00Z</time>
      </trkpt>
      <trkpt lat="48.15139" lon="-2.03571">
        <ele>115</ele>
        <time>2025-05-16T08:30:01Z</time>
      </trkpt>
      <trkpt lat="48.15136" lon="-2.03574">
        <ele>115</ele>
        <time>2025-05-16T08:30:02Z</time>
      </trkpt>
      <trkpt lat="48.15133" lon="-2.03577">
        <ele>114</ele>
        <time>2025-05-16T08:30:03Z</time>
      </trkpt>
      <trkpt lat="48.1513" lon="-2.03581">
        <ele>114</ele>
        <time>2025-05-16T08:30:04Z</time>
      </trkpt>
      <trkpt lat="48.15128" lon="-2.03585">
        <ele>114</ele>
        <time>2025-05-16T08:30:05Z</time>
      </trkpt>
      <trkpt lat="48.15126" lon="-2.0359">
        <ele>113</ele>
        <time>2025-05-16T08:30:06Z</time>
      </trkpt>
      <trkpt lat="48.15125" lon="-2.03595">
        <ele>113</ele>
        <time>2025-05-16T08:30:07Z</time>
      </trkpt>
      <trkpt lat="48.15125" lon="-2.036">
        <ele>113</ele>
        <time>2025-05-16T08:30:08Z</time>
      </trkpt>
      <trkpt lat="48.15124" lon="-2.03604">
        <ele>113</ele>
        <time>2025-05-16T08:30:09Z</time>
      </trkpt>
      <trkpt lat="48.15123" lon="-2.03609">
        <ele>113</ele>
        <time>2025-05-16T08:30:10Z</time>
      </trkpt>
      <trkpt lat="48.15122" lon="-2.03614">
        <ele>114</ele>
        <time>2025-05-16T08:30:11Z</time>
      </trkpt>
      <trkpt lat="48.15121" lon="-2.03619">
        <ele>114</ele>
        <time>2025-05-16T08:30:12Z</time>
      </trkpt>
      <trkpt lat="48.1512" lon="-2.03624">
        <ele>114</ele>
        <time>2025-05-16T08:30:13Z</time>
      </trkpt>
      <trkpt lat="48.15119" lon="-2.03629">
        <ele>114</ele>
        <time>2025-05-16T08:30:14Z</time>
      </trkpt>
      <trkpt lat="48.15118" lon="-2.03633">
        <ele>114</ele>
        <time>2025-05-16T08:30:15Z</time>
      </trkpt>
      <trkpt lat="48.15118" lon="-2.03638">
        <ele>114</ele>
        <time>2025-05-16T08:30:16Z</time>
      </trkpt>
      <trkpt lat="48.15117" lon="-2.03643">
        <ele>114</ele>
        <time>2025-05-16T08:30:17Z</time>
      </trkpt>
      <trkpt lat="48.15116" lon="-2.03649">
        <ele>114</ele>
        <time>2025-05-16T08:30:18Z</time>
      </trkpt>
      <trkpt lat="48.15116" lon="-2.03654">
        <ele>114</ele>
        <time>2025-05-16T08:30:19Z</time>
      </trkpt>
      <trkpt lat="48.15116" lon="-2.0366">
        <ele>114</ele>
        <time>2025-05-16T08:30:20Z</time>
      </trkpt>
      <trkpt lat="48.15115" lon="-2.03665">
        <ele>115</ele>
        <time>2025-05-16T08:30:21Z</time>
      </trkpt>
      <trkpt lat="48.15114" lon="-2.03671">
        <ele>115</ele>
        <time>2025-05-16T08:30:22Z</time>
      </trkpt>
      <trkpt lat="48.15114" lon="-2.03676">
        <ele>115</ele>
        <time>2025-05-16T08:30:23Z</time>
      </trkpt>
      <trkpt lat="48.15113" lon="-2.03681">
        <ele>115</ele>
        <time>2025-05-16T08:30:24Z</time>
      </trkpt>
      <trkpt lat="48.15112" lon="-2.03686">
        <ele>115</ele>
        <time>2025-05-16T08:30:25Z</time>
      </trkpt>
      <trkpt lat="48.15112" lon="-2.03691">
        <ele>115</ele>
        <time>2025-05-16T08:30:26Z</time>
      </trkpt>
      <trkpt lat="48.15111" lon="-2.03696">
        <ele>115</ele>
        <time>2025-05-16T08:30:27Z</time>
      </trkpt>
      <trkpt lat="48.1511" lon="-2.037">
        <ele>115</ele>
        <time>2025-05-16T08:30:28Z</time>
      </trkpt>
      <trkpt lat="48.15109" lon="-2.03703">
        <ele>115</ele>
        <time>2025-05-16T08:30:29Z</time>
      </trkpt>
      <trkpt lat="48.15107" lon="-2.03707">
        <ele>115</ele>
        <time>2025-05-16T08:30:30Z</time>
      </trkpt>
      <trkpt lat="48.15106" lon="-2.0371">
        <ele>114</ele>
        <time>2025-05-16T08:30:31Z</time>
      </trkpt>
      <trkpt lat="48.15104" lon="-2.03713">
        <ele>115</ele>
        <time>2025-05-16T08:30:32Z</time>
      </trkpt>
      <trkpt lat="48.15103" lon="-2.03715">
        <ele>114</ele>
        <time>2025-05-16T08:30:33Z</time>
      </trkpt>
      <trkpt lat="48.15101" lon="-2.03716">
        <ele>114</ele>
        <time>2025-05-16T08:30:34Z</time>
      </trkpt>
      <trkpt lat="48.15099" lon="-2.03718">
        <ele>114</ele>
        <time>2025-05-16T08:30:35Z</time>
      </trkpt>
      <trkpt lat="48.15096" lon="-2.03719">
        <ele>114</ele>
        <time>2025-05-16T08:30:36Z</time>
      </trkpt>
      <trkpt lat="48.15095" lon="-2.03719">
        <ele>115</ele>
        <time>2025-05-16T08:30:37Z</time>
      </trkpt>
      <trkpt lat="48.15093" lon="-2.03721">
        <ele>115</ele>
        <time>2025-05-16T08:30:38Z</time>
      </trkpt>
      <trkpt lat="48.15091" lon="-2.03722">
        <ele>115</ele>
        <time>2025-05-16T08:30:39Z</time>
      </trkpt>
      <trkpt lat="48.15089" lon="-2.03723">
        <ele>115</ele>
        <time>2025-05-16T08:30:40Z</time>
      </trkpt>
      <trkpt lat="48.15086" lon="-2.03724">
        <ele>115</ele>
        <time>2025-05-16T08:30:41Z</time>
      </trkpt>
      <trkpt lat="48.15084" lon="-2.03725">
        <ele>115</ele>
        <time>2025-05-16T08:30:42Z</time>
      </trkpt>
      <trkpt lat="48.15081" lon="-2.03727">
        <ele>116</ele>
        <time>2025-05-16T08:30:43Z</time>
      </trkpt>
      <trkpt lat="48.15079" lon="-2.03729">
        <ele>116</ele>
        <time>2025-05-16T08:30:44Z</time>
      </trkpt>
      <trkpt lat="48.15076" lon="-2.03731">
        <ele>116</ele>
        <time>2025-05-16T08:30:45Z</time>
      </trkpt>
      <trkpt lat="48.15073" lon="-2.03733">
        <ele>116</ele>
        <time>2025-05-16T08:30:46Z</time>
      </trkpt>
      <trkpt lat="48.15071" lon="-2.03734">
        <ele>116</ele>
        <time>2025-05-16T08:30:47Z</time>
      </trkpt>
      <trkpt lat="48.15068" lon="-2.03735">
        <ele>116</ele>
        <time>2025-05-16T08:30:48Z</time>
      </trkpt>
      <trkpt lat="48.15065" lon="-2.03737">
        <ele>116</ele>
        <time>2025-05-16T08:30:49Z</time>
      </trkpt>
      <trkpt lat="48.15062" lon="-2.03737">
        <ele>116</ele>
        <time>2025-05-16T08:30:50Z</time>
      </trkpt>
      <trkpt lat="48.1506" lon="-2.03738">
        <ele>116</ele>
        <time>2025-05-16T08:30:51Z</time>
      </trkpt>
      <trkpt lat="48.15058" lon="-2.03739">
        <ele>115</ele>
        <time>2025-05-16T08:30:52Z</time>
      </trkpt>
      <trkpt lat="48.15055" lon="-2.0374">
        <ele>115</ele>
        <time>2025-05-16T08:30:53Z</time>
      </trkpt>
      <trkpt lat="48.15053" lon="-2.03742">
        <ele>115</ele>
        <time>2025-05-16T08:30:54Z</time>
      </trkpt>
      <trkpt lat="48.1505" lon="-2.03743">
        <ele>115</ele>
        <time>2025-05-16T08:30:55Z</time>
      </trkpt>
      <trkpt lat="48.15047" lon="-2.03744">
        <ele>115</ele>
        <time>2025-05-16T08:30:56Z</time>
      </trkpt>
      <trkpt lat="48.15045" lon="-2.03745">
        <ele>115</ele>
        <time>2025-05-16T08:30:57Z</time>
      </trkpt>
      <trkpt lat="48.15042" lon="-2.03746">
        <ele>115</ele>
        <time>2025-05-16T08:30:58Z</time>
      </trkpt>
      <trkpt lat="48.15039" lon="-2.03746">
        <ele>115</ele>
        <time>2025-05-16T08:30:59Z</time>
      </trkpt>
      <trkpt lat="48.15036" lon="-2.03747">
        <ele>115</ele>
        <time>2025-05-16T08:31:00Z</time>
      </trkpt>
      <trkpt lat="48.15034" lon="-2.03748">
        <ele>115</ele>
        <time>2025-05-16T08:31:01Z</time>
      </trkpt>
      <trkpt lat="48.15031" lon="-2.03749">
        <ele>115</ele>
        <time>2025-05-16T08:31:02Z</time>
      </trkpt>
      <trkpt lat="48.15028" lon="-2.0375">
        <ele>115</ele>
        <time>2025-05-16T08:31:03Z</time>
      </trkpt>
      <trkpt lat="48.15025" lon="-2.03752">
        <ele>115</ele>
        <time>2025-05-16T08:31:04Z</time>
      </trkpt>
      <trkpt lat="48.15022" lon="-2.03752">
        <ele>114</ele>
        <time>2025-05-16T08:31:05Z</time>
      </trkpt>
      <trkpt lat="48.1502" lon="-2.03753">
        <ele>114</ele>
        <time>2025-05-16T08:31:06Z</time>
      </trkpt>
      <trkpt lat="48.15017" lon="-2.03754">
        <ele>114</ele>
        <time>2025-05-16T08:31:07Z</time>
      </trkpt>
      <trkpt lat="48.15015" lon="-2.03755">
        <ele>114</ele>
        <time>2025-05-16T08:31:08Z</time>
      </trkpt>
      <trkpt lat="48.15012" lon="-2.03756">
        <ele>114</ele>
        <time>2025-05-16T08:31:09Z</time>
      </trkpt>
      <trkpt lat="48.1501" lon="-2.03757">
        <ele>114</ele>
        <time>2025-05-16T08:31:10Z</time>
      </trkpt>
      <trkpt lat="48.15007" lon="-2.03758">
        <ele>114</ele>
        <time>2025-05-16T08:31:11Z</time>
      </trkpt>
      <trkpt lat="48.15004" lon="-2.03759">
        <ele>114</ele>
        <time>2025-05-16T08:31:12Z</time>
      </trkpt>
      <trkpt lat="48.15001" lon="-2.0376">
        <ele>114</ele>
        <time>2025-05-16T08:31:13Z</time>
      </trkpt>
      <trkpt lat="48.14998" lon="-2.03761">
        <ele>114</ele>
        <time>2025-05-16T08:31:14Z</time>
      </trkpt>
      <trkpt lat="48.14996" lon="-2.03762">
        <ele>114</ele>
        <time>2025-05-16T08:31:15Z</time>
      </trkpt>
      <trkpt lat="48.14993" lon="-2.03763">
        <ele>114</ele>
        <time>2025-05-16T08:31:16Z</time>
      </trkpt>
      <trkpt lat="48.1499" lon="-2.03764">
        <ele>114</ele>
        <time>2025-05-16T08:31:17Z</time>
      </trkpt>
      <trkpt lat="48.14987" lon="-2.03765">
        <ele>114</ele>
        <time>2025-05-16T08:31:18Z</time>
      </trkpt>
      <trkpt lat="48.14985" lon="-2.03765">
        <ele>114</ele>
        <time>2025-05-16T08:31:19Z</time>
      </trkpt>
      <trkpt lat="48.14983" lon="-2.03766">
        <ele>114</ele>
        <time>2025-05-16T08:31:20Z</time>
      </trkpt>
      <trkpt lat="48.14981" lon="-2.03767">
        <ele>115</ele>
        <time>2025-05-16T08:31:21Z</time>
      </trkpt>
      <trkpt lat="48.14978" lon="-2.03768">
        <ele>115</ele>
        <time>2025-05-16T08:31:22Z</time>
      </trkpt>
      <trkpt lat="48.14976" lon="-2.03769">
        <ele>115</ele>
        <time>2025-05-16T08:31:23Z</time>
      </trkpt>
      <trkpt lat="48.14973" lon="-2.03771">
        <ele>115</ele>
        <time>2025-05-16T08:31:24Z</time>
      </trkpt>
      <trkpt lat="48.14971" lon="-2.03772">
        <ele>115</ele>
        <time>2025-05-16T08:31:25Z</time>
      </trkpt>
      <trkpt lat="48.14968" lon="-2.03773">
        <ele>115</ele>
        <time>2025-05-16T08:31:26Z</time>
      </trkpt>
      <trkpt lat="48.14965" lon="-2.03774">
        <ele>115</ele>
        <time>2025-05-16T08:31:27Z</time>
      </trkpt>
      <trkpt lat="48.14963" lon="-2.03775">
        <ele>115</ele>
        <time>2025-05-16T08:31:28Z</time>
      </trkpt>
      <trkpt lat="48.1496" lon="-2.03776">
        <ele>115</ele>
        <time>2025-05-16T08:31:29Z</time>
      </trkpt>
      <trkpt lat="48.14957" lon="-2.03777">
        <ele>115</ele>
        <time>2025-05-16T08:31:30Z</time>
      </trkpt>
      <trkpt lat="48.14954" lon="-2.03779">
        <ele>115</ele>
        <time>2025-05-16T08:31:31Z</time>
      </trkpt>
      <trkpt lat="48.14952" lon="-2.0378">
        <ele>115</ele>
        <time>2025-05-16T08:31:32Z</time>
      </trkpt>
      <trkpt lat="48.14949" lon="-2.03781">
        <ele>115</ele>
        <time>2025-05-16T08:31:33Z</time>
      </trkpt>
      <trkpt lat="48.14947" lon="-2.03783">
        <ele>115</ele>
        <time>2025-05-16T08:31:34Z</time>
      </trkpt>
      <trkpt lat="48.14945" lon="-2.03784">
        <ele>115</ele>
        <time>2025-05-16T08:31:35Z</time>
      </trkpt>
      <trkpt lat="48.14942" lon="-2.03785">
        <ele>115</ele>
        <time>2025-05-16T08:31:36Z</time>
      </trkpt>
      <trkpt lat="48.1494" lon="-2.03786">
        <ele>115</ele>
        <time>2025-05-16T08:31:37Z</time>
      </trkpt>
      <trkpt lat="48.14937" lon="-2.03788">
        <ele>114</ele>
        <time>2025-05-16T08:31:38Z</time>
      </trkpt>
      <trkpt lat="48.14935" lon="-2.03789">
        <ele>114</ele>
        <time>2025-05-16T08:31:39Z</time>
      </trkpt>
      <trkpt lat="48.14932" lon="-2.0379">
        <ele>114</ele>
        <time>2025-05-16T08:31:40Z</time>
      </trkpt>
      <trkpt lat="48.1493" lon="-2.0379">
        <ele>115</ele>
        <time>2025-05-16T08:31:41Z</time>
      </trkpt>
      <trkpt lat="48.14927" lon="-2.0379">
        <ele>115</ele>
        <time>2025-05-16T08:31:42Z</time>
      </trkpt>
      <trkpt lat="48.14925" lon="-2.0379">
        <ele>115</ele>
        <time>2025-05-16T08:31:43Z</time>
      </trkpt>
      <trkpt lat="48.14922" lon="-2.03789">
        <ele>116</ele>
        <time>2025-05-16T08:31:44Z</time>
      </trkpt>
      <trkpt lat="48.1492" lon="-2.03787">
        <ele>116</ele>
        <time>2025-05-16T08:31:45Z</time>
      </trkpt>
      <trkpt lat="48.14918" lon="-2.03785">
        <ele>116</ele>
        <time>2025-05-16T08:31:46Z</time>
      </trkpt>
      <trkpt lat="48.14917" lon="-2.03782">
        <ele>116</ele>
        <time>2025-05-16T08:31:47Z</time>
      </trkpt>
      <trkpt lat="48.14916" lon="-2.0378">
        <ele>116</ele>
        <time>2025-05-16T08:31:48Z</time>
      </trkpt>
      <trkpt lat="48.14914" lon="-2.03778">
        <ele>116</ele>
        <time>2025-05-16T08:31:49Z</time>
      </trkpt>
      <trkpt lat="48.14913" lon="-2.03775">
        <ele>115</ele>
        <time>2025-05-16T08:31:50Z</time>
      </trkpt>
      <trkpt lat="48.14911" lon="-2.03772">
        <ele>115</ele>
        <time>2025-05-16T08:31:51Z</time>
      </trkpt>
      <trkpt lat="48.1491" lon="-2.0377">
        <ele>115</ele>
        <time>2025-05-16T08:31:52Z</time>
      </trkpt>
      <trkpt lat="48.14908" lon="-2.03767">
        <ele>115</ele>
        <time>2025-05-16T08:31:53Z</time>
      </trkpt>
      <trkpt lat="48.14907" lon="-2.03765">
        <ele>115</ele>
        <time>2025-05-16T08:31:54Z</time>
      </trkpt>
      <trkpt lat="48.14906" lon="-2.03762">
        <ele>115</ele>
        <time>2025-05-16T08:31:55Z</time>
      </trkpt>
      <trkpt lat="48.14904" lon="-2.0376">
        <ele>114</ele>
        <time>2025-05-16T08:31:56Z</time>
      </trkpt>
      <trkpt lat="48.14902" lon="-2.03759">
        <ele>114</ele>
        <time>2025-05-16T08:31:57Z</time>
      </trkpt>
      <trkpt lat="48.149" lon="-2.03757">
        <ele>114</ele>
        <time>2025-05-16T08:31:58Z</time>
      </trkpt>
      <trkpt lat="48.14898" lon="-2.03757">
        <ele>114</ele>
        <time>2025-05-16T08:31:59Z</time>
      </trkpt>
      <trkpt lat="48.14896" lon="-2.03756">
        <ele>114</ele>
        <time>2025-05-16T08:32:00Z</time>
      </trkpt>
      <trkpt lat="48.14894" lon="-2.03756">
        <ele>114</ele>
        <time>2025-05-16T08:32:01Z</time>
      </trkpt>
      <trkpt lat="48.14892" lon="-2.03756">
        <ele>114</ele>
        <time>2025-05-16T08:32:02Z</time>
      </trkpt>
      <trkpt lat="48.1489" lon="-2.03756">
        <ele>114</ele>
        <time>2025-05-16T08:32:03Z</time>
      </trkpt>
      <trkpt lat="48.14889" lon="-2.03757">
        <ele>114</ele>
        <time>2025-05-16T08:32:04Z</time>
      </trkpt>
      <trkpt lat="48.14887" lon="-2.03757">
        <ele>114</ele>
        <time>2025-05-16T08:32:05Z</time>
      </trkpt>
      <trkpt lat="48.14886" lon="-2.03756">
        <ele>114</ele>
        <time>2025-05-16T08:32:06Z</time>
      </trkpt>
      <trkpt lat="48.14886" lon="-2.03756">
        <ele>114</ele>
        <time>2025-05-16T08:32:07Z</time>
      </trkpt>
      <trkpt lat="48.14886" lon="-2.03756">
        <ele>114</ele>
        <time>2025-05-16T08:32:08Z</time>
      </trkpt>
      <trkpt lat="48.14886" lon="-2.03756">
        <ele>114</ele>
        <time>2025-05-16T08:32:09Z</time>
      </trkpt>
      <trkpt lat="48.14886" lon="-2.03756">
        <ele>114</ele>
        <time>2025-05-16T08:32:10Z</time>
      </trkpt>
      <trkpt lat="48.14886" lon="-2.03756">
        <ele>114</ele>
        <time>2025-05-16T08:32:11Z</time>
      </trkpt>
      <trkpt lat="48.14886" lon="-2.03756">
        <ele>114</ele>
        <time>2025-05-16T08:32:12Z</time>
      </trkpt>
      <trkpt lat="48.14886" lon="-2.03756">
        <ele>114</ele>
        <time>2025-05-16T08:32:13Z</time>
      </trkpt>
      <trkpt lat="48.14886" lon="-2.03756">
        <ele>114</ele>
        <time>2025-05-16T08:32:14Z</time>
      </trkpt>
      <trkpt lat="48.14886" lon="-2.03756">
        <ele>114</ele>
        <time>2025-05-16T08:32:15Z</time>
      </trkpt>
      <trkpt lat="48.14886" lon="-2.03756">
        <ele>114</ele>
        <time>2025-05-16T08:32:16Z</time>
      </trkpt>
      <trkpt lat="48.14886" lon="-2.03756">
        <ele>114</ele>
        <time>2025-05-16T08:32:17Z</time>
      </trkpt>
      <trkpt lat="48.14886" lon="-2.03756">
        <ele>114</ele>
        <time>2025-05-16T08:32:18Z</time>
      </trkpt>
      <trkpt lat="48.14886" lon="-2.03756">
        <ele>114</ele>
        <time>2025-05-16T08:32:19Z</time>
      </trkpt>
      <trkpt lat="48.14886" lon="-2.03756">
        <ele>114</ele>
        <time>2025-05-16T08:32:20Z</time>
      </trkpt>
      <trkpt lat="48.14886" lon="-2.03756">
        <ele>114</ele>
        <time>2025-05-16T08:32:21Z</time>
      </trkpt>
      <trkpt lat="48.14886" lon="-2.03756">
        <ele>114</ele>
        <time>2025-05-16T08:32:22Z</time>
      </trkpt>
      <trkpt lat="48.14886" lon="-2.03756">
        <ele>114</ele>
        <time>2025-05-16T08:32:23Z</time>
      </trkpt>
      <trkpt lat="48.14886" lon="-2.03756">
        <ele>114</ele>
        <time>2025-05-16T08:32:24Z</time>
      </trkpt>
      <trkpt lat="48.14886" lon="-2.03756">
        <ele>114</ele>
        <time>2025-05-16T08:32:25Z</time>
      </trkpt>
      <trkpt lat="48.14886" lon="-2.03756">
        <ele>114</ele>
        <time>2025-05-16T08:32:26Z</time>
      </trkpt>
      <trkpt lat="48.14886" lon="-2.03756">
        <ele>114</ele>
        <time>2025-05-16T08:32:27Z</time>
      </trkpt>
      <trkpt lat="48.14886" lon="-2.03756">
        <ele>114</ele>
        <time>2025-05-16T08:32:28Z</time>
      </trkpt>
      <trkpt lat="48.14886" lon="-2.03756">
        <ele>114</ele>
        <time>2025-05-16T08:32:29Z</time>
      </trkpt>
      <trkpt lat="48.14886" lon="-2.03756">
        <ele>114</ele>
        <time>2025-05-16T08:32:30Z</time>
      </trkpt>
      <trkpt lat="48.14886" lon="-2.03756">
        <ele>114</ele>
        <time>2025-05-16T08:32:31Z</time>
      </trkpt>
      <trkpt lat="48.14886" lon="-2.03756">
        <ele>114</ele>
        <time>2025-05-16T08:32:32Z</time>
      </trkpt>
      <trkpt lat="48.14886" lon="-2.03756">
        <ele>114</ele>
        <time>2025-05-16T08:32:33Z</time>
      </trkpt>
      <trkpt lat="48.14886" lon="-2.03756">
        <ele>114</ele>
        <time>2025-05-16T08:32:34Z</time>
      </trkpt>
      <trkpt lat="48.14886" lon="-2.03756">
        <ele>114</ele>
        <time>2025-05-16T08:32:35Z</time>
      </trkpt>
      <trkpt lat="48.14886" lon="-2.03756">
        <ele>114</ele>
        <time>2025-05-16T08:32:36Z</time>
      </trkpt>
      <trkpt lat="48.14886" lon="-2.03756">
        <ele>114</ele>
        <time>2025-05-16T08:32:37Z</time>
      </trkpt>
      <trkpt lat="48.14886" lon="-2.03756">
        <ele>114</ele>
        <time>2025-05-16T08:32:38Z</time>
      </trkpt>
      <trkpt lat="48.14886" lon="-2.03756">
        <ele>114</ele>
        <time>2025-05-16T08:32:39Z</time>
      </trkpt>
      <trkpt lat="48.14886" lon="-2.03756">
        <ele>114</ele>
        <time>2025-05-16T08:32:40Z</time>
      </trkpt>
      <trkpt lat="48.14886" lon="-2.03756">
        <ele>114</ele>
        <time>2025-05-16T08:32:41Z</time>
      </trkpt>
      <trkpt lat="48.14886" lon="-2.03756">
        <ele>114</ele>
        <time>2025-05-16T08:32:42Z</time>
      </trkpt>
      <trkpt lat="48.14886" lon="-2.03756">
        <ele>114</ele>
        <time>2025-05-16T08:32:43Z</time>
      </trkpt>
      <trkpt lat="48.14886" lon="-2.03756">
        <ele>114</ele>
        <time>2025-05-16T08:32:44Z</time>
      </trkpt>
      <trkpt lat="48.14886" lon="-2.03756">
        <ele>114</ele>
        <time>2025-05-16T08:32:45Z</time>
      </trkpt>
      <trkpt lat="48.14886" lon="-2.03756">
        <ele>114</ele>
        <time>2025-05-16T08:32:46Z</time>
      </trkpt>
      <trkpt lat="48.14886" lon="-2.03756">
        <ele>114</ele>
        <time>2025-05-16T08:32:47Z</time>
      </trkpt>
      <trkpt lat="48.14886" lon="-2.03756">
        <ele>114</ele>
        <time>2025-05-16T08:32:48Z</time>
      </trkpt>
      <trkpt lat="48.14886" lon="-2.03756">
        <ele>114</ele>
        <time>2025-05-16T08:32:49Z</time>
      </trkpt>
      <trkpt lat="48.14886" lon="-2.03756">
        <ele>114</ele>
        <time>2025-05-16T08:32:50Z</time>
      </trkpt>
      <trkpt lat="48.14886" lon="-2.03756">
        <ele>114</ele>
        <time>2025-05-16T08:32:51Z</time>
      </trkpt>
      <trkpt lat="48.14886" lon="-2.03756">
        <ele>114</ele>
        <time>2025-05-16T08:32:52Z</time>
      </trkpt>
      <trkpt lat="48.14886" lon="-2.03756">
        <ele>114</ele>
        <time>2025-05-16T08:32:53Z</time>
      </trkpt>
      <trkpt lat="48.14886" lon="-2.03756">
        <ele>114</ele>
        <time>2025-05-16T08:32:54Z</time>
      </trkpt>
      <trkpt lat="48.14886" lon="-2.03756">
        <ele>114</ele>
        <time>2025-05-16T08:32:55Z</time>
      </trkpt>
      <trkpt lat="48.14886" lon="-2.03756">
        <ele>114</ele>
        <time>2025-05-16T08:32:56Z</time>
      </trkpt>
      <trkpt lat="48.14886" lon="-2.03756">
        <ele>114</ele>
        <time>2025-05-16T08:32:57Z</time>
      </trkpt>
      <trkpt lat="48.14886" lon="-2.03756">
        <ele>114</ele>
        <time>2025-05-16T08:32:58Z</time>
      </trkpt>
      <trkpt lat="48.14886" lon="-2.03756">
        <ele>114</ele>
        <time>2025-05-16T08:32:59Z</time>
      </trkpt>
      <trkpt lat="48.14886" lon="-2.03756">
        <ele>114</ele>
        <time>2025-05-16T08:33:00Z</time>
      </trkpt>
      <trkpt lat="48.14886" lon="-2.03756">
        <ele>114</ele>
        <time>2025-05-16T08:33:01Z</time>
      </trkpt>
      <trkpt lat="48.14886" lon="-2.03756">
        <ele>114</ele>
        <time>2025-05-16T08:33:02Z</time>
      </trkpt>
      <trkpt lat="48.14886" lon="-2.03756">
        <ele>114</ele>
        <time>2025-05-16T08:33:03Z</time>
      </trkpt>
      <trkpt lat="48.14886" lon="-2.03756">
        <ele>114</ele>
        <time>2025-05-16T08:33:04Z</time>
      </trkpt>
      <trkpt lat="48.14886" lon="-2.03756">
        <ele>114</ele>
        <time>2025-05-16T08:33:05Z</time>
      </trkpt>
      <trkpt lat="48.14886" lon="-2.03756">
        <ele>114</ele>
        <time>2025-05-16T08:33:06Z</time>
      </trkpt>
      <trkpt lat="48.14886" lon="-2.03756">
        <ele>114</ele>
        <time>2025-05-16T08:33:07Z</time>
      </trkpt>
      <trkpt lat="48.14886" lon="-2.03756">
        <ele>114</ele>
        <time>2025-05-16T08:33:08Z</time>
      </trkpt>
      <trkpt lat="48.14886" lon="-2.03756">
        <ele>114</ele>
        <time>2025-05-16T08:33:09Z</time>
      </trkpt>
      <trkpt lat="48.14886" lon="-2.03756">
        <ele>114</ele>
        <time>2025-05-16T08:33:10Z</time>
      </trkpt>
      <trkpt lat="48.14886" lon="-2.03756">
        <ele>114</ele>
        <time>2025-05-16T08:33:11Z</time>
      </trkpt>
      <trkpt lat="48.14886" lon="-2.03756">
        <ele>114</ele>
        <time>2025-05-16T08:33:12Z</time>
      </trkpt>
      <trkpt lat="48.14886" lon="-2.03756">
        <ele>114</ele>
        <time>2025-05-16T08:33:13Z</time>
      </trkpt>
      <trkpt lat="48.14886" lon="-2.03756">
        <ele>114</ele>
        <time>2025-05-16T08:33:14Z</time>
      </trkpt>
      <trkpt lat="48.14839" lon="-2.03754">
        <ele>114</ele>
        <time>2025-05-16T08:33:41Z</time>
      </trkpt>
      <trkpt lat="48.14836" lon="-2.03755">
        <ele>114</ele>
        <time>2025-05-16T08:33:42Z</time>
      </trkpt>
      <trkpt lat="48.14833" lon="-2.03754">
        <ele>114</ele>
        <time>2025-05-16T08:33:43Z</time>
      </trkpt>
      <trkpt lat="48.1483" lon="-2.03754">
        <ele>114</ele>
        <time>2025-05-16T08:33:44Z</time>
      </trkpt>
      <trkpt lat="48.14826" lon="-2.03754">
        <ele>114</ele>
        <time>2025-05-16T08:33:45Z</time>
      </trkpt>
      <trkpt lat="48.14823" lon="-2.03754">
        <ele>114</ele>
        <time>2025-05-16T08:33:46Z</time>
      </trkpt>
      <trkpt lat="48.1482" lon="-2.03754">
        <ele>113</ele>
        <time>2025-05-16T08:33:47Z</time>
      </trkpt>
      <trkpt lat="48.14816" lon="-2.03754">
        <ele>113</ele>
        <time>2025-05-16T08:33:48Z</time>
      </trkpt>
      <trkpt lat="48.14813" lon="-2.03754">
        <ele>113</ele>
        <time>2025-05-16T08:33:49Z</time>
      </trkpt>
      <trkpt lat="48.14809" lon="-2.03754">
        <ele>114</ele>
        <time>2025-05-16T08:33:50Z</time>
      </trkpt>
      <trkpt lat="48.14806" lon="-2.03755">
        <ele>113</ele>
        <time>2025-05-16T08:33:51Z</time>
      </trkpt>
      <trkpt lat="48.14802" lon="-2.03756">
        <ele>114</ele>
        <time>2025-05-16T08:33:52Z</time>
      </trkpt>
      <trkpt lat="48.14798" lon="-2.03757">
        <ele>114</ele>
        <time>2025-05-16T08:33:53Z</time>
      </trkpt>
      <trkpt lat="48.14794" lon="-2.03758">
        <ele>113</ele>
        <time>2025-05-16T08:33:54Z</time>
      </trkpt>
      <trkpt lat="48.1479" lon="-2.0376">
        <ele>113</ele>
        <time>2025-05-16T08:33:55Z</time>
      </trkpt>
      <trkpt lat="48.14787" lon="-2.03762">
        <ele>114</ele>
        <time>2025-05-16T08:33:56Z</time>
      </trkpt>
      <trkpt lat="48.14783" lon="-2.03764">
        <ele>114</ele>
        <time>2025-05-16T08:33:57Z</time>
      </trkpt>
      <trkpt lat="48.1478" lon="-2.03766">
        <ele>114</ele>
        <time>2025-05-16T08:33:58Z</time>
      </trkpt>
      <trkpt lat="48.14776" lon="-2.03769">
        <ele>114</ele>
        <time>2025-05-16T08:33:59Z</time>
      </trkpt>
      <trkpt lat="48.14772" lon="-2.03771">
        <ele>114</ele>
        <time>2025-05-16T08:34:00Z</time>
      </trkpt>
      <trkpt lat="48.14769" lon="-2.03773">
        <ele>114</ele>
        <time>2025-05-16T08:34:01Z</time>
      </trkpt>
      <trkpt lat="48.14766" lon="-2.03775">
        <ele>114</ele>
        <time>2025-05-16T08:34:02Z</time>
      </trkpt>
      <trkpt lat="48.14762" lon="-2.03778">
        <ele>113</ele>
        <time>2025-05-16T08:34:03Z</time>
      </trkpt>
      <trkpt lat="48.14759" lon="-2.0378">
        <ele>113</ele>
        <time>2025-05-16T08:34:04Z</time>
      </trkpt>
      <trkpt lat="48.14755" lon="-2.03782">
        <ele>113</ele>
        <time>2025-05-16T08:34:05Z</time>
      </trkpt>
      <trkpt lat="48.14752" lon="-2.03784">
        <ele>113</ele>
        <time>2025-05-16T08:34:06Z</time>
      </trkpt>
      <trkpt lat="48.14748" lon="-2.03786">
        <ele>114</ele>
        <time>2025-05-16T08:34:07Z</time>
      </trkpt>
      <trkpt lat="48.14745" lon="-2.03788">
        <ele>114</ele>
        <time>2025-05-16T08:34:08Z</time>
      </trkpt>
      <trkpt lat="48.14741" lon="-2.0379">
        <ele>113</ele>
        <time>2025-05-16T08:34:09Z</time>
      </trkpt>
      <trkpt lat="48.14737" lon="-2.03792">
        <ele>113</ele>
        <time>2025-05-16T08:34:10Z</time>
      </trkpt>
      <trkpt lat="48.14733" lon="-2.03794">
        <ele>113</ele>
        <time>2025-05-16T08:34:11Z</time>
      </trkpt>
      <trkpt lat="48.14729" lon="-2.03796">
        <ele>113</ele>
        <time>2025-05-16T08:34:12Z</time>
      </trkpt>
      <trkpt lat="48.14726" lon="-2.03798">
        <ele>113</ele>
        <time>2025-05-16T08:34:13Z</time>
      </trkpt>
      <trkpt lat="48.14722" lon="-2.038">
        <ele>113</ele>
        <time>2025-05-16T08:34:14Z</time>
      </trkpt>
      <trkpt lat="48.14719" lon="-2.03803">
        <ele>113</ele>
        <time>2025-05-16T08:34:15Z</time>
      </trkpt>
      <trkpt lat="48.14717" lon="-2.03805">
        <ele>112</ele>
        <time>2025-05-16T08:34:16Z</time>
      </trkpt>
      <trkpt lat="48.14714" lon="-2.03808">
        <ele>112</ele>
        <time>2025-05-16T08:34:17Z</time>
      </trkpt>
      <trkpt lat="48.14712" lon="-2.0381">
        <ele>112</ele>
        <time>2025-05-16T08:34:18Z</time>
      </trkpt>
      <trkpt lat="48.1471" lon="-2.03812">
        <ele>113</ele>
        <time>2025-05-16T08:34:19Z</time>
      </trkpt>
      <trkpt lat="48.14708" lon="-2.03814">
        <ele>113</ele>
        <time>2025-05-16T08:34:20Z</time>
      </trkpt>
      <trkpt lat="48.14705" lon="-2.03814">
        <ele>113</ele>
        <time>2025-05-16T08:34:21Z</time>
      </trkpt>
      <trkpt lat="48.14702" lon="-2.03814">
        <ele>113</ele>
        <time>2025-05-16T08:34:22Z</time>
      </trkpt>
      <trkpt lat="48.14699" lon="-2.03813">
        <ele>113</ele>
        <time>2025-05-16T08:34:23Z</time>
      </trkpt>
      <trkpt lat="48.14696" lon="-2.03811">
        <ele>113</ele>
        <time>2025-05-16T08:34:24Z</time>
      </trkpt>
      <trkpt lat="48.14692" lon="-2.0381">
        <ele>113</ele>
        <time>2025-05-16T08:34:25Z</time>
      </trkpt>
      <trkpt lat="48.14689" lon="-2.03808">
        <ele>113</ele>
        <time>2025-05-16T08:34:26Z</time>
      </trkpt>
      <trkpt lat="48.14685" lon="-2.03807">
        <ele>113</ele>
        <time>2025-05-16T08:34:27Z</time>
      </trkpt>
      <trkpt lat="48.14681" lon="-2.03805">
        <ele>113</ele>
        <time>2025-05-16T08:34:28Z</time>
      </trkpt>
      <trkpt lat="48.14677" lon="-2.03805">
        <ele>113</ele>
        <time>2025-05-16T08:34:29Z</time>
      </trkpt>
      <trkpt lat="48.14673" lon="-2.03804">
        <ele>112</ele>
        <time>2025-05-16T08:34:30Z</time>
      </trkpt>
      <trkpt lat="48.14669" lon="-2.03804">
        <ele>112</ele>
        <time>2025-05-16T08:34:31Z</time>
      </trkpt>
      <trkpt lat="48.14666" lon="-2.03803">
        <ele>112</ele>
        <time>2025-05-16T08:34:32Z</time>
      </trkpt>
      <trkpt lat="48.14663" lon="-2.03802">
        <ele>112</ele>
        <time>2025-05-16T08:34:33Z</time>
      </trkpt>
      <trkpt lat="48.14659" lon="-2.03802">
        <ele>112</ele>
        <time>2025-05-16T08:34:34Z</time>
      </trkpt>
      <trkpt lat="48.14655" lon="-2.03801">
        <ele>112</ele>
        <time>2025-05-16T08:34:35Z</time>
      </trkpt>
      <trkpt lat="48.14651" lon="-2.038">
        <ele>112</ele>
        <time>2025-05-16T08:34:36Z</time>
      </trkpt>
      <trkpt lat="48.14646" lon="-2.038">
        <ele>112</ele>
        <time>2025-05-16T08:34:37Z</time>
      </trkpt>
      <trkpt lat="48.14641" lon="-2.03799">
        <ele>112</ele>
        <time>2025-05-16T08:34:38Z</time>
      </trkpt>
      <trkpt lat="48.14636" lon="-2.03798">
        <ele>112</ele>
        <time>2025-05-16T08:34:39Z</time>
      </trkpt>
      <trkpt lat="48.14631" lon="-2.03797">
        <ele>112</ele>
        <time>2025-05-16T08:34:40Z</time>
      </trkpt>
      <trkpt lat="48.14625" lon="-2.03796">
        <ele>112</ele>
        <time>2025-05-16T08:34:41Z</time>
      </trkpt>
      <trkpt lat="48.1462" lon="-2.03795">
        <ele>112</ele>
        <time>2025-05-16T08:34:42Z</time>
      </trkpt>
      <trkpt lat="48.14614" lon="-2.03795">
        <ele>112</ele>
        <time>2025-05-16T08:34:43Z</time>
      </trkpt>
      <trkpt lat="48.14608" lon="-2.03794">
        <ele>111</ele>
        <time>2025-05-16T08:34:44Z</time>
      </trkpt>
      <trkpt lat="48.14602" lon="-2.03793">
        <ele>111</ele>
        <time>2025-05-16T08:34:45Z</time>
      </trkpt>
      <trkpt lat="48.14596" lon="-2.03791">
        <ele>111</ele>
        <time>2025-05-16T08:34:46Z</time>
      </trkpt>
      <trkpt lat="48.1459" lon="-2.03789">
        <ele>111</ele>
        <time>2025-05-16T08:34:47Z</time>
      </trkpt>
      <trkpt lat="48.14584" lon="-2.03788">
        <ele>110</ele>
        <time>2025-05-16T08:34:48Z</time>
      </trkpt>
      <trkpt lat="48.14579" lon="-2.03786">
        <ele>110</ele>
        <time>2025-05-16T08:34:49Z</time>
      </trkpt>
      <trkpt lat="48.14573" lon="-2.03783">
        <ele>110</ele>
        <time>2025-05-16T08:34:50Z</time>
      </trkpt>
      <trkpt lat="48.14568" lon="-2.0378">
        <ele>110</ele>
        <time>2025-05-16T08:34:51Z</time>
      </trkpt>
      <trkpt lat="48.14562" lon="-2.03776">
        <ele>110</ele>
        <time>2025-05-16T08:34:52Z</time>
      </trkpt>
      <trkpt lat="48.14557" lon="-2.03772">
        <ele>109</ele>
        <time>2025-05-16T08:34:53Z</time>
      </trkpt>
      <trkpt lat="48.14552" lon="-2.03767">
        <ele>109</ele>
        <time>2025-05-16T08:34:54Z</time>
      </trkpt>
      <trkpt lat="48.14547" lon="-2.03761">
        <ele>109</ele>
        <time>2025-05-16T08:34:55Z</time>
      </trkpt>
      <trkpt lat="48.14542" lon="-2.03755">
        <ele>109</ele>
        <time>2025-05-16T08:34:56Z</time>
      </trkpt>
      <trkpt lat="48.14538" lon="-2.03747">
        <ele>109</ele>
        <time>2025-05-16T08:34:57Z</time>
      </trkpt>
      <trkpt lat="48.14534" lon="-2.03739">
        <ele>109</ele>
        <time>2025-05-16T08:34:58Z</time>
      </trkpt>
      <trkpt lat="48.14531" lon="-2.03732">
        <ele>109</ele>
        <time>2025-05-16T08:34:59Z</time>
      </trkpt>
      <trkpt lat="48.14527" lon="-2.03723">
        <ele>108</ele>
        <time>2025-05-16T08:35:00Z</time>
      </trkpt>
      <trkpt lat="48.14524" lon="-2.03714">
        <ele>108</ele>
        <time>2025-05-16T08:35:01Z</time>
      </trkpt>
      <trkpt lat="48.14521" lon="-2.03705">
        <ele>108</ele>
        <time>2025-05-16T08:35:02Z</time>
      </trkpt>
      <trkpt lat="48.14517" lon="-2.03697">
        <ele>108</ele>
        <time>2025-05-16T08:35:03Z</time>
      </trkpt>
      <trkpt lat="48.14515" lon="-2.03689">
        <ele>107</ele>
        <time>2025-05-16T08:35:04Z</time>
      </trkpt>
      <trkpt lat="48.14512" lon="-2.03681">
        <ele>107</ele>
        <time>2025-05-16T08:35:05Z</time>
      </trkpt>
      <trkpt lat="48.14509" lon="-2.03672">
        <ele>107</ele>
        <time>2025-05-16T08:35:06Z</time>
      </trkpt>
      <trkpt lat="48.14506" lon="-2.03664">
        <ele>106</ele>
        <time>2025-05-16T08:35:07Z</time>
      </trkpt>
      <trkpt lat="48.14503" lon="-2.03656">
        <ele>107</ele>
        <time>2025-05-16T08:35:08Z</time>
      </trkpt>
      <trkpt lat="48.145" lon="-2.03648">
        <ele>107</ele>
        <time>2025-05-16T08:35:09Z</time>
      </trkpt>
      <trkpt lat="48.14497" lon="-2.0364">
        <ele>106</ele>
        <time>2025-05-16T08:35:10Z</time>
      </trkpt>
      <trkpt lat="48.14494" lon="-2.03632">
        <ele>106</ele>
        <time>2025-05-16T08:35:11Z</time>
      </trkpt>
      <trkpt lat="48.14491" lon="-2.03624">
        <ele>105</ele>
        <time>2025-05-16T08:35:12Z</time>
      </trkpt>
      <trkpt lat="48.14488" lon="-2.03616">
        <ele>105</ele>
        <time>2025-05-16T08:35:13Z</time>
      </trkpt>
      <trkpt lat="48.14486" lon="-2.03608">
        <ele>105</ele>
        <time>2025-05-16T08:35:14Z</time>
      </trkpt>
      <trkpt lat="48.14483" lon="-2.03601">
        <ele>105</ele>
        <time>2025-05-16T08:35:15Z</time>
      </trkpt>
      <trkpt lat="48.1448" lon="-2.03594">
        <ele>104</ele>
        <time>2025-05-16T08:35:16Z</time>
      </trkpt>
      <trkpt lat="48.14478" lon="-2.03588">
        <ele>104</ele>
        <time>2025-05-16T08:35:17Z</time>
      </trkpt>
      <trkpt lat="48.14477" lon="-2.03581">
        <ele>104</ele>
        <time>2025-05-16T08:35:18Z</time>
      </trkpt>
      <trkpt lat="48.14476" lon="-2.03576">
        <ele>104</ele>
        <time>2025-05-16T08:35:19Z</time>
      </trkpt>
      <trkpt lat="48.14475" lon="-2.03571">
        <ele>104</ele>
        <time>2025-05-16T08:35:20Z</time>
      </trkpt>
      <trkpt lat="48.14473" lon="-2.03567">
        <ele>104</ele>
        <time>2025-05-16T08:35:21Z</time>
      </trkpt>
      <trkpt lat="48.1447" lon="-2.03564">
        <ele>104</ele>
        <time>2025-05-16T08:35:22Z</time>
      </trkpt>
      <trkpt lat="48.14467" lon="-2.03563">
        <ele>104</ele>
        <time>2025-05-16T08:35:23Z</time>
      </trkpt>
      <trkpt lat="48.14463" lon="-2.03563">
        <ele>104</ele>
        <time>2025-05-16T08:35:24Z</time>
      </trkpt>
      <trkpt lat="48.14459" lon="-2.03564">
        <ele>104</ele>
        <time>2025-05-16T08:35:25Z</time>
      </trkpt>
      <trkpt lat="48.14456" lon="-2.03565">
        <ele>104</ele>
        <time>2025-05-16T08:35:26Z</time>
      </trkpt>
      <trkpt lat="48.14452" lon="-2.03567">
        <ele>104</ele>
        <time>2025-05-16T08:35:27Z</time>
      </trkpt>
      <trkpt lat="48.14449" lon="-2.03568">
        <ele>105</ele>
        <time>2025-05-16T08:35:28Z</time>
      </trkpt>
      <trkpt lat="48.14446" lon="-2.03568">
        <ele>105</ele>
        <time>2025-05-16T08:35:29Z</time>
      </trkpt>
      <trkpt lat="48.14442" lon="-2.03569">
        <ele>105</ele>
        <time>2025-05-16T08:35:30Z</time>
      </trkpt>
      <trkpt lat="48.14438" lon="-2.03569">
        <ele>105</ele>
        <time>2025-05-16T08:35:31Z</time>
      </trkpt>
      <trkpt lat="48.14434" lon="-2.0357">
        <ele>105</ele>
        <time>2025-05-16T08:35:32Z</time>
      </trkpt>
      <trkpt lat="48.1443" lon="-2.0357">
        <ele>105</ele>
        <time>2025-05-16T08:35:33Z</time>
      </trkpt>
      <trkpt lat="48.14426" lon="-2.03572">
        <ele>104</ele>
        <time>2025-05-16T08:35:34Z</time>
      </trkpt>
      <trkpt lat="48.14423" lon="-2.03572">
        <ele>105</ele>
        <time>2025-05-16T08:35:35Z</time>
      </trkpt>
      <trkpt lat="48.14419" lon="-2.03573">
        <ele>104</ele>
        <time>2025-05-16T08:35:36Z</time>
      </trkpt>
      <trkpt lat="48.14415" lon="-2.03574">
        <ele>105</ele>
        <time>2025-05-16T08:35:37Z</time>
      </trkpt>
      <trkpt lat="48.14412" lon="-2.03575">
        <ele>104</ele>
        <time>2025-05-16T08:35:38Z</time>
      </trkpt>
      <trkpt lat="48.14409" lon="-2.03577">
        <ele>105</ele>
        <time>2025-05-16T08:35:39Z</time>
      </trkpt>
      <trkpt lat="48.14405" lon="-2.03578">
        <ele>105</ele>
        <time>2025-05-16T08:35:40Z</time>
      </trkpt>
      <trkpt lat="48.14402" lon="-2.03579">
        <ele>105</ele>
        <time>2025-05-16T08:35:41Z</time>
      </trkpt>
      <trkpt lat="48.14398" lon="-2.03581">
        <ele>105</ele>
        <time>2025-05-16T08:35:42Z</time>
      </trkpt>
      <trkpt lat="48.14394" lon="-2.03581">
        <ele>105</ele>
        <time>2025-05-16T08:35:43Z</time>
      </trkpt>
      <trkpt lat="48.1439" lon="-2.03582">
        <ele>105</ele>
        <time>2025-05-16T08:35:44Z</time>
      </trkpt>
      <trkpt lat="48.14387" lon="-2.03583">
        <ele>105</ele>
        <time>2025-05-16T08:35:45Z</time>
      </trkpt>
      <trkpt lat="48.14383" lon="-2.03583">
        <ele>105</ele>
        <time>2025-05-16T08:35:46Z</time>
      </trkpt>
      <trkpt lat="48.1438" lon="-2.03584">
        <ele>106</ele>
        <time>2025-05-16T08:35:47Z</time>
      </trkpt>
      <trkpt lat="48.14377" lon="-2.03584">
        <ele>107</ele>
        <time>2025-05-16T08:35:48Z</time>
      </trkpt>
      <trkpt lat="48.14374" lon="-2.03585">
        <ele>107</ele>
        <time>2025-05-16T08:35:49Z</time>
      </trkpt>
      <trkpt lat="48.14371" lon="-2.03585">
        <ele>107</ele>
        <time>2025-05-16T08:35:50Z</time>
      </trkpt>
      <trkpt lat="48.14368" lon="-2.03588">
        <ele>107</ele>
        <time>2025-05-16T08:35:51Z</time>
      </trkpt>
      <trkpt lat="48.14366" lon="-2.03591">
        <ele>107</ele>
        <time>2025-05-16T08:35:52Z</time>
      </trkpt>
      <trkpt lat="48.14365" lon="-2.03594">
        <ele>107</ele>
        <time>2025-05-16T08:35:53Z</time>
      </trkpt>
      <trkpt lat="48.14365" lon="-2.03599">
        <ele>107</ele>
        <time>2025-05-16T08:35:54Z</time>
      </trkpt>
      <trkpt lat="48.14365" lon="-2.03603">
        <ele>107</ele>
        <time>2025-05-16T08:35:55Z</time>
      </trkpt>
      <trkpt lat="48.14364" lon="-2.03607">
        <ele>107</ele>
        <time>2025-05-16T08:35:56Z</time>
      </trkpt>
      <trkpt lat="48.14364" lon="-2.03612">
        <ele>107</ele>
        <time>2025-05-16T08:35:57Z</time>
      </trkpt>
      <trkpt lat="48.14364" lon="-2.03617">
        <ele>106</ele>
        <time>2025-05-16T08:35:58Z</time>
      </trkpt>
      <trkpt lat="48.14364" lon="-2.03621">
        <ele>106</ele>
        <time>2025-05-16T08:35:59Z</time>
      </trkpt>
      <trkpt lat="48.14364" lon="-2.03627">
        <ele>106</ele>
        <time>2025-05-16T08:36:00Z</time>
      </trkpt>
      <trkpt lat="48.14364" lon="-2.03631">
        <ele>106</ele>
        <time>2025-05-16T08:36:01Z</time>
      </trkpt>
      <trkpt lat="48.14364" lon="-2.03636">
        <ele>106</ele>
        <time>2025-05-16T08:36:02Z</time>
      </trkpt>
      <trkpt lat="48.14364" lon="-2.03641">
        <ele>106</ele>
        <time>2025-05-16T08:36:03Z</time>
      </trkpt>
      <trkpt lat="48.14365" lon="-2.03646">
        <ele>106</ele>
        <time>2025-05-16T08:36:04Z</time>
      </trkpt>
      <trkpt lat="48.14364" lon="-2.0365">
        <ele>106</ele>
        <time>2025-05-16T08:36:05Z</time>
      </trkpt>
      <trkpt lat="48.14364" lon="-2.03655">
        <ele>106</ele>
        <time>2025-05-16T08:36:06Z</time>
      </trkpt>
      <trkpt lat="48.14364" lon="-2.0366">
        <ele>106</ele>
        <time>2025-05-16T08:36:07Z</time>
      </trkpt>
      <trkpt lat="48.14364" lon="-2.03664">
        <ele>107</ele>
        <time>2025-05-16T08:36:08Z</time>
      </trkpt>
      <trkpt lat="48.14364" lon="-2.03668">
        <ele>107</ele>
        <time>2025-05-16T08:36:09Z</time>
      </trkpt>
      <trkpt lat="48.14363" lon="-2.03673">
        <ele>107</ele>
        <time>2025-05-16T08:36:10Z</time>
      </trkpt>
      <trkpt lat="48.14363" lon="-2.03678">
        <ele>107</ele>
        <time>2025-05-16T08:36:11Z</time>
      </trkpt>
      <trkpt lat="48.14363" lon="-2.03683">
        <ele>108</ele>
        <time>2025-05-16T08:36:12Z</time>
      </trkpt>
      <trkpt lat="48.14363" lon="-2.03688">
        <ele>108</ele>
        <time>2025-05-16T08:36:13Z</time>
      </trkpt>
      <trkpt lat="48.14363" lon="-2.03692">
        <ele>108</ele>
        <time>2025-05-16T08:36:14Z</time>
      </trkpt>
      <trkpt lat="48.14363" lon="-2.03696">
        <ele>109</ele>
        <time>2025-05-16T08:36:15Z</time>
      </trkpt>
      <trkpt lat="48.14362" lon="-2.03701">
        <ele>109</ele>
        <time>2025-05-16T08:36:16Z</time>
      </trkpt>
      <trkpt lat="48.14362" lon="-2.03707">
        <ele>109</ele>
        <time>2025-05-16T08:36:17Z</time>
      </trkpt>
      <trkpt lat="48.14362" lon="-2.03711">
        <ele>109</ele>
        <time>2025-05-16T08:36:18Z</time>
      </trkpt>
      <trkpt lat="48.14363" lon="-2.03716">
        <ele>109</ele>
        <time>2025-05-16T08:36:19Z</time>
      </trkpt>
      <trkpt lat="48.14363" lon="-2.03721">
        <ele>109</ele>
        <time>2025-05-16T08:36:20Z</time>
      </trkpt>
      <trkpt lat="48.14363" lon="-2.03725">
        <ele>109</ele>
        <time>2025-05-16T08:36:21Z</time>
      </trkpt>
      <trkpt lat="48.14363" lon="-2.0373">
        <ele>109</ele>
        <time>2025-05-16T08:36:22Z</time>
      </trkpt>
      <trkpt lat="48.14363" lon="-2.03735">
        <ele>108</ele>
        <time>2025-05-16T08:36:23Z</time>
      </trkpt>
      <trkpt lat="48.14363" lon="-2.0374">
        <ele>108</ele>
        <time>2025-05-16T08:36:24Z</time>
      </trkpt>
      <trkpt lat="48.14363" lon="-2.03744">
        <ele>108</ele>
        <time>2025-05-16T08:36:25Z</time>
      </trkpt>
      <trkpt lat="48.14363" lon="-2.03749">
        <ele>108</ele>
        <time>2025-05-16T08:36:26Z</time>
      </trkpt>
      <trkpt lat="48.14363" lon="-2.03754">
        <ele>108</ele>
        <time>2025-05-16T08:36:27Z</time>
      </trkpt>
      <trkpt lat="48.14363" lon="-2.03759">
        <ele>108</ele>
        <time>2025-05-16T08:36:28Z</time>
      </trkpt>
      <trkpt lat="48.14363" lon="-2.03764">
        <ele>108</ele>
        <time>2025-05-16T08:36:29Z</time>
      </trkpt>
      <trkpt lat="48.14362" lon="-2.03769">
        <ele>108</ele>
        <time>2025-05-16T08:36:30Z</time>
      </trkpt>
      <trkpt lat="48.14362" lon="-2.03774">
        <ele>108</ele>
        <time>2025-05-16T08:36:31Z</time>
      </trkpt>
      <trkpt lat="48.14362" lon="-2.0378">
        <ele>108</ele>
        <time>2025-05-16T08:36:32Z</time>
      </trkpt>
      <trkpt lat="48.14362" lon="-2.03784">
        <ele>108</ele>
        <time>2025-05-16T08:36:33Z</time>
      </trkpt>
      <trkpt lat="48.14361" lon="-2.03789">
        <ele>108</ele>
        <time>2025-05-16T08:36:34Z</time>
      </trkpt>
      <trkpt lat="48.14361" lon="-2.03794">
        <ele>108</ele>
        <time>2025-05-16T08:36:35Z</time>
      </trkpt>
      <trkpt lat="48.14361" lon="-2.03799">
        <ele>109</ele>
        <time>2025-05-16T08:36:36Z</time>
      </trkpt>
      <trkpt lat="48.1436" lon="-2.03804">
        <ele>109</ele>
        <time>2025-05-16T08:36:37Z</time>
      </trkpt>
      <trkpt lat="48.14359" lon="-2.03808">
        <ele>109</ele>
        <time>2025-05-16T08:36:38Z</time>
      </trkpt>
      <trkpt lat="48.14358" lon="-2.03811">
        <ele>109</ele>
        <time>2025-05-16T08:36:39Z</time>
      </trkpt>
      <trkpt lat="48.14356" lon="-2.03815">
        <ele>109</ele>
        <time>2025-05-16T08:36:40Z</time>
      </trkpt>
      <trkpt lat="48.14353" lon="-2.03818">
        <ele>109</ele>
        <time>2025-05-16T08:36:41Z</time>
      </trkpt>
      <trkpt lat="48.1435" lon="-2.03819">
        <ele>108</ele>
        <time>2025-05-16T08:36:42Z</time>
      </trkpt>
      <trkpt lat="48.14348" lon="-2.0382">
        <ele>108</ele>
        <time>2025-05-16T08:36:43Z</time>
      </trkpt>
      <trkpt lat="48.14344" lon="-2.0382">
        <ele>108</ele>
        <time>2025-05-16T08:36:44Z</time>
      </trkpt>
      <trkpt lat="48.14341" lon="-2.0382">
        <ele>108</ele>
        <time>2025-05-16T08:36:45Z</time>
      </trkpt>
      <trkpt lat="48.14338" lon="-2.0382">
        <ele>108</ele>
        <time>2025-05-16T08:36:46Z</time>
      </trkpt>
      <trkpt lat="48.14334" lon="-2.03821">
        <ele>109</ele>
        <time>2025-05-16T08:36:47Z</time>
      </trkpt>
      <trkpt lat="48.14331" lon="-2.03821">
        <ele>109</ele>
        <time>2025-05-16T08:36:48Z</time>
      </trkpt>
      <trkpt lat="48.14328" lon="-2.03821">
        <ele>109</ele>
        <time>2025-05-16T08:36:49Z</time>
      </trkpt>
      <trkpt lat="48.14325" lon="-2.03821">
        <ele>109</ele>
        <time>2025-05-16T08:36:50Z</time>
      </trkpt>
      <trkpt lat="48.14322" lon="-2.03821">
        <ele>109</ele>
        <time>2025-05-16T08:36:51Z</time>
      </trkpt>
      <trkpt lat="48.14319" lon="-2.03821">
        <ele>110</ele>
        <time>2025-05-16T08:36:52Z</time>
      </trkpt>
      <trkpt lat="48.14315" lon="-2.03821">
        <ele>110</ele>
        <time>2025-05-16T08:36:53Z</time>
      </trkpt>
      <trkpt lat="48.14312" lon="-2.03821">
        <ele>109</ele>
        <time>2025-05-16T08:36:54Z</time>
      </trkpt>
      <trkpt lat="48.14309" lon="-2.03822">
        <ele>109</ele>
        <time>2025-05-16T08:36:55Z</time>
      </trkpt>
      <trkpt lat="48.14306" lon="-2.03821">
        <ele>110</ele>
        <time>2025-05-16T08:36:56Z</time>
      </trkpt>
      <trkpt lat="48.14303" lon="-2.03822">
        <ele>110</ele>
        <time>2025-05-16T08:36:57Z</time>
      </trkpt>
      <trkpt lat="48.143" lon="-2.03822">
        <ele>110</ele>
        <time>2025-05-16T08:36:58Z</time>
      </trkpt>
      <trkpt lat="48.14297" lon="-2.03822">
        <ele>110</ele>
        <time>2025-05-16T08:36:59Z</time>
      </trkpt>
      <trkpt lat="48.14294" lon="-2.03822">
        <ele>110</ele>
        <time>2025-05-16T08:37:00Z</time>
      </trkpt>
      <trkpt lat="48.1429" lon="-2.03822">
        <ele>110</ele>
        <time>2025-05-16T08:37:01Z</time>
      </trkpt>
      <trkpt lat="48.14287" lon="-2.03822">
        <ele>110</ele>
        <time>2025-05-16T08:37:02Z</time>
      </trkpt>
      <trkpt lat="48.14284" lon="-2.03822">
        <ele>110</ele>
        <time>2025-05-16T08:37:03Z</time>
      </trkpt>
      <trkpt lat="48.14281" lon="-2.03823">
        <ele>110</ele>
        <time>2025-05-16T08:37:04Z</time>
      </trkpt>
      <trkpt lat="48.14278" lon="-2.03823">
        <ele>110</ele>
        <time>2025-05-16T08:37:05Z</time>
      </trkpt>
      <trkpt lat="48.14275" lon="-2.03823">
        <ele>110</ele>
        <time>2025-05-16T08:37:06Z</time>
      </trkpt>
      <trkpt lat="48.14272" lon="-2.03822">
        <ele>110</ele>
        <time>2025-05-16T08:37:07Z</time>
      </trkpt>
      <trkpt lat="48.14269" lon="-2.03823">
        <ele>109</ele>
        <time>2025-05-16T08:37:08Z</time>
      </trkpt>
      <trkpt lat="48.14266" lon="-2.03823">
        <ele>110</ele>
        <time>2025-05-16T08:37:09Z</time>
      </trkpt>
      <trkpt lat="48.14263" lon="-2.03822">
        <ele>110</ele>
        <time>2025-05-16T08:37:10Z</time>
      </trkpt>
      <trkpt lat="48.1426" lon="-2.03822">
        <ele>110</ele>
        <time>2025-05-16T08:37:11Z</time>
      </trkpt>
      <trkpt lat="48.14257" lon="-2.03823">
        <ele>111</ele>
        <time>2025-05-16T08:37:12Z</time>
      </trkpt>
      <trkpt lat="48.14254" lon="-2.03824">
        <ele>111</ele>
        <time>2025-05-16T08:37:13Z</time>
      </trkpt>
      <trkpt lat="48.14251" lon="-2.03825">
        <ele>111</ele>
        <time>2025-05-16T08:37:14Z</time>
      </trkpt>
      <trkpt lat="48.14248" lon="-2.03825">
        <ele>111</ele>
        <time>2025-05-16T08:37:15Z</time>
      </trkpt>
      <trkpt lat="48.14245" lon="-2.03826">
        <ele>111</ele>
        <time>2025-05-16T08:37:16Z</time>
      </trkpt>
      <trkpt lat="48.14242" lon="-2.03826">
        <ele>111</ele>
        <time>2025-05-16T08:37:17Z</time>
      </trkpt>
      <trkpt lat="48.14239" lon="-2.03828">
        <ele>111</ele>
        <time>2025-05-16T08:37:18Z</time>
      </trkpt>
      <trkpt lat="48.14236" lon="-2.03829">
        <ele>111</ele>
        <time>2025-05-16T08:37:19Z</time>
      </trkpt>
      <trkpt lat="48.14233" lon="-2.03829">
        <ele>111</ele>
        <time>2025-05-16T08:37:20Z</time>
      </trkpt>
      <trkpt lat="48.1423" lon="-2.0383">
        <ele>111</ele>
        <time>2025-05-16T08:37:21Z</time>
      </trkpt>
      <trkpt lat="48.14227" lon="-2.03831">
        <ele>112</ele>
        <time>2025-05-16T08:37:22Z</time>
      </trkpt>
      <trkpt lat="48.14223" lon="-2.03831">
        <ele>111</ele>
        <time>2025-05-16T08:37:23Z</time>
      </trkpt>
      <trkpt lat="48.1422" lon="-2.03832">
        <ele>111</ele>
        <time>2025-05-16T08:37:24Z</time>
      </trkpt>
      <trkpt lat="48.14217" lon="-2.03833">
        <ele>112</ele>
        <time>2025-05-16T08:37:25Z</time>
      </trkpt>
      <trkpt lat="48.14214" lon="-2.03834">
        <ele>112</ele>
        <time>2025-05-16T08:37:26Z</time>
      </trkpt>
      <trkpt lat="48.14211" lon="-2.03834">
        <ele>111</ele>
        <time>2025-05-16T08:37:27Z</time>
      </trkpt>
      <trkpt lat="48.14208" lon="-2.03835">
        <ele>111</ele>
        <time>2025-05-16T08:37:28Z</time>
      </trkpt>
      <trkpt lat="48.14205" lon="-2.03835">
        <ele>111</ele>
        <time>2025-05-16T08:37:29Z</time>
      </trkpt>
      <trkpt lat="48.14202" lon="-2.03836">
        <ele>110</ele>
        <time>2025-05-16T08:37:30Z</time>
      </trkpt>
      <trkpt lat="48.14198" lon="-2.03836">
        <ele>110</ele>
        <time>2025-05-16T08:37:31Z</time>
      </trkpt>
      <trkpt lat="48.14195" lon="-2.03836">
        <ele>110</ele>
        <time>2025-05-16T08:37:32Z</time>
      </trkpt>
      <trkpt lat="48.14191" lon="-2.03836">
        <ele>110</ele>
        <time>2025-05-16T08:37:33Z</time>
      </trkpt>
      <trkpt lat="48.14188" lon="-2.03836">
        <ele>110</ele>
        <time>2025-05-16T08:37:34Z</time>
      </trkpt>
      <trkpt lat="48.14185" lon="-2.03836">
        <ele>110</ele>
        <time>2025-05-16T08:37:35Z</time>
      </trkpt>
      <trkpt lat="48.14182" lon="-2.03836">
        <ele>110</ele>
        <time>2025-05-16T08:37:36Z</time>
      </trkpt>
      <trkpt lat="48.14179" lon="-2.03836">
        <ele>111</ele>
        <time>2025-05-16T08:37:37Z</time>
      </trkpt>
      <trkpt lat="48.14176" lon="-2.03836">
        <ele>111</ele>
        <time>2025-05-16T08:37:38Z</time>
      </trkpt>
      <trkpt lat="48.14173" lon="-2.03836">
        <ele>111</ele>
        <time>2025-05-16T08:37:39Z</time>
      </trkpt>
      <trkpt lat="48.1417" lon="-2.03836">
        <ele>111</ele>
        <time>2025-05-16T08:37:40Z</time>
      </trkpt>
      <trkpt lat="48.14167" lon="-2.03836">
        <ele>111</ele>
        <time>2025-05-16T08:37:41Z</time>
      </trkpt>
      <trkpt lat="48.14164" lon="-2.03836">
        <ele>112</ele>
        <time>2025-05-16T08:37:42Z</time>
      </trkpt>
      <trkpt lat="48.1416" lon="-2.03836">
        <ele>112</ele>
        <time>2025-05-16T08:37:43Z</time>
      </trkpt>
      <trkpt lat="48.14157" lon="-2.03836">
        <ele>112</ele>
        <time>2025-05-16T08:37:44Z</time>
      </trkpt>
      <trkpt lat="48.14155" lon="-2.03836">
        <ele>112</ele>
        <time>2025-05-16T08:37:45Z</time>
      </trkpt>
      <trkpt lat="48.14151" lon="-2.03837">
        <ele>112</ele>
        <time>2025-05-16T08:37:46Z</time>
      </trkpt>
      <trkpt lat="48.14148" lon="-2.03836">
        <ele>112</ele>
        <time>2025-05-16T08:37:47Z</time>
      </trkpt>
      <trkpt lat="48.14145" lon="-2.03837">
        <ele>112</ele>
        <time>2025-05-16T08:37:48Z</time>
      </trkpt>
      <trkpt lat="48.14141" lon="-2.03837">
        <ele>112</ele>
        <time>2025-05-16T08:37:49Z</time>
      </trkpt>
      <trkpt lat="48.14137" lon="-2.03837">
        <ele>112</ele>
        <time>2025-05-16T08:37:50Z</time>
      </trkpt>
      <trkpt lat="48.14133" lon="-2.03837">
        <ele>112</ele>
        <time>2025-05-16T08:37:51Z</time>
      </trkpt>
      <trkpt lat="48.14129" lon="-2.03837">
        <ele>112</ele>
        <time>2025-05-16T08:37:52Z</time>
      </trkpt>
      <trkpt lat="48.14125" lon="-2.03837">
        <ele>111</ele>
        <time>2025-05-16T08:37:53Z</time>
      </trkpt>
      <trkpt lat="48.14121" lon="-2.03836">
        <ele>111</ele>
        <time>2025-05-16T08:37:54Z</time>
      </trkpt>
      <trkpt lat="48.14117" lon="-2.03836">
        <ele>110</ele>
        <time>2025-05-16T08:37:55Z</time>
      </trkpt>
      <trkpt lat="48.14113" lon="-2.03834">
        <ele>110</ele>
        <time>2025-05-16T08:37:56Z</time>
      </trkpt>
      <trkpt lat="48.14109" lon="-2.03833">
        <ele>111</ele>
        <time>2025-05-16T08:37:57Z</time>
      </trkpt>
      <trkpt lat="48.14106" lon="-2.03831">
        <ele>111</ele>
        <time>2025-05-16T08:37:58Z</time>
      </trkpt>
      <trkpt lat="48.14102" lon="-2.0383">
        <ele>111</ele>
        <time>2025-05-16T08:37:59Z</time>
      </trkpt>
      <trkpt lat="48.14099" lon="-2.03829">
        <ele>111</ele>
        <time>2025-05-16T08:38:00Z</time>
      </trkpt>
      <trkpt lat="48.14095" lon="-2.03828">
        <ele>111</ele>
        <time>2025-05-16T08:38:01Z</time>
      </trkpt>
      <trkpt lat="48.14091" lon="-2.03826">
        <ele>111</ele>
        <time>2025-05-16T08:38:02Z</time>
      </trkpt>
      <trkpt lat="48.14087" lon="-2.03825">
        <ele>110</ele>
        <time>2025-05-16T08:38:03Z</time>
      </trkpt>
      <trkpt lat="48.14083" lon="-2.03824">
        <ele>110</ele>
        <time>2025-05-16T08:38:04Z</time>
      </trkpt>
      <trkpt lat="48.1408" lon="-2.03823">
        <ele>110</ele>
        <time>2025-05-16T08:38:05Z</time>
      </trkpt>
      <trkpt lat="48.14077" lon="-2.03822">
        <ele>110</ele>
        <time>2025-05-16T08:38:06Z</time>
      </trkpt>
      <trkpt lat="48.14074" lon="-2.0382">
        <ele>110</ele>
        <time>2025-05-16T08:38:07Z</time>
      </trkpt>
      <trkpt lat="48.14071" lon="-2.03818">
        <ele>110</ele>
        <time>2025-05-16T08:38:08Z</time>
      </trkpt>
      <trkpt lat="48.14068" lon="-2.03817">
        <ele>110</ele>
        <time>2025-05-16T08:38:09Z</time>
      </trkpt>
      <trkpt lat="48.14065" lon="-2.03815">
        <ele>110</ele>
        <time>2025-05-16T08:38:10Z</time>
      </trkpt>
      <trkpt lat="48.14062" lon="-2.03814">
        <ele>110</ele>
        <time>2025-05-16T08:38:11Z</time>
      </trkpt>
      <trkpt lat="48.14058" lon="-2.03813">
        <ele>110</ele>
        <time>2025-05-16T08:38:12Z</time>
      </trkpt>
      <trkpt lat="48.14054" lon="-2.03811">
        <ele>110</ele>
        <time>2025-05-16T08:38:13Z</time>
      </trkpt>
      <trkpt lat="48.14051" lon="-2.0381">
        <ele>110</ele>
        <time>2025-05-16T08:38:14Z</time>
      </trkpt>
      <trkpt lat="48.14048" lon="-2.03808">
        <ele>110</ele>
        <time>2025-05-16T08:38:15Z</time>
      </trkpt>
      <trkpt lat="48.14044" lon="-2.03807">
        <ele>110</ele>
        <time>2025-05-16T08:38:16Z</time>
      </trkpt>
      <trkpt lat="48.14041" lon="-2.03806">
        <ele>110</ele>
        <time>2025-05-16T08:38:17Z</time>
      </trkpt>
      <trkpt lat="48.14039" lon="-2.03805">
        <ele>110</ele>
        <time>2025-05-16T08:38:18Z</time>
      </trkpt>
      <trkpt lat="48.14036" lon="-2.03803">
        <ele>111</ele>
        <time>2025-05-16T08:38:19Z</time>
      </trkpt>
      <trkpt lat="48.14032" lon="-2.03802">
        <ele>111</ele>
        <time>2025-05-16T08:38:20Z</time>
      </trkpt>
      <trkpt lat="48.14029" lon="-2.03801">
        <ele>112</ele>
        <time>2025-05-16T08:38:21Z</time>
      </trkpt>
      <trkpt lat="48.14026" lon="-2.03801">
        <ele>112</ele>
        <time>2025-05-16T08:38:22Z</time>
      </trkpt>
      <trkpt lat="48.14023" lon="-2.038">
        <ele>112</ele>
        <time>2025-05-16T08:38:23Z</time>
      </trkpt>
      <trkpt lat="48.1402" lon="-2.03799">
        <ele>113</ele>
        <time>2025-05-16T08:38:24Z</time>
      </trkpt>
      <trkpt lat="48.14017" lon="-2.03799">
        <ele>113</ele>
        <time>2025-05-16T08:38:25Z</time>
      </trkpt>
      <trkpt lat="48.14015" lon="-2.03798">
        <ele>114</ele>
        <time>2025-05-16T08:38:26Z</time>
      </trkpt>
      <trkpt lat="48.14012" lon="-2.03798">
        <ele>114</ele>
        <time>2025-05-16T08:38:27Z</time>
      </trkpt>
      <trkpt lat="48.14009" lon="-2.03798">
        <ele>114</ele>
        <time>2025-05-16T08:38:28Z</time>
      </trkpt>
      <trkpt lat="48.14006" lon="-2.03798">
        <ele>115</ele>
        <time>2025-05-16T08:38:29Z</time>
      </trkpt>
      <trkpt lat="48.14003" lon="-2.03797">
        <ele>115</ele>
        <time>2025-05-16T08:38:30Z</time>
      </trkpt>
      <trkpt lat="48.14" lon="-2.03796">
        <ele>115</ele>
        <time>2025-05-16T08:38:31Z</time>
      </trkpt>
      <trkpt lat="48.13998" lon="-2.03795">
        <ele>115</ele>
        <time>2025-05-16T08:38:32Z</time>
      </trkpt>
      <trkpt lat="48.13995" lon="-2.03795">
        <ele>115</ele>
        <time>2025-05-16T08:38:33Z</time>
      </trkpt>
      <trkpt lat="48.13991" lon="-2.03795">
        <ele>115</ele>
        <time>2025-05-16T08:38:34Z</time>
      </trkpt>
      <trkpt lat="48.13987" lon="-2.03794">
        <ele>114</ele>
        <time>2025-05-16T08:38:35Z</time>
      </trkpt>
      <trkpt lat="48.13984" lon="-2.03793">
        <ele>114</ele>
        <time>2025-05-16T08:38:36Z</time>
      </trkpt>
      <trkpt lat="48.13981" lon="-2.03792">
        <ele>114</ele>
        <time>2025-05-16T08:38:37Z</time>
      </trkpt>
      <trkpt lat="48.13977" lon="-2.03791">
        <ele>114</ele>
        <time>2025-05-16T08:38:38Z</time>
      </trkpt>
      <trkpt lat="48.13974" lon="-2.0379">
        <ele>114</ele>
        <time>2025-05-16T08:38:39Z</time>
      </trkpt>
      <trkpt lat="48.13971" lon="-2.03789">
        <ele>114</ele>
        <time>2025-05-16T08:38:40Z</time>
      </trkpt>
      <trkpt lat="48.13968" lon="-2.03787">
        <ele>114</ele>
        <time>2025-05-16T08:38:41Z</time>
      </trkpt>
      <trkpt lat="48.13965" lon="-2.03785">
        <ele>115</ele>
        <time>2025-05-16T08:38:42Z</time>
      </trkpt>
      <trkpt lat="48.13962" lon="-2.03783">
        <ele>115</ele>
        <time>2025-05-16T08:38:43Z</time>
      </trkpt>
      <trkpt lat="48.13959" lon="-2.03782">
        <ele>115</ele>
        <time>2025-05-16T08:38:44Z</time>
      </trkpt>
      <trkpt lat="48.13956" lon="-2.03781">
        <ele>115</ele>
        <time>2025-05-16T08:38:45Z</time>
      </trkpt>
      <trkpt lat="48.13953" lon="-2.03779">
        <ele>114</ele>
        <time>2025-05-16T08:38:46Z</time>
      </trkpt>
      <trkpt lat="48.1395" lon="-2.03778">
        <ele>114</ele>
        <time>2025-05-16T08:38:47Z</time>
      </trkpt>
      <trkpt lat="48.13947" lon="-2.03777">
        <ele>114</ele>
        <time>2025-05-16T08:38:48Z</time>
      </trkpt>
      <trkpt lat="48.13944" lon="-2.03775">
        <ele>113</ele>
        <time>2025-05-16T08:38:49Z</time>
      </trkpt>
      <trkpt lat="48.13941" lon="-2.03774">
        <ele>113</ele>
        <time>2025-05-16T08:38:50Z</time>
      </trkpt>
      <trkpt lat="48.13938" lon="-2.03772">
        <ele>113</ele>
        <time>2025-05-16T08:38:51Z</time>
      </trkpt>
      <trkpt lat="48.13935" lon="-2.0377">
        <ele>113</ele>
        <time>2025-05-16T08:38:52Z</time>
      </trkpt>
      <trkpt lat="48.13931" lon="-2.03768">
        <ele>113</ele>
        <time>2025-05-16T08:38:53Z</time>
      </trkpt>
      <trkpt lat="48.13928" lon="-2.03767">
        <ele>113</ele>
        <time>2025-05-16T08:38:54Z</time>
      </trkpt>
      <trkpt lat="48.13925" lon="-2.03765">
        <ele>113</ele>
        <time>2025-05-16T08:38:55Z</time>
      </trkpt>
      <trkpt lat="48.13922" lon="-2.03762">
        <ele>113</ele>
        <time>2025-05-16T08:38:56Z</time>
      </trkpt>
      <trkpt lat="48.1392" lon="-2.03761">
        <ele>113</ele>
        <time>2025-05-16T08:38:57Z</time>
      </trkpt>
      <trkpt lat="48.13917" lon="-2.03759">
        <ele>113</ele>
        <time>2025-05-16T08:38:58Z</time>
      </trkpt>
      <trkpt lat="48.13914" lon="-2.03758">
        <ele>113</ele>
        <time>2025-05-16T08:38:59Z</time>
      </trkpt>
      <trkpt lat="48.13911" lon="-2.03756">
        <ele>113</ele>
        <time>2025-05-16T08:39:00Z</time>
      </trkpt>
      <trkpt lat="48.13909" lon="-2.03755">
        <ele>113</ele>
        <time>2025-05-16T08:39:01Z</time>
      </trkpt>
      <trkpt lat="48.13906" lon="-2.03754">
        <ele>113</ele>
        <time>2025-05-16T08:39:02Z</time>
      </trkpt>
      <trkpt lat="48.13903" lon="-2.03753">
        <ele>113</ele>
        <time>2025-05-16T08:39:03Z</time>
      </trkpt>
      <trkpt lat="48.13901" lon="-2.03751">
        <ele>113</ele>
        <time>2025-05-16T08:39:04Z</time>
      </trkpt>
      <trkpt lat="48.13898" lon="-2.0375">
        <ele>113</ele>
        <time>2025-05-16T08:39:05Z</time>
      </trkpt>
      <trkpt lat="48.13896" lon="-2.03748">
        <ele>113</ele>
        <time>2025-05-16T08:39:06Z</time>
      </trkpt>
      <trkpt lat="48.13894" lon="-2.03746">
        <ele>113</ele>
        <time>2025-05-16T08:39:07Z</time>
      </trkpt>
      <trkpt lat="48.13891" lon="-2.03745">
        <ele>114</ele>
        <time>2025-05-16T08:39:08Z</time>
      </trkpt>
      <trkpt lat="48.13889" lon="-2.03743">
        <ele>114</ele>
        <time>2025-05-16T08:39:09Z</time>
      </trkpt>
      <trkpt lat="48.13887" lon="-2.03742">
        <ele>114</ele>
        <time>2025-05-16T08:39:10Z</time>
      </trkpt>
      <trkpt lat="48.13884" lon="-2.0374">
        <ele>114</ele>
        <time>2025-05-16T08:39:11Z</time>
      </trkpt>
      <trkpt lat="48.13881" lon="-2.03738">
        <ele>114</ele>
        <time>2025-05-16T08:39:12Z</time>
      </trkpt>
      <trkpt lat="48.13879" lon="-2.03736">
        <ele>114</ele>
        <time>2025-05-16T08:39:13Z</time>
      </trkpt>
      <trkpt lat="48.13876" lon="-2.03734">
        <ele>114</ele>
        <time>2025-05-16T08:39:14Z</time>
      </trkpt>
      <trkpt lat="48.13874" lon="-2.03732">
        <ele>114</ele>
        <time>2025-05-16T08:39:15Z</time>
      </trkpt>
      <trkpt lat="48.13871" lon="-2.03731">
        <ele>114</ele>
        <time>2025-05-16T08:39:16Z</time>
      </trkpt>
      <trkpt lat="48.13868" lon="-2.03729">
        <ele>114</ele>
        <time>2025-05-16T08:39:17Z</time>
      </trkpt>
      <trkpt lat="48.13866" lon="-2.03727">
        <ele>113</ele>
        <time>2025-05-16T08:39:18Z</time>
      </trkpt>
      <trkpt lat="48.13864" lon="-2.03725">
        <ele>113</ele>
        <time>2025-05-16T08:39:19Z</time>
      </trkpt>
      <trkpt lat="48.13861" lon="-2.03723">
        <ele>112</ele>
        <time>2025-05-16T08:39:20Z</time>
      </trkpt>
      <trkpt lat="48.13859" lon="-2.03721">
        <ele>112</ele>
        <time>2025-05-16T08:39:21Z</time>
      </trkpt>
      <trkpt lat="48.13856" lon="-2.03719">
        <ele>112</ele>
        <time>2025-05-16T08:39:22Z</time>
      </trkpt>
      <trkpt lat="48.13854" lon="-2.03717">
        <ele>112</ele>
        <time>2025-05-16T08:39:23Z</time>
      </trkpt>
      <trkpt lat="48.13851" lon="-2.03715">
        <ele>112</ele>
        <time>2025-05-16T08:39:24Z</time>
      </trkpt>
      <trkpt lat="48.13848" lon="-2.03713">
        <ele>112</ele>
        <time>2025-05-16T08:39:25Z</time>
      </trkpt>
      <trkpt lat="48.13845" lon="-2.0371">
        <ele>112</ele>
        <time>2025-05-16T08:39:26Z</time>
      </trkpt>
      <trkpt lat="48.13843" lon="-2.03708">
        <ele>112</ele>
        <time>2025-05-16T08:39:27Z</time>
      </trkpt>
      <trkpt lat="48.1384" lon="-2.03706">
        <ele>112</ele>
        <time>2025-05-16T08:39:28Z</time>
      </trkpt>
      <trkpt lat="48.13837" lon="-2.03703">
        <ele>112</ele>
        <time>2025-05-16T08:39:29Z</time>
      </trkpt>
      <trkpt lat="48.13834" lon="-2.03701">
        <ele>112</ele>
        <time>2025-05-16T08:39:30Z</time>
      </trkpt>
      <trkpt lat="48.13831" lon="-2.03698">
        <ele>112</ele>
        <time>2025-05-16T08:39:31Z</time>
      </trkpt>
      <trkpt lat="48.13827" lon="-2.03696">
        <ele>112</ele>
        <time>2025-05-16T08:39:32Z</time>
      </trkpt>
      <trkpt lat="48.13824" lon="-2.03693">
        <ele>111</ele>
        <time>2025-05-16T08:39:33Z</time>
      </trkpt>
      <trkpt lat="48.1382" lon="-2.0369">
        <ele>111</ele>
        <time>2025-05-16T08:39:34Z</time>
      </trkpt>
      <trkpt lat="48.13816" lon="-2.03688">
        <ele>111</ele>
        <time>2025-05-16T08:39:35Z</time>
      </trkpt>
      <trkpt lat="48.13812" lon="-2.03684">
        <ele>111</ele>
        <time>2025-05-16T08:39:36Z</time>
      </trkpt>
      <trkpt lat="48.13807" lon="-2.03681">
        <ele>111</ele>
        <time>2025-05-16T08:39:37Z</time>
      </trkpt>
      <trkpt lat="48.13803" lon="-2.03678">
        <ele>111</ele>
        <time>2025-05-16T08:39:38Z</time>
      </trkpt>
      <trkpt lat="48.13798" lon="-2.03674">
        <ele>110</ele>
        <time>2025-05-16T08:39:39Z</time>
      </trkpt>
      <trkpt lat="48.13793" lon="-2.03671">
        <ele>110</ele>
        <time>2025-05-16T08:39:40Z</time>
      </trkpt>
      <trkpt lat="48.13788" lon="-2.03667">
        <ele>110</ele>
        <time>2025-05-16T08:39:41Z</time>
      </trkpt>
      <trkpt lat="48.13783" lon="-2.03664">
        <ele>110</ele>
        <time>2025-05-16T08:39:42Z</time>
      </trkpt>
      <trkpt lat="48.13778" lon="-2.0366">
        <ele>110</ele>
        <time>2025-05-16T08:39:43Z</time>
      </trkpt>
      <trkpt lat="48.13773" lon="-2.03657">
        <ele>110</ele>
        <time>2025-05-16T08:39:44Z</time>
      </trkpt>
      <trkpt lat="48.13767" lon="-2.03654">
        <ele>109</ele>
        <time>2025-05-16T08:39:45Z</time>
      </trkpt>
      <trkpt lat="48.13762" lon="-2.03651">
        <ele>109</ele>
        <time>2025-05-16T08:39:46Z</time>
      </trkpt>
      <trkpt lat="48.13756" lon="-2.03647">
        <ele>109</ele>
        <time>2025-05-16T08:39:47Z</time>
      </trkpt>
      <trkpt lat="48.13751" lon="-2.03644">
        <ele>108</ele>
        <time>2025-05-16T08:39:48Z</time>
      </trkpt>
      <trkpt lat="48.13745" lon="-2.03641">
        <ele>108</ele>
        <time>2025-05-16T08:39:49Z</time>
      </trkpt>
      <trkpt lat="48.13739" lon="-2.03638">
        <ele>108</ele>
        <time>2025-05-16T08:39:50Z</time>
      </trkpt>
      <trkpt lat="48.13733" lon="-2.03635">
        <ele>108</ele>
        <time>2025-05-16T08:39:51Z</time>
      </trkpt>
      <trkpt lat="48.13727" lon="-2.03631">
        <ele>107</ele>
        <time>2025-05-16T08:39:52Z</time>
      </trkpt>
      <trkpt lat="48.13721" lon="-2.03628">
        <ele>106</ele>
        <time>2025-05-16T08:39:53Z</time>
      </trkpt>
      <trkpt lat="48.13715" lon="-2.03624">
        <ele>106</ele>
        <time>2025-05-16T08:39:54Z</time>
      </trkpt>
      <trkpt lat="48.13709" lon="-2.03621">
        <ele>105</ele>
        <time>2025-05-16T08:39:55Z</time>
      </trkpt>
      <trkpt lat="48.13702" lon="-2.03619">
        <ele>106</ele>
        <time>2025-05-16T08:39:56Z</time>
      </trkpt>
      <trkpt lat="48.13696" lon="-2.03617">
        <ele>106</ele>
        <time>2025-05-16T08:39:57Z</time>
      </trkpt>
      <trkpt lat="48.13689" lon="-2.03617">
        <ele>106</ele>
        <time>2025-05-16T08:39:58Z</time>
      </trkpt>
      <trkpt lat="48.13682" lon="-2.03618">
        <ele>106</ele>
        <time>2025-05-16T08:39:59Z</time>
      </trkpt>
      <trkpt lat="48.13675" lon="-2.03619">
        <ele>106</ele>
        <time>2025-05-16T08:40:00Z</time>
      </trkpt>
      <trkpt lat="48.13668" lon="-2.03621">
        <ele>106</ele>
        <time>2025-05-16T08:40:01Z</time>
      </trkpt>
      <trkpt lat="48.13662" lon="-2.03622">
        <ele>106</ele>
        <time>2025-05-16T08:40:02Z</time>
      </trkpt>
      <trkpt lat="48.13656" lon="-2.03623">
        <ele>106</ele>
        <time>2025-05-16T08:40:03Z</time>
      </trkpt>
      <trkpt lat="48.1365" lon="-2.03623">
        <ele>106</ele>
        <time>2025-05-16T08:40:04Z</time>
      </trkpt>
      <trkpt lat="48.13644" lon="-2.03623">
        <ele>106</ele>
        <time>2025-05-16T08:40:05Z</time>
      </trkpt>
      <trkpt lat="48.13638" lon="-2.03623">
        <ele>106</ele>
        <time>2025-05-16T08:40:06Z</time>
      </trkpt>
      <trkpt lat="48.13632" lon="-2.03623">
        <ele>107</ele>
        <time>2025-05-16T08:40:07Z</time>
      </trkpt>
      <trkpt lat="48.13626" lon="-2.03623">
        <ele>107</ele>
        <time>2025-05-16T08:40:08Z</time>
      </trkpt>
      <trkpt lat="48.1362" lon="-2.03622">
        <ele>107</ele>
        <time>2025-05-16T08:40:09Z</time>
      </trkpt>
      <trkpt lat="48.13614" lon="-2.0362">
        <ele>107</ele>
        <time>2025-05-16T08:40:10Z</time>
      </trkpt>
      <trkpt lat="48.13608" lon="-2.03619">
        <ele>107</ele>
        <time>2025-05-16T08:40:11Z</time>
      </trkpt>
      <trkpt lat="48.13603" lon="-2.03618">
        <ele>107</ele>
        <time>2025-05-16T08:40:12Z</time>
      </trkpt>
      <trkpt lat="48.13597" lon="-2.03616">
        <ele>107</ele>
        <time>2025-05-16T08:40:13Z</time>
      </trkpt>
      <trkpt lat="48.13592" lon="-2.03613">
        <ele>107</ele>
        <time>2025-05-16T08:40:14Z</time>
      </trkpt>
      <trkpt lat="48.13588" lon="-2.03612">
        <ele>108</ele>
        <time>2025-05-16T08:40:15Z</time>
      </trkpt>
      <trkpt lat="48.13583" lon="-2.03611">
        <ele>108</ele>
        <time>2025-05-16T08:40:16Z</time>
      </trkpt>
      <trkpt lat="48.13579" lon="-2.03609">
        <ele>108</ele>
        <time>2025-05-16T08:40:17Z</time>
      </trkpt>
      <trkpt lat="48.13575" lon="-2.03607">
        <ele>108</ele>
        <time>2025-05-16T08:40:18Z</time>
      </trkpt>
      <trkpt lat="48.1357" lon="-2.03606">
        <ele>107</ele>
        <time>2025-05-16T08:40:19Z</time>
      </trkpt>
      <trkpt lat="48.13566" lon="-2.03604">
        <ele>107</ele>
        <time>2025-05-16T08:40:20Z</time>
      </trkpt>
      <trkpt lat="48.13562" lon="-2.03603">
        <ele>107</ele>
        <time>2025-05-16T08:40:21Z</time>
      </trkpt>
      <trkpt lat="48.13558" lon="-2.03602">
        <ele>107</ele>
        <time>2025-05-16T08:40:22Z</time>
      </trkpt>
      <trkpt lat="48.13555" lon="-2.036">
        <ele>107</ele>
        <time>2025-05-16T08:40:23Z</time>
      </trkpt>
      <trkpt lat="48.13551" lon="-2.03599">
        <ele>108</ele>
        <time>2025-05-16T08:40:24Z</time>
      </trkpt>
      <trkpt lat="48.13547" lon="-2.03597">
        <ele>108</ele>
        <time>2025-05-16T08:40:25Z</time>
      </trkpt>
      <trkpt lat="48.13544" lon="-2.03596">
        <ele>108</ele>
        <time>2025-05-16T08:40:26Z</time>
      </trkpt>
      <trkpt lat="48.1354" lon="-2.03594">
        <ele>108</ele>
        <time>2025-05-16T08:40:27Z</time>
      </trkpt>
      <trkpt lat="48.13536" lon="-2.03593">
        <ele>108</ele>
        <time>2025-05-16T08:40:28Z</time>
      </trkpt>
      <trkpt lat="48.13533" lon="-2.03592">
        <ele>109</ele>
        <time>2025-05-16T08:40:29Z</time>
      </trkpt>
      <trkpt lat="48.13529" lon="-2.0359">
        <ele>108</ele>
        <time>2025-05-16T08:40:30Z</time>
      </trkpt>
      <trkpt lat="48.13526" lon="-2.03589">
        <ele>109</ele>
        <time>2025-05-16T08:40:31Z</time>
      </trkpt>
      <trkpt lat="48.13522" lon="-2.03588">
        <ele>109</ele>
        <time>2025-05-16T08:40:32Z</time>
      </trkpt>
      <trkpt lat="48.13518" lon="-2.03587">
        <ele>109</ele>
        <time>2025-05-16T08:40:33Z</time>
      </trkpt>
      <trkpt lat="48.13514" lon="-2.03587">
        <ele>109</ele>
        <time>2025-05-16T08:40:34Z</time>
      </trkpt>
      <trkpt lat="48.1351" lon="-2.03586">
        <ele>109</ele>
        <time>2025-05-16T08:40:35Z</time>
      </trkpt>
      <trkpt lat="48.13507" lon="-2.03585">
        <ele>109</ele>
        <time>2025-05-16T08:40:36Z</time>
      </trkpt>
      <trkpt lat="48.13503" lon="-2.03584">
        <ele>109</ele>
        <time>2025-05-16T08:40:37Z</time>
      </trkpt>
      <trkpt lat="48.13499" lon="-2.03583">
        <ele>109</ele>
        <time>2025-05-16T08:40:38Z</time>
      </trkpt>
      <trkpt lat="48.13496" lon="-2.03582">
        <ele>109</ele>
        <time>2025-05-16T08:40:39Z</time>
      </trkpt>
      <trkpt lat="48.13492" lon="-2.03581">
        <ele>110</ele>
        <time>2025-05-16T08:40:40Z</time>
      </trkpt>
      <trkpt lat="48.13489" lon="-2.0358">
        <ele>110</ele>
        <time>2025-05-16T08:40:41Z</time>
      </trkpt>
      <trkpt lat="48.13485" lon="-2.03579">
        <ele>110</ele>
        <time>2025-05-16T08:40:42Z</time>
      </trkpt>
      <trkpt lat="48.13481" lon="-2.03578">
        <ele>109</ele>
        <time>2025-05-16T08:40:43Z</time>
      </trkpt>
      <trkpt lat="48.13478" lon="-2.03577">
        <ele>109</ele>
        <time>2025-05-16T08:40:44Z</time>
      </trkpt>
      <trkpt lat="48.13474" lon="-2.03575">
        <ele>109</ele>
        <time>2025-05-16T08:40:45Z</time>
      </trkpt>
      <trkpt lat="48.13469" lon="-2.03574">
        <ele>109</ele>
        <time>2025-05-16T08:40:46Z</time>
      </trkpt>
      <trkpt lat="48.13465" lon="-2.03574">
        <ele>109</ele>
        <time>2025-05-16T08:40:47Z</time>
      </trkpt>
      <trkpt lat="48.13461" lon="-2.03574">
        <ele>110</ele>
        <time>2025-05-16T08:40:48Z</time>
      </trkpt>
      <trkpt lat="48.13457" lon="-2.03573">
        <ele>110</ele>
        <time>2025-05-16T08:40:49Z</time>
      </trkpt>
      <trkpt lat="48.13453" lon="-2.03572">
        <ele>110</ele>
        <time>2025-05-16T08:40:50Z</time>
      </trkpt>
      <trkpt lat="48.13449" lon="-2.03572">
        <ele>110</ele>
        <time>2025-05-16T08:40:51Z</time>
      </trkpt>
      <trkpt lat="48.13444" lon="-2.03571">
        <ele>110</ele>
        <time>2025-05-16T08:40:52Z</time>
      </trkpt>
      <trkpt lat="48.1344" lon="-2.0357">
        <ele>110</ele>
        <time>2025-05-16T08:40:53Z</time>
      </trkpt>
      <trkpt lat="48.13436" lon="-2.03569">
        <ele>111</ele>
        <time>2025-05-16T08:40:54Z</time>
      </trkpt>
      <trkpt lat="48.13432" lon="-2.03569">
        <ele>111</ele>
        <time>2025-05-16T08:40:55Z</time>
      </trkpt>
      <trkpt lat="48.13428" lon="-2.03568">
        <ele>111</ele>
        <time>2025-05-16T08:40:56Z</time>
      </trkpt>
      <trkpt lat="48.13424" lon="-2.03567">
        <ele>111</ele>
        <time>2025-05-16T08:40:57Z</time>
      </trkpt>
      <trkpt lat="48.1342" lon="-2.03566">
        <ele>111</ele>
        <time>2025-05-16T08:40:58Z</time>
      </trkpt>
      <trkpt lat="48.13416" lon="-2.03565">
        <ele>112</ele>
        <time>2025-05-16T08:40:59Z</time>
      </trkpt>
      <trkpt lat="48.13412" lon="-2.03564">
        <ele>111</ele>
        <time>2025-05-16T08:41:00Z</time>
      </trkpt>
      <trkpt lat="48.13409" lon="-2.03563">
        <ele>111</ele>
        <time>2025-05-16T08:41:01Z</time>
      </trkpt>
      <trkpt lat="48.13405" lon="-2.03563">
        <ele>111</ele>
        <time>2025-05-16T08:41:02Z</time>
      </trkpt>
      <trkpt lat="48.13401" lon="-2.03561">
        <ele>111</ele>
        <time>2025-05-16T08:41:03Z</time>
      </trkpt>
      <trkpt lat="48.13398" lon="-2.0356">
        <ele>111</ele>
        <time>2025-05-16T08:41:04Z</time>
      </trkpt>
      <trkpt lat="48.13394" lon="-2.0356">
        <ele>110</ele>
        <time>2025-05-16T08:41:05Z</time>
      </trkpt>
      <trkpt lat="48.13391" lon="-2.03559">
        <ele>111</ele>
        <time>2025-05-16T08:41:06Z</time>
      </trkpt>
      <trkpt lat="48.13388" lon="-2.03558">
        <ele>111</ele>
        <time>2025-05-16T08:41:07Z</time>
      </trkpt>
      <trkpt lat="48.13385" lon="-2.03557">
        <ele>111</ele>
        <time>2025-05-16T08:41:08Z</time>
      </trkpt>
      <trkpt lat="48.13382" lon="-2.03556">
        <ele>112</ele>
        <time>2025-05-16T08:41:09Z</time>
      </trkpt>
      <trkpt lat="48.13379" lon="-2.03555">
        <ele>112</ele>
        <time>2025-05-16T08:41:10Z</time>
      </trkpt>
      <trkpt lat="48.13376" lon="-2.03554">
        <ele>112</ele>
        <time>2025-05-16T08:41:11Z</time>
      </trkpt>
      <trkpt lat="48.13373" lon="-2.03552">
        <ele>113</ele>
        <time>2025-05-16T08:41:12Z</time>
      </trkpt>
      <trkpt lat="48.1337" lon="-2.03551">
        <ele>113</ele>
        <time>2025-05-16T08:41:13Z</time>
      </trkpt>
      <trkpt lat="48.13367" lon="-2.0355">
        <ele>113</ele>
        <time>2025-05-16T08:41:14Z</time>
      </trkpt>
      <trkpt lat="48.13365" lon="-2.03549">
        <ele>114</ele>
        <time>2025-05-16T08:41:15Z</time>
      </trkpt>
      <trkpt lat="48.13362" lon="-2.03548">
        <ele>114</ele>
        <time>2025-05-16T08:41:16Z</time>
      </trkpt>
      <trkpt lat="48.13359" lon="-2.03546">
        <ele>114</ele>
        <time>2025-05-16T08:41:17Z</time>
      </trkpt>
      <trkpt lat="48.13357" lon="-2.03545">
        <ele>115</ele>
        <time>2025-05-16T08:41:18Z</time>
      </trkpt>
      <trkpt lat="48.13354" lon="-2.03543">
        <ele>115</ele>
        <time>2025-05-16T08:41:19Z</time>
      </trkpt>
      <trkpt lat="48.13352" lon="-2.03542">
        <ele>115</ele>
        <time>2025-05-16T08:41:20Z</time>
      </trkpt>
      <trkpt lat="48.1335" lon="-2.0354">
        <ele>116</ele>
        <time>2025-05-16T08:41:21Z</time>
      </trkpt>
      <trkpt lat="48.13347" lon="-2.03538">
        <ele>116</ele>
        <time>2025-05-16T08:41:22Z</time>
      </trkpt>
      <trkpt lat="48.13345" lon="-2.03536">
        <ele>116</ele>
        <time>2025-05-16T08:41:23Z</time>
      </trkpt>
      <trkpt lat="48.13343" lon="-2.03534">
        <ele>116</ele>
        <time>2025-05-16T08:41:24Z</time>
      </trkpt>
      <trkpt lat="48.1334" lon="-2.03533">
        <ele>116</ele>
        <time>2025-05-16T08:41:25Z</time>
      </trkpt>
      <trkpt lat="48.13338" lon="-2.03532">
        <ele>116</ele>
        <time>2025-05-16T08:41:26Z</time>
      </trkpt>
      <trkpt lat="48.13336" lon="-2.03531">
        <ele>116</ele>
        <time>2025-05-16T08:41:27Z</time>
      </trkpt>
      <trkpt lat="48.13334" lon="-2.0353">
        <ele>116</ele>
        <time>2025-05-16T08:41:28Z</time>
      </trkpt>
      <trkpt lat="48.13332" lon="-2.03528">
        <ele>116</ele>
        <time>2025-05-16T08:41:29Z</time>
      </trkpt>
      <trkpt lat="48.1333" lon="-2.03527">
        <ele>116</ele>
        <time>2025-05-16T08:41:30Z</time>
      </trkpt>
      <trkpt lat="48.13328" lon="-2.03525">
        <ele>117</ele>
        <time>2025-05-16T08:41:31Z</time>
      </trkpt>
      <trkpt lat="48.13326" lon="-2.03524">
        <ele>117</ele>
        <time>2025-05-16T08:41:32Z</time>
      </trkpt>
      <trkpt lat="48.13324" lon="-2.03522">
        <ele>117</ele>
        <time>2025-05-16T08:41:33Z</time>
      </trkpt>
      <trkpt lat="48.13322" lon="-2.03521">
        <ele>117</ele>
        <time>2025-05-16T08:41:34Z</time>
      </trkpt>
      <trkpt lat="48.1332" lon="-2.03519">
        <ele>117</ele>
        <time>2025-05-16T08:41:35Z</time>
      </trkpt>
      <trkpt lat="48.13318" lon="-2.03518">
        <ele>117</ele>
        <time>2025-05-16T08:41:36Z</time>
      </trkpt>
      <trkpt lat="48.13315" lon="-2.03517">
        <ele>117</ele>
        <time>2025-05-16T08:41:37Z</time>
      </trkpt>
      <trkpt lat="48.13313" lon="-2.03516">
        <ele>117</ele>
        <time>2025-05-16T08:41:38Z</time>
      </trkpt>
      <trkpt lat="48.13311" lon="-2.03514">
        <ele>118</ele>
        <time>2025-05-16T08:41:39Z</time>
      </trkpt>
      <trkpt lat="48.1331" lon="-2.03512">
        <ele>118</ele>
        <time>2025-05-16T08:41:40Z</time>
      </trkpt>
      <trkpt lat="48.13307" lon="-2.03511">
        <ele>118</ele>
        <time>2025-05-16T08:41:41Z</time>
      </trkpt>
      <trkpt lat="48.13305" lon="-2.0351">
        <ele>118</ele>
        <time>2025-05-16T08:41:42Z</time>
      </trkpt>
      <trkpt lat="48.13303" lon="-2.03508">
        <ele>119</ele>
        <time>2025-05-16T08:41:43Z</time>
      </trkpt>
      <trkpt lat="48.13301" lon="-2.03507">
        <ele>120</ele>
        <time>2025-05-16T08:41:44Z</time>
      </trkpt>
      <trkpt lat="48.133" lon="-2.03505">
        <ele>120</ele>
        <time>2025-05-16T08:41:45Z</time>
      </trkpt>
      <trkpt lat="48.13297" lon="-2.03504">
        <ele>120</ele>
        <time>2025-05-16T08:41:46Z</time>
      </trkpt>
      <trkpt lat="48.13295" lon="-2.03503">
        <ele>119</ele>
        <time>2025-05-16T08:41:47Z</time>
      </trkpt>
      <trkpt lat="48.13293" lon="-2.03502">
        <ele>119</ele>
        <time>2025-05-16T08:41:48Z</time>
      </trkpt>
      <trkpt lat="48.13291" lon="-2.035">
        <ele>119</ele>
        <time>2025-05-16T08:41:49Z</time>
      </trkpt>
      <trkpt lat="48.13289" lon="-2.03499">
        <ele>119</ele>
        <time>2025-05-16T08:41:50Z</time>
      </trkpt>
      <trkpt lat="48.13287" lon="-2.03498">
        <ele>119</ele>
        <time>2025-05-16T08:41:51Z</time>
      </trkpt>
      <trkpt lat="48.13286" lon="-2.03496">
        <ele>119</ele>
        <time>2025-05-16T08:41:52Z</time>
      </trkpt>
      <trkpt lat="48.13284" lon="-2.03495">
        <ele>119</ele>
        <time>2025-05-16T08:41:53Z</time>
      </trkpt>
      <trkpt lat="48.13282" lon="-2.03494">
        <ele>119</ele>
        <time>2025-05-16T08:41:54Z</time>
      </trkpt>
      <trkpt lat="48.1328" lon="-2.03492">
        <ele>119</ele>
        <time>2025-05-16T08:41:55Z</time>
      </trkpt>
      <trkpt lat="48.13278" lon="-2.0349">
        <ele>120</ele>
        <time>2025-05-16T08:41:56Z</time>
      </trkpt>
      <trkpt lat="48.13276" lon="-2.03489">
        <ele>120</ele>
        <time>2025-05-16T08:41:57Z</time>
      </trkpt>
      <trkpt lat="48.13274" lon="-2.03487">
        <ele>121</ele>
        <time>2025-05-16T08:41:58Z</time>
      </trkpt>
      <trkpt lat="48.13272" lon="-2.03487">
        <ele>121</ele>
        <time>2025-05-16T08:41:59Z</time>
      </trkpt>
      <trkpt lat="48.1327" lon="-2.03486">
        <ele>122</ele>
        <time>2025-05-16T08:42:00Z</time>
      </trkpt>
      <trkpt lat="48.13268" lon="-2.03484">
        <ele>122</ele>
        <time>2025-05-16T08:42:01Z</time>
      </trkpt>
      <trkpt lat="48.13266" lon="-2.03483">
        <ele>122</ele>
        <time>2025-05-16T08:42:02Z</time>
      </trkpt>
      <trkpt lat="48.13264" lon="-2.03481">
        <ele>121</ele>
        <time>2025-05-16T08:42:03Z</time>
      </trkpt>
      <trkpt lat="48.13262" lon="-2.0348">
        <ele>121</ele>
        <time>2025-05-16T08:42:04Z</time>
      </trkpt>
      <trkpt lat="48.1326" lon="-2.03479">
        <ele>121</ele>
        <time>2025-05-16T08:42:05Z</time>
      </trkpt>
      <trkpt lat="48.13259" lon="-2.03477">
        <ele>120</ele>
        <time>2025-05-16T08:42:06Z</time>
      </trkpt>
      <trkpt lat="48.13257" lon="-2.03475">
        <ele>120</ele>
        <time>2025-05-16T08:42:07Z</time>
      </trkpt>
      <trkpt lat="48.13255" lon="-2.03474">
        <ele>120</ele>
        <time>2025-05-16T08:42:08Z</time>
      </trkpt>
      <trkpt lat="48.13254" lon="-2.03473">
        <ele>120</ele>
        <time>2025-05-16T08:42:09Z</time>
      </trkpt>
      <trkpt lat="48.13252" lon="-2.03473">
        <ele>120</ele>
        <time>2025-05-16T08:42:10Z</time>
      </trkpt>
      <trkpt lat="48.1325" lon="-2.03472">
        <ele>119</ele>
        <time>2025-05-16T08:42:11Z</time>
      </trkpt>
      <trkpt lat="48.13248" lon="-2.03472">
        <ele>119</ele>
        <time>2025-05-16T08:42:12Z</time>
      </trkpt>
      <trkpt lat="48.13246" lon="-2.03472">
        <ele>119</ele>
        <time>2025-05-16T08:42:13Z</time>
      </trkpt>
      <trkpt lat="48.13244" lon="-2.03472">
        <ele>120</ele>
        <time>2025-05-16T08:42:14Z</time>
      </trkpt>
      <trkpt lat="48.13242" lon="-2.0347">
        <ele>120</ele>
        <time>2025-05-16T08:42:15Z</time>
      </trkpt>
      <trkpt lat="48.1324" lon="-2.03469">
        <ele>120</ele>
        <time>2025-05-16T08:42:16Z</time>
      </trkpt>
      <trkpt lat="48.13239" lon="-2.03466">
        <ele>120</ele>
        <time>2025-05-16T08:42:17Z</time>
      </trkpt>
      <trkpt lat="48.13238" lon="-2.03463">
        <ele>120</ele>
        <time>2025-05-16T08:42:18Z</time>
      </trkpt>
      <trkpt lat="48.13237" lon="-2.03461">
        <ele>120</ele>
        <time>2025-05-16T08:42:19Z</time>
      </trkpt>
      <trkpt lat="48.13237" lon="-2.0346">
        <ele>120</ele>
        <time>2025-05-16T08:42:20Z</time>
      </trkpt>
      <trkpt lat="48.13236" lon="-2.03459">
        <ele>120</ele>
        <time>2025-05-16T08:42:21Z</time>
      </trkpt>
      <trkpt lat="48.13235" lon="-2.03458">
        <ele>120</ele>
        <time>2025-05-16T08:42:22Z</time>
      </trkpt>
      <trkpt lat="48.13235" lon="-2.03458">
        <ele>120</ele>
        <time>2025-05-16T08:42:23Z</time>
      </trkpt>
      <trkpt lat="48.13235" lon="-2.03457">
        <ele>121</ele>
        <time>2025-05-16T08:42:24Z</time>
      </trkpt>
      <trkpt lat="48.13235" lon="-2.03457">
        <ele>121</ele>
        <time>2025-05-16T08:42:25Z</time>
      </trkpt>
      <trkpt lat="48.13234" lon="-2.03457">
        <ele>121</ele>
        <time>2025-05-16T08:42:26Z</time>
      </trkpt>
      <trkpt lat="48.13234" lon="-2.03457">
        <ele>121</ele>
        <time>2025-05-16T08:42:27Z</time>
      </trkpt>
      <trkpt lat="48.13234" lon="-2.03457">
        <ele>121</ele>
        <time>2025-05-16T08:42:28Z</time>
      </trkpt>
      <trkpt lat="48.13234" lon="-2.03457">
        <ele>121</ele>
        <time>2025-05-16T08:42:29Z</time>
      </trkpt>
      <trkpt lat="48.13234" lon="-2.03457">
        <ele>121</ele>
        <time>2025-05-16T08:42:30Z</time>
      </trkpt>
      <trkpt lat="48.13234" lon="-2.03458">
        <ele>121</ele>
        <time>2025-05-16T08:42:31Z</time>
      </trkpt>
      <trkpt lat="48.13235" lon="-2.03458">
        <ele>121</ele>
        <time>2025-05-16T08:42:32Z</time>
      </trkpt>
      <trkpt lat="48.13235" lon="-2.03458">
        <ele>121</ele>
        <time>2025-05-16T08:42:33Z</time>
      </trkpt>
      <trkpt lat="48.13235" lon="-2.03458">
        <ele>121</ele>
        <time>2025-05-16T08:42:34Z</time>
      </trkpt>
      <trkpt lat="48.13235" lon="-2.03458">
        <ele>121</ele>
        <time>2025-05-16T08:42:35Z</time>
      </trkpt>
      <trkpt lat="48.13235" lon="-2.03458">
        <ele>121</ele>
        <time>2025-05-16T08:42:36Z</time>
      </trkpt>
      <trkpt lat="48.13235" lon="-2.03458">
        <ele>121</ele>
        <time>2025-05-16T08:42:37Z</time>
      </trkpt>
      <trkpt lat="48.13235" lon="-2.03458">
        <ele>121</ele>
        <time>2025-05-16T08:42:38Z</time>
      </trkpt>
      <trkpt lat="48.13235" lon="-2.03458">
        <ele>121</ele>
        <time>2025-05-16T08:42:39Z</time>
      </trkpt>
      <trkpt lat="48.13235" lon="-2.03458">
        <ele>121</ele>
        <time>2025-05-16T08:42:40Z</time>
      </trkpt>
      <trkpt lat="48.13235" lon="-2.03458">
        <ele>121</ele>
        <time>2025-05-16T08:42:41Z</time>
      </trkpt>
      <trkpt lat="48.13235" lon="-2.03458">
        <ele>121</ele>
        <time>2025-05-16T08:42:42Z</time>
      </trkpt>
      <trkpt lat="48.13235" lon="-2.03458">
        <ele>121</ele>
        <time>2025-05-16T08:42:43Z</time>
      </trkpt>
      <trkpt lat="48.13235" lon="-2.03458">
        <ele>121</ele>
        <time>2025-05-16T08:42:44Z</time>
      </trkpt>
      <trkpt lat="48.13235" lon="-2.03458">
        <ele>121</ele>
        <time>2025-05-16T08:42:45Z</time>
      </trkpt>
      <trkpt lat="48.13235" lon="-2.03458">
        <ele>121</ele>
        <time>2025-05-16T08:42:46Z</time>
      </trkpt>
      <trkpt lat="48.13235" lon="-2.03458">
        <ele>121</ele>
        <time>2025-05-16T08:42:47Z</time>
      </trkpt>
      <trkpt lat="48.13235" lon="-2.03458">
        <ele>121</ele>
        <time>2025-05-16T08:42:48Z</time>
      </trkpt>
      <trkpt lat="48.13235" lon="-2.03458">
        <ele>121</ele>
        <time>2025-05-16T08:42:49Z</time>
      </trkpt>
      <trkpt lat="48.13235" lon="-2.03458">
        <ele>121</ele>
        <time>2025-05-16T08:42:50Z</time>
      </trkpt>
      <trkpt lat="48.13235" lon="-2.03458">
        <ele>121</ele>
        <time>2025-05-16T08:42:51Z</time>
      </trkpt>
      <trkpt lat="48.13235" lon="-2.03458">
        <ele>121</ele>
        <time>2025-05-16T08:42:52Z</time>
      </trkpt>
      <trkpt lat="48.13235" lon="-2.03458">
        <ele>121</ele>
        <time>2025-05-16T08:42:53Z</time>
      </trkpt>
      <trkpt lat="48.13235" lon="-2.03458">
        <ele>121</ele>
        <time>2025-05-16T08:42:54Z</time>
      </trkpt>
      <trkpt lat="48.13235" lon="-2.03458">
        <ele>121</ele>
        <time>2025-05-16T08:42:55Z</time>
      </trkpt>
      <trkpt lat="48.13235" lon="-2.03458">
        <ele>121</ele>
        <time>2025-05-16T08:42:56Z</time>
      </trkpt>
      <trkpt lat="48.13235" lon="-2.03458">
        <ele>121</ele>
        <time>2025-05-16T08:42:57Z</time>
      </trkpt>
      <trkpt lat="48.13235" lon="-2.03458">
        <ele>121</ele>
        <time>2025-05-16T08:42:58Z</time>
      </trkpt>
      <trkpt lat="48.13235" lon="-2.03458">
        <ele>121</ele>
        <time>2025-05-16T08:42:59Z</time>
      </trkpt>
      <trkpt lat="48.13235" lon="-2.03458">
        <ele>121</ele>
        <time>2025-05-16T08:43:00Z</time>
      </trkpt>
      <trkpt lat="48.13235" lon="-2.03458">
        <ele>121</ele>
        <time>2025-05-16T08:43:01Z</time>
      </trkpt>
      <trkpt lat="48.13235" lon="-2.03458">
        <ele>121</ele>
        <time>2025-05-16T08:43:02Z</time>
      </trkpt>
      <trkpt lat="48.13235" lon="-2.03458">
        <ele>121</ele>
        <time>2025-05-16T08:43:03Z</time>
      </trkpt>
      <trkpt lat="48.13235" lon="-2.03458">
        <ele>121</ele>
        <time>2025-05-16T08:43:04Z</time>
      </trkpt>
      <trkpt lat="48.13235" lon="-2.03458">
        <ele>121</ele>
        <time>2025-05-16T08:43:05Z</time>
      </trkpt>
      <trkpt lat="48.13235" lon="-2.03458">
        <ele>121</ele>
        <time>2025-05-16T08:43:06Z</time>
      </trkpt>
      <trkpt lat="48.13235" lon="-2.03458">
        <ele>121</ele>
        <time>2025-05-16T08:43:07Z</time>
      </trkpt>
      <trkpt lat="48.13235" lon="-2.03458">
        <ele>121</ele>
        <time>2025-05-16T08:43:08Z</time>
      </trkpt>
      <trkpt lat="48.13235" lon="-2.03458">
        <ele>121</ele>
        <time>2025-05-16T08:43:09Z</time>
      </trkpt>
      <trkpt lat="48.13235" lon="-2.03458">
        <ele>121</ele>
        <time>2025-05-16T08:43:10Z</time>
      </trkpt>
      <trkpt lat="48.13235" lon="-2.03458">
        <ele>121</ele>
        <time>2025-05-16T08:43:11Z</time>
      </trkpt>
      <trkpt lat="48.13235" lon="-2.03458">
        <ele>121</ele>
        <time>2025-05-16T08:43:12Z</time>
      </trkpt>
      <trkpt lat="48.13235" lon="-2.03458">
        <ele>121</ele>
        <time>2025-05-16T08:43:13Z</time>
      </trkpt>
      <trkpt lat="48.13235" lon="-2.03458">
        <ele>121</ele>
        <time>2025-05-16T08:43:14Z</time>
      </trkpt>
      <trkpt lat="48.13235" lon="-2.03458">
        <ele>121</ele>
        <time>2025-05-16T08:43:15Z</time>
      </trkpt>
      <trkpt lat="48.13235" lon="-2.03458">
        <ele>121</ele>
        <time>2025-05-16T08:43:16Z</time>
      </trkpt>
      <trkpt lat="48.13235" lon="-2.03458">
        <ele>121</ele>
        <time>2025-05-16T08:43:17Z</time>
      </trkpt>
      <trkpt lat="48.13235" lon="-2.03458">
        <ele>121</ele>
        <time>2025-05-16T08:43:18Z</time>
      </trkpt>
      <trkpt lat="48.13235" lon="-2.03458">
        <ele>121</ele>
        <time>2025-05-16T08:43:19Z</time>
      </trkpt>
      <trkpt lat="48.13235" lon="-2.03458">
        <ele>121</ele>
        <time>2025-05-16T08:43:20Z</time>
      </trkpt>
      <trkpt lat="48.13235" lon="-2.03458">
        <ele>121</ele>
        <time>2025-05-16T08:43:21Z</time>
      </trkpt>
      <trkpt lat="48.13235" lon="-2.03458">
        <ele>121</ele>
        <time>2025-05-16T08:43:22Z</time>
      </trkpt>
      <trkpt lat="48.13235" lon="-2.03458">
        <ele>121</ele>
        <time>2025-05-16T08:43:23Z</time>
      </trkpt>
      <trkpt lat="48.13235" lon="-2.03458">
        <ele>121</ele>
        <time>2025-05-16T08:43:24Z</time>
      </trkpt>
      <trkpt lat="48.13235" lon="-2.03458">
        <ele>121</ele>
        <time>2025-05-16T08:43:25Z</time>
      </trkpt>
      <trkpt lat="48.13235" lon="-2.03458">
        <ele>121</ele>
        <time>2025-05-16T08:43:26Z</time>
      </trkpt>
      <trkpt lat="48.13235" lon="-2.03458">
        <ele>121</ele>
        <time>2025-05-16T08:43:27Z</time>
      </trkpt>
      <trkpt lat="48.13235" lon="-2.03458">
        <ele>121</ele>
        <time>2025-05-16T08:43:28Z</time>
      </trkpt>
      <trkpt lat="48.13235" lon="-2.03458">
        <ele>121</ele>
        <time>2025-05-16T08:55:52Z</time>
      </trkpt>
      <trkpt lat="48.13235" lon="-2.03458">
        <ele>121</ele>
        <time>2025-05-16T08:55:53Z</time>
      </trkpt>
      <trkpt lat="48.13235" lon="-2.03458">
        <ele>121</ele>
        <time>2025-05-16T08:55:54Z</time>
      </trkpt>
      <trkpt lat="48.13235" lon="-2.03458">
        <ele>121</ele>
        <time>2025-05-16T08:55:55Z</time>
      </trkpt>
      <trkpt lat="48.13235" lon="-2.03458">
        <ele>121</ele>
        <time>2025-05-16T08:55:56Z</time>
      </trkpt>
      <trkpt lat="48.13235" lon="-2.03458">
        <ele>121</ele>
        <time>2025-05-16T08:55:57Z</time>
      </trkpt>
      <trkpt lat="48.13235" lon="-2.03458">
        <ele>121</ele>
        <time>2025-05-16T08:55:58Z</time>
      </trkpt>
      <trkpt lat="48.13235" lon="-2.03458">
        <ele>121</ele>
        <time>2025-05-16T08:55:59Z</time>
      </trkpt>
      <trkpt lat="48.13235" lon="-2.03458">
        <ele>121</ele>
        <time>2025-05-16T08:56:00Z</time>
      </trkpt>
      <trkpt lat="48.13235" lon="-2.03458">
        <ele>121</ele>
        <time>2025-05-16T08:56:01Z</time>
      </trkpt>
      <trkpt lat="48.13235" lon="-2.03458">
        <ele>121</ele>
        <time>2025-05-16T08:56:02Z</time>
      </trkpt>
      <trkpt lat="48.13235" lon="-2.03458">
        <ele>121</ele>
        <time>2025-05-16T08:56:03Z</time>
      </trkpt>
      <trkpt lat="48.13237" lon="-2.03453">
        <ele>124</ele>
        <time>2025-05-16T08:56:04Z</time>
      </trkpt>
      <trkpt lat="48.13238" lon="-2.0345">
        <ele>124</ele>
        <time>2025-05-16T08:56:05Z</time>
      </trkpt>
      <trkpt lat="48.13238" lon="-2.03448">
        <ele>124</ele>
        <time>2025-05-16T08:56:06Z</time>
      </trkpt>
      <trkpt lat="48.13239" lon="-2.03446">
        <ele>123</ele>
        <time>2025-05-16T08:56:07Z</time>
      </trkpt>
      <trkpt lat="48.1324" lon="-2.03444">
        <ele>123</ele>
        <time>2025-05-16T08:56:08Z</time>
      </trkpt>
      <trkpt lat="48.13241" lon="-2.03441">
        <ele>122</ele>
        <time>2025-05-16T08:56:09Z</time>
      </trkpt>
      <trkpt lat="48.13241" lon="-2.03437">
        <ele>122</ele>
        <time>2025-05-16T08:56:10Z</time>
      </trkpt>
      <trkpt lat="48.13241" lon="-2.03434">
        <ele>121</ele>
        <time>2025-05-16T08:56:11Z</time>
      </trkpt>
      <trkpt lat="48.13241" lon="-2.0343">
        <ele>121</ele>
        <time>2025-05-16T08:56:12Z</time>
      </trkpt>
      <trkpt lat="48.13242" lon="-2.03427">
        <ele>121</ele>
        <time>2025-05-16T08:56:13Z</time>
      </trkpt>
      <trkpt lat="48.13243" lon="-2.03423">
        <ele>120</ele>
        <time>2025-05-16T08:56:14Z</time>
      </trkpt>
      <trkpt lat="48.13244" lon="-2.03419">
        <ele>120</ele>
        <time>2025-05-16T08:56:15Z</time>
      </trkpt>
      <trkpt lat="48.13245" lon="-2.03416">
        <ele>120</ele>
        <time>2025-05-16T08:56:16Z</time>
      </trkpt>
      <trkpt lat="48.13247" lon="-2.03412">
        <ele>120</ele>
        <time>2025-05-16T08:56:17Z</time>
      </trkpt>
      <trkpt lat="48.13248" lon="-2.03409">
        <ele>121</ele>
        <time>2025-05-16T08:56:18Z</time>
      </trkpt>
      <trkpt lat="48.1325" lon="-2.03405">
        <ele>121</ele>
        <time>2025-05-16T08:56:19Z</time>
      </trkpt>
      <trkpt lat="48.13251" lon="-2.03401">
        <ele>121</ele>
        <time>2025-05-16T08:56:20Z</time>
      </trkpt>
      <trkpt lat="48.13252" lon="-2.03397">
        <ele>121</ele>
        <time>2025-05-16T08:56:21Z</time>
      </trkpt>
      <trkpt lat="48.13252" lon="-2.03392">
        <ele>121</ele>
        <time>2025-05-16T08:56:22Z</time>
      </trkpt>
      <trkpt lat="48.13252" lon="-2.03388">
        <ele>121</ele>
        <time>2025-05-16T08:56:23Z</time>
      </trkpt>
      <trkpt lat="48.13253" lon="-2.03384">
        <ele>121</ele>
        <time>2025-05-16T08:56:24Z</time>
      </trkpt>
      <trkpt lat="48.13254" lon="-2.0338">
        <ele>121</ele>
        <time>2025-05-16T08:56:25Z</time>
      </trkpt>
      <trkpt lat="48.13255" lon="-2.03376">
        <ele>121</ele>
        <time>2025-05-16T08:56:26Z</time>
      </trkpt>
      <trkpt lat="48.13256" lon="-2.03372">
        <ele>121</ele>
        <time>2025-05-16T08:56:27Z</time>
      </trkpt>
      <trkpt lat="48.13256" lon="-2.03367">
        <ele>121</ele>
        <time>2025-05-16T08:56:28Z</time>
      </trkpt>
      <trkpt lat="48.13257" lon="-2.03363">
        <ele>121</ele>
        <time>2025-05-16T08:56:29Z</time>
      </trkpt>
      <trkpt lat="48.13258" lon="-2.03359">
        <ele>120</ele>
        <time>2025-05-16T08:56:30Z</time>
      </trkpt>
      <trkpt lat="48.13259" lon="-2.03355">
        <ele>120</ele>
        <time>2025-05-16T08:56:31Z</time>
      </trkpt>
      <trkpt lat="48.1326" lon="-2.03351">
        <ele>120</ele>
        <time>2025-05-16T08:56:32Z</time>
      </trkpt>
      <trkpt lat="48.1326" lon="-2.03346">
        <ele>120</ele>
        <time>2025-05-16T08:56:33Z</time>
      </trkpt>
      <trkpt lat="48.13261" lon="-2.03341">
        <ele>119</ele>
        <time>2025-05-16T08:56:34Z</time>
      </trkpt>
      <trkpt lat="48.13262" lon="-2.03336">
        <ele>120</ele>
        <time>2025-05-16T08:56:35Z</time>
      </trkpt>
      <trkpt lat="48.13263" lon="-2.03332">
        <ele>120</ele>
        <time>2025-05-16T08:56:36Z</time>
      </trkpt>
      <trkpt lat="48.13263" lon="-2.03328">
        <ele>120</ele>
        <time>2025-05-16T08:56:37Z</time>
      </trkpt>
      <trkpt lat="48.13264" lon="-2.03323">
        <ele>120</ele>
        <time>2025-05-16T08:56:38Z</time>
      </trkpt>
      <trkpt lat="48.13265" lon="-2.03318">
        <ele>120</ele>
        <time>2025-05-16T08:56:39Z</time>
      </trkpt>
      <trkpt lat="48.13266" lon="-2.03314">
        <ele>120</ele>
        <time>2025-05-16T08:56:40Z</time>
      </trkpt>
      <trkpt lat="48.13267" lon="-2.03309">
        <ele>120</ele>
        <time>2025-05-16T08:56:41Z</time>
      </trkpt>
      <trkpt lat="48.13268" lon="-2.03305">
        <ele>120</ele>
        <time>2025-05-16T08:56:42Z</time>
      </trkpt>
      <trkpt lat="48.13269" lon="-2.033">
        <ele>120</ele>
        <time>2025-05-16T08:56:43Z</time>
      </trkpt>
      <trkpt lat="48.1327" lon="-2.03296">
        <ele>120</ele>
        <time>2025-05-16T08:56:44Z</time>
      </trkpt>
      <trkpt lat="48.1327" lon="-2.03291">
        <ele>120</ele>
        <time>2025-05-16T08:56:45Z</time>
      </trkpt>
      <trkpt lat="48.13271" lon="-2.03286">
        <ele>120</ele>
        <time>2025-05-16T08:56:46Z</time>
      </trkpt>
      <trkpt lat="48.13271" lon="-2.03281">
        <ele>120</ele>
        <time>2025-05-16T08:56:47Z</time>
      </trkpt>
      <trkpt lat="48.13272" lon="-2.03277">
        <ele>120</ele>
        <time>2025-05-16T08:56:48Z</time>
      </trkpt>
      <trkpt lat="48.13273" lon="-2.03272">
        <ele>121</ele>
        <time>2025-05-16T08:56:49Z</time>
      </trkpt>
      <trkpt lat="48.13274" lon="-2.03268">
        <ele>121</ele>
        <time>2025-05-16T08:56:50Z</time>
      </trkpt>
      <trkpt lat="48.13275" lon="-2.03263">
        <ele>121</ele>
        <time>2025-05-16T08:56:51Z</time>
      </trkpt>
      <trkpt lat="48.13276" lon="-2.03258">
        <ele>120</ele>
        <time>2025-05-16T08:56:52Z</time>
      </trkpt>
      <trkpt lat="48.13277" lon="-2.03254">
        <ele>120</ele>
        <time>2025-05-16T08:56:53Z</time>
      </trkpt>
      <trkpt lat="48.13277" lon="-2.03249">
        <ele>120</ele>
        <time>2025-05-16T08:56:54Z</time>
      </trkpt>
      <trkpt lat="48.13278" lon="-2.03245">
        <ele>120</ele>
        <time>2025-05-16T08:56:55Z</time>
      </trkpt>
      <trkpt lat="48.13278" lon="-2.03241">
        <ele>120</ele>
        <time>2025-05-16T08:56:56Z</time>
      </trkpt>
      <trkpt lat="48.13279" lon="-2.03238">
        <ele>120</ele>
        <time>2025-05-16T08:56:57Z</time>
      </trkpt>
      <trkpt lat="48.1328" lon="-2.03233">
        <ele>120</ele>
        <time>2025-05-16T08:56:58Z</time>
      </trkpt>
      <trkpt lat="48.13281" lon="-2.03229">
        <ele>121</ele>
        <time>2025-05-16T08:56:59Z</time>
      </trkpt>
      <trkpt lat="48.13282" lon="-2.03224">
        <ele>121</ele>
        <time>2025-05-16T08:57:00Z</time>
      </trkpt>
      <trkpt lat="48.13283" lon="-2.0322">
        <ele>121</ele>
        <time>2025-05-16T08:57:01Z</time>
      </trkpt>
      <trkpt lat="48.13284" lon="-2.03215">
        <ele>122</ele>
        <time>2025-05-16T08:57:02Z</time>
      </trkpt>
      <trkpt lat="48.13285" lon="-2.03211">
        <ele>122</ele>
        <time>2025-05-16T08:57:03Z</time>
      </trkpt>
      <trkpt lat="48.13286" lon="-2.03206">
        <ele>122</ele>
        <time>2025-05-16T08:57:04Z</time>
      </trkpt>
      <trkpt lat="48.13286" lon="-2.03202">
        <ele>123</ele>
        <time>2025-05-16T08:57:05Z</time>
      </trkpt>
      <trkpt lat="48.13287" lon="-2.03198">
        <ele>123</ele>
        <time>2025-05-16T08:57:06Z</time>
      </trkpt>
      <trkpt lat="48.13288" lon="-2.03193">
        <ele>122</ele>
        <time>2025-05-16T08:57:07Z</time>
      </trkpt>
      <trkpt lat="48.13289" lon="-2.03189">
        <ele>122</ele>
        <time>2025-05-16T08:57:08Z</time>
      </trkpt>
      <trkpt lat="48.1329" lon="-2.03184">
        <ele>122</ele>
        <time>2025-05-16T08:57:09Z</time>
      </trkpt>
      <trkpt lat="48.13291" lon="-2.0318">
        <ele>122</ele>
        <time>2025-05-16T08:57:10Z</time>
      </trkpt>
      <trkpt lat="48.13292" lon="-2.03175">
        <ele>122</ele>
        <time>2025-05-16T08:57:11Z</time>
      </trkpt>
      <trkpt lat="48.13293" lon="-2.03171">
        <ele>122</ele>
        <time>2025-05-16T08:57:12Z</time>
      </trkpt>
      <trkpt lat="48.13294" lon="-2.03166">
        <ele>121</ele>
        <time>2025-05-16T08:57:13Z</time>
      </trkpt>
      <trkpt lat="48.13295" lon="-2.03161">
        <ele>122</ele>
        <time>2025-05-16T08:57:14Z</time>
      </trkpt>
      <trkpt lat="48.13295" lon="-2.03156">
        <ele>122</ele>
        <time>2025-05-16T08:57:15Z</time>
      </trkpt>
      <trkpt lat="48.13296" lon="-2.03152">
        <ele>122</ele>
        <time>2025-05-16T08:57:16Z</time>
      </trkpt>
      <trkpt lat="48.13298" lon="-2.03147">
        <ele>122</ele>
        <time>2025-05-16T08:57:17Z</time>
      </trkpt>
      <trkpt lat="48.13298" lon="-2.03142">
        <ele>122</ele>
        <time>2025-05-16T08:57:18Z</time>
      </trkpt>
      <trkpt lat="48.13299" lon="-2.03138">
        <ele>122</ele>
        <time>2025-05-16T08:57:19Z</time>
      </trkpt>
      <trkpt lat="48.133" lon="-2.03133">
        <ele>122</ele>
        <time>2025-05-16T08:57:20Z</time>
      </trkpt>
      <trkpt lat="48.13301" lon="-2.03128">
        <ele>122</ele>
        <time>2025-05-16T08:57:21Z</time>
      </trkpt>
      <trkpt lat="48.13302" lon="-2.03123">
        <ele>122</ele>
        <time>2025-05-16T08:57:22Z</time>
      </trkpt>
      <trkpt lat="48.13303" lon="-2.03119">
        <ele>122</ele>
        <time>2025-05-16T08:57:23Z</time>
      </trkpt>
      <trkpt lat="48.13304" lon="-2.03114">
        <ele>122</ele>
        <time>2025-05-16T08:57:24Z</time>
      </trkpt>
      <trkpt lat="48.13305" lon="-2.03109">
        <ele>122</ele>
        <time>2025-05-16T08:57:25Z</time>
      </trkpt>
      <trkpt lat="48.13305" lon="-2.03104">
        <ele>122</ele>
        <time>2025-05-16T08:57:26Z</time>
      </trkpt>
      <trkpt lat="48.13306" lon="-2.03099">
        <ele>122</ele>
        <time>2025-05-16T08:57:27Z</time>
      </trkpt>
      <trkpt lat="48.13306" lon="-2.03094">
        <ele>121</ele>
        <time>2025-05-16T08:57:28Z</time>
      </trkpt>
      <trkpt lat="48.13305" lon="-2.03089">
        <ele>122</ele>
        <time>2025-05-16T08:57:29Z</time>
      </trkpt>
      <trkpt lat="48.13305" lon="-2.03084">
        <ele>122</ele>
        <time>2025-05-16T08:57:30Z</time>
      </trkpt>
      <trkpt lat="48.13304" lon="-2.03079">
        <ele>122</ele>
        <time>2025-05-16T08:57:31Z</time>
      </trkpt>
      <trkpt lat="48.13303" lon="-2.03074">
        <ele>122</ele>
        <time>2025-05-16T08:57:32Z</time>
      </trkpt>
      <trkpt lat="48.13302" lon="-2.03069">
        <ele>122</ele>
        <time>2025-05-16T08:57:33Z</time>
      </trkpt>
      <trkpt lat="48.133" lon="-2.03064">
        <ele>121</ele>
        <time>2025-05-16T08:57:34Z</time>
      </trkpt>
      <trkpt lat="48.13299" lon="-2.03059">
        <ele>121</ele>
        <time>2025-05-16T08:57:35Z</time>
      </trkpt>
      <trkpt lat="48.13299" lon="-2.03055">
        <ele>121</ele>
        <time>2025-05-16T08:57:36Z</time>
      </trkpt>
      <trkpt lat="48.13299" lon="-2.0305">
        <ele>121</ele>
        <time>2025-05-16T08:57:37Z</time>
      </trkpt>
      <trkpt lat="48.13299" lon="-2.03045">
        <ele>120</ele>
        <time>2025-05-16T08:57:38Z</time>
      </trkpt>
      <trkpt lat="48.13299" lon="-2.0304">
        <ele>120</ele>
        <time>2025-05-16T08:57:39Z</time>
      </trkpt>
      <trkpt lat="48.13299" lon="-2.03035">
        <ele>120</ele>
        <time>2025-05-16T08:57:40Z</time>
      </trkpt>
      <trkpt lat="48.13298" lon="-2.0303">
        <ele>120</ele>
        <time>2025-05-16T08:57:41Z</time>
      </trkpt>
      <trkpt lat="48.13297" lon="-2.03025">
        <ele>119</ele>
        <time>2025-05-16T08:57:42Z</time>
      </trkpt>
      <trkpt lat="48.13295" lon="-2.03021">
        <ele>119</ele>
        <time>2025-05-16T08:57:43Z</time>
      </trkpt>
      <trkpt lat="48.13293" lon="-2.03016">
        <ele>119</ele>
        <time>2025-05-16T08:57:44Z</time>
      </trkpt>
      <trkpt lat="48.13291" lon="-2.03012">
        <ele>119</ele>
        <time>2025-05-16T08:57:45Z</time>
      </trkpt>
      <trkpt lat="48.13289" lon="-2.03007">
        <ele>119</ele>
        <time>2025-05-16T08:57:46Z</time>
      </trkpt>
      <trkpt lat="48.13288" lon="-2.03002">
        <ele>119</ele>
        <time>2025-05-16T08:57:47Z</time>
      </trkpt>
      <trkpt lat="48.13286" lon="-2.02998">
        <ele>119</ele>
        <time>2025-05-16T08:57:48Z</time>
      </trkpt>
      <trkpt lat="48.13284" lon="-2.02995">
        <ele>119</ele>
        <time>2025-05-16T08:57:49Z</time>
      </trkpt>
      <trkpt lat="48.13282" lon="-2.02991">
        <ele>119</ele>
        <time>2025-05-16T08:57:50Z</time>
      </trkpt>
      <trkpt lat="48.13281" lon="-2.02987">
        <ele>119</ele>
        <time>2025-05-16T08:57:51Z</time>
      </trkpt>
      <trkpt lat="48.13279" lon="-2.02983">
        <ele>119</ele>
        <time>2025-05-16T08:57:52Z</time>
      </trkpt>
      <trkpt lat="48.13278" lon="-2.02979">
        <ele>119</ele>
        <time>2025-05-16T08:57:53Z</time>
      </trkpt>
      <trkpt lat="48.13276" lon="-2.02975">
        <ele>119</ele>
        <time>2025-05-16T08:57:54Z</time>
      </trkpt>
      <trkpt lat="48.13274" lon="-2.02971">
        <ele>119</ele>
        <time>2025-05-16T08:57:55Z</time>
      </trkpt>
      <trkpt lat="48.13273" lon="-2.02966">
        <ele>118</ele>
        <time>2025-05-16T08:57:56Z</time>
      </trkpt>
      <trkpt lat="48.13272" lon="-2.02961">
        <ele>118</ele>
        <time>2025-05-16T08:57:57Z</time>
      </trkpt>
      <trkpt lat="48.1327" lon="-2.02956">
        <ele>118</ele>
        <time>2025-05-16T08:57:58Z</time>
      </trkpt>
      <trkpt lat="48.13268" lon="-2.02951">
        <ele>118</ele>
        <time>2025-05-16T08:57:59Z</time>
      </trkpt>
      <trkpt lat="48.13266" lon="-2.02946">
        <ele>118</ele>
        <time>2025-05-16T08:58:00Z</time>
      </trkpt>
      <trkpt lat="48.13264" lon="-2.02941">
        <ele>117</ele>
        <time>2025-05-16T08:58:01Z</time>
      </trkpt>
      <trkpt lat="48.13263" lon="-2.02936">
        <ele>117</ele>
        <time>2025-05-16T08:58:02Z</time>
      </trkpt>
      <trkpt lat="48.13261" lon="-2.02932">
        <ele>116</ele>
        <time>2025-05-16T08:58:03Z</time>
      </trkpt>
      <trkpt lat="48.13258" lon="-2.02927">
        <ele>116</ele>
        <time>2025-05-16T08:58:04Z</time>
      </trkpt>
      <trkpt lat="48.13257" lon="-2.0292">
        <ele>116</ele>
        <time>2025-05-16T08:58:05Z</time>
      </trkpt>
      <trkpt lat="48.13257" lon="-2.02913">
        <ele>117</ele>
        <time>2025-05-16T08:58:06Z</time>
      </trkpt>
      <trkpt lat="48.1326" lon="-2.02907">
        <ele>117</ele>
        <time>2025-05-16T08:58:07Z</time>
      </trkpt>
      <trkpt lat="48.13263" lon="-2.02902">
        <ele>117</ele>
        <time>2025-05-16T08:58:08Z</time>
      </trkpt>
      <trkpt lat="48.13266" lon="-2.02897">
        <ele>117</ele>
        <time>2025-05-16T08:58:09Z</time>
      </trkpt>
      <trkpt lat="48.13269" lon="-2.02893">
        <ele>117</ele>
        <time>2025-05-16T08:58:10Z</time>
      </trkpt>
      <trkpt lat="48.13272" lon="-2.02889">
        <ele>117</ele>
        <time>2025-05-16T08:58:11Z</time>
      </trkpt>
      <trkpt lat="48.13274" lon="-2.02884">
        <ele>117</ele>
        <time>2025-05-16T08:58:12Z</time>
      </trkpt>
      <trkpt lat="48.13276" lon="-2.0288">
        <ele>117</ele>
        <time>2025-05-16T08:58:13Z</time>
      </trkpt>
      <trkpt lat="48.13278" lon="-2.02876">
        <ele>117</ele>
        <time>2025-05-16T08:58:14Z</time>
      </trkpt>
      <trkpt lat="48.1328" lon="-2.02871">
        <ele>117</ele>
        <time>2025-05-16T08:58:15Z</time>
      </trkpt>
      <trkpt lat="48.13282" lon="-2.02866">
        <ele>117</ele>
        <time>2025-05-16T08:58:16Z</time>
      </trkpt>
      <trkpt lat="48.13283" lon="-2.02861">
        <ele>117</ele>
        <time>2025-05-16T08:58:17Z</time>
      </trkpt>
      <trkpt lat="48.13285" lon="-2.02856">
        <ele>117</ele>
        <time>2025-05-16T08:58:18Z</time>
      </trkpt>
      <trkpt lat="48.13287" lon="-2.0285">
        <ele>117</ele>
        <time>2025-05-16T08:58:19Z</time>
      </trkpt>
      <trkpt lat="48.13289" lon="-2.02844">
        <ele>117</ele>
        <time>2025-05-16T08:58:20Z</time>
      </trkpt>
      <trkpt lat="48.1329" lon="-2.02839">
        <ele>118</ele>
        <time>2025-05-16T08:58:21Z</time>
      </trkpt>
      <trkpt lat="48.13292" lon="-2.02833">
        <ele>118</ele>
        <time>2025-05-16T08:58:22Z</time>
      </trkpt>
      <trkpt lat="48.13293" lon="-2.02827">
        <ele>118</ele>
        <time>2025-05-16T08:58:23Z</time>
      </trkpt>
      <trkpt lat="48.13294" lon="-2.02821">
        <ele>117</ele>
        <time>2025-05-16T08:58:24Z</time>
      </trkpt>
      <trkpt lat="48.13294" lon="-2.02814">
        <ele>117</ele>
        <time>2025-05-16T08:58:25Z</time>
      </trkpt>
      <trkpt lat="48.13294" lon="-2.02808">
        <ele>117</ele>
        <time>2025-05-16T08:58:26Z</time>
      </trkpt>
      <trkpt lat="48.13293" lon="-2.02801">
        <ele>116</ele>
        <time>2025-05-16T08:58:27Z</time>
      </trkpt>
      <trkpt lat="48.13293" lon="-2.02794">
        <ele>116</ele>
        <time>2025-05-16T08:58:28Z</time>
      </trkpt>
      <trkpt lat="48.13295" lon="-2.02786">
        <ele>116</ele>
        <time>2025-05-16T08:58:29Z</time>
      </trkpt>
      <trkpt lat="48.13297" lon="-2.02778">
        <ele>115</ele>
        <time>2025-05-16T08:58:30Z</time>
      </trkpt>
      <trkpt lat="48.13299" lon="-2.02771">
        <ele>115</ele>
        <time>2025-05-16T08:58:31Z</time>
      </trkpt>
      <trkpt lat="48.13301" lon="-2.02763">
        <ele>115</ele>
        <time>2025-05-16T08:58:32Z</time>
      </trkpt>
      <trkpt lat="48.13303" lon="-2.02755">
        <ele>115</ele>
        <time>2025-05-16T08:58:33Z</time>
      </trkpt>
      <trkpt lat="48.13305" lon="-2.02748">
        <ele>115</ele>
        <time>2025-05-16T08:58:34Z</time>
      </trkpt>
      <trkpt lat="48.13306" lon="-2.0274">
        <ele>114</ele>
        <time>2025-05-16T08:58:35Z</time>
      </trkpt>
      <trkpt lat="48.13308" lon="-2.02732">
        <ele>114</ele>
        <time>2025-05-16T08:58:36Z</time>
      </trkpt>
      <trkpt lat="48.13309" lon="-2.02725">
        <ele>114</ele>
        <time>2025-05-16T08:58:37Z</time>
      </trkpt>
      <trkpt lat="48.1331" lon="-2.02716">
        <ele>114</ele>
        <time>2025-05-16T08:58:38Z</time>
      </trkpt>
      <trkpt lat="48.13312" lon="-2.02708">
        <ele>114</ele>
        <time>2025-05-16T08:58:39Z</time>
      </trkpt>
      <trkpt lat="48.13313" lon="-2.027">
        <ele>113</ele>
        <time>2025-05-16T08:58:40Z</time>
      </trkpt>
      <trkpt lat="48.13314" lon="-2.02691">
        <ele>113</ele>
        <time>2025-05-16T08:58:41Z</time>
      </trkpt>
      <trkpt lat="48.13315" lon="-2.02683">
        <ele>113</ele>
        <time>2025-05-16T08:58:42Z</time>
      </trkpt>
      <trkpt lat="48.13316" lon="-2.02674">
        <ele>113</ele>
        <time>2025-05-16T08:58:43Z</time>
      </trkpt>
      <trkpt lat="48.13319" lon="-2.02667">
        <ele>113</ele>
        <time>2025-05-16T08:58:44Z</time>
      </trkpt>
      <trkpt lat="48.13321" lon="-2.02659">
        <ele>112</ele>
        <time>2025-05-16T08:58:45Z</time>
      </trkpt>
      <trkpt lat="48.13323" lon="-2.0265">
        <ele>112</ele>
        <time>2025-05-16T08:58:46Z</time>
      </trkpt>
      <trkpt lat="48.13324" lon="-2.02641">
        <ele>112</ele>
        <time>2025-05-16T08:58:47Z</time>
      </trkpt>
      <trkpt lat="48.13326" lon="-2.02633">
        <ele>112</ele>
        <time>2025-05-16T08:58:48Z</time>
      </trkpt>
      <trkpt lat="48.13328" lon="-2.02624">
        <ele>112</ele>
        <time>2025-05-16T08:58:49Z</time>
      </trkpt>
      <trkpt lat="48.13329" lon="-2.02615">
        <ele>112</ele>
        <time>2025-05-16T08:58:50Z</time>
      </trkpt>
      <trkpt lat="48.13331" lon="-2.02607">
        <ele>111</ele>
        <time>2025-05-16T08:58:51Z</time>
      </trkpt>
      <trkpt lat="48.13334" lon="-2.02598">
        <ele>111</ele>
        <time>2025-05-16T08:58:52Z</time>
      </trkpt>
      <trkpt lat="48.13337" lon="-2.02589">
        <ele>112</ele>
        <time>2025-05-16T08:58:53Z</time>
      </trkpt>
      <trkpt lat="48.13338" lon="-2.02579">
        <ele>112</ele>
        <time>2025-05-16T08:58:54Z</time>
      </trkpt>
      <trkpt lat="48.1334" lon="-2.02569">
        <ele>111</ele>
        <time>2025-05-16T08:58:55Z</time>
      </trkpt>
      <trkpt lat="48.13341" lon="-2.02559">
        <ele>111</ele>
        <time>2025-05-16T08:58:56Z</time>
      </trkpt>
      <trkpt lat="48.13342" lon="-2.0255">
        <ele>111</ele>
        <time>2025-05-16T08:58:57Z</time>
      </trkpt>
      <trkpt lat="48.13343" lon="-2.0254">
        <ele>110</ele>
        <time>2025-05-16T08:58:58Z</time>
      </trkpt>
      <trkpt lat="48.13342" lon="-2.0253">
        <ele>110</ele>
        <time>2025-05-16T08:58:59Z</time>
      </trkpt>
      <trkpt lat="48.13342" lon="-2.02521">
        <ele>109</ele>
        <time>2025-05-16T08:59:00Z</time>
      </trkpt>
      <trkpt lat="48.13341" lon="-2.02512">
        <ele>109</ele>
        <time>2025-05-16T08:59:01Z</time>
      </trkpt>
      <trkpt lat="48.1334" lon="-2.02503">
        <ele>109</ele>
        <time>2025-05-16T08:59:02Z</time>
      </trkpt>
      <trkpt lat="48.1334" lon="-2.02494">
        <ele>109</ele>
        <time>2025-05-16T08:59:03Z</time>
      </trkpt>
      <trkpt lat="48.13338" lon="-2.02487">
        <ele>109</ele>
        <time>2025-05-16T08:59:04Z</time>
      </trkpt>
      <trkpt lat="48.13335" lon="-2.02481">
        <ele>108</ele>
        <time>2025-05-16T08:59:05Z</time>
      </trkpt>
      <trkpt lat="48.13332" lon="-2.02477">
        <ele>108</ele>
        <time>2025-05-16T08:59:06Z</time>
      </trkpt>
      <trkpt lat="48.1333" lon="-2.02474">
        <ele>108</ele>
        <time>2025-05-16T08:59:07Z</time>
      </trkpt>
      <trkpt lat="48.13328" lon="-2.02472">
        <ele>108</ele>
        <time>2025-05-16T08:59:08Z</time>
      </trkpt>
      <trkpt lat="48.13327" lon="-2.0247">
        <ele>108</ele>
        <time>2025-05-16T08:59:09Z</time>
      </trkpt>
      <trkpt lat="48.13327" lon="-2.02468">
        <ele>108</ele>
        <time>2025-05-16T08:59:10Z</time>
      </trkpt>
      <trkpt lat="48.13329" lon="-2.02468">
        <ele>109</ele>
        <time>2025-05-16T08:59:11Z</time>
      </trkpt>
      <trkpt lat="48.1333" lon="-2.02469">
        <ele>109</ele>
        <time>2025-05-16T08:59:12Z</time>
      </trkpt>
      <trkpt lat="48.13331" lon="-2.02469">
        <ele>110</ele>
        <time>2025-05-16T08:59:13Z</time>
      </trkpt>
      <trkpt lat="48.13331" lon="-2.02469">
        <ele>110</ele>
        <time>2025-05-16T08:59:14Z</time>
      </trkpt>
      <trkpt lat="48.13331" lon="-2.02469">
        <ele>109</ele>
        <time>2025-05-16T08:59:15Z</time>
      </trkpt>
      <trkpt lat="48.13331" lon="-2.02469">
        <ele>109</ele>
        <time>2025-05-16T08:59:16Z</time>
      </trkpt>
      <trkpt lat="48.13331" lon="-2.02469">
        <ele>109</ele>
        <time>2025-05-16T08:59:17Z</time>
      </trkpt>
      <trkpt lat="48.13331" lon="-2.02469">
        <ele>109</ele>
        <time>2025-05-16T08:59:18Z</time>
      </trkpt>
      <trkpt lat="48.13331" lon="-2.02469">
        <ele>109</ele>
        <time>2025-05-16T08:59:19Z</time>
      </trkpt>
      <trkpt lat="48.13331" lon="-2.02469">
        <ele>109</ele>
        <time>2025-05-16T08:59:20Z</time>
      </trkpt>
      <trkpt lat="48.13331" lon="-2.02469">
        <ele>109</ele>
        <time>2025-05-16T08:59:21Z</time>
      </trkpt>
      <trkpt lat="48.13331" lon="-2.02469">
        <ele>109</ele>
        <time>2025-05-16T08:59:22Z</time>
      </trkpt>
      <trkpt lat="48.13331" lon="-2.02469">
        <ele>109</ele>
        <time>2025-05-16T08:59:23Z</time>
      </trkpt>
      <trkpt lat="48.13331" lon="-2.02469">
        <ele>109</ele>
        <time>2025-05-16T08:59:24Z</time>
      </trkpt>
      <trkpt lat="48.13331" lon="-2.02469">
        <ele>109</ele>
        <time>2025-05-16T08:59:25Z</time>
      </trkpt>
      <trkpt lat="48.13331" lon="-2.02469">
        <ele>109</ele>
        <time>2025-05-16T08:59:26Z</time>
      </trkpt>
      <trkpt lat="48.13331" lon="-2.02469">
        <ele>109</ele>
        <time>2025-05-16T08:59:27Z</time>
      </trkpt>
      <trkpt lat="48.13331" lon="-2.02469">
        <ele>109</ele>
        <time>2025-05-16T08:59:28Z</time>
      </trkpt>
      <trkpt lat="48.13331" lon="-2.02469">
        <ele>109</ele>
        <time>2025-05-16T08:59:29Z</time>
      </trkpt>
      <trkpt lat="48.13331" lon="-2.02469">
        <ele>109</ele>
        <time>2025-05-16T08:59:30Z</time>
      </trkpt>
      <trkpt lat="48.13331" lon="-2.02469">
        <ele>109</ele>
        <time>2025-05-16T08:59:31Z</time>
      </trkpt>
      <trkpt lat="48.1333" lon="-2.02468">
        <ele>110</ele>
        <time>2025-05-16T08:59:32Z</time>
      </trkpt>
      <trkpt lat="48.13331" lon="-2.02466">
        <ele>110</ele>
        <time>2025-05-16T08:59:33Z</time>
      </trkpt>
      <trkpt lat="48.13331" lon="-2.02464">
        <ele>110</ele>
        <time>2025-05-16T08:59:34Z</time>
      </trkpt>
      <trkpt lat="48.13331" lon="-2.02462">
        <ele>110</ele>
        <time>2025-05-16T08:59:35Z</time>
      </trkpt>
      <trkpt lat="48.13331" lon="-2.0246">
        <ele>109</ele>
        <time>2025-05-16T08:59:36Z</time>
      </trkpt>
      <trkpt lat="48.13332" lon="-2.02459">
        <ele>109</ele>
        <time>2025-05-16T08:59:37Z</time>
      </trkpt>
      <trkpt lat="48.13332" lon="-2.02458">
        <ele>109</ele>
        <time>2025-05-16T08:59:38Z</time>
      </trkpt>
      <trkpt lat="48.13332" lon="-2.02456">
        <ele>109</ele>
        <time>2025-05-16T08:59:39Z</time>
      </trkpt>
      <trkpt lat="48.13333" lon="-2.02455">
        <ele>109</ele>
        <time>2025-05-16T08:59:40Z</time>
      </trkpt>
      <trkpt lat="48.13333" lon="-2.02453">
        <ele>109</ele>
        <time>2025-05-16T08:59:41Z</time>
      </trkpt>
      <trkpt lat="48.13333" lon="-2.02452">
        <ele>109</ele>
        <time>2025-05-16T08:59:42Z</time>
      </trkpt>
      <trkpt lat="48.13333" lon="-2.02452">
        <ele>109</ele>
        <time>2025-05-16T08:59:43Z</time>
      </trkpt>
      <trkpt lat="48.13333" lon="-2.02452">
        <ele>109</ele>
        <time>2025-05-16T08:59:44Z</time>
      </trkpt>
      <trkpt lat="48.13333" lon="-2.02452">
        <ele>109</ele>
        <time>2025-05-16T08:59:45Z</time>
      </trkpt>
      <trkpt lat="48.13333" lon="-2.02452">
        <ele>109</ele>
        <time>2025-05-16T08:59:46Z</time>
      </trkpt>
      <trkpt lat="48.13333" lon="-2.02452">
        <ele>109</ele>
        <time>2025-05-16T08:59:47Z</time>
      </trkpt>
      <trkpt lat="48.13333" lon="-2.02452">
        <ele>109</ele>
        <time>2025-05-16T08:59:48Z</time>
      </trkpt>
      <trkpt lat="48.13333" lon="-2.02452">
        <ele>109</ele>
        <time>2025-05-16T08:59:49Z</time>
      </trkpt>
      <trkpt lat="48.13333" lon="-2.02452">
        <ele>109</ele>
        <time>2025-05-16T08:59:50Z</time>
      </trkpt>
      <trkpt lat="48.13333" lon="-2.02452">
        <ele>109</ele>
        <time>2025-05-16T08:59:51Z</time>
      </trkpt>
      <trkpt lat="48.13333" lon="-2.02452">
        <ele>109</ele>
        <time>2025-05-16T08:59:52Z</time>
      </trkpt>
      <trkpt lat="48.13336" lon="-2.02451">
        <ele>109</ele>
        <time>2025-05-16T08:59:53Z</time>
      </trkpt>
      <trkpt lat="48.13338" lon="-2.0245">
        <ele>109</ele>
        <time>2025-05-16T08:59:54Z</time>
      </trkpt>
      <trkpt lat="48.1334" lon="-2.0245">
        <ele>109</ele>
        <time>2025-05-16T08:59:55Z</time>
      </trkpt>
      <trkpt lat="48.13342" lon="-2.02451">
        <ele>109</ele>
        <time>2025-05-16T08:59:56Z</time>
      </trkpt>
      <trkpt lat="48.13344" lon="-2.02451">
        <ele>109</ele>
        <time>2025-05-16T08:59:57Z</time>
      </trkpt>
      <trkpt lat="48.13346" lon="-2.02452">
        <ele>109</ele>
        <time>2025-05-16T08:59:58Z</time>
      </trkpt>
      <trkpt lat="48.13347" lon="-2.02452">
        <ele>109</ele>
        <time>2025-05-16T08:59:59Z</time>
      </trkpt>
      <trkpt lat="48.13347" lon="-2.02453">
        <ele>109</ele>
        <time>2025-05-16T09:00:00Z</time>
      </trkpt>
      <trkpt lat="48.13347" lon="-2.02452">
        <ele>109</ele>
        <time>2025-05-16T09:00:01Z</time>
      </trkpt>
      <trkpt lat="48.13346" lon="-2.02452">
        <ele>109</ele>
        <time>2025-05-16T09:00:02Z</time>
      </trkpt>
      <trkpt lat="48.13346" lon="-2.02452">
        <ele>109</ele>
        <time>2025-05-16T09:00:03Z</time>
      </trkpt>
      <trkpt lat="48.13346" lon="-2.02452">
        <ele>109</ele>
        <time>2025-05-16T09:00:04Z</time>
      </trkpt>
      <trkpt lat="48.13346" lon="-2.02452">
        <ele>109</ele>
        <time>2025-05-16T09:00:05Z</time>
      </trkpt>
      <trkpt lat="48.13346" lon="-2.02452">
        <ele>109</ele>
        <time>2025-05-16T09:00:06Z</time>
      </trkpt>
      <trkpt lat="48.13342" lon="-2.02452">
        <ele>109</ele>
        <time>2025-05-16T09:00:07Z</time>
      </trkpt>
      <trkpt lat="48.1334" lon="-2.02452">
        <ele>109</ele>
        <time>2025-05-16T09:00:08Z</time>
      </trkpt>
      <trkpt lat="48.13339" lon="-2.02451">
        <ele>109</ele>
        <time>2025-05-16T09:00:09Z</time>
      </trkpt>
      <trkpt lat="48.13337" lon="-2.02451">
        <ele>108</ele>
        <time>2025-05-16T09:00:10Z</time>
      </trkpt>
      <trkpt lat="48.13335" lon="-2.0245">
        <ele>108</ele>
        <time>2025-05-16T09:00:11Z</time>
      </trkpt>
      <trkpt lat="48.13332" lon="-2.02449">
        <ele>108</ele>
        <time>2025-05-16T09:00:12Z</time>
      </trkpt>
      <trkpt lat="48.1333" lon="-2.02449">
        <ele>108</ele>
        <time>2025-05-16T09:00:13Z</time>
      </trkpt>
      <trkpt lat="48.13327" lon="-2.02449">
        <ele>109</ele>
        <time>2025-05-16T09:00:14Z</time>
      </trkpt>
      <trkpt lat="48.13324" lon="-2.02448">
        <ele>109</ele>
        <time>2025-05-16T09:00:15Z</time>
      </trkpt>
      <trkpt lat="48.13322" lon="-2.02448">
        <ele>109</ele>
        <time>2025-05-16T09:00:16Z</time>
      </trkpt>
      <trkpt lat="48.13319" lon="-2.02447">
        <ele>109</ele>
        <time>2025-05-16T09:00:17Z</time>
      </trkpt>
      <trkpt lat="48.13317" lon="-2.02446">
        <ele>109</ele>
        <time>2025-05-16T09:00:18Z</time>
      </trkpt>
      <trkpt lat="48.13314" lon="-2.02446">
        <ele>109</ele>
        <time>2025-05-16T09:00:19Z</time>
      </trkpt>
      <trkpt lat="48.13312" lon="-2.02445">
        <ele>109</ele>
        <time>2025-05-16T09:00:20Z</time>
      </trkpt>
      <trkpt lat="48.13309" lon="-2.02445">
        <ele>109</ele>
        <time>2025-05-16T09:00:21Z</time>
      </trkpt>
      <trkpt lat="48.13306" lon="-2.02445">
        <ele>108</ele>
        <time>2025-05-16T09:00:22Z</time>
      </trkpt>
      <trkpt lat="48.13304" lon="-2.02445">
        <ele>108</ele>
        <time>2025-05-16T09:00:23Z</time>
      </trkpt>
      <trkpt lat="48.13301" lon="-2.02444">
        <ele>108</ele>
        <time>2025-05-16T09:00:24Z</time>
      </trkpt>
      <trkpt lat="48.13298" lon="-2.02444">
        <ele>108</ele>
        <time>2025-05-16T09:00:25Z</time>
      </trkpt>
      <trkpt lat="48.13296" lon="-2.02443">
        <ele>108</ele>
        <time>2025-05-16T09:00:26Z</time>
      </trkpt>
      <trkpt lat="48.13293" lon="-2.02442">
        <ele>108</ele>
        <time>2025-05-16T09:00:27Z</time>
      </trkpt>
      <trkpt lat="48.13291" lon="-2.02441">
        <ele>108</ele>
        <time>2025-05-16T09:00:28Z</time>
      </trkpt>
      <trkpt lat="48.1329" lon="-2.0244">
        <ele>108</ele>
        <time>2025-05-16T09:00:29Z</time>
      </trkpt>
      <trkpt lat="48.13287" lon="-2.0244">
        <ele>109</ele>
        <time>2025-05-16T09:00:30Z</time>
      </trkpt>
      <trkpt lat="48.13285" lon="-2.0244">
        <ele>109</ele>
        <time>2025-05-16T09:00:31Z</time>
      </trkpt>
      <trkpt lat="48.13282" lon="-2.02439">
        <ele>109</ele>
        <time>2025-05-16T09:00:32Z</time>
      </trkpt>
      <trkpt lat="48.13279" lon="-2.02438">
        <ele>109</ele>
        <time>2025-05-16T09:00:33Z</time>
      </trkpt>
      <trkpt lat="48.13276" lon="-2.02438">
        <ele>109</ele>
        <time>2025-05-16T09:00:34Z</time>
      </trkpt>
      <trkpt lat="48.13272" lon="-2.02437">
        <ele>108</ele>
        <time>2025-05-16T09:00:35Z</time>
      </trkpt>
      <trkpt lat="48.13268" lon="-2.02437">
        <ele>108</ele>
        <time>2025-05-16T09:00:36Z</time>
      </trkpt>
      <trkpt lat="48.13265" lon="-2.02436">
        <ele>107</ele>
        <time>2025-05-16T09:00:37Z</time>
      </trkpt>
      <trkpt lat="48.13261" lon="-2.02435">
        <ele>106</ele>
        <time>2025-05-16T09:00:38Z</time>
      </trkpt>
      <trkpt lat="48.13258" lon="-2.02434">
        <ele>106</ele>
        <time>2025-05-16T09:00:39Z</time>
      </trkpt>
      <trkpt lat="48.13255" lon="-2.02433">
        <ele>105</ele>
        <time>2025-05-16T09:00:40Z</time>
      </trkpt>
      <trkpt lat="48.13253" lon="-2.02431">
        <ele>105</ele>
        <time>2025-05-16T09:00:41Z</time>
      </trkpt>
      <trkpt lat="48.13252" lon="-2.02427">
        <ele>104</ele>
        <time>2025-05-16T09:00:42Z</time>
      </trkpt>
      <trkpt lat="48.13251" lon="-2.02424">
        <ele>104</ele>
        <time>2025-05-16T09:00:43Z</time>
      </trkpt>
      <trkpt lat="48.13251" lon="-2.02419">
        <ele>104</ele>
        <time>2025-05-16T09:00:44Z</time>
      </trkpt>
      <trkpt lat="48.13251" lon="-2.02414">
        <ele>104</ele>
        <time>2025-05-16T09:00:45Z</time>
      </trkpt>
      <trkpt lat="48.13251" lon="-2.02409">
        <ele>104</ele>
        <time>2025-05-16T09:00:46Z</time>
      </trkpt>
      <trkpt lat="48.13251" lon="-2.02404">
        <ele>104</ele>
        <time>2025-05-16T09:00:47Z</time>
      </trkpt>
      <trkpt lat="48.1325" lon="-2.02399">
        <ele>104</ele>
        <time>2025-05-16T09:00:48Z</time>
      </trkpt>
      <trkpt lat="48.1325" lon="-2.02393">
        <ele>104</ele>
        <time>2025-05-16T09:00:49Z</time>
      </trkpt>
      <trkpt lat="48.13249" lon="-2.02386">
        <ele>104</ele>
        <time>2025-05-16T09:00:50Z</time>
      </trkpt>
      <trkpt lat="48.13249" lon="-2.02381">
        <ele>104</ele>
        <time>2025-05-16T09:00:51Z</time>
      </trkpt>
      <trkpt lat="48.13248" lon="-2.02375">
        <ele>104</ele>
        <time>2025-05-16T09:00:52Z</time>
      </trkpt>
      <trkpt lat="48.13247" lon="-2.0237">
        <ele>104</ele>
        <time>2025-05-16T09:00:53Z</time>
      </trkpt>
      <trkpt lat="48.13246" lon="-2.02364">
        <ele>103</ele>
        <time>2025-05-16T09:00:54Z</time>
      </trkpt>
      <trkpt lat="48.13246" lon="-2.0236">
        <ele>103</ele>
        <time>2025-05-16T09:00:55Z</time>
      </trkpt>
      <trkpt lat="48.13245" lon="-2.02354">
        <ele>102</ele>
        <time>2025-05-16T09:00:56Z</time>
      </trkpt>
      <trkpt lat="48.13244" lon="-2.02349">
        <ele>102</ele>
        <time>2025-05-16T09:00:57Z</time>
      </trkpt>
      <trkpt lat="48.13244" lon="-2.02345">
        <ele>101</ele>
        <time>2025-05-16T09:00:58Z</time>
      </trkpt>
      <trkpt lat="48.13243" lon="-2.0234">
        <ele>100</ele>
        <time>2025-05-16T09:00:59Z</time>
      </trkpt>
      <trkpt lat="48.13242" lon="-2.02334">
        <ele>100</ele>
        <time>2025-05-16T09:01:00Z</time>
      </trkpt>
      <trkpt lat="48.13242" lon="-2.02329">
        <ele>100</ele>
        <time>2025-05-16T09:01:01Z</time>
      </trkpt>
      <trkpt lat="48.13242" lon="-2.02323">
        <ele>100</ele>
        <time>2025-05-16T09:01:02Z</time>
      </trkpt>
      <trkpt lat="48.13241" lon="-2.02317">
        <ele>100</ele>
        <time>2025-05-16T09:01:03Z</time>
      </trkpt>
      <trkpt lat="48.13241" lon="-2.02312">
        <ele>100</ele>
        <time>2025-05-16T09:01:04Z</time>
      </trkpt>
      <trkpt lat="48.1324" lon="-2.02306">
        <ele>101</ele>
        <time>2025-05-16T09:01:05Z</time>
      </trkpt>
      <trkpt lat="48.1324" lon="-2.02301">
        <ele>101</ele>
        <time>2025-05-16T09:01:06Z</time>
      </trkpt>
      <trkpt lat="48.13239" lon="-2.02295">
        <ele>101</ele>
        <time>2025-05-16T09:01:07Z</time>
      </trkpt>
      <trkpt lat="48.13239" lon="-2.02289">
        <ele>101</ele>
        <time>2025-05-16T09:01:08Z</time>
      </trkpt>
      <trkpt lat="48.13238" lon="-2.02284">
        <ele>101</ele>
        <time>2025-05-16T09:01:09Z</time>
      </trkpt>
      <trkpt lat="48.13237" lon="-2.02279">
        <ele>101</ele>
        <time>2025-05-16T09:01:10Z</time>
      </trkpt>
      <trkpt lat="48.13236" lon="-2.02273">
        <ele>100</ele>
        <time>2025-05-16T09:01:11Z</time>
      </trkpt>
      <trkpt lat="48.13234" lon="-2.02268">
        <ele>100</ele>
        <time>2025-05-16T09:01:12Z</time>
      </trkpt>
      <trkpt lat="48.13233" lon="-2.02264">
        <ele>100</ele>
        <time>2025-05-16T09:01:13Z</time>
      </trkpt>
      <trkpt lat="48.13231" lon="-2.02261">
        <ele>100</ele>
        <time>2025-05-16T09:01:14Z</time>
      </trkpt>
      <trkpt lat="48.13229" lon="-2.02258">
        <ele>100</ele>
        <time>2025-05-16T09:01:15Z</time>
      </trkpt>
      <trkpt lat="48.13227" lon="-2.02256">
        <ele>100</ele>
        <time>2025-05-16T09:01:16Z</time>
      </trkpt>
      <trkpt lat="48.13225" lon="-2.02255">
        <ele>100</ele>
        <time>2025-05-16T09:01:17Z</time>
      </trkpt>
      <trkpt lat="48.13222" lon="-2.02254">
        <ele>100</ele>
        <time>2025-05-16T09:01:18Z</time>
      </trkpt>
      <trkpt lat="48.1322" lon="-2.02254">
        <ele>100</ele>
        <time>2025-05-16T09:01:19Z</time>
      </trkpt>
      <trkpt lat="48.13219" lon="-2.02253">
        <ele>99</ele>
        <time>2025-05-16T09:01:20Z</time>
      </trkpt>
      <trkpt lat="48.13219" lon="-2.02253">
        <ele>99</ele>
        <time>2025-05-16T09:01:21Z</time>
      </trkpt>
      <trkpt lat="48.13218" lon="-2.02253">
        <ele>99</ele>
        <time>2025-05-16T09:01:22Z</time>
      </trkpt>
      <trkpt lat="48.13218" lon="-2.02253">
        <ele>99</ele>
        <time>2025-05-16T09:01:23Z</time>
      </trkpt>
      <trkpt lat="48.13218" lon="-2.02253">
        <ele>99</ele>
        <time>2025-05-16T09:01:24Z</time>
      </trkpt>
      <trkpt lat="48.13218" lon="-2.02253">
        <ele>99</ele>
        <time>2025-05-16T09:01:25Z</time>
      </trkpt>
      <trkpt lat="48.13218" lon="-2.02253">
        <ele>99</ele>
        <time>2025-05-16T09:01:26Z</time>
      </trkpt>
      <trkpt lat="48.13219" lon="-2.02249">
        <ele>99</ele>
        <time>2025-05-16T09:01:27Z</time>
      </trkpt>
      <trkpt lat="48.13219" lon="-2.02247">
        <ele>98</ele>
        <time>2025-05-16T09:01:28Z</time>
      </trkpt>
      <trkpt lat="48.13219" lon="-2.02246">
        <ele>98</ele>
        <time>2025-05-16T09:01:29Z</time>
      </trkpt>
      <trkpt lat="48.13219" lon="-2.02246">
        <ele>98</ele>
        <time>2025-05-16T09:01:30Z</time>
      </trkpt>
      <trkpt lat="48.13219" lon="-2.02246">
        <ele>98</ele>
        <time>2025-05-16T09:01:31Z</time>
      </trkpt>
      <trkpt lat="48.13219" lon="-2.02246">
        <ele>98</ele>
        <time>2025-05-16T09:01:32Z</time>
      </trkpt>
      <trkpt lat="48.13219" lon="-2.02246">
        <ele>98</ele>
        <time>2025-05-16T09:01:33Z</time>
      </trkpt>
      <trkpt lat="48.13219" lon="-2.02246">
        <ele>98</ele>
        <time>2025-05-16T09:01:34Z</time>
      </trkpt>
      <trkpt lat="48.13219" lon="-2.02246">
        <ele>98</ele>
        <time>2025-05-16T09:01:35Z</time>
      </trkpt>
      <trkpt lat="48.13219" lon="-2.02246">
        <ele>98</ele>
        <time>2025-05-16T09:01:36Z</time>
      </trkpt>
      <trkpt lat="48.13219" lon="-2.02246">
        <ele>98</ele>
        <time>2025-05-16T09:01:37Z</time>
      </trkpt>
      <trkpt lat="48.13219" lon="-2.02246">
        <ele>98</ele>
        <time>2025-05-16T09:01:38Z</time>
      </trkpt>
      <trkpt lat="48.13219" lon="-2.02246">
        <ele>98</ele>
        <time>2025-05-16T09:01:39Z</time>
      </trkpt>
      <trkpt lat="48.13219" lon="-2.02246">
        <ele>98</ele>
        <time>2025-05-16T09:01:40Z</time>
      </trkpt>
      <trkpt lat="48.13219" lon="-2.02246">
        <ele>98</ele>
        <time>2025-05-16T09:01:41Z</time>
      </trkpt>
      <trkpt lat="48.13219" lon="-2.02246">
        <ele>98</ele>
        <time>2025-05-16T09:01:42Z</time>
      </trkpt>
      <trkpt lat="48.13219" lon="-2.02246">
        <ele>98</ele>
        <time>2025-05-16T09:01:43Z</time>
      </trkpt>
      <trkpt lat="48.13219" lon="-2.02246">
        <ele>98</ele>
        <time>2025-05-16T09:01:44Z</time>
      </trkpt>
      <trkpt lat="48.13219" lon="-2.02246">
        <ele>98</ele>
        <time>2025-05-16T09:01:45Z</time>
      </trkpt>
      <trkpt lat="48.13219" lon="-2.02246">
        <ele>98</ele>
        <time>2025-05-16T09:01:46Z</time>
      </trkpt>
      <trkpt lat="48.13219" lon="-2.02246">
        <ele>98</ele>
        <time>2025-05-16T09:01:47Z</time>
      </trkpt>
      <trkpt lat="48.13219" lon="-2.02246">
        <ele>98</ele>
        <time>2025-05-16T09:01:48Z</time>
      </trkpt>
      <trkpt lat="48.13219" lon="-2.02246">
        <ele>98</ele>
        <time>2025-05-16T09:01:49Z</time>
      </trkpt>
      <trkpt lat="48.13219" lon="-2.02246">
        <ele>98</ele>
        <time>2025-05-16T09:01:50Z</time>
      </trkpt>
      <trkpt lat="48.13219" lon="-2.02246">
        <ele>98</ele>
        <time>2025-05-16T09:01:51Z</time>
      </trkpt>
      <trkpt lat="48.13219" lon="-2.02246">
        <ele>98</ele>
        <time>2025-05-16T09:01:52Z</time>
      </trkpt>
      <trkpt lat="48.13219" lon="-2.02246">
        <ele>98</ele>
        <time>2025-05-16T09:01:53Z</time>
      </trkpt>
      <trkpt lat="48.13219" lon="-2.02246">
        <ele>98</ele>
        <time>2025-05-16T09:01:54Z</time>
      </trkpt>
      <trkpt lat="48.13219" lon="-2.02246">
        <ele>98</ele>
        <time>2025-05-16T09:01:55Z</time>
      </trkpt>
      <trkpt lat="48.13219" lon="-2.02246">
        <ele>98</ele>
        <time>2025-05-16T09:01:56Z</time>
      </trkpt>
      <trkpt lat="48.13219" lon="-2.02246">
        <ele>98</ele>
        <time>2025-05-16T09:01:57Z</time>
      </trkpt>
      <trkpt lat="48.13219" lon="-2.02246">
        <ele>98</ele>
        <time>2025-05-16T09:01:58Z</time>
      </trkpt>
      <trkpt lat="48.13219" lon="-2.02246">
        <ele>98</ele>
        <time>2025-05-16T09:01:59Z</time>
      </trkpt>
      <trkpt lat="48.13219" lon="-2.02246">
        <ele>98</ele>
        <time>2025-05-16T09:02:00Z</time>
      </trkpt>
      <trkpt lat="48.13219" lon="-2.02246">
        <ele>98</ele>
        <time>2025-05-16T09:02:01Z</time>
      </trkpt>
      <trkpt lat="48.13219" lon="-2.02246">
        <ele>98</ele>
        <time>2025-05-16T09:02:02Z</time>
      </trkpt>
      <trkpt lat="48.13219" lon="-2.02246">
        <ele>98</ele>
        <time>2025-05-16T09:02:03Z</time>
      </trkpt>
      <trkpt lat="48.13219" lon="-2.02246">
        <ele>98</ele>
        <time>2025-05-16T09:02:04Z</time>
      </trkpt>
      <trkpt lat="48.13219" lon="-2.02246">
        <ele>98</ele>
        <time>2025-05-16T09:02:05Z</time>
      </trkpt>
      <trkpt lat="48.13219" lon="-2.02246">
        <ele>98</ele>
        <time>2025-05-16T09:02:06Z</time>
      </trkpt>
      <trkpt lat="48.13219" lon="-2.02246">
        <ele>98</ele>
        <time>2025-05-16T09:02:07Z</time>
      </trkpt>
      <trkpt lat="48.13219" lon="-2.02246">
        <ele>98</ele>
        <time>2025-05-16T09:02:08Z</time>
      </trkpt>
      <trkpt lat="48.13219" lon="-2.02246">
        <ele>98</ele>
        <time>2025-05-16T09:02:09Z</time>
      </trkpt>
      <trkpt lat="48.13219" lon="-2.02246">
        <ele>98</ele>
        <time>2025-05-16T09:02:10Z</time>
      </trkpt>
      <trkpt lat="48.13219" lon="-2.02246">
        <ele>98</ele>
        <time>2025-05-16T09:02:11Z</time>
      </trkpt>
      <trkpt lat="48.13219" lon="-2.02246">
        <ele>98</ele>
        <time>2025-05-16T09:02:12Z</time>
      </trkpt>
      <trkpt lat="48.13219" lon="-2.02246">
        <ele>98</ele>
        <time>2025-05-16T09:02:13Z</time>
      </trkpt>
      <trkpt lat="48.13219" lon="-2.02246">
        <ele>98</ele>
        <time>2025-05-16T09:02:14Z</time>
      </trkpt>
      <trkpt lat="48.13219" lon="-2.02246">
        <ele>98</ele>
        <time>2025-05-16T09:02:15Z</time>
      </trkpt>
      <trkpt lat="48.13219" lon="-2.02246">
        <ele>98</ele>
        <time>2025-05-16T09:02:16Z</time>
      </trkpt>
      <trkpt lat="48.13219" lon="-2.02246">
        <ele>98</ele>
        <time>2025-05-16T09:02:17Z</time>
      </trkpt>
      <trkpt lat="48.13219" lon="-2.02246">
        <ele>98</ele>
        <time>2025-05-16T09:02:18Z</time>
      </trkpt>
      <trkpt lat="48.13219" lon="-2.02246">
        <ele>98</ele>
        <time>2025-05-16T09:02:19Z</time>
      </trkpt>
      <trkpt lat="48.13219" lon="-2.02246">
        <ele>98</ele>
        <time>2025-05-16T09:02:20Z</time>
      </trkpt>
      <trkpt lat="48.13219" lon="-2.02246">
        <ele>98</ele>
        <time>2025-05-16T09:02:21Z</time>
      </trkpt>
      <trkpt lat="48.13219" lon="-2.02246">
        <ele>98</ele>
        <time>2025-05-16T09:02:22Z</time>
      </trkpt>
      <trkpt lat="48.13219" lon="-2.02246">
        <ele>98</ele>
        <time>2025-05-16T09:02:23Z</time>
      </trkpt>
      <trkpt lat="48.13219" lon="-2.02246">
        <ele>98</ele>
        <time>2025-05-16T09:02:24Z</time>
      </trkpt>
      <trkpt lat="48.13219" lon="-2.02246">
        <ele>98</ele>
        <time>2025-05-16T09:02:25Z</time>
      </trkpt>
      <trkpt lat="48.13219" lon="-2.02246">
        <ele>98</ele>
        <time>2025-05-16T09:02:26Z</time>
      </trkpt>
      <trkpt lat="48.13219" lon="-2.02246">
        <ele>98</ele>
        <time>2025-05-16T09:02:27Z</time>
      </trkpt>
      <trkpt lat="48.13219" lon="-2.02246">
        <ele>98</ele>
        <time>2025-05-16T09:02:28Z</time>
      </trkpt>
      <trkpt lat="48.13219" lon="-2.02246">
        <ele>98</ele>
        <time>2025-05-16T09:02:29Z</time>
      </trkpt>
      <trkpt lat="48.13219" lon="-2.02246">
        <ele>98</ele>
        <time>2025-05-16T09:02:30Z</time>
      </trkpt>
      <trkpt lat="48.13219" lon="-2.02246">
        <ele>98</ele>
        <time>2025-05-16T09:02:31Z</time>
      </trkpt>
      <trkpt lat="48.13219" lon="-2.02246">
        <ele>98</ele>
        <time>2025-05-16T09:02:32Z</time>
      </trkpt>
      <trkpt lat="48.13219" lon="-2.02246">
        <ele>98</ele>
        <time>2025-05-16T09:02:33Z</time>
      </trkpt>
      <trkpt lat="48.13219" lon="-2.02246">
        <ele>98</ele>
        <time>2025-05-16T09:02:34Z</time>
      </trkpt>
      <trkpt lat="48.13219" lon="-2.02246">
        <ele>98</ele>
        <time>2025-05-16T09:02:35Z</time>
      </trkpt>
      <trkpt lat="48.13219" lon="-2.02246">
        <ele>98</ele>
        <time>2025-05-16T09:02:36Z</time>
      </trkpt>
      <trkpt lat="48.13194" lon="-2.02231">
        <ele>100</ele>
        <time>2025-05-16T09:04:31Z</time>
      </trkpt>
      <trkpt lat="48.13192" lon="-2.0223">
        <ele>100</ele>
        <time>2025-05-16T09:04:32Z</time>
      </trkpt>
      <trkpt lat="48.1319" lon="-2.02228">
        <ele>100</ele>
        <time>2025-05-16T09:04:33Z</time>
      </trkpt>
      <trkpt lat="48.13188" lon="-2.02225">
        <ele>99</ele>
        <time>2025-05-16T09:04:34Z</time>
      </trkpt>
      <trkpt lat="48.13188" lon="-2.02221">
        <ele>98</ele>
        <time>2025-05-16T09:04:35Z</time>
      </trkpt>
      <trkpt lat="48.13188" lon="-2.02218">
        <ele>98</ele>
        <time>2025-05-16T09:04:36Z</time>
      </trkpt>
      <trkpt lat="48.1319" lon="-2.02214">
        <ele>98</ele>
        <time>2025-05-16T09:04:37Z</time>
      </trkpt>
      <trkpt lat="48.13191" lon="-2.02211">
        <ele>98</ele>
        <time>2025-05-16T09:04:38Z</time>
      </trkpt>
      <trkpt lat="48.13192" lon="-2.02208">
        <ele>98</ele>
        <time>2025-05-16T09:04:39Z</time>
      </trkpt>
      <trkpt lat="48.13193" lon="-2.02205">
        <ele>98</ele>
        <time>2025-05-16T09:04:40Z</time>
      </trkpt>
      <trkpt lat="48.13193" lon="-2.02202">
        <ele>98</ele>
        <time>2025-05-16T09:04:41Z</time>
      </trkpt>
      <trkpt lat="48.13194" lon="-2.02197">
        <ele>98</ele>
        <time>2025-05-16T09:04:42Z</time>
      </trkpt>
      <trkpt lat="48.13194" lon="-2.02193">
        <ele>98</ele>
        <time>2025-05-16T09:04:43Z</time>
      </trkpt>
      <trkpt lat="48.13195" lon="-2.0219">
        <ele>98</ele>
        <time>2025-05-16T09:04:44Z</time>
      </trkpt>
      <trkpt lat="48.13196" lon="-2.02187">
        <ele>98</ele>
        <time>2025-05-16T09:04:45Z</time>
      </trkpt>
      <trkpt lat="48.13197" lon="-2.02183">
        <ele>98</ele>
        <time>2025-05-16T09:04:46Z</time>
      </trkpt>
      <trkpt lat="48.13198" lon="-2.02179">
        <ele>99</ele>
        <time>2025-05-16T09:04:47Z</time>
      </trkpt>
      <trkpt lat="48.13199" lon="-2.02175">
        <ele>99</ele>
        <time>2025-05-16T09:04:48Z</time>
      </trkpt>
      <trkpt lat="48.132" lon="-2.02171">
        <ele>99</ele>
        <time>2025-05-16T09:04:49Z</time>
      </trkpt>
      <trkpt lat="48.13201" lon="-2.02167">
        <ele>98</ele>
        <time>2025-05-16T09:04:50Z</time>
      </trkpt>
      <trkpt lat="48.13202" lon="-2.02162">
        <ele>98</ele>
        <time>2025-05-16T09:04:51Z</time>
      </trkpt>
      <trkpt lat="48.13202" lon="-2.02158">
        <ele>98</ele>
        <time>2025-05-16T09:04:52Z</time>
      </trkpt>
      <trkpt lat="48.13203" lon="-2.02153">
        <ele>98</ele>
        <time>2025-05-16T09:04:53Z</time>
      </trkpt>
      <trkpt lat="48.13204" lon="-2.02149">
        <ele>98</ele>
        <time>2025-05-16T09:04:54Z</time>
      </trkpt>
      <trkpt lat="48.13205" lon="-2.02144">
        <ele>98</ele>
        <time>2025-05-16T09:04:55Z</time>
      </trkpt>
      <trkpt lat="48.13206" lon="-2.02139">
        <ele>97</ele>
        <time>2025-05-16T09:04:56Z</time>
      </trkpt>
      <trkpt lat="48.13206" lon="-2.02135">
        <ele>97</ele>
        <time>2025-05-16T09:04:57Z</time>
      </trkpt>
      <trkpt lat="48.13207" lon="-2.0213">
        <ele>97</ele>
        <time>2025-05-16T09:04:58Z</time>
      </trkpt>
      <trkpt lat="48.13208" lon="-2.02124">
        <ele>97</ele>
        <time>2025-05-16T09:04:59Z</time>
      </trkpt>
      <trkpt lat="48.13208" lon="-2.02119">
        <ele>96</ele>
        <time>2025-05-16T09:05:00Z</time>
      </trkpt>
      <trkpt lat="48.13209" lon="-2.02114">
        <ele>96</ele>
        <time>2025-05-16T09:05:01Z</time>
      </trkpt>
      <trkpt lat="48.13209" lon="-2.02108">
        <ele>96</ele>
        <time>2025-05-16T09:05:02Z</time>
      </trkpt>
      <trkpt lat="48.1321" lon="-2.02103">
        <ele>96</ele>
        <time>2025-05-16T09:05:03Z</time>
      </trkpt>
      <trkpt lat="48.1321" lon="-2.02097">
        <ele>95</ele>
        <time>2025-05-16T09:05:04Z</time>
      </trkpt>
      <trkpt lat="48.1321" lon="-2.02091">
        <ele>94</ele>
        <time>2025-05-16T09:05:05Z</time>
      </trkpt>
      <trkpt lat="48.1321" lon="-2.02085">
        <ele>94</ele>
        <time>2025-05-16T09:05:06Z</time>
      </trkpt>
      <trkpt lat="48.1321" lon="-2.02079">
        <ele>93</ele>
        <time>2025-05-16T09:05:07Z</time>
      </trkpt>
      <trkpt lat="48.13211" lon="-2.02073">
        <ele>94</ele>
        <time>2025-05-16T09:05:08Z</time>
      </trkpt>
      <trkpt lat="48.13212" lon="-2.02066">
        <ele>94</ele>
        <time>2025-05-16T09:05:09Z</time>
      </trkpt>
      <trkpt lat="48.13212" lon="-2.02059">
        <ele>93</ele>
        <time>2025-05-16T09:05:10Z</time>
      </trkpt>
      <trkpt lat="48.13212" lon="-2.02053">
        <ele>93</ele>
        <time>2025-05-16T09:05:11Z</time>
      </trkpt>
      <trkpt lat="48.13212" lon="-2.02046">
        <ele>93</ele>
        <time>2025-05-16T09:05:12Z</time>
      </trkpt>
      <trkpt lat="48.13212" lon="-2.02039">
        <ele>92</ele>
        <time>2025-05-16T09:05:13Z</time>
      </trkpt>
      <trkpt lat="48.13212" lon="-2.02032">
        <ele>92</ele>
        <time>2025-05-16T09:05:14Z</time>
      </trkpt>
      <trkpt lat="48.13212" lon="-2.02025">
        <ele>92</ele>
        <time>2025-05-16T09:05:15Z</time>
      </trkpt>
      <trkpt lat="48.13212" lon="-2.02018">
        <ele>92</ele>
        <time>2025-05-16T09:05:16Z</time>
      </trkpt>
      <trkpt lat="48.13213" lon="-2.02011">
        <ele>92</ele>
        <time>2025-05-16T09:05:17Z</time>
      </trkpt>
      <trkpt lat="48.13213" lon="-2.02003">
        <ele>92</ele>
        <time>2025-05-16T09:05:18Z</time>
      </trkpt>
      <trkpt lat="48.13212" lon="-2.01996">
        <ele>93</ele>
        <time>2025-05-16T09:05:19Z</time>
      </trkpt>
      <trkpt lat="48.13212" lon="-2.01989">
        <ele>92</ele>
        <time>2025-05-16T09:05:20Z</time>
      </trkpt>
      <trkpt lat="48.13212" lon="-2.01981">
        <ele>92</ele>
        <time>2025-05-16T09:05:21Z</time>
      </trkpt>
      <trkpt lat="48.13212" lon="-2.01973">
        <ele>92</ele>
        <time>2025-05-16T09:05:22Z</time>
      </trkpt>
      <trkpt lat="48.13212" lon="-2.01966">
        <ele>91</ele>
        <time>2025-05-16T09:05:23Z</time>
      </trkpt>
      <trkpt lat="48.13212" lon="-2.01958">
        <ele>91</ele>
        <time>2025-05-16T09:05:24Z</time>
      </trkpt>
      <trkpt lat="48.13212" lon="-2.01951">
        <ele>90</ele>
        <time>2025-05-16T09:05:25Z</time>
      </trkpt>
      <trkpt lat="48.13212" lon="-2.01944">
        <ele>89</ele>
        <time>2025-05-16T09:05:26Z</time>
      </trkpt>
      <trkpt lat="48.13213" lon="-2.01937">
        <ele>89</ele>
        <time>2025-05-16T09:05:27Z</time>
      </trkpt>
      <trkpt lat="48.13213" lon="-2.0193">
        <ele>89</ele>
        <time>2025-05-16T09:05:28Z</time>
      </trkpt>
      <trkpt lat="48.13213" lon="-2.01924">
        <ele>89</ele>
        <time>2025-05-16T09:05:29Z</time>
      </trkpt>
      <trkpt lat="48.13214" lon="-2.01918">
        <ele>89</ele>
        <time>2025-05-16T09:05:30Z</time>
      </trkpt>
      <trkpt lat="48.13214" lon="-2.01914">
        <ele>89</ele>
        <time>2025-05-16T09:05:31Z</time>
      </trkpt>
      <trkpt lat="48.13213" lon="-2.0191">
        <ele>89</ele>
        <time>2025-05-16T09:05:32Z</time>
      </trkpt>
      <trkpt lat="48.13213" lon="-2.01907">
        <ele>89</ele>
        <time>2025-05-16T09:05:33Z</time>
      </trkpt>
      <trkpt lat="48.13211" lon="-2.01903">
        <ele>90</ele>
        <time>2025-05-16T09:05:34Z</time>
      </trkpt>
      <trkpt lat="48.1321" lon="-2.019">
        <ele>90</ele>
        <time>2025-05-16T09:05:35Z</time>
      </trkpt>
      <trkpt lat="48.13208" lon="-2.01896">
        <ele>90</ele>
        <time>2025-05-16T09:05:36Z</time>
      </trkpt>
      <trkpt lat="48.13205" lon="-2.01892">
        <ele>90</ele>
        <time>2025-05-16T09:05:37Z</time>
      </trkpt>
      <trkpt lat="48.13203" lon="-2.01888">
        <ele>89</ele>
        <time>2025-05-16T09:05:38Z</time>
      </trkpt>
      <trkpt lat="48.13203" lon="-2.01883">
        <ele>89</ele>
        <time>2025-05-16T09:05:39Z</time>
      </trkpt>
      <trkpt lat="48.13204" lon="-2.01878">
        <ele>88</ele>
        <time>2025-05-16T09:05:40Z</time>
      </trkpt>
      <trkpt lat="48.13205" lon="-2.01874">
        <ele>88</ele>
        <time>2025-05-16T09:05:41Z</time>
      </trkpt>
      <trkpt lat="48.13207" lon="-2.01871">
        <ele>88</ele>
        <time>2025-05-16T09:05:42Z</time>
      </trkpt>
      <trkpt lat="48.13209" lon="-2.01867">
        <ele>88</ele>
        <time>2025-05-16T09:05:43Z</time>
      </trkpt>
      <trkpt lat="48.13209" lon="-2.01861">
        <ele>87</ele>
        <time>2025-05-16T09:05:44Z</time>
      </trkpt>
      <trkpt lat="48.13209" lon="-2.01855">
        <ele>87</ele>
        <time>2025-05-16T09:05:45Z</time>
      </trkpt>
      <trkpt lat="48.13209" lon="-2.01848">
        <ele>86</ele>
        <time>2025-05-16T09:05:46Z</time>
      </trkpt>
      <trkpt lat="48.13209" lon="-2.01841">
        <ele>86</ele>
        <time>2025-05-16T09:05:47Z</time>
      </trkpt>
      <trkpt lat="48.13208" lon="-2.01833">
        <ele>86</ele>
        <time>2025-05-16T09:05:48Z</time>
      </trkpt>
      <trkpt lat="48.13209" lon="-2.01826">
        <ele>86</ele>
        <time>2025-05-16T09:05:49Z</time>
      </trkpt>
      <trkpt lat="48.13209" lon="-2.01819">
        <ele>86</ele>
        <time>2025-05-16T09:05:50Z</time>
      </trkpt>
      <trkpt lat="48.13209" lon="-2.01811">
        <ele>86</ele>
        <time>2025-05-16T09:05:51Z</time>
      </trkpt>
      <trkpt lat="48.13209" lon="-2.01804">
        <ele>86</ele>
        <time>2025-05-16T09:05:52Z</time>
      </trkpt>
      <trkpt lat="48.1321" lon="-2.01798">
        <ele>86</ele>
        <time>2025-05-16T09:05:53Z</time>
      </trkpt>
      <trkpt lat="48.13209" lon="-2.01791">
        <ele>87</ele>
        <time>2025-05-16T09:05:54Z</time>
      </trkpt>
      <trkpt lat="48.13209" lon="-2.01786">
        <ele>87</ele>
        <time>2025-05-16T09:05:55Z</time>
      </trkpt>
      <trkpt lat="48.1321" lon="-2.01781">
        <ele>87</ele>
        <time>2025-05-16T09:05:56Z</time>
      </trkpt>
      <trkpt lat="48.1321" lon="-2.01776">
        <ele>88</ele>
        <time>2025-05-16T09:05:57Z</time>
      </trkpt>
      <trkpt lat="48.1321" lon="-2.01771">
        <ele>88</ele>
        <time>2025-05-16T09:05:58Z</time>
      </trkpt>
      <trkpt lat="48.1321" lon="-2.01767">
        <ele>88</ele>
        <time>2025-05-16T09:05:59Z</time>
      </trkpt>
      <trkpt lat="48.13211" lon="-2.01762">
        <ele>88</ele>
        <time>2025-05-16T09:06:00Z</time>
      </trkpt>
      <trkpt lat="48.13211" lon="-2.01757">
        <ele>88</ele>
        <time>2025-05-16T09:06:01Z</time>
      </trkpt>
      <trkpt lat="48.13211" lon="-2.01753">
        <ele>89</ele>
        <time>2025-05-16T09:06:02Z</time>
      </trkpt>
      <trkpt lat="48.13211" lon="-2.01748">
        <ele>89</ele>
        <time>2025-05-16T09:06:03Z</time>
      </trkpt>
      <trkpt lat="48.13211" lon="-2.01744">
        <ele>89</ele>
        <time>2025-05-16T09:06:04Z</time>
      </trkpt>
      <trkpt lat="48.13211" lon="-2.01739">
        <ele>89</ele>
        <time>2025-05-16T09:06:05Z</time>
      </trkpt>
      <trkpt lat="48.13212" lon="-2.01735">
        <ele>89</ele>
        <time>2025-05-16T09:06:06Z</time>
      </trkpt>
      <trkpt lat="48.13212" lon="-2.01731">
        <ele>90</ele>
        <time>2025-05-16T09:06:07Z</time>
      </trkpt>
      <trkpt lat="48.13212" lon="-2.01726">
        <ele>90</ele>
        <time>2025-05-16T09:06:08Z</time>
      </trkpt>
      <trkpt lat="48.13211" lon="-2.01722">
        <ele>90</ele>
        <time>2025-05-16T09:06:09Z</time>
      </trkpt>
      <trkpt lat="48.1321" lon="-2.01719">
        <ele>90</ele>
        <time>2025-05-16T09:06:10Z</time>
      </trkpt>
      <trkpt lat="48.13209" lon="-2.01715">
        <ele>90</ele>
        <time>2025-05-16T09:06:11Z</time>
      </trkpt>
      <trkpt lat="48.13207" lon="-2.01712">
        <ele>91</ele>
        <time>2025-05-16T09:06:12Z</time>
      </trkpt>
      <trkpt lat="48.13206" lon="-2.01708">
        <ele>91</ele>
        <time>2025-05-16T09:06:13Z</time>
      </trkpt>
      <trkpt lat="48.13204" lon="-2.01705">
        <ele>91</ele>
        <time>2025-05-16T09:06:14Z</time>
      </trkpt>
      <trkpt lat="48.13203" lon="-2.01702">
        <ele>91</ele>
        <time>2025-05-16T09:06:15Z</time>
      </trkpt>
      <trkpt lat="48.13203" lon="-2.01699">
        <ele>91</ele>
        <time>2025-05-16T09:06:16Z</time>
      </trkpt>
      <trkpt lat="48.13204" lon="-2.01695">
        <ele>92</ele>
        <time>2025-05-16T09:06:17Z</time>
      </trkpt>
      <trkpt lat="48.13204" lon="-2.01692">
        <ele>92</ele>
        <time>2025-05-16T09:06:18Z</time>
      </trkpt>
      <trkpt lat="48.13204" lon="-2.01688">
        <ele>92</ele>
        <time>2025-05-16T09:06:19Z</time>
      </trkpt>
      <trkpt lat="48.13205" lon="-2.01684">
        <ele>93</ele>
        <time>2025-05-16T09:06:20Z</time>
      </trkpt>
      <trkpt lat="48.13206" lon="-2.0168">
        <ele>94</ele>
        <time>2025-05-16T09:06:21Z</time>
      </trkpt>
      <trkpt lat="48.13207" lon="-2.01676">
        <ele>94</ele>
        <time>2025-05-16T09:06:22Z</time>
      </trkpt>
      <trkpt lat="48.13208" lon="-2.01672">
        <ele>95</ele>
        <time>2025-05-16T09:06:23Z</time>
      </trkpt>
      <trkpt lat="48.1321" lon="-2.01669">
        <ele>95</ele>
        <time>2025-05-16T09:06:24Z</time>
      </trkpt>
      <trkpt lat="48.13211" lon="-2.01665">
        <ele>95</ele>
        <time>2025-05-16T09:06:25Z</time>
      </trkpt>
      <trkpt lat="48.13213" lon="-2.01662">
        <ele>95</ele>
        <time>2025-05-16T09:06:26Z</time>
      </trkpt>
      <trkpt lat="48.13214" lon="-2.01658">
        <ele>95</ele>
        <time>2025-05-16T09:06:27Z</time>
      </trkpt>
      <trkpt lat="48.13215" lon="-2.01654">
        <ele>95</ele>
        <time>2025-05-16T09:06:28Z</time>
      </trkpt>
      <trkpt lat="48.13215" lon="-2.0165">
        <ele>95</ele>
        <time>2025-05-16T09:06:29Z</time>
      </trkpt>
      <trkpt lat="48.13215" lon="-2.01647">
        <ele>95</ele>
        <time>2025-05-16T09:06:30Z</time>
      </trkpt>
      <trkpt lat="48.13216" lon="-2.01643">
        <ele>95</ele>
        <time>2025-05-16T09:06:31Z</time>
      </trkpt>
      <trkpt lat="48.13216" lon="-2.01639">
        <ele>95</ele>
        <time>2025-05-16T09:06:32Z</time>
      </trkpt>
      <trkpt lat="48.13216" lon="-2.01635">
        <ele>95</ele>
        <time>2025-05-16T09:06:33Z</time>
      </trkpt>
      <trkpt lat="48.13216" lon="-2.01631">
        <ele>94</ele>
        <time>2025-05-16T09:06:34Z</time>
      </trkpt>
      <trkpt lat="48.13217" lon="-2.01627">
        <ele>94</ele>
        <time>2025-05-16T09:06:35Z</time>
      </trkpt>
      <trkpt lat="48.13217" lon="-2.01623">
        <ele>94</ele>
        <time>2025-05-16T09:06:36Z</time>
      </trkpt>
      <trkpt lat="48.13218" lon="-2.01618">
        <ele>94</ele>
        <time>2025-05-16T09:06:37Z</time>
      </trkpt>
      <trkpt lat="48.13219" lon="-2.01614">
        <ele>94</ele>
        <time>2025-05-16T09:06:38Z</time>
      </trkpt>
      <trkpt lat="48.13219" lon="-2.01609">
        <ele>94</ele>
        <time>2025-05-16T09:06:39Z</time>
      </trkpt>
      <trkpt lat="48.1322" lon="-2.01605">
        <ele>95</ele>
        <time>2025-05-16T09:06:40Z</time>
      </trkpt>
      <trkpt lat="48.1322" lon="-2.01601">
        <ele>95</ele>
        <time>2025-05-16T09:06:41Z</time>
      </trkpt>
      <trkpt lat="48.1322" lon="-2.01596">
        <ele>95</ele>
        <time>2025-05-16T09:06:42Z</time>
      </trkpt>
      <trkpt lat="48.1322" lon="-2.01592">
        <ele>95</ele>
        <time>2025-05-16T09:06:43Z</time>
      </trkpt>
      <trkpt lat="48.1322" lon="-2.01588">
        <ele>95</ele>
        <time>2025-05-16T09:06:44Z</time>
      </trkpt>
      <trkpt lat="48.1322" lon="-2.01584">
        <ele>96</ele>
        <time>2025-05-16T09:06:45Z</time>
      </trkpt>
      <trkpt lat="48.1322" lon="-2.0158">
        <ele>96</ele>
        <time>2025-05-16T09:06:46Z</time>
      </trkpt>
      <trkpt lat="48.1322" lon="-2.01576">
        <ele>96</ele>
        <time>2025-05-16T09:06:47Z</time>
      </trkpt>
      <trkpt lat="48.1322" lon="-2.01572">
        <ele>96</ele>
        <time>2025-05-16T09:06:48Z</time>
      </trkpt>
      <trkpt lat="48.13221" lon="-2.01567">
        <ele>96</ele>
        <time>2025-05-16T09:06:49Z</time>
      </trkpt>
      <trkpt lat="48.1322" lon="-2.01562">
        <ele>96</ele>
        <time>2025-05-16T09:06:50Z</time>
      </trkpt>
      <trkpt lat="48.1322" lon="-2.01558">
        <ele>96</ele>
        <time>2025-05-16T09:06:51Z</time>
      </trkpt>
      <trkpt lat="48.1322" lon="-2.01552">
        <ele>95</ele>
        <time>2025-05-16T09:06:52Z</time>
      </trkpt>
      <trkpt lat="48.1322" lon="-2.01547">
        <ele>95</ele>
        <time>2025-05-16T09:06:53Z</time>
      </trkpt>
      <trkpt lat="48.1322" lon="-2.01542">
        <ele>95</ele>
        <time>2025-05-16T09:06:54Z</time>
      </trkpt>
      <trkpt lat="48.13221" lon="-2.01536">
        <ele>95</ele>
        <time>2025-05-16T09:06:55Z</time>
      </trkpt>
      <trkpt lat="48.13221" lon="-2.01531">
        <ele>95</ele>
        <time>2025-05-16T09:06:56Z</time>
      </trkpt>
      <trkpt lat="48.13221" lon="-2.01525">
        <ele>95</ele>
        <time>2025-05-16T09:06:57Z</time>
      </trkpt>
      <trkpt lat="48.13222" lon="-2.0152">
        <ele>95</ele>
        <time>2025-05-16T09:06:58Z</time>
      </trkpt>
      <trkpt lat="48.13222" lon="-2.01514">
        <ele>95</ele>
        <time>2025-05-16T09:06:59Z</time>
      </trkpt>
      <trkpt lat="48.13223" lon="-2.01509">
        <ele>95</ele>
        <time>2025-05-16T09:07:00Z</time>
      </trkpt>
      <trkpt lat="48.13223" lon="-2.01504">
        <ele>95</ele>
        <time>2025-05-16T09:07:01Z</time>
      </trkpt>
      <trkpt lat="48.13223" lon="-2.01499">
        <ele>95</ele>
        <time>2025-05-16T09:07:02Z</time>
      </trkpt>
      <trkpt lat="48.13224" lon="-2.01493">
        <ele>95</ele>
        <time>2025-05-16T09:07:03Z</time>
      </trkpt>
      <trkpt lat="48.13225" lon="-2.01488">
        <ele>95</ele>
        <time>2025-05-16T09:07:04Z</time>
      </trkpt>
      <trkpt lat="48.13226" lon="-2.01482">
        <ele>95</ele>
        <time>2025-05-16T09:07:05Z</time>
      </trkpt>
      <trkpt lat="48.13227" lon="-2.01476">
        <ele>95</ele>
        <time>2025-05-16T09:07:06Z</time>
      </trkpt>
      <trkpt lat="48.13228" lon="-2.01471">
        <ele>96</ele>
        <time>2025-05-16T09:07:07Z</time>
      </trkpt>
      <trkpt lat="48.13229" lon="-2.01465">
        <ele>96</ele>
        <time>2025-05-16T09:07:08Z</time>
      </trkpt>
      <trkpt lat="48.1323" lon="-2.01459">
        <ele>96</ele>
        <time>2025-05-16T09:07:09Z</time>
      </trkpt>
      <trkpt lat="48.13231" lon="-2.01453">
        <ele>96</ele>
        <time>2025-05-16T09:07:10Z</time>
      </trkpt>
      <trkpt lat="48.13232" lon="-2.01447">
        <ele>96</ele>
        <time>2025-05-16T09:07:11Z</time>
      </trkpt>
      <trkpt lat="48.13233" lon="-2.01441">
        <ele>96</ele>
        <time>2025-05-16T09:07:12Z</time>
      </trkpt>
      <trkpt lat="48.13233" lon="-2.01435">
        <ele>96</ele>
        <time>2025-05-16T09:07:13Z</time>
      </trkpt>
      <trkpt lat="48.13234" lon="-2.01429">
        <ele>96</ele>
        <time>2025-05-16T09:07:14Z</time>
      </trkpt>
      <trkpt lat="48.13235" lon="-2.01423">
        <ele>96</ele>
        <time>2025-05-16T09:07:15Z</time>
      </trkpt>
      <trkpt lat="48.13236" lon="-2.01418">
        <ele>95</ele>
        <time>2025-05-16T09:07:16Z</time>
      </trkpt>
      <trkpt lat="48.13237" lon="-2.01412">
        <ele>95</ele>
        <time>2025-05-16T09:07:17Z</time>
      </trkpt>
      <trkpt lat="48.13238" lon="-2.01406">
        <ele>96</ele>
        <time>2025-05-16T09:07:18Z</time>
      </trkpt>
      <trkpt lat="48.13239" lon="-2.01401">
        <ele>96</ele>
        <time>2025-05-16T09:07:19Z</time>
      </trkpt>
      <trkpt lat="48.1324" lon="-2.01395">
        <ele>96</ele>
        <time>2025-05-16T09:07:20Z</time>
      </trkpt>
      <trkpt lat="48.13241" lon="-2.01389">
        <ele>96</ele>
        <time>2025-05-16T09:07:21Z</time>
      </trkpt>
      <trkpt lat="48.13243" lon="-2.01383">
        <ele>96</ele>
        <time>2025-05-16T09:07:22Z</time>
      </trkpt>
      <trkpt lat="48.13244" lon="-2.01377">
        <ele>96</ele>
        <time>2025-05-16T09:07:23Z</time>
      </trkpt>
      <trkpt lat="48.13246" lon="-2.01371">
        <ele>96</ele>
        <time>2025-05-16T09:07:24Z</time>
      </trkpt>
      <trkpt lat="48.13247" lon="-2.01365">
        <ele>95</ele>
        <time>2025-05-16T09:07:25Z</time>
      </trkpt>
      <trkpt lat="48.13249" lon="-2.01359">
        <ele>94</ele>
        <time>2025-05-16T09:07:26Z</time>
      </trkpt>
      <trkpt lat="48.1325" lon="-2.01353">
        <ele>94</ele>
        <time>2025-05-16T09:07:27Z</time>
      </trkpt>
      <trkpt lat="48.13252" lon="-2.01346">
        <ele>94</ele>
        <time>2025-05-16T09:07:28Z</time>
      </trkpt>
      <trkpt lat="48.13254" lon="-2.0134">
        <ele>94</ele>
        <time>2025-05-16T09:07:29Z</time>
      </trkpt>
      <trkpt lat="48.13255" lon="-2.01333">
        <ele>93</ele>
        <time>2025-05-16T09:07:30Z</time>
      </trkpt>
      <trkpt lat="48.13257" lon="-2.01326">
        <ele>93</ele>
        <time>2025-05-16T09:07:31Z</time>
      </trkpt>
      <trkpt lat="48.13259" lon="-2.01318">
        <ele>93</ele>
        <time>2025-05-16T09:07:32Z</time>
      </trkpt>
      <trkpt lat="48.13262" lon="-2.01311">
        <ele>92</ele>
        <time>2025-05-16T09:07:33Z</time>
      </trkpt>
      <trkpt lat="48.13264" lon="-2.01304">
        <ele>92</ele>
        <time>2025-05-16T09:07:34Z</time>
      </trkpt>
      <trkpt lat="48.13267" lon="-2.01298">
        <ele>92</ele>
        <time>2025-05-16T09:07:35Z</time>
      </trkpt>
      <trkpt lat="48.1327" lon="-2.0129">
        <ele>91</ele>
        <time>2025-05-16T09:07:36Z</time>
      </trkpt>
      <trkpt lat="48.13272" lon="-2.01282">
        <ele>91</ele>
        <time>2025-05-16T09:07:37Z</time>
      </trkpt>
      <trkpt lat="48.13275" lon="-2.01275">
        <ele>90</ele>
        <time>2025-05-16T09:07:38Z</time>
      </trkpt>
      <trkpt lat="48.13278" lon="-2.01268">
        <ele>90</ele>
        <time>2025-05-16T09:07:39Z</time>
      </trkpt>
      <trkpt lat="48.1328" lon="-2.0126">
        <ele>90</ele>
        <time>2025-05-16T09:07:40Z</time>
      </trkpt>
      <trkpt lat="48.13283" lon="-2.01253">
        <ele>90</ele>
        <time>2025-05-16T09:07:41Z</time>
      </trkpt>
      <trkpt lat="48.13286" lon="-2.01245">
        <ele>90</ele>
        <time>2025-05-16T09:07:42Z</time>
      </trkpt>
      <trkpt lat="48.13288" lon="-2.01238">
        <ele>90</ele>
        <time>2025-05-16T09:07:43Z</time>
      </trkpt>
      <trkpt lat="48.13291" lon="-2.01231">
        <ele>90</ele>
        <time>2025-05-16T09:07:44Z</time>
      </trkpt>
      <trkpt lat="48.13294" lon="-2.01224">
        <ele>90</ele>
        <time>2025-05-16T09:07:45Z</time>
      </trkpt>
      <trkpt lat="48.13298" lon="-2.01217">
        <ele>90</ele>
        <time>2025-05-16T09:07:46Z</time>
      </trkpt>
      <trkpt lat="48.13302" lon="-2.01213">
        <ele>90</ele>
        <time>2025-05-16T09:07:47Z</time>
      </trkpt>
      <trkpt lat="48.13307" lon="-2.0121">
        <ele>90</ele>
        <time>2025-05-16T09:07:48Z</time>
      </trkpt>
      <trkpt lat="48.13312" lon="-2.01211">
        <ele>91</ele>
        <time>2025-05-16T09:07:49Z</time>
      </trkpt>
      <trkpt lat="48.13316" lon="-2.01214">
        <ele>91</ele>
        <time>2025-05-16T09:07:50Z</time>
      </trkpt>
      <trkpt lat="48.13319" lon="-2.01218">
        <ele>91</ele>
        <time>2025-05-16T09:07:51Z</time>
      </trkpt>
      <trkpt lat="48.13322" lon="-2.0122">
        <ele>91</ele>
        <time>2025-05-16T09:07:52Z</time>
      </trkpt>
      <trkpt lat="48.13325" lon="-2.01221">
        <ele>92</ele>
        <time>2025-05-16T09:07:53Z</time>
      </trkpt>
      <trkpt lat="48.13327" lon="-2.01222">
        <ele>92</ele>
        <time>2025-05-16T09:07:54Z</time>
      </trkpt>
      <trkpt lat="48.1333" lon="-2.0122">
        <ele>91</ele>
        <time>2025-05-16T09:07:55Z</time>
      </trkpt>
      <trkpt lat="48.13331" lon="-2.01219">
        <ele>91</ele>
        <time>2025-05-16T09:07:56Z</time>
      </trkpt>
      <trkpt lat="48.13333" lon="-2.01217">
        <ele>91</ele>
        <time>2025-05-16T09:07:57Z</time>
      </trkpt>
      <trkpt lat="48.13335" lon="-2.01216">
        <ele>91</ele>
        <time>2025-05-16T09:07:58Z</time>
      </trkpt>
      <trkpt lat="48.13337" lon="-2.01214">
        <ele>91</ele>
        <time>2025-05-16T09:07:59Z</time>
      </trkpt>
      <trkpt lat="48.13338" lon="-2.01213">
        <ele>90</ele>
        <time>2025-05-16T09:08:00Z</time>
      </trkpt>
      <trkpt lat="48.1334" lon="-2.0121">
        <ele>90</ele>
        <time>2025-05-16T09:08:01Z</time>
      </trkpt>
      <trkpt lat="48.13343" lon="-2.01208">
        <ele>91</ele>
        <time>2025-05-16T09:08:02Z</time>
      </trkpt>
      <trkpt lat="48.13345" lon="-2.01206">
        <ele>91</ele>
        <time>2025-05-16T09:08:03Z</time>
      </trkpt>
      <trkpt lat="48.13347" lon="-2.01203">
        <ele>91</ele>
        <time>2025-05-16T09:08:04Z</time>
      </trkpt>
      <trkpt lat="48.13349" lon="-2.012">
        <ele>91</ele>
        <time>2025-05-16T09:08:05Z</time>
      </trkpt>
      <trkpt lat="48.13351" lon="-2.01197">
        <ele>91</ele>
        <time>2025-05-16T09:08:06Z</time>
      </trkpt>
      <trkpt lat="48.13354" lon="-2.01193">
        <ele>91</ele>
        <time>2025-05-16T09:08:07Z</time>
      </trkpt>
      <trkpt lat="48.13356" lon="-2.0119">
        <ele>92</ele>
        <time>2025-05-16T09:08:08Z</time>
      </trkpt>
      <trkpt lat="48.13358" lon="-2.01186">
        <ele>92</ele>
        <time>2025-05-16T09:08:09Z</time>
      </trkpt>
      <trkpt lat="48.1336" lon="-2.01182">
        <ele>92</ele>
        <time>2025-05-16T09:08:10Z</time>
      </trkpt>
      <trkpt lat="48.13362" lon="-2.01178">
        <ele>92</ele>
        <time>2025-05-16T09:08:11Z</time>
      </trkpt>
      <trkpt lat="48.13364" lon="-2.01175">
        <ele>92</ele>
        <time>2025-05-16T09:08:12Z</time>
      </trkpt>
      <trkpt lat="48.13366" lon="-2.01171">
        <ele>92</ele>
        <time>2025-05-16T09:08:13Z</time>
      </trkpt>
      <trkpt lat="48.13368" lon="-2.01167">
        <ele>92</ele>
        <time>2025-05-16T09:08:14Z</time>
      </trkpt>
      <trkpt lat="48.1337" lon="-2.01163">
        <ele>92</ele>
        <time>2025-05-16T09:08:15Z</time>
      </trkpt>
      <trkpt lat="48.13373" lon="-2.01159">
        <ele>92</ele>
        <time>2025-05-16T09:08:16Z</time>
      </trkpt>
      <trkpt lat="48.13375" lon="-2.01155">
        <ele>92</ele>
        <time>2025-05-16T09:08:17Z</time>
      </trkpt>
      <trkpt lat="48.13377" lon="-2.0115">
        <ele>92</ele>
        <time>2025-05-16T09:08:18Z</time>
      </trkpt>
      <trkpt lat="48.13379" lon="-2.01146">
        <ele>92</ele>
        <time>2025-05-16T09:08:19Z</time>
      </trkpt>
      <trkpt lat="48.13381" lon="-2.01142">
        <ele>92</ele>
        <time>2025-05-16T09:08:20Z</time>
      </trkpt>
      <trkpt lat="48.13383" lon="-2.01138">
        <ele>91</ele>
        <time>2025-05-16T09:08:21Z</time>
      </trkpt>
      <trkpt lat="48.13386" lon="-2.01134">
        <ele>91</ele>
        <time>2025-05-16T09:08:22Z</time>
      </trkpt>
      <trkpt lat="48.13388" lon="-2.0113">
        <ele>91</ele>
        <time>2025-05-16T09:08:23Z</time>
      </trkpt>
      <trkpt lat="48.1339" lon="-2.01126">
        <ele>91</ele>
        <time>2025-05-16T09:08:24Z</time>
      </trkpt>
      <trkpt lat="48.13393" lon="-2.01122">
        <ele>91</ele>
        <time>2025-05-16T09:08:25Z</time>
      </trkpt>
      <trkpt lat="48.13395" lon="-2.01117">
        <ele>91</ele>
        <time>2025-05-16T09:08:26Z</time>
      </trkpt>
      <trkpt lat="48.13397" lon="-2.01113">
        <ele>91</ele>
        <time>2025-05-16T09:08:27Z</time>
      </trkpt>
      <trkpt lat="48.13399" lon="-2.01108">
        <ele>91</ele>
        <time>2025-05-16T09:08:28Z</time>
      </trkpt>
      <trkpt lat="48.134" lon="-2.01103">
        <ele>92</ele>
        <time>2025-05-16T09:08:29Z</time>
      </trkpt>
      <trkpt lat="48.13402" lon="-2.01098">
        <ele>92</ele>
        <time>2025-05-16T09:08:30Z</time>
      </trkpt>
      <trkpt lat="48.13403" lon="-2.01094">
        <ele>92</ele>
        <time>2025-05-16T09:08:31Z</time>
      </trkpt>
      <trkpt lat="48.13405" lon="-2.0109">
        <ele>92</ele>
        <time>2025-05-16T09:08:32Z</time>
      </trkpt>
      <trkpt lat="48.13406" lon="-2.01087">
        <ele>92</ele>
        <time>2025-05-16T09:08:33Z</time>
      </trkpt>
      <trkpt lat="48.13406" lon="-2.01083">
        <ele>92</ele>
        <time>2025-05-16T09:08:34Z</time>
      </trkpt>
      <trkpt lat="48.13406" lon="-2.01079">
        <ele>92</ele>
        <time>2025-05-16T09:08:35Z</time>
      </trkpt>
      <trkpt lat="48.13405" lon="-2.01076">
        <ele>91</ele>
        <time>2025-05-16T09:08:36Z</time>
      </trkpt>
      <trkpt lat="48.13403" lon="-2.01073">
        <ele>92</ele>
        <time>2025-05-16T09:08:37Z</time>
      </trkpt>
      <trkpt lat="48.134" lon="-2.01071">
        <ele>92</ele>
        <time>2025-05-16T09:08:38Z</time>
      </trkpt>
      <trkpt lat="48.13398" lon="-2.01068">
        <ele>91</ele>
        <time>2025-05-16T09:08:39Z</time>
      </trkpt>
      <trkpt lat="48.13397" lon="-2.01064">
        <ele>91</ele>
        <time>2025-05-16T09:08:40Z</time>
      </trkpt>
      <trkpt lat="48.13396" lon="-2.0106">
        <ele>90</ele>
        <time>2025-05-16T09:08:41Z</time>
      </trkpt>
      <trkpt lat="48.13395" lon="-2.01056">
        <ele>90</ele>
        <time>2025-05-16T09:08:42Z</time>
      </trkpt>
      <trkpt lat="48.13396" lon="-2.01052">
        <ele>90</ele>
        <time>2025-05-16T09:08:43Z</time>
      </trkpt>
      <trkpt lat="48.13397" lon="-2.01048">
        <ele>90</ele>
        <time>2025-05-16T09:08:44Z</time>
      </trkpt>
      <trkpt lat="48.134" lon="-2.01044">
        <ele>90</ele>
        <time>2025-05-16T09:08:45Z</time>
      </trkpt>
      <trkpt lat="48.13402" lon="-2.01041">
        <ele>90</ele>
        <time>2025-05-16T09:08:46Z</time>
      </trkpt>
      <trkpt lat="48.13405" lon="-2.01038">
        <ele>90</ele>
        <time>2025-05-16T09:08:47Z</time>
      </trkpt>
      <trkpt lat="48.13408" lon="-2.01035">
        <ele>90</ele>
        <time>2025-05-16T09:08:48Z</time>
      </trkpt>
      <trkpt lat="48.13411" lon="-2.01033">
        <ele>89</ele>
        <time>2025-05-16T09:08:49Z</time>
      </trkpt>
      <trkpt lat="48.13414" lon="-2.0103">
        <ele>89</ele>
        <time>2025-05-16T09:08:50Z</time>
      </trkpt>
      <trkpt lat="48.13417" lon="-2.01027">
        <ele>88</ele>
        <time>2025-05-16T09:08:51Z</time>
      </trkpt>
      <trkpt lat="48.1342" lon="-2.01024">
        <ele>88</ele>
        <time>2025-05-16T09:08:52Z</time>
      </trkpt>
      <trkpt lat="48.13423" lon="-2.0102">
        <ele>88</ele>
        <time>2025-05-16T09:08:53Z</time>
      </trkpt>
      <trkpt lat="48.13426" lon="-2.01017">
        <ele>88</ele>
        <time>2025-05-16T09:08:54Z</time>
      </trkpt>
      <trkpt lat="48.1343" lon="-2.01014">
        <ele>89</ele>
        <time>2025-05-16T09:08:55Z</time>
      </trkpt>
      <trkpt lat="48.13433" lon="-2.01011">
        <ele>89</ele>
        <time>2025-05-16T09:08:56Z</time>
      </trkpt>
      <trkpt lat="48.13437" lon="-2.01007">
        <ele>88</ele>
        <time>2025-05-16T09:08:57Z</time>
      </trkpt>
      <trkpt lat="48.1344" lon="-2.01004">
        <ele>88</ele>
        <time>2025-05-16T09:08:58Z</time>
      </trkpt>
      <trkpt lat="48.13444" lon="-2.01">
        <ele>88</ele>
        <time>2025-05-16T09:08:59Z</time>
      </trkpt>
      <trkpt lat="48.13447" lon="-2.00997">
        <ele>88</ele>
        <time>2025-05-16T09:09:00Z</time>
      </trkpt>
      <trkpt lat="48.13451" lon="-2.00992">
        <ele>88</ele>
        <time>2025-05-16T09:09:01Z</time>
      </trkpt>
      <trkpt lat="48.13454" lon="-2.00988">
        <ele>88</ele>
        <time>2025-05-16T09:09:02Z</time>
      </trkpt>
      <trkpt lat="48.13458" lon="-2.00983">
        <ele>88</ele>
        <time>2025-05-16T09:09:03Z</time>
      </trkpt>
      <trkpt lat="48.13462" lon="-2.00978">
        <ele>88</ele>
        <time>2025-05-16T09:09:04Z</time>
      </trkpt>
      <trkpt lat="48.13465" lon="-2.00972">
        <ele>89</ele>
        <time>2025-05-16T09:09:05Z</time>
      </trkpt>
      <trkpt lat="48.13468" lon="-2.00967">
        <ele>89</ele>
        <time>2025-05-16T09:09:06Z</time>
      </trkpt>
      <trkpt lat="48.13472" lon="-2.00961">
        <ele>89</ele>
        <time>2025-05-16T09:09:07Z</time>
      </trkpt>
      <trkpt lat="48.13476" lon="-2.00955">
        <ele>88</ele>
        <time>2025-05-16T09:09:08Z</time>
      </trkpt>
      <trkpt lat="48.13479" lon="-2.00949">
        <ele>88</ele>
        <time>2025-05-16T09:09:09Z</time>
      </trkpt>
      <trkpt lat="48.13483" lon="-2.00943">
        <ele>88</ele>
        <time>2025-05-16T09:09:10Z</time>
      </trkpt>
      <trkpt lat="48.13485" lon="-2.00938">
        <ele>88</ele>
        <time>2025-05-16T09:09:11Z</time>
      </trkpt>
      <trkpt lat="48.13488" lon="-2.00932">
        <ele>88</ele>
        <time>2025-05-16T09:09:12Z</time>
      </trkpt>
      <trkpt lat="48.13491" lon="-2.00926">
        <ele>88</ele>
        <time>2025-05-16T09:09:13Z</time>
      </trkpt>
      <trkpt lat="48.13494" lon="-2.00921">
        <ele>88</ele>
        <time>2025-05-16T09:09:14Z</time>
      </trkpt>
      <trkpt lat="48.13496" lon="-2.00916">
        <ele>88</ele>
        <time>2025-05-16T09:09:15Z</time>
      </trkpt>
      <trkpt lat="48.13499" lon="-2.00911">
        <ele>88</ele>
        <time>2025-05-16T09:09:16Z</time>
      </trkpt>
      <trkpt lat="48.13501" lon="-2.00906">
        <ele>88</ele>
        <time>2025-05-16T09:09:17Z</time>
      </trkpt>
      <trkpt lat="48.13504" lon="-2.00902">
        <ele>88</ele>
        <time>2025-05-16T09:09:18Z</time>
      </trkpt>
      <trkpt lat="48.13506" lon="-2.00898">
        <ele>88</ele>
        <time>2025-05-16T09:09:19Z</time>
      </trkpt>
      <trkpt lat="48.13509" lon="-2.00894">
        <ele>88</ele>
        <time>2025-05-16T09:09:20Z</time>
      </trkpt>
      <trkpt lat="48.13511" lon="-2.0089">
        <ele>89</ele>
        <time>2025-05-16T09:09:21Z</time>
      </trkpt>
      <trkpt lat="48.13513" lon="-2.00886">
        <ele>90</ele>
        <time>2025-05-16T09:09:22Z</time>
      </trkpt>
      <trkpt lat="48.13514" lon="-2.00882">
        <ele>90</ele>
        <time>2025-05-16T09:09:23Z</time>
      </trkpt>
      <trkpt lat="48.13516" lon="-2.00879">
        <ele>90</ele>
        <time>2025-05-16T09:09:24Z</time>
      </trkpt>
      <trkpt lat="48.13517" lon="-2.00876">
        <ele>91</ele>
        <time>2025-05-16T09:09:25Z</time>
      </trkpt>
      <trkpt lat="48.13518" lon="-2.00873">
        <ele>91</ele>
        <time>2025-05-16T09:09:26Z</time>
      </trkpt>
      <trkpt lat="48.1352" lon="-2.0087">
        <ele>91</ele>
        <time>2025-05-16T09:09:27Z</time>
      </trkpt>
      <trkpt lat="48.13522" lon="-2.00867">
        <ele>91</ele>
        <time>2025-05-16T09:09:28Z</time>
      </trkpt>
      <trkpt lat="48.13524" lon="-2.00863">
        <ele>91</ele>
        <time>2025-05-16T09:09:29Z</time>
      </trkpt>
      <trkpt lat="48.13526" lon="-2.0086">
        <ele>91</ele>
        <time>2025-05-16T09:09:30Z</time>
      </trkpt>
      <trkpt lat="48.13527" lon="-2.00857">
        <ele>91</ele>
        <time>2025-05-16T09:09:31Z</time>
      </trkpt>
      <trkpt lat="48.1353" lon="-2.00854">
        <ele>91</ele>
        <time>2025-05-16T09:09:32Z</time>
      </trkpt>
      <trkpt lat="48.13532" lon="-2.00852">
        <ele>91</ele>
        <time>2025-05-16T09:09:33Z</time>
      </trkpt>
      <trkpt lat="48.13534" lon="-2.00849">
        <ele>91</ele>
        <time>2025-05-16T09:09:34Z</time>
      </trkpt>
      <trkpt lat="48.13536" lon="-2.00846">
        <ele>91</ele>
        <time>2025-05-16T09:09:35Z</time>
      </trkpt>
      <trkpt lat="48.13538" lon="-2.00844">
        <ele>91</ele>
        <time>2025-05-16T09:09:36Z</time>
      </trkpt>
      <trkpt lat="48.1354" lon="-2.00841">
        <ele>91</ele>
        <time>2025-05-16T09:09:37Z</time>
      </trkpt>
      <trkpt lat="48.13542" lon="-2.00839">
        <ele>92</ele>
        <time>2025-05-16T09:09:38Z</time>
      </trkpt>
      <trkpt lat="48.13544" lon="-2.00837">
        <ele>92</ele>
        <time>2025-05-16T09:09:39Z</time>
      </trkpt>
      <trkpt lat="48.13546" lon="-2.00835">
        <ele>92</ele>
        <time>2025-05-16T09:09:40Z</time>
      </trkpt>
      <trkpt lat="48.13548" lon="-2.00832">
        <ele>92</ele>
        <time>2025-05-16T09:09:41Z</time>
      </trkpt>
      <trkpt lat="48.1355" lon="-2.0083">
        <ele>92</ele>
        <time>2025-05-16T09:09:42Z</time>
      </trkpt>
      <trkpt lat="48.13552" lon="-2.00827">
        <ele>92</ele>
        <time>2025-05-16T09:09:43Z</time>
      </trkpt>
      <trkpt lat="48.13554" lon="-2.00824">
        <ele>93</ele>
        <time>2025-05-16T09:09:44Z</time>
      </trkpt>
      <trkpt lat="48.13555" lon="-2.0082">
        <ele>94</ele>
        <time>2025-05-16T09:09:45Z</time>
      </trkpt>
      <trkpt lat="48.13558" lon="-2.00818">
        <ele>94</ele>
        <time>2025-05-16T09:09:46Z</time>
      </trkpt>
      <trkpt lat="48.13559" lon="-2.00814">
        <ele>94</ele>
        <time>2025-05-16T09:09:47Z</time>
      </trkpt>
      <trkpt lat="48.13561" lon="-2.00811">
        <ele>95</ele>
        <time>2025-05-16T09:09:48Z</time>
      </trkpt>
      <trkpt lat="48.13562" lon="-2.00807">
        <ele>95</ele>
        <time>2025-05-16T09:09:49Z</time>
      </trkpt>
      <trkpt lat="48.13563" lon="-2.00804">
        <ele>96</ele>
        <time>2025-05-16T09:09:50Z</time>
      </trkpt>
      <trkpt lat="48.13564" lon="-2.008">
        <ele>96</ele>
        <time>2025-05-16T09:09:51Z</time>
      </trkpt>
      <trkpt lat="48.13565" lon="-2.00797">
        <ele>96</ele>
        <time>2025-05-16T09:09:52Z</time>
      </trkpt>
      <trkpt lat="48.13567" lon="-2.00793">
        <ele>96</ele>
        <time>2025-05-16T09:09:53Z</time>
      </trkpt>
      <trkpt lat="48.13568" lon="-2.0079">
        <ele>97</ele>
        <time>2025-05-16T09:09:54Z</time>
      </trkpt>
      <trkpt lat="48.13569" lon="-2.00786">
        <ele>97</ele>
        <time>2025-05-16T09:09:55Z</time>
      </trkpt>
      <trkpt lat="48.13571" lon="-2.00783">
        <ele>97</ele>
        <time>2025-05-16T09:09:56Z</time>
      </trkpt>
      <trkpt lat="48.13572" lon="-2.0078">
        <ele>97</ele>
        <time>2025-05-16T09:09:57Z</time>
      </trkpt>
      <trkpt lat="48.13573" lon="-2.00776">
        <ele>97</ele>
        <time>2025-05-16T09:09:58Z</time>
      </trkpt>
      <trkpt lat="48.13575" lon="-2.00773">
        <ele>97</ele>
        <time>2025-05-16T09:09:59Z</time>
      </trkpt>
      <trkpt lat="48.13576" lon="-2.00771">
        <ele>97</ele>
        <time>2025-05-16T09:10:00Z</time>
      </trkpt>
      <trkpt lat="48.13578" lon="-2.00768">
        <ele>97</ele>
        <time>2025-05-16T09:10:01Z</time>
      </trkpt>
      <trkpt lat="48.13579" lon="-2.00765">
        <ele>97</ele>
        <time>2025-05-16T09:10:02Z</time>
      </trkpt>
      <trkpt lat="48.1358" lon="-2.00762">
        <ele>97</ele>
        <time>2025-05-16T09:10:03Z</time>
      </trkpt>
      <trkpt lat="48.13581" lon="-2.00759">
        <ele>97</ele>
        <time>2025-05-16T09:10:04Z</time>
      </trkpt>
      <trkpt lat="48.13583" lon="-2.00757">
        <ele>97</ele>
        <time>2025-05-16T09:10:05Z</time>
      </trkpt>
      <trkpt lat="48.13584" lon="-2.00754">
        <ele>97</ele>
        <time>2025-05-16T09:10:06Z</time>
      </trkpt>
      <trkpt lat="48.13585" lon="-2.00751">
        <ele>97</ele>
        <time>2025-05-16T09:10:07Z</time>
      </trkpt>
      <trkpt lat="48.13586" lon="-2.00748">
        <ele>97</ele>
        <time>2025-05-16T09:10:08Z</time>
      </trkpt>
      <trkpt lat="48.13588" lon="-2.00746">
        <ele>97</ele>
        <time>2025-05-16T09:10:09Z</time>
      </trkpt>
      <trkpt lat="48.13589" lon="-2.00743">
        <ele>98</ele>
        <time>2025-05-16T09:10:10Z</time>
      </trkpt>
      <trkpt lat="48.1359" lon="-2.0074">
        <ele>98</ele>
        <time>2025-05-16T09:10:11Z</time>
      </trkpt>
      <trkpt lat="48.13591" lon="-2.00737">
        <ele>97</ele>
        <time>2025-05-16T09:10:12Z</time>
      </trkpt>
      <trkpt lat="48.13592" lon="-2.00735">
        <ele>97</ele>
        <time>2025-05-16T09:10:13Z</time>
      </trkpt>
      <trkpt lat="48.13594" lon="-2.00732">
        <ele>97</ele>
        <time>2025-05-16T09:10:14Z</time>
      </trkpt>
      <trkpt lat="48.13595" lon="-2.00729">
        <ele>97</ele>
        <time>2025-05-16T09:10:15Z</time>
      </trkpt>
      <trkpt lat="48.13596" lon="-2.00726">
        <ele>97</ele>
        <time>2025-05-16T09:10:16Z</time>
      </trkpt>
      <trkpt lat="48.13598" lon="-2.00724">
        <ele>97</ele>
        <time>2025-05-16T09:10:17Z</time>
      </trkpt>
      <trkpt lat="48.13599" lon="-2.00721">
        <ele>98</ele>
        <time>2025-05-16T09:10:18Z</time>
      </trkpt>
      <trkpt lat="48.136" lon="-2.00718">
        <ele>98</ele>
        <time>2025-05-16T09:10:19Z</time>
      </trkpt>
      <trkpt lat="48.13601" lon="-2.00715">
        <ele>98</ele>
        <time>2025-05-16T09:10:20Z</time>
      </trkpt>
      <trkpt lat="48.13602" lon="-2.00713">
        <ele>98</ele>
        <time>2025-05-16T09:10:21Z</time>
      </trkpt>
      <trkpt lat="48.13603" lon="-2.0071">
        <ele>97</ele>
        <time>2025-05-16T09:10:22Z</time>
      </trkpt>
      <trkpt lat="48.13604" lon="-2.00707">
        <ele>97</ele>
        <time>2025-05-16T09:10:23Z</time>
      </trkpt>
      <trkpt lat="48.13606" lon="-2.00704">
        <ele>97</ele>
        <time>2025-05-16T09:10:24Z</time>
      </trkpt>
      <trkpt lat="48.13607" lon="-2.00702">
        <ele>98</ele>
        <time>2025-05-16T09:10:25Z</time>
      </trkpt>
      <trkpt lat="48.13608" lon="-2.00698">
        <ele>98</ele>
        <time>2025-05-16T09:10:26Z</time>
      </trkpt>
      <trkpt lat="48.13609" lon="-2.00695">
        <ele>98</ele>
        <time>2025-05-16T09:10:27Z</time>
      </trkpt>
      <trkpt lat="48.1361" lon="-2.00693">
        <ele>98</ele>
        <time>2025-05-16T09:10:28Z</time>
      </trkpt>
      <trkpt lat="48.13612" lon="-2.0069">
        <ele>98</ele>
        <time>2025-05-16T09:10:29Z</time>
      </trkpt>
      <trkpt lat="48.13613" lon="-2.00688">
        <ele>98</ele>
        <time>2025-05-16T09:10:30Z</time>
      </trkpt>
      <trkpt lat="48.13614" lon="-2.00685">
        <ele>98</ele>
        <time>2025-05-16T09:10:31Z</time>
      </trkpt>
      <trkpt lat="48.13616" lon="-2.00682">
        <ele>98</ele>
        <time>2025-05-16T09:10:32Z</time>
      </trkpt>
      <trkpt lat="48.13617" lon="-2.0068">
        <ele>98</ele>
        <time>2025-05-16T09:10:33Z</time>
      </trkpt>
      <trkpt lat="48.13618" lon="-2.00677">
        <ele>99</ele>
        <time>2025-05-16T09:10:34Z</time>
      </trkpt>
      <trkpt lat="48.13619" lon="-2.00674">
        <ele>99</ele>
        <time>2025-05-16T09:10:35Z</time>
      </trkpt>
      <trkpt lat="48.1362" lon="-2.00672">
        <ele>99</ele>
        <time>2025-05-16T09:10:36Z</time>
      </trkpt>
      <trkpt lat="48.13621" lon="-2.00669">
        <ele>99</ele>
        <time>2025-05-16T09:10:37Z</time>
      </trkpt>
      <trkpt lat="48.13623" lon="-2.00666">
        <ele>99</ele>
        <time>2025-05-16T09:10:38Z</time>
      </trkpt>
      <trkpt lat="48.13624" lon="-2.00663">
        <ele>100</ele>
        <time>2025-05-16T09:10:39Z</time>
      </trkpt>
      <trkpt lat="48.13625" lon="-2.0066">
        <ele>100</ele>
        <time>2025-05-16T09:10:40Z</time>
      </trkpt>
      <trkpt lat="48.13626" lon="-2.00657">
        <ele>100</ele>
        <time>2025-05-16T09:10:41Z</time>
      </trkpt>
      <trkpt lat="48.13628" lon="-2.00654">
        <ele>100</ele>
        <time>2025-05-16T09:10:42Z</time>
      </trkpt>
      <trkpt lat="48.13629" lon="-2.00651">
        <ele>100</ele>
        <time>2025-05-16T09:10:43Z</time>
      </trkpt>
      <trkpt lat="48.1363" lon="-2.00649">
        <ele>100</ele>
        <time>2025-05-16T09:10:44Z</time>
      </trkpt>
      <trkpt lat="48.13632" lon="-2.00646">
        <ele>100</ele>
        <time>2025-05-16T09:10:45Z</time>
      </trkpt>
      <trkpt lat="48.13633" lon="-2.00643">
        <ele>100</ele>
        <time>2025-05-16T09:10:46Z</time>
      </trkpt>
      <trkpt lat="48.13634" lon="-2.0064">
        <ele>100</ele>
        <time>2025-05-16T09:10:47Z</time>
      </trkpt>
      <trkpt lat="48.13635" lon="-2.00638">
        <ele>100</ele>
        <time>2025-05-16T09:10:48Z</time>
      </trkpt>
      <trkpt lat="48.13636" lon="-2.00635">
        <ele>100</ele>
        <time>2025-05-16T09:10:49Z</time>
      </trkpt>
      <trkpt lat="48.13638" lon="-2.00632">
        <ele>100</ele>
        <time>2025-05-16T09:10:50Z</time>
      </trkpt>
      <trkpt lat="48.13639" lon="-2.00629">
        <ele>100</ele>
        <time>2025-05-16T09:10:51Z</time>
      </trkpt>
      <trkpt lat="48.1364" lon="-2.00627">
        <ele>100</ele>
        <time>2025-05-16T09:10:52Z</time>
      </trkpt>
      <trkpt lat="48.13641" lon="-2.00624">
        <ele>100</ele>
        <time>2025-05-16T09:10:53Z</time>
      </trkpt>
      <trkpt lat="48.13642" lon="-2.00621">
        <ele>100</ele>
        <time>2025-05-16T09:10:54Z</time>
      </trkpt>
      <trkpt lat="48.13643" lon="-2.00618">
        <ele>100</ele>
        <time>2025-05-16T09:10:55Z</time>
      </trkpt>
      <trkpt lat="48.13644" lon="-2.00615">
        <ele>101</ele>
        <time>2025-05-16T09:10:56Z</time>
      </trkpt>
      <trkpt lat="48.13645" lon="-2.00612">
        <ele>101</ele>
        <time>2025-05-16T09:10:57Z</time>
      </trkpt>
      <trkpt lat="48.13646" lon="-2.00609">
        <ele>101</ele>
        <time>2025-05-16T09:10:58Z</time>
      </trkpt>
      <trkpt lat="48.13647" lon="-2.00606">
        <ele>101</ele>
        <time>2025-05-16T09:10:59Z</time>
      </trkpt>
      <trkpt lat="48.13648" lon="-2.00603">
        <ele>101</ele>
        <time>2025-05-16T09:11:00Z</time>
      </trkpt>
      <trkpt lat="48.13649" lon="-2.006">
        <ele>101</ele>
        <time>2025-05-16T09:11:01Z</time>
      </trkpt>
      <trkpt lat="48.1365" lon="-2.00597">
        <ele>101</ele>
        <time>2025-05-16T09:11:02Z</time>
      </trkpt>
      <trkpt lat="48.13651" lon="-2.00594">
        <ele>101</ele>
        <time>2025-05-16T09:11:03Z</time>
      </trkpt>
      <trkpt lat="48.13651" lon="-2.00591">
        <ele>101</ele>
        <time>2025-05-16T09:11:04Z</time>
      </trkpt>
      <trkpt lat="48.13652" lon="-2.00587">
        <ele>101</ele>
        <time>2025-05-16T09:11:05Z</time>
      </trkpt>
      <trkpt lat="48.13652" lon="-2.00584">
        <ele>101</ele>
        <time>2025-05-16T09:11:06Z</time>
      </trkpt>
      <trkpt lat="48.13653" lon="-2.0058">
        <ele>101</ele>
        <time>2025-05-16T09:11:07Z</time>
      </trkpt>
      <trkpt lat="48.13654" lon="-2.00575">
        <ele>101</ele>
        <time>2025-05-16T09:11:08Z</time>
      </trkpt>
      <trkpt lat="48.13655" lon="-2.00572">
        <ele>101</ele>
        <time>2025-05-16T09:11:09Z</time>
      </trkpt>
      <trkpt lat="48.13656" lon="-2.00569">
        <ele>101</ele>
        <time>2025-05-16T09:11:10Z</time>
      </trkpt>
      <trkpt lat="48.13658" lon="-2.00565">
        <ele>101</ele>
        <time>2025-05-16T09:11:11Z</time>
      </trkpt>
      <trkpt lat="48.13659" lon="-2.0056">
        <ele>101</ele>
        <time>2025-05-16T09:11:12Z</time>
      </trkpt>
      <trkpt lat="48.13661" lon="-2.00555">
        <ele>101</ele>
        <time>2025-05-16T09:11:13Z</time>
      </trkpt>
      <trkpt lat="48.13662" lon="-2.0055">
        <ele>101</ele>
        <time>2025-05-16T09:11:14Z</time>
      </trkpt>
      <trkpt lat="48.13664" lon="-2.00544">
        <ele>101</ele>
        <time>2025-05-16T09:11:15Z</time>
      </trkpt>
      <trkpt lat="48.13666" lon="-2.00539">
        <ele>100</ele>
        <time>2025-05-16T09:11:16Z</time>
      </trkpt>
      <trkpt lat="48.13668" lon="-2.00532">
        <ele>100</ele>
        <time>2025-05-16T09:11:17Z</time>
      </trkpt>
      <trkpt lat="48.13669" lon="-2.00526">
        <ele>100</ele>
        <time>2025-05-16T09:11:18Z</time>
      </trkpt>
      <trkpt lat="48.13671" lon="-2.00519">
        <ele>100</ele>
        <time>2025-05-16T09:11:19Z</time>
      </trkpt>
      <trkpt lat="48.13672" lon="-2.00512">
        <ele>100</ele>
        <time>2025-05-16T09:11:20Z</time>
      </trkpt>
      <trkpt lat="48.13674" lon="-2.00504">
        <ele>99</ele>
        <time>2025-05-16T09:11:21Z</time>
      </trkpt>
      <trkpt lat="48.13675" lon="-2.00496">
        <ele>98</ele>
        <time>2025-05-16T09:11:22Z</time>
      </trkpt>
      <trkpt lat="48.13677" lon="-2.00488">
        <ele>98</ele>
        <time>2025-05-16T09:11:23Z</time>
      </trkpt>
      <trkpt lat="48.13678" lon="-2.00479">
        <ele>98</ele>
        <time>2025-05-16T09:11:24Z</time>
      </trkpt>
      <trkpt lat="48.1368" lon="-2.0047">
        <ele>97</ele>
        <time>2025-05-16T09:11:25Z</time>
      </trkpt>
      <trkpt lat="48.13682" lon="-2.0046">
        <ele>97</ele>
        <time>2025-05-16T09:11:26Z</time>
      </trkpt>
      <trkpt lat="48.13683" lon="-2.00451">
        <ele>97</ele>
        <time>2025-05-16T09:11:27Z</time>
      </trkpt>
      <trkpt lat="48.13685" lon="-2.00442">
        <ele>97</ele>
        <time>2025-05-16T09:11:28Z</time>
      </trkpt>
      <trkpt lat="48.13687" lon="-2.00432">
        <ele>96</ele>
        <time>2025-05-16T09:11:29Z</time>
      </trkpt>
      <trkpt lat="48.13689" lon="-2.00422">
        <ele>96</ele>
        <time>2025-05-16T09:11:30Z</time>
      </trkpt>
      <trkpt lat="48.13691" lon="-2.00412">
        <ele>95</ele>
        <time>2025-05-16T09:11:31Z</time>
      </trkpt>
      <trkpt lat="48.13692" lon="-2.00401">
        <ele>95</ele>
        <time>2025-05-16T09:11:32Z</time>
      </trkpt>
      <trkpt lat="48.13693" lon="-2.00391">
        <ele>94</ele>
        <time>2025-05-16T09:11:33Z</time>
      </trkpt>
      <trkpt lat="48.13695" lon="-2.0038">
        <ele>93</ele>
        <time>2025-05-16T09:11:34Z</time>
      </trkpt>
      <trkpt lat="48.13696" lon="-2.00369">
        <ele>93</ele>
        <time>2025-05-16T09:11:35Z</time>
      </trkpt>
      <trkpt lat="48.13697" lon="-2.00358">
        <ele>93</ele>
        <time>2025-05-16T09:11:36Z</time>
      </trkpt>
      <trkpt lat="48.13699" lon="-2.00347">
        <ele>92</ele>
        <time>2025-05-16T09:11:37Z</time>
      </trkpt>
      <trkpt lat="48.137" lon="-2.00337">
        <ele>92</ele>
        <time>2025-05-16T09:11:38Z</time>
      </trkpt>
      <trkpt lat="48.13701" lon="-2.00326">
        <ele>93</ele>
        <time>2025-05-16T09:11:39Z</time>
      </trkpt>
      <trkpt lat="48.13703" lon="-2.00316">
        <ele>93</ele>
        <time>2025-05-16T09:11:40Z</time>
      </trkpt>
      <trkpt lat="48.13704" lon="-2.00306">
        <ele>93</ele>
        <time>2025-05-16T09:11:41Z</time>
      </trkpt>
      <trkpt lat="48.13705" lon="-2.00296">
        <ele>92</ele>
        <time>2025-05-16T09:11:42Z</time>
      </trkpt>
      <trkpt lat="48.13707" lon="-2.00286">
        <ele>92</ele>
        <time>2025-05-16T09:11:43Z</time>
      </trkpt>
      <trkpt lat="48.13708" lon="-2.00275">
        <ele>91</ele>
        <time>2025-05-16T09:11:44Z</time>
      </trkpt>
      <trkpt lat="48.1371" lon="-2.00266">
        <ele>91</ele>
        <time>2025-05-16T09:11:45Z</time>
      </trkpt>
      <trkpt lat="48.13711" lon="-2.00256">
        <ele>91</ele>
        <time>2025-05-16T09:11:46Z</time>
      </trkpt>
      <trkpt lat="48.13712" lon="-2.00247">
        <ele>90</ele>
        <time>2025-05-16T09:11:47Z</time>
      </trkpt>
      <trkpt lat="48.13713" lon="-2.00237">
        <ele>90</ele>
        <time>2025-05-16T09:11:48Z</time>
      </trkpt>
      <trkpt lat="48.13715" lon="-2.00227">
        <ele>89</ele>
        <time>2025-05-16T09:11:49Z</time>
      </trkpt>
      <trkpt lat="48.13716" lon="-2.00217">
        <ele>89</ele>
        <time>2025-05-16T09:11:50Z</time>
      </trkpt>
      <trkpt lat="48.13717" lon="-2.00207">
        <ele>88</ele>
        <time>2025-05-16T09:11:51Z</time>
      </trkpt>
      <trkpt lat="48.13718" lon="-2.00197">
        <ele>88</ele>
        <time>2025-05-16T09:11:52Z</time>
      </trkpt>
      <trkpt lat="48.1372" lon="-2.00188">
        <ele>88</ele>
        <time>2025-05-16T09:11:53Z</time>
      </trkpt>
      <trkpt lat="48.13721" lon="-2.00179">
        <ele>88</ele>
        <time>2025-05-16T09:11:54Z</time>
      </trkpt>
      <trkpt lat="48.13722" lon="-2.0017">
        <ele>88</ele>
        <time>2025-05-16T09:11:55Z</time>
      </trkpt>
      <trkpt lat="48.13723" lon="-2.00161">
        <ele>88</ele>
        <time>2025-05-16T09:11:56Z</time>
      </trkpt>
      <trkpt lat="48.13724" lon="-2.00153">
        <ele>88</ele>
        <time>2025-05-16T09:11:57Z</time>
      </trkpt>
      <trkpt lat="48.13725" lon="-2.00143">
        <ele>88</ele>
        <time>2025-05-16T09:11:58Z</time>
      </trkpt>
      <trkpt lat="48.13726" lon="-2.00134">
        <ele>87</ele>
        <time>2025-05-16T09:11:59Z</time>
      </trkpt>
      <trkpt lat="48.13728" lon="-2.00124">
        <ele>87</ele>
        <time>2025-05-16T09:12:00Z</time>
      </trkpt>
      <trkpt lat="48.13729" lon="-2.00115">
        <ele>87</ele>
        <time>2025-05-16T09:12:01Z</time>
      </trkpt>
      <trkpt lat="48.1373" lon="-2.00105">
        <ele>87</ele>
        <time>2025-05-16T09:12:02Z</time>
      </trkpt>
      <trkpt lat="48.13731" lon="-2.00095">
        <ele>87</ele>
        <time>2025-05-16T09:12:03Z</time>
      </trkpt>
      <trkpt lat="48.13733" lon="-2.00086">
        <ele>87</ele>
        <time>2025-05-16T09:12:04Z</time>
      </trkpt>
      <trkpt lat="48.13734" lon="-2.00076">
        <ele>87</ele>
        <time>2025-05-16T09:12:05Z</time>
      </trkpt>
      <trkpt lat="48.13735" lon="-2.00066">
        <ele>87</ele>
        <time>2025-05-16T09:12:06Z</time>
      </trkpt>
      <trkpt lat="48.13737" lon="-2.00057">
        <ele>86</ele>
        <time>2025-05-16T09:12:07Z</time>
      </trkpt>
      <trkpt lat="48.13738" lon="-2.00048">
        <ele>86</ele>
        <time>2025-05-16T09:12:08Z</time>
      </trkpt>
      <trkpt lat="48.13739" lon="-2.00038">
        <ele>87</ele>
        <time>2025-05-16T09:12:09Z</time>
      </trkpt>
      <trkpt lat="48.1374" lon="-2.00029">
        <ele>87</ele>
        <time>2025-05-16T09:12:10Z</time>
      </trkpt>
      <trkpt lat="48.13741" lon="-2.0002">
        <ele>87</ele>
        <time>2025-05-16T09:12:11Z</time>
      </trkpt>
      <trkpt lat="48.13743" lon="-2.00012">
        <ele>87</ele>
        <time>2025-05-16T09:12:12Z</time>
      </trkpt>
      <trkpt lat="48.13744" lon="-2.00004">
        <ele>87</ele>
        <time>2025-05-16T09:12:13Z</time>
      </trkpt>
      <trkpt lat="48.13745" lon="-1.99995">
        <ele>87</ele>
        <time>2025-05-16T09:12:14Z</time>
      </trkpt>
      <trkpt lat="48.13746" lon="-1.99987">
        <ele>87</ele>
        <time>2025-05-16T09:12:15Z</time>
      </trkpt>
      <trkpt lat="48.13747" lon="-1.99979">
        <ele>87</ele>
        <time>2025-05-16T09:12:16Z</time>
      </trkpt>
      <trkpt lat="48.13748" lon="-1.99971">
        <ele>87</ele>
        <time>2025-05-16T09:12:17Z</time>
      </trkpt>
      <trkpt lat="48.13749" lon="-1.99963">
        <ele>87</ele>
        <time>2025-05-16T09:12:18Z</time>
      </trkpt>
      <trkpt lat="48.13751" lon="-1.99955">
        <ele>87</ele>
        <time>2025-05-16T09:12:19Z</time>
      </trkpt>
      <trkpt lat="48.13752" lon="-1.99947">
        <ele>87</ele>
        <time>2025-05-16T09:12:20Z</time>
      </trkpt>
      <trkpt lat="48.13753" lon="-1.99939">
        <ele>87</ele>
        <time>2025-05-16T09:12:21Z</time>
      </trkpt>
      <trkpt lat="48.13754" lon="-1.99931">
        <ele>86</ele>
        <time>2025-05-16T09:12:22Z</time>
      </trkpt>
      <trkpt lat="48.13755" lon="-1.99923">
        <ele>86</ele>
        <time>2025-05-16T09:12:23Z</time>
      </trkpt>
      <trkpt lat="48.13756" lon="-1.99915">
        <ele>86</ele>
        <time>2025-05-16T09:12:24Z</time>
      </trkpt>
      <trkpt lat="48.13757" lon="-1.99907">
        <ele>86</ele>
        <time>2025-05-16T09:12:25Z</time>
      </trkpt>
      <trkpt lat="48.13758" lon="-1.999">
        <ele>86</ele>
        <time>2025-05-16T09:12:26Z</time>
      </trkpt>
      <trkpt lat="48.1376" lon="-1.99892">
        <ele>87</ele>
        <time>2025-05-16T09:12:27Z</time>
      </trkpt>
      <trkpt lat="48.13761" lon="-1.99885">
        <ele>87</ele>
        <time>2025-05-16T09:12:28Z</time>
      </trkpt>
      <trkpt lat="48.13762" lon="-1.99877">
        <ele>87</ele>
        <time>2025-05-16T09:12:29Z</time>
      </trkpt>
      <trkpt lat="48.13763" lon="-1.99869">
        <ele>87</ele>
        <time>2025-05-16T09:12:30Z</time>
      </trkpt>
      <trkpt lat="48.13764" lon="-1.99861">
        <ele>87</ele>
        <time>2025-05-16T09:12:31Z</time>
      </trkpt>
      <trkpt lat="48.13765" lon="-1.99853">
        <ele>87</ele>
        <time>2025-05-16T09:12:32Z</time>
      </trkpt>
      <trkpt lat="48.13766" lon="-1.99845">
        <ele>87</ele>
        <time>2025-05-16T09:12:33Z</time>
      </trkpt>
      <trkpt lat="48.13767" lon="-1.99838">
        <ele>87</ele>
        <time>2025-05-16T09:12:34Z</time>
      </trkpt>
      <trkpt lat="48.13768" lon="-1.99829">
        <ele>87</ele>
        <time>2025-05-16T09:12:35Z</time>
      </trkpt>
      <trkpt lat="48.13769" lon="-1.99821">
        <ele>87</ele>
        <time>2025-05-16T09:12:36Z</time>
      </trkpt>
      <trkpt lat="48.13771" lon="-1.99814">
        <ele>87</ele>
        <time>2025-05-16T09:12:37Z</time>
      </trkpt>
      <trkpt lat="48.13771" lon="-1.99806">
        <ele>87</ele>
        <time>2025-05-16T09:12:38Z</time>
      </trkpt>
      <trkpt lat="48.13773" lon="-1.99799">
        <ele>86</ele>
        <time>2025-05-16T09:12:39Z</time>
      </trkpt>
      <trkpt lat="48.13774" lon="-1.99791">
        <ele>86</ele>
        <time>2025-05-16T09:12:40Z</time>
      </trkpt>
      <trkpt lat="48.13775" lon="-1.99784">
        <ele>86</ele>
        <time>2025-05-16T09:12:41Z</time>
      </trkpt>
      <trkpt lat="48.13776" lon="-1.99776">
        <ele>86</ele>
        <time>2025-05-16T09:12:42Z</time>
      </trkpt>
      <trkpt lat="48.13776" lon="-1.99769">
        <ele>86</ele>
        <time>2025-05-16T09:12:43Z</time>
      </trkpt>
      <trkpt lat="48.13778" lon="-1.99761">
        <ele>86</ele>
        <time>2025-05-16T09:12:44Z</time>
      </trkpt>
      <trkpt lat="48.13778" lon="-1.99753">
        <ele>86</ele>
        <time>2025-05-16T09:12:45Z</time>
      </trkpt>
      <trkpt lat="48.13779" lon="-1.99746">
        <ele>86</ele>
        <time>2025-05-16T09:12:46Z</time>
      </trkpt>
      <trkpt lat="48.1378" lon="-1.99738">
        <ele>86</ele>
        <time>2025-05-16T09:12:47Z</time>
      </trkpt>
      <trkpt lat="48.13781" lon="-1.99731">
        <ele>86</ele>
        <time>2025-05-16T09:12:48Z</time>
      </trkpt>
      <trkpt lat="48.13782" lon="-1.99724">
        <ele>85</ele>
        <time>2025-05-16T09:12:49Z</time>
      </trkpt>
      <trkpt lat="48.13783" lon="-1.99716">
        <ele>85</ele>
        <time>2025-05-16T09:12:50Z</time>
      </trkpt>
      <trkpt lat="48.13784" lon="-1.99709">
        <ele>85</ele>
        <time>2025-05-16T09:12:51Z</time>
      </trkpt>
      <trkpt lat="48.13785" lon="-1.99701">
        <ele>86</ele>
        <time>2025-05-16T09:12:52Z</time>
      </trkpt>
      <trkpt lat="48.13786" lon="-1.99693">
        <ele>85</ele>
        <time>2025-05-16T09:12:53Z</time>
      </trkpt>
      <trkpt lat="48.13787" lon="-1.99685">
        <ele>86</ele>
        <time>2025-05-16T09:12:54Z</time>
      </trkpt>
      <trkpt lat="48.13788" lon="-1.99678">
        <ele>86</ele>
        <time>2025-05-16T09:12:55Z</time>
      </trkpt>
      <trkpt lat="48.13789" lon="-1.99671">
        <ele>86</ele>
        <time>2025-05-16T09:12:56Z</time>
      </trkpt>
      <trkpt lat="48.1379" lon="-1.99664">
        <ele>86</ele>
        <time>2025-05-16T09:12:57Z</time>
      </trkpt>
      <trkpt lat="48.13791" lon="-1.99657">
        <ele>86</ele>
        <time>2025-05-16T09:12:58Z</time>
      </trkpt>
      <trkpt lat="48.13792" lon="-1.99649">
        <ele>86</ele>
        <time>2025-05-16T09:12:59Z</time>
      </trkpt>
      <trkpt lat="48.13793" lon="-1.99642">
        <ele>86</ele>
        <time>2025-05-16T09:13:00Z</time>
      </trkpt>
      <trkpt lat="48.13794" lon="-1.99635">
        <ele>86</ele>
        <time>2025-05-16T09:13:01Z</time>
      </trkpt>
      <trkpt lat="48.13796" lon="-1.99628">
        <ele>86</ele>
        <time>2025-05-16T09:13:02Z</time>
      </trkpt>
      <trkpt lat="48.13797" lon="-1.99621">
        <ele>86</ele>
        <time>2025-05-16T09:13:03Z</time>
      </trkpt>
      <trkpt lat="48.13797" lon="-1.99613">
        <ele>86</ele>
        <time>2025-05-16T09:13:04Z</time>
      </trkpt>
      <trkpt lat="48.13799" lon="-1.99606">
        <ele>86</ele>
        <time>2025-05-16T09:13:05Z</time>
      </trkpt>
      <trkpt lat="48.138" lon="-1.99599">
        <ele>85</ele>
        <time>2025-05-16T09:13:06Z</time>
      </trkpt>
      <trkpt lat="48.13801" lon="-1.99591">
        <ele>85</ele>
        <time>2025-05-16T09:13:07Z</time>
      </trkpt>
      <trkpt lat="48.13801" lon="-1.99584">
        <ele>86</ele>
        <time>2025-05-16T09:13:08Z</time>
      </trkpt>
      <trkpt lat="48.13802" lon="-1.99576">
        <ele>86</ele>
        <time>2025-05-16T09:13:09Z</time>
      </trkpt>
      <trkpt lat="48.13803" lon="-1.99569">
        <ele>86</ele>
        <time>2025-05-16T09:13:10Z</time>
      </trkpt>
      <trkpt lat="48.13805" lon="-1.99562">
        <ele>86</ele>
        <time>2025-05-16T09:13:11Z</time>
      </trkpt>
      <trkpt lat="48.13805" lon="-1.99555">
        <ele>86</ele>
        <time>2025-05-16T09:13:12Z</time>
      </trkpt>
      <trkpt lat="48.13806" lon="-1.99548">
        <ele>86</ele>
        <time>2025-05-16T09:13:13Z</time>
      </trkpt>
      <trkpt lat="48.13807" lon="-1.9954">
        <ele>86</ele>
        <time>2025-05-16T09:13:14Z</time>
      </trkpt>
      <trkpt lat="48.13808" lon="-1.99533">
        <ele>86</ele>
        <time>2025-05-16T09:13:15Z</time>
      </trkpt>
      <trkpt lat="48.13809" lon="-1.99526">
        <ele>86</ele>
        <time>2025-05-16T09:13:16Z</time>
      </trkpt>
      <trkpt lat="48.1381" lon="-1.99518">
        <ele>86</ele>
        <time>2025-05-16T09:13:17Z</time>
      </trkpt>
      <trkpt lat="48.13812" lon="-1.99511">
        <ele>86</ele>
        <time>2025-05-16T09:13:18Z</time>
      </trkpt>
      <trkpt lat="48.13813" lon="-1.99503">
        <ele>85</ele>
        <time>2025-05-16T09:13:19Z</time>
      </trkpt>
      <trkpt lat="48.13814" lon="-1.99496">
        <ele>85</ele>
        <time>2025-05-16T09:13:20Z</time>
      </trkpt>
      <trkpt lat="48.13815" lon="-1.99489">
        <ele>85</ele>
        <time>2025-05-16T09:13:21Z</time>
      </trkpt>
      <trkpt lat="48.13816" lon="-1.99482">
        <ele>85</ele>
        <time>2025-05-16T09:13:22Z</time>
      </trkpt>
      <trkpt lat="48.13817" lon="-1.99475">
        <ele>85</ele>
        <time>2025-05-16T09:13:23Z</time>
      </trkpt>
      <trkpt lat="48.13818" lon="-1.99467">
        <ele>85</ele>
        <time>2025-05-16T09:13:24Z</time>
      </trkpt>
      <trkpt lat="48.13819" lon="-1.9946">
        <ele>85</ele>
        <time>2025-05-16T09:13:25Z</time>
      </trkpt>
      <trkpt lat="48.1382" lon="-1.99452">
        <ele>85</ele>
        <time>2025-05-16T09:13:26Z</time>
      </trkpt>
      <trkpt lat="48.13821" lon="-1.99445">
        <ele>85</ele>
        <time>2025-05-16T09:13:27Z</time>
      </trkpt>
      <trkpt lat="48.13822" lon="-1.99438">
        <ele>85</ele>
        <time>2025-05-16T09:13:28Z</time>
      </trkpt>
      <trkpt lat="48.13823" lon="-1.9943">
        <ele>85</ele>
        <time>2025-05-16T09:13:29Z</time>
      </trkpt>
      <trkpt lat="48.13824" lon="-1.99423">
        <ele>85</ele>
        <time>2025-05-16T09:13:30Z</time>
      </trkpt>
      <trkpt lat="48.13824" lon="-1.99416">
        <ele>85</ele>
        <time>2025-05-16T09:13:31Z</time>
      </trkpt>
      <trkpt lat="48.13825" lon="-1.99409">
        <ele>85</ele>
        <time>2025-05-16T09:13:32Z</time>
      </trkpt>
      <trkpt lat="48.13827" lon="-1.99402">
        <ele>85</ele>
        <time>2025-05-16T09:13:33Z</time>
      </trkpt>
      <trkpt lat="48.13828" lon="-1.99395">
        <ele>85</ele>
        <time>2025-05-16T09:13:34Z</time>
      </trkpt>
      <trkpt lat="48.13829" lon="-1.99388">
        <ele>85</ele>
        <time>2025-05-16T09:13:35Z</time>
      </trkpt>
      <trkpt lat="48.1383" lon="-1.99382">
        <ele>85</ele>
        <time>2025-05-16T09:13:36Z</time>
      </trkpt>
      <trkpt lat="48.1383" lon="-1.99376">
        <ele>85</ele>
        <time>2025-05-16T09:13:37Z</time>
      </trkpt>
      <trkpt lat="48.13831" lon="-1.9937">
        <ele>85</ele>
        <time>2025-05-16T09:13:38Z</time>
      </trkpt>
      <trkpt lat="48.13832" lon="-1.99364">
        <ele>85</ele>
        <time>2025-05-16T09:13:39Z</time>
      </trkpt>
      <trkpt lat="48.13833" lon="-1.99358">
        <ele>85</ele>
        <time>2025-05-16T09:13:40Z</time>
      </trkpt>
      <trkpt lat="48.13834" lon="-1.99351">
        <ele>86</ele>
        <time>2025-05-16T09:13:41Z</time>
      </trkpt>
      <trkpt lat="48.13835" lon="-1.99345">
        <ele>85</ele>
        <time>2025-05-16T09:13:42Z</time>
      </trkpt>
      <trkpt lat="48.13836" lon="-1.99339">
        <ele>85</ele>
        <time>2025-05-16T09:13:43Z</time>
      </trkpt>
      <trkpt lat="48.13836" lon="-1.99333">
        <ele>85</ele>
        <time>2025-05-16T09:13:44Z</time>
      </trkpt>
      <trkpt lat="48.13835" lon="-1.99327">
        <ele>85</ele>
        <time>2025-05-16T09:13:45Z</time>
      </trkpt>
      <trkpt lat="48.13835" lon="-1.9932">
        <ele>84</ele>
        <time>2025-05-16T09:13:46Z</time>
      </trkpt>
      <trkpt lat="48.13836" lon="-1.99314">
        <ele>84</ele>
        <time>2025-05-16T09:13:47Z</time>
      </trkpt>
      <trkpt lat="48.13836" lon="-1.99309">
        <ele>85</ele>
        <time>2025-05-16T09:13:48Z</time>
      </trkpt>
      <trkpt lat="48.13838" lon="-1.99303">
        <ele>85</ele>
        <time>2025-05-16T09:13:49Z</time>
      </trkpt>
      <trkpt lat="48.13839" lon="-1.99297">
        <ele>85</ele>
        <time>2025-05-16T09:13:50Z</time>
      </trkpt>
      <trkpt lat="48.13839" lon="-1.99291">
        <ele>85</ele>
        <time>2025-05-16T09:13:51Z</time>
      </trkpt>
      <trkpt lat="48.1384" lon="-1.99285">
        <ele>85</ele>
        <time>2025-05-16T09:13:52Z</time>
      </trkpt>
      <trkpt lat="48.13841" lon="-1.99279">
        <ele>86</ele>
        <time>2025-05-16T09:13:53Z</time>
      </trkpt>
      <trkpt lat="48.13842" lon="-1.99273">
        <ele>86</ele>
        <time>2025-05-16T09:13:54Z</time>
      </trkpt>
      <trkpt lat="48.13844" lon="-1.99267">
        <ele>86</ele>
        <time>2025-05-16T09:13:55Z</time>
      </trkpt>
      <trkpt lat="48.13845" lon="-1.99261">
        <ele>86</ele>
        <time>2025-05-16T09:13:56Z</time>
      </trkpt>
      <trkpt lat="48.13845" lon="-1.99255">
        <ele>86</ele>
        <time>2025-05-16T09:13:57Z</time>
      </trkpt>
      <trkpt lat="48.13846" lon="-1.99249">
        <ele>86</ele>
        <time>2025-05-16T09:13:58Z</time>
      </trkpt>
      <trkpt lat="48.13847" lon="-1.99244">
        <ele>86</ele>
        <time>2025-05-16T09:13:59Z</time>
      </trkpt>
      <trkpt lat="48.13848" lon="-1.99238">
        <ele>86</ele>
        <time>2025-05-16T09:14:00Z</time>
      </trkpt>
      <trkpt lat="48.13848" lon="-1.99233">
        <ele>86</ele>
        <time>2025-05-16T09:14:01Z</time>
      </trkpt>
      <trkpt lat="48.13849" lon="-1.99228">
        <ele>86</ele>
        <time>2025-05-16T09:14:02Z</time>
      </trkpt>
      <trkpt lat="48.1385" lon="-1.99223">
        <ele>86</ele>
        <time>2025-05-16T09:14:03Z</time>
      </trkpt>
      <trkpt lat="48.13851" lon="-1.99217">
        <ele>86</ele>
        <time>2025-05-16T09:14:04Z</time>
      </trkpt>
      <trkpt lat="48.13852" lon="-1.99212">
        <ele>86</ele>
        <time>2025-05-16T09:14:05Z</time>
      </trkpt>
      <trkpt lat="48.13853" lon="-1.99207">
        <ele>86</ele>
        <time>2025-05-16T09:14:06Z</time>
      </trkpt>
      <trkpt lat="48.13853" lon="-1.99201">
        <ele>86</ele>
        <time>2025-05-16T09:14:07Z</time>
      </trkpt>
      <trkpt lat="48.13854" lon="-1.99195">
        <ele>85</ele>
        <time>2025-05-16T09:14:08Z</time>
      </trkpt>
      <trkpt lat="48.13855" lon="-1.9919">
        <ele>85</ele>
        <time>2025-05-16T09:14:09Z</time>
      </trkpt>
      <trkpt lat="48.13856" lon="-1.99184">
        <ele>85</ele>
        <time>2025-05-16T09:14:10Z</time>
      </trkpt>
      <trkpt lat="48.13857" lon="-1.99178">
        <ele>85</ele>
        <time>2025-05-16T09:14:11Z</time>
      </trkpt>
      <trkpt lat="48.13858" lon="-1.99172">
        <ele>85</ele>
        <time>2025-05-16T09:14:12Z</time>
      </trkpt>
      <trkpt lat="48.13858" lon="-1.99166">
        <ele>85</ele>
        <time>2025-05-16T09:14:13Z</time>
      </trkpt>
      <trkpt lat="48.13858" lon="-1.9916">
        <ele>85</ele>
        <time>2025-05-16T09:14:14Z</time>
      </trkpt>
      <trkpt lat="48.13858" lon="-1.99154">
        <ele>85</ele>
        <time>2025-05-16T09:14:15Z</time>
      </trkpt>
      <trkpt lat="48.13858" lon="-1.99148">
        <ele>85</ele>
        <time>2025-05-16T09:14:16Z</time>
      </trkpt>
      <trkpt lat="48.13859" lon="-1.99142">
        <ele>85</ele>
        <time>2025-05-16T09:14:17Z</time>
      </trkpt>
      <trkpt lat="48.13859" lon="-1.99137">
        <ele>85</ele>
        <time>2025-05-16T09:14:18Z</time>
      </trkpt>
      <trkpt lat="48.13859" lon="-1.99131">
        <ele>85</ele>
        <time>2025-05-16T09:14:19Z</time>
      </trkpt>
      <trkpt lat="48.1386" lon="-1.99125">
        <ele>85</ele>
        <time>2025-05-16T09:14:20Z</time>
      </trkpt>
      <trkpt lat="48.1386" lon="-1.99119">
        <ele>85</ele>
        <time>2025-05-16T09:14:21Z</time>
      </trkpt>
      <trkpt lat="48.1386" lon="-1.99113">
        <ele>85</ele>
        <time>2025-05-16T09:14:22Z</time>
      </trkpt>
      <trkpt lat="48.1386" lon="-1.99107">
        <ele>85</ele>
        <time>2025-05-16T09:14:23Z</time>
      </trkpt>
      <trkpt lat="48.1386" lon="-1.99103">
        <ele>85</ele>
        <time>2025-05-16T09:14:24Z</time>
      </trkpt>
      <trkpt lat="48.1386" lon="-1.99097">
        <ele>86</ele>
        <time>2025-05-16T09:14:25Z</time>
      </trkpt>
      <trkpt lat="48.13859" lon="-1.99092">
        <ele>86</ele>
        <time>2025-05-16T09:14:26Z</time>
      </trkpt>
      <trkpt lat="48.13859" lon="-1.99088">
        <ele>86</ele>
        <time>2025-05-16T09:14:27Z</time>
      </trkpt>
      <trkpt lat="48.13857" lon="-1.99084">
        <ele>86</ele>
        <time>2025-05-16T09:14:28Z</time>
      </trkpt>
      <trkpt lat="48.13856" lon="-1.99081">
        <ele>86</ele>
        <time>2025-05-16T09:14:29Z</time>
      </trkpt>
      <trkpt lat="48.13855" lon="-1.99077">
        <ele>86</ele>
        <time>2025-05-16T09:14:30Z</time>
      </trkpt>
      <trkpt lat="48.13855" lon="-1.99073">
        <ele>86</ele>
        <time>2025-05-16T09:14:31Z</time>
      </trkpt>
      <trkpt lat="48.13855" lon="-1.99069">
        <ele>86</ele>
        <time>2025-05-16T09:14:32Z</time>
      </trkpt>
      <trkpt lat="48.13855" lon="-1.99065">
        <ele>86</ele>
        <time>2025-05-16T09:14:33Z</time>
      </trkpt>
      <trkpt lat="48.13855" lon="-1.99059">
        <ele>86</ele>
        <time>2025-05-16T09:14:34Z</time>
      </trkpt>
      <trkpt lat="48.13855" lon="-1.99054">
        <ele>86</ele>
        <time>2025-05-16T09:14:35Z</time>
      </trkpt>
      <trkpt lat="48.13854" lon="-1.99049">
        <ele>86</ele>
        <time>2025-05-16T09:14:36Z</time>
      </trkpt>
      <trkpt lat="48.13855" lon="-1.99044">
        <ele>86</ele>
        <time>2025-05-16T09:14:37Z</time>
      </trkpt>
      <trkpt lat="48.13855" lon="-1.99039">
        <ele>86</ele>
        <time>2025-05-16T09:14:38Z</time>
      </trkpt>
      <trkpt lat="48.13854" lon="-1.99033">
        <ele>86</ele>
        <time>2025-05-16T09:14:39Z</time>
      </trkpt>
      <trkpt lat="48.13854" lon="-1.99028">
        <ele>86</ele>
        <time>2025-05-16T09:14:40Z</time>
      </trkpt>
      <trkpt lat="48.13854" lon="-1.99022">
        <ele>86</ele>
        <time>2025-05-16T09:14:41Z</time>
      </trkpt>
      <trkpt lat="48.13854" lon="-1.99016">
        <ele>87</ele>
        <time>2025-05-16T09:14:42Z</time>
      </trkpt>
      <trkpt lat="48.13854" lon="-1.99011">
        <ele>87</ele>
        <time>2025-05-16T09:14:43Z</time>
      </trkpt>
      <trkpt lat="48.13855" lon="-1.99006">
        <ele>87</ele>
        <time>2025-05-16T09:14:44Z</time>
      </trkpt>
      <trkpt lat="48.13854" lon="-1.99001">
        <ele>88</ele>
        <time>2025-05-16T09:14:45Z</time>
      </trkpt>
      <trkpt lat="48.13854" lon="-1.98996">
        <ele>88</ele>
        <time>2025-05-16T09:14:46Z</time>
      </trkpt>
      <trkpt lat="48.13854" lon="-1.98991">
        <ele>88</ele>
        <time>2025-05-16T09:14:47Z</time>
      </trkpt>
      <trkpt lat="48.13854" lon="-1.98986">
        <ele>89</ele>
        <time>2025-05-16T09:14:48Z</time>
      </trkpt>
      <trkpt lat="48.13854" lon="-1.9898">
        <ele>89</ele>
        <time>2025-05-16T09:14:49Z</time>
      </trkpt>
      <trkpt lat="48.13854" lon="-1.98975">
        <ele>89</ele>
        <time>2025-05-16T09:14:50Z</time>
      </trkpt>
      <trkpt lat="48.13853" lon="-1.9897">
        <ele>88</ele>
        <time>2025-05-16T09:14:51Z</time>
      </trkpt>
      <trkpt lat="48.13851" lon="-1.98965">
        <ele>87</ele>
        <time>2025-05-16T09:14:52Z</time>
      </trkpt>
      <trkpt lat="48.13849" lon="-1.98961">
        <ele>86</ele>
        <time>2025-05-16T09:14:53Z</time>
      </trkpt>
      <trkpt lat="48.13847" lon="-1.98955">
        <ele>85</ele>
        <time>2025-05-16T09:14:54Z</time>
      </trkpt>
      <trkpt lat="48.13845" lon="-1.98948">
        <ele>85</ele>
        <time>2025-05-16T09:14:55Z</time>
      </trkpt>
      <trkpt lat="48.13844" lon="-1.9894">
        <ele>85</ele>
        <time>2025-05-16T09:14:56Z</time>
      </trkpt>
      <trkpt lat="48.13843" lon="-1.98933">
        <ele>85</ele>
        <time>2025-05-16T09:14:57Z</time>
      </trkpt>
      <trkpt lat="48.13843" lon="-1.98926">
        <ele>85</ele>
        <time>2025-05-16T09:14:58Z</time>
      </trkpt>
      <trkpt lat="48.13842" lon="-1.9892">
        <ele>85</ele>
        <time>2025-05-16T09:14:59Z</time>
      </trkpt>
      <trkpt lat="48.13841" lon="-1.98914">
        <ele>85</ele>
        <time>2025-05-16T09:15:00Z</time>
      </trkpt>
      <trkpt lat="48.13841" lon="-1.98908">
        <ele>85</ele>
        <time>2025-05-16T09:15:01Z</time>
      </trkpt>
      <trkpt lat="48.1384" lon="-1.98901">
        <ele>85</ele>
        <time>2025-05-16T09:15:02Z</time>
      </trkpt>
      <trkpt lat="48.1384" lon="-1.98895">
        <ele>85</ele>
        <time>2025-05-16T09:15:03Z</time>
      </trkpt>
      <trkpt lat="48.1384" lon="-1.9889">
        <ele>85</ele>
        <time>2025-05-16T09:15:04Z</time>
      </trkpt>
      <trkpt lat="48.1384" lon="-1.98883">
        <ele>85</ele>
        <time>2025-05-16T09:15:05Z</time>
      </trkpt>
      <trkpt lat="48.13839" lon="-1.98878">
        <ele>85</ele>
        <time>2025-05-16T09:15:06Z</time>
      </trkpt>
      <trkpt lat="48.13839" lon="-1.98872">
        <ele>85</ele>
        <time>2025-05-16T09:15:07Z</time>
      </trkpt>
      <trkpt lat="48.13839" lon="-1.98866">
        <ele>85</ele>
        <time>2025-05-16T09:15:08Z</time>
      </trkpt>
      <trkpt lat="48.13838" lon="-1.9886">
        <ele>86</ele>
        <time>2025-05-16T09:15:09Z</time>
      </trkpt>
      <trkpt lat="48.13837" lon="-1.98854">
        <ele>86</ele>
        <time>2025-05-16T09:15:10Z</time>
      </trkpt>
      <trkpt lat="48.13837" lon="-1.98848">
        <ele>86</ele>
        <time>2025-05-16T09:15:11Z</time>
      </trkpt>
      <trkpt lat="48.13837" lon="-1.98841">
        <ele>86</ele>
        <time>2025-05-16T09:15:12Z</time>
      </trkpt>
      <trkpt lat="48.13836" lon="-1.98835">
        <ele>86</ele>
        <time>2025-05-16T09:15:13Z</time>
      </trkpt>
      <trkpt lat="48.13835" lon="-1.98829">
        <ele>86</ele>
        <time>2025-05-16T09:15:14Z</time>
      </trkpt>
      <trkpt lat="48.13835" lon="-1.98822">
        <ele>86</ele>
        <time>2025-05-16T09:15:15Z</time>
      </trkpt>
      <trkpt lat="48.13835" lon="-1.98815">
        <ele>86</ele>
        <time>2025-05-16T09:15:16Z</time>
      </trkpt>
      <trkpt lat="48.13834" lon="-1.98808">
        <ele>86</ele>
        <time>2025-05-16T09:15:17Z</time>
      </trkpt>
      <trkpt lat="48.13833" lon="-1.98801">
        <ele>87</ele>
        <time>2025-05-16T09:15:18Z</time>
      </trkpt>
      <trkpt lat="48.13833" lon="-1.98795">
        <ele>87</ele>
        <time>2025-05-16T09:15:19Z</time>
      </trkpt>
      <trkpt lat="48.13832" lon="-1.98789">
        <ele>87</ele>
        <time>2025-05-16T09:15:20Z</time>
      </trkpt>
      <trkpt lat="48.13832" lon="-1.98782">
        <ele>87</ele>
        <time>2025-05-16T09:15:21Z</time>
      </trkpt>
      <trkpt lat="48.13831" lon="-1.98776">
        <ele>86</ele>
        <time>2025-05-16T09:15:22Z</time>
      </trkpt>
      <trkpt lat="48.1383" lon="-1.9877">
        <ele>86</ele>
        <time>2025-05-16T09:15:23Z</time>
      </trkpt>
      <trkpt lat="48.1383" lon="-1.98764">
        <ele>86</ele>
        <time>2025-05-16T09:15:24Z</time>
      </trkpt>
      <trkpt lat="48.13829" lon="-1.98758">
        <ele>86</ele>
        <time>2025-05-16T09:15:25Z</time>
      </trkpt>
      <trkpt lat="48.13829" lon="-1.98752">
        <ele>86</ele>
        <time>2025-05-16T09:15:26Z</time>
      </trkpt>
      <trkpt lat="48.13829" lon="-1.98746">
        <ele>86</ele>
        <time>2025-05-16T09:15:27Z</time>
      </trkpt>
      <trkpt lat="48.13828" lon="-1.9874">
        <ele>86</ele>
        <time>2025-05-16T09:15:28Z</time>
      </trkpt>
      <trkpt lat="48.13828" lon="-1.98735">
        <ele>86</ele>
        <time>2025-05-16T09:15:29Z</time>
      </trkpt>
      <trkpt lat="48.13828" lon="-1.98729">
        <ele>86</ele>
        <time>2025-05-16T09:15:30Z</time>
      </trkpt>
      <trkpt lat="48.13827" lon="-1.98723">
        <ele>86</ele>
        <time>2025-05-16T09:15:31Z</time>
      </trkpt>
      <trkpt lat="48.13827" lon="-1.98718">
        <ele>86</ele>
        <time>2025-05-16T09:15:32Z</time>
      </trkpt>
      <trkpt lat="48.13826" lon="-1.98712">
        <ele>86</ele>
        <time>2025-05-16T09:15:33Z</time>
      </trkpt>
      <trkpt lat="48.13826" lon="-1.98706">
        <ele>86</ele>
        <time>2025-05-16T09:15:34Z</time>
      </trkpt>
      <trkpt lat="48.13825" lon="-1.98701">
        <ele>86</ele>
        <time>2025-05-16T09:15:35Z</time>
      </trkpt>
      <trkpt lat="48.13824" lon="-1.98695">
        <ele>86</ele>
        <time>2025-05-16T09:15:36Z</time>
      </trkpt>
      <trkpt lat="48.13824" lon="-1.98689">
        <ele>85</ele>
        <time>2025-05-16T09:15:37Z</time>
      </trkpt>
      <trkpt lat="48.13824" lon="-1.98683">
        <ele>85</ele>
        <time>2025-05-16T09:15:38Z</time>
      </trkpt>
      <trkpt lat="48.13824" lon="-1.98677">
        <ele>85</ele>
        <time>2025-05-16T09:15:39Z</time>
      </trkpt>
      <trkpt lat="48.13823" lon="-1.9867">
        <ele>85</ele>
        <time>2025-05-16T09:15:40Z</time>
      </trkpt>
      <trkpt lat="48.13822" lon="-1.98664">
        <ele>86</ele>
        <time>2025-05-16T09:15:41Z</time>
      </trkpt>
      <trkpt lat="48.13822" lon="-1.98658">
        <ele>86</ele>
        <time>2025-05-16T09:15:42Z</time>
      </trkpt>
      <trkpt lat="48.13821" lon="-1.98652">
        <ele>86</ele>
        <time>2025-05-16T09:15:43Z</time>
      </trkpt>
      <trkpt lat="48.1382" lon="-1.98645">
        <ele>86</ele>
        <time>2025-05-16T09:15:44Z</time>
      </trkpt>
      <trkpt lat="48.1382" lon="-1.98639">
        <ele>85</ele>
        <time>2025-05-16T09:15:45Z</time>
      </trkpt>
      <trkpt lat="48.13819" lon="-1.98633">
        <ele>85</ele>
        <time>2025-05-16T09:15:46Z</time>
      </trkpt>
      <trkpt lat="48.13818" lon="-1.98626">
        <ele>85</ele>
        <time>2025-05-16T09:15:47Z</time>
      </trkpt>
      <trkpt lat="48.13818" lon="-1.98619">
        <ele>85</ele>
        <time>2025-05-16T09:15:48Z</time>
      </trkpt>
      <trkpt lat="48.13817" lon="-1.98613">
        <ele>85</ele>
        <time>2025-05-16T09:15:49Z</time>
      </trkpt>
      <trkpt lat="48.13817" lon="-1.98607">
        <ele>85</ele>
        <time>2025-05-16T09:15:50Z</time>
      </trkpt>
      <trkpt lat="48.13816" lon="-1.98601">
        <ele>85</ele>
        <time>2025-05-16T09:15:51Z</time>
      </trkpt>
      <trkpt lat="48.13815" lon="-1.98594">
        <ele>85</ele>
        <time>2025-05-16T09:15:52Z</time>
      </trkpt>
      <trkpt lat="48.13815" lon="-1.98588">
        <ele>85</ele>
        <time>2025-05-16T09:15:53Z</time>
      </trkpt>
      <trkpt lat="48.13814" lon="-1.98581">
        <ele>85</ele>
        <time>2025-05-16T09:15:54Z</time>
      </trkpt>
      <trkpt lat="48.13813" lon="-1.98575">
        <ele>85</ele>
        <time>2025-05-16T09:15:55Z</time>
      </trkpt>
      <trkpt lat="48.13813" lon="-1.9857">
        <ele>85</ele>
        <time>2025-05-16T09:15:56Z</time>
      </trkpt>
      <trkpt lat="48.13813" lon="-1.98563">
        <ele>85</ele>
        <time>2025-05-16T09:15:57Z</time>
      </trkpt>
      <trkpt lat="48.13812" lon="-1.98557">
        <ele>85</ele>
        <time>2025-05-16T09:15:58Z</time>
      </trkpt>
      <trkpt lat="48.13812" lon="-1.98551">
        <ele>84</ele>
        <time>2025-05-16T09:15:59Z</time>
      </trkpt>
      <trkpt lat="48.13812" lon="-1.98544">
        <ele>85</ele>
        <time>2025-05-16T09:16:00Z</time>
      </trkpt>
      <trkpt lat="48.13812" lon="-1.98538">
        <ele>85</ele>
        <time>2025-05-16T09:16:01Z</time>
      </trkpt>
      <trkpt lat="48.13812" lon="-1.98532">
        <ele>84</ele>
        <time>2025-05-16T09:16:02Z</time>
      </trkpt>
      <trkpt lat="48.13811" lon="-1.98526">
        <ele>84</ele>
        <time>2025-05-16T09:16:03Z</time>
      </trkpt>
      <trkpt lat="48.13811" lon="-1.98519">
        <ele>84</ele>
        <time>2025-05-16T09:16:04Z</time>
      </trkpt>
      <trkpt lat="48.1381" lon="-1.98513">
        <ele>84</ele>
        <time>2025-05-16T09:16:05Z</time>
      </trkpt>
      <trkpt lat="48.1381" lon="-1.98507">
        <ele>84</ele>
        <time>2025-05-16T09:16:06Z</time>
      </trkpt>
      <trkpt lat="48.13809" lon="-1.985">
        <ele>84</ele>
        <time>2025-05-16T09:16:07Z</time>
      </trkpt>
      <trkpt lat="48.13809" lon="-1.98493">
        <ele>84</ele>
        <time>2025-05-16T09:16:08Z</time>
      </trkpt>
      <trkpt lat="48.13808" lon="-1.98487">
        <ele>84</ele>
        <time>2025-05-16T09:16:09Z</time>
      </trkpt>
      <trkpt lat="48.13808" lon="-1.9848">
        <ele>84</ele>
        <time>2025-05-16T09:16:10Z</time>
      </trkpt>
      <trkpt lat="48.13807" lon="-1.98473">
        <ele>84</ele>
        <time>2025-05-16T09:16:11Z</time>
      </trkpt>
      <trkpt lat="48.13807" lon="-1.98466">
        <ele>83</ele>
        <time>2025-05-16T09:16:12Z</time>
      </trkpt>
      <trkpt lat="48.13807" lon="-1.98459">
        <ele>83</ele>
        <time>2025-05-16T09:16:13Z</time>
      </trkpt>
      <trkpt lat="48.13806" lon="-1.98453">
        <ele>83</ele>
        <time>2025-05-16T09:16:14Z</time>
      </trkpt>
      <trkpt lat="48.13806" lon="-1.98446">
        <ele>83</ele>
        <time>2025-05-16T09:16:15Z</time>
      </trkpt>
      <trkpt lat="48.13806" lon="-1.98439">
        <ele>83</ele>
        <time>2025-05-16T09:16:16Z</time>
      </trkpt>
      <trkpt lat="48.13805" lon="-1.98433">
        <ele>84</ele>
        <time>2025-05-16T09:16:17Z</time>
      </trkpt>
      <trkpt lat="48.13805" lon="-1.98426">
        <ele>84</ele>
        <time>2025-05-16T09:16:18Z</time>
      </trkpt>
      <trkpt lat="48.13805" lon="-1.98419">
        <ele>84</ele>
        <time>2025-05-16T09:16:19Z</time>
      </trkpt>
      <trkpt lat="48.13805" lon="-1.98413">
        <ele>85</ele>
        <time>2025-05-16T09:16:20Z</time>
      </trkpt>
      <trkpt lat="48.13805" lon="-1.98407">
        <ele>85</ele>
        <time>2025-05-16T09:16:21Z</time>
      </trkpt>
      <trkpt lat="48.13805" lon="-1.98401">
        <ele>86</ele>
        <time>2025-05-16T09:16:22Z</time>
      </trkpt>
      <trkpt lat="48.13806" lon="-1.98395">
        <ele>86</ele>
        <time>2025-05-16T09:16:23Z</time>
      </trkpt>
      <trkpt lat="48.13806" lon="-1.98388">
        <ele>86</ele>
        <time>2025-05-16T09:16:24Z</time>
      </trkpt>
      <trkpt lat="48.13807" lon="-1.98382">
        <ele>86</ele>
        <time>2025-05-16T09:16:25Z</time>
      </trkpt>
      <trkpt lat="48.13807" lon="-1.98375">
        <ele>86</ele>
        <time>2025-05-16T09:16:26Z</time>
      </trkpt>
      <trkpt lat="48.13808" lon="-1.9837">
        <ele>86</ele>
        <time>2025-05-16T09:16:27Z</time>
      </trkpt>
      <trkpt lat="48.13808" lon="-1.98365">
        <ele>85</ele>
        <time>2025-05-16T09:16:28Z</time>
      </trkpt>
      <trkpt lat="48.13808" lon="-1.98359">
        <ele>85</ele>
        <time>2025-05-16T09:16:29Z</time>
      </trkpt>
      <trkpt lat="48.13808" lon="-1.98353">
        <ele>85</ele>
        <time>2025-05-16T09:16:30Z</time>
      </trkpt>
      <trkpt lat="48.13808" lon="-1.98346">
        <ele>85</ele>
        <time>2025-05-16T09:16:31Z</time>
      </trkpt>
      <trkpt lat="48.13808" lon="-1.9834">
        <ele>85</ele>
        <time>2025-05-16T09:16:32Z</time>
      </trkpt>
      <trkpt lat="48.13808" lon="-1.98334">
        <ele>84</ele>
        <time>2025-05-16T09:16:33Z</time>
      </trkpt>
      <trkpt lat="48.13808" lon="-1.98329">
        <ele>85</ele>
        <time>2025-05-16T09:16:34Z</time>
      </trkpt>
      <trkpt lat="48.13809" lon="-1.98323">
        <ele>85</ele>
        <time>2025-05-16T09:16:35Z</time>
      </trkpt>
      <trkpt lat="48.13809" lon="-1.98317">
        <ele>85</ele>
        <time>2025-05-16T09:16:36Z</time>
      </trkpt>
      <trkpt lat="48.13809" lon="-1.98311">
        <ele>85</ele>
        <time>2025-05-16T09:16:37Z</time>
      </trkpt>
      <trkpt lat="48.13809" lon="-1.98305">
        <ele>85</ele>
        <time>2025-05-16T09:16:38Z</time>
      </trkpt>
      <trkpt lat="48.13809" lon="-1.98299">
        <ele>85</ele>
        <time>2025-05-16T09:16:39Z</time>
      </trkpt>
      <trkpt lat="48.13809" lon="-1.98293">
        <ele>86</ele>
        <time>2025-05-16T09:16:40Z</time>
      </trkpt>
      <trkpt lat="48.1381" lon="-1.98287">
        <ele>86</ele>
        <time>2025-05-16T09:16:41Z</time>
      </trkpt>
      <trkpt lat="48.1381" lon="-1.98281">
        <ele>86</ele>
        <time>2025-05-16T09:16:42Z</time>
      </trkpt>
      <trkpt lat="48.1381" lon="-1.98275">
        <ele>86</ele>
        <time>2025-05-16T09:16:43Z</time>
      </trkpt>
      <trkpt lat="48.1381" lon="-1.98269">
        <ele>86</ele>
        <time>2025-05-16T09:16:44Z</time>
      </trkpt>
      <trkpt lat="48.1381" lon="-1.98263">
        <ele>86</ele>
        <time>2025-05-16T09:16:45Z</time>
      </trkpt>
      <trkpt lat="48.1381" lon="-1.98256">
        <ele>86</ele>
        <time>2025-05-16T09:16:46Z</time>
      </trkpt>
      <trkpt lat="48.13811" lon="-1.98251">
        <ele>86</ele>
        <time>2025-05-16T09:16:47Z</time>
      </trkpt>
      <trkpt lat="48.13811" lon="-1.98245">
        <ele>85</ele>
        <time>2025-05-16T09:16:48Z</time>
      </trkpt>
      <trkpt lat="48.1381" lon="-1.98239">
        <ele>85</ele>
        <time>2025-05-16T09:16:49Z</time>
      </trkpt>
      <trkpt lat="48.1381" lon="-1.98233">
        <ele>85</ele>
        <time>2025-05-16T09:16:50Z</time>
      </trkpt>
      <trkpt lat="48.1381" lon="-1.98227">
        <ele>85</ele>
        <time>2025-05-16T09:16:51Z</time>
      </trkpt>
      <trkpt lat="48.13811" lon="-1.98222">
        <ele>85</ele>
        <time>2025-05-16T09:16:52Z</time>
      </trkpt>
      <trkpt lat="48.13811" lon="-1.98215">
        <ele>85</ele>
        <time>2025-05-16T09:16:53Z</time>
      </trkpt>
      <trkpt lat="48.13811" lon="-1.98209">
        <ele>85</ele>
        <time>2025-05-16T09:16:54Z</time>
      </trkpt>
      <trkpt lat="48.13811" lon="-1.98203">
        <ele>85</ele>
        <time>2025-05-16T09:16:55Z</time>
      </trkpt>
      <trkpt lat="48.13811" lon="-1.98197">
        <ele>85</ele>
        <time>2025-05-16T09:16:56Z</time>
      </trkpt>
      <trkpt lat="48.13811" lon="-1.98191">
        <ele>85</ele>
        <time>2025-05-16T09:16:57Z</time>
      </trkpt>
      <trkpt lat="48.13811" lon="-1.98184">
        <ele>85</ele>
        <time>2025-05-16T09:16:58Z</time>
      </trkpt>
      <trkpt lat="48.13811" lon="-1.98178">
        <ele>85</ele>
        <time>2025-05-16T09:16:59Z</time>
      </trkpt>
      <trkpt lat="48.13812" lon="-1.98171">
        <ele>85</ele>
        <time>2025-05-16T09:17:00Z</time>
      </trkpt>
      <trkpt lat="48.13812" lon="-1.98165">
        <ele>86</ele>
        <time>2025-05-16T09:17:01Z</time>
      </trkpt>
      <trkpt lat="48.13812" lon="-1.98159">
        <ele>86</ele>
        <time>2025-05-16T09:17:02Z</time>
      </trkpt>
      <trkpt lat="48.13813" lon="-1.98153">
        <ele>86</ele>
        <time>2025-05-16T09:17:03Z</time>
      </trkpt>
      <trkpt lat="48.13813" lon="-1.98148">
        <ele>86</ele>
        <time>2025-05-16T09:17:04Z</time>
      </trkpt>
      <trkpt lat="48.13813" lon="-1.98142">
        <ele>86</ele>
        <time>2025-05-16T09:17:05Z</time>
      </trkpt>
      <trkpt lat="48.13813" lon="-1.98137">
        <ele>86</ele>
        <time>2025-05-16T09:17:06Z</time>
      </trkpt>
      <trkpt lat="48.13813" lon="-1.98131">
        <ele>86</ele>
        <time>2025-05-16T09:17:07Z</time>
      </trkpt>
      <trkpt lat="48.13813" lon="-1.98126">
        <ele>86</ele>
        <time>2025-05-16T09:17:08Z</time>
      </trkpt>
      <trkpt lat="48.13813" lon="-1.9812">
        <ele>86</ele>
        <time>2025-05-16T09:17:09Z</time>
      </trkpt>
      <trkpt lat="48.13813" lon="-1.98115">
        <ele>86</ele>
        <time>2025-05-16T09:17:10Z</time>
      </trkpt>
      <trkpt lat="48.13813" lon="-1.98109">
        <ele>86</ele>
        <time>2025-05-16T09:17:11Z</time>
      </trkpt>
      <trkpt lat="48.13814" lon="-1.98103">
        <ele>86</ele>
        <time>2025-05-16T09:17:12Z</time>
      </trkpt>
      <trkpt lat="48.13813" lon="-1.98098">
        <ele>85</ele>
        <time>2025-05-16T09:17:13Z</time>
      </trkpt>
      <trkpt lat="48.13813" lon="-1.98093">
        <ele>85</ele>
        <time>2025-05-16T09:17:14Z</time>
      </trkpt>
      <trkpt lat="48.13813" lon="-1.98088">
        <ele>86</ele>
        <time>2025-05-16T09:17:15Z</time>
      </trkpt>
      <trkpt lat="48.13813" lon="-1.98083">
        <ele>86</ele>
        <time>2025-05-16T09:17:16Z</time>
      </trkpt>
      <trkpt lat="48.13814" lon="-1.98077">
        <ele>86</ele>
        <time>2025-05-16T09:17:17Z</time>
      </trkpt>
      <trkpt lat="48.13814" lon="-1.98071">
        <ele>86</ele>
        <time>2025-05-16T09:17:18Z</time>
      </trkpt>
      <trkpt lat="48.13814" lon="-1.98065">
        <ele>86</ele>
        <time>2025-05-16T09:17:19Z</time>
      </trkpt>
      <trkpt lat="48.13814" lon="-1.98059">
        <ele>86</ele>
        <time>2025-05-16T09:17:20Z</time>
      </trkpt>
      <trkpt lat="48.13815" lon="-1.98053">
        <ele>86</ele>
        <time>2025-05-16T09:17:21Z</time>
      </trkpt>
      <trkpt lat="48.13815" lon="-1.98048">
        <ele>86</ele>
        <time>2025-05-16T09:17:22Z</time>
      </trkpt>
      <trkpt lat="48.13815" lon="-1.98043">
        <ele>86</ele>
        <time>2025-05-16T09:17:23Z</time>
      </trkpt>
      <trkpt lat="48.13815" lon="-1.98038">
        <ele>86</ele>
        <time>2025-05-16T09:17:24Z</time>
      </trkpt>
      <trkpt lat="48.13815" lon="-1.98033">
        <ele>86</ele>
        <time>2025-05-16T09:17:25Z</time>
      </trkpt>
      <trkpt lat="48.13815" lon="-1.98028">
        <ele>86</ele>
        <time>2025-05-16T09:17:26Z</time>
      </trkpt>
      <trkpt lat="48.13814" lon="-1.98022">
        <ele>86</ele>
        <time>2025-05-16T09:17:27Z</time>
      </trkpt>
      <trkpt lat="48.13814" lon="-1.98017">
        <ele>86</ele>
        <time>2025-05-16T09:17:28Z</time>
      </trkpt>
      <trkpt lat="48.13815" lon="-1.98012">
        <ele>87</ele>
        <time>2025-05-16T09:17:29Z</time>
      </trkpt>
      <trkpt lat="48.13815" lon="-1.98007">
        <ele>87</ele>
        <time>2025-05-16T09:17:30Z</time>
      </trkpt>
      <trkpt lat="48.13816" lon="-1.98001">
        <ele>87</ele>
        <time>2025-05-16T09:17:31Z</time>
      </trkpt>
      <trkpt lat="48.13816" lon="-1.97995">
        <ele>86</ele>
        <time>2025-05-16T09:17:32Z</time>
      </trkpt>
      <trkpt lat="48.13817" lon="-1.97988">
        <ele>86</ele>
        <time>2025-05-16T09:17:33Z</time>
      </trkpt>
      <trkpt lat="48.13818" lon="-1.97982">
        <ele>86</ele>
        <time>2025-05-16T09:17:34Z</time>
      </trkpt>
      <trkpt lat="48.13818" lon="-1.97976">
        <ele>86</ele>
        <time>2025-05-16T09:17:35Z</time>
      </trkpt>
      <trkpt lat="48.13818" lon="-1.9797">
        <ele>85</ele>
        <time>2025-05-16T09:17:36Z</time>
      </trkpt>
      <trkpt lat="48.13818" lon="-1.97964">
        <ele>85</ele>
        <time>2025-05-16T09:17:37Z</time>
      </trkpt>
      <trkpt lat="48.13818" lon="-1.97958">
        <ele>86</ele>
        <time>2025-05-16T09:17:38Z</time>
      </trkpt>
      <trkpt lat="48.13818" lon="-1.97952">
        <ele>85</ele>
        <time>2025-05-16T09:17:39Z</time>
      </trkpt>
      <trkpt lat="48.13818" lon="-1.97947">
        <ele>86</ele>
        <time>2025-05-16T09:17:40Z</time>
      </trkpt>
      <trkpt lat="48.13818" lon="-1.97941">
        <ele>85</ele>
        <time>2025-05-16T09:17:41Z</time>
      </trkpt>
      <trkpt lat="48.13818" lon="-1.97936">
        <ele>85</ele>
        <time>2025-05-16T09:17:42Z</time>
      </trkpt>
      <trkpt lat="48.13819" lon="-1.9793">
        <ele>85</ele>
        <time>2025-05-16T09:17:43Z</time>
      </trkpt>
      <trkpt lat="48.13819" lon="-1.97924">
        <ele>85</ele>
        <time>2025-05-16T09:17:44Z</time>
      </trkpt>
      <trkpt lat="48.13818" lon="-1.97917">
        <ele>85</ele>
        <time>2025-05-16T09:17:45Z</time>
      </trkpt>
      <trkpt lat="48.13819" lon="-1.9791">
        <ele>85</ele>
        <time>2025-05-16T09:17:46Z</time>
      </trkpt>
      <trkpt lat="48.13819" lon="-1.97903">
        <ele>85</ele>
        <time>2025-05-16T09:17:47Z</time>
      </trkpt>
      <trkpt lat="48.13819" lon="-1.97897">
        <ele>85</ele>
        <time>2025-05-16T09:17:48Z</time>
      </trkpt>
      <trkpt lat="48.13819" lon="-1.9789">
        <ele>85</ele>
        <time>2025-05-16T09:17:49Z</time>
      </trkpt>
      <trkpt lat="48.13819" lon="-1.97883">
        <ele>85</ele>
        <time>2025-05-16T09:17:50Z</time>
      </trkpt>
      <trkpt lat="48.1382" lon="-1.97876">
        <ele>85</ele>
        <time>2025-05-16T09:17:51Z</time>
      </trkpt>
      <trkpt lat="48.1382" lon="-1.97869">
        <ele>85</ele>
        <time>2025-05-16T09:17:52Z</time>
      </trkpt>
      <trkpt lat="48.1382" lon="-1.97861">
        <ele>85</ele>
        <time>2025-05-16T09:17:53Z</time>
      </trkpt>
      <trkpt lat="48.13821" lon="-1.97855">
        <ele>85</ele>
        <time>2025-05-16T09:17:54Z</time>
      </trkpt>
      <trkpt lat="48.13821" lon="-1.97847">
        <ele>85</ele>
        <time>2025-05-16T09:17:55Z</time>
      </trkpt>
      <trkpt lat="48.13821" lon="-1.9784">
        <ele>85</ele>
        <time>2025-05-16T09:17:56Z</time>
      </trkpt>
      <trkpt lat="48.13821" lon="-1.97833">
        <ele>85</ele>
        <time>2025-05-16T09:17:57Z</time>
      </trkpt>
      <trkpt lat="48.13821" lon="-1.97825">
        <ele>85</ele>
        <time>2025-05-16T09:17:58Z</time>
      </trkpt>
      <trkpt lat="48.13821" lon="-1.97817">
        <ele>86</ele>
        <time>2025-05-16T09:17:59Z</time>
      </trkpt>
      <trkpt lat="48.13821" lon="-1.9781">
        <ele>85</ele>
        <time>2025-05-16T09:18:00Z</time>
      </trkpt>
      <trkpt lat="48.13821" lon="-1.97802">
        <ele>86</ele>
        <time>2025-05-16T09:18:01Z</time>
      </trkpt>
      <trkpt lat="48.13821" lon="-1.97795">
        <ele>86</ele>
        <time>2025-05-16T09:18:02Z</time>
      </trkpt>
      <trkpt lat="48.1382" lon="-1.97789">
        <ele>85</ele>
        <time>2025-05-16T09:18:03Z</time>
      </trkpt>
      <trkpt lat="48.1382" lon="-1.97782">
        <ele>86</ele>
        <time>2025-05-16T09:18:04Z</time>
      </trkpt>
      <trkpt lat="48.1382" lon="-1.97775">
        <ele>86</ele>
        <time>2025-05-16T09:18:05Z</time>
      </trkpt>
      <trkpt lat="48.1382" lon="-1.97768">
        <ele>86</ele>
        <time>2025-05-16T09:18:06Z</time>
      </trkpt>
      <trkpt lat="48.1382" lon="-1.97761">
        <ele>86</ele>
        <time>2025-05-16T09:18:07Z</time>
      </trkpt>
      <trkpt lat="48.13819" lon="-1.97754">
        <ele>86</ele>
        <time>2025-05-16T09:18:08Z</time>
      </trkpt>
      <trkpt lat="48.13819" lon="-1.97747">
        <ele>86</ele>
        <time>2025-05-16T09:18:09Z</time>
      </trkpt>
      <trkpt lat="48.13819" lon="-1.9774">
        <ele>86</ele>
        <time>2025-05-16T09:18:10Z</time>
      </trkpt>
      <trkpt lat="48.13819" lon="-1.97733">
        <ele>86</ele>
        <time>2025-05-16T09:18:11Z</time>
      </trkpt>
      <trkpt lat="48.13819" lon="-1.97726">
        <ele>86</ele>
        <time>2025-05-16T09:18:12Z</time>
      </trkpt>
      <trkpt lat="48.13819" lon="-1.97719">
        <ele>86</ele>
        <time>2025-05-16T09:18:13Z</time>
      </trkpt>
      <trkpt lat="48.13819" lon="-1.97712">
        <ele>86</ele>
        <time>2025-05-16T09:18:14Z</time>
      </trkpt>
      <trkpt lat="48.13818" lon="-1.97706">
        <ele>85</ele>
        <time>2025-05-16T09:18:15Z</time>
      </trkpt>
      <trkpt lat="48.13818" lon="-1.97699">
        <ele>85</ele>
        <time>2025-05-16T09:18:16Z</time>
      </trkpt>
      <trkpt lat="48.13818" lon="-1.97693">
        <ele>85</ele>
        <time>2025-05-16T09:18:17Z</time>
      </trkpt>
      <trkpt lat="48.13817" lon="-1.97688">
        <ele>85</ele>
        <time>2025-05-16T09:18:18Z</time>
      </trkpt>
      <trkpt lat="48.13817" lon="-1.97683">
        <ele>84</ele>
        <time>2025-05-16T09:18:19Z</time>
      </trkpt>
      <trkpt lat="48.13817" lon="-1.97678">
        <ele>84</ele>
        <time>2025-05-16T09:18:20Z</time>
      </trkpt>
      <trkpt lat="48.13817" lon="-1.97673">
        <ele>84</ele>
        <time>2025-05-16T09:18:21Z</time>
      </trkpt>
      <trkpt lat="48.13817" lon="-1.97668">
        <ele>84</ele>
        <time>2025-05-16T09:18:22Z</time>
      </trkpt>
      <trkpt lat="48.13817" lon="-1.97663">
        <ele>84</ele>
        <time>2025-05-16T09:18:23Z</time>
      </trkpt>
      <trkpt lat="48.13817" lon="-1.97658">
        <ele>85</ele>
        <time>2025-05-16T09:18:24Z</time>
      </trkpt>
      <trkpt lat="48.13817" lon="-1.97654">
        <ele>85</ele>
        <time>2025-05-16T09:18:25Z</time>
      </trkpt>
      <trkpt lat="48.13817" lon="-1.97648">
        <ele>85</ele>
        <time>2025-05-16T09:18:26Z</time>
      </trkpt>
      <trkpt lat="48.13817" lon="-1.97643">
        <ele>85</ele>
        <time>2025-05-16T09:18:27Z</time>
      </trkpt>
      <trkpt lat="48.13817" lon="-1.97637">
        <ele>85</ele>
        <time>2025-05-16T09:18:28Z</time>
      </trkpt>
      <trkpt lat="48.13816" lon="-1.97632">
        <ele>85</ele>
        <time>2025-05-16T09:18:29Z</time>
      </trkpt>
      <trkpt lat="48.13816" lon="-1.97626">
        <ele>85</ele>
        <time>2025-05-16T09:18:30Z</time>
      </trkpt>
      <trkpt lat="48.13816" lon="-1.97621">
        <ele>85</ele>
        <time>2025-05-16T09:18:31Z</time>
      </trkpt>
      <trkpt lat="48.13816" lon="-1.97616">
        <ele>85</ele>
        <time>2025-05-16T09:18:32Z</time>
      </trkpt>
      <trkpt lat="48.13815" lon="-1.9761">
        <ele>85</ele>
        <time>2025-05-16T09:18:33Z</time>
      </trkpt>
      <trkpt lat="48.13815" lon="-1.97605">
        <ele>85</ele>
        <time>2025-05-16T09:18:34Z</time>
      </trkpt>
      <trkpt lat="48.13815" lon="-1.97599">
        <ele>85</ele>
        <time>2025-05-16T09:18:35Z</time>
      </trkpt>
      <trkpt lat="48.13815" lon="-1.97593">
        <ele>85</ele>
        <time>2025-05-16T09:18:36Z</time>
      </trkpt>
      <trkpt lat="48.13815" lon="-1.97587">
        <ele>85</ele>
        <time>2025-05-16T09:18:37Z</time>
      </trkpt>
      <trkpt lat="48.13815" lon="-1.97582">
        <ele>85</ele>
        <time>2025-05-16T09:18:38Z</time>
      </trkpt>
      <trkpt lat="48.13815" lon="-1.97577">
        <ele>85</ele>
        <time>2025-05-16T09:18:39Z</time>
      </trkpt>
      <trkpt lat="48.13814" lon="-1.97571">
        <ele>85</ele>
        <time>2025-05-16T09:18:40Z</time>
      </trkpt>
      <trkpt lat="48.13815" lon="-1.97565">
        <ele>85</ele>
        <time>2025-05-16T09:18:41Z</time>
      </trkpt>
      <trkpt lat="48.13815" lon="-1.97558">
        <ele>85</ele>
        <time>2025-05-16T09:18:42Z</time>
      </trkpt>
      <trkpt lat="48.13815" lon="-1.97552">
        <ele>85</ele>
        <time>2025-05-16T09:18:43Z</time>
      </trkpt>
      <trkpt lat="48.13815" lon="-1.97545">
        <ele>86</ele>
        <time>2025-05-16T09:18:44Z</time>
      </trkpt>
      <trkpt lat="48.13815" lon="-1.97539">
        <ele>85</ele>
        <time>2025-05-16T09:18:45Z</time>
      </trkpt>
      <trkpt lat="48.13816" lon="-1.97533">
        <ele>86</ele>
        <time>2025-05-16T09:18:46Z</time>
      </trkpt>
      <trkpt lat="48.13816" lon="-1.97528">
        <ele>86</ele>
        <time>2025-05-16T09:18:47Z</time>
      </trkpt>
      <trkpt lat="48.13815" lon="-1.97523">
        <ele>86</ele>
        <time>2025-05-16T09:18:48Z</time>
      </trkpt>
      <trkpt lat="48.13814" lon="-1.97518">
        <ele>86</ele>
        <time>2025-05-16T09:18:49Z</time>
      </trkpt>
      <trkpt lat="48.13814" lon="-1.97513">
        <ele>86</ele>
        <time>2025-05-16T09:18:50Z</time>
      </trkpt>
      <trkpt lat="48.13813" lon="-1.97508">
        <ele>86</ele>
        <time>2025-05-16T09:18:51Z</time>
      </trkpt>
      <trkpt lat="48.13813" lon="-1.97503">
        <ele>86</ele>
        <time>2025-05-16T09:18:52Z</time>
      </trkpt>
      <trkpt lat="48.13812" lon="-1.97495">
        <ele>85</ele>
        <time>2025-05-16T09:18:53Z</time>
      </trkpt>
      <trkpt lat="48.13811" lon="-1.97488">
        <ele>85</ele>
        <time>2025-05-16T09:18:54Z</time>
      </trkpt>
      <trkpt lat="48.1381" lon="-1.97481">
        <ele>85</ele>
        <time>2025-05-16T09:18:55Z</time>
      </trkpt>
      <trkpt lat="48.13809" lon="-1.97473">
        <ele>85</ele>
        <time>2025-05-16T09:18:56Z</time>
      </trkpt>
      <trkpt lat="48.13808" lon="-1.97466">
        <ele>85</ele>
        <time>2025-05-16T09:18:57Z</time>
      </trkpt>
      <trkpt lat="48.13807" lon="-1.97459">
        <ele>85</ele>
        <time>2025-05-16T09:18:58Z</time>
      </trkpt>
      <trkpt lat="48.13806" lon="-1.97452">
        <ele>85</ele>
        <time>2025-05-16T09:18:59Z</time>
      </trkpt>
      <trkpt lat="48.13806" lon="-1.97445">
        <ele>85</ele>
        <time>2025-05-16T09:19:00Z</time>
      </trkpt>
      <trkpt lat="48.13805" lon="-1.97439">
        <ele>85</ele>
        <time>2025-05-16T09:19:01Z</time>
      </trkpt>
      <trkpt lat="48.13805" lon="-1.97433">
        <ele>86</ele>
        <time>2025-05-16T09:19:02Z</time>
      </trkpt>
      <trkpt lat="48.13804" lon="-1.97427">
        <ele>86</ele>
        <time>2025-05-16T09:19:03Z</time>
      </trkpt>
      <trkpt lat="48.13804" lon="-1.97421">
        <ele>86</ele>
        <time>2025-05-16T09:19:04Z</time>
      </trkpt>
      <trkpt lat="48.13803" lon="-1.97416">
        <ele>86</ele>
        <time>2025-05-16T09:19:05Z</time>
      </trkpt>
      <trkpt lat="48.13802" lon="-1.9741">
        <ele>86</ele>
        <time>2025-05-16T09:19:06Z</time>
      </trkpt>
      <trkpt lat="48.13801" lon="-1.97405">
        <ele>86</ele>
        <time>2025-05-16T09:19:07Z</time>
      </trkpt>
      <trkpt lat="48.138" lon="-1.97399">
        <ele>86</ele>
        <time>2025-05-16T09:19:08Z</time>
      </trkpt>
      <trkpt lat="48.13798" lon="-1.97393">
        <ele>86</ele>
        <time>2025-05-16T09:19:09Z</time>
      </trkpt>
      <trkpt lat="48.13797" lon="-1.97386">
        <ele>86</ele>
        <time>2025-05-16T09:19:10Z</time>
      </trkpt>
      <trkpt lat="48.13797" lon="-1.9738">
        <ele>86</ele>
        <time>2025-05-16T09:19:11Z</time>
      </trkpt>
      <trkpt lat="48.13797" lon="-1.97375">
        <ele>86</ele>
        <time>2025-05-16T09:19:12Z</time>
      </trkpt>
      <trkpt lat="48.13797" lon="-1.97369">
        <ele>87</ele>
        <time>2025-05-16T09:19:13Z</time>
      </trkpt>
      <trkpt lat="48.13796" lon="-1.97363">
        <ele>87</ele>
        <time>2025-05-16T09:19:14Z</time>
      </trkpt>
      <trkpt lat="48.13796" lon="-1.97358">
        <ele>86</ele>
        <time>2025-05-16T09:19:15Z</time>
      </trkpt>
      <trkpt lat="48.13795" lon="-1.97354">
        <ele>86</ele>
        <time>2025-05-16T09:19:16Z</time>
      </trkpt>
      <trkpt lat="48.13794" lon="-1.9735">
        <ele>86</ele>
        <time>2025-05-16T09:19:17Z</time>
      </trkpt>
      <trkpt lat="48.13793" lon="-1.97347">
        <ele>86</ele>
        <time>2025-05-16T09:19:18Z</time>
      </trkpt>
      <trkpt lat="48.13792" lon="-1.97343">
        <ele>86</ele>
        <time>2025-05-16T09:19:19Z</time>
      </trkpt>
      <trkpt lat="48.13791" lon="-1.9734">
        <ele>86</ele>
        <time>2025-05-16T09:19:20Z</time>
      </trkpt>
      <trkpt lat="48.1379" lon="-1.97337">
        <ele>86</ele>
        <time>2025-05-16T09:19:21Z</time>
      </trkpt>
      <trkpt lat="48.13789" lon="-1.97334">
        <ele>86</ele>
        <time>2025-05-16T09:19:22Z</time>
      </trkpt>
      <trkpt lat="48.13788" lon="-1.97331">
        <ele>86</ele>
        <time>2025-05-16T09:19:23Z</time>
      </trkpt>
      <trkpt lat="48.13787" lon="-1.97328">
        <ele>85</ele>
        <time>2025-05-16T09:19:24Z</time>
      </trkpt>
      <trkpt lat="48.13786" lon="-1.97326">
        <ele>85</ele>
        <time>2025-05-16T09:19:25Z</time>
      </trkpt>
      <trkpt lat="48.13786" lon="-1.97324">
        <ele>85</ele>
        <time>2025-05-16T09:19:26Z</time>
      </trkpt>
      <trkpt lat="48.13786" lon="-1.97322">
        <ele>84</ele>
        <time>2025-05-16T09:19:27Z</time>
      </trkpt>
      <trkpt lat="48.13785" lon="-1.97321">
        <ele>84</ele>
        <time>2025-05-16T09:19:28Z</time>
      </trkpt>
      <trkpt lat="48.13785" lon="-1.97321">
        <ele>85</ele>
        <time>2025-05-16T09:19:29Z</time>
      </trkpt>
      <trkpt lat="48.13785" lon="-1.9732">
        <ele>85</ele>
        <time>2025-05-16T09:19:30Z</time>
      </trkpt>
      <trkpt lat="48.13785" lon="-1.97321">
        <ele>85</ele>
        <time>2025-05-16T09:19:31Z</time>
      </trkpt>
      <trkpt lat="48.13785" lon="-1.97321">
        <ele>85</ele>
        <time>2025-05-16T09:19:32Z</time>
      </trkpt>
      <trkpt lat="48.13785" lon="-1.97321">
        <ele>85</ele>
        <time>2025-05-16T09:19:33Z</time>
      </trkpt>
      <trkpt lat="48.13785" lon="-1.97321">
        <ele>85</ele>
        <time>2025-05-16T09:19:34Z</time>
      </trkpt>
      <trkpt lat="48.13785" lon="-1.97321">
        <ele>85</ele>
        <time>2025-05-16T09:19:35Z</time>
      </trkpt>
      <trkpt lat="48.13785" lon="-1.97321">
        <ele>85</ele>
        <time>2025-05-16T09:19:36Z</time>
      </trkpt>
      <trkpt lat="48.13785" lon="-1.97321">
        <ele>85</ele>
        <time>2025-05-16T09:19:37Z</time>
      </trkpt>
      <trkpt lat="48.13785" lon="-1.97321">
        <ele>85</ele>
        <time>2025-05-16T09:19:38Z</time>
      </trkpt>
      <trkpt lat="48.13785" lon="-1.97321">
        <ele>85</ele>
        <time>2025-05-16T09:19:39Z</time>
      </trkpt>
      <trkpt lat="48.13785" lon="-1.97321">
        <ele>85</ele>
        <time>2025-05-16T09:19:40Z</time>
      </trkpt>
      <trkpt lat="48.13785" lon="-1.97321">
        <ele>85</ele>
        <time>2025-05-16T09:19:41Z</time>
      </trkpt>
      <trkpt lat="48.13785" lon="-1.97321">
        <ele>85</ele>
        <time>2025-05-16T09:19:42Z</time>
      </trkpt>
      <trkpt lat="48.13785" lon="-1.97321">
        <ele>85</ele>
        <time>2025-05-16T09:19:43Z</time>
      </trkpt>
      <trkpt lat="48.13785" lon="-1.97321">
        <ele>85</ele>
        <time>2025-05-16T09:19:44Z</time>
      </trkpt>
      <trkpt lat="48.13785" lon="-1.97321">
        <ele>85</ele>
        <time>2025-05-16T09:19:45Z</time>
      </trkpt>
      <trkpt lat="48.13785" lon="-1.97321">
        <ele>85</ele>
        <time>2025-05-16T09:19:46Z</time>
      </trkpt>
      <trkpt lat="48.13785" lon="-1.97321">
        <ele>85</ele>
        <time>2025-05-16T09:19:47Z</time>
      </trkpt>
      <trkpt lat="48.13785" lon="-1.97321">
        <ele>85</ele>
        <time>2025-05-16T09:19:48Z</time>
      </trkpt>
      <trkpt lat="48.13785" lon="-1.97321">
        <ele>85</ele>
        <time>2025-05-16T09:19:49Z</time>
      </trkpt>
      <trkpt lat="48.13785" lon="-1.97321">
        <ele>85</ele>
        <time>2025-05-16T09:19:50Z</time>
      </trkpt>
      <trkpt lat="48.13785" lon="-1.97321">
        <ele>85</ele>
        <time>2025-05-16T09:19:51Z</time>
      </trkpt>
      <trkpt lat="48.13785" lon="-1.97321">
        <ele>85</ele>
        <time>2025-05-16T09:19:52Z</time>
      </trkpt>
      <trkpt lat="48.13785" lon="-1.97321">
        <ele>85</ele>
        <time>2025-05-16T09:19:53Z</time>
      </trkpt>
      <trkpt lat="48.13785" lon="-1.97321">
        <ele>85</ele>
        <time>2025-05-16T09:19:54Z</time>
      </trkpt>
      <trkpt lat="48.13785" lon="-1.97321">
        <ele>85</ele>
        <time>2025-05-16T09:19:55Z</time>
      </trkpt>
      <trkpt lat="48.13785" lon="-1.97321">
        <ele>85</ele>
        <time>2025-05-16T09:19:56Z</time>
      </trkpt>
      <trkpt lat="48.13785" lon="-1.97321">
        <ele>85</ele>
        <time>2025-05-16T09:19:57Z</time>
      </trkpt>
      <trkpt lat="48.13785" lon="-1.97321">
        <ele>85</ele>
        <time>2025-05-16T09:19:58Z</time>
      </trkpt>
      <trkpt lat="48.13785" lon="-1.97321">
        <ele>85</ele>
        <time>2025-05-16T09:19:59Z</time>
      </trkpt>
      <trkpt lat="48.13785" lon="-1.97321">
        <ele>85</ele>
        <time>2025-05-16T09:20:00Z</time>
      </trkpt>
      <trkpt lat="48.13785" lon="-1.97321">
        <ele>85</ele>
        <time>2025-05-16T09:20:01Z</time>
      </trkpt>
      <trkpt lat="48.13785" lon="-1.97321">
        <ele>85</ele>
        <time>2025-05-16T09:20:02Z</time>
      </trkpt>
      <trkpt lat="48.13785" lon="-1.97321">
        <ele>85</ele>
        <time>2025-05-16T09:20:03Z</time>
      </trkpt>
      <trkpt lat="48.13785" lon="-1.97321">
        <ele>85</ele>
        <time>2025-05-16T09:20:04Z</time>
      </trkpt>
      <trkpt lat="48.13785" lon="-1.97321">
        <ele>85</ele>
        <time>2025-05-16T09:20:05Z</time>
      </trkpt>
      <trkpt lat="48.13785" lon="-1.97321">
        <ele>85</ele>
        <time>2025-05-16T09:20:06Z</time>
      </trkpt>
      <trkpt lat="48.13785" lon="-1.97321">
        <ele>85</ele>
        <time>2025-05-16T09:20:07Z</time>
      </trkpt>
      <trkpt lat="48.13785" lon="-1.97321">
        <ele>85</ele>
        <time>2025-05-16T09:20:08Z</time>
      </trkpt>
      <trkpt lat="48.13785" lon="-1.97321">
        <ele>85</ele>
        <time>2025-05-16T09:20:09Z</time>
      </trkpt>
      <trkpt lat="48.13785" lon="-1.97321">
        <ele>85</ele>
        <time>2025-05-16T09:20:10Z</time>
      </trkpt>
      <trkpt lat="48.13785" lon="-1.97321">
        <ele>85</ele>
        <time>2025-05-16T09:20:11Z</time>
      </trkpt>
      <trkpt lat="48.13785" lon="-1.97321">
        <ele>85</ele>
        <time>2025-05-16T09:20:12Z</time>
      </trkpt>
      <trkpt lat="48.13785" lon="-1.97321">
        <ele>85</ele>
        <time>2025-05-16T09:20:13Z</time>
      </trkpt>
      <trkpt lat="48.13785" lon="-1.97321">
        <ele>85</ele>
        <time>2025-05-16T09:20:14Z</time>
      </trkpt>
      <trkpt lat="48.13785" lon="-1.97321">
        <ele>85</ele>
        <time>2025-05-16T09:20:15Z</time>
      </trkpt>
      <trkpt lat="48.13785" lon="-1.97321">
        <ele>85</ele>
        <time>2025-05-16T09:20:16Z</time>
      </trkpt>
      <trkpt lat="48.13785" lon="-1.97321">
        <ele>85</ele>
        <time>2025-05-16T09:20:17Z</time>
      </trkpt>
      <trkpt lat="48.13785" lon="-1.97321">
        <ele>85</ele>
        <time>2025-05-16T09:20:18Z</time>
      </trkpt>
      <trkpt lat="48.13785" lon="-1.97321">
        <ele>85</ele>
        <time>2025-05-16T09:20:19Z</time>
      </trkpt>
      <trkpt lat="48.13785" lon="-1.97321">
        <ele>85</ele>
        <time>2025-05-16T09:20:20Z</time>
      </trkpt>
      <trkpt lat="48.13785" lon="-1.97321">
        <ele>85</ele>
        <time>2025-05-16T09:20:21Z</time>
      </trkpt>
      <trkpt lat="48.13785" lon="-1.97321">
        <ele>85</ele>
        <time>2025-05-16T09:20:22Z</time>
      </trkpt>
      <trkpt lat="48.13785" lon="-1.97321">
        <ele>85</ele>
        <time>2025-05-16T09:20:23Z</time>
      </trkpt>
      <trkpt lat="48.13785" lon="-1.97321">
        <ele>85</ele>
        <time>2025-05-16T09:20:24Z</time>
      </trkpt>
      <trkpt lat="48.13785" lon="-1.97321">
        <ele>85</ele>
        <time>2025-05-16T09:20:25Z</time>
      </trkpt>
      <trkpt lat="48.13785" lon="-1.97321">
        <ele>85</ele>
        <time>2025-05-16T09:20:26Z</time>
      </trkpt>
      <trkpt lat="48.13785" lon="-1.97321">
        <ele>85</ele>
        <time>2025-05-16T09:20:27Z</time>
      </trkpt>
      <trkpt lat="48.13785" lon="-1.97321">
        <ele>85</ele>
        <time>2025-05-16T09:20:28Z</time>
      </trkpt>
      <trkpt lat="48.13785" lon="-1.97321">
        <ele>85</ele>
        <time>2025-05-16T09:20:29Z</time>
      </trkpt>
      <trkpt lat="48.13785" lon="-1.97321">
        <ele>85</ele>
        <time>2025-05-16T09:20:30Z</time>
      </trkpt>
      <trkpt lat="48.13785" lon="-1.97321">
        <ele>85</ele>
        <time>2025-05-16T09:20:31Z</time>
      </trkpt>
      <trkpt lat="48.13785" lon="-1.97321">
        <ele>85</ele>
        <time>2025-05-16T09:20:32Z</time>
      </trkpt>
      <trkpt lat="48.13785" lon="-1.97321">
        <ele>85</ele>
        <time>2025-05-16T09:20:33Z</time>
      </trkpt>
      <trkpt lat="48.13785" lon="-1.97321">
        <ele>85</ele>
        <time>2025-05-16T09:20:34Z</time>
      </trkpt>
      <trkpt lat="48.13785" lon="-1.97321">
        <ele>85</ele>
        <time>2025-05-16T09:20:35Z</time>
      </trkpt>
      <trkpt lat="48.13785" lon="-1.97321">
        <ele>85</ele>
        <time>2025-05-16T09:20:36Z</time>
      </trkpt>
      <trkpt lat="48.13785" lon="-1.97321">
        <ele>85</ele>
        <time>2025-05-16T09:20:37Z</time>
      </trkpt>
      <trkpt lat="48.13785" lon="-1.97321">
        <ele>85</ele>
        <time>2025-05-16T09:20:38Z</time>
      </trkpt>
      <trkpt lat="48.13785" lon="-1.97321">
        <ele>85</ele>
        <time>2025-05-16T09:20:39Z</time>
      </trkpt>
      <trkpt lat="48.13785" lon="-1.97321">
        <ele>85</ele>
        <time>2025-05-16T09:20:40Z</time>
      </trkpt>
      <trkpt lat="48.13785" lon="-1.97321">
        <ele>85</ele>
        <time>2025-05-16T09:20:41Z</time>
      </trkpt>
      <trkpt lat="48.13778" lon="-1.97252">
        <ele>87</ele>
        <time>2025-05-16T09:22:00Z</time>
      </trkpt>
      <trkpt lat="48.13777" lon="-1.97247">
        <ele>87</ele>
        <time>2025-05-16T09:22:01Z</time>
      </trkpt>
      <trkpt lat="48.13776" lon="-1.97243">
        <ele>87</ele>
        <time>2025-05-16T09:22:02Z</time>
      </trkpt>
      <trkpt lat="48.13775" lon="-1.97239">
        <ele>87</ele>
        <time>2025-05-16T09:22:03Z</time>
      </trkpt>
      <trkpt lat="48.13774" lon="-1.97235">
        <ele>87</ele>
        <time>2025-05-16T09:22:04Z</time>
      </trkpt>
      <trkpt lat="48.13774" lon="-1.97229">
        <ele>86</ele>
        <time>2025-05-16T09:22:05Z</time>
      </trkpt>
      <trkpt lat="48.13773" lon="-1.97225">
        <ele>86</ele>
        <time>2025-05-16T09:22:06Z</time>
      </trkpt>
      <trkpt lat="48.13772" lon="-1.9722">
        <ele>85</ele>
        <time>2025-05-16T09:22:07Z</time>
      </trkpt>
      <trkpt lat="48.13771" lon="-1.97215">
        <ele>84</ele>
        <time>2025-05-16T09:22:08Z</time>
      </trkpt>
      <trkpt lat="48.1377" lon="-1.9721">
        <ele>84</ele>
        <time>2025-05-16T09:22:09Z</time>
      </trkpt>
      <trkpt lat="48.13769" lon="-1.97205">
        <ele>84</ele>
        <time>2025-05-16T09:22:10Z</time>
      </trkpt>
      <trkpt lat="48.13769" lon="-1.972">
        <ele>84</ele>
        <time>2025-05-16T09:22:11Z</time>
      </trkpt>
      <trkpt lat="48.13769" lon="-1.97195">
        <ele>84</ele>
        <time>2025-05-16T09:22:12Z</time>
      </trkpt>
      <trkpt lat="48.13769" lon="-1.97189">
        <ele>84</ele>
        <time>2025-05-16T09:22:13Z</time>
      </trkpt>
      <trkpt lat="48.13771" lon="-1.97184">
        <ele>84</ele>
        <time>2025-05-16T09:22:14Z</time>
      </trkpt>
      <trkpt lat="48.13772" lon="-1.97179">
        <ele>85</ele>
        <time>2025-05-16T09:22:15Z</time>
      </trkpt>
      <trkpt lat="48.13773" lon="-1.97175">
        <ele>85</ele>
        <time>2025-05-16T09:22:16Z</time>
      </trkpt>
      <trkpt lat="48.13775" lon="-1.97172">
        <ele>85</ele>
        <time>2025-05-16T09:22:17Z</time>
      </trkpt>
      <trkpt lat="48.13776" lon="-1.97169">
        <ele>85</ele>
        <time>2025-05-16T09:22:18Z</time>
      </trkpt>
      <trkpt lat="48.13777" lon="-1.97165">
        <ele>85</ele>
        <time>2025-05-16T09:22:19Z</time>
      </trkpt>
      <trkpt lat="48.13777" lon="-1.97162">
        <ele>85</ele>
        <time>2025-05-16T09:22:20Z</time>
      </trkpt>
      <trkpt lat="48.13777" lon="-1.97158">
        <ele>85</ele>
        <time>2025-05-16T09:22:21Z</time>
      </trkpt>
      <trkpt lat="48.13777" lon="-1.97154">
        <ele>85</ele>
        <time>2025-05-16T09:22:22Z</time>
      </trkpt>
      <trkpt lat="48.13776" lon="-1.9715">
        <ele>85</ele>
        <time>2025-05-16T09:22:23Z</time>
      </trkpt>
      <trkpt lat="48.13776" lon="-1.97146">
        <ele>85</ele>
        <time>2025-05-16T09:22:24Z</time>
      </trkpt>
      <trkpt lat="48.13775" lon="-1.97142">
        <ele>85</ele>
        <time>2025-05-16T09:22:25Z</time>
      </trkpt>
      <trkpt lat="48.13775" lon="-1.97139">
        <ele>86</ele>
        <time>2025-05-16T09:22:26Z</time>
      </trkpt>
      <trkpt lat="48.13775" lon="-1.97135">
        <ele>86</ele>
        <time>2025-05-16T09:22:27Z</time>
      </trkpt>
      <trkpt lat="48.13775" lon="-1.97132">
        <ele>86</ele>
        <time>2025-05-16T09:22:28Z</time>
      </trkpt>
      <trkpt lat="48.13775" lon="-1.97129">
        <ele>86</ele>
        <time>2025-05-16T09:22:29Z</time>
      </trkpt>
      <trkpt lat="48.13776" lon="-1.97127">
        <ele>86</ele>
        <time>2025-05-16T09:22:30Z</time>
      </trkpt>
      <trkpt lat="48.13777" lon="-1.97126">
        <ele>85</ele>
        <time>2025-05-16T09:22:31Z</time>
      </trkpt>
      <trkpt lat="48.13778" lon="-1.97126">
        <ele>85</ele>
        <time>2025-05-16T09:22:32Z</time>
      </trkpt>
      <trkpt lat="48.13781" lon="-1.97126">
        <ele>85</ele>
        <time>2025-05-16T09:22:33Z</time>
      </trkpt>
      <trkpt lat="48.13783" lon="-1.97125">
        <ele>85</ele>
        <time>2025-05-16T09:22:34Z</time>
      </trkpt>
      <trkpt lat="48.13786" lon="-1.97124">
        <ele>85</ele>
        <time>2025-05-16T09:22:35Z</time>
      </trkpt>
      <trkpt lat="48.13788" lon="-1.97123">
        <ele>85</ele>
        <time>2025-05-16T09:22:36Z</time>
      </trkpt>
      <trkpt lat="48.13789" lon="-1.97119">
        <ele>85</ele>
        <time>2025-05-16T09:22:37Z</time>
      </trkpt>
      <trkpt lat="48.13788" lon="-1.97115">
        <ele>85</ele>
        <time>2025-05-16T09:22:38Z</time>
      </trkpt>
      <trkpt lat="48.13787" lon="-1.97111">
        <ele>84</ele>
        <time>2025-05-16T09:22:39Z</time>
      </trkpt>
      <trkpt lat="48.13786" lon="-1.97106">
        <ele>84</ele>
        <time>2025-05-16T09:22:40Z</time>
      </trkpt>
      <trkpt lat="48.13785" lon="-1.97102">
        <ele>83</ele>
        <time>2025-05-16T09:22:41Z</time>
      </trkpt>
      <trkpt lat="48.13785" lon="-1.97097">
        <ele>83</ele>
        <time>2025-05-16T09:22:42Z</time>
      </trkpt>
      <trkpt lat="48.13784" lon="-1.97091">
        <ele>83</ele>
        <time>2025-05-16T09:22:43Z</time>
      </trkpt>
      <trkpt lat="48.13784" lon="-1.97086">
        <ele>83</ele>
        <time>2025-05-16T09:22:44Z</time>
      </trkpt>
      <trkpt lat="48.13784" lon="-1.9708">
        <ele>83</ele>
        <time>2025-05-16T09:22:45Z</time>
      </trkpt>
      <trkpt lat="48.13783" lon="-1.97074">
        <ele>83</ele>
        <time>2025-05-16T09:22:46Z</time>
      </trkpt>
      <trkpt lat="48.13783" lon="-1.97068">
        <ele>83</ele>
        <time>2025-05-16T09:22:47Z</time>
      </trkpt>
      <trkpt lat="48.13782" lon="-1.97062">
        <ele>83</ele>
        <time>2025-05-16T09:22:48Z</time>
      </trkpt>
      <trkpt lat="48.13782" lon="-1.97055">
        <ele>82</ele>
        <time>2025-05-16T09:22:49Z</time>
      </trkpt>
      <trkpt lat="48.13782" lon="-1.97049">
        <ele>82</ele>
        <time>2025-05-16T09:22:50Z</time>
      </trkpt>
      <trkpt lat="48.13781" lon="-1.97042">
        <ele>83</ele>
        <time>2025-05-16T09:22:51Z</time>
      </trkpt>
      <trkpt lat="48.13781" lon="-1.97035">
        <ele>83</ele>
        <time>2025-05-16T09:22:52Z</time>
      </trkpt>
      <trkpt lat="48.13781" lon="-1.97029">
        <ele>83</ele>
        <time>2025-05-16T09:22:53Z</time>
      </trkpt>
      <trkpt lat="48.13781" lon="-1.97021">
        <ele>83</ele>
        <time>2025-05-16T09:22:54Z</time>
      </trkpt>
      <trkpt lat="48.1378" lon="-1.97014">
        <ele>83</ele>
        <time>2025-05-16T09:22:55Z</time>
      </trkpt>
      <trkpt lat="48.1378" lon="-1.97007">
        <ele>83</ele>
        <time>2025-05-16T09:22:56Z</time>
      </trkpt>
      <trkpt lat="48.13779" lon="-1.97">
        <ele>83</ele>
        <time>2025-05-16T09:22:57Z</time>
      </trkpt>
      <trkpt lat="48.13779" lon="-1.96993">
        <ele>83</ele>
        <time>2025-05-16T09:22:58Z</time>
      </trkpt>
      <trkpt lat="48.13779" lon="-1.96986">
        <ele>83</ele>
        <time>2025-05-16T09:22:59Z</time>
      </trkpt>
      <trkpt lat="48.13779" lon="-1.96978">
        <ele>83</ele>
        <time>2025-05-16T09:23:00Z</time>
      </trkpt>
      <trkpt lat="48.13779" lon="-1.96971">
        <ele>83</ele>
        <time>2025-05-16T09:23:01Z</time>
      </trkpt>
      <trkpt lat="48.13778" lon="-1.96963">
        <ele>84</ele>
        <time>2025-05-16T09:23:02Z</time>
      </trkpt>
      <trkpt lat="48.13778" lon="-1.96956">
        <ele>84</ele>
        <time>2025-05-16T09:23:03Z</time>
      </trkpt>
      <trkpt lat="48.13778" lon="-1.96949">
        <ele>84</ele>
        <time>2025-05-16T09:23:04Z</time>
      </trkpt>
      <trkpt lat="48.13778" lon="-1.96942">
        <ele>84</ele>
        <time>2025-05-16T09:23:05Z</time>
      </trkpt>
      <trkpt lat="48.13778" lon="-1.96934">
        <ele>83</ele>
        <time>2025-05-16T09:23:06Z</time>
      </trkpt>
      <trkpt lat="48.13778" lon="-1.96927">
        <ele>82</ele>
        <time>2025-05-16T09:23:07Z</time>
      </trkpt>
      <trkpt lat="48.13777" lon="-1.9692">
        <ele>81</ele>
        <time>2025-05-16T09:23:08Z</time>
      </trkpt>
      <trkpt lat="48.13777" lon="-1.96912">
        <ele>81</ele>
        <time>2025-05-16T09:23:09Z</time>
      </trkpt>
      <trkpt lat="48.13778" lon="-1.96904">
        <ele>82</ele>
        <time>2025-05-16T09:23:10Z</time>
      </trkpt>
      <trkpt lat="48.13778" lon="-1.96896">
        <ele>82</ele>
        <time>2025-05-16T09:23:11Z</time>
      </trkpt>
      <trkpt lat="48.13779" lon="-1.96888">
        <ele>82</ele>
        <time>2025-05-16T09:23:12Z</time>
      </trkpt>
      <trkpt lat="48.1378" lon="-1.96881">
        <ele>81</ele>
        <time>2025-05-16T09:23:13Z</time>
      </trkpt>
      <trkpt lat="48.1378" lon="-1.96873">
        <ele>81</ele>
        <time>2025-05-16T09:23:14Z</time>
      </trkpt>
      <trkpt lat="48.13781" lon="-1.96866">
        <ele>82</ele>
        <time>2025-05-16T09:23:15Z</time>
      </trkpt>
      <trkpt lat="48.13782" lon="-1.96859">
        <ele>82</ele>
        <time>2025-05-16T09:23:16Z</time>
      </trkpt>
      <trkpt lat="48.13783" lon="-1.96852">
        <ele>82</ele>
        <time>2025-05-16T09:23:17Z</time>
      </trkpt>
      <trkpt lat="48.13784" lon="-1.96845">
        <ele>82</ele>
        <time>2025-05-16T09:23:18Z</time>
      </trkpt>
      <trkpt lat="48.13784" lon="-1.96838">
        <ele>82</ele>
        <time>2025-05-16T09:23:19Z</time>
      </trkpt>
      <trkpt lat="48.13784" lon="-1.96832">
        <ele>82</ele>
        <time>2025-05-16T09:23:20Z</time>
      </trkpt>
      <trkpt lat="48.13785" lon="-1.96825">
        <ele>82</ele>
        <time>2025-05-16T09:23:21Z</time>
      </trkpt>
      <trkpt lat="48.13785" lon="-1.96817">
        <ele>82</ele>
        <time>2025-05-16T09:23:22Z</time>
      </trkpt>
      <trkpt lat="48.13786" lon="-1.9681">
        <ele>82</ele>
        <time>2025-05-16T09:23:23Z</time>
      </trkpt>
      <trkpt lat="48.13786" lon="-1.96803">
        <ele>82</ele>
        <time>2025-05-16T09:23:24Z</time>
      </trkpt>
      <trkpt lat="48.13786" lon="-1.96797">
        <ele>82</ele>
        <time>2025-05-16T09:23:25Z</time>
      </trkpt>
      <trkpt lat="48.13787" lon="-1.9679">
        <ele>83</ele>
        <time>2025-05-16T09:23:26Z</time>
      </trkpt>
      <trkpt lat="48.13788" lon="-1.96783">
        <ele>82</ele>
        <time>2025-05-16T09:23:27Z</time>
      </trkpt>
      <trkpt lat="48.13789" lon="-1.96776">
        <ele>83</ele>
        <time>2025-05-16T09:23:28Z</time>
      </trkpt>
      <trkpt lat="48.13789" lon="-1.9677">
        <ele>83</ele>
        <time>2025-05-16T09:23:29Z</time>
      </trkpt>
      <trkpt lat="48.13789" lon="-1.96763">
        <ele>83</ele>
        <time>2025-05-16T09:23:30Z</time>
      </trkpt>
      <trkpt lat="48.1379" lon="-1.96757">
        <ele>83</ele>
        <time>2025-05-16T09:23:31Z</time>
      </trkpt>
      <trkpt lat="48.1379" lon="-1.9675">
        <ele>83</ele>
        <time>2025-05-16T09:23:32Z</time>
      </trkpt>
      <trkpt lat="48.1379" lon="-1.96743">
        <ele>82</ele>
        <time>2025-05-16T09:23:33Z</time>
      </trkpt>
      <trkpt lat="48.13791" lon="-1.96737">
        <ele>83</ele>
        <time>2025-05-16T09:23:34Z</time>
      </trkpt>
      <trkpt lat="48.13791" lon="-1.96731">
        <ele>83</ele>
        <time>2025-05-16T09:23:35Z</time>
      </trkpt>
      <trkpt lat="48.1379" lon="-1.96725">
        <ele>82</ele>
        <time>2025-05-16T09:23:36Z</time>
      </trkpt>
      <trkpt lat="48.1379" lon="-1.96718">
        <ele>83</ele>
        <time>2025-05-16T09:23:37Z</time>
      </trkpt>
      <trkpt lat="48.1379" lon="-1.96712">
        <ele>83</ele>
        <time>2025-05-16T09:23:38Z</time>
      </trkpt>
      <trkpt lat="48.13789" lon="-1.96705">
        <ele>83</ele>
        <time>2025-05-16T09:23:39Z</time>
      </trkpt>
      <trkpt lat="48.1379" lon="-1.96698">
        <ele>83</ele>
        <time>2025-05-16T09:23:40Z</time>
      </trkpt>
      <trkpt lat="48.1379" lon="-1.96692">
        <ele>83</ele>
        <time>2025-05-16T09:23:41Z</time>
      </trkpt>
      <trkpt lat="48.13791" lon="-1.96686">
        <ele>83</ele>
        <time>2025-05-16T09:23:42Z</time>
      </trkpt>
      <trkpt lat="48.13791" lon="-1.9668">
        <ele>84</ele>
        <time>2025-05-16T09:23:43Z</time>
      </trkpt>
      <trkpt lat="48.13791" lon="-1.96674">
        <ele>84</ele>
        <time>2025-05-16T09:23:44Z</time>
      </trkpt>
      <trkpt lat="48.13792" lon="-1.96669">
        <ele>84</ele>
        <time>2025-05-16T09:23:45Z</time>
      </trkpt>
      <trkpt lat="48.13792" lon="-1.96664">
        <ele>84</ele>
        <time>2025-05-16T09:23:46Z</time>
      </trkpt>
      <trkpt lat="48.13792" lon="-1.96659">
        <ele>84</ele>
        <time>2025-05-16T09:23:47Z</time>
      </trkpt>
      <trkpt lat="48.13793" lon="-1.96654">
        <ele>84</ele>
        <time>2025-05-16T09:23:48Z</time>
      </trkpt>
      <trkpt lat="48.13794" lon="-1.96648">
        <ele>83</ele>
        <time>2025-05-16T09:23:49Z</time>
      </trkpt>
      <trkpt lat="48.13794" lon="-1.96642">
        <ele>83</ele>
        <time>2025-05-16T09:23:50Z</time>
      </trkpt>
      <trkpt lat="48.13794" lon="-1.96637">
        <ele>83</ele>
        <time>2025-05-16T09:23:51Z</time>
      </trkpt>
      <trkpt lat="48.13794" lon="-1.9663">
        <ele>83</ele>
        <time>2025-05-16T09:23:52Z</time>
      </trkpt>
      <trkpt lat="48.13795" lon="-1.96624">
        <ele>83</ele>
        <time>2025-05-16T09:23:53Z</time>
      </trkpt>
      <trkpt lat="48.13796" lon="-1.96618">
        <ele>83</ele>
        <time>2025-05-16T09:23:54Z</time>
      </trkpt>
      <trkpt lat="48.13797" lon="-1.96612">
        <ele>83</ele>
        <time>2025-05-16T09:23:55Z</time>
      </trkpt>
      <trkpt lat="48.13798" lon="-1.96606">
        <ele>84</ele>
        <time>2025-05-16T09:23:56Z</time>
      </trkpt>
      <trkpt lat="48.13798" lon="-1.966">
        <ele>84</ele>
        <time>2025-05-16T09:23:57Z</time>
      </trkpt>
      <trkpt lat="48.13799" lon="-1.96593">
        <ele>84</ele>
        <time>2025-05-16T09:23:58Z</time>
      </trkpt>
      <trkpt lat="48.138" lon="-1.96587">
        <ele>84</ele>
        <time>2025-05-16T09:23:59Z</time>
      </trkpt>
      <trkpt lat="48.13802" lon="-1.96581">
        <ele>83</ele>
        <time>2025-05-16T09:24:00Z</time>
      </trkpt>
      <trkpt lat="48.13803" lon="-1.96574">
        <ele>84</ele>
        <time>2025-05-16T09:24:01Z</time>
      </trkpt>
      <trkpt lat="48.13805" lon="-1.96567">
        <ele>84</ele>
        <time>2025-05-16T09:24:02Z</time>
      </trkpt>
      <trkpt lat="48.13805" lon="-1.96561">
        <ele>84</ele>
        <time>2025-05-16T09:24:03Z</time>
      </trkpt>
      <trkpt lat="48.13806" lon="-1.96555">
        <ele>83</ele>
        <time>2025-05-16T09:24:04Z</time>
      </trkpt>
      <trkpt lat="48.13808" lon="-1.96548">
        <ele>83</ele>
        <time>2025-05-16T09:24:05Z</time>
      </trkpt>
      <trkpt lat="48.13808" lon="-1.96542">
        <ele>83</ele>
        <time>2025-05-16T09:24:06Z</time>
      </trkpt>
      <trkpt lat="48.1381" lon="-1.96535">
        <ele>84</ele>
        <time>2025-05-16T09:24:07Z</time>
      </trkpt>
      <trkpt lat="48.13811" lon="-1.96529">
        <ele>84</ele>
        <time>2025-05-16T09:24:08Z</time>
      </trkpt>
      <trkpt lat="48.13812" lon="-1.96522">
        <ele>83</ele>
        <time>2025-05-16T09:24:09Z</time>
      </trkpt>
      <trkpt lat="48.13813" lon="-1.96516">
        <ele>84</ele>
        <time>2025-05-16T09:24:10Z</time>
      </trkpt>
      <trkpt lat="48.13814" lon="-1.9651">
        <ele>84</ele>
        <time>2025-05-16T09:24:11Z</time>
      </trkpt>
      <trkpt lat="48.13815" lon="-1.96503">
        <ele>84</ele>
        <time>2025-05-16T09:24:12Z</time>
      </trkpt>
      <trkpt lat="48.13816" lon="-1.96497">
        <ele>84</ele>
        <time>2025-05-16T09:24:13Z</time>
      </trkpt>
      <trkpt lat="48.13818" lon="-1.9649">
        <ele>84</ele>
        <time>2025-05-16T09:24:14Z</time>
      </trkpt>
      <trkpt lat="48.13819" lon="-1.96484">
        <ele>84</ele>
        <time>2025-05-16T09:24:15Z</time>
      </trkpt>
      <trkpt lat="48.1382" lon="-1.96477">
        <ele>84</ele>
        <time>2025-05-16T09:24:16Z</time>
      </trkpt>
      <trkpt lat="48.13821" lon="-1.96471">
        <ele>84</ele>
        <time>2025-05-16T09:24:17Z</time>
      </trkpt>
      <trkpt lat="48.13822" lon="-1.96465">
        <ele>84</ele>
        <time>2025-05-16T09:24:18Z</time>
      </trkpt>
      <trkpt lat="48.13823" lon="-1.96458">
        <ele>83</ele>
        <time>2025-05-16T09:24:19Z</time>
      </trkpt>
      <trkpt lat="48.13824" lon="-1.96452">
        <ele>83</ele>
        <time>2025-05-16T09:24:20Z</time>
      </trkpt>
      <trkpt lat="48.13826" lon="-1.96445">
        <ele>83</ele>
        <time>2025-05-16T09:24:21Z</time>
      </trkpt>
      <trkpt lat="48.13827" lon="-1.96439">
        <ele>83</ele>
        <time>2025-05-16T09:24:22Z</time>
      </trkpt>
      <trkpt lat="48.13827" lon="-1.96433">
        <ele>83</ele>
        <time>2025-05-16T09:24:23Z</time>
      </trkpt>
      <trkpt lat="48.13828" lon="-1.96427">
        <ele>83</ele>
        <time>2025-05-16T09:24:24Z</time>
      </trkpt>
      <trkpt lat="48.13829" lon="-1.9642">
        <ele>83</ele>
        <time>2025-05-16T09:24:25Z</time>
      </trkpt>
      <trkpt lat="48.13831" lon="-1.96414">
        <ele>82</ele>
        <time>2025-05-16T09:24:26Z</time>
      </trkpt>
      <trkpt lat="48.13831" lon="-1.96408">
        <ele>83</ele>
        <time>2025-05-16T09:24:27Z</time>
      </trkpt>
      <trkpt lat="48.13833" lon="-1.96402">
        <ele>83</ele>
        <time>2025-05-16T09:24:28Z</time>
      </trkpt>
      <trkpt lat="48.13834" lon="-1.96396">
        <ele>83</ele>
        <time>2025-05-16T09:24:29Z</time>
      </trkpt>
      <trkpt lat="48.13835" lon="-1.9639">
        <ele>83</ele>
        <time>2025-05-16T09:24:30Z</time>
      </trkpt>
      <trkpt lat="48.13836" lon="-1.96384">
        <ele>83</ele>
        <time>2025-05-16T09:24:31Z</time>
      </trkpt>
      <trkpt lat="48.13838" lon="-1.96378">
        <ele>83</ele>
        <time>2025-05-16T09:24:32Z</time>
      </trkpt>
      <trkpt lat="48.13839" lon="-1.96373">
        <ele>82</ele>
        <time>2025-05-16T09:24:33Z</time>
      </trkpt>
      <trkpt lat="48.1384" lon="-1.96368">
        <ele>83</ele>
        <time>2025-05-16T09:24:34Z</time>
      </trkpt>
      <trkpt lat="48.1384" lon="-1.96363">
        <ele>82</ele>
        <time>2025-05-16T09:24:35Z</time>
      </trkpt>
      <trkpt lat="48.13841" lon="-1.96358">
        <ele>82</ele>
        <time>2025-05-16T09:24:36Z</time>
      </trkpt>
      <trkpt lat="48.13842" lon="-1.96353">
        <ele>82</ele>
        <time>2025-05-16T09:24:37Z</time>
      </trkpt>
      <trkpt lat="48.13842" lon="-1.96348">
        <ele>82</ele>
        <time>2025-05-16T09:24:38Z</time>
      </trkpt>
      <trkpt lat="48.13842" lon="-1.96344">
        <ele>82</ele>
        <time>2025-05-16T09:24:39Z</time>
      </trkpt>
      <trkpt lat="48.13843" lon="-1.9634">
        <ele>82</ele>
        <time>2025-05-16T09:24:40Z</time>
      </trkpt>
      <trkpt lat="48.13844" lon="-1.96336">
        <ele>82</ele>
        <time>2025-05-16T09:24:41Z</time>
      </trkpt>
      <trkpt lat="48.13844" lon="-1.96332">
        <ele>82</ele>
        <time>2025-05-16T09:24:42Z</time>
      </trkpt>
      <trkpt lat="48.13845" lon="-1.96329">
        <ele>82</ele>
        <time>2025-05-16T09:24:43Z</time>
      </trkpt>
      <trkpt lat="48.13844" lon="-1.96327">
        <ele>82</ele>
        <time>2025-05-16T09:24:44Z</time>
      </trkpt>
      <trkpt lat="48.13844" lon="-1.96326">
        <ele>82</ele>
        <time>2025-05-16T09:24:45Z</time>
      </trkpt>
      <trkpt lat="48.13843" lon="-1.96326">
        <ele>82</ele>
        <time>2025-05-16T09:24:46Z</time>
      </trkpt>
      <trkpt lat="48.13842" lon="-1.96326">
        <ele>83</ele>
        <time>2025-05-16T09:24:47Z</time>
      </trkpt>
      <trkpt lat="48.13842" lon="-1.96326">
        <ele>83</ele>
        <time>2025-05-16T09:24:48Z</time>
      </trkpt>
      <trkpt lat="48.13842" lon="-1.96326">
        <ele>83</ele>
        <time>2025-05-16T09:24:49Z</time>
      </trkpt>
      <trkpt lat="48.13842" lon="-1.96326">
        <ele>83</ele>
        <time>2025-05-16T09:24:50Z</time>
      </trkpt>
      <trkpt lat="48.13842" lon="-1.96326">
        <ele>83</ele>
        <time>2025-05-16T09:24:51Z</time>
      </trkpt>
      <trkpt lat="48.13842" lon="-1.96326">
        <ele>83</ele>
        <time>2025-05-16T09:24:52Z</time>
      </trkpt>
      <trkpt lat="48.1384" lon="-1.96326">
        <ele>83</ele>
        <time>2025-05-16T09:24:53Z</time>
      </trkpt>
      <trkpt lat="48.13839" lon="-1.96326">
        <ele>83</ele>
        <time>2025-05-16T09:24:54Z</time>
      </trkpt>
      <trkpt lat="48.13837" lon="-1.96326">
        <ele>83</ele>
        <time>2025-05-16T09:24:55Z</time>
      </trkpt>
      <trkpt lat="48.13835" lon="-1.96326">
        <ele>83</ele>
        <time>2025-05-16T09:24:56Z</time>
      </trkpt>
      <trkpt lat="48.13833" lon="-1.96324">
        <ele>83</ele>
        <time>2025-05-16T09:24:57Z</time>
      </trkpt>
      <trkpt lat="48.13832" lon="-1.96321">
        <ele>84</ele>
        <time>2025-05-16T09:24:58Z</time>
      </trkpt>
      <trkpt lat="48.13832" lon="-1.96318">
        <ele>84</ele>
        <time>2025-05-16T09:24:59Z</time>
      </trkpt>
      <trkpt lat="48.13832" lon="-1.96314">
        <ele>85</ele>
        <time>2025-05-16T09:25:00Z</time>
      </trkpt>
      <trkpt lat="48.13831" lon="-1.9631">
        <ele>86</ele>
        <time>2025-05-16T09:25:01Z</time>
      </trkpt>
      <trkpt lat="48.1383" lon="-1.96306">
        <ele>86</ele>
        <time>2025-05-16T09:25:02Z</time>
      </trkpt>
      <trkpt lat="48.13828" lon="-1.96302">
        <ele>87</ele>
        <time>2025-05-16T09:25:03Z</time>
      </trkpt>
      <trkpt lat="48.13827" lon="-1.96298">
        <ele>86</ele>
        <time>2025-05-16T09:25:04Z</time>
      </trkpt>
      <trkpt lat="48.13825" lon="-1.96295">
        <ele>86</ele>
        <time>2025-05-16T09:25:05Z</time>
      </trkpt>
      <trkpt lat="48.13822" lon="-1.96291">
        <ele>85</ele>
        <time>2025-05-16T09:25:06Z</time>
      </trkpt>
      <trkpt lat="48.13819" lon="-1.96288">
        <ele>85</ele>
        <time>2025-05-16T09:25:07Z</time>
      </trkpt>
      <trkpt lat="48.13814" lon="-1.96286">
        <ele>86</ele>
        <time>2025-05-16T09:25:08Z</time>
      </trkpt>
      <trkpt lat="48.1381" lon="-1.96285">
        <ele>86</ele>
        <time>2025-05-16T09:25:09Z</time>
      </trkpt>
      <trkpt lat="48.13806" lon="-1.96285">
        <ele>87</ele>
        <time>2025-05-16T09:25:10Z</time>
      </trkpt>
      <trkpt lat="48.13802" lon="-1.96285">
        <ele>87</ele>
        <time>2025-05-16T09:25:11Z</time>
      </trkpt>
      <trkpt lat="48.13798" lon="-1.96285">
        <ele>87</ele>
        <time>2025-05-16T09:25:12Z</time>
      </trkpt>
      <trkpt lat="48.13794" lon="-1.96285">
        <ele>87</ele>
        <time>2025-05-16T09:25:13Z</time>
      </trkpt>
      <trkpt lat="48.1379" lon="-1.96284">
        <ele>87</ele>
        <time>2025-05-16T09:25:14Z</time>
      </trkpt>
      <trkpt lat="48.13786" lon="-1.96284">
        <ele>87</ele>
        <time>2025-05-16T09:25:15Z</time>
      </trkpt>
      <trkpt lat="48.13783" lon="-1.96283">
        <ele>87</ele>
        <time>2025-05-16T09:25:16Z</time>
      </trkpt>
      <trkpt lat="48.13779" lon="-1.96283">
        <ele>87</ele>
        <time>2025-05-16T09:25:17Z</time>
      </trkpt>
      <trkpt lat="48.13776" lon="-1.96284">
        <ele>86</ele>
        <time>2025-05-16T09:25:18Z</time>
      </trkpt>
      <trkpt lat="48.13772" lon="-1.96284">
        <ele>87</ele>
        <time>2025-05-16T09:25:19Z</time>
      </trkpt>
      <trkpt lat="48.13768" lon="-1.96284">
        <ele>88</ele>
        <time>2025-05-16T09:25:20Z</time>
      </trkpt>
      <trkpt lat="48.13764" lon="-1.96284">
        <ele>88</ele>
        <time>2025-05-16T09:25:21Z</time>
      </trkpt>
      <trkpt lat="48.13759" lon="-1.96282">
        <ele>89</ele>
        <time>2025-05-16T09:25:22Z</time>
      </trkpt>
      <trkpt lat="48.13755" lon="-1.9628">
        <ele>89</ele>
        <time>2025-05-16T09:25:23Z</time>
      </trkpt>
      <trkpt lat="48.1375" lon="-1.96279">
        <ele>90</ele>
        <time>2025-05-16T09:25:24Z</time>
      </trkpt>
      <trkpt lat="48.13745" lon="-1.96277">
        <ele>90</ele>
        <time>2025-05-16T09:25:25Z</time>
      </trkpt>
      <trkpt lat="48.13741" lon="-1.96274">
        <ele>91</ele>
        <time>2025-05-16T09:25:26Z</time>
      </trkpt>
      <trkpt lat="48.13736" lon="-1.96272">
        <ele>91</ele>
        <time>2025-05-16T09:25:27Z</time>
      </trkpt>
      <trkpt lat="48.13732" lon="-1.9627">
        <ele>92</ele>
        <time>2025-05-16T09:25:28Z</time>
      </trkpt>
      <trkpt lat="48.13728" lon="-1.96268">
        <ele>92</ele>
        <time>2025-05-16T09:25:29Z</time>
      </trkpt>
      <trkpt lat="48.13724" lon="-1.96266">
        <ele>92</ele>
        <time>2025-05-16T09:25:30Z</time>
      </trkpt>
      <trkpt lat="48.13721" lon="-1.96265">
        <ele>91</ele>
        <time>2025-05-16T09:25:31Z</time>
      </trkpt>
      <trkpt lat="48.13717" lon="-1.96263">
        <ele>91</ele>
        <time>2025-05-16T09:25:32Z</time>
      </trkpt>
      <trkpt lat="48.13713" lon="-1.9626">
        <ele>91</ele>
        <time>2025-05-16T09:25:33Z</time>
      </trkpt>
      <trkpt lat="48.13709" lon="-1.96258">
        <ele>90</ele>
        <time>2025-05-16T09:25:34Z</time>
      </trkpt>
      <trkpt lat="48.13706" lon="-1.96254">
        <ele>89</ele>
        <time>2025-05-16T09:25:35Z</time>
      </trkpt>
      <trkpt lat="48.13702" lon="-1.96251">
        <ele>88</ele>
        <time>2025-05-16T09:25:36Z</time>
      </trkpt>
      <trkpt lat="48.13698" lon="-1.96248">
        <ele>88</ele>
        <time>2025-05-16T09:25:37Z</time>
      </trkpt>
      <trkpt lat="48.13695" lon="-1.96245">
        <ele>87</ele>
        <time>2025-05-16T09:25:38Z</time>
      </trkpt>
      <trkpt lat="48.13691" lon="-1.96242">
        <ele>87</ele>
        <time>2025-05-16T09:25:39Z</time>
      </trkpt>
      <trkpt lat="48.13687" lon="-1.96239">
        <ele>87</ele>
        <time>2025-05-16T09:25:40Z</time>
      </trkpt>
      <trkpt lat="48.13683" lon="-1.96236">
        <ele>86</ele>
        <time>2025-05-16T09:25:41Z</time>
      </trkpt>
      <trkpt lat="48.13679" lon="-1.96232">
        <ele>87</ele>
        <time>2025-05-16T09:25:42Z</time>
      </trkpt>
      <trkpt lat="48.13676" lon="-1.96229">
        <ele>86</ele>
        <time>2025-05-16T09:25:43Z</time>
      </trkpt>
      <trkpt lat="48.13672" lon="-1.96225">
        <ele>86</ele>
        <time>2025-05-16T09:25:44Z</time>
      </trkpt>
      <trkpt lat="48.13669" lon="-1.96222">
        <ele>86</ele>
        <time>2025-05-16T09:25:45Z</time>
      </trkpt>
      <trkpt lat="48.13666" lon="-1.96218">
        <ele>87</ele>
        <time>2025-05-16T09:25:46Z</time>
      </trkpt>
      <trkpt lat="48.13662" lon="-1.96214">
        <ele>87</ele>
        <time>2025-05-16T09:25:47Z</time>
      </trkpt>
      <trkpt lat="48.13659" lon="-1.96211">
        <ele>86</ele>
        <time>2025-05-16T09:25:48Z</time>
      </trkpt>
      <trkpt lat="48.13655" lon="-1.96207">
        <ele>86</ele>
        <time>2025-05-16T09:25:49Z</time>
      </trkpt>
      <trkpt lat="48.13652" lon="-1.96202">
        <ele>86</ele>
        <time>2025-05-16T09:25:50Z</time>
      </trkpt>
      <trkpt lat="48.13648" lon="-1.96197">
        <ele>86</ele>
        <time>2025-05-16T09:25:51Z</time>
      </trkpt>
      <trkpt lat="48.13645" lon="-1.96193">
        <ele>86</ele>
        <time>2025-05-16T09:25:52Z</time>
      </trkpt>
      <trkpt lat="48.13641" lon="-1.96188">
        <ele>86</ele>
        <time>2025-05-16T09:25:53Z</time>
      </trkpt>
      <trkpt lat="48.13638" lon="-1.96182">
        <ele>87</ele>
        <time>2025-05-16T09:25:54Z</time>
      </trkpt>
      <trkpt lat="48.13635" lon="-1.96178">
        <ele>87</ele>
        <time>2025-05-16T09:25:55Z</time>
      </trkpt>
      <trkpt lat="48.13631" lon="-1.96173">
        <ele>87</ele>
        <time>2025-05-16T09:25:56Z</time>
      </trkpt>
      <trkpt lat="48.13629" lon="-1.96168">
        <ele>86</ele>
        <time>2025-05-16T09:25:57Z</time>
      </trkpt>
      <trkpt lat="48.13626" lon="-1.96162">
        <ele>86</ele>
        <time>2025-05-16T09:25:58Z</time>
      </trkpt>
      <trkpt lat="48.13623" lon="-1.96157">
        <ele>86</ele>
        <time>2025-05-16T09:25:59Z</time>
      </trkpt>
      <trkpt lat="48.13621" lon="-1.96152">
        <ele>86</ele>
        <time>2025-05-16T09:26:00Z</time>
      </trkpt>
      <trkpt lat="48.13618" lon="-1.96147">
        <ele>86</ele>
        <time>2025-05-16T09:26:01Z</time>
      </trkpt>
      <trkpt lat="48.13615" lon="-1.96142">
        <ele>85</ele>
        <time>2025-05-16T09:26:02Z</time>
      </trkpt>
      <trkpt lat="48.13612" lon="-1.96136">
        <ele>85</ele>
        <time>2025-05-16T09:26:03Z</time>
      </trkpt>
      <trkpt lat="48.1361" lon="-1.9613">
        <ele>85</ele>
        <time>2025-05-16T09:26:04Z</time>
      </trkpt>
      <trkpt lat="48.13606" lon="-1.96123">
        <ele>84</ele>
        <time>2025-05-16T09:26:05Z</time>
      </trkpt>
      <trkpt lat="48.13604" lon="-1.96117">
        <ele>84</ele>
        <time>2025-05-16T09:26:06Z</time>
      </trkpt>
      <trkpt lat="48.13602" lon="-1.96112">
        <ele>84</ele>
        <time>2025-05-16T09:26:07Z</time>
      </trkpt>
      <trkpt lat="48.136" lon="-1.96106">
        <ele>84</ele>
        <time>2025-05-16T09:26:08Z</time>
      </trkpt>
      <trkpt lat="48.13599" lon="-1.961">
        <ele>84</ele>
        <time>2025-05-16T09:26:09Z</time>
      </trkpt>
      <trkpt lat="48.13596" lon="-1.96094">
        <ele>84</ele>
        <time>2025-05-16T09:26:10Z</time>
      </trkpt>
      <trkpt lat="48.13595" lon="-1.96088">
        <ele>84</ele>
        <time>2025-05-16T09:26:11Z</time>
      </trkpt>
      <trkpt lat="48.13592" lon="-1.96082">
        <ele>85</ele>
        <time>2025-05-16T09:26:12Z</time>
      </trkpt>
      <trkpt lat="48.1359" lon="-1.96076">
        <ele>85</ele>
        <time>2025-05-16T09:26:13Z</time>
      </trkpt>
      <trkpt lat="48.13588" lon="-1.9607">
        <ele>86</ele>
        <time>2025-05-16T09:26:14Z</time>
      </trkpt>
      <trkpt lat="48.13586" lon="-1.96064">
        <ele>86</ele>
        <time>2025-05-16T09:26:15Z</time>
      </trkpt>
      <trkpt lat="48.13585" lon="-1.96057">
        <ele>86</ele>
        <time>2025-05-16T09:26:16Z</time>
      </trkpt>
      <trkpt lat="48.13583" lon="-1.96051">
        <ele>86</ele>
        <time>2025-05-16T09:26:17Z</time>
      </trkpt>
      <trkpt lat="48.13581" lon="-1.96046">
        <ele>87</ele>
        <time>2025-05-16T09:26:18Z</time>
      </trkpt>
      <trkpt lat="48.13579" lon="-1.9604">
        <ele>86</ele>
        <time>2025-05-16T09:26:19Z</time>
      </trkpt>
      <trkpt lat="48.13578" lon="-1.96034">
        <ele>86</ele>
        <time>2025-05-16T09:26:20Z</time>
      </trkpt>
      <trkpt lat="48.13576" lon="-1.96027">
        <ele>86</ele>
        <time>2025-05-16T09:26:21Z</time>
      </trkpt>
      <trkpt lat="48.13574" lon="-1.96021">
        <ele>85</ele>
        <time>2025-05-16T09:26:22Z</time>
      </trkpt>
      <trkpt lat="48.13573" lon="-1.96016">
        <ele>85</ele>
        <time>2025-05-16T09:26:23Z</time>
      </trkpt>
      <trkpt lat="48.13571" lon="-1.9601">
        <ele>85</ele>
        <time>2025-05-16T09:26:24Z</time>
      </trkpt>
      <trkpt lat="48.13569" lon="-1.96003">
        <ele>84</ele>
        <time>2025-05-16T09:26:25Z</time>
      </trkpt>
      <trkpt lat="48.13567" lon="-1.95997">
        <ele>84</ele>
        <time>2025-05-16T09:26:26Z</time>
      </trkpt>
      <trkpt lat="48.13565" lon="-1.95991">
        <ele>84</ele>
        <time>2025-05-16T09:26:27Z</time>
      </trkpt>
      <trkpt lat="48.13563" lon="-1.95985">
        <ele>84</ele>
        <time>2025-05-16T09:26:28Z</time>
      </trkpt>
      <trkpt lat="48.13562" lon="-1.9598">
        <ele>84</ele>
        <time>2025-05-16T09:26:29Z</time>
      </trkpt>
      <trkpt lat="48.13559" lon="-1.95974">
        <ele>84</ele>
        <time>2025-05-16T09:26:30Z</time>
      </trkpt>
      <trkpt lat="48.13557" lon="-1.95968">
        <ele>84</ele>
        <time>2025-05-16T09:26:31Z</time>
      </trkpt>
      <trkpt lat="48.13555" lon="-1.95961">
        <ele>85</ele>
        <time>2025-05-16T09:26:32Z</time>
      </trkpt>
      <trkpt lat="48.13554" lon="-1.95955">
        <ele>85</ele>
        <time>2025-05-16T09:26:33Z</time>
      </trkpt>
      <trkpt lat="48.13552" lon="-1.95949">
        <ele>86</ele>
        <time>2025-05-16T09:26:34Z</time>
      </trkpt>
      <trkpt lat="48.13551" lon="-1.95944">
        <ele>86</ele>
        <time>2025-05-16T09:26:35Z</time>
      </trkpt>
      <trkpt lat="48.13549" lon="-1.95939">
        <ele>86</ele>
        <time>2025-05-16T09:26:36Z</time>
      </trkpt>
      <trkpt lat="48.13546" lon="-1.95934">
        <ele>87</ele>
        <time>2025-05-16T09:26:37Z</time>
      </trkpt>
      <trkpt lat="48.13543" lon="-1.9593">
        <ele>87</ele>
        <time>2025-05-16T09:26:38Z</time>
      </trkpt>
      <trkpt lat="48.13541" lon="-1.95926">
        <ele>87</ele>
        <time>2025-05-16T09:26:39Z</time>
      </trkpt>
      <trkpt lat="48.13538" lon="-1.95922">
        <ele>87</ele>
        <time>2025-05-16T09:26:40Z</time>
      </trkpt>
      <trkpt lat="48.13534" lon="-1.95919">
        <ele>87</ele>
        <time>2025-05-16T09:26:41Z</time>
      </trkpt>
      <trkpt lat="48.13532" lon="-1.95917">
        <ele>87</ele>
        <time>2025-05-16T09:26:42Z</time>
      </trkpt>
      <trkpt lat="48.13529" lon="-1.95916">
        <ele>87</ele>
        <time>2025-05-16T09:26:43Z</time>
      </trkpt>
      <trkpt lat="48.13525" lon="-1.95914">
        <ele>87</ele>
        <time>2025-05-16T09:26:44Z</time>
      </trkpt>
      <trkpt lat="48.13522" lon="-1.95913">
        <ele>88</ele>
        <time>2025-05-16T09:26:45Z</time>
      </trkpt>
      <trkpt lat="48.1352" lon="-1.95912">
        <ele>88</ele>
        <time>2025-05-16T09:26:46Z</time>
      </trkpt>
      <trkpt lat="48.13518" lon="-1.95912">
        <ele>88</ele>
        <time>2025-05-16T09:26:47Z</time>
      </trkpt>
      <trkpt lat="48.13516" lon="-1.95911">
        <ele>89</ele>
        <time>2025-05-16T09:26:48Z</time>
      </trkpt>
      <trkpt lat="48.13514" lon="-1.95909">
        <ele>89</ele>
        <time>2025-05-16T09:26:49Z</time>
      </trkpt>
      <trkpt lat="48.13513" lon="-1.95906">
        <ele>89</ele>
        <time>2025-05-16T09:26:50Z</time>
      </trkpt>
      <trkpt lat="48.13512" lon="-1.95903">
        <ele>89</ele>
        <time>2025-05-16T09:26:51Z</time>
      </trkpt>
      <trkpt lat="48.13512" lon="-1.95899">
        <ele>89</ele>
        <time>2025-05-16T09:26:52Z</time>
      </trkpt>
      <trkpt lat="48.13512" lon="-1.95895">
        <ele>89</ele>
        <time>2025-05-16T09:26:53Z</time>
      </trkpt>
      <trkpt lat="48.13512" lon="-1.9589">
        <ele>88</ele>
        <time>2025-05-16T09:26:54Z</time>
      </trkpt>
      <trkpt lat="48.13512" lon="-1.95884">
        <ele>88</ele>
        <time>2025-05-16T09:26:55Z</time>
      </trkpt>
      <trkpt lat="48.13512" lon="-1.95878">
        <ele>88</ele>
        <time>2025-05-16T09:26:56Z</time>
      </trkpt>
      <trkpt lat="48.13512" lon="-1.95872">
        <ele>88</ele>
        <time>2025-05-16T09:26:57Z</time>
      </trkpt>
      <trkpt lat="48.13513" lon="-1.95865">
        <ele>89</ele>
        <time>2025-05-16T09:26:58Z</time>
      </trkpt>
      <trkpt lat="48.13513" lon="-1.95857">
        <ele>89</ele>
        <time>2025-05-16T09:26:59Z</time>
      </trkpt>
      <trkpt lat="48.13512" lon="-1.95849">
        <ele>88</ele>
        <time>2025-05-16T09:27:00Z</time>
      </trkpt>
      <trkpt lat="48.13512" lon="-1.95842">
        <ele>88</ele>
        <time>2025-05-16T09:27:01Z</time>
      </trkpt>
      <trkpt lat="48.1351" lon="-1.95834">
        <ele>87</ele>
        <time>2025-05-16T09:27:02Z</time>
      </trkpt>
      <trkpt lat="48.13508" lon="-1.95826">
        <ele>86</ele>
        <time>2025-05-16T09:27:03Z</time>
      </trkpt>
      <trkpt lat="48.13507" lon="-1.95817">
        <ele>86</ele>
        <time>2025-05-16T09:27:04Z</time>
      </trkpt>
      <trkpt lat="48.13506" lon="-1.9581">
        <ele>86</ele>
        <time>2025-05-16T09:27:05Z</time>
      </trkpt>
      <trkpt lat="48.13504" lon="-1.95802">
        <ele>85</ele>
        <time>2025-05-16T09:27:06Z</time>
      </trkpt>
      <trkpt lat="48.13503" lon="-1.95794">
        <ele>85</ele>
        <time>2025-05-16T09:27:07Z</time>
      </trkpt>
      <trkpt lat="48.13502" lon="-1.95787">
        <ele>86</ele>
        <time>2025-05-16T09:27:08Z</time>
      </trkpt>
      <trkpt lat="48.13501" lon="-1.95779">
        <ele>87</ele>
        <time>2025-05-16T09:27:09Z</time>
      </trkpt>
      <trkpt lat="48.13499" lon="-1.95772">
        <ele>87</ele>
        <time>2025-05-16T09:27:10Z</time>
      </trkpt>
      <trkpt lat="48.13498" lon="-1.95765">
        <ele>88</ele>
        <time>2025-05-16T09:27:11Z</time>
      </trkpt>
      <trkpt lat="48.13496" lon="-1.95757">
        <ele>88</ele>
        <time>2025-05-16T09:27:12Z</time>
      </trkpt>
      <trkpt lat="48.13495" lon="-1.9575">
        <ele>87</ele>
        <time>2025-05-16T09:27:13Z</time>
      </trkpt>
      <trkpt lat="48.13493" lon="-1.95743">
        <ele>87</ele>
        <time>2025-05-16T09:27:14Z</time>
      </trkpt>
      <trkpt lat="48.1349" lon="-1.95736">
        <ele>87</ele>
        <time>2025-05-16T09:27:15Z</time>
      </trkpt>
      <trkpt lat="48.13487" lon="-1.95729">
        <ele>87</ele>
        <time>2025-05-16T09:27:16Z</time>
      </trkpt>
      <trkpt lat="48.13485" lon="-1.95723">
        <ele>87</ele>
        <time>2025-05-16T09:27:17Z</time>
      </trkpt>
      <trkpt lat="48.13483" lon="-1.95717">
        <ele>87</ele>
        <time>2025-05-16T09:27:18Z</time>
      </trkpt>
      <trkpt lat="48.13481" lon="-1.95711">
        <ele>87</ele>
        <time>2025-05-16T09:27:19Z</time>
      </trkpt>
      <trkpt lat="48.13478" lon="-1.95706">
        <ele>87</ele>
        <time>2025-05-16T09:27:20Z</time>
      </trkpt>
      <trkpt lat="48.13477" lon="-1.95701">
        <ele>87</ele>
        <time>2025-05-16T09:27:21Z</time>
      </trkpt>
      <trkpt lat="48.13474" lon="-1.95696">
        <ele>87</ele>
        <time>2025-05-16T09:27:22Z</time>
      </trkpt>
      <trkpt lat="48.13472" lon="-1.95691">
        <ele>87</ele>
        <time>2025-05-16T09:27:23Z</time>
      </trkpt>
      <trkpt lat="48.13471" lon="-1.95687">
        <ele>87</ele>
        <time>2025-05-16T09:27:24Z</time>
      </trkpt>
      <trkpt lat="48.13469" lon="-1.95684">
        <ele>87</ele>
        <time>2025-05-16T09:27:25Z</time>
      </trkpt>
      <trkpt lat="48.13469" lon="-1.95681">
        <ele>87</ele>
        <time>2025-05-16T09:27:26Z</time>
      </trkpt>
      <trkpt lat="48.13469" lon="-1.95678">
        <ele>87</ele>
        <time>2025-05-16T09:27:27Z</time>
      </trkpt>
      <trkpt lat="48.13471" lon="-1.95677">
        <ele>87</ele>
        <time>2025-05-16T09:27:28Z</time>
      </trkpt>
      <trkpt lat="48.13474" lon="-1.95677">
        <ele>87</ele>
        <time>2025-05-16T09:27:29Z</time>
      </trkpt>
      <trkpt lat="48.13476" lon="-1.95676">
        <ele>87</ele>
        <time>2025-05-16T09:27:30Z</time>
      </trkpt>
      <trkpt lat="48.13478" lon="-1.95674">
        <ele>87</ele>
        <time>2025-05-16T09:27:31Z</time>
      </trkpt>
      <trkpt lat="48.13481" lon="-1.95671">
        <ele>87</ele>
        <time>2025-05-16T09:27:32Z</time>
      </trkpt>
      <trkpt lat="48.13482" lon="-1.95667">
        <ele>88</ele>
        <time>2025-05-16T09:27:33Z</time>
      </trkpt>
      <trkpt lat="48.13482" lon="-1.95664">
        <ele>87</ele>
        <time>2025-05-16T09:27:34Z</time>
      </trkpt>
      <trkpt lat="48.13481" lon="-1.95659">
        <ele>87</ele>
        <time>2025-05-16T09:27:35Z</time>
      </trkpt>
      <trkpt lat="48.13481" lon="-1.95655">
        <ele>87</ele>
        <time>2025-05-16T09:27:36Z</time>
      </trkpt>
      <trkpt lat="48.13481" lon="-1.95652">
        <ele>88</ele>
        <time>2025-05-16T09:27:37Z</time>
      </trkpt>
      <trkpt lat="48.1348" lon="-1.95648">
        <ele>88</ele>
        <time>2025-05-16T09:27:38Z</time>
      </trkpt>
      <trkpt lat="48.13479" lon="-1.95644">
        <ele>88</ele>
        <time>2025-05-16T09:27:39Z</time>
      </trkpt>
      <trkpt lat="48.13477" lon="-1.95641">
        <ele>87</ele>
        <time>2025-05-16T09:27:40Z</time>
      </trkpt>
      <trkpt lat="48.13475" lon="-1.95639">
        <ele>87</ele>
        <time>2025-05-16T09:27:41Z</time>
      </trkpt>
      <trkpt lat="48.13473" lon="-1.95635">
        <ele>87</ele>
        <time>2025-05-16T09:27:42Z</time>
      </trkpt>
      <trkpt lat="48.13471" lon="-1.95632">
        <ele>87</ele>
        <time>2025-05-16T09:27:43Z</time>
      </trkpt>
      <trkpt lat="48.13468" lon="-1.95629">
        <ele>86</ele>
        <time>2025-05-16T09:27:44Z</time>
      </trkpt>
      <trkpt lat="48.13466" lon="-1.95625">
        <ele>86</ele>
        <time>2025-05-16T09:27:45Z</time>
      </trkpt>
      <trkpt lat="48.13464" lon="-1.95622">
        <ele>86</ele>
        <time>2025-05-16T09:27:46Z</time>
      </trkpt>
      <trkpt lat="48.13462" lon="-1.95618">
        <ele>86</ele>
        <time>2025-05-16T09:27:47Z</time>
      </trkpt>
      <trkpt lat="48.1346" lon="-1.95614">
        <ele>86</ele>
        <time>2025-05-16T09:27:48Z</time>
      </trkpt>
      <trkpt lat="48.13459" lon="-1.95609">
        <ele>86</ele>
        <time>2025-05-16T09:27:49Z</time>
      </trkpt>
      <trkpt lat="48.13458" lon="-1.95603">
        <ele>85</ele>
        <time>2025-05-16T09:27:50Z</time>
      </trkpt>
      <trkpt lat="48.13456" lon="-1.95598">
        <ele>85</ele>
        <time>2025-05-16T09:27:51Z</time>
      </trkpt>
      <trkpt lat="48.13454" lon="-1.95592">
        <ele>85</ele>
        <time>2025-05-16T09:27:52Z</time>
      </trkpt>
      <trkpt lat="48.13453" lon="-1.95587">
        <ele>85</ele>
        <time>2025-05-16T09:27:53Z</time>
      </trkpt>
      <trkpt lat="48.13451" lon="-1.95582">
        <ele>86</ele>
        <time>2025-05-16T09:27:54Z</time>
      </trkpt>
      <trkpt lat="48.13449" lon="-1.95576">
        <ele>86</ele>
        <time>2025-05-16T09:27:55Z</time>
      </trkpt>
      <trkpt lat="48.13447" lon="-1.95571">
        <ele>86</ele>
        <time>2025-05-16T09:27:56Z</time>
      </trkpt>
      <trkpt lat="48.13445" lon="-1.95565">
        <ele>86</ele>
        <time>2025-05-16T09:27:57Z</time>
      </trkpt>
      <trkpt lat="48.13444" lon="-1.95559">
        <ele>86</ele>
        <time>2025-05-16T09:27:58Z</time>
      </trkpt>
      <trkpt lat="48.13442" lon="-1.95554">
        <ele>86</ele>
        <time>2025-05-16T09:27:59Z</time>
      </trkpt>
      <trkpt lat="48.1344" lon="-1.95548">
        <ele>85</ele>
        <time>2025-05-16T09:28:00Z</time>
      </trkpt>
      <trkpt lat="48.13439" lon="-1.95542">
        <ele>85</ele>
        <time>2025-05-16T09:28:01Z</time>
      </trkpt>
      <trkpt lat="48.13437" lon="-1.95536">
        <ele>85</ele>
        <time>2025-05-16T09:28:02Z</time>
      </trkpt>
      <trkpt lat="48.13435" lon="-1.9553">
        <ele>85</ele>
        <time>2025-05-16T09:28:03Z</time>
      </trkpt>
      <trkpt lat="48.13433" lon="-1.95524">
        <ele>85</ele>
        <time>2025-05-16T09:28:04Z</time>
      </trkpt>
      <trkpt lat="48.13431" lon="-1.95518">
        <ele>85</ele>
        <time>2025-05-16T09:28:05Z</time>
      </trkpt>
      <trkpt lat="48.13429" lon="-1.95511">
        <ele>85</ele>
        <time>2025-05-16T09:28:06Z</time>
      </trkpt>
      <trkpt lat="48.13428" lon="-1.95505">
        <ele>85</ele>
        <time>2025-05-16T09:28:07Z</time>
      </trkpt>
      <trkpt lat="48.13426" lon="-1.95499">
        <ele>85</ele>
        <time>2025-05-16T09:28:08Z</time>
      </trkpt>
      <trkpt lat="48.13424" lon="-1.95493">
        <ele>85</ele>
        <time>2025-05-16T09:28:09Z</time>
      </trkpt>
      <trkpt lat="48.13422" lon="-1.95487">
        <ele>84</ele>
        <time>2025-05-16T09:28:10Z</time>
      </trkpt>
      <trkpt lat="48.1342" lon="-1.95481">
        <ele>84</ele>
        <time>2025-05-16T09:28:11Z</time>
      </trkpt>
      <trkpt lat="48.13418" lon="-1.95475">
        <ele>84</ele>
        <time>2025-05-16T09:28:12Z</time>
      </trkpt>
      <trkpt lat="48.13417" lon="-1.95468">
        <ele>84</ele>
        <time>2025-05-16T09:28:13Z</time>
      </trkpt>
      <trkpt lat="48.13415" lon="-1.95461">
        <ele>84</ele>
        <time>2025-05-16T09:28:14Z</time>
      </trkpt>
      <trkpt lat="48.13413" lon="-1.95454">
        <ele>84</ele>
        <time>2025-05-16T09:28:15Z</time>
      </trkpt>
      <trkpt lat="48.13411" lon="-1.95448">
        <ele>84</ele>
        <time>2025-05-16T09:28:16Z</time>
      </trkpt>
      <trkpt lat="48.13409" lon="-1.95442">
        <ele>84</ele>
        <time>2025-05-16T09:28:17Z</time>
      </trkpt>
      <trkpt lat="48.13407" lon="-1.95435">
        <ele>84</ele>
        <time>2025-05-16T09:28:18Z</time>
      </trkpt>
      <trkpt lat="48.13405" lon="-1.95429">
        <ele>84</ele>
        <time>2025-05-16T09:28:19Z</time>
      </trkpt>
      <trkpt lat="48.13403" lon="-1.95422">
        <ele>84</ele>
        <time>2025-05-16T09:28:20Z</time>
      </trkpt>
      <trkpt lat="48.13401" lon="-1.95416">
        <ele>84</ele>
        <time>2025-05-16T09:28:21Z</time>
      </trkpt>
      <trkpt lat="48.13399" lon="-1.95409">
        <ele>84</ele>
        <time>2025-05-16T09:28:22Z</time>
      </trkpt>
      <trkpt lat="48.13397" lon="-1.95403">
        <ele>84</ele>
        <time>2025-05-16T09:28:23Z</time>
      </trkpt>
      <trkpt lat="48.13395" lon="-1.95396">
        <ele>84</ele>
        <time>2025-05-16T09:28:24Z</time>
      </trkpt>
      <trkpt lat="48.13393" lon="-1.9539">
        <ele>84</ele>
        <time>2025-05-16T09:28:25Z</time>
      </trkpt>
      <trkpt lat="48.13391" lon="-1.95384">
        <ele>84</ele>
        <time>2025-05-16T09:28:26Z</time>
      </trkpt>
      <trkpt lat="48.13389" lon="-1.95377">
        <ele>84</ele>
        <time>2025-05-16T09:28:27Z</time>
      </trkpt>
      <trkpt lat="48.13387" lon="-1.9537">
        <ele>84</ele>
        <time>2025-05-16T09:28:28Z</time>
      </trkpt>
      <trkpt lat="48.13386" lon="-1.95364">
        <ele>84</ele>
        <time>2025-05-16T09:28:29Z</time>
      </trkpt>
      <trkpt lat="48.13384" lon="-1.95358">
        <ele>83</ele>
        <time>2025-05-16T09:28:30Z</time>
      </trkpt>
      <trkpt lat="48.13382" lon="-1.95352">
        <ele>84</ele>
        <time>2025-05-16T09:28:31Z</time>
      </trkpt>
      <trkpt lat="48.1338" lon="-1.95345">
        <ele>84</ele>
        <time>2025-05-16T09:28:32Z</time>
      </trkpt>
      <trkpt lat="48.13377" lon="-1.95339">
        <ele>83</ele>
        <time>2025-05-16T09:28:33Z</time>
      </trkpt>
      <trkpt lat="48.13375" lon="-1.95333">
        <ele>84</ele>
        <time>2025-05-16T09:28:34Z</time>
      </trkpt>
      <trkpt lat="48.13374" lon="-1.95327">
        <ele>84</ele>
        <time>2025-05-16T09:28:35Z</time>
      </trkpt>
      <trkpt lat="48.13371" lon="-1.9532">
        <ele>84</ele>
        <time>2025-05-16T09:28:36Z</time>
      </trkpt>
      <trkpt lat="48.13369" lon="-1.95314">
        <ele>84</ele>
        <time>2025-05-16T09:28:37Z</time>
      </trkpt>
      <trkpt lat="48.13368" lon="-1.95308">
        <ele>84</ele>
        <time>2025-05-16T09:28:38Z</time>
      </trkpt>
      <trkpt lat="48.13366" lon="-1.95302">
        <ele>85</ele>
        <time>2025-05-16T09:28:39Z</time>
      </trkpt>
      <trkpt lat="48.13364" lon="-1.95296">
        <ele>85</ele>
        <time>2025-05-16T09:28:40Z</time>
      </trkpt>
      <trkpt lat="48.13362" lon="-1.95291">
        <ele>85</ele>
        <time>2025-05-16T09:28:41Z</time>
      </trkpt>
      <trkpt lat="48.1336" lon="-1.95286">
        <ele>85</ele>
        <time>2025-05-16T09:28:42Z</time>
      </trkpt>
      <trkpt lat="48.13358" lon="-1.9528">
        <ele>85</ele>
        <time>2025-05-16T09:28:43Z</time>
      </trkpt>
      <trkpt lat="48.13356" lon="-1.95275">
        <ele>86</ele>
        <time>2025-05-16T09:28:44Z</time>
      </trkpt>
      <trkpt lat="48.13355" lon="-1.95269">
        <ele>86</ele>
        <time>2025-05-16T09:28:45Z</time>
      </trkpt>
      <trkpt lat="48.13353" lon="-1.95264">
        <ele>86</ele>
        <time>2025-05-16T09:28:46Z</time>
      </trkpt>
      <trkpt lat="48.13352" lon="-1.95258">
        <ele>87</ele>
        <time>2025-05-16T09:28:47Z</time>
      </trkpt>
      <trkpt lat="48.1335" lon="-1.95253">
        <ele>87</ele>
        <time>2025-05-16T09:28:48Z</time>
      </trkpt>
      <trkpt lat="48.13349" lon="-1.95248">
        <ele>86</ele>
        <time>2025-05-16T09:28:49Z</time>
      </trkpt>
      <trkpt lat="48.13347" lon="-1.95242">
        <ele>86</ele>
        <time>2025-05-16T09:28:50Z</time>
      </trkpt>
      <trkpt lat="48.13346" lon="-1.95236">
        <ele>86</ele>
        <time>2025-05-16T09:28:51Z</time>
      </trkpt>
      <trkpt lat="48.13345" lon="-1.95231">
        <ele>87</ele>
        <time>2025-05-16T09:28:52Z</time>
      </trkpt>
      <trkpt lat="48.13343" lon="-1.95226">
        <ele>87</ele>
        <time>2025-05-16T09:28:53Z</time>
      </trkpt>
      <trkpt lat="48.13342" lon="-1.95221">
        <ele>87</ele>
        <time>2025-05-16T09:28:54Z</time>
      </trkpt>
      <trkpt lat="48.13341" lon="-1.95217">
        <ele>86</ele>
        <time>2025-05-16T09:28:55Z</time>
      </trkpt>
      <trkpt lat="48.1334" lon="-1.95212">
        <ele>87</ele>
        <time>2025-05-16T09:28:56Z</time>
      </trkpt>
      <trkpt lat="48.13339" lon="-1.95207">
        <ele>87</ele>
        <time>2025-05-16T09:28:57Z</time>
      </trkpt>
      <trkpt lat="48.1334" lon="-1.95202">
        <ele>87</ele>
        <time>2025-05-16T09:28:58Z</time>
      </trkpt>
      <trkpt lat="48.1334" lon="-1.95197">
        <ele>87</ele>
        <time>2025-05-16T09:28:59Z</time>
      </trkpt>
      <trkpt lat="48.1334" lon="-1.95191">
        <ele>86</ele>
        <time>2025-05-16T09:29:00Z</time>
      </trkpt>
      <trkpt lat="48.13339" lon="-1.95187">
        <ele>86</ele>
        <time>2025-05-16T09:29:01Z</time>
      </trkpt>
      <trkpt lat="48.13338" lon="-1.95183">
        <ele>86</ele>
        <time>2025-05-16T09:29:02Z</time>
      </trkpt>
      <trkpt lat="48.13336" lon="-1.95181">
        <ele>86</ele>
        <time>2025-05-16T09:29:03Z</time>
      </trkpt>
      <trkpt lat="48.13333" lon="-1.95179">
        <ele>86</ele>
        <time>2025-05-16T09:29:04Z</time>
      </trkpt>
      <trkpt lat="48.13331" lon="-1.95175">
        <ele>86</ele>
        <time>2025-05-16T09:29:05Z</time>
      </trkpt>
      <trkpt lat="48.13329" lon="-1.95171">
        <ele>86</ele>
        <time>2025-05-16T09:29:06Z</time>
      </trkpt>
      <trkpt lat="48.13328" lon="-1.95165">
        <ele>86</ele>
        <time>2025-05-16T09:29:07Z</time>
      </trkpt>
      <trkpt lat="48.13327" lon="-1.9516">
        <ele>85</ele>
        <time>2025-05-16T09:29:08Z</time>
      </trkpt>
      <trkpt lat="48.13327" lon="-1.95155">
        <ele>85</ele>
        <time>2025-05-16T09:29:09Z</time>
      </trkpt>
      <trkpt lat="48.13326" lon="-1.9515">
        <ele>86</ele>
        <time>2025-05-16T09:29:10Z</time>
      </trkpt>
      <trkpt lat="48.13325" lon="-1.95145">
        <ele>86</ele>
        <time>2025-05-16T09:29:11Z</time>
      </trkpt>
      <trkpt lat="48.13325" lon="-1.9514">
        <ele>88</ele>
        <time>2025-05-16T09:29:12Z</time>
      </trkpt>
      <trkpt lat="48.13325" lon="-1.95134">
        <ele>88</ele>
        <time>2025-05-16T09:29:13Z</time>
      </trkpt>
      <trkpt lat="48.13324" lon="-1.95129">
        <ele>88</ele>
        <time>2025-05-16T09:29:14Z</time>
      </trkpt>
      <trkpt lat="48.13324" lon="-1.95125">
        <ele>88</ele>
        <time>2025-05-16T09:29:15Z</time>
      </trkpt>
      <trkpt lat="48.13324" lon="-1.95121">
        <ele>88</ele>
        <time>2025-05-16T09:29:16Z</time>
      </trkpt>
      <trkpt lat="48.13324" lon="-1.95117">
        <ele>88</ele>
        <time>2025-05-16T09:29:17Z</time>
      </trkpt>
      <trkpt lat="48.13324" lon="-1.95113">
        <ele>88</ele>
        <time>2025-05-16T09:29:18Z</time>
      </trkpt>
      <trkpt lat="48.13324" lon="-1.95109">
        <ele>87</ele>
        <time>2025-05-16T09:29:19Z</time>
      </trkpt>
      <trkpt lat="48.13324" lon="-1.95104">
        <ele>88</ele>
        <time>2025-05-16T09:29:20Z</time>
      </trkpt>
      <trkpt lat="48.13324" lon="-1.951">
        <ele>88</ele>
        <time>2025-05-16T09:29:21Z</time>
      </trkpt>
      <trkpt lat="48.13324" lon="-1.95096">
        <ele>88</ele>
        <time>2025-05-16T09:29:22Z</time>
      </trkpt>
      <trkpt lat="48.13324" lon="-1.95092">
        <ele>89</ele>
        <time>2025-05-16T09:29:23Z</time>
      </trkpt>
      <trkpt lat="48.13324" lon="-1.95088">
        <ele>89</ele>
        <time>2025-05-16T09:29:24Z</time>
      </trkpt>
      <trkpt lat="48.13324" lon="-1.95084">
        <ele>88</ele>
        <time>2025-05-16T09:29:25Z</time>
      </trkpt>
      <trkpt lat="48.13324" lon="-1.9508">
        <ele>88</ele>
        <time>2025-05-16T09:29:26Z</time>
      </trkpt>
      <trkpt lat="48.13325" lon="-1.95076">
        <ele>88</ele>
        <time>2025-05-16T09:29:27Z</time>
      </trkpt>
      <trkpt lat="48.13324" lon="-1.95072">
        <ele>89</ele>
        <time>2025-05-16T09:29:28Z</time>
      </trkpt>
      <trkpt lat="48.13324" lon="-1.95068">
        <ele>89</ele>
        <time>2025-05-16T09:29:29Z</time>
      </trkpt>
      <trkpt lat="48.13324" lon="-1.95064">
        <ele>89</ele>
        <time>2025-05-16T09:29:30Z</time>
      </trkpt>
      <trkpt lat="48.13323" lon="-1.9506">
        <ele>90</ele>
        <time>2025-05-16T09:29:31Z</time>
      </trkpt>
      <trkpt lat="48.13323" lon="-1.95056">
        <ele>90</ele>
        <time>2025-05-16T09:29:32Z</time>
      </trkpt>
      <trkpt lat="48.13323" lon="-1.95051">
        <ele>90</ele>
        <time>2025-05-16T09:29:33Z</time>
      </trkpt>
      <trkpt lat="48.13324" lon="-1.95047">
        <ele>91</ele>
        <time>2025-05-16T09:29:34Z</time>
      </trkpt>
      <trkpt lat="48.13324" lon="-1.95043">
        <ele>91</ele>
        <time>2025-05-16T09:29:35Z</time>
      </trkpt>
      <trkpt lat="48.13324" lon="-1.95039">
        <ele>91</ele>
        <time>2025-05-16T09:29:36Z</time>
      </trkpt>
      <trkpt lat="48.13325" lon="-1.95034">
        <ele>91</ele>
        <time>2025-05-16T09:29:37Z</time>
      </trkpt>
      <trkpt lat="48.13327" lon="-1.95031">
        <ele>91</ele>
        <time>2025-05-16T09:29:38Z</time>
      </trkpt>
      <trkpt lat="48.1333" lon="-1.9503">
        <ele>91</ele>
        <time>2025-05-16T09:29:39Z</time>
      </trkpt>
      <trkpt lat="48.13332" lon="-1.95029">
        <ele>91</ele>
        <time>2025-05-16T09:29:40Z</time>
      </trkpt>
      <trkpt lat="48.13335" lon="-1.95029">
        <ele>92</ele>
        <time>2025-05-16T09:29:41Z</time>
      </trkpt>
      <trkpt lat="48.13338" lon="-1.95029">
        <ele>92</ele>
        <time>2025-05-16T09:29:42Z</time>
      </trkpt>
      <trkpt lat="48.1334" lon="-1.9503">
        <ele>92</ele>
        <time>2025-05-16T09:29:43Z</time>
      </trkpt>
      <trkpt lat="48.13342" lon="-1.9503">
        <ele>93</ele>
        <time>2025-05-16T09:29:44Z</time>
      </trkpt>
      <trkpt lat="48.13343" lon="-1.95028">
        <ele>92</ele>
        <time>2025-05-16T09:29:45Z</time>
      </trkpt>
      <trkpt lat="48.13344" lon="-1.95025">
        <ele>92</ele>
        <time>2025-05-16T09:29:46Z</time>
      </trkpt>
      <trkpt lat="48.13345" lon="-1.95022">
        <ele>92</ele>
        <time>2025-05-16T09:29:47Z</time>
      </trkpt>
      <trkpt lat="48.13346" lon="-1.95019">
        <ele>92</ele>
        <time>2025-05-16T09:29:48Z</time>
      </trkpt>
      <trkpt lat="48.13347" lon="-1.95016">
        <ele>91</ele>
        <time>2025-05-16T09:29:49Z</time>
      </trkpt>
      <trkpt lat="48.13346" lon="-1.95013">
        <ele>92</ele>
        <time>2025-05-16T09:29:50Z</time>
      </trkpt>
      <trkpt lat="48.13345" lon="-1.95011">
        <ele>92</ele>
        <time>2025-05-16T09:29:51Z</time>
      </trkpt>
      <trkpt lat="48.13343" lon="-1.95009">
        <ele>92</ele>
        <time>2025-05-16T09:29:52Z</time>
      </trkpt>
      <trkpt lat="48.13342" lon="-1.95005">
        <ele>91</ele>
        <time>2025-05-16T09:29:53Z</time>
      </trkpt>
      <trkpt lat="48.13341" lon="-1.95001">
        <ele>91</ele>
        <time>2025-05-16T09:29:54Z</time>
      </trkpt>
      <trkpt lat="48.1334" lon="-1.94997">
        <ele>92</ele>
        <time>2025-05-16T09:29:55Z</time>
      </trkpt>
      <trkpt lat="48.1334" lon="-1.94993">
        <ele>92</ele>
        <time>2025-05-16T09:29:56Z</time>
      </trkpt>
      <trkpt lat="48.1334" lon="-1.94989">
        <ele>93</ele>
        <time>2025-05-16T09:29:57Z</time>
      </trkpt>
      <trkpt lat="48.13341" lon="-1.94985">
        <ele>93</ele>
        <time>2025-05-16T09:29:58Z</time>
      </trkpt>
      <trkpt lat="48.13342" lon="-1.94981">
        <ele>93</ele>
        <time>2025-05-16T09:29:59Z</time>
      </trkpt>
      <trkpt lat="48.13343" lon="-1.94977">
        <ele>93</ele>
        <time>2025-05-16T09:30:00Z</time>
      </trkpt>
      <trkpt lat="48.13343" lon="-1.94974">
        <ele>93</ele>
        <time>2025-05-16T09:30:01Z</time>
      </trkpt>
      <trkpt lat="48.13344" lon="-1.94971">
        <ele>93</ele>
        <time>2025-05-16T09:30:02Z</time>
      </trkpt>
      <trkpt lat="48.13345" lon="-1.94968">
        <ele>93</ele>
        <time>2025-05-16T09:30:03Z</time>
      </trkpt>
      <trkpt lat="48.13345" lon="-1.94965">
        <ele>92</ele>
        <time>2025-05-16T09:30:04Z</time>
      </trkpt>
      <trkpt lat="48.13345" lon="-1.94963">
        <ele>92</ele>
        <time>2025-05-16T09:30:05Z</time>
      </trkpt>
      <trkpt lat="48.13344" lon="-1.94961">
        <ele>93</ele>
        <time>2025-05-16T09:30:06Z</time>
      </trkpt>
      <trkpt lat="48.13342" lon="-1.94959">
        <ele>93</ele>
        <time>2025-05-16T09:30:07Z</time>
      </trkpt>
      <trkpt lat="48.1334" lon="-1.94958">
        <ele>93</ele>
        <time>2025-05-16T09:30:08Z</time>
      </trkpt>
      <trkpt lat="48.13338" lon="-1.94956">
        <ele>93</ele>
        <time>2025-05-16T09:30:09Z</time>
      </trkpt>
      <trkpt lat="48.13335" lon="-1.94956">
        <ele>93</ele>
        <time>2025-05-16T09:30:10Z</time>
      </trkpt>
      <trkpt lat="48.13333" lon="-1.94956">
        <ele>93</ele>
        <time>2025-05-16T09:30:11Z</time>
      </trkpt>
      <trkpt lat="48.1333" lon="-1.94957">
        <ele>93</ele>
        <time>2025-05-16T09:30:12Z</time>
      </trkpt>
      <trkpt lat="48.13328" lon="-1.94958">
        <ele>93</ele>
        <time>2025-05-16T09:30:13Z</time>
      </trkpt>
      <trkpt lat="48.13326" lon="-1.94958">
        <ele>93</ele>
        <time>2025-05-16T09:30:14Z</time>
      </trkpt>
      <trkpt lat="48.13324" lon="-1.94957">
        <ele>94</ele>
        <time>2025-05-16T09:30:15Z</time>
      </trkpt>
      <trkpt lat="48.13322" lon="-1.94956">
        <ele>94</ele>
        <time>2025-05-16T09:30:16Z</time>
      </trkpt>
      <trkpt lat="48.1332" lon="-1.94955">
        <ele>94</ele>
        <time>2025-05-16T09:30:17Z</time>
      </trkpt>
      <trkpt lat="48.13319" lon="-1.94955">
        <ele>94</ele>
        <time>2025-05-16T09:30:18Z</time>
      </trkpt>
      <trkpt lat="48.13316" lon="-1.94954">
        <ele>94</ele>
        <time>2025-05-16T09:30:19Z</time>
      </trkpt>
      <trkpt lat="48.13314" lon="-1.94952">
        <ele>94</ele>
        <time>2025-05-16T09:30:20Z</time>
      </trkpt>
      <trkpt lat="48.13312" lon="-1.94949">
        <ele>94</ele>
        <time>2025-05-16T09:30:21Z</time>
      </trkpt>
      <trkpt lat="48.13311" lon="-1.94945">
        <ele>93</ele>
        <time>2025-05-16T09:30:22Z</time>
      </trkpt>
      <trkpt lat="48.1331" lon="-1.94941">
        <ele>92</ele>
        <time>2025-05-16T09:30:23Z</time>
      </trkpt>
      <trkpt lat="48.13309" lon="-1.94936">
        <ele>92</ele>
        <time>2025-05-16T09:30:24Z</time>
      </trkpt>
      <trkpt lat="48.13308" lon="-1.94932">
        <ele>91</ele>
        <time>2025-05-16T09:30:25Z</time>
      </trkpt>
      <trkpt lat="48.13307" lon="-1.94927">
        <ele>91</ele>
        <time>2025-05-16T09:30:26Z</time>
      </trkpt>
      <trkpt lat="48.13306" lon="-1.94923">
        <ele>91</ele>
        <time>2025-05-16T09:30:27Z</time>
      </trkpt>
      <trkpt lat="48.13306" lon="-1.94918">
        <ele>91</ele>
        <time>2025-05-16T09:30:28Z</time>
      </trkpt>
      <trkpt lat="48.13305" lon="-1.94914">
        <ele>91</ele>
        <time>2025-05-16T09:30:29Z</time>
      </trkpt>
      <trkpt lat="48.13303" lon="-1.94909">
        <ele>90</ele>
        <time>2025-05-16T09:30:30Z</time>
      </trkpt>
      <trkpt lat="48.13303" lon="-1.94905">
        <ele>90</ele>
        <time>2025-05-16T09:30:31Z</time>
      </trkpt>
      <trkpt lat="48.13302" lon="-1.949">
        <ele>90</ele>
        <time>2025-05-16T09:30:32Z</time>
      </trkpt>
      <trkpt lat="48.13301" lon="-1.94894">
        <ele>90</ele>
        <time>2025-05-16T09:30:33Z</time>
      </trkpt>
      <trkpt lat="48.133" lon="-1.94889">
        <ele>90</ele>
        <time>2025-05-16T09:30:34Z</time>
      </trkpt>
      <trkpt lat="48.13299" lon="-1.94884">
        <ele>91</ele>
        <time>2025-05-16T09:30:35Z</time>
      </trkpt>
      <trkpt lat="48.13298" lon="-1.94879">
        <ele>91</ele>
        <time>2025-05-16T09:30:36Z</time>
      </trkpt>
      <trkpt lat="48.13297" lon="-1.94874">
        <ele>91</ele>
        <time>2025-05-16T09:30:37Z</time>
      </trkpt>
      <trkpt lat="48.13297" lon="-1.94868">
        <ele>91</ele>
        <time>2025-05-16T09:30:38Z</time>
      </trkpt>
      <trkpt lat="48.13295" lon="-1.94862">
        <ele>91</ele>
        <time>2025-05-16T09:30:39Z</time>
      </trkpt>
      <trkpt lat="48.13294" lon="-1.94857">
        <ele>92</ele>
        <time>2025-05-16T09:30:40Z</time>
      </trkpt>
      <trkpt lat="48.13293" lon="-1.94852">
        <ele>91</ele>
        <time>2025-05-16T09:30:41Z</time>
      </trkpt>
      <trkpt lat="48.13292" lon="-1.94847">
        <ele>91</ele>
        <time>2025-05-16T09:30:42Z</time>
      </trkpt>
      <trkpt lat="48.13291" lon="-1.94841">
        <ele>90</ele>
        <time>2025-05-16T09:30:43Z</time>
      </trkpt>
      <trkpt lat="48.1329" lon="-1.94835">
        <ele>90</ele>
        <time>2025-05-16T09:30:44Z</time>
      </trkpt>
      <trkpt lat="48.13289" lon="-1.94829">
        <ele>90</ele>
        <time>2025-05-16T09:30:45Z</time>
      </trkpt>
      <trkpt lat="48.13288" lon="-1.94823">
        <ele>90</ele>
        <time>2025-05-16T09:30:46Z</time>
      </trkpt>
      <trkpt lat="48.13288" lon="-1.94817">
        <ele>89</ele>
        <time>2025-05-16T09:30:47Z</time>
      </trkpt>
      <trkpt lat="48.13286" lon="-1.94812">
        <ele>88</ele>
        <time>2025-05-16T09:30:48Z</time>
      </trkpt>
      <trkpt lat="48.13284" lon="-1.94807">
        <ele>87</ele>
        <time>2025-05-16T09:30:49Z</time>
      </trkpt>
      <trkpt lat="48.13283" lon="-1.94802">
        <ele>87</ele>
        <time>2025-05-16T09:30:50Z</time>
      </trkpt>
      <trkpt lat="48.13283" lon="-1.94797">
        <ele>87</ele>
        <time>2025-05-16T09:30:51Z</time>
      </trkpt>
      <trkpt lat="48.13282" lon="-1.94792">
        <ele>86</ele>
        <time>2025-05-16T09:30:52Z</time>
      </trkpt>
      <trkpt lat="48.13281" lon="-1.94786">
        <ele>86</ele>
        <time>2025-05-16T09:30:53Z</time>
      </trkpt>
      <trkpt lat="48.1328" lon="-1.9478">
        <ele>86</ele>
        <time>2025-05-16T09:30:54Z</time>
      </trkpt>
      <trkpt lat="48.13279" lon="-1.94774">
        <ele>86</ele>
        <time>2025-05-16T09:30:55Z</time>
      </trkpt>
      <trkpt lat="48.13278" lon="-1.94768">
        <ele>87</ele>
        <time>2025-05-16T09:30:56Z</time>
      </trkpt>
      <trkpt lat="48.13277" lon="-1.94763">
        <ele>87</ele>
        <time>2025-05-16T09:30:57Z</time>
      </trkpt>
      <trkpt lat="48.13276" lon="-1.94757">
        <ele>87</ele>
        <time>2025-05-16T09:30:58Z</time>
      </trkpt>
      <trkpt lat="48.13274" lon="-1.9475">
        <ele>87</ele>
        <time>2025-05-16T09:30:59Z</time>
      </trkpt>
      <trkpt lat="48.13273" lon="-1.94744">
        <ele>87</ele>
        <time>2025-05-16T09:31:00Z</time>
      </trkpt>
      <trkpt lat="48.13272" lon="-1.94738">
        <ele>87</ele>
        <time>2025-05-16T09:31:01Z</time>
      </trkpt>
      <trkpt lat="48.1327" lon="-1.94732">
        <ele>86</ele>
        <time>2025-05-16T09:31:02Z</time>
      </trkpt>
      <trkpt lat="48.13268" lon="-1.94726">
        <ele>86</ele>
        <time>2025-05-16T09:31:03Z</time>
      </trkpt>
      <trkpt lat="48.13268" lon="-1.9472">
        <ele>86</ele>
        <time>2025-05-16T09:31:04Z</time>
      </trkpt>
      <trkpt lat="48.13267" lon="-1.94713">
        <ele>86</ele>
        <time>2025-05-16T09:31:05Z</time>
      </trkpt>
      <trkpt lat="48.13265" lon="-1.94707">
        <ele>87</ele>
        <time>2025-05-16T09:31:06Z</time>
      </trkpt>
      <trkpt lat="48.13263" lon="-1.94701">
        <ele>86</ele>
        <time>2025-05-16T09:31:07Z</time>
      </trkpt>
      <trkpt lat="48.13261" lon="-1.94695">
        <ele>86</ele>
        <time>2025-05-16T09:31:08Z</time>
      </trkpt>
      <trkpt lat="48.13259" lon="-1.94688">
        <ele>87</ele>
        <time>2025-05-16T09:31:09Z</time>
      </trkpt>
      <trkpt lat="48.13257" lon="-1.94682">
        <ele>86</ele>
        <time>2025-05-16T09:31:10Z</time>
      </trkpt>
      <trkpt lat="48.13254" lon="-1.94676">
        <ele>87</ele>
        <time>2025-05-16T09:31:11Z</time>
      </trkpt>
      <trkpt lat="48.13251" lon="-1.9467">
        <ele>87</ele>
        <time>2025-05-16T09:31:12Z</time>
      </trkpt>
      <trkpt lat="48.13248" lon="-1.94664">
        <ele>87</ele>
        <time>2025-05-16T09:31:13Z</time>
      </trkpt>
      <trkpt lat="48.13245" lon="-1.94659">
        <ele>87</ele>
        <time>2025-05-16T09:31:14Z</time>
      </trkpt>
      <trkpt lat="48.13242" lon="-1.94654">
        <ele>88</ele>
        <time>2025-05-16T09:31:15Z</time>
      </trkpt>
      <trkpt lat="48.13238" lon="-1.94648">
        <ele>88</ele>
        <time>2025-05-16T09:31:16Z</time>
      </trkpt>
      <trkpt lat="48.13235" lon="-1.94642">
        <ele>89</ele>
        <time>2025-05-16T09:31:17Z</time>
      </trkpt>
      <trkpt lat="48.13231" lon="-1.94637">
        <ele>88</ele>
        <time>2025-05-16T09:31:18Z</time>
      </trkpt>
      <trkpt lat="48.13228" lon="-1.94632">
        <ele>88</ele>
        <time>2025-05-16T09:31:19Z</time>
      </trkpt>
      <trkpt lat="48.13224" lon="-1.94627">
        <ele>87</ele>
        <time>2025-05-16T09:31:20Z</time>
      </trkpt>
      <trkpt lat="48.13221" lon="-1.94622">
        <ele>87</ele>
        <time>2025-05-16T09:31:21Z</time>
      </trkpt>
      <trkpt lat="48.13217" lon="-1.94616">
        <ele>87</ele>
        <time>2025-05-16T09:31:22Z</time>
      </trkpt>
      <trkpt lat="48.13214" lon="-1.94611">
        <ele>87</ele>
        <time>2025-05-16T09:31:23Z</time>
      </trkpt>
      <trkpt lat="48.1321" lon="-1.94606">
        <ele>86</ele>
        <time>2025-05-16T09:31:24Z</time>
      </trkpt>
      <trkpt lat="48.13206" lon="-1.94601">
        <ele>87</ele>
        <time>2025-05-16T09:31:25Z</time>
      </trkpt>
      <trkpt lat="48.13203" lon="-1.94596">
        <ele>87</ele>
        <time>2025-05-16T09:31:26Z</time>
      </trkpt>
      <trkpt lat="48.13199" lon="-1.94591">
        <ele>87</ele>
        <time>2025-05-16T09:31:27Z</time>
      </trkpt>
      <trkpt lat="48.13195" lon="-1.94585">
        <ele>87</ele>
        <time>2025-05-16T09:31:28Z</time>
      </trkpt>
      <trkpt lat="48.13192" lon="-1.9458">
        <ele>87</ele>
        <time>2025-05-16T09:31:29Z</time>
      </trkpt>
      <trkpt lat="48.13188" lon="-1.94575">
        <ele>87</ele>
        <time>2025-05-16T09:31:30Z</time>
      </trkpt>
      <trkpt lat="48.13184" lon="-1.9457">
        <ele>87</ele>
        <time>2025-05-16T09:31:31Z</time>
      </trkpt>
      <trkpt lat="48.13181" lon="-1.94565">
        <ele>87</ele>
        <time>2025-05-16T09:31:32Z</time>
      </trkpt>
      <trkpt lat="48.13178" lon="-1.9456">
        <ele>88</ele>
        <time>2025-05-16T09:31:33Z</time>
      </trkpt>
      <trkpt lat="48.13174" lon="-1.94554">
        <ele>88</ele>
        <time>2025-05-16T09:31:34Z</time>
      </trkpt>
      <trkpt lat="48.13171" lon="-1.94549">
        <ele>88</ele>
        <time>2025-05-16T09:31:35Z</time>
      </trkpt>
      <trkpt lat="48.13167" lon="-1.94544">
        <ele>87</ele>
        <time>2025-05-16T09:31:36Z</time>
      </trkpt>
      <trkpt lat="48.13164" lon="-1.94539">
        <ele>87</ele>
        <time>2025-05-16T09:31:37Z</time>
      </trkpt>
      <trkpt lat="48.1316" lon="-1.94533">
        <ele>87</ele>
        <time>2025-05-16T09:31:38Z</time>
      </trkpt>
      <trkpt lat="48.13156" lon="-1.94528">
        <ele>87</ele>
        <time>2025-05-16T09:31:39Z</time>
      </trkpt>
      <trkpt lat="48.13153" lon="-1.94524">
        <ele>88</ele>
        <time>2025-05-16T09:31:40Z</time>
      </trkpt>
      <trkpt lat="48.13149" lon="-1.94518">
        <ele>87</ele>
        <time>2025-05-16T09:31:41Z</time>
      </trkpt>
      <trkpt lat="48.13145" lon="-1.94512">
        <ele>87</ele>
        <time>2025-05-16T09:31:42Z</time>
      </trkpt>
      <trkpt lat="48.13141" lon="-1.94506">
        <ele>88</ele>
        <time>2025-05-16T09:31:43Z</time>
      </trkpt>
      <trkpt lat="48.13137" lon="-1.94501">
        <ele>88</ele>
        <time>2025-05-16T09:31:44Z</time>
      </trkpt>
      <trkpt lat="48.13134" lon="-1.94496">
        <ele>88</ele>
        <time>2025-05-16T09:31:45Z</time>
      </trkpt>
      <trkpt lat="48.1313" lon="-1.94491">
        <ele>88</ele>
        <time>2025-05-16T09:31:46Z</time>
      </trkpt>
      <trkpt lat="48.13126" lon="-1.94486">
        <ele>88</ele>
        <time>2025-05-16T09:31:47Z</time>
      </trkpt>
      <trkpt lat="48.13123" lon="-1.94481">
        <ele>88</ele>
        <time>2025-05-16T09:31:48Z</time>
      </trkpt>
      <trkpt lat="48.13119" lon="-1.94476">
        <ele>88</ele>
        <time>2025-05-16T09:31:49Z</time>
      </trkpt>
      <trkpt lat="48.13116" lon="-1.94471">
        <ele>88</ele>
        <time>2025-05-16T09:31:50Z</time>
      </trkpt>
      <trkpt lat="48.13113" lon="-1.94465">
        <ele>88</ele>
        <time>2025-05-16T09:31:51Z</time>
      </trkpt>
      <trkpt lat="48.13109" lon="-1.94461">
        <ele>87</ele>
        <time>2025-05-16T09:31:52Z</time>
      </trkpt>
      <trkpt lat="48.13105" lon="-1.94455">
        <ele>87</ele>
        <time>2025-05-16T09:31:53Z</time>
      </trkpt>
      <trkpt lat="48.13102" lon="-1.94449">
        <ele>86</ele>
        <time>2025-05-16T09:31:54Z</time>
      </trkpt>
      <trkpt lat="48.13099" lon="-1.94443">
        <ele>86</ele>
        <time>2025-05-16T09:31:55Z</time>
      </trkpt>
      <trkpt lat="48.13097" lon="-1.94436">
        <ele>86</ele>
        <time>2025-05-16T09:31:56Z</time>
      </trkpt>
      <trkpt lat="48.13094" lon="-1.94429">
        <ele>85</ele>
        <time>2025-05-16T09:31:57Z</time>
      </trkpt>
      <trkpt lat="48.13092" lon="-1.94422">
        <ele>85</ele>
        <time>2025-05-16T09:31:58Z</time>
      </trkpt>
      <trkpt lat="48.13091" lon="-1.94414">
        <ele>86</ele>
        <time>2025-05-16T09:31:59Z</time>
      </trkpt>
      <trkpt lat="48.1309" lon="-1.94406">
        <ele>86</ele>
        <time>2025-05-16T09:32:00Z</time>
      </trkpt>
      <trkpt lat="48.1309" lon="-1.94398">
        <ele>87</ele>
        <time>2025-05-16T09:32:01Z</time>
      </trkpt>
      <trkpt lat="48.1309" lon="-1.94391">
        <ele>87</ele>
        <time>2025-05-16T09:32:02Z</time>
      </trkpt>
      <trkpt lat="48.1309" lon="-1.94382">
        <ele>87</ele>
        <time>2025-05-16T09:32:03Z</time>
      </trkpt>
      <trkpt lat="48.13089" lon="-1.94373">
        <ele>86</ele>
        <time>2025-05-16T09:32:04Z</time>
      </trkpt>
      <trkpt lat="48.13088" lon="-1.94365">
        <ele>85</ele>
        <time>2025-05-16T09:32:05Z</time>
      </trkpt>
      <trkpt lat="48.13087" lon="-1.94356">
        <ele>84</ele>
        <time>2025-05-16T09:32:06Z</time>
      </trkpt>
      <trkpt lat="48.13085" lon="-1.94347">
        <ele>83</ele>
        <time>2025-05-16T09:32:07Z</time>
      </trkpt>
      <trkpt lat="48.13083" lon="-1.94339">
        <ele>83</ele>
        <time>2025-05-16T09:32:08Z</time>
      </trkpt>
      <trkpt lat="48.13082" lon="-1.94331">
        <ele>83</ele>
        <time>2025-05-16T09:32:09Z</time>
      </trkpt>
      <trkpt lat="48.13079" lon="-1.94323">
        <ele>83</ele>
        <time>2025-05-16T09:32:10Z</time>
      </trkpt>
      <trkpt lat="48.13077" lon="-1.94316">
        <ele>83</ele>
        <time>2025-05-16T09:32:11Z</time>
      </trkpt>
      <trkpt lat="48.13073" lon="-1.94308">
        <ele>83</ele>
        <time>2025-05-16T09:32:12Z</time>
      </trkpt>
      <trkpt lat="48.1307" lon="-1.94302">
        <ele>83</ele>
        <time>2025-05-16T09:32:13Z</time>
      </trkpt>
      <trkpt lat="48.13067" lon="-1.94295">
        <ele>83</ele>
        <time>2025-05-16T09:32:14Z</time>
      </trkpt>
      <trkpt lat="48.13064" lon="-1.94288">
        <ele>83</ele>
        <time>2025-05-16T09:32:15Z</time>
      </trkpt>
      <trkpt lat="48.1306" lon="-1.94282">
        <ele>83</ele>
        <time>2025-05-16T09:32:16Z</time>
      </trkpt>
      <trkpt lat="48.13057" lon="-1.94275">
        <ele>83</ele>
        <time>2025-05-16T09:32:17Z</time>
      </trkpt>
      <trkpt lat="48.13055" lon="-1.94269">
        <ele>83</ele>
        <time>2025-05-16T09:32:18Z</time>
      </trkpt>
      <trkpt lat="48.13053" lon="-1.94262">
        <ele>82</ele>
        <time>2025-05-16T09:32:19Z</time>
      </trkpt>
      <trkpt lat="48.13051" lon="-1.94254">
        <ele>82</ele>
        <time>2025-05-16T09:32:20Z</time>
      </trkpt>
      <trkpt lat="48.1305" lon="-1.94247">
        <ele>82</ele>
        <time>2025-05-16T09:32:21Z</time>
      </trkpt>
      <trkpt lat="48.13049" lon="-1.94241">
        <ele>83</ele>
        <time>2025-05-16T09:32:22Z</time>
      </trkpt>
      <trkpt lat="48.13049" lon="-1.94234">
        <ele>84</ele>
        <time>2025-05-16T09:32:23Z</time>
      </trkpt>
      <trkpt lat="48.13049" lon="-1.94228">
        <ele>84</ele>
        <time>2025-05-16T09:32:24Z</time>
      </trkpt>
      <trkpt lat="48.13049" lon="-1.94221">
        <ele>84</ele>
        <time>2025-05-16T09:32:25Z</time>
      </trkpt>
      <trkpt lat="48.1305" lon="-1.94214">
        <ele>84</ele>
        <time>2025-05-16T09:32:26Z</time>
      </trkpt>
      <trkpt lat="48.1305" lon="-1.94207">
        <ele>84</ele>
        <time>2025-05-16T09:32:27Z</time>
      </trkpt>
      <trkpt lat="48.1305" lon="-1.94201">
        <ele>84</ele>
        <time>2025-05-16T09:32:28Z</time>
      </trkpt>
      <trkpt lat="48.13051" lon="-1.94194">
        <ele>84</ele>
        <time>2025-05-16T09:32:29Z</time>
      </trkpt>
      <trkpt lat="48.13052" lon="-1.94188">
        <ele>85</ele>
        <time>2025-05-16T09:32:30Z</time>
      </trkpt>
      <trkpt lat="48.13052" lon="-1.94181">
        <ele>85</ele>
        <time>2025-05-16T09:32:31Z</time>
      </trkpt>
      <trkpt lat="48.13052" lon="-1.94174">
        <ele>86</ele>
        <time>2025-05-16T09:32:32Z</time>
      </trkpt>
      <trkpt lat="48.13052" lon="-1.94168">
        <ele>86</ele>
        <time>2025-05-16T09:32:33Z</time>
      </trkpt>
      <trkpt lat="48.13052" lon="-1.94162">
        <ele>86</ele>
        <time>2025-05-16T09:32:34Z</time>
      </trkpt>
      <trkpt lat="48.13053" lon="-1.94156">
        <ele>87</ele>
        <time>2025-05-16T09:32:35Z</time>
      </trkpt>
      <trkpt lat="48.13053" lon="-1.94149">
        <ele>87</ele>
        <time>2025-05-16T09:32:36Z</time>
      </trkpt>
      <trkpt lat="48.13053" lon="-1.94144">
        <ele>87</ele>
        <time>2025-05-16T09:32:37Z</time>
      </trkpt>
      <trkpt lat="48.13054" lon="-1.94137">
        <ele>87</ele>
        <time>2025-05-16T09:32:38Z</time>
      </trkpt>
      <trkpt lat="48.13054" lon="-1.94132">
        <ele>88</ele>
        <time>2025-05-16T09:32:39Z</time>
      </trkpt>
      <trkpt lat="48.13054" lon="-1.94127">
        <ele>88</ele>
        <time>2025-05-16T09:32:40Z</time>
      </trkpt>
      <trkpt lat="48.13055" lon="-1.94121">
        <ele>88</ele>
        <time>2025-05-16T09:32:41Z</time>
      </trkpt>
      <trkpt lat="48.13055" lon="-1.94116">
        <ele>88</ele>
        <time>2025-05-16T09:32:42Z</time>
      </trkpt>
      <trkpt lat="48.13055" lon="-1.94111">
        <ele>88</ele>
        <time>2025-05-16T09:32:43Z</time>
      </trkpt>
      <trkpt lat="48.13056" lon="-1.94106">
        <ele>88</ele>
        <time>2025-05-16T09:32:44Z</time>
      </trkpt>
      <trkpt lat="48.13058" lon="-1.94101">
        <ele>88</ele>
        <time>2025-05-16T09:32:45Z</time>
      </trkpt>
      <trkpt lat="48.13058" lon="-1.94096">
        <ele>88</ele>
        <time>2025-05-16T09:32:46Z</time>
      </trkpt>
      <trkpt lat="48.13059" lon="-1.9409">
        <ele>88</ele>
        <time>2025-05-16T09:32:47Z</time>
      </trkpt>
      <trkpt lat="48.1306" lon="-1.94085">
        <ele>88</ele>
        <time>2025-05-16T09:32:48Z</time>
      </trkpt>
      <trkpt lat="48.1306" lon="-1.9408">
        <ele>88</ele>
        <time>2025-05-16T09:32:49Z</time>
      </trkpt>
      <trkpt lat="48.13061" lon="-1.94074">
        <ele>88</ele>
        <time>2025-05-16T09:32:50Z</time>
      </trkpt>
      <trkpt lat="48.13061" lon="-1.94068">
        <ele>88</ele>
        <time>2025-05-16T09:32:51Z</time>
      </trkpt>
      <trkpt lat="48.13061" lon="-1.94063">
        <ele>87</ele>
        <time>2025-05-16T09:32:52Z</time>
      </trkpt>
      <trkpt lat="48.13061" lon="-1.94058">
        <ele>87</ele>
        <time>2025-05-16T09:32:53Z</time>
      </trkpt>
      <trkpt lat="48.1306" lon="-1.94053">
        <ele>87</ele>
        <time>2025-05-16T09:32:54Z</time>
      </trkpt>
      <trkpt lat="48.13059" lon="-1.94048">
        <ele>86</ele>
        <time>2025-05-16T09:32:55Z</time>
      </trkpt>
      <trkpt lat="48.13058" lon="-1.94043">
        <ele>86</ele>
        <time>2025-05-16T09:32:56Z</time>
      </trkpt>
      <trkpt lat="48.13056" lon="-1.94037">
        <ele>86</ele>
        <time>2025-05-16T09:32:57Z</time>
      </trkpt>
      <trkpt lat="48.13055" lon="-1.94032">
        <ele>86</ele>
        <time>2025-05-16T09:32:58Z</time>
      </trkpt>
      <trkpt lat="48.13053" lon="-1.94027">
        <ele>86</ele>
        <time>2025-05-16T09:32:59Z</time>
      </trkpt>
      <trkpt lat="48.13052" lon="-1.94021">
        <ele>86</ele>
        <time>2025-05-16T09:33:00Z</time>
      </trkpt>
      <trkpt lat="48.13051" lon="-1.94016">
        <ele>85</ele>
        <time>2025-05-16T09:33:01Z</time>
      </trkpt>
      <trkpt lat="48.1305" lon="-1.9401">
        <ele>85</ele>
        <time>2025-05-16T09:33:02Z</time>
      </trkpt>
      <trkpt lat="48.13049" lon="-1.94005">
        <ele>85</ele>
        <time>2025-05-16T09:33:03Z</time>
      </trkpt>
      <trkpt lat="48.13048" lon="-1.93999">
        <ele>86</ele>
        <time>2025-05-16T09:33:04Z</time>
      </trkpt>
      <trkpt lat="48.13046" lon="-1.93994">
        <ele>86</ele>
        <time>2025-05-16T09:33:05Z</time>
      </trkpt>
      <trkpt lat="48.13045" lon="-1.93988">
        <ele>87</ele>
        <time>2025-05-16T09:33:06Z</time>
      </trkpt>
      <trkpt lat="48.13044" lon="-1.93983">
        <ele>87</ele>
        <time>2025-05-16T09:33:07Z</time>
      </trkpt>
      <trkpt lat="48.13043" lon="-1.93978">
        <ele>87</ele>
        <time>2025-05-16T09:33:08Z</time>
      </trkpt>
      <trkpt lat="48.13042" lon="-1.93972">
        <ele>87</ele>
        <time>2025-05-16T09:33:09Z</time>
      </trkpt>
      <trkpt lat="48.1304" lon="-1.93967">
        <ele>87</ele>
        <time>2025-05-16T09:33:10Z</time>
      </trkpt>
      <trkpt lat="48.13039" lon="-1.93961">
        <ele>87</ele>
        <time>2025-05-16T09:33:11Z</time>
      </trkpt>
      <trkpt lat="48.13037" lon="-1.93956">
        <ele>87</ele>
        <time>2025-05-16T09:33:12Z</time>
      </trkpt>
      <trkpt lat="48.13036" lon="-1.9395">
        <ele>87</ele>
        <time>2025-05-16T09:33:13Z</time>
      </trkpt>
      <trkpt lat="48.13035" lon="-1.93944">
        <ele>87</ele>
        <time>2025-05-16T09:33:14Z</time>
      </trkpt>
      <trkpt lat="48.13034" lon="-1.93938">
        <ele>87</ele>
        <time>2025-05-16T09:33:15Z</time>
      </trkpt>
      <trkpt lat="48.13032" lon="-1.93933">
        <ele>86</ele>
        <time>2025-05-16T09:33:16Z</time>
      </trkpt>
      <trkpt lat="48.13031" lon="-1.93927">
        <ele>87</ele>
        <time>2025-05-16T09:33:17Z</time>
      </trkpt>
      <trkpt lat="48.13029" lon="-1.93922">
        <ele>86</ele>
        <time>2025-05-16T09:33:18Z</time>
      </trkpt>
      <trkpt lat="48.13028" lon="-1.93916">
        <ele>86</ele>
        <time>2025-05-16T09:33:19Z</time>
      </trkpt>
      <trkpt lat="48.13027" lon="-1.9391">
        <ele>86</ele>
        <time>2025-05-16T09:33:20Z</time>
      </trkpt>
      <trkpt lat="48.13026" lon="-1.93904">
        <ele>86</ele>
        <time>2025-05-16T09:33:21Z</time>
      </trkpt>
      <trkpt lat="48.13024" lon="-1.93899">
        <ele>86</ele>
        <time>2025-05-16T09:33:22Z</time>
      </trkpt>
      <trkpt lat="48.13023" lon="-1.93893">
        <ele>86</ele>
        <time>2025-05-16T09:33:23Z</time>
      </trkpt>
      <trkpt lat="48.13022" lon="-1.93887">
        <ele>85</ele>
        <time>2025-05-16T09:33:24Z</time>
      </trkpt>
      <trkpt lat="48.13021" lon="-1.93881">
        <ele>86</ele>
        <time>2025-05-16T09:33:25Z</time>
      </trkpt>
      <trkpt lat="48.1302" lon="-1.93875">
        <ele>87</ele>
        <time>2025-05-16T09:33:26Z</time>
      </trkpt>
      <trkpt lat="48.13018" lon="-1.93868">
        <ele>87</ele>
        <time>2025-05-16T09:33:27Z</time>
      </trkpt>
      <trkpt lat="48.13017" lon="-1.93863">
        <ele>88</ele>
        <time>2025-05-16T09:33:28Z</time>
      </trkpt>
      <trkpt lat="48.13015" lon="-1.93857">
        <ele>88</ele>
        <time>2025-05-16T09:33:29Z</time>
      </trkpt>
      <trkpt lat="48.13014" lon="-1.93851">
        <ele>89</ele>
        <time>2025-05-16T09:33:30Z</time>
      </trkpt>
      <trkpt lat="48.13013" lon="-1.93845">
        <ele>89</ele>
        <time>2025-05-16T09:33:31Z</time>
      </trkpt>
      <trkpt lat="48.13012" lon="-1.93839">
        <ele>90</ele>
        <time>2025-05-16T09:33:32Z</time>
      </trkpt>
      <trkpt lat="48.13011" lon="-1.93834">
        <ele>90</ele>
        <time>2025-05-16T09:33:33Z</time>
      </trkpt>
      <trkpt lat="48.1301" lon="-1.93828">
        <ele>90</ele>
        <time>2025-05-16T09:33:34Z</time>
      </trkpt>
      <trkpt lat="48.13009" lon="-1.93823">
        <ele>90</ele>
        <time>2025-05-16T09:33:35Z</time>
      </trkpt>
      <trkpt lat="48.13009" lon="-1.93817">
        <ele>90</ele>
        <time>2025-05-16T09:33:36Z</time>
      </trkpt>
      <trkpt lat="48.13009" lon="-1.9381">
        <ele>90</ele>
        <time>2025-05-16T09:33:37Z</time>
      </trkpt>
      <trkpt lat="48.1301" lon="-1.93804">
        <ele>90</ele>
        <time>2025-05-16T09:33:38Z</time>
      </trkpt>
      <trkpt lat="48.1301" lon="-1.93797">
        <ele>90</ele>
        <time>2025-05-16T09:33:39Z</time>
      </trkpt>
      <trkpt lat="48.1301" lon="-1.93791">
        <ele>90</ele>
        <time>2025-05-16T09:33:40Z</time>
      </trkpt>
      <trkpt lat="48.1301" lon="-1.93786">
        <ele>91</ele>
        <time>2025-05-16T09:33:41Z</time>
      </trkpt>
      <trkpt lat="48.1301" lon="-1.9378">
        <ele>91</ele>
        <time>2025-05-16T09:33:42Z</time>
      </trkpt>
      <trkpt lat="48.1301" lon="-1.93775">
        <ele>91</ele>
        <time>2025-05-16T09:33:43Z</time>
      </trkpt>
      <trkpt lat="48.1301" lon="-1.93769">
        <ele>92</ele>
        <time>2025-05-16T09:33:44Z</time>
      </trkpt>
      <trkpt lat="48.1301" lon="-1.93763">
        <ele>91</ele>
        <time>2025-05-16T09:33:45Z</time>
      </trkpt>
      <trkpt lat="48.13011" lon="-1.93757">
        <ele>91</ele>
        <time>2025-05-16T09:33:46Z</time>
      </trkpt>
      <trkpt lat="48.13011" lon="-1.9375">
        <ele>90</ele>
        <time>2025-05-16T09:33:47Z</time>
      </trkpt>
      <trkpt lat="48.13012" lon="-1.93744">
        <ele>90</ele>
        <time>2025-05-16T09:33:48Z</time>
      </trkpt>
      <trkpt lat="48.13012" lon="-1.93738">
        <ele>90</ele>
        <time>2025-05-16T09:33:49Z</time>
      </trkpt>
      <trkpt lat="48.13013" lon="-1.93732">
        <ele>90</ele>
        <time>2025-05-16T09:33:50Z</time>
      </trkpt>
      <trkpt lat="48.13013" lon="-1.93726">
        <ele>90</ele>
        <time>2025-05-16T09:33:51Z</time>
      </trkpt>
      <trkpt lat="48.13014" lon="-1.9372">
        <ele>90</ele>
        <time>2025-05-16T09:33:52Z</time>
      </trkpt>
      <trkpt lat="48.13014" lon="-1.93714">
        <ele>90</ele>
        <time>2025-05-16T09:33:53Z</time>
      </trkpt>
      <trkpt lat="48.13015" lon="-1.93707">
        <ele>90</ele>
        <time>2025-05-16T09:33:54Z</time>
      </trkpt>
      <trkpt lat="48.13016" lon="-1.93701">
        <ele>90</ele>
        <time>2025-05-16T09:33:55Z</time>
      </trkpt>
      <trkpt lat="48.13016" lon="-1.93695">
        <ele>90</ele>
        <time>2025-05-16T09:33:56Z</time>
      </trkpt>
      <trkpt lat="48.13017" lon="-1.93688">
        <ele>90</ele>
        <time>2025-05-16T09:33:57Z</time>
      </trkpt>
      <trkpt lat="48.13017" lon="-1.93682">
        <ele>91</ele>
        <time>2025-05-16T09:33:58Z</time>
      </trkpt>
      <trkpt lat="48.13018" lon="-1.93676">
        <ele>91</ele>
        <time>2025-05-16T09:33:59Z</time>
      </trkpt>
      <trkpt lat="48.13018" lon="-1.9367">
        <ele>91</ele>
        <time>2025-05-16T09:34:00Z</time>
      </trkpt>
      <trkpt lat="48.13019" lon="-1.93665">
        <ele>91</ele>
        <time>2025-05-16T09:34:01Z</time>
      </trkpt>
      <trkpt lat="48.13019" lon="-1.93659">
        <ele>90</ele>
        <time>2025-05-16T09:34:02Z</time>
      </trkpt>
      <trkpt lat="48.13019" lon="-1.93653">
        <ele>90</ele>
        <time>2025-05-16T09:34:03Z</time>
      </trkpt>
      <trkpt lat="48.13018" lon="-1.93648">
        <ele>90</ele>
        <time>2025-05-16T09:34:04Z</time>
      </trkpt>
      <trkpt lat="48.13018" lon="-1.93643">
        <ele>89</ele>
        <time>2025-05-16T09:34:05Z</time>
      </trkpt>
      <trkpt lat="48.13018" lon="-1.93637">
        <ele>89</ele>
        <time>2025-05-16T09:34:06Z</time>
      </trkpt>
      <trkpt lat="48.13017" lon="-1.93632">
        <ele>88</ele>
        <time>2025-05-16T09:34:07Z</time>
      </trkpt>
      <trkpt lat="48.13015" lon="-1.93627">
        <ele>88</ele>
        <time>2025-05-16T09:34:08Z</time>
      </trkpt>
      <trkpt lat="48.13012" lon="-1.93623">
        <ele>88</ele>
        <time>2025-05-16T09:34:09Z</time>
      </trkpt>
      <trkpt lat="48.13009" lon="-1.93621">
        <ele>89</ele>
        <time>2025-05-16T09:34:10Z</time>
      </trkpt>
      <trkpt lat="48.13005" lon="-1.93621">
        <ele>89</ele>
        <time>2025-05-16T09:34:11Z</time>
      </trkpt>
      <trkpt lat="48.13001" lon="-1.93621">
        <ele>89</ele>
        <time>2025-05-16T09:34:12Z</time>
      </trkpt>
      <trkpt lat="48.12997" lon="-1.9362">
        <ele>89</ele>
        <time>2025-05-16T09:34:13Z</time>
      </trkpt>
      <trkpt lat="48.12994" lon="-1.93621">
        <ele>88</ele>
        <time>2025-05-16T09:34:14Z</time>
      </trkpt>
      <trkpt lat="48.1299" lon="-1.93621">
        <ele>87</ele>
        <time>2025-05-16T09:34:15Z</time>
      </trkpt>
      <trkpt lat="48.12987" lon="-1.93621">
        <ele>88</ele>
        <time>2025-05-16T09:34:16Z</time>
      </trkpt>
      <trkpt lat="48.12983" lon="-1.93621">
        <ele>89</ele>
        <time>2025-05-16T09:34:17Z</time>
      </trkpt>
      <trkpt lat="48.1298" lon="-1.93621">
        <ele>89</ele>
        <time>2025-05-16T09:34:18Z</time>
      </trkpt>
      <trkpt lat="48.12976" lon="-1.93622">
        <ele>89</ele>
        <time>2025-05-16T09:34:19Z</time>
      </trkpt>
      <trkpt lat="48.12972" lon="-1.93622">
        <ele>90</ele>
        <time>2025-05-16T09:34:20Z</time>
      </trkpt>
      <trkpt lat="48.12969" lon="-1.93623">
        <ele>90</ele>
        <time>2025-05-16T09:34:21Z</time>
      </trkpt>
      <trkpt lat="48.12966" lon="-1.93623">
        <ele>90</ele>
        <time>2025-05-16T09:34:22Z</time>
      </trkpt>
      <trkpt lat="48.12962" lon="-1.93623">
        <ele>90</ele>
        <time>2025-05-16T09:34:23Z</time>
      </trkpt>
      <trkpt lat="48.12958" lon="-1.93623">
        <ele>90</ele>
        <time>2025-05-16T09:34:24Z</time>
      </trkpt>
      <trkpt lat="48.12955" lon="-1.93624">
        <ele>90</ele>
        <time>2025-05-16T09:34:25Z</time>
      </trkpt>
      <trkpt lat="48.12952" lon="-1.93624">
        <ele>90</ele>
        <time>2025-05-16T09:34:26Z</time>
      </trkpt>
      <trkpt lat="48.12949" lon="-1.93624">
        <ele>90</ele>
        <time>2025-05-16T09:34:27Z</time>
      </trkpt>
      <trkpt lat="48.12946" lon="-1.93625">
        <ele>90</ele>
        <time>2025-05-16T09:34:28Z</time>
      </trkpt>
      <trkpt lat="48.12942" lon="-1.93626">
        <ele>90</ele>
        <time>2025-05-16T09:34:29Z</time>
      </trkpt>
      <trkpt lat="48.12939" lon="-1.93626">
        <ele>90</ele>
        <time>2025-05-16T09:34:30Z</time>
      </trkpt>
      <trkpt lat="48.12935" lon="-1.93627">
        <ele>89</ele>
        <time>2025-05-16T09:34:31Z</time>
      </trkpt>
      <trkpt lat="48.12932" lon="-1.93628">
        <ele>89</ele>
        <time>2025-05-16T09:34:32Z</time>
      </trkpt>
      <trkpt lat="48.12929" lon="-1.93629">
        <ele>89</ele>
        <time>2025-05-16T09:34:33Z</time>
      </trkpt>
      <trkpt lat="48.12926" lon="-1.9363">
        <ele>88</ele>
        <time>2025-05-16T09:34:34Z</time>
      </trkpt>
      <trkpt lat="48.12923" lon="-1.93631">
        <ele>88</ele>
        <time>2025-05-16T09:34:35Z</time>
      </trkpt>
      <trkpt lat="48.12919" lon="-1.93632">
        <ele>87</ele>
        <time>2025-05-16T09:34:36Z</time>
      </trkpt>
      <trkpt lat="48.12917" lon="-1.93632">
        <ele>87</ele>
        <time>2025-05-16T09:34:37Z</time>
      </trkpt>
      <trkpt lat="48.12914" lon="-1.93633">
        <ele>87</ele>
        <time>2025-05-16T09:34:38Z</time>
      </trkpt>
      <trkpt lat="48.12911" lon="-1.93633">
        <ele>86</ele>
        <time>2025-05-16T09:34:39Z</time>
      </trkpt>
      <trkpt lat="48.12908" lon="-1.93634">
        <ele>86</ele>
        <time>2025-05-16T09:34:40Z</time>
      </trkpt>
      <trkpt lat="48.12905" lon="-1.93634">
        <ele>85</ele>
        <time>2025-05-16T09:34:41Z</time>
      </trkpt>
      <trkpt lat="48.12902" lon="-1.93635">
        <ele>85</ele>
        <time>2025-05-16T09:34:42Z</time>
      </trkpt>
      <trkpt lat="48.12899" lon="-1.93635">
        <ele>84</ele>
        <time>2025-05-16T09:34:43Z</time>
      </trkpt>
      <trkpt lat="48.12896" lon="-1.93635">
        <ele>84</ele>
        <time>2025-05-16T09:34:44Z</time>
      </trkpt>
      <trkpt lat="48.12893" lon="-1.93636">
        <ele>83</ele>
        <time>2025-05-16T09:34:45Z</time>
      </trkpt>
      <trkpt lat="48.1289" lon="-1.93636">
        <ele>82</ele>
        <time>2025-05-16T09:34:46Z</time>
      </trkpt>
      <trkpt lat="48.12887" lon="-1.93637">
        <ele>82</ele>
        <time>2025-05-16T09:34:47Z</time>
      </trkpt>
      <trkpt lat="48.12884" lon="-1.93637">
        <ele>81</ele>
        <time>2025-05-16T09:34:48Z</time>
      </trkpt>
      <trkpt lat="48.1288" lon="-1.93637">
        <ele>81</ele>
        <time>2025-05-16T09:34:49Z</time>
      </trkpt>
      <trkpt lat="48.12877" lon="-1.93637">
        <ele>81</ele>
        <time>2025-05-16T09:34:50Z</time>
      </trkpt>
      <trkpt lat="48.12873" lon="-1.93636">
        <ele>81</ele>
        <time>2025-05-16T09:34:51Z</time>
      </trkpt>
      <trkpt lat="48.1287" lon="-1.93636">
        <ele>80</ele>
        <time>2025-05-16T09:34:52Z</time>
      </trkpt>
      <trkpt lat="48.12867" lon="-1.93636">
        <ele>80</ele>
        <time>2025-05-16T09:34:53Z</time>
      </trkpt>
      <trkpt lat="48.12863" lon="-1.93636">
        <ele>80</ele>
        <time>2025-05-16T09:34:54Z</time>
      </trkpt>
      <trkpt lat="48.1286" lon="-1.93636">
        <ele>81</ele>
        <time>2025-05-16T09:34:55Z</time>
      </trkpt>
      <trkpt lat="48.12857" lon="-1.93635">
        <ele>81</ele>
        <time>2025-05-16T09:34:56Z</time>
      </trkpt>
      <trkpt lat="48.12854" lon="-1.93635">
        <ele>81</ele>
        <time>2025-05-16T09:34:57Z</time>
      </trkpt>
      <trkpt lat="48.12851" lon="-1.93632">
        <ele>82</ele>
        <time>2025-05-16T09:34:58Z</time>
      </trkpt>
      <trkpt lat="48.1285" lon="-1.93628">
        <ele>82</ele>
        <time>2025-05-16T09:34:59Z</time>
      </trkpt>
      <trkpt lat="48.12848" lon="-1.93625">
        <ele>82</ele>
        <time>2025-05-16T09:35:00Z</time>
      </trkpt>
      <trkpt lat="48.12847" lon="-1.93622">
        <ele>82</ele>
        <time>2025-05-16T09:35:01Z</time>
      </trkpt>
      <trkpt lat="48.12846" lon="-1.93619">
        <ele>82</ele>
        <time>2025-05-16T09:35:02Z</time>
      </trkpt>
      <trkpt lat="48.12844" lon="-1.93616">
        <ele>82</ele>
        <time>2025-05-16T09:35:03Z</time>
      </trkpt>
      <trkpt lat="48.12844" lon="-1.93613">
        <ele>82</ele>
        <time>2025-05-16T09:35:04Z</time>
      </trkpt>
      <trkpt lat="48.12843" lon="-1.93611">
        <ele>82</ele>
        <time>2025-05-16T09:35:05Z</time>
      </trkpt>
      <trkpt lat="48.12843" lon="-1.93607">
        <ele>81</ele>
        <time>2025-05-16T09:35:06Z</time>
      </trkpt>
      <trkpt lat="48.12843" lon="-1.93605">
        <ele>81</ele>
        <time>2025-05-16T09:35:07Z</time>
      </trkpt>
      <trkpt lat="48.12844" lon="-1.93601">
        <ele>80</ele>
        <time>2025-05-16T09:35:08Z</time>
      </trkpt>
      <trkpt lat="48.12844" lon="-1.93598">
        <ele>80</ele>
        <time>2025-05-16T09:35:09Z</time>
      </trkpt>
      <trkpt lat="48.12841" lon="-1.93595">
        <ele>79</ele>
        <time>2025-05-16T09:35:10Z</time>
      </trkpt>
      <trkpt lat="48.1284" lon="-1.93593">
        <ele>80</ele>
        <time>2025-05-16T09:35:11Z</time>
      </trkpt>
      <trkpt lat="48.1284" lon="-1.93591">
        <ele>80</ele>
        <time>2025-05-16T09:35:12Z</time>
      </trkpt>
      <trkpt lat="48.12839" lon="-1.93587">
        <ele>80</ele>
        <time>2025-05-16T09:35:13Z</time>
      </trkpt>
      <trkpt lat="48.12838" lon="-1.93584">
        <ele>80</ele>
        <time>2025-05-16T09:35:14Z</time>
      </trkpt>
      <trkpt lat="48.12838" lon="-1.9358">
        <ele>80</ele>
        <time>2025-05-16T09:35:15Z</time>
      </trkpt>
      <trkpt lat="48.12837" lon="-1.93575">
        <ele>81</ele>
        <time>2025-05-16T09:35:16Z</time>
      </trkpt>
      <trkpt lat="48.12837" lon="-1.93571">
        <ele>81</ele>
        <time>2025-05-16T09:35:17Z</time>
      </trkpt>
      <trkpt lat="48.12837" lon="-1.93568">
        <ele>82</ele>
        <time>2025-05-16T09:35:18Z</time>
      </trkpt>
      <trkpt lat="48.12837" lon="-1.93564">
        <ele>82</ele>
        <time>2025-05-16T09:35:19Z</time>
      </trkpt>
      <trkpt lat="48.12837" lon="-1.93561">
        <ele>82</ele>
        <time>2025-05-16T09:35:20Z</time>
      </trkpt>
      <trkpt lat="48.12837" lon="-1.93558">
        <ele>82</ele>
        <time>2025-05-16T09:35:21Z</time>
      </trkpt>
      <trkpt lat="48.12837" lon="-1.93556">
        <ele>82</ele>
        <time>2025-05-16T09:35:22Z</time>
      </trkpt>
      <trkpt lat="48.12837" lon="-1.93553">
        <ele>82</ele>
        <time>2025-05-16T09:35:23Z</time>
      </trkpt>
      <trkpt lat="48.12838" lon="-1.93551">
        <ele>82</ele>
        <time>2025-05-16T09:35:24Z</time>
      </trkpt>
      <trkpt lat="48.12838" lon="-1.93547">
        <ele>82</ele>
        <time>2025-05-16T09:35:25Z</time>
      </trkpt>
      <trkpt lat="48.12839" lon="-1.93544">
        <ele>82</ele>
        <time>2025-05-16T09:35:26Z</time>
      </trkpt>
      <trkpt lat="48.12839" lon="-1.93541">
        <ele>82</ele>
        <time>2025-05-16T09:35:27Z</time>
      </trkpt>
      <trkpt lat="48.1284" lon="-1.93537">
        <ele>82</ele>
        <time>2025-05-16T09:35:28Z</time>
      </trkpt>
      <trkpt lat="48.12841" lon="-1.93534">
        <ele>82</ele>
        <time>2025-05-16T09:35:29Z</time>
      </trkpt>
      <trkpt lat="48.12841" lon="-1.9353">
        <ele>82</ele>
        <time>2025-05-16T09:35:30Z</time>
      </trkpt>
      <trkpt lat="48.12841" lon="-1.93526">
        <ele>82</ele>
        <time>2025-05-16T09:35:31Z</time>
      </trkpt>
      <trkpt lat="48.12842" lon="-1.93522">
        <ele>82</ele>
        <time>2025-05-16T09:35:32Z</time>
      </trkpt>
      <trkpt lat="48.12842" lon="-1.93519">
        <ele>82</ele>
        <time>2025-05-16T09:35:33Z</time>
      </trkpt>
      <trkpt lat="48.12843" lon="-1.93514">
        <ele>82</ele>
        <time>2025-05-16T09:35:34Z</time>
      </trkpt>
      <trkpt lat="48.12843" lon="-1.9351">
        <ele>82</ele>
        <time>2025-05-16T09:35:35Z</time>
      </trkpt>
      <trkpt lat="48.12843" lon="-1.93505">
        <ele>82</ele>
        <time>2025-05-16T09:35:36Z</time>
      </trkpt>
      <trkpt lat="48.12843" lon="-1.93501">
        <ele>83</ele>
        <time>2025-05-16T09:35:37Z</time>
      </trkpt>
      <trkpt lat="48.12843" lon="-1.93497">
        <ele>82</ele>
        <time>2025-05-16T09:35:38Z</time>
      </trkpt>
      <trkpt lat="48.12843" lon="-1.93493">
        <ele>82</ele>
        <time>2025-05-16T09:35:39Z</time>
      </trkpt>
      <trkpt lat="48.12843" lon="-1.93489">
        <ele>82</ele>
        <time>2025-05-16T09:35:40Z</time>
      </trkpt>
      <trkpt lat="48.12842" lon="-1.93486">
        <ele>82</ele>
        <time>2025-05-16T09:35:41Z</time>
      </trkpt>
      <trkpt lat="48.12842" lon="-1.93483">
        <ele>82</ele>
        <time>2025-05-16T09:35:42Z</time>
      </trkpt>
      <trkpt lat="48.12842" lon="-1.9348">
        <ele>82</ele>
        <time>2025-05-16T09:35:43Z</time>
      </trkpt>
      <trkpt lat="48.12841" lon="-1.93477">
        <ele>82</ele>
        <time>2025-05-16T09:35:44Z</time>
      </trkpt>
      <trkpt lat="48.12841" lon="-1.93474">
        <ele>82</ele>
        <time>2025-05-16T09:35:45Z</time>
      </trkpt>
      <trkpt lat="48.1284" lon="-1.9347">
        <ele>82</ele>
        <time>2025-05-16T09:35:46Z</time>
      </trkpt>
      <trkpt lat="48.1284" lon="-1.93467">
        <ele>82</ele>
        <time>2025-05-16T09:35:47Z</time>
      </trkpt>
      <trkpt lat="48.12839" lon="-1.93464">
        <ele>82</ele>
        <time>2025-05-16T09:35:48Z</time>
      </trkpt>
      <trkpt lat="48.12839" lon="-1.93461">
        <ele>83</ele>
        <time>2025-05-16T09:35:49Z</time>
      </trkpt>
      <trkpt lat="48.12839" lon="-1.93458">
        <ele>83</ele>
        <time>2025-05-16T09:35:50Z</time>
      </trkpt>
      <trkpt lat="48.12839" lon="-1.93454">
        <ele>83</ele>
        <time>2025-05-16T09:35:51Z</time>
      </trkpt>
      <trkpt lat="48.12839" lon="-1.93451">
        <ele>83</ele>
        <time>2025-05-16T09:35:52Z</time>
      </trkpt>
      <trkpt lat="48.12838" lon="-1.93447">
        <ele>83</ele>
        <time>2025-05-16T09:35:53Z</time>
      </trkpt>
      <trkpt lat="48.12838" lon="-1.93444">
        <ele>83</ele>
        <time>2025-05-16T09:35:54Z</time>
      </trkpt>
      <trkpt lat="48.12838" lon="-1.93441">
        <ele>84</ele>
        <time>2025-05-16T09:35:55Z</time>
      </trkpt>
      <trkpt lat="48.12837" lon="-1.93438">
        <ele>84</ele>
        <time>2025-05-16T09:35:56Z</time>
      </trkpt>
      <trkpt lat="48.12837" lon="-1.93435">
        <ele>84</ele>
        <time>2025-05-16T09:35:57Z</time>
      </trkpt>
      <trkpt lat="48.12837" lon="-1.93431">
        <ele>84</ele>
        <time>2025-05-16T09:35:58Z</time>
      </trkpt>
      <trkpt lat="48.12837" lon="-1.93428">
        <ele>83</ele>
        <time>2025-05-16T09:35:59Z</time>
      </trkpt>
      <trkpt lat="48.12837" lon="-1.93425">
        <ele>83</ele>
        <time>2025-05-16T09:36:00Z</time>
      </trkpt>
      <trkpt lat="48.12836" lon="-1.93422">
        <ele>83</ele>
        <time>2025-05-16T09:36:01Z</time>
      </trkpt>
      <trkpt lat="48.12836" lon="-1.93418">
        <ele>82</ele>
        <time>2025-05-16T09:36:02Z</time>
      </trkpt>
      <trkpt lat="48.12836" lon="-1.93415">
        <ele>82</ele>
        <time>2025-05-16T09:36:03Z</time>
      </trkpt>
      <trkpt lat="48.12835" lon="-1.93412">
        <ele>82</ele>
        <time>2025-05-16T09:36:04Z</time>
      </trkpt>
      <trkpt lat="48.12835" lon="-1.93411">
        <ele>82</ele>
        <time>2025-05-16T09:36:05Z</time>
      </trkpt>
      <trkpt lat="48.12835" lon="-1.9341">
        <ele>82</ele>
        <time>2025-05-16T09:36:06Z</time>
      </trkpt>
      <trkpt lat="48.12835" lon="-1.9341">
        <ele>82</ele>
        <time>2025-05-16T09:36:07Z</time>
      </trkpt>
      <trkpt lat="48.12835" lon="-1.9341">
        <ele>82</ele>
        <time>2025-05-16T09:36:08Z</time>
      </trkpt>
      <trkpt lat="48.12835" lon="-1.9341">
        <ele>82</ele>
        <time>2025-05-16T09:36:09Z</time>
      </trkpt>
      <trkpt lat="48.12835" lon="-1.9341">
        <ele>82</ele>
        <time>2025-05-16T09:36:10Z</time>
      </trkpt>
      <trkpt lat="48.12835" lon="-1.9341">
        <ele>82</ele>
        <time>2025-05-16T09:36:11Z</time>
      </trkpt>
      <trkpt lat="48.12835" lon="-1.9341">
        <ele>82</ele>
        <time>2025-05-16T09:36:12Z</time>
      </trkpt>
      <trkpt lat="48.12835" lon="-1.9341">
        <ele>82</ele>
        <time>2025-05-16T09:36:13Z</time>
      </trkpt>
      <trkpt lat="48.12835" lon="-1.9341">
        <ele>82</ele>
        <time>2025-05-16T09:36:14Z</time>
      </trkpt>
      <trkpt lat="48.12835" lon="-1.9341">
        <ele>82</ele>
        <time>2025-05-16T09:36:15Z</time>
      </trkpt>
      <trkpt lat="48.12835" lon="-1.9341">
        <ele>82</ele>
        <time>2025-05-16T09:36:16Z</time>
      </trkpt>
      <trkpt lat="48.12835" lon="-1.9341">
        <ele>82</ele>
        <time>2025-05-16T09:36:17Z</time>
      </trkpt>
      <trkpt lat="48.12835" lon="-1.9341">
        <ele>82</ele>
        <time>2025-05-16T09:36:18Z</time>
      </trkpt>
      <trkpt lat="48.12835" lon="-1.9341">
        <ele>82</ele>
        <time>2025-05-16T09:36:19Z</time>
      </trkpt>
      <trkpt lat="48.12834" lon="-1.93404">
        <ele>83</ele>
        <time>2025-05-16T09:36:20Z</time>
      </trkpt>
      <trkpt lat="48.12834" lon="-1.934">
        <ele>83</ele>
        <time>2025-05-16T09:36:21Z</time>
      </trkpt>
      <trkpt lat="48.12834" lon="-1.93397">
        <ele>83</ele>
        <time>2025-05-16T09:36:22Z</time>
      </trkpt>
      <trkpt lat="48.12833" lon="-1.93393">
        <ele>83</ele>
        <time>2025-05-16T09:36:23Z</time>
      </trkpt>
      <trkpt lat="48.12833" lon="-1.9339">
        <ele>83</ele>
        <time>2025-05-16T09:36:24Z</time>
      </trkpt>
      <trkpt lat="48.12832" lon="-1.93386">
        <ele>83</ele>
        <time>2025-05-16T09:36:25Z</time>
      </trkpt>
      <trkpt lat="48.12832" lon="-1.93382">
        <ele>83</ele>
        <time>2025-05-16T09:36:26Z</time>
      </trkpt>
      <trkpt lat="48.12832" lon="-1.93378">
        <ele>83</ele>
        <time>2025-05-16T09:36:27Z</time>
      </trkpt>
      <trkpt lat="48.12831" lon="-1.93375">
        <ele>83</ele>
        <time>2025-05-16T09:36:28Z</time>
      </trkpt>
      <trkpt lat="48.12831" lon="-1.93371">
        <ele>82</ele>
        <time>2025-05-16T09:36:29Z</time>
      </trkpt>
      <trkpt lat="48.12831" lon="-1.93368">
        <ele>82</ele>
        <time>2025-05-16T09:36:30Z</time>
      </trkpt>
      <trkpt lat="48.1283" lon="-1.93364">
        <ele>82</ele>
        <time>2025-05-16T09:36:31Z</time>
      </trkpt>
      <trkpt lat="48.1283" lon="-1.9336">
        <ele>83</ele>
        <time>2025-05-16T09:36:32Z</time>
      </trkpt>
      <trkpt lat="48.12829" lon="-1.93356">
        <ele>83</ele>
        <time>2025-05-16T09:36:33Z</time>
      </trkpt>
      <trkpt lat="48.12828" lon="-1.93353">
        <ele>83</ele>
        <time>2025-05-16T09:36:34Z</time>
      </trkpt>
      <trkpt lat="48.12827" lon="-1.93349">
        <ele>83</ele>
        <time>2025-05-16T09:36:35Z</time>
      </trkpt>
      <trkpt lat="48.12826" lon="-1.93345">
        <ele>83</ele>
        <time>2025-05-16T09:36:36Z</time>
      </trkpt>
      <trkpt lat="48.12825" lon="-1.93341">
        <ele>83</ele>
        <time>2025-05-16T09:36:37Z</time>
      </trkpt>
      <trkpt lat="48.12825" lon="-1.93338">
        <ele>83</ele>
        <time>2025-05-16T09:36:38Z</time>
      </trkpt>
      <trkpt lat="48.12824" lon="-1.93334">
        <ele>83</ele>
        <time>2025-05-16T09:36:39Z</time>
      </trkpt>
      <trkpt lat="48.12823" lon="-1.93331">
        <ele>83</ele>
        <time>2025-05-16T09:36:40Z</time>
      </trkpt>
      <trkpt lat="48.12822" lon="-1.93327">
        <ele>84</ele>
        <time>2025-05-16T09:36:41Z</time>
      </trkpt>
      <trkpt lat="48.12821" lon="-1.93323">
        <ele>83</ele>
        <time>2025-05-16T09:36:42Z</time>
      </trkpt>
      <trkpt lat="48.12821" lon="-1.93319">
        <ele>84</ele>
        <time>2025-05-16T09:36:43Z</time>
      </trkpt>
      <trkpt lat="48.1282" lon="-1.93315">
        <ele>84</ele>
        <time>2025-05-16T09:36:44Z</time>
      </trkpt>
      <trkpt lat="48.12819" lon="-1.93311">
        <ele>83</ele>
        <time>2025-05-16T09:36:45Z</time>
      </trkpt>
      <trkpt lat="48.12818" lon="-1.93307">
        <ele>83</ele>
        <time>2025-05-16T09:36:46Z</time>
      </trkpt>
      <trkpt lat="48.12817" lon="-1.93303">
        <ele>83</ele>
        <time>2025-05-16T09:36:47Z</time>
      </trkpt>
      <trkpt lat="48.12817" lon="-1.93299">
        <ele>83</ele>
        <time>2025-05-16T09:36:48Z</time>
      </trkpt>
      <trkpt lat="48.12816" lon="-1.93295">
        <ele>83</ele>
        <time>2025-05-16T09:36:49Z</time>
      </trkpt>
      <trkpt lat="48.12814" lon="-1.93291">
        <ele>83</ele>
        <time>2025-05-16T09:36:50Z</time>
      </trkpt>
      <trkpt lat="48.12813" lon="-1.93288">
        <ele>83</ele>
        <time>2025-05-16T09:36:51Z</time>
      </trkpt>
      <trkpt lat="48.12812" lon="-1.93284">
        <ele>83</ele>
        <time>2025-05-16T09:36:52Z</time>
      </trkpt>
      <trkpt lat="48.12811" lon="-1.9328">
        <ele>83</ele>
        <time>2025-05-16T09:36:53Z</time>
      </trkpt>
      <trkpt lat="48.12809" lon="-1.93277">
        <ele>84</ele>
        <time>2025-05-16T09:36:54Z</time>
      </trkpt>
      <trkpt lat="48.12808" lon="-1.93273">
        <ele>84</ele>
        <time>2025-05-16T09:36:55Z</time>
      </trkpt>
      <trkpt lat="48.12806" lon="-1.93269">
        <ele>84</ele>
        <time>2025-05-16T09:36:56Z</time>
      </trkpt>
      <trkpt lat="48.12805" lon="-1.93265">
        <ele>83</ele>
        <time>2025-05-16T09:36:57Z</time>
      </trkpt>
      <trkpt lat="48.12804" lon="-1.93262">
        <ele>83</ele>
        <time>2025-05-16T09:36:58Z</time>
      </trkpt>
      <trkpt lat="48.12802" lon="-1.93258">
        <ele>83</ele>
        <time>2025-05-16T09:36:59Z</time>
      </trkpt>
      <trkpt lat="48.12802" lon="-1.93255">
        <ele>83</ele>
        <time>2025-05-16T09:37:00Z</time>
      </trkpt>
      <trkpt lat="48.12801" lon="-1.9325">
        <ele>83</ele>
        <time>2025-05-16T09:37:01Z</time>
      </trkpt>
      <trkpt lat="48.128" lon="-1.93246">
        <ele>83</ele>
        <time>2025-05-16T09:37:02Z</time>
      </trkpt>
      <trkpt lat="48.128" lon="-1.93243">
        <ele>83</ele>
        <time>2025-05-16T09:37:03Z</time>
      </trkpt>
      <trkpt lat="48.12799" lon="-1.93239">
        <ele>83</ele>
        <time>2025-05-16T09:37:04Z</time>
      </trkpt>
      <trkpt lat="48.12798" lon="-1.93236">
        <ele>83</ele>
        <time>2025-05-16T09:37:05Z</time>
      </trkpt>
      <trkpt lat="48.12797" lon="-1.93232">
        <ele>82</ele>
        <time>2025-05-16T09:37:06Z</time>
      </trkpt>
      <trkpt lat="48.12796" lon="-1.93228">
        <ele>82</ele>
        <time>2025-05-16T09:37:07Z</time>
      </trkpt>
      <trkpt lat="48.12795" lon="-1.93224">
        <ele>82</ele>
        <time>2025-05-16T09:37:08Z</time>
      </trkpt>
      <trkpt lat="48.12794" lon="-1.9322">
        <ele>82</ele>
        <time>2025-05-16T09:37:09Z</time>
      </trkpt>
      <trkpt lat="48.12793" lon="-1.93217">
        <ele>82</ele>
        <time>2025-05-16T09:37:10Z</time>
      </trkpt>
      <trkpt lat="48.12793" lon="-1.93213">
        <ele>82</ele>
        <time>2025-05-16T09:37:11Z</time>
      </trkpt>
      <trkpt lat="48.12793" lon="-1.9321">
        <ele>82</ele>
        <time>2025-05-16T09:37:12Z</time>
      </trkpt>
      <trkpt lat="48.12793" lon="-1.93207">
        <ele>82</ele>
        <time>2025-05-16T09:37:13Z</time>
      </trkpt>
      <trkpt lat="48.12795" lon="-1.93204">
        <ele>82</ele>
        <time>2025-05-16T09:37:14Z</time>
      </trkpt>
      <trkpt lat="48.12796" lon="-1.93201">
        <ele>82</ele>
        <time>2025-05-16T09:37:15Z</time>
      </trkpt>
      <trkpt lat="48.12798" lon="-1.932">
        <ele>83</ele>
        <time>2025-05-16T09:37:16Z</time>
      </trkpt>
      <trkpt lat="48.128" lon="-1.93199">
        <ele>83</ele>
        <time>2025-05-16T09:37:17Z</time>
      </trkpt>
      <trkpt lat="48.12802" lon="-1.93197">
        <ele>83</ele>
        <time>2025-05-16T09:37:18Z</time>
      </trkpt>
      <trkpt lat="48.12805" lon="-1.93197">
        <ele>83</ele>
        <time>2025-05-16T09:37:19Z</time>
      </trkpt>
      <trkpt lat="48.12807" lon="-1.93196">
        <ele>83</ele>
        <time>2025-05-16T09:37:20Z</time>
      </trkpt>
      <trkpt lat="48.12809" lon="-1.93196">
        <ele>83</ele>
        <time>2025-05-16T09:37:21Z</time>
      </trkpt>
      <trkpt lat="48.12812" lon="-1.93197">
        <ele>83</ele>
        <time>2025-05-16T09:37:22Z</time>
      </trkpt>
      <trkpt lat="48.12814" lon="-1.93196">
        <ele>83</ele>
        <time>2025-05-16T09:37:23Z</time>
      </trkpt>
      <trkpt lat="48.12816" lon="-1.93196">
        <ele>83</ele>
        <time>2025-05-16T09:37:24Z</time>
      </trkpt>
      <trkpt lat="48.12818" lon="-1.93195">
        <ele>82</ele>
        <time>2025-05-16T09:37:25Z</time>
      </trkpt>
      <trkpt lat="48.1282" lon="-1.93195">
        <ele>82</ele>
        <time>2025-05-16T09:37:26Z</time>
      </trkpt>
      <trkpt lat="48.12822" lon="-1.93194">
        <ele>82</ele>
        <time>2025-05-16T09:37:27Z</time>
      </trkpt>
      <trkpt lat="48.12824" lon="-1.93194">
        <ele>82</ele>
        <time>2025-05-16T09:37:28Z</time>
      </trkpt>
      <trkpt lat="48.12824" lon="-1.93194">
        <ele>82</ele>
        <time>2025-05-16T09:37:29Z</time>
      </trkpt>
      <trkpt lat="48.12825" lon="-1.93194">
        <ele>82</ele>
        <time>2025-05-16T09:37:30Z</time>
      </trkpt>
      <trkpt lat="48.12825" lon="-1.93194">
        <ele>82</ele>
        <time>2025-05-16T09:37:31Z</time>
      </trkpt>
      <trkpt lat="48.12825" lon="-1.93194">
        <ele>82</ele>
        <time>2025-05-16T09:37:32Z</time>
      </trkpt>
      <trkpt lat="48.12825" lon="-1.93194">
        <ele>82</ele>
        <time>2025-05-16T09:37:33Z</time>
      </trkpt>
      <trkpt lat="48.12825" lon="-1.93194">
        <ele>82</ele>
        <time>2025-05-16T09:37:34Z</time>
      </trkpt>
      <trkpt lat="48.12825" lon="-1.93194">
        <ele>82</ele>
        <time>2025-05-16T09:37:35Z</time>
      </trkpt>
      <trkpt lat="48.12831" lon="-1.93193">
        <ele>84</ele>
        <time>2025-05-16T09:37:36Z</time>
      </trkpt>
      <trkpt lat="48.12833" lon="-1.93192">
        <ele>84</ele>
        <time>2025-05-16T09:37:37Z</time>
      </trkpt>
      <trkpt lat="48.12834" lon="-1.93192">
        <ele>85</ele>
        <time>2025-05-16T09:37:38Z</time>
      </trkpt>
      <trkpt lat="48.12836" lon="-1.93192">
        <ele>85</ele>
        <time>2025-05-16T09:37:39Z</time>
      </trkpt>
      <trkpt lat="48.12837" lon="-1.93191">
        <ele>85</ele>
        <time>2025-05-16T09:37:40Z</time>
      </trkpt>
      <trkpt lat="48.12838" lon="-1.93191">
        <ele>85</ele>
        <time>2025-05-16T09:37:41Z</time>
      </trkpt>
      <trkpt lat="48.12838" lon="-1.93191">
        <ele>86</ele>
        <time>2025-05-16T09:37:42Z</time>
      </trkpt>
      <trkpt lat="48.12839" lon="-1.93191">
        <ele>86</ele>
        <time>2025-05-16T09:37:43Z</time>
      </trkpt>
      <trkpt lat="48.1284" lon="-1.93191">
        <ele>86</ele>
        <time>2025-05-16T09:37:44Z</time>
      </trkpt>
      <trkpt lat="48.12841" lon="-1.93191">
        <ele>86</ele>
        <time>2025-05-16T09:37:45Z</time>
      </trkpt>
      <trkpt lat="48.12841" lon="-1.93191">
        <ele>86</ele>
        <time>2025-05-16T09:37:46Z</time>
      </trkpt>
      <trkpt lat="48.12843" lon="-1.93191">
        <ele>87</ele>
        <time>2025-05-16T09:37:47Z</time>
      </trkpt>
      <trkpt lat="48.12844" lon="-1.93191">
        <ele>88</ele>
        <time>2025-05-16T09:37:48Z</time>
      </trkpt>
      <trkpt lat="48.12845" lon="-1.93191">
        <ele>88</ele>
        <time>2025-05-16T09:37:49Z</time>
      </trkpt>
      <trkpt lat="48.12846" lon="-1.9319">
        <ele>88</ele>
        <time>2025-05-16T09:37:50Z</time>
      </trkpt>
      <trkpt lat="48.12846" lon="-1.9319">
        <ele>88</ele>
        <time>2025-05-16T09:37:51Z</time>
      </trkpt>
      <trkpt lat="48.12848" lon="-1.9319">
        <ele>88</ele>
        <time>2025-05-16T09:37:52Z</time>
      </trkpt>
      <trkpt lat="48.1285" lon="-1.93189">
        <ele>89</ele>
        <time>2025-05-16T09:37:53Z</time>
      </trkpt>
      <trkpt lat="48.12851" lon="-1.93189">
        <ele>89</ele>
        <time>2025-05-16T09:37:54Z</time>
      </trkpt>
      <trkpt lat="48.12852" lon="-1.93189">
        <ele>89</ele>
        <time>2025-05-16T09:37:55Z</time>
      </trkpt>
      <trkpt lat="48.12852" lon="-1.93189">
        <ele>89</ele>
        <time>2025-05-16T09:37:56Z</time>
      </trkpt>
      <trkpt lat="48.12852" lon="-1.93189">
        <ele>89</ele>
        <time>2025-05-16T09:37:57Z</time>
      </trkpt>
      <trkpt lat="48.12852" lon="-1.93189">
        <ele>89</ele>
        <time>2025-05-16T09:37:58Z</time>
      </trkpt>
      <trkpt lat="48.12855" lon="-1.93189">
        <ele>90</ele>
        <time>2025-05-16T09:37:59Z</time>
      </trkpt>
      <trkpt lat="48.12857" lon="-1.93188">
        <ele>90</ele>
        <time>2025-05-16T09:38:00Z</time>
      </trkpt>
      <trkpt lat="48.12858" lon="-1.93188">
        <ele>91</ele>
        <time>2025-05-16T09:38:01Z</time>
      </trkpt>
      <trkpt lat="48.12859" lon="-1.93188">
        <ele>91</ele>
        <time>2025-05-16T09:38:02Z</time>
      </trkpt>
      <trkpt lat="48.12861" lon="-1.93188">
        <ele>91</ele>
        <time>2025-05-16T09:38:03Z</time>
      </trkpt>
      <trkpt lat="48.12862" lon="-1.93187">
        <ele>92</ele>
        <time>2025-05-16T09:38:04Z</time>
      </trkpt>
      <trkpt lat="48.12863" lon="-1.93187">
        <ele>92</ele>
        <time>2025-05-16T09:38:05Z</time>
      </trkpt>
      <trkpt lat="48.12864" lon="-1.93187">
        <ele>92</ele>
        <time>2025-05-16T09:38:06Z</time>
      </trkpt>
      <trkpt lat="48.12866" lon="-1.93186">
        <ele>92</ele>
        <time>2025-05-16T09:38:07Z</time>
      </trkpt>
      <trkpt lat="48.12867" lon="-1.93186">
        <ele>92</ele>
        <time>2025-05-16T09:38:08Z</time>
      </trkpt>
      <trkpt lat="48.12868" lon="-1.93186">
        <ele>92</ele>
        <time>2025-05-16T09:38:09Z</time>
      </trkpt>
      <trkpt lat="48.12869" lon="-1.93185">
        <ele>92</ele>
        <time>2025-05-16T09:38:10Z</time>
      </trkpt>
      <trkpt lat="48.1287" lon="-1.93185">
        <ele>92</ele>
        <time>2025-05-16T09:38:11Z</time>
      </trkpt>
      <trkpt lat="48.12871" lon="-1.93185">
        <ele>92</ele>
        <time>2025-05-16T09:38:12Z</time>
      </trkpt>
      <trkpt lat="48.12872" lon="-1.93185">
        <ele>92</ele>
        <time>2025-05-16T09:38:13Z</time>
      </trkpt>
      <trkpt lat="48.12873" lon="-1.93184">
        <ele>92</ele>
        <time>2025-05-16T09:38:14Z</time>
      </trkpt>
      <trkpt lat="48.12874" lon="-1.93184">
        <ele>92</ele>
        <time>2025-05-16T09:38:15Z</time>
      </trkpt>
      <trkpt lat="48.12875" lon="-1.93184">
        <ele>92</ele>
        <time>2025-05-16T09:38:16Z</time>
      </trkpt>
      <trkpt lat="48.12876" lon="-1.93183">
        <ele>93</ele>
        <time>2025-05-16T09:38:17Z</time>
      </trkpt>
      <trkpt lat="48.12877" lon="-1.93183">
        <ele>92</ele>
        <time>2025-05-16T09:38:18Z</time>
      </trkpt>
      <trkpt lat="48.12878" lon="-1.93182">
        <ele>93</ele>
        <time>2025-05-16T09:38:19Z</time>
      </trkpt>
      <trkpt lat="48.1288" lon="-1.93182">
        <ele>92</ele>
        <time>2025-05-16T09:38:20Z</time>
      </trkpt>
      <trkpt lat="48.1288" lon="-1.93181">
        <ele>92</ele>
        <time>2025-05-16T09:38:21Z</time>
      </trkpt>
      <trkpt lat="48.12881" lon="-1.9318">
        <ele>92</ele>
        <time>2025-05-16T09:38:22Z</time>
      </trkpt>
      <trkpt lat="48.12881" lon="-1.93179">
        <ele>91</ele>
        <time>2025-05-16T09:38:23Z</time>
      </trkpt>
      <trkpt lat="48.12882" lon="-1.93178">
        <ele>91</ele>
        <time>2025-05-16T09:38:24Z</time>
      </trkpt>
      <trkpt lat="48.12882" lon="-1.93176">
        <ele>91</ele>
        <time>2025-05-16T09:38:25Z</time>
      </trkpt>
      <trkpt lat="48.12882" lon="-1.93175">
        <ele>91</ele>
        <time>2025-05-16T09:38:26Z</time>
      </trkpt>
      <trkpt lat="48.12882" lon="-1.93175">
        <ele>91</ele>
        <time>2025-05-16T09:38:27Z</time>
      </trkpt>
      <trkpt lat="48.12882" lon="-1.93175">
        <ele>91</ele>
        <time>2025-05-16T09:38:28Z</time>
      </trkpt>
      <trkpt lat="48.12882" lon="-1.93175">
        <ele>91</ele>
        <time>2025-05-16T09:38:29Z</time>
      </trkpt>
      <trkpt lat="48.12882" lon="-1.93175">
        <ele>91</ele>
        <time>2025-05-16T09:38:30Z</time>
      </trkpt>
      <trkpt lat="48.12882" lon="-1.93175">
        <ele>91</ele>
        <time>2025-05-16T09:38:31Z</time>
      </trkpt>
      <trkpt lat="48.12882" lon="-1.93175">
        <ele>91</ele>
        <time>2025-05-16T09:38:32Z</time>
      </trkpt>
      <trkpt lat="48.12882" lon="-1.93175">
        <ele>91</ele>
        <time>2025-05-16T09:38:33Z</time>
      </trkpt>
      <trkpt lat="48.12882" lon="-1.93175">
        <ele>91</ele>
        <time>2025-05-16T09:38:34Z</time>
      </trkpt>
      <trkpt lat="48.12882" lon="-1.93175">
        <ele>91</ele>
        <time>2025-05-16T09:38:35Z</time>
      </trkpt>
      <trkpt lat="48.12882" lon="-1.93175">
        <ele>91</ele>
        <time>2025-05-16T09:38:36Z</time>
      </trkpt>
      <trkpt lat="48.12882" lon="-1.93175">
        <ele>91</ele>
        <time>2025-05-16T09:38:37Z</time>
      </trkpt>
      <trkpt lat="48.12882" lon="-1.93175">
        <ele>91</ele>
        <time>2025-05-16T09:38:38Z</time>
      </trkpt>
      <trkpt lat="48.12878" lon="-1.93204">
        <ele>52</ele>
        <time>2025-05-16T09:41:29Z</time>
      </trkpt>
      <trkpt lat="48.1286" lon="-1.93124">
        <ele>90</ele>
        <time>2025-05-16T09:41:34Z</time>
      </trkpt>
      <trkpt lat="48.12859" lon="-1.93121">
        <ele>90</ele>
        <time>2025-05-16T09:41:35Z</time>
      </trkpt>
      <trkpt lat="48.12858" lon="-1.93117">
        <ele>90</ele>
        <time>2025-05-16T09:41:36Z</time>
      </trkpt>
      <trkpt lat="48.12857" lon="-1.93114">
        <ele>90</ele>
        <time>2025-05-16T09:41:37Z</time>
      </trkpt>
      <trkpt lat="48.12856" lon="-1.93109">
        <ele>91</ele>
        <time>2025-05-16T09:41:38Z</time>
      </trkpt>
      <trkpt lat="48.12855" lon="-1.93106">
        <ele>90</ele>
        <time>2025-05-16T09:41:39Z</time>
      </trkpt>
      <trkpt lat="48.12855" lon="-1.93103">
        <ele>90</ele>
        <time>2025-05-16T09:41:40Z</time>
      </trkpt>
      <trkpt lat="48.12854" lon="-1.931">
        <ele>90</ele>
        <time>2025-05-16T09:41:41Z</time>
      </trkpt>
      <trkpt lat="48.12853" lon="-1.93096">
        <ele>90</ele>
        <time>2025-05-16T09:41:42Z</time>
      </trkpt>
      <trkpt lat="48.12852" lon="-1.93093">
        <ele>90</ele>
        <time>2025-05-16T09:41:43Z</time>
      </trkpt>
      <trkpt lat="48.12851" lon="-1.9309">
        <ele>90</ele>
        <time>2025-05-16T09:41:44Z</time>
      </trkpt>
      <trkpt lat="48.1285" lon="-1.93087">
        <ele>90</ele>
        <time>2025-05-16T09:41:45Z</time>
      </trkpt>
      <trkpt lat="48.1285" lon="-1.93084">
        <ele>90</ele>
        <time>2025-05-16T09:41:46Z</time>
      </trkpt>
      <trkpt lat="48.12849" lon="-1.93081">
        <ele>90</ele>
        <time>2025-05-16T09:41:47Z</time>
      </trkpt>
      <trkpt lat="48.12848" lon="-1.93077">
        <ele>91</ele>
        <time>2025-05-16T09:41:48Z</time>
      </trkpt>
      <trkpt lat="48.12848" lon="-1.93074">
        <ele>91</ele>
        <time>2025-05-16T09:41:49Z</time>
      </trkpt>
      <trkpt lat="48.12848" lon="-1.93071">
        <ele>91</ele>
        <time>2025-05-16T09:41:50Z</time>
      </trkpt>
      <trkpt lat="48.12847" lon="-1.93068">
        <ele>90</ele>
        <time>2025-05-16T09:41:51Z</time>
      </trkpt>
      <trkpt lat="48.12847" lon="-1.93065">
        <ele>91</ele>
        <time>2025-05-16T09:41:52Z</time>
      </trkpt>
      <trkpt lat="48.12848" lon="-1.93061">
        <ele>91</ele>
        <time>2025-05-16T09:41:53Z</time>
      </trkpt>
      <trkpt lat="48.12848" lon="-1.93058">
        <ele>91</ele>
        <time>2025-05-16T09:41:54Z</time>
      </trkpt>
      <trkpt lat="48.12847" lon="-1.93054">
        <ele>91</ele>
        <time>2025-05-16T09:41:55Z</time>
      </trkpt>
      <trkpt lat="48.12847" lon="-1.93051">
        <ele>92</ele>
        <time>2025-05-16T09:41:56Z</time>
      </trkpt>
      <trkpt lat="48.12847" lon="-1.93047">
        <ele>92</ele>
        <time>2025-05-16T09:41:57Z</time>
      </trkpt>
      <trkpt lat="48.12846" lon="-1.93043">
        <ele>92</ele>
        <time>2025-05-16T09:41:58Z</time>
      </trkpt>
      <trkpt lat="48.12846" lon="-1.93039">
        <ele>92</ele>
        <time>2025-05-16T09:41:59Z</time>
      </trkpt>
      <trkpt lat="48.12846" lon="-1.93035">
        <ele>93</ele>
        <time>2025-05-16T09:42:00Z</time>
      </trkpt>
      <trkpt lat="48.12846" lon="-1.93031">
        <ele>93</ele>
        <time>2025-05-16T09:42:01Z</time>
      </trkpt>
      <trkpt lat="48.12846" lon="-1.93028">
        <ele>93</ele>
        <time>2025-05-16T09:42:02Z</time>
      </trkpt>
      <trkpt lat="48.12846" lon="-1.93024">
        <ele>93</ele>
        <time>2025-05-16T09:42:03Z</time>
      </trkpt>
      <trkpt lat="48.12845" lon="-1.93021">
        <ele>93</ele>
        <time>2025-05-16T09:42:04Z</time>
      </trkpt>
      <trkpt lat="48.12845" lon="-1.93017">
        <ele>93</ele>
        <time>2025-05-16T09:42:05Z</time>
      </trkpt>
      <trkpt lat="48.12844" lon="-1.93013">
        <ele>93</ele>
        <time>2025-05-16T09:42:06Z</time>
      </trkpt>
      <trkpt lat="48.12844" lon="-1.9301">
        <ele>93</ele>
        <time>2025-05-16T09:42:07Z</time>
      </trkpt>
      <trkpt lat="48.12843" lon="-1.93006">
        <ele>93</ele>
        <time>2025-05-16T09:42:08Z</time>
      </trkpt>
      <trkpt lat="48.12842" lon="-1.93002">
        <ele>93</ele>
        <time>2025-05-16T09:42:09Z</time>
      </trkpt>
      <trkpt lat="48.12841" lon="-1.92998">
        <ele>93</ele>
        <time>2025-05-16T09:42:10Z</time>
      </trkpt>
      <trkpt lat="48.12841" lon="-1.92994">
        <ele>93</ele>
        <time>2025-05-16T09:42:11Z</time>
      </trkpt>
      <trkpt lat="48.1284" lon="-1.9299">
        <ele>93</ele>
        <time>2025-05-16T09:42:12Z</time>
      </trkpt>
      <trkpt lat="48.1284" lon="-1.92986">
        <ele>93</ele>
        <time>2025-05-16T09:42:13Z</time>
      </trkpt>
      <trkpt lat="48.12839" lon="-1.92983">
        <ele>92</ele>
        <time>2025-05-16T09:42:14Z</time>
      </trkpt>
      <trkpt lat="48.12838" lon="-1.92981">
        <ele>92</ele>
        <time>2025-05-16T09:42:15Z</time>
      </trkpt>
      <trkpt lat="48.12838" lon="-1.92978">
        <ele>92</ele>
        <time>2025-05-16T09:42:16Z</time>
      </trkpt>
      <trkpt lat="48.12838" lon="-1.92976">
        <ele>91</ele>
        <time>2025-05-16T09:42:17Z</time>
      </trkpt>
      <trkpt lat="48.12838" lon="-1.92973">
        <ele>91</ele>
        <time>2025-05-16T09:42:18Z</time>
      </trkpt>
      <trkpt lat="48.12837" lon="-1.92969">
        <ele>91</ele>
        <time>2025-05-16T09:42:19Z</time>
      </trkpt>
      <trkpt lat="48.12836" lon="-1.92965">
        <ele>91</ele>
        <time>2025-05-16T09:42:20Z</time>
      </trkpt>
      <trkpt lat="48.12836" lon="-1.92961">
        <ele>91</ele>
        <time>2025-05-16T09:42:21Z</time>
      </trkpt>
      <trkpt lat="48.12835" lon="-1.92957">
        <ele>91</ele>
        <time>2025-05-16T09:42:22Z</time>
      </trkpt>
      <trkpt lat="48.12834" lon="-1.92953">
        <ele>91</ele>
        <time>2025-05-16T09:42:23Z</time>
      </trkpt>
      <trkpt lat="48.12834" lon="-1.92949">
        <ele>91</ele>
        <time>2025-05-16T09:42:24Z</time>
      </trkpt>
      <trkpt lat="48.12833" lon="-1.92944">
        <ele>91</ele>
        <time>2025-05-16T09:42:25Z</time>
      </trkpt>
      <trkpt lat="48.12833" lon="-1.9294">
        <ele>91</ele>
        <time>2025-05-16T09:42:26Z</time>
      </trkpt>
      <trkpt lat="48.12832" lon="-1.92935">
        <ele>91</ele>
        <time>2025-05-16T09:42:27Z</time>
      </trkpt>
      <trkpt lat="48.12832" lon="-1.9293">
        <ele>91</ele>
        <time>2025-05-16T09:42:28Z</time>
      </trkpt>
      <trkpt lat="48.12831" lon="-1.92926">
        <ele>91</ele>
        <time>2025-05-16T09:42:29Z</time>
      </trkpt>
      <trkpt lat="48.1283" lon="-1.92921">
        <ele>91</ele>
        <time>2025-05-16T09:42:30Z</time>
      </trkpt>
      <trkpt lat="48.1283" lon="-1.92916">
        <ele>91</ele>
        <time>2025-05-16T09:42:31Z</time>
      </trkpt>
      <trkpt lat="48.12829" lon="-1.92911">
        <ele>91</ele>
        <time>2025-05-16T09:42:32Z</time>
      </trkpt>
      <trkpt lat="48.12828" lon="-1.92906">
        <ele>91</ele>
        <time>2025-05-16T09:42:33Z</time>
      </trkpt>
      <trkpt lat="48.12828" lon="-1.92901">
        <ele>91</ele>
        <time>2025-05-16T09:42:34Z</time>
      </trkpt>
      <trkpt lat="48.12827" lon="-1.92897">
        <ele>91</ele>
        <time>2025-05-16T09:42:35Z</time>
      </trkpt>
      <trkpt lat="48.12827" lon="-1.92892">
        <ele>91</ele>
        <time>2025-05-16T09:42:36Z</time>
      </trkpt>
      <trkpt lat="48.12826" lon="-1.92887">
        <ele>91</ele>
        <time>2025-05-16T09:42:37Z</time>
      </trkpt>
      <trkpt lat="48.12825" lon="-1.92882">
        <ele>91</ele>
        <time>2025-05-16T09:42:38Z</time>
      </trkpt>
      <trkpt lat="48.12825" lon="-1.92878">
        <ele>91</ele>
        <time>2025-05-16T09:42:39Z</time>
      </trkpt>
      <trkpt lat="48.12824" lon="-1.92873">
        <ele>91</ele>
        <time>2025-05-16T09:42:40Z</time>
      </trkpt>
      <trkpt lat="48.12824" lon="-1.92868">
        <ele>90</ele>
        <time>2025-05-16T09:42:41Z</time>
      </trkpt>
      <trkpt lat="48.12823" lon="-1.92862">
        <ele>90</ele>
        <time>2025-05-16T09:42:42Z</time>
      </trkpt>
      <trkpt lat="48.12822" lon="-1.92857">
        <ele>90</ele>
        <time>2025-05-16T09:42:43Z</time>
      </trkpt>
      <trkpt lat="48.12822" lon="-1.92852">
        <ele>90</ele>
        <time>2025-05-16T09:42:44Z</time>
      </trkpt>
      <trkpt lat="48.12821" lon="-1.92847">
        <ele>90</ele>
        <time>2025-05-16T09:42:45Z</time>
      </trkpt>
      <trkpt lat="48.1282" lon="-1.92842">
        <ele>90</ele>
        <time>2025-05-16T09:42:46Z</time>
      </trkpt>
      <trkpt lat="48.12819" lon="-1.92836">
        <ele>91</ele>
        <time>2025-05-16T09:42:47Z</time>
      </trkpt>
      <trkpt lat="48.12818" lon="-1.9283">
        <ele>91</ele>
        <time>2025-05-16T09:42:48Z</time>
      </trkpt>
      <trkpt lat="48.12817" lon="-1.92824">
        <ele>91</ele>
        <time>2025-05-16T09:42:49Z</time>
      </trkpt>
      <trkpt lat="48.12816" lon="-1.92818">
        <ele>91</ele>
        <time>2025-05-16T09:42:50Z</time>
      </trkpt>
      <trkpt lat="48.12814" lon="-1.92812">
        <ele>91</ele>
        <time>2025-05-16T09:42:51Z</time>
      </trkpt>
      <trkpt lat="48.12813" lon="-1.92806">
        <ele>91</ele>
        <time>2025-05-16T09:42:52Z</time>
      </trkpt>
      <trkpt lat="48.12811" lon="-1.928">
        <ele>91</ele>
        <time>2025-05-16T09:42:53Z</time>
      </trkpt>
      <trkpt lat="48.12809" lon="-1.92794">
        <ele>91</ele>
        <time>2025-05-16T09:42:54Z</time>
      </trkpt>
      <trkpt lat="48.12807" lon="-1.92788">
        <ele>91</ele>
        <time>2025-05-16T09:42:55Z</time>
      </trkpt>
      <trkpt lat="48.12805" lon="-1.92782">
        <ele>91</ele>
        <time>2025-05-16T09:42:56Z</time>
      </trkpt>
      <trkpt lat="48.12803" lon="-1.92776">
        <ele>91</ele>
        <time>2025-05-16T09:42:57Z</time>
      </trkpt>
      <trkpt lat="48.12801" lon="-1.9277">
        <ele>91</ele>
        <time>2025-05-16T09:42:58Z</time>
      </trkpt>
      <trkpt lat="48.12798" lon="-1.92763">
        <ele>90</ele>
        <time>2025-05-16T09:42:59Z</time>
      </trkpt>
      <trkpt lat="48.12796" lon="-1.92757">
        <ele>90</ele>
        <time>2025-05-16T09:43:00Z</time>
      </trkpt>
      <trkpt lat="48.12795" lon="-1.9275">
        <ele>90</ele>
        <time>2025-05-16T09:43:01Z</time>
      </trkpt>
      <trkpt lat="48.12793" lon="-1.92743">
        <ele>90</ele>
        <time>2025-05-16T09:43:02Z</time>
      </trkpt>
      <trkpt lat="48.12792" lon="-1.92736">
        <ele>90</ele>
        <time>2025-05-16T09:43:03Z</time>
      </trkpt>
      <trkpt lat="48.12792" lon="-1.92729">
        <ele>90</ele>
        <time>2025-05-16T09:43:04Z</time>
      </trkpt>
      <trkpt lat="48.12791" lon="-1.92722">
        <ele>89</ele>
        <time>2025-05-16T09:43:05Z</time>
      </trkpt>
      <trkpt lat="48.12791" lon="-1.92715">
        <ele>90</ele>
        <time>2025-05-16T09:43:06Z</time>
      </trkpt>
      <trkpt lat="48.1279" lon="-1.92708">
        <ele>89</ele>
        <time>2025-05-16T09:43:07Z</time>
      </trkpt>
      <trkpt lat="48.1279" lon="-1.92702">
        <ele>89</ele>
        <time>2025-05-16T09:43:08Z</time>
      </trkpt>
      <trkpt lat="48.12789" lon="-1.92695">
        <ele>88</ele>
        <time>2025-05-16T09:43:09Z</time>
      </trkpt>
      <trkpt lat="48.12788" lon="-1.92688">
        <ele>88</ele>
        <time>2025-05-16T09:43:10Z</time>
      </trkpt>
      <trkpt lat="48.12787" lon="-1.92682">
        <ele>88</ele>
        <time>2025-05-16T09:43:11Z</time>
      </trkpt>
      <trkpt lat="48.12787" lon="-1.92675">
        <ele>88</ele>
        <time>2025-05-16T09:43:12Z</time>
      </trkpt>
      <trkpt lat="48.12787" lon="-1.92669">
        <ele>89</ele>
        <time>2025-05-16T09:43:13Z</time>
      </trkpt>
      <trkpt lat="48.12786" lon="-1.92662">
        <ele>89</ele>
        <time>2025-05-16T09:43:14Z</time>
      </trkpt>
      <trkpt lat="48.12786" lon="-1.92656">
        <ele>89</ele>
        <time>2025-05-16T09:43:15Z</time>
      </trkpt>
      <trkpt lat="48.12786" lon="-1.92649">
        <ele>89</ele>
        <time>2025-05-16T09:43:16Z</time>
      </trkpt>
      <trkpt lat="48.12787" lon="-1.92643">
        <ele>89</ele>
        <time>2025-05-16T09:43:17Z</time>
      </trkpt>
      <trkpt lat="48.12788" lon="-1.92637">
        <ele>89</ele>
        <time>2025-05-16T09:43:18Z</time>
      </trkpt>
      <trkpt lat="48.1279" lon="-1.92631">
        <ele>89</ele>
        <time>2025-05-16T09:43:19Z</time>
      </trkpt>
      <trkpt lat="48.12794" lon="-1.92627">
        <ele>89</ele>
        <time>2025-05-16T09:43:20Z</time>
      </trkpt>
      <trkpt lat="48.12797" lon="-1.92624">
        <ele>89</ele>
        <time>2025-05-16T09:43:21Z</time>
      </trkpt>
      <trkpt lat="48.12801" lon="-1.92623">
        <ele>89</ele>
        <time>2025-05-16T09:43:22Z</time>
      </trkpt>
      <trkpt lat="48.12804" lon="-1.92623">
        <ele>89</ele>
        <time>2025-05-16T09:43:23Z</time>
      </trkpt>
      <trkpt lat="48.12807" lon="-1.92624">
        <ele>90</ele>
        <time>2025-05-16T09:43:24Z</time>
      </trkpt>
      <trkpt lat="48.12811" lon="-1.92625">
        <ele>90</ele>
        <time>2025-05-16T09:43:25Z</time>
      </trkpt>
      <trkpt lat="48.12814" lon="-1.92626">
        <ele>91</ele>
        <time>2025-05-16T09:43:26Z</time>
      </trkpt>
      <trkpt lat="48.12817" lon="-1.92628">
        <ele>91</ele>
        <time>2025-05-16T09:43:27Z</time>
      </trkpt>
      <trkpt lat="48.12821" lon="-1.92629">
        <ele>91</ele>
        <time>2025-05-16T09:43:28Z</time>
      </trkpt>
      <trkpt lat="48.12824" lon="-1.9263">
        <ele>92</ele>
        <time>2025-05-16T09:43:29Z</time>
      </trkpt>
      <trkpt lat="48.12827" lon="-1.92632">
        <ele>92</ele>
        <time>2025-05-16T09:43:30Z</time>
      </trkpt>
      <trkpt lat="48.1283" lon="-1.92633">
        <ele>92</ele>
        <time>2025-05-16T09:43:31Z</time>
      </trkpt>
      <trkpt lat="48.12834" lon="-1.92634">
        <ele>92</ele>
        <time>2025-05-16T09:43:32Z</time>
      </trkpt>
      <trkpt lat="48.12837" lon="-1.92636">
        <ele>92</ele>
        <time>2025-05-16T09:43:33Z</time>
      </trkpt>
      <trkpt lat="48.1284" lon="-1.92637">
        <ele>92</ele>
        <time>2025-05-16T09:43:34Z</time>
      </trkpt>
      <trkpt lat="48.12844" lon="-1.92639">
        <ele>92</ele>
        <time>2025-05-16T09:43:35Z</time>
      </trkpt>
      <trkpt lat="48.12847" lon="-1.9264">
        <ele>92</ele>
        <time>2025-05-16T09:43:36Z</time>
      </trkpt>
      <trkpt lat="48.1285" lon="-1.92641">
        <ele>92</ele>
        <time>2025-05-16T09:43:37Z</time>
      </trkpt>
      <trkpt lat="48.12854" lon="-1.92643">
        <ele>92</ele>
        <time>2025-05-16T09:43:38Z</time>
      </trkpt>
      <trkpt lat="48.12857" lon="-1.92644">
        <ele>93</ele>
        <time>2025-05-16T09:43:39Z</time>
      </trkpt>
      <trkpt lat="48.1286" lon="-1.92646">
        <ele>93</ele>
        <time>2025-05-16T09:43:40Z</time>
      </trkpt>
      <trkpt lat="48.12864" lon="-1.92647">
        <ele>93</ele>
        <time>2025-05-16T09:43:41Z</time>
      </trkpt>
      <trkpt lat="48.12867" lon="-1.92648">
        <ele>93</ele>
        <time>2025-05-16T09:43:42Z</time>
      </trkpt>
      <trkpt lat="48.1287" lon="-1.92649">
        <ele>93</ele>
        <time>2025-05-16T09:43:43Z</time>
      </trkpt>
      <trkpt lat="48.12873" lon="-1.92651">
        <ele>93</ele>
        <time>2025-05-16T09:43:44Z</time>
      </trkpt>
      <trkpt lat="48.12876" lon="-1.92652">
        <ele>94</ele>
        <time>2025-05-16T09:43:45Z</time>
      </trkpt>
      <trkpt lat="48.1288" lon="-1.92653">
        <ele>94</ele>
        <time>2025-05-16T09:43:46Z</time>
      </trkpt>
      <trkpt lat="48.12883" lon="-1.92654">
        <ele>94</ele>
        <time>2025-05-16T09:43:47Z</time>
      </trkpt>
      <trkpt lat="48.12886" lon="-1.92656">
        <ele>94</ele>
        <time>2025-05-16T09:43:48Z</time>
      </trkpt>
      <trkpt lat="48.12889" lon="-1.92657">
        <ele>94</ele>
        <time>2025-05-16T09:43:49Z</time>
      </trkpt>
      <trkpt lat="48.12892" lon="-1.92659">
        <ele>94</ele>
        <time>2025-05-16T09:43:50Z</time>
      </trkpt>
      <trkpt lat="48.12895" lon="-1.9266">
        <ele>94</ele>
        <time>2025-05-16T09:43:51Z</time>
      </trkpt>
      <trkpt lat="48.12898" lon="-1.92662">
        <ele>94</ele>
        <time>2025-05-16T09:43:52Z</time>
      </trkpt>
      <trkpt lat="48.12902" lon="-1.92663">
        <ele>94</ele>
        <time>2025-05-16T09:43:53Z</time>
      </trkpt>
      <trkpt lat="48.12905" lon="-1.92664">
        <ele>94</ele>
        <time>2025-05-16T09:43:54Z</time>
      </trkpt>
      <trkpt lat="48.12907" lon="-1.92666">
        <ele>94</ele>
        <time>2025-05-16T09:43:55Z</time>
      </trkpt>
      <trkpt lat="48.1291" lon="-1.92667">
        <ele>94</ele>
        <time>2025-05-16T09:43:56Z</time>
      </trkpt>
      <trkpt lat="48.12913" lon="-1.92669">
        <ele>93</ele>
        <time>2025-05-16T09:43:57Z</time>
      </trkpt>
      <trkpt lat="48.12917" lon="-1.9267">
        <ele>93</ele>
        <time>2025-05-16T09:43:58Z</time>
      </trkpt>
      <trkpt lat="48.1292" lon="-1.92672">
        <ele>93</ele>
        <time>2025-05-16T09:43:59Z</time>
      </trkpt>
      <trkpt lat="48.12923" lon="-1.92674">
        <ele>94</ele>
        <time>2025-05-16T09:44:00Z</time>
      </trkpt>
      <trkpt lat="48.12926" lon="-1.92676">
        <ele>94</ele>
        <time>2025-05-16T09:44:01Z</time>
      </trkpt>
      <trkpt lat="48.12929" lon="-1.92677">
        <ele>94</ele>
        <time>2025-05-16T09:44:02Z</time>
      </trkpt>
      <trkpt lat="48.12932" lon="-1.92679">
        <ele>94</ele>
        <time>2025-05-16T09:44:03Z</time>
      </trkpt>
      <trkpt lat="48.12935" lon="-1.92681">
        <ele>94</ele>
        <time>2025-05-16T09:44:04Z</time>
      </trkpt>
      <trkpt lat="48.12939" lon="-1.92682">
        <ele>94</ele>
        <time>2025-05-16T09:44:05Z</time>
      </trkpt>
      <trkpt lat="48.12942" lon="-1.92684">
        <ele>94</ele>
        <time>2025-05-16T09:44:06Z</time>
      </trkpt>
      <trkpt lat="48.12945" lon="-1.92685">
        <ele>94</ele>
        <time>2025-05-16T09:44:07Z</time>
      </trkpt>
      <trkpt lat="48.12948" lon="-1.92687">
        <ele>94</ele>
        <time>2025-05-16T09:44:08Z</time>
      </trkpt>
      <trkpt lat="48.12951" lon="-1.92689">
        <ele>95</ele>
        <time>2025-05-16T09:44:09Z</time>
      </trkpt>
      <trkpt lat="48.12954" lon="-1.92691">
        <ele>95</ele>
        <time>2025-05-16T09:44:10Z</time>
      </trkpt>
      <trkpt lat="48.12958" lon="-1.92692">
        <ele>95</ele>
        <time>2025-05-16T09:44:11Z</time>
      </trkpt>
      <trkpt lat="48.12961" lon="-1.92694">
        <ele>96</ele>
        <time>2025-05-16T09:44:12Z</time>
      </trkpt>
      <trkpt lat="48.12964" lon="-1.92696">
        <ele>95</ele>
        <time>2025-05-16T09:44:13Z</time>
      </trkpt>
      <trkpt lat="48.12967" lon="-1.92698">
        <ele>95</ele>
        <time>2025-05-16T09:44:14Z</time>
      </trkpt>
      <trkpt lat="48.1297" lon="-1.92699">
        <ele>95</ele>
        <time>2025-05-16T09:44:15Z</time>
      </trkpt>
      <trkpt lat="48.12973" lon="-1.92701">
        <ele>95</ele>
        <time>2025-05-16T09:44:16Z</time>
      </trkpt>
      <trkpt lat="48.12976" lon="-1.92702">
        <ele>95</ele>
        <time>2025-05-16T09:44:17Z</time>
      </trkpt>
      <trkpt lat="48.12979" lon="-1.92704">
        <ele>96</ele>
        <time>2025-05-16T09:44:18Z</time>
      </trkpt>
      <trkpt lat="48.12982" lon="-1.92706">
        <ele>96</ele>
        <time>2025-05-16T09:44:19Z</time>
      </trkpt>
      <trkpt lat="48.12985" lon="-1.92707">
        <ele>96</ele>
        <time>2025-05-16T09:44:20Z</time>
      </trkpt>
      <trkpt lat="48.12988" lon="-1.92709">
        <ele>96</ele>
        <time>2025-05-16T09:44:21Z</time>
      </trkpt>
      <trkpt lat="48.12991" lon="-1.92711">
        <ele>96</ele>
        <time>2025-05-16T09:44:22Z</time>
      </trkpt>
      <trkpt lat="48.12994" lon="-1.92713">
        <ele>96</ele>
        <time>2025-05-16T09:44:23Z</time>
      </trkpt>
      <trkpt lat="48.12998" lon="-1.92715">
        <ele>96</ele>
        <time>2025-05-16T09:44:24Z</time>
      </trkpt>
      <trkpt lat="48.13001" lon="-1.92716">
        <ele>96</ele>
        <time>2025-05-16T09:44:25Z</time>
      </trkpt>
      <trkpt lat="48.13004" lon="-1.92718">
        <ele>96</ele>
        <time>2025-05-16T09:44:26Z</time>
      </trkpt>
      <trkpt lat="48.13007" lon="-1.9272">
        <ele>96</ele>
        <time>2025-05-16T09:44:27Z</time>
      </trkpt>
      <trkpt lat="48.13011" lon="-1.92722">
        <ele>96</ele>
        <time>2025-05-16T09:44:28Z</time>
      </trkpt>
      <trkpt lat="48.13014" lon="-1.92723">
        <ele>96</ele>
        <time>2025-05-16T09:44:29Z</time>
      </trkpt>
      <trkpt lat="48.13017" lon="-1.92724">
        <ele>96</ele>
        <time>2025-05-16T09:44:30Z</time>
      </trkpt>
      <trkpt lat="48.1302" lon="-1.92726">
        <ele>96</ele>
        <time>2025-05-16T09:44:31Z</time>
      </trkpt>
      <trkpt lat="48.13022" lon="-1.92726">
        <ele>95</ele>
        <time>2025-05-16T09:44:32Z</time>
      </trkpt>
      <trkpt lat="48.13024" lon="-1.92726">
        <ele>95</ele>
        <time>2025-05-16T09:44:33Z</time>
      </trkpt>
      <trkpt lat="48.13026" lon="-1.92726">
        <ele>95</ele>
        <time>2025-05-16T09:44:34Z</time>
      </trkpt>
      <trkpt lat="48.13027" lon="-1.92726">
        <ele>95</ele>
        <time>2025-05-16T09:44:35Z</time>
      </trkpt>
      <trkpt lat="48.13029" lon="-1.92725">
        <ele>95</ele>
        <time>2025-05-16T09:44:36Z</time>
      </trkpt>
      <trkpt lat="48.1303" lon="-1.92725">
        <ele>95</ele>
        <time>2025-05-16T09:44:37Z</time>
      </trkpt>
      <trkpt lat="48.13031" lon="-1.92724">
        <ele>95</ele>
        <time>2025-05-16T09:44:38Z</time>
      </trkpt>
      <trkpt lat="48.13033" lon="-1.92723">
        <ele>95</ele>
        <time>2025-05-16T09:44:39Z</time>
      </trkpt>
      <trkpt lat="48.13034" lon="-1.92721">
        <ele>94</ele>
        <time>2025-05-16T09:44:40Z</time>
      </trkpt>
      <trkpt lat="48.13035" lon="-1.92719">
        <ele>94</ele>
        <time>2025-05-16T09:44:41Z</time>
      </trkpt>
      <trkpt lat="48.13035" lon="-1.92715">
        <ele>94</ele>
        <time>2025-05-16T09:44:42Z</time>
      </trkpt>
      <trkpt lat="48.13036" lon="-1.92711">
        <ele>94</ele>
        <time>2025-05-16T09:44:43Z</time>
      </trkpt>
      <trkpt lat="48.13037" lon="-1.92706">
        <ele>94</ele>
        <time>2025-05-16T09:44:44Z</time>
      </trkpt>
      <trkpt lat="48.13038" lon="-1.92701">
        <ele>94</ele>
        <time>2025-05-16T09:44:45Z</time>
      </trkpt>
      <trkpt lat="48.13038" lon="-1.92696">
        <ele>94</ele>
        <time>2025-05-16T09:44:46Z</time>
      </trkpt>
      <trkpt lat="48.13039" lon="-1.9269">
        <ele>94</ele>
        <time>2025-05-16T09:44:47Z</time>
      </trkpt>
      <trkpt lat="48.13039" lon="-1.92684">
        <ele>94</ele>
        <time>2025-05-16T09:44:48Z</time>
      </trkpt>
      <trkpt lat="48.13039" lon="-1.92679">
        <ele>94</ele>
        <time>2025-05-16T09:44:49Z</time>
      </trkpt>
      <trkpt lat="48.13039" lon="-1.92673">
        <ele>94</ele>
        <time>2025-05-16T09:44:50Z</time>
      </trkpt>
      <trkpt lat="48.13039" lon="-1.92668">
        <ele>93</ele>
        <time>2025-05-16T09:44:51Z</time>
      </trkpt>
      <trkpt lat="48.13039" lon="-1.92662">
        <ele>93</ele>
        <time>2025-05-16T09:44:52Z</time>
      </trkpt>
      <trkpt lat="48.13039" lon="-1.92656">
        <ele>93</ele>
        <time>2025-05-16T09:44:53Z</time>
      </trkpt>
      <trkpt lat="48.13038" lon="-1.9265">
        <ele>92</ele>
        <time>2025-05-16T09:44:54Z</time>
      </trkpt>
      <trkpt lat="48.13038" lon="-1.92645">
        <ele>92</ele>
        <time>2025-05-16T09:44:55Z</time>
      </trkpt>
      <trkpt lat="48.13037" lon="-1.92638">
        <ele>92</ele>
        <time>2025-05-16T09:44:56Z</time>
      </trkpt>
      <trkpt lat="48.13036" lon="-1.92632">
        <ele>92</ele>
        <time>2025-05-16T09:44:57Z</time>
      </trkpt>
      <trkpt lat="48.13036" lon="-1.92626">
        <ele>91</ele>
        <time>2025-05-16T09:44:58Z</time>
      </trkpt>
      <trkpt lat="48.13036" lon="-1.9262">
        <ele>91</ele>
        <time>2025-05-16T09:44:59Z</time>
      </trkpt>
      <trkpt lat="48.13035" lon="-1.92614">
        <ele>91</ele>
        <time>2025-05-16T09:45:00Z</time>
      </trkpt>
      <trkpt lat="48.13034" lon="-1.92608">
        <ele>90</ele>
        <time>2025-05-16T09:45:01Z</time>
      </trkpt>
      <trkpt lat="48.13033" lon="-1.92601">
        <ele>90</ele>
        <time>2025-05-16T09:45:02Z</time>
      </trkpt>
      <trkpt lat="48.13032" lon="-1.92594">
        <ele>90</ele>
        <time>2025-05-16T09:45:03Z</time>
      </trkpt>
      <trkpt lat="48.13031" lon="-1.92587">
        <ele>90</ele>
        <time>2025-05-16T09:45:04Z</time>
      </trkpt>
      <trkpt lat="48.1303" lon="-1.9258">
        <ele>90</ele>
        <time>2025-05-16T09:45:05Z</time>
      </trkpt>
      <trkpt lat="48.13028" lon="-1.92573">
        <ele>90</ele>
        <time>2025-05-16T09:45:06Z</time>
      </trkpt>
      <trkpt lat="48.13027" lon="-1.92567">
        <ele>90</ele>
        <time>2025-05-16T09:45:07Z</time>
      </trkpt>
      <trkpt lat="48.13026" lon="-1.92559">
        <ele>91</ele>
        <time>2025-05-16T09:45:08Z</time>
      </trkpt>
      <trkpt lat="48.13024" lon="-1.92552">
        <ele>91</ele>
        <time>2025-05-16T09:45:09Z</time>
      </trkpt>
      <trkpt lat="48.13022" lon="-1.92545">
        <ele>91</ele>
        <time>2025-05-16T09:45:10Z</time>
      </trkpt>
      <trkpt lat="48.1302" lon="-1.92537">
        <ele>91</ele>
        <time>2025-05-16T09:45:11Z</time>
      </trkpt>
      <trkpt lat="48.13019" lon="-1.92529">
        <ele>91</ele>
        <time>2025-05-16T09:45:12Z</time>
      </trkpt>
      <trkpt lat="48.13017" lon="-1.92521">
        <ele>91</ele>
        <time>2025-05-16T09:45:13Z</time>
      </trkpt>
      <trkpt lat="48.13015" lon="-1.92513">
        <ele>91</ele>
        <time>2025-05-16T09:45:14Z</time>
      </trkpt>
      <trkpt lat="48.13013" lon="-1.92504">
        <ele>90</ele>
        <time>2025-05-16T09:45:15Z</time>
      </trkpt>
      <trkpt lat="48.13011" lon="-1.92496">
        <ele>90</ele>
        <time>2025-05-16T09:45:16Z</time>
      </trkpt>
      <trkpt lat="48.13008" lon="-1.92487">
        <ele>90</ele>
        <time>2025-05-16T09:45:17Z</time>
      </trkpt>
      <trkpt lat="48.13006" lon="-1.92478">
        <ele>90</ele>
        <time>2025-05-16T09:45:18Z</time>
      </trkpt>
      <trkpt lat="48.13004" lon="-1.92469">
        <ele>90</ele>
        <time>2025-05-16T09:45:19Z</time>
      </trkpt>
      <trkpt lat="48.13002" lon="-1.92459">
        <ele>90</ele>
        <time>2025-05-16T09:45:20Z</time>
      </trkpt>
      <trkpt lat="48.13" lon="-1.92451">
        <ele>90</ele>
        <time>2025-05-16T09:45:21Z</time>
      </trkpt>
      <trkpt lat="48.12998" lon="-1.92442">
        <ele>90</ele>
        <time>2025-05-16T09:45:22Z</time>
      </trkpt>
      <trkpt lat="48.12996" lon="-1.92433">
        <ele>89</ele>
        <time>2025-05-16T09:45:23Z</time>
      </trkpt>
      <trkpt lat="48.12993" lon="-1.92424">
        <ele>89</ele>
        <time>2025-05-16T09:45:24Z</time>
      </trkpt>
      <trkpt lat="48.12991" lon="-1.92416">
        <ele>88</ele>
        <time>2025-05-16T09:45:25Z</time>
      </trkpt>
      <trkpt lat="48.12989" lon="-1.92407">
        <ele>88</ele>
        <time>2025-05-16T09:45:26Z</time>
      </trkpt>
      <trkpt lat="48.12987" lon="-1.92397">
        <ele>88</ele>
        <time>2025-05-16T09:45:27Z</time>
      </trkpt>
      <trkpt lat="48.12985" lon="-1.92388">
        <ele>88</ele>
        <time>2025-05-16T09:45:28Z</time>
      </trkpt>
      <trkpt lat="48.12983" lon="-1.92379">
        <ele>88</ele>
        <time>2025-05-16T09:45:29Z</time>
      </trkpt>
      <trkpt lat="48.12981" lon="-1.9237">
        <ele>88</ele>
        <time>2025-05-16T09:45:30Z</time>
      </trkpt>
      <trkpt lat="48.12979" lon="-1.9236">
        <ele>88</ele>
        <time>2025-05-16T09:45:31Z</time>
      </trkpt>
      <trkpt lat="48.12977" lon="-1.9235">
        <ele>88</ele>
        <time>2025-05-16T09:45:32Z</time>
      </trkpt>
      <trkpt lat="48.12975" lon="-1.92341">
        <ele>89</ele>
        <time>2025-05-16T09:45:33Z</time>
      </trkpt>
      <trkpt lat="48.12973" lon="-1.92332">
        <ele>88</ele>
        <time>2025-05-16T09:45:34Z</time>
      </trkpt>
      <trkpt lat="48.1297" lon="-1.92322">
        <ele>88</ele>
        <time>2025-05-16T09:45:35Z</time>
      </trkpt>
      <trkpt lat="48.12968" lon="-1.92313">
        <ele>88</ele>
        <time>2025-05-16T09:45:36Z</time>
      </trkpt>
      <trkpt lat="48.12965" lon="-1.92303">
        <ele>87</ele>
        <time>2025-05-16T09:45:37Z</time>
      </trkpt>
      <trkpt lat="48.12963" lon="-1.92293">
        <ele>87</ele>
        <time>2025-05-16T09:45:38Z</time>
      </trkpt>
      <trkpt lat="48.1296" lon="-1.92283">
        <ele>87</ele>
        <time>2025-05-16T09:45:39Z</time>
      </trkpt>
      <trkpt lat="48.12958" lon="-1.92273">
        <ele>86</ele>
        <time>2025-05-16T09:45:40Z</time>
      </trkpt>
      <trkpt lat="48.12956" lon="-1.92263">
        <ele>86</ele>
        <time>2025-05-16T09:45:41Z</time>
      </trkpt>
      <trkpt lat="48.12954" lon="-1.92253">
        <ele>86</ele>
        <time>2025-05-16T09:45:42Z</time>
      </trkpt>
      <trkpt lat="48.12951" lon="-1.92243">
        <ele>86</ele>
        <time>2025-05-16T09:45:43Z</time>
      </trkpt>
      <trkpt lat="48.12949" lon="-1.92234">
        <ele>86</ele>
        <time>2025-05-16T09:45:44Z</time>
      </trkpt>
      <trkpt lat="48.12947" lon="-1.92224">
        <ele>87</ele>
        <time>2025-05-16T09:45:45Z</time>
      </trkpt>
      <trkpt lat="48.12945" lon="-1.92214">
        <ele>86</ele>
        <time>2025-05-16T09:45:46Z</time>
      </trkpt>
      <trkpt lat="48.12942" lon="-1.92204">
        <ele>86</ele>
        <time>2025-05-16T09:45:47Z</time>
      </trkpt>
      <trkpt lat="48.1294" lon="-1.92194">
        <ele>86</ele>
        <time>2025-05-16T09:45:48Z</time>
      </trkpt>
      <trkpt lat="48.12937" lon="-1.92184">
        <ele>86</ele>
        <time>2025-05-16T09:45:49Z</time>
      </trkpt>
      <trkpt lat="48.12935" lon="-1.92175">
        <ele>85</ele>
        <time>2025-05-16T09:45:50Z</time>
      </trkpt>
      <trkpt lat="48.12933" lon="-1.92165">
        <ele>85</ele>
        <time>2025-05-16T09:45:51Z</time>
      </trkpt>
      <trkpt lat="48.1293" lon="-1.92155">
        <ele>85</ele>
        <time>2025-05-16T09:45:52Z</time>
      </trkpt>
      <trkpt lat="48.12928" lon="-1.92145">
        <ele>85</ele>
        <time>2025-05-16T09:45:53Z</time>
      </trkpt>
      <trkpt lat="48.12926" lon="-1.92135">
        <ele>85</ele>
        <time>2025-05-16T09:45:54Z</time>
      </trkpt>
      <trkpt lat="48.12923" lon="-1.92124">
        <ele>85</ele>
        <time>2025-05-16T09:45:55Z</time>
      </trkpt>
      <trkpt lat="48.12921" lon="-1.92114">
        <ele>85</ele>
        <time>2025-05-16T09:45:56Z</time>
      </trkpt>
      <trkpt lat="48.12919" lon="-1.92104">
        <ele>84</ele>
        <time>2025-05-16T09:45:57Z</time>
      </trkpt>
      <trkpt lat="48.12917" lon="-1.92095">
        <ele>85</ele>
        <time>2025-05-16T09:45:58Z</time>
      </trkpt>
      <trkpt lat="48.12915" lon="-1.92086">
        <ele>85</ele>
        <time>2025-05-16T09:45:59Z</time>
      </trkpt>
      <trkpt lat="48.12913" lon="-1.92077">
        <ele>85</ele>
        <time>2025-05-16T09:46:00Z</time>
      </trkpt>
      <trkpt lat="48.12911" lon="-1.92068">
        <ele>85</ele>
        <time>2025-05-16T09:46:01Z</time>
      </trkpt>
      <trkpt lat="48.1291" lon="-1.92059">
        <ele>86</ele>
        <time>2025-05-16T09:46:02Z</time>
      </trkpt>
      <trkpt lat="48.12907" lon="-1.92051">
        <ele>86</ele>
        <time>2025-05-16T09:46:03Z</time>
      </trkpt>
      <trkpt lat="48.12905" lon="-1.92044">
        <ele>85</ele>
        <time>2025-05-16T09:46:04Z</time>
      </trkpt>
      <trkpt lat="48.12904" lon="-1.92036">
        <ele>86</ele>
        <time>2025-05-16T09:46:05Z</time>
      </trkpt>
      <trkpt lat="48.12902" lon="-1.92029">
        <ele>86</ele>
        <time>2025-05-16T09:46:06Z</time>
      </trkpt>
      <trkpt lat="48.12901" lon="-1.92021">
        <ele>86</ele>
        <time>2025-05-16T09:46:07Z</time>
      </trkpt>
      <trkpt lat="48.12899" lon="-1.92015">
        <ele>86</ele>
        <time>2025-05-16T09:46:08Z</time>
      </trkpt>
      <trkpt lat="48.12898" lon="-1.92008">
        <ele>87</ele>
        <time>2025-05-16T09:46:09Z</time>
      </trkpt>
      <trkpt lat="48.12896" lon="-1.92002">
        <ele>87</ele>
        <time>2025-05-16T09:46:10Z</time>
      </trkpt>
      <trkpt lat="48.12894" lon="-1.91996">
        <ele>87</ele>
        <time>2025-05-16T09:46:11Z</time>
      </trkpt>
      <trkpt lat="48.12893" lon="-1.91991">
        <ele>88</ele>
        <time>2025-05-16T09:46:12Z</time>
      </trkpt>
      <trkpt lat="48.12892" lon="-1.91985">
        <ele>88</ele>
        <time>2025-05-16T09:46:13Z</time>
      </trkpt>
      <trkpt lat="48.1289" lon="-1.91979">
        <ele>88</ele>
        <time>2025-05-16T09:46:14Z</time>
      </trkpt>
      <trkpt lat="48.12889" lon="-1.91974">
        <ele>88</ele>
        <time>2025-05-16T09:46:15Z</time>
      </trkpt>
      <trkpt lat="48.12887" lon="-1.91968">
        <ele>88</ele>
        <time>2025-05-16T09:46:16Z</time>
      </trkpt>
      <trkpt lat="48.12886" lon="-1.91964">
        <ele>89</ele>
        <time>2025-05-16T09:46:17Z</time>
      </trkpt>
      <trkpt lat="48.12884" lon="-1.91958">
        <ele>89</ele>
        <time>2025-05-16T09:46:18Z</time>
      </trkpt>
      <trkpt lat="48.12883" lon="-1.91953">
        <ele>89</ele>
        <time>2025-05-16T09:46:19Z</time>
      </trkpt>
      <trkpt lat="48.12881" lon="-1.91948">
        <ele>89</ele>
        <time>2025-05-16T09:46:20Z</time>
      </trkpt>
      <trkpt lat="48.1288" lon="-1.91944">
        <ele>89</ele>
        <time>2025-05-16T09:46:21Z</time>
      </trkpt>
      <trkpt lat="48.12879" lon="-1.91939">
        <ele>89</ele>
        <time>2025-05-16T09:46:22Z</time>
      </trkpt>
      <trkpt lat="48.12878" lon="-1.91935">
        <ele>90</ele>
        <time>2025-05-16T09:46:23Z</time>
      </trkpt>
      <trkpt lat="48.12876" lon="-1.9193">
        <ele>90</ele>
        <time>2025-05-16T09:46:24Z</time>
      </trkpt>
      <trkpt lat="48.12875" lon="-1.91925">
        <ele>90</ele>
        <time>2025-05-16T09:46:25Z</time>
      </trkpt>
      <trkpt lat="48.12874" lon="-1.91921">
        <ele>91</ele>
        <time>2025-05-16T09:46:26Z</time>
      </trkpt>
      <trkpt lat="48.12872" lon="-1.91916">
        <ele>91</ele>
        <time>2025-05-16T09:46:27Z</time>
      </trkpt>
      <trkpt lat="48.12871" lon="-1.91911">
        <ele>91</ele>
        <time>2025-05-16T09:46:28Z</time>
      </trkpt>
      <trkpt lat="48.12869" lon="-1.91907">
        <ele>91</ele>
        <time>2025-05-16T09:46:29Z</time>
      </trkpt>
      <trkpt lat="48.12868" lon="-1.91902">
        <ele>91</ele>
        <time>2025-05-16T09:46:30Z</time>
      </trkpt>
      <trkpt lat="48.12867" lon="-1.91898">
        <ele>91</ele>
        <time>2025-05-16T09:46:31Z</time>
      </trkpt>
      <trkpt lat="48.12866" lon="-1.91893">
        <ele>91</ele>
        <time>2025-05-16T09:46:32Z</time>
      </trkpt>
      <trkpt lat="48.12864" lon="-1.91889">
        <ele>91</ele>
        <time>2025-05-16T09:46:33Z</time>
      </trkpt>
      <trkpt lat="48.12862" lon="-1.91884">
        <ele>91</ele>
        <time>2025-05-16T09:46:34Z</time>
      </trkpt>
      <trkpt lat="48.12861" lon="-1.9188">
        <ele>91</ele>
        <time>2025-05-16T09:46:35Z</time>
      </trkpt>
      <trkpt lat="48.12859" lon="-1.91875">
        <ele>91</ele>
        <time>2025-05-16T09:46:36Z</time>
      </trkpt>
      <trkpt lat="48.12858" lon="-1.9187">
        <ele>91</ele>
        <time>2025-05-16T09:46:37Z</time>
      </trkpt>
      <trkpt lat="48.12856" lon="-1.91865">
        <ele>91</ele>
        <time>2025-05-16T09:46:38Z</time>
      </trkpt>
      <trkpt lat="48.12855" lon="-1.91861">
        <ele>91</ele>
        <time>2025-05-16T09:46:39Z</time>
      </trkpt>
      <trkpt lat="48.12854" lon="-1.91856">
        <ele>92</ele>
        <time>2025-05-16T09:46:40Z</time>
      </trkpt>
      <trkpt lat="48.12852" lon="-1.91852">
        <ele>92</ele>
        <time>2025-05-16T09:46:41Z</time>
      </trkpt>
      <trkpt lat="48.12851" lon="-1.91848">
        <ele>92</ele>
        <time>2025-05-16T09:46:42Z</time>
      </trkpt>
      <trkpt lat="48.12849" lon="-1.91843">
        <ele>92</ele>
        <time>2025-05-16T09:46:43Z</time>
      </trkpt>
      <trkpt lat="48.12848" lon="-1.91838">
        <ele>92</ele>
        <time>2025-05-16T09:46:44Z</time>
      </trkpt>
      <trkpt lat="48.12846" lon="-1.91834">
        <ele>93</ele>
        <time>2025-05-16T09:46:45Z</time>
      </trkpt>
      <trkpt lat="48.12845" lon="-1.9183">
        <ele>93</ele>
        <time>2025-05-16T09:46:46Z</time>
      </trkpt>
      <trkpt lat="48.12844" lon="-1.91826">
        <ele>93</ele>
        <time>2025-05-16T09:46:47Z</time>
      </trkpt>
      <trkpt lat="48.12842" lon="-1.91821">
        <ele>93</ele>
        <time>2025-05-16T09:46:48Z</time>
      </trkpt>
      <trkpt lat="48.12841" lon="-1.91817">
        <ele>93</ele>
        <time>2025-05-16T09:46:49Z</time>
      </trkpt>
      <trkpt lat="48.1284" lon="-1.91812">
        <ele>93</ele>
        <time>2025-05-16T09:46:50Z</time>
      </trkpt>
      <trkpt lat="48.12838" lon="-1.91808">
        <ele>93</ele>
        <time>2025-05-16T09:46:51Z</time>
      </trkpt>
      <trkpt lat="48.12837" lon="-1.91803">
        <ele>94</ele>
        <time>2025-05-16T09:46:52Z</time>
      </trkpt>
      <trkpt lat="48.12836" lon="-1.91799">
        <ele>94</ele>
        <time>2025-05-16T09:46:53Z</time>
      </trkpt>
      <trkpt lat="48.12834" lon="-1.91795">
        <ele>94</ele>
        <time>2025-05-16T09:46:54Z</time>
      </trkpt>
      <trkpt lat="48.12833" lon="-1.9179">
        <ele>94</ele>
        <time>2025-05-16T09:46:55Z</time>
      </trkpt>
      <trkpt lat="48.12832" lon="-1.91786">
        <ele>94</ele>
        <time>2025-05-16T09:46:56Z</time>
      </trkpt>
      <trkpt lat="48.12831" lon="-1.91782">
        <ele>94</ele>
        <time>2025-05-16T09:46:57Z</time>
      </trkpt>
      <trkpt lat="48.1283" lon="-1.91778">
        <ele>94</ele>
        <time>2025-05-16T09:46:58Z</time>
      </trkpt>
      <trkpt lat="48.12828" lon="-1.91774">
        <ele>94</ele>
        <time>2025-05-16T09:46:59Z</time>
      </trkpt>
      <trkpt lat="48.12827" lon="-1.91769">
        <ele>94</ele>
        <time>2025-05-16T09:47:00Z</time>
      </trkpt>
      <trkpt lat="48.12825" lon="-1.91765">
        <ele>94</ele>
        <time>2025-05-16T09:47:01Z</time>
      </trkpt>
      <trkpt lat="48.12824" lon="-1.9176">
        <ele>94</ele>
        <time>2025-05-16T09:47:02Z</time>
      </trkpt>
      <trkpt lat="48.12822" lon="-1.91756">
        <ele>94</ele>
        <time>2025-05-16T09:47:03Z</time>
      </trkpt>
      <trkpt lat="48.12821" lon="-1.91752">
        <ele>94</ele>
        <time>2025-05-16T09:47:04Z</time>
      </trkpt>
      <trkpt lat="48.12819" lon="-1.91747">
        <ele>94</ele>
        <time>2025-05-16T09:47:05Z</time>
      </trkpt>
      <trkpt lat="48.12818" lon="-1.91742">
        <ele>94</ele>
        <time>2025-05-16T09:47:06Z</time>
      </trkpt>
      <trkpt lat="48.12817" lon="-1.91737">
        <ele>94</ele>
        <time>2025-05-16T09:47:07Z</time>
      </trkpt>
      <trkpt lat="48.12815" lon="-1.91732">
        <ele>94</ele>
        <time>2025-05-16T09:47:08Z</time>
      </trkpt>
      <trkpt lat="48.12814" lon="-1.91728">
        <ele>94</ele>
        <time>2025-05-16T09:47:09Z</time>
      </trkpt>
      <trkpt lat="48.12813" lon="-1.91724">
        <ele>95</ele>
        <time>2025-05-16T09:47:10Z</time>
      </trkpt>
      <trkpt lat="48.12811" lon="-1.91719">
        <ele>95</ele>
        <time>2025-05-16T09:47:11Z</time>
      </trkpt>
      <trkpt lat="48.1281" lon="-1.91714">
        <ele>95</ele>
        <time>2025-05-16T09:47:12Z</time>
      </trkpt>
      <trkpt lat="48.12808" lon="-1.91709">
        <ele>95</ele>
        <time>2025-05-16T09:47:13Z</time>
      </trkpt>
      <trkpt lat="48.12807" lon="-1.91705">
        <ele>94</ele>
        <time>2025-05-16T09:47:14Z</time>
      </trkpt>
      <trkpt lat="48.12806" lon="-1.91701">
        <ele>94</ele>
        <time>2025-05-16T09:47:15Z</time>
      </trkpt>
      <trkpt lat="48.12804" lon="-1.91696">
        <ele>94</ele>
        <time>2025-05-16T09:47:16Z</time>
      </trkpt>
      <trkpt lat="48.12802" lon="-1.91691">
        <ele>94</ele>
        <time>2025-05-16T09:47:17Z</time>
      </trkpt>
      <trkpt lat="48.12801" lon="-1.91686">
        <ele>94</ele>
        <time>2025-05-16T09:47:18Z</time>
      </trkpt>
      <trkpt lat="48.128" lon="-1.91682">
        <ele>94</ele>
        <time>2025-05-16T09:47:19Z</time>
      </trkpt>
      <trkpt lat="48.12798" lon="-1.91677">
        <ele>94</ele>
        <time>2025-05-16T09:47:20Z</time>
      </trkpt>
      <trkpt lat="48.12797" lon="-1.91672">
        <ele>94</ele>
        <time>2025-05-16T09:47:21Z</time>
      </trkpt>
      <trkpt lat="48.12795" lon="-1.91667">
        <ele>94</ele>
        <time>2025-05-16T09:47:22Z</time>
      </trkpt>
      <trkpt lat="48.12794" lon="-1.91662">
        <ele>94</ele>
        <time>2025-05-16T09:47:23Z</time>
      </trkpt>
      <trkpt lat="48.12792" lon="-1.91657">
        <ele>94</ele>
        <time>2025-05-16T09:47:24Z</time>
      </trkpt>
      <trkpt lat="48.12791" lon="-1.91652">
        <ele>93</ele>
        <time>2025-05-16T09:47:25Z</time>
      </trkpt>
      <trkpt lat="48.12789" lon="-1.91647">
        <ele>93</ele>
        <time>2025-05-16T09:47:26Z</time>
      </trkpt>
      <trkpt lat="48.12787" lon="-1.91641">
        <ele>93</ele>
        <time>2025-05-16T09:47:27Z</time>
      </trkpt>
      <trkpt lat="48.12785" lon="-1.91635">
        <ele>93</ele>
        <time>2025-05-16T09:47:28Z</time>
      </trkpt>
      <trkpt lat="48.12783" lon="-1.91628">
        <ele>93</ele>
        <time>2025-05-16T09:47:29Z</time>
      </trkpt>
      <trkpt lat="48.12781" lon="-1.91621">
        <ele>92</ele>
        <time>2025-05-16T09:47:30Z</time>
      </trkpt>
      <trkpt lat="48.12778" lon="-1.91614">
        <ele>92</ele>
        <time>2025-05-16T09:47:31Z</time>
      </trkpt>
      <trkpt lat="48.12775" lon="-1.91607">
        <ele>92</ele>
        <time>2025-05-16T09:47:32Z</time>
      </trkpt>
      <trkpt lat="48.12771" lon="-1.91599">
        <ele>92</ele>
        <time>2025-05-16T09:47:33Z</time>
      </trkpt>
      <trkpt lat="48.12768" lon="-1.9159">
        <ele>91</ele>
        <time>2025-05-16T09:47:34Z</time>
      </trkpt>
      <trkpt lat="48.12764" lon="-1.91582">
        <ele>91</ele>
        <time>2025-05-16T09:47:35Z</time>
      </trkpt>
      <trkpt lat="48.1276" lon="-1.91574">
        <ele>90</ele>
        <time>2025-05-16T09:47:36Z</time>
      </trkpt>
      <trkpt lat="48.12756" lon="-1.91565">
        <ele>90</ele>
        <time>2025-05-16T09:47:37Z</time>
      </trkpt>
      <trkpt lat="48.12752" lon="-1.91555">
        <ele>89</ele>
        <time>2025-05-16T09:47:38Z</time>
      </trkpt>
      <trkpt lat="48.12748" lon="-1.91546">
        <ele>89</ele>
        <time>2025-05-16T09:47:39Z</time>
      </trkpt>
      <trkpt lat="48.12744" lon="-1.91536">
        <ele>89</ele>
        <time>2025-05-16T09:47:40Z</time>
      </trkpt>
      <trkpt lat="48.1274" lon="-1.91525">
        <ele>89</ele>
        <time>2025-05-16T09:47:41Z</time>
      </trkpt>
      <trkpt lat="48.12736" lon="-1.91515">
        <ele>89</ele>
        <time>2025-05-16T09:47:42Z</time>
      </trkpt>
      <trkpt lat="48.12732" lon="-1.91506">
        <ele>89</ele>
        <time>2025-05-16T09:47:43Z</time>
      </trkpt>
      <trkpt lat="48.12728" lon="-1.91496">
        <ele>89</ele>
        <time>2025-05-16T09:47:44Z</time>
      </trkpt>
      <trkpt lat="48.12724" lon="-1.91487">
        <ele>89</ele>
        <time>2025-05-16T09:47:45Z</time>
      </trkpt>
      <trkpt lat="48.1272" lon="-1.91478">
        <ele>89</ele>
        <time>2025-05-16T09:47:46Z</time>
      </trkpt>
      <trkpt lat="48.12716" lon="-1.91469">
        <ele>89</ele>
        <time>2025-05-16T09:47:47Z</time>
      </trkpt>
      <trkpt lat="48.12712" lon="-1.9146">
        <ele>89</ele>
        <time>2025-05-16T09:47:48Z</time>
      </trkpt>
      <trkpt lat="48.12708" lon="-1.91451">
        <ele>89</ele>
        <time>2025-05-16T09:47:49Z</time>
      </trkpt>
      <trkpt lat="48.12704" lon="-1.91442">
        <ele>90</ele>
        <time>2025-05-16T09:47:50Z</time>
      </trkpt>
      <trkpt lat="48.127" lon="-1.91435">
        <ele>90</ele>
        <time>2025-05-16T09:47:51Z</time>
      </trkpt>
      <trkpt lat="48.12696" lon="-1.91428">
        <ele>90</ele>
        <time>2025-05-16T09:47:52Z</time>
      </trkpt>
      <trkpt lat="48.12692" lon="-1.91421">
        <ele>90</ele>
        <time>2025-05-16T09:47:53Z</time>
      </trkpt>
      <trkpt lat="48.12688" lon="-1.91415">
        <ele>91</ele>
        <time>2025-05-16T09:47:54Z</time>
      </trkpt>
      <trkpt lat="48.12684" lon="-1.9141">
        <ele>91</ele>
        <time>2025-05-16T09:47:55Z</time>
      </trkpt>
      <trkpt lat="48.12681" lon="-1.91406">
        <ele>91</ele>
        <time>2025-05-16T09:47:56Z</time>
      </trkpt>
      <trkpt lat="48.12678" lon="-1.91401">
        <ele>92</ele>
        <time>2025-05-16T09:47:57Z</time>
      </trkpt>
      <trkpt lat="48.12674" lon="-1.91398">
        <ele>92</ele>
        <time>2025-05-16T09:47:58Z</time>
      </trkpt>
      <trkpt lat="48.12671" lon="-1.91395">
        <ele>92</ele>
        <time>2025-05-16T09:47:59Z</time>
      </trkpt>
      <trkpt lat="48.12669" lon="-1.91392">
        <ele>92</ele>
        <time>2025-05-16T09:48:00Z</time>
      </trkpt>
      <trkpt lat="48.12666" lon="-1.9139">
        <ele>92</ele>
        <time>2025-05-16T09:48:01Z</time>
      </trkpt>
      <trkpt lat="48.12663" lon="-1.91387">
        <ele>93</ele>
        <time>2025-05-16T09:48:02Z</time>
      </trkpt>
      <trkpt lat="48.1266" lon="-1.91384">
        <ele>93</ele>
        <time>2025-05-16T09:48:03Z</time>
      </trkpt>
      <trkpt lat="48.12658" lon="-1.91382">
        <ele>93</ele>
        <time>2025-05-16T09:48:04Z</time>
      </trkpt>
      <trkpt lat="48.12655" lon="-1.9138">
        <ele>93</ele>
        <time>2025-05-16T09:48:05Z</time>
      </trkpt>
      <trkpt lat="48.12653" lon="-1.91378">
        <ele>93</ele>
        <time>2025-05-16T09:48:06Z</time>
      </trkpt>
      <trkpt lat="48.1265" lon="-1.91376">
        <ele>93</ele>
        <time>2025-05-16T09:48:07Z</time>
      </trkpt>
      <trkpt lat="48.12648" lon="-1.91373">
        <ele>94</ele>
        <time>2025-05-16T09:48:08Z</time>
      </trkpt>
      <trkpt lat="48.12645" lon="-1.91371">
        <ele>94</ele>
        <time>2025-05-16T09:48:09Z</time>
      </trkpt>
      <trkpt lat="48.12643" lon="-1.91368">
        <ele>94</ele>
        <time>2025-05-16T09:48:10Z</time>
      </trkpt>
      <trkpt lat="48.1264" lon="-1.91366">
        <ele>94</ele>
        <time>2025-05-16T09:48:11Z</time>
      </trkpt>
      <trkpt lat="48.12638" lon="-1.91363">
        <ele>94</ele>
        <time>2025-05-16T09:48:12Z</time>
      </trkpt>
      <trkpt lat="48.12635" lon="-1.91361">
        <ele>94</ele>
        <time>2025-05-16T09:48:13Z</time>
      </trkpt>
      <trkpt lat="48.12632" lon="-1.91358">
        <ele>94</ele>
        <time>2025-05-16T09:48:14Z</time>
      </trkpt>
      <trkpt lat="48.12629" lon="-1.91355">
        <ele>94</ele>
        <time>2025-05-16T09:48:15Z</time>
      </trkpt>
      <trkpt lat="48.12627" lon="-1.91353">
        <ele>94</ele>
        <time>2025-05-16T09:48:16Z</time>
      </trkpt>
      <trkpt lat="48.12624" lon="-1.9135">
        <ele>94</ele>
        <time>2025-05-16T09:48:17Z</time>
      </trkpt>
      <trkpt lat="48.12621" lon="-1.91347">
        <ele>94</ele>
        <time>2025-05-16T09:48:18Z</time>
      </trkpt>
      <trkpt lat="48.12618" lon="-1.91343">
        <ele>94</ele>
        <time>2025-05-16T09:48:19Z</time>
      </trkpt>
      <trkpt lat="48.12615" lon="-1.91339">
        <ele>94</ele>
        <time>2025-05-16T09:48:20Z</time>
      </trkpt>
      <trkpt lat="48.12612" lon="-1.91335">
        <ele>94</ele>
        <time>2025-05-16T09:48:21Z</time>
      </trkpt>
      <trkpt lat="48.12609" lon="-1.91331">
        <ele>94</ele>
        <time>2025-05-16T09:48:22Z</time>
      </trkpt>
      <trkpt lat="48.12605" lon="-1.91326">
        <ele>93</ele>
        <time>2025-05-16T09:48:23Z</time>
      </trkpt>
      <trkpt lat="48.12602" lon="-1.9132">
        <ele>93</ele>
        <time>2025-05-16T09:48:24Z</time>
      </trkpt>
      <trkpt lat="48.12599" lon="-1.91315">
        <ele>93</ele>
        <time>2025-05-16T09:48:25Z</time>
      </trkpt>
      <trkpt lat="48.12596" lon="-1.91309">
        <ele>92</ele>
        <time>2025-05-16T09:48:26Z</time>
      </trkpt>
      <trkpt lat="48.12593" lon="-1.91303">
        <ele>92</ele>
        <time>2025-05-16T09:48:27Z</time>
      </trkpt>
      <trkpt lat="48.1259" lon="-1.91297">
        <ele>92</ele>
        <time>2025-05-16T09:48:28Z</time>
      </trkpt>
      <trkpt lat="48.12587" lon="-1.9129">
        <ele>91</ele>
        <time>2025-05-16T09:48:29Z</time>
      </trkpt>
      <trkpt lat="48.12583" lon="-1.91283">
        <ele>92</ele>
        <time>2025-05-16T09:48:30Z</time>
      </trkpt>
      <trkpt lat="48.12579" lon="-1.91276">
        <ele>92</ele>
        <time>2025-05-16T09:48:31Z</time>
      </trkpt>
      <trkpt lat="48.12575" lon="-1.91269">
        <ele>92</ele>
        <time>2025-05-16T09:48:32Z</time>
      </trkpt>
      <trkpt lat="48.12572" lon="-1.91262">
        <ele>92</ele>
        <time>2025-05-16T09:48:33Z</time>
      </trkpt>
      <trkpt lat="48.12567" lon="-1.91254">
        <ele>91</ele>
        <time>2025-05-16T09:48:34Z</time>
      </trkpt>
      <trkpt lat="48.12562" lon="-1.91247">
        <ele>90</ele>
        <time>2025-05-16T09:48:35Z</time>
      </trkpt>
      <trkpt lat="48.12558" lon="-1.91239">
        <ele>89</ele>
        <time>2025-05-16T09:48:36Z</time>
      </trkpt>
      <trkpt lat="48.12553" lon="-1.91231">
        <ele>89</ele>
        <time>2025-05-16T09:48:37Z</time>
      </trkpt>
      <trkpt lat="48.12549" lon="-1.91222">
        <ele>89</ele>
        <time>2025-05-16T09:48:38Z</time>
      </trkpt>
      <trkpt lat="48.12544" lon="-1.91213">
        <ele>89</ele>
        <time>2025-05-16T09:48:39Z</time>
      </trkpt>
      <trkpt lat="48.12539" lon="-1.91205">
        <ele>88</ele>
        <time>2025-05-16T09:48:40Z</time>
      </trkpt>
      <trkpt lat="48.12535" lon="-1.91196">
        <ele>88</ele>
        <time>2025-05-16T09:48:41Z</time>
      </trkpt>
      <trkpt lat="48.1253" lon="-1.91186">
        <ele>88</ele>
        <time>2025-05-16T09:48:42Z</time>
      </trkpt>
      <trkpt lat="48.12527" lon="-1.91176">
        <ele>88</ele>
        <time>2025-05-16T09:48:43Z</time>
      </trkpt>
      <trkpt lat="48.12523" lon="-1.91167">
        <ele>87</ele>
        <time>2025-05-16T09:48:44Z</time>
      </trkpt>
      <trkpt lat="48.12519" lon="-1.91157">
        <ele>87</ele>
        <time>2025-05-16T09:48:45Z</time>
      </trkpt>
      <trkpt lat="48.12515" lon="-1.91148">
        <ele>87</ele>
        <time>2025-05-16T09:48:46Z</time>
      </trkpt>
      <trkpt lat="48.12511" lon="-1.9114">
        <ele>87</ele>
        <time>2025-05-16T09:48:47Z</time>
      </trkpt>
      <trkpt lat="48.12507" lon="-1.91132">
        <ele>86</ele>
        <time>2025-05-16T09:48:48Z</time>
      </trkpt>
      <trkpt lat="48.12503" lon="-1.91124">
        <ele>86</ele>
        <time>2025-05-16T09:48:49Z</time>
      </trkpt>
      <trkpt lat="48.12499" lon="-1.91115">
        <ele>86</ele>
        <time>2025-05-16T09:48:50Z</time>
      </trkpt>
      <trkpt lat="48.12496" lon="-1.91107">
        <ele>86</ele>
        <time>2025-05-16T09:48:51Z</time>
      </trkpt>
      <trkpt lat="48.12493" lon="-1.91099">
        <ele>86</ele>
        <time>2025-05-16T09:48:52Z</time>
      </trkpt>
      <trkpt lat="48.1249" lon="-1.91091">
        <ele>86</ele>
        <time>2025-05-16T09:48:53Z</time>
      </trkpt>
      <trkpt lat="48.12487" lon="-1.91083">
        <ele>86</ele>
        <time>2025-05-16T09:48:54Z</time>
      </trkpt>
      <trkpt lat="48.12485" lon="-1.91075">
        <ele>86</ele>
        <time>2025-05-16T09:48:55Z</time>
      </trkpt>
      <trkpt lat="48.12482" lon="-1.91067">
        <ele>86</ele>
        <time>2025-05-16T09:48:56Z</time>
      </trkpt>
      <trkpt lat="48.1248" lon="-1.9106">
        <ele>86</ele>
        <time>2025-05-16T09:48:57Z</time>
      </trkpt>
      <trkpt lat="48.12477" lon="-1.91052">
        <ele>86</ele>
        <time>2025-05-16T09:48:58Z</time>
      </trkpt>
      <trkpt lat="48.12474" lon="-1.91044">
        <ele>86</ele>
        <time>2025-05-16T09:48:59Z</time>
      </trkpt>
      <trkpt lat="48.12472" lon="-1.91037">
        <ele>86</ele>
        <time>2025-05-16T09:49:00Z</time>
      </trkpt>
      <trkpt lat="48.12471" lon="-1.9103">
        <ele>86</ele>
        <time>2025-05-16T09:49:01Z</time>
      </trkpt>
      <trkpt lat="48.12469" lon="-1.91023">
        <ele>86</ele>
        <time>2025-05-16T09:49:02Z</time>
      </trkpt>
      <trkpt lat="48.12467" lon="-1.91017">
        <ele>87</ele>
        <time>2025-05-16T09:49:03Z</time>
      </trkpt>
      <trkpt lat="48.12465" lon="-1.9101">
        <ele>87</ele>
        <time>2025-05-16T09:49:04Z</time>
      </trkpt>
      <trkpt lat="48.12463" lon="-1.91004">
        <ele>88</ele>
        <time>2025-05-16T09:49:05Z</time>
      </trkpt>
      <trkpt lat="48.12462" lon="-1.90998">
        <ele>88</ele>
        <time>2025-05-16T09:49:06Z</time>
      </trkpt>
      <trkpt lat="48.12461" lon="-1.90992">
        <ele>87</ele>
        <time>2025-05-16T09:49:07Z</time>
      </trkpt>
      <trkpt lat="48.1246" lon="-1.90986">
        <ele>87</ele>
        <time>2025-05-16T09:49:08Z</time>
      </trkpt>
      <trkpt lat="48.12459" lon="-1.9098">
        <ele>87</ele>
        <time>2025-05-16T09:49:09Z</time>
      </trkpt>
      <trkpt lat="48.12457" lon="-1.90974">
        <ele>87</ele>
        <time>2025-05-16T09:49:10Z</time>
      </trkpt>
      <trkpt lat="48.12456" lon="-1.90968">
        <ele>87</ele>
        <time>2025-05-16T09:49:11Z</time>
      </trkpt>
      <trkpt lat="48.12455" lon="-1.90962">
        <ele>87</ele>
        <time>2025-05-16T09:49:12Z</time>
      </trkpt>
      <trkpt lat="48.12454" lon="-1.90956">
        <ele>87</ele>
        <time>2025-05-16T09:49:13Z</time>
      </trkpt>
      <trkpt lat="48.12453" lon="-1.9095">
        <ele>86</ele>
        <time>2025-05-16T09:49:14Z</time>
      </trkpt>
      <trkpt lat="48.12452" lon="-1.90944">
        <ele>86</ele>
        <time>2025-05-16T09:49:15Z</time>
      </trkpt>
      <trkpt lat="48.12451" lon="-1.90938">
        <ele>86</ele>
        <time>2025-05-16T09:49:16Z</time>
      </trkpt>
      <trkpt lat="48.1245" lon="-1.90932">
        <ele>86</ele>
        <time>2025-05-16T09:49:17Z</time>
      </trkpt>
      <trkpt lat="48.12449" lon="-1.90926">
        <ele>86</ele>
        <time>2025-05-16T09:49:18Z</time>
      </trkpt>
      <trkpt lat="48.12448" lon="-1.9092">
        <ele>86</ele>
        <time>2025-05-16T09:49:19Z</time>
      </trkpt>
      <trkpt lat="48.12447" lon="-1.90914">
        <ele>86</ele>
        <time>2025-05-16T09:49:20Z</time>
      </trkpt>
      <trkpt lat="48.12447" lon="-1.90907">
        <ele>86</ele>
        <time>2025-05-16T09:49:21Z</time>
      </trkpt>
      <trkpt lat="48.12446" lon="-1.90901">
        <ele>86</ele>
        <time>2025-05-16T09:49:22Z</time>
      </trkpt>
      <trkpt lat="48.12446" lon="-1.90895">
        <ele>87</ele>
        <time>2025-05-16T09:49:23Z</time>
      </trkpt>
      <trkpt lat="48.12446" lon="-1.90889">
        <ele>87</ele>
        <time>2025-05-16T09:49:24Z</time>
      </trkpt>
      <trkpt lat="48.12446" lon="-1.90882">
        <ele>88</ele>
        <time>2025-05-16T09:49:25Z</time>
      </trkpt>
      <trkpt lat="48.12446" lon="-1.90876">
        <ele>88</ele>
        <time>2025-05-16T09:49:26Z</time>
      </trkpt>
      <trkpt lat="48.12446" lon="-1.9087">
        <ele>88</ele>
        <time>2025-05-16T09:49:27Z</time>
      </trkpt>
      <trkpt lat="48.12446" lon="-1.90863">
        <ele>88</ele>
        <time>2025-05-16T09:49:28Z</time>
      </trkpt>
      <trkpt lat="48.12445" lon="-1.90857">
        <ele>89</ele>
        <time>2025-05-16T09:49:29Z</time>
      </trkpt>
      <trkpt lat="48.12445" lon="-1.90851">
        <ele>89</ele>
        <time>2025-05-16T09:49:30Z</time>
      </trkpt>
      <trkpt lat="48.12445" lon="-1.90844">
        <ele>89</ele>
        <time>2025-05-16T09:49:31Z</time>
      </trkpt>
      <trkpt lat="48.12445" lon="-1.90838">
        <ele>89</ele>
        <time>2025-05-16T09:49:32Z</time>
      </trkpt>
      <trkpt lat="48.12445" lon="-1.90831">
        <ele>90</ele>
        <time>2025-05-16T09:49:33Z</time>
      </trkpt>
      <trkpt lat="48.12445" lon="-1.90825">
        <ele>90</ele>
        <time>2025-05-16T09:49:34Z</time>
      </trkpt>
      <trkpt lat="48.12446" lon="-1.90819">
        <ele>90</ele>
        <time>2025-05-16T09:49:35Z</time>
      </trkpt>
      <trkpt lat="48.12446" lon="-1.90813">
        <ele>90</ele>
        <time>2025-05-16T09:49:36Z</time>
      </trkpt>
      <trkpt lat="48.12446" lon="-1.90807">
        <ele>90</ele>
        <time>2025-05-16T09:49:37Z</time>
      </trkpt>
      <trkpt lat="48.12447" lon="-1.908">
        <ele>90</ele>
        <time>2025-05-16T09:49:38Z</time>
      </trkpt>
      <trkpt lat="48.12448" lon="-1.90794">
        <ele>90</ele>
        <time>2025-05-16T09:49:39Z</time>
      </trkpt>
      <trkpt lat="48.12449" lon="-1.90787">
        <ele>90</ele>
        <time>2025-05-16T09:49:40Z</time>
      </trkpt>
      <trkpt lat="48.1245" lon="-1.90781">
        <ele>90</ele>
        <time>2025-05-16T09:49:41Z</time>
      </trkpt>
      <trkpt lat="48.1245" lon="-1.90775">
        <ele>90</ele>
        <time>2025-05-16T09:49:42Z</time>
      </trkpt>
      <trkpt lat="48.12451" lon="-1.90769">
        <ele>90</ele>
        <time>2025-05-16T09:49:43Z</time>
      </trkpt>
      <trkpt lat="48.12452" lon="-1.90764">
        <ele>90</ele>
        <time>2025-05-16T09:49:44Z</time>
      </trkpt>
      <trkpt lat="48.12453" lon="-1.90758">
        <ele>89</ele>
        <time>2025-05-16T09:49:45Z</time>
      </trkpt>
      <trkpt lat="48.12455" lon="-1.90752">
        <ele>90</ele>
        <time>2025-05-16T09:49:46Z</time>
      </trkpt>
      <trkpt lat="48.12456" lon="-1.90746">
        <ele>90</ele>
        <time>2025-05-16T09:49:47Z</time>
      </trkpt>
      <trkpt lat="48.12458" lon="-1.9074">
        <ele>90</ele>
        <time>2025-05-16T09:49:48Z</time>
      </trkpt>
      <trkpt lat="48.12459" lon="-1.90734">
        <ele>89</ele>
        <time>2025-05-16T09:49:49Z</time>
      </trkpt>
      <trkpt lat="48.1246" lon="-1.90728">
        <ele>89</ele>
        <time>2025-05-16T09:49:50Z</time>
      </trkpt>
      <trkpt lat="48.12462" lon="-1.90722">
        <ele>89</ele>
        <time>2025-05-16T09:49:51Z</time>
      </trkpt>
      <trkpt lat="48.12464" lon="-1.90716">
        <ele>89</ele>
        <time>2025-05-16T09:49:52Z</time>
      </trkpt>
      <trkpt lat="48.12466" lon="-1.90711">
        <ele>89</ele>
        <time>2025-05-16T09:49:53Z</time>
      </trkpt>
      <trkpt lat="48.12468" lon="-1.90705">
        <ele>89</ele>
        <time>2025-05-16T09:49:54Z</time>
      </trkpt>
      <trkpt lat="48.1247" lon="-1.90699">
        <ele>88</ele>
        <time>2025-05-16T09:49:55Z</time>
      </trkpt>
      <trkpt lat="48.12472" lon="-1.90694">
        <ele>89</ele>
        <time>2025-05-16T09:49:56Z</time>
      </trkpt>
      <trkpt lat="48.12474" lon="-1.90688">
        <ele>89</ele>
        <time>2025-05-16T09:49:57Z</time>
      </trkpt>
      <trkpt lat="48.12476" lon="-1.90683">
        <ele>90</ele>
        <time>2025-05-16T09:49:58Z</time>
      </trkpt>
      <trkpt lat="48.12479" lon="-1.90677">
        <ele>90</ele>
        <time>2025-05-16T09:49:59Z</time>
      </trkpt>
      <trkpt lat="48.12481" lon="-1.90672">
        <ele>89</ele>
        <time>2025-05-16T09:50:00Z</time>
      </trkpt>
      <trkpt lat="48.12484" lon="-1.90667">
        <ele>90</ele>
        <time>2025-05-16T09:50:01Z</time>
      </trkpt>
      <trkpt lat="48.12487" lon="-1.90662">
        <ele>90</ele>
        <time>2025-05-16T09:50:02Z</time>
      </trkpt>
      <trkpt lat="48.1249" lon="-1.90657">
        <ele>89</ele>
        <time>2025-05-16T09:50:03Z</time>
      </trkpt>
      <trkpt lat="48.12492" lon="-1.90652">
        <ele>90</ele>
        <time>2025-05-16T09:50:04Z</time>
      </trkpt>
      <trkpt lat="48.12495" lon="-1.90647">
        <ele>90</ele>
        <time>2025-05-16T09:50:05Z</time>
      </trkpt>
      <trkpt lat="48.12497" lon="-1.90642">
        <ele>90</ele>
        <time>2025-05-16T09:50:06Z</time>
      </trkpt>
      <trkpt lat="48.125" lon="-1.90636">
        <ele>90</ele>
        <time>2025-05-16T09:50:07Z</time>
      </trkpt>
      <trkpt lat="48.12502" lon="-1.90631">
        <ele>90</ele>
        <time>2025-05-16T09:50:08Z</time>
      </trkpt>
      <trkpt lat="48.12504" lon="-1.90625">
        <ele>90</ele>
        <time>2025-05-16T09:50:09Z</time>
      </trkpt>
      <trkpt lat="48.12507" lon="-1.9062">
        <ele>90</ele>
        <time>2025-05-16T09:50:10Z</time>
      </trkpt>
      <trkpt lat="48.12509" lon="-1.90615">
        <ele>90</ele>
        <time>2025-05-16T09:50:11Z</time>
      </trkpt>
      <trkpt lat="48.12512" lon="-1.90609">
        <ele>90</ele>
        <time>2025-05-16T09:50:12Z</time>
      </trkpt>
      <trkpt lat="48.12514" lon="-1.90605">
        <ele>90</ele>
        <time>2025-05-16T09:50:13Z</time>
      </trkpt>
      <trkpt lat="48.12517" lon="-1.90601">
        <ele>90</ele>
        <time>2025-05-16T09:50:14Z</time>
      </trkpt>
      <trkpt lat="48.12519" lon="-1.90596">
        <ele>90</ele>
        <time>2025-05-16T09:50:15Z</time>
      </trkpt>
      <trkpt lat="48.12521" lon="-1.90591">
        <ele>89</ele>
        <time>2025-05-16T09:50:16Z</time>
      </trkpt>
      <trkpt lat="48.12523" lon="-1.90586">
        <ele>89</ele>
        <time>2025-05-16T09:50:17Z</time>
      </trkpt>
      <trkpt lat="48.12526" lon="-1.90581">
        <ele>89</ele>
        <time>2025-05-16T09:50:18Z</time>
      </trkpt>
      <trkpt lat="48.12527" lon="-1.90575">
        <ele>89</ele>
        <time>2025-05-16T09:50:19Z</time>
      </trkpt>
      <trkpt lat="48.12529" lon="-1.9057">
        <ele>90</ele>
        <time>2025-05-16T09:50:20Z</time>
      </trkpt>
      <trkpt lat="48.12531" lon="-1.90565">
        <ele>90</ele>
        <time>2025-05-16T09:50:21Z</time>
      </trkpt>
      <trkpt lat="48.12533" lon="-1.90559">
        <ele>90</ele>
        <time>2025-05-16T09:50:22Z</time>
      </trkpt>
      <trkpt lat="48.12535" lon="-1.90554">
        <ele>90</ele>
        <time>2025-05-16T09:50:23Z</time>
      </trkpt>
      <trkpt lat="48.12537" lon="-1.90549">
        <ele>90</ele>
        <time>2025-05-16T09:50:24Z</time>
      </trkpt>
      <trkpt lat="48.12538" lon="-1.90543">
        <ele>90</ele>
        <time>2025-05-16T09:50:25Z</time>
      </trkpt>
      <trkpt lat="48.1254" lon="-1.90538">
        <ele>90</ele>
        <time>2025-05-16T09:50:26Z</time>
      </trkpt>
      <trkpt lat="48.12541" lon="-1.90533">
        <ele>90</ele>
        <time>2025-05-16T09:50:27Z</time>
      </trkpt>
      <trkpt lat="48.12543" lon="-1.90528">
        <ele>90</ele>
        <time>2025-05-16T09:50:28Z</time>
      </trkpt>
      <trkpt lat="48.12544" lon="-1.90522">
        <ele>90</ele>
        <time>2025-05-16T09:50:29Z</time>
      </trkpt>
      <trkpt lat="48.12546" lon="-1.90516">
        <ele>90</ele>
        <time>2025-05-16T09:50:30Z</time>
      </trkpt>
      <trkpt lat="48.12548" lon="-1.90511">
        <ele>91</ele>
        <time>2025-05-16T09:50:31Z</time>
      </trkpt>
      <trkpt lat="48.12549" lon="-1.90505">
        <ele>91</ele>
        <time>2025-05-16T09:50:32Z</time>
      </trkpt>
      <trkpt lat="48.1255" lon="-1.905">
        <ele>91</ele>
        <time>2025-05-16T09:50:33Z</time>
      </trkpt>
      <trkpt lat="48.12551" lon="-1.90494">
        <ele>91</ele>
        <time>2025-05-16T09:50:34Z</time>
      </trkpt>
      <trkpt lat="48.12552" lon="-1.90488">
        <ele>91</ele>
        <time>2025-05-16T09:50:35Z</time>
      </trkpt>
      <trkpt lat="48.12553" lon="-1.90482">
        <ele>91</ele>
        <time>2025-05-16T09:50:36Z</time>
      </trkpt>
      <trkpt lat="48.12554" lon="-1.90476">
        <ele>91</ele>
        <time>2025-05-16T09:50:37Z</time>
      </trkpt>
      <trkpt lat="48.12555" lon="-1.90471">
        <ele>91</ele>
        <time>2025-05-16T09:50:38Z</time>
      </trkpt>
      <trkpt lat="48.12556" lon="-1.90465">
        <ele>92</ele>
        <time>2025-05-16T09:50:39Z</time>
      </trkpt>
      <trkpt lat="48.12557" lon="-1.90459">
        <ele>92</ele>
        <time>2025-05-16T09:50:40Z</time>
      </trkpt>
      <trkpt lat="48.12558" lon="-1.90453">
        <ele>92</ele>
        <time>2025-05-16T09:50:41Z</time>
      </trkpt>
      <trkpt lat="48.12559" lon="-1.90447">
        <ele>93</ele>
        <time>2025-05-16T09:50:42Z</time>
      </trkpt>
      <trkpt lat="48.12559" lon="-1.90441">
        <ele>92</ele>
        <time>2025-05-16T09:50:43Z</time>
      </trkpt>
      <trkpt lat="48.12559" lon="-1.90436">
        <ele>92</ele>
        <time>2025-05-16T09:50:44Z</time>
      </trkpt>
      <trkpt lat="48.12559" lon="-1.90429">
        <ele>92</ele>
        <time>2025-05-16T09:50:45Z</time>
      </trkpt>
      <trkpt lat="48.12559" lon="-1.90423">
        <ele>92</ele>
        <time>2025-05-16T09:50:46Z</time>
      </trkpt>
      <trkpt lat="48.12559" lon="-1.90417">
        <ele>91</ele>
        <time>2025-05-16T09:50:47Z</time>
      </trkpt>
      <trkpt lat="48.12559" lon="-1.90411">
        <ele>91</ele>
        <time>2025-05-16T09:50:48Z</time>
      </trkpt>
      <trkpt lat="48.12559" lon="-1.90405">
        <ele>91</ele>
        <time>2025-05-16T09:50:49Z</time>
      </trkpt>
      <trkpt lat="48.12559" lon="-1.90399">
        <ele>91</ele>
        <time>2025-05-16T09:50:50Z</time>
      </trkpt>
      <trkpt lat="48.12559" lon="-1.90393">
        <ele>91</ele>
        <time>2025-05-16T09:50:51Z</time>
      </trkpt>
      <trkpt lat="48.12558" lon="-1.90387">
        <ele>91</ele>
        <time>2025-05-16T09:50:52Z</time>
      </trkpt>
      <trkpt lat="48.12558" lon="-1.90381">
        <ele>91</ele>
        <time>2025-05-16T09:50:53Z</time>
      </trkpt>
      <trkpt lat="48.12557" lon="-1.90376">
        <ele>91</ele>
        <time>2025-05-16T09:50:54Z</time>
      </trkpt>
      <trkpt lat="48.12557" lon="-1.9037">
        <ele>90</ele>
        <time>2025-05-16T09:50:55Z</time>
      </trkpt>
      <trkpt lat="48.12556" lon="-1.90364">
        <ele>91</ele>
        <time>2025-05-16T09:50:56Z</time>
      </trkpt>
      <trkpt lat="48.12556" lon="-1.90358">
        <ele>90</ele>
        <time>2025-05-16T09:50:57Z</time>
      </trkpt>
      <trkpt lat="48.12554" lon="-1.90353">
        <ele>90</ele>
        <time>2025-05-16T09:50:58Z</time>
      </trkpt>
      <trkpt lat="48.12553" lon="-1.90347">
        <ele>90</ele>
        <time>2025-05-16T09:50:59Z</time>
      </trkpt>
      <trkpt lat="48.12553" lon="-1.90342">
        <ele>90</ele>
        <time>2025-05-16T09:51:00Z</time>
      </trkpt>
      <trkpt lat="48.12552" lon="-1.90337">
        <ele>90</ele>
        <time>2025-05-16T09:51:01Z</time>
      </trkpt>
      <trkpt lat="48.12551" lon="-1.90332">
        <ele>90</ele>
        <time>2025-05-16T09:51:02Z</time>
      </trkpt>
      <trkpt lat="48.12549" lon="-1.90327">
        <ele>90</ele>
        <time>2025-05-16T09:51:03Z</time>
      </trkpt>
      <trkpt lat="48.12548" lon="-1.90322">
        <ele>90</ele>
        <time>2025-05-16T09:51:04Z</time>
      </trkpt>
      <trkpt lat="48.12547" lon="-1.90318">
        <ele>90</ele>
        <time>2025-05-16T09:51:05Z</time>
      </trkpt>
      <trkpt lat="48.12546" lon="-1.90313">
        <ele>90</ele>
        <time>2025-05-16T09:51:06Z</time>
      </trkpt>
      <trkpt lat="48.12545" lon="-1.90308">
        <ele>90</ele>
        <time>2025-05-16T09:51:07Z</time>
      </trkpt>
      <trkpt lat="48.12543" lon="-1.90303">
        <ele>90</ele>
        <time>2025-05-16T09:51:08Z</time>
      </trkpt>
      <trkpt lat="48.12541" lon="-1.90299">
        <ele>90</ele>
        <time>2025-05-16T09:51:09Z</time>
      </trkpt>
      <trkpt lat="48.1254" lon="-1.90294">
        <ele>90</ele>
        <time>2025-05-16T09:51:10Z</time>
      </trkpt>
      <trkpt lat="48.12538" lon="-1.90289">
        <ele>90</ele>
        <time>2025-05-16T09:51:11Z</time>
      </trkpt>
      <trkpt lat="48.12537" lon="-1.90285">
        <ele>90</ele>
        <time>2025-05-16T09:51:12Z</time>
      </trkpt>
      <trkpt lat="48.12535" lon="-1.90281">
        <ele>90</ele>
        <time>2025-05-16T09:51:13Z</time>
      </trkpt>
      <trkpt lat="48.12533" lon="-1.90276">
        <ele>90</ele>
        <time>2025-05-16T09:51:14Z</time>
      </trkpt>
      <trkpt lat="48.12531" lon="-1.90272">
        <ele>90</ele>
        <time>2025-05-16T09:51:15Z</time>
      </trkpt>
      <trkpt lat="48.12529" lon="-1.90267">
        <ele>90</ele>
        <time>2025-05-16T09:51:16Z</time>
      </trkpt>
      <trkpt lat="48.12527" lon="-1.90263">
        <ele>90</ele>
        <time>2025-05-16T09:51:17Z</time>
      </trkpt>
      <trkpt lat="48.12526" lon="-1.90259">
        <ele>90</ele>
        <time>2025-05-16T09:51:18Z</time>
      </trkpt>
      <trkpt lat="48.12523" lon="-1.90254">
        <ele>91</ele>
        <time>2025-05-16T09:51:19Z</time>
      </trkpt>
      <trkpt lat="48.12521" lon="-1.90249">
        <ele>91</ele>
        <time>2025-05-16T09:51:20Z</time>
      </trkpt>
      <trkpt lat="48.12519" lon="-1.90245">
        <ele>91</ele>
        <time>2025-05-16T09:51:21Z</time>
      </trkpt>
      <trkpt lat="48.12518" lon="-1.90241">
        <ele>91</ele>
        <time>2025-05-16T09:51:22Z</time>
      </trkpt>
      <trkpt lat="48.12516" lon="-1.90236">
        <ele>91</ele>
        <time>2025-05-16T09:51:23Z</time>
      </trkpt>
      <trkpt lat="48.12514" lon="-1.90232">
        <ele>91</ele>
        <time>2025-05-16T09:51:24Z</time>
      </trkpt>
      <trkpt lat="48.12512" lon="-1.90227">
        <ele>91</ele>
        <time>2025-05-16T09:51:25Z</time>
      </trkpt>
      <trkpt lat="48.1251" lon="-1.90223">
        <ele>91</ele>
        <time>2025-05-16T09:51:26Z</time>
      </trkpt>
      <trkpt lat="48.12508" lon="-1.90219">
        <ele>91</ele>
        <time>2025-05-16T09:51:27Z</time>
      </trkpt>
      <trkpt lat="48.12506" lon="-1.90214">
        <ele>91</ele>
        <time>2025-05-16T09:51:28Z</time>
      </trkpt>
      <trkpt lat="48.12504" lon="-1.9021">
        <ele>91</ele>
        <time>2025-05-16T09:51:29Z</time>
      </trkpt>
      <trkpt lat="48.12502" lon="-1.90205">
        <ele>92</ele>
        <time>2025-05-16T09:51:30Z</time>
      </trkpt>
      <trkpt lat="48.125" lon="-1.90201">
        <ele>92</ele>
        <time>2025-05-16T09:51:31Z</time>
      </trkpt>
      <trkpt lat="48.12499" lon="-1.90196">
        <ele>92</ele>
        <time>2025-05-16T09:51:32Z</time>
      </trkpt>
      <trkpt lat="48.12497" lon="-1.90192">
        <ele>92</ele>
        <time>2025-05-16T09:51:33Z</time>
      </trkpt>
      <trkpt lat="48.12495" lon="-1.90188">
        <ele>93</ele>
        <time>2025-05-16T09:51:34Z</time>
      </trkpt>
      <trkpt lat="48.12494" lon="-1.90183">
        <ele>93</ele>
        <time>2025-05-16T09:51:35Z</time>
      </trkpt>
      <trkpt lat="48.12492" lon="-1.90179">
        <ele>93</ele>
        <time>2025-05-16T09:51:36Z</time>
      </trkpt>
      <trkpt lat="48.1249" lon="-1.90175">
        <ele>94</ele>
        <time>2025-05-16T09:51:37Z</time>
      </trkpt>
      <trkpt lat="48.12489" lon="-1.90171">
        <ele>94</ele>
        <time>2025-05-16T09:51:38Z</time>
      </trkpt>
      <trkpt lat="48.12487" lon="-1.90166">
        <ele>94</ele>
        <time>2025-05-16T09:51:39Z</time>
      </trkpt>
      <trkpt lat="48.12485" lon="-1.90162">
        <ele>94</ele>
        <time>2025-05-16T09:51:40Z</time>
      </trkpt>
      <trkpt lat="48.12483" lon="-1.90158">
        <ele>94</ele>
        <time>2025-05-16T09:51:41Z</time>
      </trkpt>
      <trkpt lat="48.12481" lon="-1.90153">
        <ele>94</ele>
        <time>2025-05-16T09:51:42Z</time>
      </trkpt>
      <trkpt lat="48.12479" lon="-1.90149">
        <ele>94</ele>
        <time>2025-05-16T09:51:43Z</time>
      </trkpt>
      <trkpt lat="48.12477" lon="-1.90145">
        <ele>94</ele>
        <time>2025-05-16T09:51:44Z</time>
      </trkpt>
      <trkpt lat="48.12476" lon="-1.9014">
        <ele>94</ele>
        <time>2025-05-16T09:51:45Z</time>
      </trkpt>
      <trkpt lat="48.12474" lon="-1.90136">
        <ele>94</ele>
        <time>2025-05-16T09:51:46Z</time>
      </trkpt>
      <trkpt lat="48.12472" lon="-1.90132">
        <ele>95</ele>
        <time>2025-05-16T09:51:47Z</time>
      </trkpt>
      <trkpt lat="48.1247" lon="-1.90128">
        <ele>94</ele>
        <time>2025-05-16T09:51:48Z</time>
      </trkpt>
      <trkpt lat="48.12468" lon="-1.90123">
        <ele>94</ele>
        <time>2025-05-16T09:51:49Z</time>
      </trkpt>
      <trkpt lat="48.12467" lon="-1.90118">
        <ele>94</ele>
        <time>2025-05-16T09:51:50Z</time>
      </trkpt>
      <trkpt lat="48.12465" lon="-1.90114">
        <ele>94</ele>
        <time>2025-05-16T09:51:51Z</time>
      </trkpt>
      <trkpt lat="48.12463" lon="-1.90109">
        <ele>95</ele>
        <time>2025-05-16T09:51:52Z</time>
      </trkpt>
      <trkpt lat="48.12461" lon="-1.90105">
        <ele>95</ele>
        <time>2025-05-16T09:51:53Z</time>
      </trkpt>
      <trkpt lat="48.12459" lon="-1.90101">
        <ele>94</ele>
        <time>2025-05-16T09:51:54Z</time>
      </trkpt>
      <trkpt lat="48.12457" lon="-1.90096">
        <ele>94</ele>
        <time>2025-05-16T09:51:55Z</time>
      </trkpt>
      <trkpt lat="48.12456" lon="-1.90092">
        <ele>95</ele>
        <time>2025-05-16T09:51:56Z</time>
      </trkpt>
      <trkpt lat="48.12454" lon="-1.90088">
        <ele>95</ele>
        <time>2025-05-16T09:51:57Z</time>
      </trkpt>
      <trkpt lat="48.12452" lon="-1.90084">
        <ele>95</ele>
        <time>2025-05-16T09:51:58Z</time>
      </trkpt>
      <trkpt lat="48.1245" lon="-1.90079">
        <ele>95</ele>
        <time>2025-05-16T09:51:59Z</time>
      </trkpt>
      <trkpt lat="48.12448" lon="-1.90075">
        <ele>95</ele>
        <time>2025-05-16T09:52:00Z</time>
      </trkpt>
      <trkpt lat="48.12447" lon="-1.90071">
        <ele>95</ele>
        <time>2025-05-16T09:52:01Z</time>
      </trkpt>
      <trkpt lat="48.12445" lon="-1.90066">
        <ele>95</ele>
        <time>2025-05-16T09:52:02Z</time>
      </trkpt>
      <trkpt lat="48.12443" lon="-1.90062">
        <ele>95</ele>
        <time>2025-05-16T09:52:03Z</time>
      </trkpt>
      <trkpt lat="48.12441" lon="-1.90058">
        <ele>95</ele>
        <time>2025-05-16T09:52:04Z</time>
      </trkpt>
      <trkpt lat="48.12439" lon="-1.90053">
        <ele>95</ele>
        <time>2025-05-16T09:52:05Z</time>
      </trkpt>
      <trkpt lat="48.12437" lon="-1.90049">
        <ele>96</ele>
        <time>2025-05-16T09:52:06Z</time>
      </trkpt>
      <trkpt lat="48.12435" lon="-1.90045">
        <ele>96</ele>
        <time>2025-05-16T09:52:07Z</time>
      </trkpt>
      <trkpt lat="48.12433" lon="-1.90041">
        <ele>96</ele>
        <time>2025-05-16T09:52:08Z</time>
      </trkpt>
      <trkpt lat="48.12431" lon="-1.90036">
        <ele>96</ele>
        <time>2025-05-16T09:52:09Z</time>
      </trkpt>
      <trkpt lat="48.12429" lon="-1.90032">
        <ele>96</ele>
        <time>2025-05-16T09:52:10Z</time>
      </trkpt>
      <trkpt lat="48.12427" lon="-1.90028">
        <ele>96</ele>
        <time>2025-05-16T09:52:11Z</time>
      </trkpt>
      <trkpt lat="48.12426" lon="-1.90023">
        <ele>96</ele>
        <time>2025-05-16T09:52:12Z</time>
      </trkpt>
      <trkpt lat="48.12424" lon="-1.90018">
        <ele>96</ele>
        <time>2025-05-16T09:52:13Z</time>
      </trkpt>
      <trkpt lat="48.12423" lon="-1.90014">
        <ele>95</ele>
        <time>2025-05-16T09:52:14Z</time>
      </trkpt>
      <trkpt lat="48.12421" lon="-1.9001">
        <ele>96</ele>
        <time>2025-05-16T09:52:15Z</time>
      </trkpt>
      <trkpt lat="48.12419" lon="-1.90006">
        <ele>96</ele>
        <time>2025-05-16T09:52:16Z</time>
      </trkpt>
      <trkpt lat="48.12417" lon="-1.90002">
        <ele>96</ele>
        <time>2025-05-16T09:52:17Z</time>
      </trkpt>
      <trkpt lat="48.12415" lon="-1.89998">
        <ele>96</ele>
        <time>2025-05-16T09:52:18Z</time>
      </trkpt>
      <trkpt lat="48.12414" lon="-1.89993">
        <ele>96</ele>
        <time>2025-05-16T09:52:19Z</time>
      </trkpt>
      <trkpt lat="48.12411" lon="-1.89989">
        <ele>96</ele>
        <time>2025-05-16T09:52:20Z</time>
      </trkpt>
      <trkpt lat="48.12409" lon="-1.89985">
        <ele>96</ele>
        <time>2025-05-16T09:52:21Z</time>
      </trkpt>
      <trkpt lat="48.12408" lon="-1.8998">
        <ele>96</ele>
        <time>2025-05-16T09:52:22Z</time>
      </trkpt>
      <trkpt lat="48.12406" lon="-1.89976">
        <ele>96</ele>
        <time>2025-05-16T09:52:23Z</time>
      </trkpt>
      <trkpt lat="48.12404" lon="-1.89971">
        <ele>96</ele>
        <time>2025-05-16T09:52:24Z</time>
      </trkpt>
      <trkpt lat="48.12402" lon="-1.89967">
        <ele>96</ele>
        <time>2025-05-16T09:52:25Z</time>
      </trkpt>
      <trkpt lat="48.124" lon="-1.89963">
        <ele>96</ele>
        <time>2025-05-16T09:52:26Z</time>
      </trkpt>
      <trkpt lat="48.12398" lon="-1.89959">
        <ele>96</ele>
        <time>2025-05-16T09:52:27Z</time>
      </trkpt>
      <trkpt lat="48.12397" lon="-1.89954">
        <ele>96</ele>
        <time>2025-05-16T09:52:28Z</time>
      </trkpt>
      <trkpt lat="48.12395" lon="-1.8995">
        <ele>97</ele>
        <time>2025-05-16T09:52:29Z</time>
      </trkpt>
      <trkpt lat="48.12393" lon="-1.89946">
        <ele>97</ele>
        <time>2025-05-16T09:52:30Z</time>
      </trkpt>
      <trkpt lat="48.12392" lon="-1.89942">
        <ele>97</ele>
        <time>2025-05-16T09:52:31Z</time>
      </trkpt>
      <trkpt lat="48.1239" lon="-1.89938">
        <ele>97</ele>
        <time>2025-05-16T09:52:32Z</time>
      </trkpt>
      <trkpt lat="48.12389" lon="-1.89934">
        <ele>97</ele>
        <time>2025-05-16T09:52:33Z</time>
      </trkpt>
      <trkpt lat="48.12387" lon="-1.89929">
        <ele>98</ele>
        <time>2025-05-16T09:52:34Z</time>
      </trkpt>
      <trkpt lat="48.12385" lon="-1.89925">
        <ele>98</ele>
        <time>2025-05-16T09:52:35Z</time>
      </trkpt>
      <trkpt lat="48.12384" lon="-1.8992">
        <ele>98</ele>
        <time>2025-05-16T09:52:36Z</time>
      </trkpt>
      <trkpt lat="48.12383" lon="-1.89916">
        <ele>98</ele>
        <time>2025-05-16T09:52:37Z</time>
      </trkpt>
      <trkpt lat="48.12382" lon="-1.89911">
        <ele>98</ele>
        <time>2025-05-16T09:52:38Z</time>
      </trkpt>
      <trkpt lat="48.12381" lon="-1.89907">
        <ele>98</ele>
        <time>2025-05-16T09:52:39Z</time>
      </trkpt>
      <trkpt lat="48.1238" lon="-1.89902">
        <ele>98</ele>
        <time>2025-05-16T09:52:40Z</time>
      </trkpt>
      <trkpt lat="48.12379" lon="-1.89897">
        <ele>98</ele>
        <time>2025-05-16T09:52:41Z</time>
      </trkpt>
      <trkpt lat="48.12378" lon="-1.89892">
        <ele>97</ele>
        <time>2025-05-16T09:52:42Z</time>
      </trkpt>
      <trkpt lat="48.12377" lon="-1.89888">
        <ele>97</ele>
        <time>2025-05-16T09:52:43Z</time>
      </trkpt>
      <trkpt lat="48.12376" lon="-1.89883">
        <ele>97</ele>
        <time>2025-05-16T09:52:44Z</time>
      </trkpt>
      <trkpt lat="48.12375" lon="-1.89878">
        <ele>97</ele>
        <time>2025-05-16T09:52:45Z</time>
      </trkpt>
      <trkpt lat="48.12375" lon="-1.89873">
        <ele>97</ele>
        <time>2025-05-16T09:52:46Z</time>
      </trkpt>
      <trkpt lat="48.12374" lon="-1.89867">
        <ele>97</ele>
        <time>2025-05-16T09:52:47Z</time>
      </trkpt>
      <trkpt lat="48.12373" lon="-1.89862">
        <ele>97</ele>
        <time>2025-05-16T09:52:48Z</time>
      </trkpt>
      <trkpt lat="48.12373" lon="-1.89857">
        <ele>97</ele>
        <time>2025-05-16T09:52:49Z</time>
      </trkpt>
      <trkpt lat="48.12372" lon="-1.89852">
        <ele>98</ele>
        <time>2025-05-16T09:52:50Z</time>
      </trkpt>
      <trkpt lat="48.12372" lon="-1.89847">
        <ele>98</ele>
        <time>2025-05-16T09:52:51Z</time>
      </trkpt>
      <trkpt lat="48.12372" lon="-1.89842">
        <ele>98</ele>
        <time>2025-05-16T09:52:52Z</time>
      </trkpt>
      <trkpt lat="48.12372" lon="-1.89837">
        <ele>98</ele>
        <time>2025-05-16T09:52:53Z</time>
      </trkpt>
      <trkpt lat="48.12371" lon="-1.89832">
        <ele>99</ele>
        <time>2025-05-16T09:52:54Z</time>
      </trkpt>
      <trkpt lat="48.12371" lon="-1.89827">
        <ele>99</ele>
        <time>2025-05-16T09:52:55Z</time>
      </trkpt>
      <trkpt lat="48.1237" lon="-1.89822">
        <ele>99</ele>
        <time>2025-05-16T09:52:56Z</time>
      </trkpt>
      <trkpt lat="48.1237" lon="-1.89817">
        <ele>99</ele>
        <time>2025-05-16T09:52:57Z</time>
      </trkpt>
      <trkpt lat="48.1237" lon="-1.89812">
        <ele>99</ele>
        <time>2025-05-16T09:52:58Z</time>
      </trkpt>
      <trkpt lat="48.12369" lon="-1.89807">
        <ele>99</ele>
        <time>2025-05-16T09:52:59Z</time>
      </trkpt>
      <trkpt lat="48.12369" lon="-1.89802">
        <ele>99</ele>
        <time>2025-05-16T09:53:00Z</time>
      </trkpt>
      <trkpt lat="48.12369" lon="-1.89797">
        <ele>99</ele>
        <time>2025-05-16T09:53:01Z</time>
      </trkpt>
      <trkpt lat="48.12369" lon="-1.89793">
        <ele>99</ele>
        <time>2025-05-16T09:53:02Z</time>
      </trkpt>
      <trkpt lat="48.12368" lon="-1.89788">
        <ele>99</ele>
        <time>2025-05-16T09:53:03Z</time>
      </trkpt>
      <trkpt lat="48.12368" lon="-1.89783">
        <ele>99</ele>
        <time>2025-05-16T09:53:04Z</time>
      </trkpt>
      <trkpt lat="48.12368" lon="-1.89778">
        <ele>99</ele>
        <time>2025-05-16T09:53:05Z</time>
      </trkpt>
      <trkpt lat="48.12368" lon="-1.89773">
        <ele>99</ele>
        <time>2025-05-16T09:53:06Z</time>
      </trkpt>
      <trkpt lat="48.12368" lon="-1.89768">
        <ele>99</ele>
        <time>2025-05-16T09:53:07Z</time>
      </trkpt>
      <trkpt lat="48.12367" lon="-1.89763">
        <ele>99</ele>
        <time>2025-05-16T09:53:08Z</time>
      </trkpt>
      <trkpt lat="48.12367" lon="-1.89758">
        <ele>99</ele>
        <time>2025-05-16T09:53:09Z</time>
      </trkpt>
      <trkpt lat="48.12366" lon="-1.89753">
        <ele>99</ele>
        <time>2025-05-16T09:53:10Z</time>
      </trkpt>
      <trkpt lat="48.12366" lon="-1.89748">
        <ele>100</ele>
        <time>2025-05-16T09:53:11Z</time>
      </trkpt>
      <trkpt lat="48.12365" lon="-1.89743">
        <ele>100</ele>
        <time>2025-05-16T09:53:12Z</time>
      </trkpt>
      <trkpt lat="48.12365" lon="-1.89738">
        <ele>100</ele>
        <time>2025-05-16T09:53:13Z</time>
      </trkpt>
      <trkpt lat="48.12364" lon="-1.89733">
        <ele>99</ele>
        <time>2025-05-16T09:53:14Z</time>
      </trkpt>
      <trkpt lat="48.12364" lon="-1.89728">
        <ele>100</ele>
        <time>2025-05-16T09:53:15Z</time>
      </trkpt>
      <trkpt lat="48.12364" lon="-1.89724">
        <ele>100</ele>
        <time>2025-05-16T09:53:16Z</time>
      </trkpt>
      <trkpt lat="48.12363" lon="-1.89719">
        <ele>100</ele>
        <time>2025-05-16T09:53:17Z</time>
      </trkpt>
      <trkpt lat="48.12363" lon="-1.89714">
        <ele>100</ele>
        <time>2025-05-16T09:53:18Z</time>
      </trkpt>
      <trkpt lat="48.12363" lon="-1.89709">
        <ele>100</ele>
        <time>2025-05-16T09:53:19Z</time>
      </trkpt>
      <trkpt lat="48.12362" lon="-1.89704">
        <ele>100</ele>
        <time>2025-05-16T09:53:20Z</time>
      </trkpt>
      <trkpt lat="48.12362" lon="-1.89699">
        <ele>100</ele>
        <time>2025-05-16T09:53:21Z</time>
      </trkpt>
      <trkpt lat="48.12361" lon="-1.89693">
        <ele>101</ele>
        <time>2025-05-16T09:53:22Z</time>
      </trkpt>
      <trkpt lat="48.1236" lon="-1.89688">
        <ele>101</ele>
        <time>2025-05-16T09:53:23Z</time>
      </trkpt>
      <trkpt lat="48.1236" lon="-1.89683">
        <ele>101</ele>
        <time>2025-05-16T09:53:24Z</time>
      </trkpt>
      <trkpt lat="48.1236" lon="-1.89678">
        <ele>101</ele>
        <time>2025-05-16T09:53:25Z</time>
      </trkpt>
      <trkpt lat="48.1236" lon="-1.89673">
        <ele>101</ele>
        <time>2025-05-16T09:53:26Z</time>
      </trkpt>
      <trkpt lat="48.12359" lon="-1.89668">
        <ele>102</ele>
        <time>2025-05-16T09:53:27Z</time>
      </trkpt>
      <trkpt lat="48.12359" lon="-1.89663">
        <ele>102</ele>
        <time>2025-05-16T09:53:28Z</time>
      </trkpt>
      <trkpt lat="48.12358" lon="-1.89659">
        <ele>102</ele>
        <time>2025-05-16T09:53:29Z</time>
      </trkpt>
      <trkpt lat="48.12358" lon="-1.89654">
        <ele>102</ele>
        <time>2025-05-16T09:53:30Z</time>
      </trkpt>
      <trkpt lat="48.12358" lon="-1.89649">
        <ele>102</ele>
        <time>2025-05-16T09:53:31Z</time>
      </trkpt>
      <trkpt lat="48.12357" lon="-1.89644">
        <ele>102</ele>
        <time>2025-05-16T09:53:32Z</time>
      </trkpt>
      <trkpt lat="48.12357" lon="-1.89639">
        <ele>102</ele>
        <time>2025-05-16T09:53:33Z</time>
      </trkpt>
      <trkpt lat="48.12357" lon="-1.89634">
        <ele>102</ele>
        <time>2025-05-16T09:53:34Z</time>
      </trkpt>
      <trkpt lat="48.12357" lon="-1.89629">
        <ele>102</ele>
        <time>2025-05-16T09:53:35Z</time>
      </trkpt>
      <trkpt lat="48.12356" lon="-1.89624">
        <ele>102</ele>
        <time>2025-05-16T09:53:36Z</time>
      </trkpt>
      <trkpt lat="48.12356" lon="-1.89619">
        <ele>102</ele>
        <time>2025-05-16T09:53:37Z</time>
      </trkpt>
      <trkpt lat="48.12356" lon="-1.89615">
        <ele>102</ele>
        <time>2025-05-16T09:53:38Z</time>
      </trkpt>
      <trkpt lat="48.12355" lon="-1.8961">
        <ele>102</ele>
        <time>2025-05-16T09:53:39Z</time>
      </trkpt>
      <trkpt lat="48.12355" lon="-1.89605">
        <ele>102</ele>
        <time>2025-05-16T09:53:40Z</time>
      </trkpt>
      <trkpt lat="48.12354" lon="-1.896">
        <ele>102</ele>
        <time>2025-05-16T09:53:41Z</time>
      </trkpt>
      <trkpt lat="48.12354" lon="-1.89595">
        <ele>102</ele>
        <time>2025-05-16T09:53:42Z</time>
      </trkpt>
      <trkpt lat="48.12354" lon="-1.8959">
        <ele>103</ele>
        <time>2025-05-16T09:53:43Z</time>
      </trkpt>
      <trkpt lat="48.12353" lon="-1.89585">
        <ele>103</ele>
        <time>2025-05-16T09:53:44Z</time>
      </trkpt>
      <trkpt lat="48.12353" lon="-1.89581">
        <ele>103</ele>
        <time>2025-05-16T09:53:45Z</time>
      </trkpt>
      <trkpt lat="48.12353" lon="-1.89576">
        <ele>103</ele>
        <time>2025-05-16T09:53:46Z</time>
      </trkpt>
      <trkpt lat="48.12353" lon="-1.89571">
        <ele>103</ele>
        <time>2025-05-16T09:53:47Z</time>
      </trkpt>
      <trkpt lat="48.12352" lon="-1.89566">
        <ele>104</ele>
        <time>2025-05-16T09:53:48Z</time>
      </trkpt>
      <trkpt lat="48.12352" lon="-1.89561">
        <ele>104</ele>
        <time>2025-05-16T09:53:49Z</time>
      </trkpt>
      <trkpt lat="48.12351" lon="-1.89556">
        <ele>104</ele>
        <time>2025-05-16T09:53:50Z</time>
      </trkpt>
      <trkpt lat="48.12351" lon="-1.89552">
        <ele>104</ele>
        <time>2025-05-16T09:53:51Z</time>
      </trkpt>
      <trkpt lat="48.1235" lon="-1.89547">
        <ele>104</ele>
        <time>2025-05-16T09:53:52Z</time>
      </trkpt>
      <trkpt lat="48.1235" lon="-1.89542">
        <ele>104</ele>
        <time>2025-05-16T09:53:53Z</time>
      </trkpt>
      <trkpt lat="48.12349" lon="-1.89537">
        <ele>104</ele>
        <time>2025-05-16T09:53:54Z</time>
      </trkpt>
      <trkpt lat="48.12349" lon="-1.89532">
        <ele>104</ele>
        <time>2025-05-16T09:53:55Z</time>
      </trkpt>
      <trkpt lat="48.12348" lon="-1.89528">
        <ele>104</ele>
        <time>2025-05-16T09:53:56Z</time>
      </trkpt>
      <trkpt lat="48.12347" lon="-1.89523">
        <ele>104</ele>
        <time>2025-05-16T09:53:57Z</time>
      </trkpt>
      <trkpt lat="48.12346" lon="-1.89518">
        <ele>105</ele>
        <time>2025-05-16T09:53:58Z</time>
      </trkpt>
      <trkpt lat="48.12346" lon="-1.89514">
        <ele>104</ele>
        <time>2025-05-16T09:53:59Z</time>
      </trkpt>
      <trkpt lat="48.12345" lon="-1.89509">
        <ele>104</ele>
        <time>2025-05-16T09:54:00Z</time>
      </trkpt>
      <trkpt lat="48.12344" lon="-1.89505">
        <ele>104</ele>
        <time>2025-05-16T09:54:01Z</time>
      </trkpt>
      <trkpt lat="48.12343" lon="-1.895">
        <ele>104</ele>
        <time>2025-05-16T09:54:02Z</time>
      </trkpt>
      <trkpt lat="48.12342" lon="-1.89495">
        <ele>104</ele>
        <time>2025-05-16T09:54:03Z</time>
      </trkpt>
      <trkpt lat="48.12342" lon="-1.89491">
        <ele>104</ele>
        <time>2025-05-16T09:54:04Z</time>
      </trkpt>
      <trkpt lat="48.12341" lon="-1.89487">
        <ele>105</ele>
        <time>2025-05-16T09:54:05Z</time>
      </trkpt>
      <trkpt lat="48.1234" lon="-1.89482">
        <ele>105</ele>
        <time>2025-05-16T09:54:06Z</time>
      </trkpt>
      <trkpt lat="48.12339" lon="-1.89478">
        <ele>105</ele>
        <time>2025-05-16T09:54:07Z</time>
      </trkpt>
      <trkpt lat="48.12338" lon="-1.89474">
        <ele>105</ele>
        <time>2025-05-16T09:54:08Z</time>
      </trkpt>
      <trkpt lat="48.12337" lon="-1.89469">
        <ele>105</ele>
        <time>2025-05-16T09:54:09Z</time>
      </trkpt>
      <trkpt lat="48.12336" lon="-1.89465">
        <ele>106</ele>
        <time>2025-05-16T09:54:10Z</time>
      </trkpt>
      <trkpt lat="48.12335" lon="-1.89461">
        <ele>105</ele>
        <time>2025-05-16T09:54:11Z</time>
      </trkpt>
      <trkpt lat="48.12334" lon="-1.89457">
        <ele>105</ele>
        <time>2025-05-16T09:54:12Z</time>
      </trkpt>
      <trkpt lat="48.12333" lon="-1.89453">
        <ele>105</ele>
        <time>2025-05-16T09:54:13Z</time>
      </trkpt>
      <trkpt lat="48.12332" lon="-1.89449">
        <ele>106</ele>
        <time>2025-05-16T09:54:14Z</time>
      </trkpt>
      <trkpt lat="48.12331" lon="-1.89445">
        <ele>106</ele>
        <time>2025-05-16T09:54:15Z</time>
      </trkpt>
      <trkpt lat="48.1233" lon="-1.8944">
        <ele>106</ele>
        <time>2025-05-16T09:54:16Z</time>
      </trkpt>
      <trkpt lat="48.12329" lon="-1.89436">
        <ele>106</ele>
        <time>2025-05-16T09:54:17Z</time>
      </trkpt>
      <trkpt lat="48.12329" lon="-1.89432">
        <ele>106</ele>
        <time>2025-05-16T09:54:18Z</time>
      </trkpt>
      <trkpt lat="48.12328" lon="-1.89428">
        <ele>106</ele>
        <time>2025-05-16T09:54:19Z</time>
      </trkpt>
      <trkpt lat="48.12327" lon="-1.89424">
        <ele>106</ele>
        <time>2025-05-16T09:54:20Z</time>
      </trkpt>
      <trkpt lat="48.12327" lon="-1.8942">
        <ele>106</ele>
        <time>2025-05-16T09:54:21Z</time>
      </trkpt>
      <trkpt lat="48.12326" lon="-1.89416">
        <ele>106</ele>
        <time>2025-05-16T09:54:22Z</time>
      </trkpt>
      <trkpt lat="48.12325" lon="-1.89412">
        <ele>106</ele>
        <time>2025-05-16T09:54:23Z</time>
      </trkpt>
      <trkpt lat="48.12325" lon="-1.89408">
        <ele>106</ele>
        <time>2025-05-16T09:54:24Z</time>
      </trkpt>
      <trkpt lat="48.12324" lon="-1.89403">
        <ele>106</ele>
        <time>2025-05-16T09:54:25Z</time>
      </trkpt>
      <trkpt lat="48.12324" lon="-1.89399">
        <ele>106</ele>
        <time>2025-05-16T09:54:26Z</time>
      </trkpt>
      <trkpt lat="48.12324" lon="-1.89394">
        <ele>106</ele>
        <time>2025-05-16T09:54:27Z</time>
      </trkpt>
      <trkpt lat="48.12324" lon="-1.8939">
        <ele>106</ele>
        <time>2025-05-16T09:54:28Z</time>
      </trkpt>
      <trkpt lat="48.12324" lon="-1.89385">
        <ele>106</ele>
        <time>2025-05-16T09:54:29Z</time>
      </trkpt>
      <trkpt lat="48.12323" lon="-1.8938">
        <ele>106</ele>
        <time>2025-05-16T09:54:30Z</time>
      </trkpt>
      <trkpt lat="48.12323" lon="-1.89375">
        <ele>106</ele>
        <time>2025-05-16T09:54:31Z</time>
      </trkpt>
      <trkpt lat="48.12322" lon="-1.89369">
        <ele>106</ele>
        <time>2025-05-16T09:54:32Z</time>
      </trkpt>
      <trkpt lat="48.12322" lon="-1.89364">
        <ele>106</ele>
        <time>2025-05-16T09:54:33Z</time>
      </trkpt>
      <trkpt lat="48.12322" lon="-1.89358">
        <ele>106</ele>
        <time>2025-05-16T09:54:34Z</time>
      </trkpt>
      <trkpt lat="48.12322" lon="-1.89352">
        <ele>106</ele>
        <time>2025-05-16T09:54:35Z</time>
      </trkpt>
      <trkpt lat="48.12321" lon="-1.89347">
        <ele>106</ele>
        <time>2025-05-16T09:54:36Z</time>
      </trkpt>
      <trkpt lat="48.12321" lon="-1.89341">
        <ele>106</ele>
        <time>2025-05-16T09:54:37Z</time>
      </trkpt>
      <trkpt lat="48.12321" lon="-1.89335">
        <ele>105</ele>
        <time>2025-05-16T09:54:38Z</time>
      </trkpt>
      <trkpt lat="48.1232" lon="-1.89329">
        <ele>105</ele>
        <time>2025-05-16T09:54:39Z</time>
      </trkpt>
      <trkpt lat="48.1232" lon="-1.89322">
        <ele>105</ele>
        <time>2025-05-16T09:54:40Z</time>
      </trkpt>
      <trkpt lat="48.1232" lon="-1.89315">
        <ele>106</ele>
        <time>2025-05-16T09:54:41Z</time>
      </trkpt>
      <trkpt lat="48.12319" lon="-1.89308">
        <ele>106</ele>
        <time>2025-05-16T09:54:42Z</time>
      </trkpt>
      <trkpt lat="48.12319" lon="-1.893">
        <ele>106</ele>
        <time>2025-05-16T09:54:43Z</time>
      </trkpt>
      <trkpt lat="48.12318" lon="-1.89293">
        <ele>105</ele>
        <time>2025-05-16T09:54:44Z</time>
      </trkpt>
      <trkpt lat="48.12317" lon="-1.89286">
        <ele>105</ele>
        <time>2025-05-16T09:54:45Z</time>
      </trkpt>
      <trkpt lat="48.12316" lon="-1.89279">
        <ele>104</ele>
        <time>2025-05-16T09:54:46Z</time>
      </trkpt>
      <trkpt lat="48.12315" lon="-1.8927">
        <ele>104</ele>
        <time>2025-05-16T09:54:47Z</time>
      </trkpt>
      <trkpt lat="48.12314" lon="-1.89262">
        <ele>104</ele>
        <time>2025-05-16T09:54:48Z</time>
      </trkpt>
      <trkpt lat="48.12312" lon="-1.89253">
        <ele>104</ele>
        <time>2025-05-16T09:54:49Z</time>
      </trkpt>
      <trkpt lat="48.12311" lon="-1.89245">
        <ele>104</ele>
        <time>2025-05-16T09:54:50Z</time>
      </trkpt>
      <trkpt lat="48.1231" lon="-1.89236">
        <ele>103</ele>
        <time>2025-05-16T09:54:51Z</time>
      </trkpt>
      <trkpt lat="48.12309" lon="-1.89227">
        <ele>104</ele>
        <time>2025-05-16T09:54:52Z</time>
      </trkpt>
      <trkpt lat="48.12307" lon="-1.89218">
        <ele>103</ele>
        <time>2025-05-16T09:54:53Z</time>
      </trkpt>
      <trkpt lat="48.12306" lon="-1.89209">
        <ele>103</ele>
        <time>2025-05-16T09:54:54Z</time>
      </trkpt>
      <trkpt lat="48.12305" lon="-1.892">
        <ele>103</ele>
        <time>2025-05-16T09:54:55Z</time>
      </trkpt>
      <trkpt lat="48.12304" lon="-1.8919">
        <ele>103</ele>
        <time>2025-05-16T09:54:56Z</time>
      </trkpt>
      <trkpt lat="48.12303" lon="-1.89181">
        <ele>103</ele>
        <time>2025-05-16T09:54:57Z</time>
      </trkpt>
      <trkpt lat="48.12302" lon="-1.89172">
        <ele>103</ele>
        <time>2025-05-16T09:54:58Z</time>
      </trkpt>
      <trkpt lat="48.12301" lon="-1.89163">
        <ele>103</ele>
        <time>2025-05-16T09:54:59Z</time>
      </trkpt>
      <trkpt lat="48.12301" lon="-1.89154">
        <ele>103</ele>
        <time>2025-05-16T09:55:00Z</time>
      </trkpt>
      <trkpt lat="48.123" lon="-1.89145">
        <ele>103</ele>
        <time>2025-05-16T09:55:01Z</time>
      </trkpt>
      <trkpt lat="48.123" lon="-1.89137">
        <ele>103</ele>
        <time>2025-05-16T09:55:02Z</time>
      </trkpt>
      <trkpt lat="48.123" lon="-1.89128">
        <ele>103</ele>
        <time>2025-05-16T09:55:03Z</time>
      </trkpt>
      <trkpt lat="48.123" lon="-1.89119">
        <ele>103</ele>
        <time>2025-05-16T09:55:04Z</time>
      </trkpt>
      <trkpt lat="48.12299" lon="-1.89111">
        <ele>102</ele>
        <time>2025-05-16T09:55:05Z</time>
      </trkpt>
      <trkpt lat="48.12299" lon="-1.89102">
        <ele>102</ele>
        <time>2025-05-16T09:55:06Z</time>
      </trkpt>
      <trkpt lat="48.12298" lon="-1.89095">
        <ele>102</ele>
        <time>2025-05-16T09:55:07Z</time>
      </trkpt>
      <trkpt lat="48.12298" lon="-1.89087">
        <ele>103</ele>
        <time>2025-05-16T09:55:08Z</time>
      </trkpt>
      <trkpt lat="48.12298" lon="-1.8908">
        <ele>103</ele>
        <time>2025-05-16T09:55:09Z</time>
      </trkpt>
      <trkpt lat="48.12298" lon="-1.89073">
        <ele>104</ele>
        <time>2025-05-16T09:55:10Z</time>
      </trkpt>
      <trkpt lat="48.12298" lon="-1.89066">
        <ele>104</ele>
        <time>2025-05-16T09:55:11Z</time>
      </trkpt>
      <trkpt lat="48.12298" lon="-1.8906">
        <ele>104</ele>
        <time>2025-05-16T09:55:12Z</time>
      </trkpt>
      <trkpt lat="48.12298" lon="-1.89054">
        <ele>104</ele>
        <time>2025-05-16T09:55:13Z</time>
      </trkpt>
      <trkpt lat="48.12298" lon="-1.89048">
        <ele>104</ele>
        <time>2025-05-16T09:55:14Z</time>
      </trkpt>
      <trkpt lat="48.12298" lon="-1.89042">
        <ele>105</ele>
        <time>2025-05-16T09:55:15Z</time>
      </trkpt>
      <trkpt lat="48.12297" lon="-1.89036">
        <ele>105</ele>
        <time>2025-05-16T09:55:16Z</time>
      </trkpt>
      <trkpt lat="48.12296" lon="-1.89031">
        <ele>104</ele>
        <time>2025-05-16T09:55:17Z</time>
      </trkpt>
      <trkpt lat="48.12296" lon="-1.89026">
        <ele>105</ele>
        <time>2025-05-16T09:55:18Z</time>
      </trkpt>
      <trkpt lat="48.12296" lon="-1.8902">
        <ele>105</ele>
        <time>2025-05-16T09:55:19Z</time>
      </trkpt>
      <trkpt lat="48.12296" lon="-1.89014">
        <ele>105</ele>
        <time>2025-05-16T09:55:20Z</time>
      </trkpt>
      <trkpt lat="48.12296" lon="-1.89009">
        <ele>105</ele>
        <time>2025-05-16T09:55:21Z</time>
      </trkpt>
      <trkpt lat="48.12296" lon="-1.89003">
        <ele>105</ele>
        <time>2025-05-16T09:55:22Z</time>
      </trkpt>
      <trkpt lat="48.12295" lon="-1.88998">
        <ele>105</ele>
        <time>2025-05-16T09:55:23Z</time>
      </trkpt>
      <trkpt lat="48.12295" lon="-1.88993">
        <ele>105</ele>
        <time>2025-05-16T09:55:24Z</time>
      </trkpt>
      <trkpt lat="48.12295" lon="-1.88988">
        <ele>105</ele>
        <time>2025-05-16T09:55:25Z</time>
      </trkpt>
      <trkpt lat="48.12294" lon="-1.88982">
        <ele>105</ele>
        <time>2025-05-16T09:55:26Z</time>
      </trkpt>
      <trkpt lat="48.12293" lon="-1.88977">
        <ele>105</ele>
        <time>2025-05-16T09:55:27Z</time>
      </trkpt>
      <trkpt lat="48.12293" lon="-1.88972">
        <ele>105</ele>
        <time>2025-05-16T09:55:28Z</time>
      </trkpt>
      <trkpt lat="48.12293" lon="-1.88967">
        <ele>105</ele>
        <time>2025-05-16T09:55:29Z</time>
      </trkpt>
      <trkpt lat="48.12293" lon="-1.88962">
        <ele>105</ele>
        <time>2025-05-16T09:55:30Z</time>
      </trkpt>
      <trkpt lat="48.12293" lon="-1.88957">
        <ele>105</ele>
        <time>2025-05-16T09:55:31Z</time>
      </trkpt>
      <trkpt lat="48.12293" lon="-1.88953">
        <ele>105</ele>
        <time>2025-05-16T09:55:32Z</time>
      </trkpt>
      <trkpt lat="48.12293" lon="-1.88948">
        <ele>105</ele>
        <time>2025-05-16T09:55:33Z</time>
      </trkpt>
      <trkpt lat="48.12292" lon="-1.88943">
        <ele>105</ele>
        <time>2025-05-16T09:55:34Z</time>
      </trkpt>
      <trkpt lat="48.12292" lon="-1.88938">
        <ele>105</ele>
        <time>2025-05-16T09:55:35Z</time>
      </trkpt>
      <trkpt lat="48.12292" lon="-1.88933">
        <ele>105</ele>
        <time>2025-05-16T09:55:36Z</time>
      </trkpt>
      <trkpt lat="48.12292" lon="-1.88928">
        <ele>105</ele>
        <time>2025-05-16T09:55:37Z</time>
      </trkpt>
      <trkpt lat="48.12292" lon="-1.88923">
        <ele>105</ele>
        <time>2025-05-16T09:55:38Z</time>
      </trkpt>
      <trkpt lat="48.12292" lon="-1.88918">
        <ele>105</ele>
        <time>2025-05-16T09:55:39Z</time>
      </trkpt>
      <trkpt lat="48.12291" lon="-1.88913">
        <ele>106</ele>
        <time>2025-05-16T09:55:40Z</time>
      </trkpt>
      <trkpt lat="48.12291" lon="-1.88908">
        <ele>106</ele>
        <time>2025-05-16T09:55:41Z</time>
      </trkpt>
      <trkpt lat="48.12291" lon="-1.88902">
        <ele>106</ele>
        <time>2025-05-16T09:55:42Z</time>
      </trkpt>
      <trkpt lat="48.12291" lon="-1.88898">
        <ele>106</ele>
        <time>2025-05-16T09:55:43Z</time>
      </trkpt>
      <trkpt lat="48.12291" lon="-1.88893">
        <ele>106</ele>
        <time>2025-05-16T09:55:44Z</time>
      </trkpt>
      <trkpt lat="48.12291" lon="-1.88888">
        <ele>107</ele>
        <time>2025-05-16T09:55:45Z</time>
      </trkpt>
      <trkpt lat="48.12291" lon="-1.88883">
        <ele>107</ele>
        <time>2025-05-16T09:55:46Z</time>
      </trkpt>
      <trkpt lat="48.1229" lon="-1.88878">
        <ele>107</ele>
        <time>2025-05-16T09:55:47Z</time>
      </trkpt>
      <trkpt lat="48.1229" lon="-1.88873">
        <ele>107</ele>
        <time>2025-05-16T09:55:48Z</time>
      </trkpt>
      <trkpt lat="48.1229" lon="-1.88868">
        <ele>107</ele>
        <time>2025-05-16T09:55:49Z</time>
      </trkpt>
      <trkpt lat="48.1229" lon="-1.88863">
        <ele>107</ele>
        <time>2025-05-16T09:55:50Z</time>
      </trkpt>
      <trkpt lat="48.1229" lon="-1.88859">
        <ele>108</ele>
        <time>2025-05-16T09:55:51Z</time>
      </trkpt>
      <trkpt lat="48.12289" lon="-1.88855">
        <ele>108</ele>
        <time>2025-05-16T09:55:52Z</time>
      </trkpt>
      <trkpt lat="48.12289" lon="-1.88851">
        <ele>108</ele>
        <time>2025-05-16T09:55:53Z</time>
      </trkpt>
      <trkpt lat="48.1229" lon="-1.88846">
        <ele>108</ele>
        <time>2025-05-16T09:55:54Z</time>
      </trkpt>
      <trkpt lat="48.12289" lon="-1.88842">
        <ele>108</ele>
        <time>2025-05-16T09:55:55Z</time>
      </trkpt>
      <trkpt lat="48.12289" lon="-1.88837">
        <ele>108</ele>
        <time>2025-05-16T09:55:56Z</time>
      </trkpt>
      <trkpt lat="48.12289" lon="-1.88832">
        <ele>108</ele>
        <time>2025-05-16T09:55:57Z</time>
      </trkpt>
      <trkpt lat="48.12289" lon="-1.88827">
        <ele>108</ele>
        <time>2025-05-16T09:55:58Z</time>
      </trkpt>
      <trkpt lat="48.12289" lon="-1.88822">
        <ele>108</ele>
        <time>2025-05-16T09:55:59Z</time>
      </trkpt>
      <trkpt lat="48.12289" lon="-1.88817">
        <ele>108</ele>
        <time>2025-05-16T09:56:00Z</time>
      </trkpt>
      <trkpt lat="48.12288" lon="-1.88812">
        <ele>108</ele>
        <time>2025-05-16T09:56:01Z</time>
      </trkpt>
      <trkpt lat="48.12288" lon="-1.88807">
        <ele>108</ele>
        <time>2025-05-16T09:56:02Z</time>
      </trkpt>
      <trkpt lat="48.12288" lon="-1.88802">
        <ele>108</ele>
        <time>2025-05-16T09:56:03Z</time>
      </trkpt>
      <trkpt lat="48.12288" lon="-1.88798">
        <ele>108</ele>
        <time>2025-05-16T09:56:04Z</time>
      </trkpt>
      <trkpt lat="48.12288" lon="-1.88793">
        <ele>108</ele>
        <time>2025-05-16T09:56:05Z</time>
      </trkpt>
      <trkpt lat="48.12288" lon="-1.88788">
        <ele>109</ele>
        <time>2025-05-16T09:56:06Z</time>
      </trkpt>
      <trkpt lat="48.12288" lon="-1.88783">
        <ele>109</ele>
        <time>2025-05-16T09:56:07Z</time>
      </trkpt>
      <trkpt lat="48.12287" lon="-1.88779">
        <ele>109</ele>
        <time>2025-05-16T09:56:08Z</time>
      </trkpt>
      <trkpt lat="48.12287" lon="-1.88774">
        <ele>109</ele>
        <time>2025-05-16T09:56:09Z</time>
      </trkpt>
      <trkpt lat="48.12287" lon="-1.88769">
        <ele>109</ele>
        <time>2025-05-16T09:56:10Z</time>
      </trkpt>
      <trkpt lat="48.12287" lon="-1.88764">
        <ele>109</ele>
        <time>2025-05-16T09:56:11Z</time>
      </trkpt>
      <trkpt lat="48.12287" lon="-1.8876">
        <ele>109</ele>
        <time>2025-05-16T09:56:12Z</time>
      </trkpt>
      <trkpt lat="48.12287" lon="-1.88755">
        <ele>110</ele>
        <time>2025-05-16T09:56:13Z</time>
      </trkpt>
      <trkpt lat="48.12287" lon="-1.8875">
        <ele>109</ele>
        <time>2025-05-16T09:56:14Z</time>
      </trkpt>
      <trkpt lat="48.12286" lon="-1.88745">
        <ele>109</ele>
        <time>2025-05-16T09:56:15Z</time>
      </trkpt>
      <trkpt lat="48.12286" lon="-1.8874">
        <ele>110</ele>
        <time>2025-05-16T09:56:16Z</time>
      </trkpt>
      <trkpt lat="48.12286" lon="-1.88735">
        <ele>110</ele>
        <time>2025-05-16T09:56:17Z</time>
      </trkpt>
      <trkpt lat="48.12286" lon="-1.88731">
        <ele>110</ele>
        <time>2025-05-16T09:56:18Z</time>
      </trkpt>
      <trkpt lat="48.12286" lon="-1.88726">
        <ele>110</ele>
        <time>2025-05-16T09:56:19Z</time>
      </trkpt>
      <trkpt lat="48.12286" lon="-1.88722">
        <ele>110</ele>
        <time>2025-05-16T09:56:20Z</time>
      </trkpt>
      <trkpt lat="48.12286" lon="-1.88717">
        <ele>110</ele>
        <time>2025-05-16T09:56:21Z</time>
      </trkpt>
      <trkpt lat="48.12285" lon="-1.88713">
        <ele>110</ele>
        <time>2025-05-16T09:56:22Z</time>
      </trkpt>
      <trkpt lat="48.12285" lon="-1.88708">
        <ele>111</ele>
        <time>2025-05-16T09:56:23Z</time>
      </trkpt>
      <trkpt lat="48.12285" lon="-1.88704">
        <ele>111</ele>
        <time>2025-05-16T09:56:24Z</time>
      </trkpt>
      <trkpt lat="48.12285" lon="-1.887">
        <ele>111</ele>
        <time>2025-05-16T09:56:25Z</time>
      </trkpt>
      <trkpt lat="48.12285" lon="-1.88695">
        <ele>111</ele>
        <time>2025-05-16T09:56:26Z</time>
      </trkpt>
      <trkpt lat="48.12285" lon="-1.8869">
        <ele>111</ele>
        <time>2025-05-16T09:56:27Z</time>
      </trkpt>
      <trkpt lat="48.12285" lon="-1.88686">
        <ele>111</ele>
        <time>2025-05-16T09:56:28Z</time>
      </trkpt>
      <trkpt lat="48.12284" lon="-1.88681">
        <ele>111</ele>
        <time>2025-05-16T09:56:29Z</time>
      </trkpt>
      <trkpt lat="48.12284" lon="-1.88677">
        <ele>110</ele>
        <time>2025-05-16T09:56:30Z</time>
      </trkpt>
      <trkpt lat="48.12284" lon="-1.88672">
        <ele>111</ele>
        <time>2025-05-16T09:56:31Z</time>
      </trkpt>
      <trkpt lat="48.12284" lon="-1.88668">
        <ele>111</ele>
        <time>2025-05-16T09:56:32Z</time>
      </trkpt>
      <trkpt lat="48.12284" lon="-1.88663">
        <ele>111</ele>
        <time>2025-05-16T09:56:33Z</time>
      </trkpt>
      <trkpt lat="48.12283" lon="-1.88658">
        <ele>111</ele>
        <time>2025-05-16T09:56:34Z</time>
      </trkpt>
      <trkpt lat="48.12283" lon="-1.88654">
        <ele>111</ele>
        <time>2025-05-16T09:56:35Z</time>
      </trkpt>
      <trkpt lat="48.12283" lon="-1.88649">
        <ele>111</ele>
        <time>2025-05-16T09:56:36Z</time>
      </trkpt>
      <trkpt lat="48.12283" lon="-1.88644">
        <ele>111</ele>
        <time>2025-05-16T09:56:37Z</time>
      </trkpt>
      <trkpt lat="48.12283" lon="-1.8864">
        <ele>111</ele>
        <time>2025-05-16T09:56:38Z</time>
      </trkpt>
      <trkpt lat="48.12283" lon="-1.88635">
        <ele>111</ele>
        <time>2025-05-16T09:56:39Z</time>
      </trkpt>
      <trkpt lat="48.12283" lon="-1.8863">
        <ele>111</ele>
        <time>2025-05-16T09:56:40Z</time>
      </trkpt>
      <trkpt lat="48.12283" lon="-1.88625">
        <ele>111</ele>
        <time>2025-05-16T09:56:41Z</time>
      </trkpt>
      <trkpt lat="48.12282" lon="-1.88621">
        <ele>112</ele>
        <time>2025-05-16T09:56:42Z</time>
      </trkpt>
      <trkpt lat="48.12282" lon="-1.88616">
        <ele>112</ele>
        <time>2025-05-16T09:56:43Z</time>
      </trkpt>
      <trkpt lat="48.12282" lon="-1.88611">
        <ele>112</ele>
        <time>2025-05-16T09:56:44Z</time>
      </trkpt>
      <trkpt lat="48.12282" lon="-1.88607">
        <ele>111</ele>
        <time>2025-05-16T09:56:45Z</time>
      </trkpt>
      <trkpt lat="48.12281" lon="-1.88602">
        <ele>111</ele>
        <time>2025-05-16T09:56:46Z</time>
      </trkpt>
      <trkpt lat="48.12281" lon="-1.88597">
        <ele>111</ele>
        <time>2025-05-16T09:56:47Z</time>
      </trkpt>
      <trkpt lat="48.12281" lon="-1.88593">
        <ele>111</ele>
        <time>2025-05-16T09:56:48Z</time>
      </trkpt>
      <trkpt lat="48.12281" lon="-1.88588">
        <ele>111</ele>
        <time>2025-05-16T09:56:49Z</time>
      </trkpt>
      <trkpt lat="48.12281" lon="-1.88583">
        <ele>111</ele>
        <time>2025-05-16T09:56:50Z</time>
      </trkpt>
      <trkpt lat="48.12281" lon="-1.88579">
        <ele>111</ele>
        <time>2025-05-16T09:56:51Z</time>
      </trkpt>
      <trkpt lat="48.12281" lon="-1.88574">
        <ele>111</ele>
        <time>2025-05-16T09:56:52Z</time>
      </trkpt>
      <trkpt lat="48.12281" lon="-1.88569">
        <ele>111</ele>
        <time>2025-05-16T09:56:53Z</time>
      </trkpt>
      <trkpt lat="48.1228" lon="-1.88564">
        <ele>111</ele>
        <time>2025-05-16T09:56:54Z</time>
      </trkpt>
      <trkpt lat="48.1228" lon="-1.88559">
        <ele>111</ele>
        <time>2025-05-16T09:56:55Z</time>
      </trkpt>
      <trkpt lat="48.1228" lon="-1.88555">
        <ele>111</ele>
        <time>2025-05-16T09:56:56Z</time>
      </trkpt>
      <trkpt lat="48.1228" lon="-1.8855">
        <ele>112</ele>
        <time>2025-05-16T09:56:57Z</time>
      </trkpt>
      <trkpt lat="48.1228" lon="-1.88545">
        <ele>112</ele>
        <time>2025-05-16T09:56:58Z</time>
      </trkpt>
      <trkpt lat="48.1228" lon="-1.8854">
        <ele>112</ele>
        <time>2025-05-16T09:56:59Z</time>
      </trkpt>
      <trkpt lat="48.1228" lon="-1.88535">
        <ele>112</ele>
        <time>2025-05-16T09:57:00Z</time>
      </trkpt>
      <trkpt lat="48.12279" lon="-1.8853">
        <ele>112</ele>
        <time>2025-05-16T09:57:01Z</time>
      </trkpt>
      <trkpt lat="48.12279" lon="-1.88525">
        <ele>112</ele>
        <time>2025-05-16T09:57:02Z</time>
      </trkpt>
      <trkpt lat="48.12279" lon="-1.8852">
        <ele>112</ele>
        <time>2025-05-16T09:57:03Z</time>
      </trkpt>
      <trkpt lat="48.12279" lon="-1.88515">
        <ele>113</ele>
        <time>2025-05-16T09:57:04Z</time>
      </trkpt>
      <trkpt lat="48.12279" lon="-1.8851">
        <ele>113</ele>
        <time>2025-05-16T09:57:05Z</time>
      </trkpt>
      <trkpt lat="48.12278" lon="-1.88505">
        <ele>113</ele>
        <time>2025-05-16T09:57:06Z</time>
      </trkpt>
      <trkpt lat="48.12278" lon="-1.88501">
        <ele>112</ele>
        <time>2025-05-16T09:57:07Z</time>
      </trkpt>
      <trkpt lat="48.12278" lon="-1.88496">
        <ele>112</ele>
        <time>2025-05-16T09:57:08Z</time>
      </trkpt>
      <trkpt lat="48.12278" lon="-1.88491">
        <ele>112</ele>
        <time>2025-05-16T09:57:09Z</time>
      </trkpt>
      <trkpt lat="48.12278" lon="-1.88486">
        <ele>112</ele>
        <time>2025-05-16T09:57:10Z</time>
      </trkpt>
      <trkpt lat="48.12278" lon="-1.88481">
        <ele>111</ele>
        <time>2025-05-16T09:57:11Z</time>
      </trkpt>
      <trkpt lat="48.12277" lon="-1.88476">
        <ele>111</ele>
        <time>2025-05-16T09:57:12Z</time>
      </trkpt>
      <trkpt lat="48.12277" lon="-1.88471">
        <ele>111</ele>
        <time>2025-05-16T09:57:13Z</time>
      </trkpt>
      <trkpt lat="48.12277" lon="-1.88466">
        <ele>111</ele>
        <time>2025-05-16T09:57:14Z</time>
      </trkpt>
      <trkpt lat="48.12277" lon="-1.88461">
        <ele>111</ele>
        <time>2025-05-16T09:57:15Z</time>
      </trkpt>
      <trkpt lat="48.12276" lon="-1.88457">
        <ele>112</ele>
        <time>2025-05-16T09:57:16Z</time>
      </trkpt>
      <trkpt lat="48.12276" lon="-1.88452">
        <ele>111</ele>
        <time>2025-05-16T09:57:17Z</time>
      </trkpt>
      <trkpt lat="48.12276" lon="-1.88447">
        <ele>111</ele>
        <time>2025-05-16T09:57:18Z</time>
      </trkpt>
      <trkpt lat="48.12276" lon="-1.88441">
        <ele>112</ele>
        <time>2025-05-16T09:57:19Z</time>
      </trkpt>
      <trkpt lat="48.12276" lon="-1.88436">
        <ele>112</ele>
        <time>2025-05-16T09:57:20Z</time>
      </trkpt>
      <trkpt lat="48.12275" lon="-1.88431">
        <ele>112</ele>
        <time>2025-05-16T09:57:21Z</time>
      </trkpt>
      <trkpt lat="48.12275" lon="-1.88425">
        <ele>112</ele>
        <time>2025-05-16T09:57:22Z</time>
      </trkpt>
      <trkpt lat="48.12275" lon="-1.8842">
        <ele>112</ele>
        <time>2025-05-16T09:57:23Z</time>
      </trkpt>
      <trkpt lat="48.12275" lon="-1.88414">
        <ele>112</ele>
        <time>2025-05-16T09:57:24Z</time>
      </trkpt>
      <trkpt lat="48.12275" lon="-1.88409">
        <ele>112</ele>
        <time>2025-05-16T09:57:25Z</time>
      </trkpt>
      <trkpt lat="48.12275" lon="-1.88403">
        <ele>112</ele>
        <time>2025-05-16T09:57:26Z</time>
      </trkpt>
      <trkpt lat="48.12275" lon="-1.88397">
        <ele>112</ele>
        <time>2025-05-16T09:57:27Z</time>
      </trkpt>
      <trkpt lat="48.12274" lon="-1.88391">
        <ele>112</ele>
        <time>2025-05-16T09:57:28Z</time>
      </trkpt>
      <trkpt lat="48.12274" lon="-1.88384">
        <ele>112</ele>
        <time>2025-05-16T09:57:29Z</time>
      </trkpt>
      <trkpt lat="48.12274" lon="-1.88379">
        <ele>112</ele>
        <time>2025-05-16T09:57:30Z</time>
      </trkpt>
      <trkpt lat="48.12273" lon="-1.88373">
        <ele>112</ele>
        <time>2025-05-16T09:57:31Z</time>
      </trkpt>
      <trkpt lat="48.12273" lon="-1.88368">
        <ele>112</ele>
        <time>2025-05-16T09:57:32Z</time>
      </trkpt>
      <trkpt lat="48.12273" lon="-1.88364">
        <ele>112</ele>
        <time>2025-05-16T09:57:33Z</time>
      </trkpt>
      <trkpt lat="48.12273" lon="-1.8836">
        <ele>112</ele>
        <time>2025-05-16T09:57:34Z</time>
      </trkpt>
      <trkpt lat="48.12273" lon="-1.88357">
        <ele>111</ele>
        <time>2025-05-16T09:57:35Z</time>
      </trkpt>
      <trkpt lat="48.12273" lon="-1.88354">
        <ele>112</ele>
        <time>2025-05-16T09:57:36Z</time>
      </trkpt>
      <trkpt lat="48.12273" lon="-1.88353">
        <ele>112</ele>
        <time>2025-05-16T09:57:37Z</time>
      </trkpt>
      <trkpt lat="48.12272" lon="-1.88352">
        <ele>112</ele>
        <time>2025-05-16T09:57:38Z</time>
      </trkpt>
      <trkpt lat="48.12273" lon="-1.88352">
        <ele>112</ele>
        <time>2025-05-16T09:57:39Z</time>
      </trkpt>
      <trkpt lat="48.12273" lon="-1.88352">
        <ele>112</ele>
        <time>2025-05-16T09:57:40Z</time>
      </trkpt>
      <trkpt lat="48.12273" lon="-1.88352">
        <ele>112</ele>
        <time>2025-05-16T09:57:41Z</time>
      </trkpt>
      <trkpt lat="48.12273" lon="-1.88352">
        <ele>112</ele>
        <time>2025-05-16T09:57:42Z</time>
      </trkpt>
      <trkpt lat="48.12273" lon="-1.88352">
        <ele>112</ele>
        <time>2025-05-16T09:57:43Z</time>
      </trkpt>
      <trkpt lat="48.12273" lon="-1.88352">
        <ele>112</ele>
        <time>2025-05-16T09:57:44Z</time>
      </trkpt>
      <trkpt lat="48.12273" lon="-1.88352">
        <ele>112</ele>
        <time>2025-05-16T09:57:45Z</time>
      </trkpt>
      <trkpt lat="48.12273" lon="-1.88352">
        <ele>112</ele>
        <time>2025-05-16T09:57:46Z</time>
      </trkpt>
      <trkpt lat="48.12273" lon="-1.8835">
        <ele>111</ele>
        <time>2025-05-16T09:57:47Z</time>
      </trkpt>
      <trkpt lat="48.12273" lon="-1.88348">
        <ele>111</ele>
        <time>2025-05-16T09:57:48Z</time>
      </trkpt>
      <trkpt lat="48.12273" lon="-1.88345">
        <ele>111</ele>
        <time>2025-05-16T09:57:49Z</time>
      </trkpt>
      <trkpt lat="48.12273" lon="-1.88341">
        <ele>111</ele>
        <time>2025-05-16T09:57:50Z</time>
      </trkpt>
      <trkpt lat="48.12273" lon="-1.88337">
        <ele>111</ele>
        <time>2025-05-16T09:57:51Z</time>
      </trkpt>
      <trkpt lat="48.12273" lon="-1.88332">
        <ele>111</ele>
        <time>2025-05-16T09:57:52Z</time>
      </trkpt>
      <trkpt lat="48.12273" lon="-1.88328">
        <ele>112</ele>
        <time>2025-05-16T09:57:53Z</time>
      </trkpt>
      <trkpt lat="48.12273" lon="-1.88323">
        <ele>112</ele>
        <time>2025-05-16T09:57:54Z</time>
      </trkpt>
      <trkpt lat="48.12272" lon="-1.88318">
        <ele>112</ele>
        <time>2025-05-16T09:57:55Z</time>
      </trkpt>
      <trkpt lat="48.12272" lon="-1.88312">
        <ele>112</ele>
        <time>2025-05-16T09:57:56Z</time>
      </trkpt>
      <trkpt lat="48.12272" lon="-1.88307">
        <ele>112</ele>
        <time>2025-05-16T09:57:57Z</time>
      </trkpt>
      <trkpt lat="48.12272" lon="-1.88301">
        <ele>112</ele>
        <time>2025-05-16T09:57:58Z</time>
      </trkpt>
      <trkpt lat="48.12272" lon="-1.88296">
        <ele>112</ele>
        <time>2025-05-16T09:57:59Z</time>
      </trkpt>
      <trkpt lat="48.12272" lon="-1.8829">
        <ele>112</ele>
        <time>2025-05-16T09:58:00Z</time>
      </trkpt>
      <trkpt lat="48.12272" lon="-1.88284">
        <ele>112</ele>
        <time>2025-05-16T09:58:01Z</time>
      </trkpt>
      <trkpt lat="48.12272" lon="-1.88278">
        <ele>112</ele>
        <time>2025-05-16T09:58:02Z</time>
      </trkpt>
      <trkpt lat="48.12272" lon="-1.88272">
        <ele>111</ele>
        <time>2025-05-16T09:58:03Z</time>
      </trkpt>
      <trkpt lat="48.12272" lon="-1.88266">
        <ele>111</ele>
        <time>2025-05-16T09:58:04Z</time>
      </trkpt>
      <trkpt lat="48.12272" lon="-1.8826">
        <ele>111</ele>
        <time>2025-05-16T09:58:05Z</time>
      </trkpt>
      <trkpt lat="48.12273" lon="-1.88253">
        <ele>111</ele>
        <time>2025-05-16T09:58:06Z</time>
      </trkpt>
      <trkpt lat="48.12273" lon="-1.88246">
        <ele>111</ele>
        <time>2025-05-16T09:58:07Z</time>
      </trkpt>
      <trkpt lat="48.12274" lon="-1.88239">
        <ele>111</ele>
        <time>2025-05-16T09:58:08Z</time>
      </trkpt>
      <trkpt lat="48.12274" lon="-1.88231">
        <ele>111</ele>
        <time>2025-05-16T09:58:09Z</time>
      </trkpt>
      <trkpt lat="48.12274" lon="-1.88224">
        <ele>111</ele>
        <time>2025-05-16T09:58:10Z</time>
      </trkpt>
      <trkpt lat="48.12274" lon="-1.88217">
        <ele>111</ele>
        <time>2025-05-16T09:58:11Z</time>
      </trkpt>
      <trkpt lat="48.12275" lon="-1.8821">
        <ele>110</ele>
        <time>2025-05-16T09:58:12Z</time>
      </trkpt>
      <trkpt lat="48.12275" lon="-1.88203">
        <ele>110</ele>
        <time>2025-05-16T09:58:13Z</time>
      </trkpt>
      <trkpt lat="48.12275" lon="-1.88196">
        <ele>110</ele>
        <time>2025-05-16T09:58:14Z</time>
      </trkpt>
      <trkpt lat="48.12275" lon="-1.88189">
        <ele>110</ele>
        <time>2025-05-16T09:58:15Z</time>
      </trkpt>
      <trkpt lat="48.12276" lon="-1.88182">
        <ele>110</ele>
        <time>2025-05-16T09:58:16Z</time>
      </trkpt>
      <trkpt lat="48.12275" lon="-1.88174">
        <ele>110</ele>
        <time>2025-05-16T09:58:17Z</time>
      </trkpt>
      <trkpt lat="48.12275" lon="-1.88167">
        <ele>110</ele>
        <time>2025-05-16T09:58:18Z</time>
      </trkpt>
      <trkpt lat="48.12276" lon="-1.8816">
        <ele>110</ele>
        <time>2025-05-16T09:58:19Z</time>
      </trkpt>
      <trkpt lat="48.12276" lon="-1.88153">
        <ele>110</ele>
        <time>2025-05-16T09:58:20Z</time>
      </trkpt>
      <trkpt lat="48.12277" lon="-1.88147">
        <ele>110</ele>
        <time>2025-05-16T09:58:21Z</time>
      </trkpt>
      <trkpt lat="48.12277" lon="-1.88141">
        <ele>110</ele>
        <time>2025-05-16T09:58:22Z</time>
      </trkpt>
      <trkpt lat="48.12277" lon="-1.88135">
        <ele>110</ele>
        <time>2025-05-16T09:58:23Z</time>
      </trkpt>
      <trkpt lat="48.12277" lon="-1.88131">
        <ele>111</ele>
        <time>2025-05-16T09:58:24Z</time>
      </trkpt>
      <trkpt lat="48.12277" lon="-1.88127">
        <ele>110</ele>
        <time>2025-05-16T09:58:25Z</time>
      </trkpt>
      <trkpt lat="48.12276" lon="-1.88125">
        <ele>110</ele>
        <time>2025-05-16T09:58:26Z</time>
      </trkpt>
      <trkpt lat="48.12276" lon="-1.88124">
        <ele>110</ele>
        <time>2025-05-16T09:58:27Z</time>
      </trkpt>
      <trkpt lat="48.12276" lon="-1.88123">
        <ele>110</ele>
        <time>2025-05-16T09:58:28Z</time>
      </trkpt>
      <trkpt lat="48.12276" lon="-1.88123">
        <ele>110</ele>
        <time>2025-05-16T09:58:29Z</time>
      </trkpt>
      <trkpt lat="48.12276" lon="-1.88123">
        <ele>110</ele>
        <time>2025-05-16T09:58:30Z</time>
      </trkpt>
      <trkpt lat="48.12276" lon="-1.88123">
        <ele>110</ele>
        <time>2025-05-16T09:58:31Z</time>
      </trkpt>
      <trkpt lat="48.12276" lon="-1.88123">
        <ele>110</ele>
        <time>2025-05-16T09:58:32Z</time>
      </trkpt>
      <trkpt lat="48.12276" lon="-1.88123">
        <ele>110</ele>
        <time>2025-05-16T09:58:33Z</time>
      </trkpt>
      <trkpt lat="48.12276" lon="-1.88123">
        <ele>110</ele>
        <time>2025-05-16T09:58:34Z</time>
      </trkpt>
      <trkpt lat="48.12276" lon="-1.88123">
        <ele>110</ele>
        <time>2025-05-16T09:58:35Z</time>
      </trkpt>
      <trkpt lat="48.12276" lon="-1.88123">
        <ele>110</ele>
        <time>2025-05-16T09:58:36Z</time>
      </trkpt>
      <trkpt lat="48.12276" lon="-1.88123">
        <ele>110</ele>
        <time>2025-05-16T09:58:37Z</time>
      </trkpt>
      <trkpt lat="48.12276" lon="-1.88123">
        <ele>110</ele>
        <time>2025-05-16T09:58:38Z</time>
      </trkpt>
      <trkpt lat="48.12276" lon="-1.88123">
        <ele>110</ele>
        <time>2025-05-16T09:58:39Z</time>
      </trkpt>
      <trkpt lat="48.12276" lon="-1.88123">
        <ele>110</ele>
        <time>2025-05-16T09:58:40Z</time>
      </trkpt>
      <trkpt lat="48.12276" lon="-1.88123">
        <ele>110</ele>
        <time>2025-05-16T09:58:41Z</time>
      </trkpt>
      <trkpt lat="48.12276" lon="-1.88123">
        <ele>110</ele>
        <time>2025-05-16T09:58:42Z</time>
      </trkpt>
      <trkpt lat="48.12276" lon="-1.88123">
        <ele>110</ele>
        <time>2025-05-16T09:58:43Z</time>
      </trkpt>
      <trkpt lat="48.12276" lon="-1.88123">
        <ele>110</ele>
        <time>2025-05-16T09:58:44Z</time>
      </trkpt>
      <trkpt lat="48.12276" lon="-1.88123">
        <ele>110</ele>
        <time>2025-05-16T09:58:45Z</time>
      </trkpt>
      <trkpt lat="48.12276" lon="-1.88123">
        <ele>110</ele>
        <time>2025-05-16T09:58:46Z</time>
      </trkpt>
      <trkpt lat="48.12276" lon="-1.88123">
        <ele>110</ele>
        <time>2025-05-16T09:58:47Z</time>
      </trkpt>
      <trkpt lat="48.12276" lon="-1.88123">
        <ele>110</ele>
        <time>2025-05-16T09:58:48Z</time>
      </trkpt>
      <trkpt lat="48.12276" lon="-1.88123">
        <ele>110</ele>
        <time>2025-05-16T09:58:49Z</time>
      </trkpt>
      <trkpt lat="48.12276" lon="-1.88123">
        <ele>110</ele>
        <time>2025-05-16T09:58:50Z</time>
      </trkpt>
      <trkpt lat="48.12276" lon="-1.88123">
        <ele>110</ele>
        <time>2025-05-16T09:58:51Z</time>
      </trkpt>
      <trkpt lat="48.12276" lon="-1.88123">
        <ele>110</ele>
        <time>2025-05-16T09:58:52Z</time>
      </trkpt>
      <trkpt lat="48.12276" lon="-1.88123">
        <ele>110</ele>
        <time>2025-05-16T09:58:53Z</time>
      </trkpt>
      <trkpt lat="48.12276" lon="-1.88123">
        <ele>110</ele>
        <time>2025-05-16T09:58:54Z</time>
      </trkpt>
      <trkpt lat="48.12276" lon="-1.88123">
        <ele>110</ele>
        <time>2025-05-16T09:58:55Z</time>
      </trkpt>
      <trkpt lat="48.12276" lon="-1.88123">
        <ele>110</ele>
        <time>2025-05-16T09:58:56Z</time>
      </trkpt>
      <trkpt lat="48.12276" lon="-1.88123">
        <ele>110</ele>
        <time>2025-05-16T09:58:57Z</time>
      </trkpt>
      <trkpt lat="48.12276" lon="-1.88123">
        <ele>110</ele>
        <time>2025-05-16T09:58:58Z</time>
      </trkpt>
      <trkpt lat="48.12276" lon="-1.88123">
        <ele>110</ele>
        <time>2025-05-16T09:58:59Z</time>
      </trkpt>
      <trkpt lat="48.12276" lon="-1.88123">
        <ele>110</ele>
        <time>2025-05-16T09:59:00Z</time>
      </trkpt>
      <trkpt lat="48.12276" lon="-1.88123">
        <ele>110</ele>
        <time>2025-05-16T09:59:01Z</time>
      </trkpt>
      <trkpt lat="48.12276" lon="-1.88123">
        <ele>110</ele>
        <time>2025-05-16T09:59:02Z</time>
      </trkpt>
      <trkpt lat="48.12276" lon="-1.88123">
        <ele>110</ele>
        <time>2025-05-16T09:59:03Z</time>
      </trkpt>
      <trkpt lat="48.12276" lon="-1.88123">
        <ele>110</ele>
        <time>2025-05-16T09:59:04Z</time>
      </trkpt>
      <trkpt lat="48.12276" lon="-1.88123">
        <ele>110</ele>
        <time>2025-05-16T09:59:05Z</time>
      </trkpt>
      <trkpt lat="48.12276" lon="-1.88123">
        <ele>110</ele>
        <time>2025-05-16T09:59:06Z</time>
      </trkpt>
      <trkpt lat="48.12276" lon="-1.88123">
        <ele>110</ele>
        <time>2025-05-16T09:59:07Z</time>
      </trkpt>
      <trkpt lat="48.12276" lon="-1.88123">
        <ele>110</ele>
        <time>2025-05-16T09:59:08Z</time>
      </trkpt>
      <trkpt lat="48.12276" lon="-1.88123">
        <ele>110</ele>
        <time>2025-05-16T09:59:09Z</time>
      </trkpt>
      <trkpt lat="48.12276" lon="-1.88123">
        <ele>110</ele>
        <time>2025-05-16T09:59:10Z</time>
      </trkpt>
      <trkpt lat="48.12276" lon="-1.88123">
        <ele>110</ele>
        <time>2025-05-16T09:59:11Z</time>
      </trkpt>
      <trkpt lat="48.12276" lon="-1.88123">
        <ele>110</ele>
        <time>2025-05-16T09:59:12Z</time>
      </trkpt>
      <trkpt lat="48.12276" lon="-1.88123">
        <ele>110</ele>
        <time>2025-05-16T09:59:13Z</time>
      </trkpt>
      <trkpt lat="48.12276" lon="-1.88123">
        <ele>110</ele>
        <time>2025-05-16T09:59:14Z</time>
      </trkpt>
      <trkpt lat="48.12276" lon="-1.88123">
        <ele>110</ele>
        <time>2025-05-16T09:59:15Z</time>
      </trkpt>
      <trkpt lat="48.12276" lon="-1.88123">
        <ele>110</ele>
        <time>2025-05-16T09:59:16Z</time>
      </trkpt>
      <trkpt lat="48.12276" lon="-1.88123">
        <ele>110</ele>
        <time>2025-05-16T09:59:17Z</time>
      </trkpt>
      <trkpt lat="48.12276" lon="-1.88123">
        <ele>110</ele>
        <time>2025-05-16T09:59:18Z</time>
      </trkpt>
      <trkpt lat="48.12276" lon="-1.88123">
        <ele>110</ele>
        <time>2025-05-16T09:59:19Z</time>
      </trkpt>
      <trkpt lat="48.12276" lon="-1.88123">
        <ele>110</ele>
        <time>2025-05-16T09:59:20Z</time>
      </trkpt>
      <trkpt lat="48.12276" lon="-1.88123">
        <ele>110</ele>
        <time>2025-05-16T09:59:21Z</time>
      </trkpt>
      <trkpt lat="48.12276" lon="-1.88123">
        <ele>110</ele>
        <time>2025-05-16T09:59:22Z</time>
      </trkpt>
      <trkpt lat="48.12276" lon="-1.88123">
        <ele>110</ele>
        <time>2025-05-16T09:59:23Z</time>
      </trkpt>
      <trkpt lat="48.12276" lon="-1.88123">
        <ele>110</ele>
        <time>2025-05-16T09:59:24Z</time>
      </trkpt>
      <trkpt lat="48.12276" lon="-1.88123">
        <ele>110</ele>
        <time>2025-05-16T09:59:25Z</time>
      </trkpt>
      <trkpt lat="48.12276" lon="-1.88123">
        <ele>110</ele>
        <time>2025-05-16T09:59:26Z</time>
      </trkpt>
      <trkpt lat="48.12276" lon="-1.88123">
        <ele>110</ele>
        <time>2025-05-16T09:59:27Z</time>
      </trkpt>
      <trkpt lat="48.12276" lon="-1.88123">
        <ele>110</ele>
        <time>2025-05-16T09:59:28Z</time>
      </trkpt>
      <trkpt lat="48.12276" lon="-1.88123">
        <ele>110</ele>
        <time>2025-05-16T09:59:29Z</time>
      </trkpt>
      <trkpt lat="48.12276" lon="-1.88123">
        <ele>110</ele>
        <time>2025-05-16T09:59:30Z</time>
      </trkpt>
      <trkpt lat="48.12276" lon="-1.88123">
        <ele>110</ele>
        <time>2025-05-16T09:59:31Z</time>
      </trkpt>
      <trkpt lat="48.12276" lon="-1.88123">
        <ele>110</ele>
        <time>2025-05-16T09:59:32Z</time>
      </trkpt>
      <trkpt lat="48.12276" lon="-1.88123">
        <ele>110</ele>
        <time>2025-05-16T09:59:33Z</time>
      </trkpt>
      <trkpt lat="48.12276" lon="-1.88123">
        <ele>110</ele>
        <time>2025-05-16T09:59:34Z</time>
      </trkpt>
      <trkpt lat="48.12276" lon="-1.88123">
        <ele>110</ele>
        <time>2025-05-16T09:59:35Z</time>
      </trkpt>
      <trkpt lat="48.12276" lon="-1.88123">
        <ele>110</ele>
        <time>2025-05-16T09:59:36Z</time>
      </trkpt>
      <trkpt lat="48.12276" lon="-1.88123">
        <ele>110</ele>
        <time>2025-05-16T09:59:37Z</time>
      </trkpt>
      <trkpt lat="48.12276" lon="-1.88123">
        <ele>110</ele>
        <time>2025-05-16T09:59:38Z</time>
      </trkpt>
      <trkpt lat="48.12276" lon="-1.88123">
        <ele>110</ele>
        <time>2025-05-16T09:59:39Z</time>
      </trkpt>
      <trkpt lat="48.12276" lon="-1.88123">
        <ele>110</ele>
        <time>2025-05-16T09:59:40Z</time>
      </trkpt>
      <trkpt lat="48.12276" lon="-1.88123">
        <ele>110</ele>
        <time>2025-05-16T09:59:41Z</time>
      </trkpt>
      <trkpt lat="48.12276" lon="-1.88123">
        <ele>110</ele>
        <time>2025-05-16T09:59:42Z</time>
      </trkpt>
      <trkpt lat="48.12276" lon="-1.88123">
        <ele>110</ele>
        <time>2025-05-16T09:59:43Z</time>
      </trkpt>
      <trkpt lat="48.12276" lon="-1.88123">
        <ele>110</ele>
        <time>2025-05-16T09:59:44Z</time>
      </trkpt>
      <trkpt lat="48.12276" lon="-1.88123">
        <ele>110</ele>
        <time>2025-05-16T09:59:45Z</time>
      </trkpt>
      <trkpt lat="48.12277" lon="-1.88104">
        <ele>110</ele>
        <time>2025-05-16T10:07:07Z</time>
      </trkpt>
      <trkpt lat="48.12278" lon="-1.88101">
        <ele>109</ele>
        <time>2025-05-16T10:07:08Z</time>
      </trkpt>
      <trkpt lat="48.12278" lon="-1.88096">
        <ele>109</ele>
        <time>2025-05-16T10:07:09Z</time>
      </trkpt>
      <trkpt lat="48.12278" lon="-1.88092">
        <ele>109</ele>
        <time>2025-05-16T10:07:10Z</time>
      </trkpt>
      <trkpt lat="48.12278" lon="-1.88087">
        <ele>109</ele>
        <time>2025-05-16T10:07:11Z</time>
      </trkpt>
      <trkpt lat="48.12279" lon="-1.88082">
        <ele>108</ele>
        <time>2025-05-16T10:07:12Z</time>
      </trkpt>
      <trkpt lat="48.12279" lon="-1.88077">
        <ele>108</ele>
        <time>2025-05-16T10:07:13Z</time>
      </trkpt>
      <trkpt lat="48.12279" lon="-1.88072">
        <ele>108</ele>
        <time>2025-05-16T10:07:14Z</time>
      </trkpt>
      <trkpt lat="48.1228" lon="-1.88066">
        <ele>108</ele>
        <time>2025-05-16T10:07:15Z</time>
      </trkpt>
      <trkpt lat="48.1228" lon="-1.88061">
        <ele>108</ele>
        <time>2025-05-16T10:07:16Z</time>
      </trkpt>
      <trkpt lat="48.1228" lon="-1.88055">
        <ele>108</ele>
        <time>2025-05-16T10:07:17Z</time>
      </trkpt>
      <trkpt lat="48.1228" lon="-1.8805">
        <ele>108</ele>
        <time>2025-05-16T10:07:18Z</time>
      </trkpt>
      <trkpt lat="48.1228" lon="-1.88044">
        <ele>107</ele>
        <time>2025-05-16T10:07:19Z</time>
      </trkpt>
      <trkpt lat="48.1228" lon="-1.88039">
        <ele>107</ele>
        <time>2025-05-16T10:07:20Z</time>
      </trkpt>
      <trkpt lat="48.1228" lon="-1.88033">
        <ele>107</ele>
        <time>2025-05-16T10:07:21Z</time>
      </trkpt>
      <trkpt lat="48.12281" lon="-1.88027">
        <ele>107</ele>
        <time>2025-05-16T10:07:22Z</time>
      </trkpt>
      <trkpt lat="48.12281" lon="-1.88021">
        <ele>107</ele>
        <time>2025-05-16T10:07:23Z</time>
      </trkpt>
      <trkpt lat="48.12281" lon="-1.88014">
        <ele>107</ele>
        <time>2025-05-16T10:07:24Z</time>
      </trkpt>
      <trkpt lat="48.12281" lon="-1.88008">
        <ele>107</ele>
        <time>2025-05-16T10:07:25Z</time>
      </trkpt>
      <trkpt lat="48.12281" lon="-1.88002">
        <ele>107</ele>
        <time>2025-05-16T10:07:26Z</time>
      </trkpt>
      <trkpt lat="48.12281" lon="-1.87996">
        <ele>107</ele>
        <time>2025-05-16T10:07:27Z</time>
      </trkpt>
      <trkpt lat="48.12281" lon="-1.8799">
        <ele>107</ele>
        <time>2025-05-16T10:07:28Z</time>
      </trkpt>
      <trkpt lat="48.12281" lon="-1.87983">
        <ele>107</ele>
        <time>2025-05-16T10:07:29Z</time>
      </trkpt>
      <trkpt lat="48.1228" lon="-1.87977">
        <ele>107</ele>
        <time>2025-05-16T10:07:30Z</time>
      </trkpt>
      <trkpt lat="48.12279" lon="-1.87971">
        <ele>107</ele>
        <time>2025-05-16T10:07:31Z</time>
      </trkpt>
      <trkpt lat="48.12279" lon="-1.87965">
        <ele>107</ele>
        <time>2025-05-16T10:07:32Z</time>
      </trkpt>
      <trkpt lat="48.12279" lon="-1.87959">
        <ele>108</ele>
        <time>2025-05-16T10:07:33Z</time>
      </trkpt>
      <trkpt lat="48.12278" lon="-1.87953">
        <ele>108</ele>
        <time>2025-05-16T10:07:34Z</time>
      </trkpt>
      <trkpt lat="48.12277" lon="-1.87948">
        <ele>108</ele>
        <time>2025-05-16T10:07:35Z</time>
      </trkpt>
      <trkpt lat="48.12277" lon="-1.87942">
        <ele>108</ele>
        <time>2025-05-16T10:07:36Z</time>
      </trkpt>
      <trkpt lat="48.12276" lon="-1.87936">
        <ele>108</ele>
        <time>2025-05-16T10:07:37Z</time>
      </trkpt>
      <trkpt lat="48.12275" lon="-1.87931">
        <ele>108</ele>
        <time>2025-05-16T10:07:38Z</time>
      </trkpt>
      <trkpt lat="48.12274" lon="-1.87926">
        <ele>107</ele>
        <time>2025-05-16T10:07:39Z</time>
      </trkpt>
      <trkpt lat="48.12273" lon="-1.87921">
        <ele>107</ele>
        <time>2025-05-16T10:07:40Z</time>
      </trkpt>
      <trkpt lat="48.12272" lon="-1.87915">
        <ele>107</ele>
        <time>2025-05-16T10:07:41Z</time>
      </trkpt>
      <trkpt lat="48.12271" lon="-1.8791">
        <ele>107</ele>
        <time>2025-05-16T10:07:42Z</time>
      </trkpt>
      <trkpt lat="48.1227" lon="-1.87905">
        <ele>107</ele>
        <time>2025-05-16T10:07:43Z</time>
      </trkpt>
      <trkpt lat="48.12269" lon="-1.879">
        <ele>107</ele>
        <time>2025-05-16T10:07:44Z</time>
      </trkpt>
      <trkpt lat="48.12268" lon="-1.87895">
        <ele>107</ele>
        <time>2025-05-16T10:07:45Z</time>
      </trkpt>
      <trkpt lat="48.12267" lon="-1.8789">
        <ele>107</ele>
        <time>2025-05-16T10:07:46Z</time>
      </trkpt>
      <trkpt lat="48.12266" lon="-1.87885">
        <ele>107</ele>
        <time>2025-05-16T10:07:47Z</time>
      </trkpt>
      <trkpt lat="48.12265" lon="-1.8788">
        <ele>107</ele>
        <time>2025-05-16T10:07:48Z</time>
      </trkpt>
      <trkpt lat="48.12264" lon="-1.87875">
        <ele>107</ele>
        <time>2025-05-16T10:07:49Z</time>
      </trkpt>
      <trkpt lat="48.12263" lon="-1.87869">
        <ele>107</ele>
        <time>2025-05-16T10:07:50Z</time>
      </trkpt>
      <trkpt lat="48.12262" lon="-1.87864">
        <ele>107</ele>
        <time>2025-05-16T10:07:51Z</time>
      </trkpt>
      <trkpt lat="48.12261" lon="-1.87859">
        <ele>107</ele>
        <time>2025-05-16T10:07:52Z</time>
      </trkpt>
      <trkpt lat="48.1226" lon="-1.87853">
        <ele>107</ele>
        <time>2025-05-16T10:07:53Z</time>
      </trkpt>
      <trkpt lat="48.12259" lon="-1.87847">
        <ele>107</ele>
        <time>2025-05-16T10:07:54Z</time>
      </trkpt>
      <trkpt lat="48.12258" lon="-1.87841">
        <ele>108</ele>
        <time>2025-05-16T10:07:55Z</time>
      </trkpt>
      <trkpt lat="48.12257" lon="-1.87836">
        <ele>108</ele>
        <time>2025-05-16T10:07:56Z</time>
      </trkpt>
      <trkpt lat="48.12256" lon="-1.8783">
        <ele>108</ele>
        <time>2025-05-16T10:07:57Z</time>
      </trkpt>
      <trkpt lat="48.12255" lon="-1.87824">
        <ele>107</ele>
        <time>2025-05-16T10:07:58Z</time>
      </trkpt>
      <trkpt lat="48.12254" lon="-1.87818">
        <ele>107</ele>
        <time>2025-05-16T10:07:59Z</time>
      </trkpt>
      <trkpt lat="48.12252" lon="-1.87812">
        <ele>107</ele>
        <time>2025-05-16T10:08:00Z</time>
      </trkpt>
      <trkpt lat="48.12251" lon="-1.87806">
        <ele>107</ele>
        <time>2025-05-16T10:08:01Z</time>
      </trkpt>
      <trkpt lat="48.1225" lon="-1.878">
        <ele>107</ele>
        <time>2025-05-16T10:08:02Z</time>
      </trkpt>
      <trkpt lat="48.12248" lon="-1.87794">
        <ele>107</ele>
        <time>2025-05-16T10:08:03Z</time>
      </trkpt>
      <trkpt lat="48.12247" lon="-1.87788">
        <ele>107</ele>
        <time>2025-05-16T10:08:04Z</time>
      </trkpt>
      <trkpt lat="48.12246" lon="-1.87782">
        <ele>107</ele>
        <time>2025-05-16T10:08:05Z</time>
      </trkpt>
      <trkpt lat="48.12245" lon="-1.87776">
        <ele>107</ele>
        <time>2025-05-16T10:08:06Z</time>
      </trkpt>
      <trkpt lat="48.12244" lon="-1.87769">
        <ele>107</ele>
        <time>2025-05-16T10:08:07Z</time>
      </trkpt>
      <trkpt lat="48.12243" lon="-1.87763">
        <ele>108</ele>
        <time>2025-05-16T10:08:08Z</time>
      </trkpt>
      <trkpt lat="48.12241" lon="-1.87757">
        <ele>108</ele>
        <time>2025-05-16T10:08:09Z</time>
      </trkpt>
      <trkpt lat="48.1224" lon="-1.8775">
        <ele>108</ele>
        <time>2025-05-16T10:08:10Z</time>
      </trkpt>
      <trkpt lat="48.12239" lon="-1.87744">
        <ele>108</ele>
        <time>2025-05-16T10:08:11Z</time>
      </trkpt>
      <trkpt lat="48.12238" lon="-1.87737">
        <ele>107</ele>
        <time>2025-05-16T10:08:12Z</time>
      </trkpt>
      <trkpt lat="48.12236" lon="-1.87731">
        <ele>107</ele>
        <time>2025-05-16T10:08:13Z</time>
      </trkpt>
      <trkpt lat="48.12235" lon="-1.87724">
        <ele>107</ele>
        <time>2025-05-16T10:08:14Z</time>
      </trkpt>
      <trkpt lat="48.12234" lon="-1.87718">
        <ele>107</ele>
        <time>2025-05-16T10:08:15Z</time>
      </trkpt>
      <trkpt lat="48.12233" lon="-1.87712">
        <ele>107</ele>
        <time>2025-05-16T10:08:16Z</time>
      </trkpt>
      <trkpt lat="48.12232" lon="-1.87706">
        <ele>107</ele>
        <time>2025-05-16T10:08:17Z</time>
      </trkpt>
      <trkpt lat="48.12231" lon="-1.877">
        <ele>107</ele>
        <time>2025-05-16T10:08:18Z</time>
      </trkpt>
      <trkpt lat="48.1223" lon="-1.87693">
        <ele>107</ele>
        <time>2025-05-16T10:08:19Z</time>
      </trkpt>
      <trkpt lat="48.12229" lon="-1.87687">
        <ele>106</ele>
        <time>2025-05-16T10:08:20Z</time>
      </trkpt>
      <trkpt lat="48.12228" lon="-1.87681">
        <ele>107</ele>
        <time>2025-05-16T10:08:21Z</time>
      </trkpt>
      <trkpt lat="48.12227" lon="-1.87674">
        <ele>107</ele>
        <time>2025-05-16T10:08:22Z</time>
      </trkpt>
      <trkpt lat="48.12226" lon="-1.87668">
        <ele>107</ele>
        <time>2025-05-16T10:08:23Z</time>
      </trkpt>
      <trkpt lat="48.12225" lon="-1.87662">
        <ele>107</ele>
        <time>2025-05-16T10:08:24Z</time>
      </trkpt>
      <trkpt lat="48.12224" lon="-1.87655">
        <ele>106</ele>
        <time>2025-05-16T10:08:25Z</time>
      </trkpt>
      <trkpt lat="48.12223" lon="-1.87648">
        <ele>106</ele>
        <time>2025-05-16T10:08:26Z</time>
      </trkpt>
      <trkpt lat="48.12222" lon="-1.87642">
        <ele>106</ele>
        <time>2025-05-16T10:08:27Z</time>
      </trkpt>
      <trkpt lat="48.12221" lon="-1.87635">
        <ele>106</ele>
        <time>2025-05-16T10:08:28Z</time>
      </trkpt>
      <trkpt lat="48.1222" lon="-1.87628">
        <ele>106</ele>
        <time>2025-05-16T10:08:29Z</time>
      </trkpt>
      <trkpt lat="48.1222" lon="-1.87621">
        <ele>106</ele>
        <time>2025-05-16T10:08:30Z</time>
      </trkpt>
      <trkpt lat="48.12219" lon="-1.87614">
        <ele>106</ele>
        <time>2025-05-16T10:08:31Z</time>
      </trkpt>
      <trkpt lat="48.12219" lon="-1.87608">
        <ele>107</ele>
        <time>2025-05-16T10:08:32Z</time>
      </trkpt>
      <trkpt lat="48.12218" lon="-1.87601">
        <ele>107</ele>
        <time>2025-05-16T10:08:33Z</time>
      </trkpt>
      <trkpt lat="48.12217" lon="-1.87595">
        <ele>106</ele>
        <time>2025-05-16T10:08:34Z</time>
      </trkpt>
      <trkpt lat="48.12217" lon="-1.87589">
        <ele>106</ele>
        <time>2025-05-16T10:08:35Z</time>
      </trkpt>
      <trkpt lat="48.12216" lon="-1.87583">
        <ele>106</ele>
        <time>2025-05-16T10:08:36Z</time>
      </trkpt>
      <trkpt lat="48.12216" lon="-1.87576">
        <ele>106</ele>
        <time>2025-05-16T10:08:37Z</time>
      </trkpt>
      <trkpt lat="48.12216" lon="-1.8757">
        <ele>106</ele>
        <time>2025-05-16T10:08:38Z</time>
      </trkpt>
      <trkpt lat="48.12215" lon="-1.87563">
        <ele>106</ele>
        <time>2025-05-16T10:08:39Z</time>
      </trkpt>
      <trkpt lat="48.12215" lon="-1.87557">
        <ele>106</ele>
        <time>2025-05-16T10:08:40Z</time>
      </trkpt>
      <trkpt lat="48.12215" lon="-1.87551">
        <ele>106</ele>
        <time>2025-05-16T10:08:41Z</time>
      </trkpt>
      <trkpt lat="48.12214" lon="-1.87545">
        <ele>107</ele>
        <time>2025-05-16T10:08:42Z</time>
      </trkpt>
      <trkpt lat="48.12214" lon="-1.87539">
        <ele>107</ele>
        <time>2025-05-16T10:08:43Z</time>
      </trkpt>
      <trkpt lat="48.12213" lon="-1.87533">
        <ele>107</ele>
        <time>2025-05-16T10:08:44Z</time>
      </trkpt>
      <trkpt lat="48.12213" lon="-1.87527">
        <ele>107</ele>
        <time>2025-05-16T10:08:45Z</time>
      </trkpt>
      <trkpt lat="48.12212" lon="-1.8752">
        <ele>107</ele>
        <time>2025-05-16T10:08:46Z</time>
      </trkpt>
      <trkpt lat="48.12212" lon="-1.87514">
        <ele>106</ele>
        <time>2025-05-16T10:08:47Z</time>
      </trkpt>
      <trkpt lat="48.12211" lon="-1.87508">
        <ele>107</ele>
        <time>2025-05-16T10:08:48Z</time>
      </trkpt>
      <trkpt lat="48.12211" lon="-1.87502">
        <ele>107</ele>
        <time>2025-05-16T10:08:49Z</time>
      </trkpt>
      <trkpt lat="48.12211" lon="-1.87495">
        <ele>108</ele>
        <time>2025-05-16T10:08:50Z</time>
      </trkpt>
      <trkpt lat="48.12211" lon="-1.87489">
        <ele>108</ele>
        <time>2025-05-16T10:08:51Z</time>
      </trkpt>
      <trkpt lat="48.1221" lon="-1.87483">
        <ele>108</ele>
        <time>2025-05-16T10:08:52Z</time>
      </trkpt>
      <trkpt lat="48.1221" lon="-1.87477">
        <ele>108</ele>
        <time>2025-05-16T10:08:53Z</time>
      </trkpt>
      <trkpt lat="48.12209" lon="-1.87471">
        <ele>108</ele>
        <time>2025-05-16T10:08:54Z</time>
      </trkpt>
      <trkpt lat="48.12209" lon="-1.87464">
        <ele>108</ele>
        <time>2025-05-16T10:08:55Z</time>
      </trkpt>
      <trkpt lat="48.12209" lon="-1.87458">
        <ele>108</ele>
        <time>2025-05-16T10:08:56Z</time>
      </trkpt>
      <trkpt lat="48.12208" lon="-1.87451">
        <ele>108</ele>
        <time>2025-05-16T10:08:57Z</time>
      </trkpt>
      <trkpt lat="48.12208" lon="-1.87445">
        <ele>107</ele>
        <time>2025-05-16T10:08:58Z</time>
      </trkpt>
      <trkpt lat="48.12207" lon="-1.87438">
        <ele>107</ele>
        <time>2025-05-16T10:08:59Z</time>
      </trkpt>
      <trkpt lat="48.12207" lon="-1.87432">
        <ele>107</ele>
        <time>2025-05-16T10:09:00Z</time>
      </trkpt>
      <trkpt lat="48.12206" lon="-1.87426">
        <ele>107</ele>
        <time>2025-05-16T10:09:01Z</time>
      </trkpt>
      <trkpt lat="48.12206" lon="-1.8742">
        <ele>107</ele>
        <time>2025-05-16T10:09:02Z</time>
      </trkpt>
      <trkpt lat="48.12205" lon="-1.87414">
        <ele>107</ele>
        <time>2025-05-16T10:09:03Z</time>
      </trkpt>
      <trkpt lat="48.12204" lon="-1.87408">
        <ele>107</ele>
        <time>2025-05-16T10:09:04Z</time>
      </trkpt>
      <trkpt lat="48.12204" lon="-1.87402">
        <ele>107</ele>
        <time>2025-05-16T10:09:05Z</time>
      </trkpt>
      <trkpt lat="48.12203" lon="-1.87396">
        <ele>107</ele>
        <time>2025-05-16T10:09:06Z</time>
      </trkpt>
      <trkpt lat="48.12202" lon="-1.87389">
        <ele>107</ele>
        <time>2025-05-16T10:09:07Z</time>
      </trkpt>
      <trkpt lat="48.122" lon="-1.87383">
        <ele>107</ele>
        <time>2025-05-16T10:09:08Z</time>
      </trkpt>
      <trkpt lat="48.12199" lon="-1.87377">
        <ele>107</ele>
        <time>2025-05-16T10:09:09Z</time>
      </trkpt>
      <trkpt lat="48.12198" lon="-1.87371">
        <ele>107</ele>
        <time>2025-05-16T10:09:10Z</time>
      </trkpt>
      <trkpt lat="48.12196" lon="-1.87366">
        <ele>107</ele>
        <time>2025-05-16T10:09:11Z</time>
      </trkpt>
      <trkpt lat="48.12194" lon="-1.87361">
        <ele>107</ele>
        <time>2025-05-16T10:09:12Z</time>
      </trkpt>
      <trkpt lat="48.12191" lon="-1.87356">
        <ele>107</ele>
        <time>2025-05-16T10:09:13Z</time>
      </trkpt>
      <trkpt lat="48.12189" lon="-1.8735">
        <ele>107</ele>
        <time>2025-05-16T10:09:14Z</time>
      </trkpt>
      <trkpt lat="48.12186" lon="-1.87345">
        <ele>107</ele>
        <time>2025-05-16T10:09:15Z</time>
      </trkpt>
      <trkpt lat="48.12183" lon="-1.8734">
        <ele>107</ele>
        <time>2025-05-16T10:09:16Z</time>
      </trkpt>
      <trkpt lat="48.1218" lon="-1.87335">
        <ele>107</ele>
        <time>2025-05-16T10:09:17Z</time>
      </trkpt>
      <trkpt lat="48.12177" lon="-1.8733">
        <ele>107</ele>
        <time>2025-05-16T10:09:18Z</time>
      </trkpt>
      <trkpt lat="48.12173" lon="-1.87325">
        <ele>107</ele>
        <time>2025-05-16T10:09:19Z</time>
      </trkpt>
      <trkpt lat="48.12169" lon="-1.87319">
        <ele>107</ele>
        <time>2025-05-16T10:09:20Z</time>
      </trkpt>
      <trkpt lat="48.12166" lon="-1.87314">
        <ele>107</ele>
        <time>2025-05-16T10:09:21Z</time>
      </trkpt>
      <trkpt lat="48.12162" lon="-1.87308">
        <ele>106</ele>
        <time>2025-05-16T10:09:22Z</time>
      </trkpt>
      <trkpt lat="48.12159" lon="-1.87303">
        <ele>106</ele>
        <time>2025-05-16T10:09:23Z</time>
      </trkpt>
      <trkpt lat="48.12155" lon="-1.87297">
        <ele>106</ele>
        <time>2025-05-16T10:09:24Z</time>
      </trkpt>
      <trkpt lat="48.12151" lon="-1.87291">
        <ele>106</ele>
        <time>2025-05-16T10:09:25Z</time>
      </trkpt>
      <trkpt lat="48.12147" lon="-1.87285">
        <ele>105</ele>
        <time>2025-05-16T10:09:26Z</time>
      </trkpt>
      <trkpt lat="48.12143" lon="-1.8728">
        <ele>105</ele>
        <time>2025-05-16T10:09:27Z</time>
      </trkpt>
      <trkpt lat="48.12139" lon="-1.87273">
        <ele>105</ele>
        <time>2025-05-16T10:09:28Z</time>
      </trkpt>
      <trkpt lat="48.12136" lon="-1.87267">
        <ele>105</ele>
        <time>2025-05-16T10:09:29Z</time>
      </trkpt>
      <trkpt lat="48.12132" lon="-1.87261">
        <ele>105</ele>
        <time>2025-05-16T10:09:30Z</time>
      </trkpt>
      <trkpt lat="48.12129" lon="-1.87254">
        <ele>105</ele>
        <time>2025-05-16T10:09:31Z</time>
      </trkpt>
      <trkpt lat="48.12126" lon="-1.87248">
        <ele>104</ele>
        <time>2025-05-16T10:09:32Z</time>
      </trkpt>
      <trkpt lat="48.12125" lon="-1.87241">
        <ele>104</ele>
        <time>2025-05-16T10:09:33Z</time>
      </trkpt>
      <trkpt lat="48.12125" lon="-1.87234">
        <ele>104</ele>
        <time>2025-05-16T10:09:34Z</time>
      </trkpt>
      <trkpt lat="48.12128" lon="-1.87227">
        <ele>104</ele>
        <time>2025-05-16T10:09:35Z</time>
      </trkpt>
      <trkpt lat="48.12131" lon="-1.87221">
        <ele>103</ele>
        <time>2025-05-16T10:09:36Z</time>
      </trkpt>
      <trkpt lat="48.12136" lon="-1.87216">
        <ele>103</ele>
        <time>2025-05-16T10:09:37Z</time>
      </trkpt>
      <trkpt lat="48.1214" lon="-1.87211">
        <ele>103</ele>
        <time>2025-05-16T10:09:38Z</time>
      </trkpt>
      <trkpt lat="48.12144" lon="-1.87206">
        <ele>103</ele>
        <time>2025-05-16T10:09:39Z</time>
      </trkpt>
      <trkpt lat="48.12148" lon="-1.87202">
        <ele>103</ele>
        <time>2025-05-16T10:09:40Z</time>
      </trkpt>
      <trkpt lat="48.12151" lon="-1.87196">
        <ele>103</ele>
        <time>2025-05-16T10:09:41Z</time>
      </trkpt>
      <trkpt lat="48.12156" lon="-1.87192">
        <ele>103</ele>
        <time>2025-05-16T10:09:42Z</time>
      </trkpt>
      <trkpt lat="48.1216" lon="-1.87187">
        <ele>103</ele>
        <time>2025-05-16T10:09:43Z</time>
      </trkpt>
      <trkpt lat="48.12163" lon="-1.87182">
        <ele>103</ele>
        <time>2025-05-16T10:09:44Z</time>
      </trkpt>
      <trkpt lat="48.12168" lon="-1.87177">
        <ele>103</ele>
        <time>2025-05-16T10:09:45Z</time>
      </trkpt>
      <trkpt lat="48.12172" lon="-1.87172">
        <ele>103</ele>
        <time>2025-05-16T10:09:46Z</time>
      </trkpt>
      <trkpt lat="48.12176" lon="-1.87166">
        <ele>102</ele>
        <time>2025-05-16T10:09:47Z</time>
      </trkpt>
      <trkpt lat="48.12179" lon="-1.87159">
        <ele>102</ele>
        <time>2025-05-16T10:09:48Z</time>
      </trkpt>
      <trkpt lat="48.12183" lon="-1.87152">
        <ele>102</ele>
        <time>2025-05-16T10:09:49Z</time>
      </trkpt>
      <trkpt lat="48.12186" lon="-1.87145">
        <ele>101</ele>
        <time>2025-05-16T10:09:50Z</time>
      </trkpt>
      <trkpt lat="48.12188" lon="-1.87137">
        <ele>101</ele>
        <time>2025-05-16T10:09:51Z</time>
      </trkpt>
      <trkpt lat="48.12189" lon="-1.87128">
        <ele>101</ele>
        <time>2025-05-16T10:09:52Z</time>
      </trkpt>
      <trkpt lat="48.1219" lon="-1.87119">
        <ele>101</ele>
        <time>2025-05-16T10:09:53Z</time>
      </trkpt>
      <trkpt lat="48.12192" lon="-1.8711">
        <ele>101</ele>
        <time>2025-05-16T10:09:54Z</time>
      </trkpt>
      <trkpt lat="48.12193" lon="-1.871">
        <ele>101</ele>
        <time>2025-05-16T10:09:55Z</time>
      </trkpt>
      <trkpt lat="48.12195" lon="-1.87091">
        <ele>100</ele>
        <time>2025-05-16T10:09:56Z</time>
      </trkpt>
      <trkpt lat="48.12196" lon="-1.87081">
        <ele>100</ele>
        <time>2025-05-16T10:09:57Z</time>
      </trkpt>
      <trkpt lat="48.12198" lon="-1.8707">
        <ele>100</ele>
        <time>2025-05-16T10:09:58Z</time>
      </trkpt>
      <trkpt lat="48.12199" lon="-1.8706">
        <ele>100</ele>
        <time>2025-05-16T10:09:59Z</time>
      </trkpt>
      <trkpt lat="48.12201" lon="-1.87051">
        <ele>100</ele>
        <time>2025-05-16T10:10:00Z</time>
      </trkpt>
      <trkpt lat="48.12203" lon="-1.87041">
        <ele>100</ele>
        <time>2025-05-16T10:10:01Z</time>
      </trkpt>
      <trkpt lat="48.12205" lon="-1.87032">
        <ele>100</ele>
        <time>2025-05-16T10:10:02Z</time>
      </trkpt>
      <trkpt lat="48.12208" lon="-1.87023">
        <ele>100</ele>
        <time>2025-05-16T10:10:03Z</time>
      </trkpt>
      <trkpt lat="48.12211" lon="-1.87014">
        <ele>100</ele>
        <time>2025-05-16T10:10:04Z</time>
      </trkpt>
      <trkpt lat="48.12214" lon="-1.87005">
        <ele>100</ele>
        <time>2025-05-16T10:10:05Z</time>
      </trkpt>
      <trkpt lat="48.12217" lon="-1.86997">
        <ele>99</ele>
        <time>2025-05-16T10:10:06Z</time>
      </trkpt>
      <trkpt lat="48.1222" lon="-1.86989">
        <ele>100</ele>
        <time>2025-05-16T10:10:07Z</time>
      </trkpt>
      <trkpt lat="48.12224" lon="-1.86981">
        <ele>100</ele>
        <time>2025-05-16T10:10:08Z</time>
      </trkpt>
      <trkpt lat="48.12227" lon="-1.86973">
        <ele>100</ele>
        <time>2025-05-16T10:10:09Z</time>
      </trkpt>
      <trkpt lat="48.12231" lon="-1.86966">
        <ele>100</ele>
        <time>2025-05-16T10:10:10Z</time>
      </trkpt>
      <trkpt lat="48.12234" lon="-1.86958">
        <ele>100</ele>
        <time>2025-05-16T10:10:11Z</time>
      </trkpt>
      <trkpt lat="48.12236" lon="-1.8695">
        <ele>100</ele>
        <time>2025-05-16T10:10:12Z</time>
      </trkpt>
      <trkpt lat="48.12238" lon="-1.86942">
        <ele>100</ele>
        <time>2025-05-16T10:10:13Z</time>
      </trkpt>
      <trkpt lat="48.1224" lon="-1.86934">
        <ele>100</ele>
        <time>2025-05-16T10:10:14Z</time>
      </trkpt>
      <trkpt lat="48.12242" lon="-1.86926">
        <ele>100</ele>
        <time>2025-05-16T10:10:15Z</time>
      </trkpt>
      <trkpt lat="48.12244" lon="-1.86918">
        <ele>99</ele>
        <time>2025-05-16T10:10:16Z</time>
      </trkpt>
      <trkpt lat="48.12246" lon="-1.8691">
        <ele>99</ele>
        <time>2025-05-16T10:10:17Z</time>
      </trkpt>
      <trkpt lat="48.12248" lon="-1.86902">
        <ele>99</ele>
        <time>2025-05-16T10:10:18Z</time>
      </trkpt>
      <trkpt lat="48.12249" lon="-1.86894">
        <ele>98</ele>
        <time>2025-05-16T10:10:19Z</time>
      </trkpt>
      <trkpt lat="48.1225" lon="-1.86886">
        <ele>98</ele>
        <time>2025-05-16T10:10:20Z</time>
      </trkpt>
      <trkpt lat="48.12252" lon="-1.86878">
        <ele>98</ele>
        <time>2025-05-16T10:10:21Z</time>
      </trkpt>
      <trkpt lat="48.12254" lon="-1.8687">
        <ele>99</ele>
        <time>2025-05-16T10:10:22Z</time>
      </trkpt>
      <trkpt lat="48.12257" lon="-1.86862">
        <ele>99</ele>
        <time>2025-05-16T10:10:23Z</time>
      </trkpt>
      <trkpt lat="48.12259" lon="-1.86855">
        <ele>99</ele>
        <time>2025-05-16T10:10:24Z</time>
      </trkpt>
      <trkpt lat="48.12261" lon="-1.86847">
        <ele>99</ele>
        <time>2025-05-16T10:10:25Z</time>
      </trkpt>
      <trkpt lat="48.12263" lon="-1.86839">
        <ele>99</ele>
        <time>2025-05-16T10:10:26Z</time>
      </trkpt>
      <trkpt lat="48.12264" lon="-1.86831">
        <ele>99</ele>
        <time>2025-05-16T10:10:27Z</time>
      </trkpt>
      <trkpt lat="48.12265" lon="-1.86823">
        <ele>99</ele>
        <time>2025-05-16T10:10:28Z</time>
      </trkpt>
      <trkpt lat="48.12265" lon="-1.86815">
        <ele>98</ele>
        <time>2025-05-16T10:10:29Z</time>
      </trkpt>
      <trkpt lat="48.12265" lon="-1.86807">
        <ele>98</ele>
        <time>2025-05-16T10:10:30Z</time>
      </trkpt>
      <trkpt lat="48.12265" lon="-1.86799">
        <ele>98</ele>
        <time>2025-05-16T10:10:31Z</time>
      </trkpt>
      <trkpt lat="48.12264" lon="-1.86791">
        <ele>97</ele>
        <time>2025-05-16T10:10:32Z</time>
      </trkpt>
      <trkpt lat="48.12264" lon="-1.86783">
        <ele>97</ele>
        <time>2025-05-16T10:10:33Z</time>
      </trkpt>
      <trkpt lat="48.12264" lon="-1.86775">
        <ele>96</ele>
        <time>2025-05-16T10:10:34Z</time>
      </trkpt>
      <trkpt lat="48.12264" lon="-1.86767">
        <ele>96</ele>
        <time>2025-05-16T10:10:35Z</time>
      </trkpt>
      <trkpt lat="48.12264" lon="-1.86759">
        <ele>96</ele>
        <time>2025-05-16T10:10:36Z</time>
      </trkpt>
      <trkpt lat="48.12265" lon="-1.86751">
        <ele>96</ele>
        <time>2025-05-16T10:10:37Z</time>
      </trkpt>
      <trkpt lat="48.12265" lon="-1.86743">
        <ele>96</ele>
        <time>2025-05-16T10:10:38Z</time>
      </trkpt>
      <trkpt lat="48.12266" lon="-1.86735">
        <ele>96</ele>
        <time>2025-05-16T10:10:39Z</time>
      </trkpt>
      <trkpt lat="48.12266" lon="-1.86727">
        <ele>96</ele>
        <time>2025-05-16T10:10:40Z</time>
      </trkpt>
      <trkpt lat="48.12267" lon="-1.86718">
        <ele>96</ele>
        <time>2025-05-16T10:10:41Z</time>
      </trkpt>
      <trkpt lat="48.12268" lon="-1.8671">
        <ele>96</ele>
        <time>2025-05-16T10:10:42Z</time>
      </trkpt>
      <trkpt lat="48.1227" lon="-1.86703">
        <ele>96</ele>
        <time>2025-05-16T10:10:43Z</time>
      </trkpt>
      <trkpt lat="48.12271" lon="-1.86694">
        <ele>96</ele>
        <time>2025-05-16T10:10:44Z</time>
      </trkpt>
      <trkpt lat="48.12274" lon="-1.86686">
        <ele>96</ele>
        <time>2025-05-16T10:10:45Z</time>
      </trkpt>
      <trkpt lat="48.12276" lon="-1.86678">
        <ele>96</ele>
        <time>2025-05-16T10:10:46Z</time>
      </trkpt>
      <trkpt lat="48.12279" lon="-1.8667">
        <ele>95</ele>
        <time>2025-05-16T10:10:47Z</time>
      </trkpt>
      <trkpt lat="48.12281" lon="-1.86663">
        <ele>95</ele>
        <time>2025-05-16T10:10:48Z</time>
      </trkpt>
      <trkpt lat="48.12284" lon="-1.86656">
        <ele>96</ele>
        <time>2025-05-16T10:10:49Z</time>
      </trkpt>
      <trkpt lat="48.12287" lon="-1.86648">
        <ele>96</ele>
        <time>2025-05-16T10:10:50Z</time>
      </trkpt>
      <trkpt lat="48.1229" lon="-1.86641">
        <ele>95</ele>
        <time>2025-05-16T10:10:51Z</time>
      </trkpt>
      <trkpt lat="48.12293" lon="-1.86633">
        <ele>95</ele>
        <time>2025-05-16T10:10:52Z</time>
      </trkpt>
      <trkpt lat="48.12296" lon="-1.86626">
        <ele>95</ele>
        <time>2025-05-16T10:10:53Z</time>
      </trkpt>
      <trkpt lat="48.12298" lon="-1.86619">
        <ele>94</ele>
        <time>2025-05-16T10:10:54Z</time>
      </trkpt>
      <trkpt lat="48.12301" lon="-1.86611">
        <ele>94</ele>
        <time>2025-05-16T10:10:55Z</time>
      </trkpt>
      <trkpt lat="48.12303" lon="-1.86604">
        <ele>95</ele>
        <time>2025-05-16T10:10:56Z</time>
      </trkpt>
      <trkpt lat="48.12306" lon="-1.86597">
        <ele>95</ele>
        <time>2025-05-16T10:10:57Z</time>
      </trkpt>
      <trkpt lat="48.12309" lon="-1.86591">
        <ele>94</ele>
        <time>2025-05-16T10:10:58Z</time>
      </trkpt>
      <trkpt lat="48.12311" lon="-1.86584">
        <ele>95</ele>
        <time>2025-05-16T10:10:59Z</time>
      </trkpt>
      <trkpt lat="48.12312" lon="-1.86576">
        <ele>95</ele>
        <time>2025-05-16T10:11:00Z</time>
      </trkpt>
      <trkpt lat="48.12313" lon="-1.86568">
        <ele>94</ele>
        <time>2025-05-16T10:11:01Z</time>
      </trkpt>
      <trkpt lat="48.12312" lon="-1.86561">
        <ele>94</ele>
        <time>2025-05-16T10:11:02Z</time>
      </trkpt>
      <trkpt lat="48.12311" lon="-1.86554">
        <ele>95</ele>
        <time>2025-05-16T10:11:03Z</time>
      </trkpt>
      <trkpt lat="48.1231" lon="-1.86547">
        <ele>94</ele>
        <time>2025-05-16T10:11:04Z</time>
      </trkpt>
      <trkpt lat="48.1231" lon="-1.86539">
        <ele>94</ele>
        <time>2025-05-16T10:11:05Z</time>
      </trkpt>
      <trkpt lat="48.12311" lon="-1.86531">
        <ele>94</ele>
        <time>2025-05-16T10:11:06Z</time>
      </trkpt>
      <trkpt lat="48.12312" lon="-1.86523">
        <ele>94</ele>
        <time>2025-05-16T10:11:07Z</time>
      </trkpt>
      <trkpt lat="48.12312" lon="-1.86515">
        <ele>94</ele>
        <time>2025-05-16T10:11:08Z</time>
      </trkpt>
      <trkpt lat="48.12312" lon="-1.86507">
        <ele>94</ele>
        <time>2025-05-16T10:11:09Z</time>
      </trkpt>
      <trkpt lat="48.12312" lon="-1.86499">
        <ele>94</ele>
        <time>2025-05-16T10:11:10Z</time>
      </trkpt>
      <trkpt lat="48.12312" lon="-1.86491">
        <ele>93</ele>
        <time>2025-05-16T10:11:11Z</time>
      </trkpt>
      <trkpt lat="48.12311" lon="-1.86483">
        <ele>93</ele>
        <time>2025-05-16T10:11:12Z</time>
      </trkpt>
      <trkpt lat="48.12311" lon="-1.86476">
        <ele>92</ele>
        <time>2025-05-16T10:11:13Z</time>
      </trkpt>
      <trkpt lat="48.12311" lon="-1.86469">
        <ele>92</ele>
        <time>2025-05-16T10:11:14Z</time>
      </trkpt>
      <trkpt lat="48.12311" lon="-1.86462">
        <ele>92</ele>
        <time>2025-05-16T10:11:15Z</time>
      </trkpt>
      <trkpt lat="48.12311" lon="-1.86454">
        <ele>92</ele>
        <time>2025-05-16T10:11:16Z</time>
      </trkpt>
      <trkpt lat="48.1231" lon="-1.86447">
        <ele>93</ele>
        <time>2025-05-16T10:11:17Z</time>
      </trkpt>
      <trkpt lat="48.1231" lon="-1.8644">
        <ele>93</ele>
        <time>2025-05-16T10:11:18Z</time>
      </trkpt>
      <trkpt lat="48.12309" lon="-1.86433">
        <ele>93</ele>
        <time>2025-05-16T10:11:19Z</time>
      </trkpt>
      <trkpt lat="48.12309" lon="-1.86426">
        <ele>94</ele>
        <time>2025-05-16T10:11:20Z</time>
      </trkpt>
      <trkpt lat="48.12309" lon="-1.86419">
        <ele>94</ele>
        <time>2025-05-16T10:11:21Z</time>
      </trkpt>
      <trkpt lat="48.12309" lon="-1.86412">
        <ele>96</ele>
        <time>2025-05-16T10:11:22Z</time>
      </trkpt>
      <trkpt lat="48.1231" lon="-1.86406">
        <ele>96</ele>
        <time>2025-05-16T10:11:23Z</time>
      </trkpt>
      <trkpt lat="48.1231" lon="-1.864">
        <ele>95</ele>
        <time>2025-05-16T10:11:24Z</time>
      </trkpt>
      <trkpt lat="48.1231" lon="-1.86395">
        <ele>95</ele>
        <time>2025-05-16T10:11:25Z</time>
      </trkpt>
      <trkpt lat="48.1231" lon="-1.8639">
        <ele>94</ele>
        <time>2025-05-16T10:11:26Z</time>
      </trkpt>
      <trkpt lat="48.1231" lon="-1.86385">
        <ele>94</ele>
        <time>2025-05-16T10:11:27Z</time>
      </trkpt>
      <trkpt lat="48.12309" lon="-1.86381">
        <ele>94</ele>
        <time>2025-05-16T10:11:28Z</time>
      </trkpt>
      <trkpt lat="48.12307" lon="-1.86378">
        <ele>95</ele>
        <time>2025-05-16T10:11:29Z</time>
      </trkpt>
      <trkpt lat="48.12306" lon="-1.86374">
        <ele>95</ele>
        <time>2025-05-16T10:11:30Z</time>
      </trkpt>
      <trkpt lat="48.12305" lon="-1.8637">
        <ele>95</ele>
        <time>2025-05-16T10:11:31Z</time>
      </trkpt>
      <trkpt lat="48.12304" lon="-1.86365">
        <ele>95</ele>
        <time>2025-05-16T10:11:32Z</time>
      </trkpt>
      <trkpt lat="48.12304" lon="-1.8636">
        <ele>95</ele>
        <time>2025-05-16T10:11:33Z</time>
      </trkpt>
      <trkpt lat="48.12305" lon="-1.86355">
        <ele>96</ele>
        <time>2025-05-16T10:11:34Z</time>
      </trkpt>
      <trkpt lat="48.12305" lon="-1.86349">
        <ele>95</ele>
        <time>2025-05-16T10:11:35Z</time>
      </trkpt>
      <trkpt lat="48.12304" lon="-1.86344">
        <ele>95</ele>
        <time>2025-05-16T10:11:36Z</time>
      </trkpt>
      <trkpt lat="48.12304" lon="-1.86339">
        <ele>96</ele>
        <time>2025-05-16T10:11:37Z</time>
      </trkpt>
      <trkpt lat="48.12304" lon="-1.86333">
        <ele>96</ele>
        <time>2025-05-16T10:11:38Z</time>
      </trkpt>
      <trkpt lat="48.12304" lon="-1.86328">
        <ele>96</ele>
        <time>2025-05-16T10:11:39Z</time>
      </trkpt>
      <trkpt lat="48.12304" lon="-1.86323">
        <ele>96</ele>
        <time>2025-05-16T10:11:40Z</time>
      </trkpt>
      <trkpt lat="48.12304" lon="-1.86318">
        <ele>97</ele>
        <time>2025-05-16T10:11:41Z</time>
      </trkpt>
      <trkpt lat="48.12304" lon="-1.86313">
        <ele>97</ele>
        <time>2025-05-16T10:11:42Z</time>
      </trkpt>
      <trkpt lat="48.12304" lon="-1.86308">
        <ele>96</ele>
        <time>2025-05-16T10:11:43Z</time>
      </trkpt>
      <trkpt lat="48.12304" lon="-1.86304">
        <ele>97</ele>
        <time>2025-05-16T10:11:44Z</time>
      </trkpt>
      <trkpt lat="48.12304" lon="-1.86299">
        <ele>97</ele>
        <time>2025-05-16T10:11:45Z</time>
      </trkpt>
      <trkpt lat="48.12304" lon="-1.86294">
        <ele>97</ele>
        <time>2025-05-16T10:11:46Z</time>
      </trkpt>
      <trkpt lat="48.12304" lon="-1.8629">
        <ele>97</ele>
        <time>2025-05-16T10:11:47Z</time>
      </trkpt>
      <trkpt lat="48.12304" lon="-1.86286">
        <ele>97</ele>
        <time>2025-05-16T10:11:48Z</time>
      </trkpt>
      <trkpt lat="48.12303" lon="-1.86281">
        <ele>98</ele>
        <time>2025-05-16T10:11:49Z</time>
      </trkpt>
      <trkpt lat="48.12303" lon="-1.86276">
        <ele>97</ele>
        <time>2025-05-16T10:11:50Z</time>
      </trkpt>
      <trkpt lat="48.12302" lon="-1.86271">
        <ele>97</ele>
        <time>2025-05-16T10:11:51Z</time>
      </trkpt>
      <trkpt lat="48.12302" lon="-1.86266">
        <ele>97</ele>
        <time>2025-05-16T10:11:52Z</time>
      </trkpt>
      <trkpt lat="48.12302" lon="-1.86261">
        <ele>97</ele>
        <time>2025-05-16T10:11:53Z</time>
      </trkpt>
      <trkpt lat="48.12302" lon="-1.86256">
        <ele>97</ele>
        <time>2025-05-16T10:11:54Z</time>
      </trkpt>
      <trkpt lat="48.12302" lon="-1.86251">
        <ele>96</ele>
        <time>2025-05-16T10:11:55Z</time>
      </trkpt>
      <trkpt lat="48.12302" lon="-1.86245">
        <ele>96</ele>
        <time>2025-05-16T10:11:56Z</time>
      </trkpt>
      <trkpt lat="48.12303" lon="-1.86241">
        <ele>96</ele>
        <time>2025-05-16T10:11:57Z</time>
      </trkpt>
      <trkpt lat="48.12302" lon="-1.86236">
        <ele>96</ele>
        <time>2025-05-16T10:11:58Z</time>
      </trkpt>
      <trkpt lat="48.12302" lon="-1.86231">
        <ele>96</ele>
        <time>2025-05-16T10:11:59Z</time>
      </trkpt>
      <trkpt lat="48.12302" lon="-1.86226">
        <ele>96</ele>
        <time>2025-05-16T10:12:00Z</time>
      </trkpt>
      <trkpt lat="48.12302" lon="-1.86221">
        <ele>96</ele>
        <time>2025-05-16T10:12:01Z</time>
      </trkpt>
      <trkpt lat="48.12302" lon="-1.86215">
        <ele>97</ele>
        <time>2025-05-16T10:12:02Z</time>
      </trkpt>
      <trkpt lat="48.12302" lon="-1.8621">
        <ele>96</ele>
        <time>2025-05-16T10:12:03Z</time>
      </trkpt>
      <trkpt lat="48.12302" lon="-1.86206">
        <ele>97</ele>
        <time>2025-05-16T10:12:04Z</time>
      </trkpt>
      <trkpt lat="48.12302" lon="-1.86201">
        <ele>97</ele>
        <time>2025-05-16T10:12:05Z</time>
      </trkpt>
      <trkpt lat="48.12302" lon="-1.86196">
        <ele>98</ele>
        <time>2025-05-16T10:12:06Z</time>
      </trkpt>
      <trkpt lat="48.12302" lon="-1.86192">
        <ele>98</ele>
        <time>2025-05-16T10:12:07Z</time>
      </trkpt>
      <trkpt lat="48.12302" lon="-1.86188">
        <ele>99</ele>
        <time>2025-05-16T10:12:08Z</time>
      </trkpt>
      <trkpt lat="48.12302" lon="-1.86183">
        <ele>99</ele>
        <time>2025-05-16T10:12:09Z</time>
      </trkpt>
      <trkpt lat="48.12302" lon="-1.86178">
        <ele>98</ele>
        <time>2025-05-16T10:12:10Z</time>
      </trkpt>
      <trkpt lat="48.12302" lon="-1.86174">
        <ele>98</ele>
        <time>2025-05-16T10:12:11Z</time>
      </trkpt>
      <trkpt lat="48.12302" lon="-1.86169">
        <ele>97</ele>
        <time>2025-05-16T10:12:12Z</time>
      </trkpt>
      <trkpt lat="48.12302" lon="-1.86164">
        <ele>97</ele>
        <time>2025-05-16T10:12:13Z</time>
      </trkpt>
      <trkpt lat="48.12301" lon="-1.8616">
        <ele>96</ele>
        <time>2025-05-16T10:12:14Z</time>
      </trkpt>
      <trkpt lat="48.123" lon="-1.86157">
        <ele>96</ele>
        <time>2025-05-16T10:12:15Z</time>
      </trkpt>
      <trkpt lat="48.12297" lon="-1.86154">
        <ele>97</ele>
        <time>2025-05-16T10:12:16Z</time>
      </trkpt>
      <trkpt lat="48.12294" lon="-1.86151">
        <ele>97</ele>
        <time>2025-05-16T10:12:17Z</time>
      </trkpt>
      <trkpt lat="48.12292" lon="-1.86148">
        <ele>97</ele>
        <time>2025-05-16T10:12:18Z</time>
      </trkpt>
      <trkpt lat="48.12291" lon="-1.86143">
        <ele>97</ele>
        <time>2025-05-16T10:12:19Z</time>
      </trkpt>
      <trkpt lat="48.1229" lon="-1.86138">
        <ele>97</ele>
        <time>2025-05-16T10:12:20Z</time>
      </trkpt>
      <trkpt lat="48.12289" lon="-1.86132">
        <ele>97</ele>
        <time>2025-05-16T10:12:21Z</time>
      </trkpt>
      <trkpt lat="48.12289" lon="-1.86127">
        <ele>97</ele>
        <time>2025-05-16T10:12:22Z</time>
      </trkpt>
      <trkpt lat="48.12288" lon="-1.86123">
        <ele>96</ele>
        <time>2025-05-16T10:12:23Z</time>
      </trkpt>
      <trkpt lat="48.12288" lon="-1.86118">
        <ele>96</ele>
        <time>2025-05-16T10:12:24Z</time>
      </trkpt>
      <trkpt lat="48.1229" lon="-1.86114">
        <ele>96</ele>
        <time>2025-05-16T10:12:25Z</time>
      </trkpt>
      <trkpt lat="48.12292" lon="-1.86111">
        <ele>97</ele>
        <time>2025-05-16T10:12:26Z</time>
      </trkpt>
      <trkpt lat="48.12293" lon="-1.86107">
        <ele>96</ele>
        <time>2025-05-16T10:12:27Z</time>
      </trkpt>
      <trkpt lat="48.12295" lon="-1.86103">
        <ele>96</ele>
        <time>2025-05-16T10:12:28Z</time>
      </trkpt>
      <trkpt lat="48.12297" lon="-1.861">
        <ele>96</ele>
        <time>2025-05-16T10:12:29Z</time>
      </trkpt>
      <trkpt lat="48.12298" lon="-1.86095">
        <ele>97</ele>
        <time>2025-05-16T10:12:30Z</time>
      </trkpt>
      <trkpt lat="48.12299" lon="-1.8609">
        <ele>97</ele>
        <time>2025-05-16T10:12:31Z</time>
      </trkpt>
      <trkpt lat="48.12299" lon="-1.86085">
        <ele>97</ele>
        <time>2025-05-16T10:12:32Z</time>
      </trkpt>
      <trkpt lat="48.123" lon="-1.8608">
        <ele>98</ele>
        <time>2025-05-16T10:12:33Z</time>
      </trkpt>
      <trkpt lat="48.123" lon="-1.86075">
        <ele>98</ele>
        <time>2025-05-16T10:12:34Z</time>
      </trkpt>
      <trkpt lat="48.12299" lon="-1.8607">
        <ele>99</ele>
        <time>2025-05-16T10:12:35Z</time>
      </trkpt>
      <trkpt lat="48.12299" lon="-1.86065">
        <ele>99</ele>
        <time>2025-05-16T10:12:36Z</time>
      </trkpt>
      <trkpt lat="48.12299" lon="-1.8606">
        <ele>99</ele>
        <time>2025-05-16T10:12:37Z</time>
      </trkpt>
      <trkpt lat="48.12299" lon="-1.86055">
        <ele>99</ele>
        <time>2025-05-16T10:12:38Z</time>
      </trkpt>
      <trkpt lat="48.12299" lon="-1.8605">
        <ele>99</ele>
        <time>2025-05-16T10:12:39Z</time>
      </trkpt>
      <trkpt lat="48.12299" lon="-1.86045">
        <ele>99</ele>
        <time>2025-05-16T10:12:40Z</time>
      </trkpt>
      <trkpt lat="48.12299" lon="-1.86041">
        <ele>99</ele>
        <time>2025-05-16T10:12:41Z</time>
      </trkpt>
      <trkpt lat="48.12299" lon="-1.86036">
        <ele>99</ele>
        <time>2025-05-16T10:12:42Z</time>
      </trkpt>
      <trkpt lat="48.12299" lon="-1.86032">
        <ele>99</ele>
        <time>2025-05-16T10:12:43Z</time>
      </trkpt>
      <trkpt lat="48.123" lon="-1.86027">
        <ele>99</ele>
        <time>2025-05-16T10:12:44Z</time>
      </trkpt>
      <trkpt lat="48.12299" lon="-1.86022">
        <ele>99</ele>
        <time>2025-05-16T10:12:45Z</time>
      </trkpt>
      <trkpt lat="48.12299" lon="-1.86017">
        <ele>100</ele>
        <time>2025-05-16T10:12:46Z</time>
      </trkpt>
      <trkpt lat="48.12299" lon="-1.86012">
        <ele>100</ele>
        <time>2025-05-16T10:12:47Z</time>
      </trkpt>
      <trkpt lat="48.12299" lon="-1.86008">
        <ele>99</ele>
        <time>2025-05-16T10:12:48Z</time>
      </trkpt>
      <trkpt lat="48.12299" lon="-1.86004">
        <ele>99</ele>
        <time>2025-05-16T10:12:49Z</time>
      </trkpt>
      <trkpt lat="48.12298" lon="-1.85999">
        <ele>99</ele>
        <time>2025-05-16T10:12:50Z</time>
      </trkpt>
      <trkpt lat="48.12298" lon="-1.85994">
        <ele>100</ele>
        <time>2025-05-16T10:12:51Z</time>
      </trkpt>
      <trkpt lat="48.12298" lon="-1.8599">
        <ele>100</ele>
        <time>2025-05-16T10:12:52Z</time>
      </trkpt>
      <trkpt lat="48.12298" lon="-1.85985">
        <ele>100</ele>
        <time>2025-05-16T10:12:53Z</time>
      </trkpt>
      <trkpt lat="48.12298" lon="-1.85981">
        <ele>100</ele>
        <time>2025-05-16T10:12:54Z</time>
      </trkpt>
      <trkpt lat="48.12298" lon="-1.85976">
        <ele>100</ele>
        <time>2025-05-16T10:12:55Z</time>
      </trkpt>
      <trkpt lat="48.12298" lon="-1.85971">
        <ele>100</ele>
        <time>2025-05-16T10:12:56Z</time>
      </trkpt>
      <trkpt lat="48.12299" lon="-1.85967">
        <ele>100</ele>
        <time>2025-05-16T10:12:57Z</time>
      </trkpt>
      <trkpt lat="48.12299" lon="-1.85962">
        <ele>100</ele>
        <time>2025-05-16T10:12:58Z</time>
      </trkpt>
      <trkpt lat="48.12299" lon="-1.85957">
        <ele>101</ele>
        <time>2025-05-16T10:12:59Z</time>
      </trkpt>
      <trkpt lat="48.12299" lon="-1.85953">
        <ele>100</ele>
        <time>2025-05-16T10:13:00Z</time>
      </trkpt>
      <trkpt lat="48.12299" lon="-1.85948">
        <ele>100</ele>
        <time>2025-05-16T10:13:01Z</time>
      </trkpt>
      <trkpt lat="48.12299" lon="-1.85943">
        <ele>100</ele>
        <time>2025-05-16T10:13:02Z</time>
      </trkpt>
      <trkpt lat="48.12299" lon="-1.85939">
        <ele>100</ele>
        <time>2025-05-16T10:13:03Z</time>
      </trkpt>
      <trkpt lat="48.12299" lon="-1.85934">
        <ele>100</ele>
        <time>2025-05-16T10:13:04Z</time>
      </trkpt>
      <trkpt lat="48.12299" lon="-1.85929">
        <ele>100</ele>
        <time>2025-05-16T10:13:05Z</time>
      </trkpt>
      <trkpt lat="48.12298" lon="-1.85924">
        <ele>100</ele>
        <time>2025-05-16T10:13:06Z</time>
      </trkpt>
      <trkpt lat="48.12298" lon="-1.8592">
        <ele>101</ele>
        <time>2025-05-16T10:13:07Z</time>
      </trkpt>
      <trkpt lat="48.12298" lon="-1.85915">
        <ele>101</ele>
        <time>2025-05-16T10:13:08Z</time>
      </trkpt>
      <trkpt lat="48.12298" lon="-1.8591">
        <ele>101</ele>
        <time>2025-05-16T10:13:09Z</time>
      </trkpt>
      <trkpt lat="48.12298" lon="-1.85906">
        <ele>101</ele>
        <time>2025-05-16T10:13:10Z</time>
      </trkpt>
      <trkpt lat="48.12298" lon="-1.85901">
        <ele>100</ele>
        <time>2025-05-16T10:13:11Z</time>
      </trkpt>
      <trkpt lat="48.12298" lon="-1.85896">
        <ele>100</ele>
        <time>2025-05-16T10:13:12Z</time>
      </trkpt>
      <trkpt lat="48.12298" lon="-1.85891">
        <ele>100</ele>
        <time>2025-05-16T10:13:13Z</time>
      </trkpt>
      <trkpt lat="48.12298" lon="-1.85886">
        <ele>100</ele>
        <time>2025-05-16T10:13:14Z</time>
      </trkpt>
      <trkpt lat="48.12297" lon="-1.85881">
        <ele>100</ele>
        <time>2025-05-16T10:13:15Z</time>
      </trkpt>
      <trkpt lat="48.12297" lon="-1.85876">
        <ele>101</ele>
        <time>2025-05-16T10:13:16Z</time>
      </trkpt>
      <trkpt lat="48.12297" lon="-1.85871">
        <ele>101</ele>
        <time>2025-05-16T10:13:17Z</time>
      </trkpt>
      <trkpt lat="48.12298" lon="-1.85866">
        <ele>101</ele>
        <time>2025-05-16T10:13:18Z</time>
      </trkpt>
      <trkpt lat="48.12298" lon="-1.8586">
        <ele>100</ele>
        <time>2025-05-16T10:13:19Z</time>
      </trkpt>
      <trkpt lat="48.12297" lon="-1.85855">
        <ele>100</ele>
        <time>2025-05-16T10:13:20Z</time>
      </trkpt>
      <trkpt lat="48.12298" lon="-1.8585">
        <ele>100</ele>
        <time>2025-05-16T10:13:21Z</time>
      </trkpt>
      <trkpt lat="48.12298" lon="-1.85844">
        <ele>100</ele>
        <time>2025-05-16T10:13:22Z</time>
      </trkpt>
      <trkpt lat="48.12297" lon="-1.85838">
        <ele>100</ele>
        <time>2025-05-16T10:13:23Z</time>
      </trkpt>
      <trkpt lat="48.12297" lon="-1.85833">
        <ele>100</ele>
        <time>2025-05-16T10:13:24Z</time>
      </trkpt>
      <trkpt lat="48.12297" lon="-1.85826">
        <ele>100</ele>
        <time>2025-05-16T10:13:25Z</time>
      </trkpt>
      <trkpt lat="48.12297" lon="-1.8582">
        <ele>101</ele>
        <time>2025-05-16T10:13:26Z</time>
      </trkpt>
      <trkpt lat="48.12297" lon="-1.85814">
        <ele>101</ele>
        <time>2025-05-16T10:13:27Z</time>
      </trkpt>
      <trkpt lat="48.12297" lon="-1.85808">
        <ele>101</ele>
        <time>2025-05-16T10:13:28Z</time>
      </trkpt>
      <trkpt lat="48.12297" lon="-1.85802">
        <ele>100</ele>
        <time>2025-05-16T10:13:29Z</time>
      </trkpt>
      <trkpt lat="48.12297" lon="-1.85796">
        <ele>100</ele>
        <time>2025-05-16T10:13:30Z</time>
      </trkpt>
      <trkpt lat="48.12297" lon="-1.8579">
        <ele>100</ele>
        <time>2025-05-16T10:13:31Z</time>
      </trkpt>
      <trkpt lat="48.12297" lon="-1.85783">
        <ele>100</ele>
        <time>2025-05-16T10:13:32Z</time>
      </trkpt>
      <trkpt lat="48.12297" lon="-1.85777">
        <ele>100</ele>
        <time>2025-05-16T10:13:33Z</time>
      </trkpt>
      <trkpt lat="48.12297" lon="-1.8577">
        <ele>100</ele>
        <time>2025-05-16T10:13:34Z</time>
      </trkpt>
      <trkpt lat="48.12297" lon="-1.85764">
        <ele>100</ele>
        <time>2025-05-16T10:13:35Z</time>
      </trkpt>
      <trkpt lat="48.12297" lon="-1.85757">
        <ele>100</ele>
        <time>2025-05-16T10:13:36Z</time>
      </trkpt>
      <trkpt lat="48.12296" lon="-1.8575">
        <ele>100</ele>
        <time>2025-05-16T10:13:37Z</time>
      </trkpt>
      <trkpt lat="48.12296" lon="-1.85743">
        <ele>100</ele>
        <time>2025-05-16T10:13:38Z</time>
      </trkpt>
      <trkpt lat="48.12297" lon="-1.85736">
        <ele>100</ele>
        <time>2025-05-16T10:13:39Z</time>
      </trkpt>
      <trkpt lat="48.12297" lon="-1.85729">
        <ele>100</ele>
        <time>2025-05-16T10:13:40Z</time>
      </trkpt>
      <trkpt lat="48.12297" lon="-1.85722">
        <ele>100</ele>
        <time>2025-05-16T10:13:41Z</time>
      </trkpt>
      <trkpt lat="48.12297" lon="-1.85715">
        <ele>100</ele>
        <time>2025-05-16T10:13:42Z</time>
      </trkpt>
      <trkpt lat="48.12297" lon="-1.85708">
        <ele>100</ele>
        <time>2025-05-16T10:13:43Z</time>
      </trkpt>
      <trkpt lat="48.12297" lon="-1.85702">
        <ele>100</ele>
        <time>2025-05-16T10:13:44Z</time>
      </trkpt>
      <trkpt lat="48.12297" lon="-1.85695">
        <ele>100</ele>
        <time>2025-05-16T10:13:45Z</time>
      </trkpt>
      <trkpt lat="48.12296" lon="-1.85688">
        <ele>100</ele>
        <time>2025-05-16T10:13:46Z</time>
      </trkpt>
      <trkpt lat="48.12296" lon="-1.85681">
        <ele>99</ele>
        <time>2025-05-16T10:13:47Z</time>
      </trkpt>
      <trkpt lat="48.12297" lon="-1.85674">
        <ele>99</ele>
        <time>2025-05-16T10:13:48Z</time>
      </trkpt>
      <trkpt lat="48.12296" lon="-1.85667">
        <ele>99</ele>
        <time>2025-05-16T10:13:49Z</time>
      </trkpt>
      <trkpt lat="48.12296" lon="-1.8566">
        <ele>99</ele>
        <time>2025-05-16T10:13:50Z</time>
      </trkpt>
      <trkpt lat="48.12296" lon="-1.85653">
        <ele>99</ele>
        <time>2025-05-16T10:13:51Z</time>
      </trkpt>
      <trkpt lat="48.12296" lon="-1.85646">
        <ele>99</ele>
        <time>2025-05-16T10:13:52Z</time>
      </trkpt>
      <trkpt lat="48.12296" lon="-1.85639">
        <ele>98</ele>
        <time>2025-05-16T10:13:53Z</time>
      </trkpt>
      <trkpt lat="48.12296" lon="-1.85632">
        <ele>98</ele>
        <time>2025-05-16T10:13:54Z</time>
      </trkpt>
      <trkpt lat="48.12295" lon="-1.85624">
        <ele>98</ele>
        <time>2025-05-16T10:13:55Z</time>
      </trkpt>
      <trkpt lat="48.12295" lon="-1.85617">
        <ele>98</ele>
        <time>2025-05-16T10:13:56Z</time>
      </trkpt>
      <trkpt lat="48.12295" lon="-1.8561">
        <ele>97</ele>
        <time>2025-05-16T10:13:57Z</time>
      </trkpt>
      <trkpt lat="48.12295" lon="-1.85603">
        <ele>97</ele>
        <time>2025-05-16T10:13:58Z</time>
      </trkpt>
      <trkpt lat="48.12295" lon="-1.85595">
        <ele>97</ele>
        <time>2025-05-16T10:13:59Z</time>
      </trkpt>
      <trkpt lat="48.12294" lon="-1.85588">
        <ele>97</ele>
        <time>2025-05-16T10:14:00Z</time>
      </trkpt>
      <trkpt lat="48.12294" lon="-1.8558">
        <ele>97</ele>
        <time>2025-05-16T10:14:01Z</time>
      </trkpt>
      <trkpt lat="48.12294" lon="-1.85573">
        <ele>97</ele>
        <time>2025-05-16T10:14:02Z</time>
      </trkpt>
      <trkpt lat="48.12294" lon="-1.85565">
        <ele>98</ele>
        <time>2025-05-16T10:14:03Z</time>
      </trkpt>
      <trkpt lat="48.12294" lon="-1.85557">
        <ele>98</ele>
        <time>2025-05-16T10:14:04Z</time>
      </trkpt>
      <trkpt lat="48.12294" lon="-1.8555">
        <ele>98</ele>
        <time>2025-05-16T10:14:05Z</time>
      </trkpt>
      <trkpt lat="48.12293" lon="-1.85543">
        <ele>98</ele>
        <time>2025-05-16T10:14:06Z</time>
      </trkpt>
      <trkpt lat="48.12293" lon="-1.85536">
        <ele>98</ele>
        <time>2025-05-16T10:14:07Z</time>
      </trkpt>
      <trkpt lat="48.12293" lon="-1.85529">
        <ele>98</ele>
        <time>2025-05-16T10:14:08Z</time>
      </trkpt>
      <trkpt lat="48.12293" lon="-1.85523">
        <ele>97</ele>
        <time>2025-05-16T10:14:09Z</time>
      </trkpt>
      <trkpt lat="48.12293" lon="-1.85516">
        <ele>97</ele>
        <time>2025-05-16T10:14:10Z</time>
      </trkpt>
      <trkpt lat="48.12293" lon="-1.8551">
        <ele>97</ele>
        <time>2025-05-16T10:14:11Z</time>
      </trkpt>
      <trkpt lat="48.12292" lon="-1.85504">
        <ele>97</ele>
        <time>2025-05-16T10:14:12Z</time>
      </trkpt>
      <trkpt lat="48.12291" lon="-1.85498">
        <ele>97</ele>
        <time>2025-05-16T10:14:13Z</time>
      </trkpt>
      <trkpt lat="48.1229" lon="-1.85491">
        <ele>96</ele>
        <time>2025-05-16T10:14:14Z</time>
      </trkpt>
      <trkpt lat="48.1229" lon="-1.85484">
        <ele>97</ele>
        <time>2025-05-16T10:14:15Z</time>
      </trkpt>
      <trkpt lat="48.1229" lon="-1.85478">
        <ele>97</ele>
        <time>2025-05-16T10:14:16Z</time>
      </trkpt>
      <trkpt lat="48.12292" lon="-1.85472">
        <ele>97</ele>
        <time>2025-05-16T10:14:17Z</time>
      </trkpt>
      <trkpt lat="48.12292" lon="-1.85466">
        <ele>97</ele>
        <time>2025-05-16T10:14:18Z</time>
      </trkpt>
      <trkpt lat="48.12293" lon="-1.85459">
        <ele>97</ele>
        <time>2025-05-16T10:14:19Z</time>
      </trkpt>
      <trkpt lat="48.12292" lon="-1.85453">
        <ele>97</ele>
        <time>2025-05-16T10:14:20Z</time>
      </trkpt>
      <trkpt lat="48.12292" lon="-1.85447">
        <ele>97</ele>
        <time>2025-05-16T10:14:21Z</time>
      </trkpt>
      <trkpt lat="48.12292" lon="-1.85441">
        <ele>97</ele>
        <time>2025-05-16T10:14:22Z</time>
      </trkpt>
      <trkpt lat="48.12292" lon="-1.85434">
        <ele>97</ele>
        <time>2025-05-16T10:14:23Z</time>
      </trkpt>
      <trkpt lat="48.12292" lon="-1.85428">
        <ele>97</ele>
        <time>2025-05-16T10:14:24Z</time>
      </trkpt>
      <trkpt lat="48.12292" lon="-1.85421">
        <ele>97</ele>
        <time>2025-05-16T10:14:25Z</time>
      </trkpt>
      <trkpt lat="48.12292" lon="-1.85415">
        <ele>97</ele>
        <time>2025-05-16T10:14:26Z</time>
      </trkpt>
      <trkpt lat="48.12291" lon="-1.85408">
        <ele>97</ele>
        <time>2025-05-16T10:14:27Z</time>
      </trkpt>
      <trkpt lat="48.12291" lon="-1.85401">
        <ele>97</ele>
        <time>2025-05-16T10:14:28Z</time>
      </trkpt>
      <trkpt lat="48.12291" lon="-1.85394">
        <ele>96</ele>
        <time>2025-05-16T10:14:29Z</time>
      </trkpt>
      <trkpt lat="48.1229" lon="-1.85387">
        <ele>96</ele>
        <time>2025-05-16T10:14:30Z</time>
      </trkpt>
      <trkpt lat="48.12289" lon="-1.8538">
        <ele>97</ele>
        <time>2025-05-16T10:14:31Z</time>
      </trkpt>
      <trkpt lat="48.12288" lon="-1.85372">
        <ele>96</ele>
        <time>2025-05-16T10:14:32Z</time>
      </trkpt>
      <trkpt lat="48.12287" lon="-1.85365">
        <ele>97</ele>
        <time>2025-05-16T10:14:33Z</time>
      </trkpt>
      <trkpt lat="48.12286" lon="-1.85357">
        <ele>97</ele>
        <time>2025-05-16T10:14:34Z</time>
      </trkpt>
      <trkpt lat="48.12284" lon="-1.8535">
        <ele>96</ele>
        <time>2025-05-16T10:14:35Z</time>
      </trkpt>
      <trkpt lat="48.12283" lon="-1.85343">
        <ele>96</ele>
        <time>2025-05-16T10:14:36Z</time>
      </trkpt>
      <trkpt lat="48.12281" lon="-1.85336">
        <ele>96</ele>
        <time>2025-05-16T10:14:37Z</time>
      </trkpt>
      <trkpt lat="48.1228" lon="-1.85328">
        <ele>96</ele>
        <time>2025-05-16T10:14:38Z</time>
      </trkpt>
      <trkpt lat="48.12278" lon="-1.8532">
        <ele>96</ele>
        <time>2025-05-16T10:14:39Z</time>
      </trkpt>
      <trkpt lat="48.12277" lon="-1.85313">
        <ele>95</ele>
        <time>2025-05-16T10:14:40Z</time>
      </trkpt>
      <trkpt lat="48.12276" lon="-1.85305">
        <ele>95</ele>
        <time>2025-05-16T10:14:41Z</time>
      </trkpt>
      <trkpt lat="48.12274" lon="-1.85298">
        <ele>96</ele>
        <time>2025-05-16T10:14:42Z</time>
      </trkpt>
      <trkpt lat="48.12273" lon="-1.85291">
        <ele>95</ele>
        <time>2025-05-16T10:14:43Z</time>
      </trkpt>
      <trkpt lat="48.12271" lon="-1.85283">
        <ele>95</ele>
        <time>2025-05-16T10:14:44Z</time>
      </trkpt>
      <trkpt lat="48.12271" lon="-1.85276">
        <ele>95</ele>
        <time>2025-05-16T10:14:45Z</time>
      </trkpt>
      <trkpt lat="48.1227" lon="-1.85269">
        <ele>95</ele>
        <time>2025-05-16T10:14:46Z</time>
      </trkpt>
      <trkpt lat="48.12269" lon="-1.85262">
        <ele>96</ele>
        <time>2025-05-16T10:14:47Z</time>
      </trkpt>
      <trkpt lat="48.12268" lon="-1.85255">
        <ele>96</ele>
        <time>2025-05-16T10:14:48Z</time>
      </trkpt>
      <trkpt lat="48.12268" lon="-1.85248">
        <ele>96</ele>
        <time>2025-05-16T10:14:49Z</time>
      </trkpt>
      <trkpt lat="48.12268" lon="-1.85242">
        <ele>96</ele>
        <time>2025-05-16T10:14:50Z</time>
      </trkpt>
      <trkpt lat="48.12269" lon="-1.85235">
        <ele>96</ele>
        <time>2025-05-16T10:14:51Z</time>
      </trkpt>
      <trkpt lat="48.12269" lon="-1.85228">
        <ele>96</ele>
        <time>2025-05-16T10:14:52Z</time>
      </trkpt>
      <trkpt lat="48.1227" lon="-1.85222">
        <ele>96</ele>
        <time>2025-05-16T10:14:53Z</time>
      </trkpt>
      <trkpt lat="48.1227" lon="-1.85215">
        <ele>97</ele>
        <time>2025-05-16T10:14:54Z</time>
      </trkpt>
      <trkpt lat="48.12271" lon="-1.85208">
        <ele>96</ele>
        <time>2025-05-16T10:14:55Z</time>
      </trkpt>
      <trkpt lat="48.12271" lon="-1.85201">
        <ele>96</ele>
        <time>2025-05-16T10:14:56Z</time>
      </trkpt>
      <trkpt lat="48.12271" lon="-1.85195">
        <ele>96</ele>
        <time>2025-05-16T10:14:57Z</time>
      </trkpt>
      <trkpt lat="48.12272" lon="-1.85188">
        <ele>96</ele>
        <time>2025-05-16T10:14:58Z</time>
      </trkpt>
      <trkpt lat="48.12272" lon="-1.85181">
        <ele>97</ele>
        <time>2025-05-16T10:14:59Z</time>
      </trkpt>
      <trkpt lat="48.12273" lon="-1.85174">
        <ele>96</ele>
        <time>2025-05-16T10:15:00Z</time>
      </trkpt>
      <trkpt lat="48.12273" lon="-1.85168">
        <ele>96</ele>
        <time>2025-05-16T10:15:01Z</time>
      </trkpt>
      <trkpt lat="48.12273" lon="-1.85161">
        <ele>96</ele>
        <time>2025-05-16T10:15:02Z</time>
      </trkpt>
      <trkpt lat="48.12274" lon="-1.85154">
        <ele>96</ele>
        <time>2025-05-16T10:15:03Z</time>
      </trkpt>
      <trkpt lat="48.12274" lon="-1.85147">
        <ele>96</ele>
        <time>2025-05-16T10:15:04Z</time>
      </trkpt>
      <trkpt lat="48.12274" lon="-1.8514">
        <ele>96</ele>
        <time>2025-05-16T10:15:05Z</time>
      </trkpt>
      <trkpt lat="48.12274" lon="-1.85134">
        <ele>96</ele>
        <time>2025-05-16T10:15:06Z</time>
      </trkpt>
      <trkpt lat="48.12275" lon="-1.85127">
        <ele>96</ele>
        <time>2025-05-16T10:15:07Z</time>
      </trkpt>
      <trkpt lat="48.12275" lon="-1.8512">
        <ele>95</ele>
        <time>2025-05-16T10:15:08Z</time>
      </trkpt>
      <trkpt lat="48.12275" lon="-1.85114">
        <ele>95</ele>
        <time>2025-05-16T10:15:09Z</time>
      </trkpt>
      <trkpt lat="48.12276" lon="-1.85107">
        <ele>95</ele>
        <time>2025-05-16T10:15:10Z</time>
      </trkpt>
      <trkpt lat="48.12276" lon="-1.851">
        <ele>95</ele>
        <time>2025-05-16T10:15:11Z</time>
      </trkpt>
      <trkpt lat="48.12277" lon="-1.85093">
        <ele>95</ele>
        <time>2025-05-16T10:15:12Z</time>
      </trkpt>
      <trkpt lat="48.12277" lon="-1.85085">
        <ele>95</ele>
        <time>2025-05-16T10:15:13Z</time>
      </trkpt>
      <trkpt lat="48.12277" lon="-1.85078">
        <ele>96</ele>
        <time>2025-05-16T10:15:14Z</time>
      </trkpt>
      <trkpt lat="48.12278" lon="-1.85071">
        <ele>96</ele>
        <time>2025-05-16T10:15:15Z</time>
      </trkpt>
      <trkpt lat="48.12278" lon="-1.85064">
        <ele>95</ele>
        <time>2025-05-16T10:15:16Z</time>
      </trkpt>
      <trkpt lat="48.12279" lon="-1.85057">
        <ele>95</ele>
        <time>2025-05-16T10:15:17Z</time>
      </trkpt>
      <trkpt lat="48.12279" lon="-1.8505">
        <ele>95</ele>
        <time>2025-05-16T10:15:18Z</time>
      </trkpt>
      <trkpt lat="48.12279" lon="-1.85043">
        <ele>95</ele>
        <time>2025-05-16T10:15:19Z</time>
      </trkpt>
      <trkpt lat="48.12279" lon="-1.85036">
        <ele>95</ele>
        <time>2025-05-16T10:15:20Z</time>
      </trkpt>
      <trkpt lat="48.12278" lon="-1.85028">
        <ele>95</ele>
        <time>2025-05-16T10:15:21Z</time>
      </trkpt>
      <trkpt lat="48.12279" lon="-1.85021">
        <ele>95</ele>
        <time>2025-05-16T10:15:22Z</time>
      </trkpt>
      <trkpt lat="48.12278" lon="-1.85014">
        <ele>95</ele>
        <time>2025-05-16T10:15:23Z</time>
      </trkpt>
      <trkpt lat="48.12278" lon="-1.85007">
        <ele>95</ele>
        <time>2025-05-16T10:15:24Z</time>
      </trkpt>
      <trkpt lat="48.12277" lon="-1.85">
        <ele>95</ele>
        <time>2025-05-16T10:15:25Z</time>
      </trkpt>
      <trkpt lat="48.12276" lon="-1.84993">
        <ele>96</ele>
        <time>2025-05-16T10:15:26Z</time>
      </trkpt>
      <trkpt lat="48.12275" lon="-1.84987">
        <ele>96</ele>
        <time>2025-05-16T10:15:27Z</time>
      </trkpt>
      <trkpt lat="48.12274" lon="-1.8498">
        <ele>96</ele>
        <time>2025-05-16T10:15:28Z</time>
      </trkpt>
      <trkpt lat="48.12273" lon="-1.84974">
        <ele>96</ele>
        <time>2025-05-16T10:15:29Z</time>
      </trkpt>
      <trkpt lat="48.12271" lon="-1.84967">
        <ele>96</ele>
        <time>2025-05-16T10:15:30Z</time>
      </trkpt>
      <trkpt lat="48.12269" lon="-1.8496">
        <ele>96</ele>
        <time>2025-05-16T10:15:31Z</time>
      </trkpt>
      <trkpt lat="48.12267" lon="-1.84954">
        <ele>96</ele>
        <time>2025-05-16T10:15:32Z</time>
      </trkpt>
      <trkpt lat="48.12265" lon="-1.84947">
        <ele>96</ele>
        <time>2025-05-16T10:15:33Z</time>
      </trkpt>
      <trkpt lat="48.12263" lon="-1.84941">
        <ele>96</ele>
        <time>2025-05-16T10:15:34Z</time>
      </trkpt>
      <trkpt lat="48.12261" lon="-1.84934">
        <ele>95</ele>
        <time>2025-05-16T10:15:35Z</time>
      </trkpt>
      <trkpt lat="48.1226" lon="-1.84927">
        <ele>95</ele>
        <time>2025-05-16T10:15:36Z</time>
      </trkpt>
      <trkpt lat="48.12258" lon="-1.84921">
        <ele>95</ele>
        <time>2025-05-16T10:15:37Z</time>
      </trkpt>
      <trkpt lat="48.12255" lon="-1.84915">
        <ele>95</ele>
        <time>2025-05-16T10:15:38Z</time>
      </trkpt>
      <trkpt lat="48.12253" lon="-1.84908">
        <ele>96</ele>
        <time>2025-05-16T10:15:39Z</time>
      </trkpt>
      <trkpt lat="48.12251" lon="-1.84901">
        <ele>96</ele>
        <time>2025-05-16T10:15:40Z</time>
      </trkpt>
      <trkpt lat="48.12249" lon="-1.84896">
        <ele>96</ele>
        <time>2025-05-16T10:15:41Z</time>
      </trkpt>
      <trkpt lat="48.12247" lon="-1.8489">
        <ele>96</ele>
        <time>2025-05-16T10:15:42Z</time>
      </trkpt>
      <trkpt lat="48.12245" lon="-1.84884">
        <ele>96</ele>
        <time>2025-05-16T10:15:43Z</time>
      </trkpt>
      <trkpt lat="48.12243" lon="-1.84879">
        <ele>96</ele>
        <time>2025-05-16T10:15:44Z</time>
      </trkpt>
      <trkpt lat="48.12241" lon="-1.84873">
        <ele>96</ele>
        <time>2025-05-16T10:15:45Z</time>
      </trkpt>
      <trkpt lat="48.12239" lon="-1.84867">
        <ele>96</ele>
        <time>2025-05-16T10:15:46Z</time>
      </trkpt>
      <trkpt lat="48.12237" lon="-1.84861">
        <ele>96</ele>
        <time>2025-05-16T10:15:47Z</time>
      </trkpt>
      <trkpt lat="48.12235" lon="-1.84855">
        <ele>96</ele>
        <time>2025-05-16T10:15:48Z</time>
      </trkpt>
      <trkpt lat="48.12234" lon="-1.84849">
        <ele>96</ele>
        <time>2025-05-16T10:15:49Z</time>
      </trkpt>
      <trkpt lat="48.12232" lon="-1.84842">
        <ele>96</ele>
        <time>2025-05-16T10:15:50Z</time>
      </trkpt>
      <trkpt lat="48.1223" lon="-1.84835">
        <ele>96</ele>
        <time>2025-05-16T10:15:51Z</time>
      </trkpt>
      <trkpt lat="48.12229" lon="-1.84829">
        <ele>96</ele>
        <time>2025-05-16T10:15:52Z</time>
      </trkpt>
      <trkpt lat="48.12227" lon="-1.84822">
        <ele>96</ele>
        <time>2025-05-16T10:15:53Z</time>
      </trkpt>
      <trkpt lat="48.12226" lon="-1.84815">
        <ele>96</ele>
        <time>2025-05-16T10:15:54Z</time>
      </trkpt>
      <trkpt lat="48.12225" lon="-1.84808">
        <ele>96</ele>
        <time>2025-05-16T10:15:55Z</time>
      </trkpt>
      <trkpt lat="48.12224" lon="-1.848">
        <ele>95</ele>
        <time>2025-05-16T10:15:56Z</time>
      </trkpt>
      <trkpt lat="48.12222" lon="-1.84793">
        <ele>95</ele>
        <time>2025-05-16T10:15:57Z</time>
      </trkpt>
      <trkpt lat="48.12221" lon="-1.84786">
        <ele>95</ele>
        <time>2025-05-16T10:15:58Z</time>
      </trkpt>
      <trkpt lat="48.1222" lon="-1.84779">
        <ele>95</ele>
        <time>2025-05-16T10:15:59Z</time>
      </trkpt>
      <trkpt lat="48.12219" lon="-1.84772">
        <ele>95</ele>
        <time>2025-05-16T10:16:00Z</time>
      </trkpt>
      <trkpt lat="48.12217" lon="-1.84765">
        <ele>94</ele>
        <time>2025-05-16T10:16:01Z</time>
      </trkpt>
      <trkpt lat="48.12216" lon="-1.84758">
        <ele>94</ele>
        <time>2025-05-16T10:16:02Z</time>
      </trkpt>
      <trkpt lat="48.12215" lon="-1.8475">
        <ele>94</ele>
        <time>2025-05-16T10:16:03Z</time>
      </trkpt>
      <trkpt lat="48.12214" lon="-1.84743">
        <ele>94</ele>
        <time>2025-05-16T10:16:04Z</time>
      </trkpt>
      <trkpt lat="48.12213" lon="-1.84736">
        <ele>94</ele>
        <time>2025-05-16T10:16:05Z</time>
      </trkpt>
      <trkpt lat="48.12211" lon="-1.84729">
        <ele>94</ele>
        <time>2025-05-16T10:16:06Z</time>
      </trkpt>
      <trkpt lat="48.1221" lon="-1.84722">
        <ele>94</ele>
        <time>2025-05-16T10:16:07Z</time>
      </trkpt>
      <trkpt lat="48.12209" lon="-1.84714">
        <ele>94</ele>
        <time>2025-05-16T10:16:08Z</time>
      </trkpt>
      <trkpt lat="48.12208" lon="-1.84706">
        <ele>93</ele>
        <time>2025-05-16T10:16:09Z</time>
      </trkpt>
      <trkpt lat="48.12206" lon="-1.84698">
        <ele>93</ele>
        <time>2025-05-16T10:16:10Z</time>
      </trkpt>
      <trkpt lat="48.12205" lon="-1.8469">
        <ele>93</ele>
        <time>2025-05-16T10:16:11Z</time>
      </trkpt>
      <trkpt lat="48.12202" lon="-1.84682">
        <ele>93</ele>
        <time>2025-05-16T10:16:12Z</time>
      </trkpt>
      <trkpt lat="48.12201" lon="-1.84674">
        <ele>93</ele>
        <time>2025-05-16T10:16:13Z</time>
      </trkpt>
      <trkpt lat="48.122" lon="-1.84666">
        <ele>93</ele>
        <time>2025-05-16T10:16:14Z</time>
      </trkpt>
      <trkpt lat="48.122" lon="-1.84658">
        <ele>93</ele>
        <time>2025-05-16T10:16:15Z</time>
      </trkpt>
      <trkpt lat="48.122" lon="-1.8465">
        <ele>92</ele>
        <time>2025-05-16T10:16:16Z</time>
      </trkpt>
      <trkpt lat="48.12199" lon="-1.84642">
        <ele>92</ele>
        <time>2025-05-16T10:16:17Z</time>
      </trkpt>
      <trkpt lat="48.12198" lon="-1.84634">
        <ele>92</ele>
        <time>2025-05-16T10:16:18Z</time>
      </trkpt>
      <trkpt lat="48.12197" lon="-1.84627">
        <ele>92</ele>
        <time>2025-05-16T10:16:19Z</time>
      </trkpt>
      <trkpt lat="48.12196" lon="-1.84619">
        <ele>92</ele>
        <time>2025-05-16T10:16:20Z</time>
      </trkpt>
      <trkpt lat="48.12194" lon="-1.84611">
        <ele>92</ele>
        <time>2025-05-16T10:16:21Z</time>
      </trkpt>
      <trkpt lat="48.12193" lon="-1.84603">
        <ele>92</ele>
        <time>2025-05-16T10:16:22Z</time>
      </trkpt>
      <trkpt lat="48.12192" lon="-1.84594">
        <ele>92</ele>
        <time>2025-05-16T10:16:23Z</time>
      </trkpt>
      <trkpt lat="48.12191" lon="-1.84586">
        <ele>92</ele>
        <time>2025-05-16T10:16:24Z</time>
      </trkpt>
      <trkpt lat="48.12189" lon="-1.84578">
        <ele>92</ele>
        <time>2025-05-16T10:16:25Z</time>
      </trkpt>
      <trkpt lat="48.12188" lon="-1.8457">
        <ele>92</ele>
        <time>2025-05-16T10:16:26Z</time>
      </trkpt>
      <trkpt lat="48.12186" lon="-1.84562">
        <ele>92</ele>
        <time>2025-05-16T10:16:27Z</time>
      </trkpt>
      <trkpt lat="48.12184" lon="-1.84554">
        <ele>92</ele>
        <time>2025-05-16T10:16:28Z</time>
      </trkpt>
      <trkpt lat="48.12183" lon="-1.84547">
        <ele>92</ele>
        <time>2025-05-16T10:16:29Z</time>
      </trkpt>
      <trkpt lat="48.12182" lon="-1.84539">
        <ele>91</ele>
        <time>2025-05-16T10:16:30Z</time>
      </trkpt>
      <trkpt lat="48.12181" lon="-1.84531">
        <ele>91</ele>
        <time>2025-05-16T10:16:31Z</time>
      </trkpt>
      <trkpt lat="48.12179" lon="-1.84524">
        <ele>90</ele>
        <time>2025-05-16T10:16:32Z</time>
      </trkpt>
      <trkpt lat="48.12178" lon="-1.84516">
        <ele>90</ele>
        <time>2025-05-16T10:16:33Z</time>
      </trkpt>
      <trkpt lat="48.12177" lon="-1.84508">
        <ele>90</ele>
        <time>2025-05-16T10:16:34Z</time>
      </trkpt>
      <trkpt lat="48.12175" lon="-1.84501">
        <ele>90</ele>
        <time>2025-05-16T10:16:35Z</time>
      </trkpt>
      <trkpt lat="48.12174" lon="-1.84493">
        <ele>90</ele>
        <time>2025-05-16T10:16:36Z</time>
      </trkpt>
      <trkpt lat="48.12173" lon="-1.84486">
        <ele>90</ele>
        <time>2025-05-16T10:16:37Z</time>
      </trkpt>
      <trkpt lat="48.12172" lon="-1.84478">
        <ele>90</ele>
        <time>2025-05-16T10:16:38Z</time>
      </trkpt>
      <trkpt lat="48.12171" lon="-1.84471">
        <ele>90</ele>
        <time>2025-05-16T10:16:39Z</time>
      </trkpt>
      <trkpt lat="48.1217" lon="-1.84464">
        <ele>90</ele>
        <time>2025-05-16T10:16:40Z</time>
      </trkpt>
      <trkpt lat="48.12168" lon="-1.84457">
        <ele>91</ele>
        <time>2025-05-16T10:16:41Z</time>
      </trkpt>
      <trkpt lat="48.12166" lon="-1.84452">
        <ele>90</ele>
        <time>2025-05-16T10:16:42Z</time>
      </trkpt>
      <trkpt lat="48.12163" lon="-1.84448">
        <ele>90</ele>
        <time>2025-05-16T10:16:43Z</time>
      </trkpt>
      <trkpt lat="48.1216" lon="-1.84443">
        <ele>90</ele>
        <time>2025-05-16T10:16:44Z</time>
      </trkpt>
      <trkpt lat="48.1216" lon="-1.84437">
        <ele>90</ele>
        <time>2025-05-16T10:16:45Z</time>
      </trkpt>
      <trkpt lat="48.1216" lon="-1.84432">
        <ele>90</ele>
        <time>2025-05-16T10:16:46Z</time>
      </trkpt>
      <trkpt lat="48.12161" lon="-1.84426">
        <ele>90</ele>
        <time>2025-05-16T10:16:47Z</time>
      </trkpt>
      <trkpt lat="48.12161" lon="-1.8442">
        <ele>90</ele>
        <time>2025-05-16T10:16:48Z</time>
      </trkpt>
      <trkpt lat="48.12161" lon="-1.84414">
        <ele>90</ele>
        <time>2025-05-16T10:16:49Z</time>
      </trkpt>
      <trkpt lat="48.1216" lon="-1.84407">
        <ele>91</ele>
        <time>2025-05-16T10:16:50Z</time>
      </trkpt>
      <trkpt lat="48.12159" lon="-1.84401">
        <ele>91</ele>
        <time>2025-05-16T10:16:51Z</time>
      </trkpt>
      <trkpt lat="48.12157" lon="-1.84394">
        <ele>90</ele>
        <time>2025-05-16T10:16:52Z</time>
      </trkpt>
      <trkpt lat="48.12156" lon="-1.84387">
        <ele>90</ele>
        <time>2025-05-16T10:16:53Z</time>
      </trkpt>
      <trkpt lat="48.12155" lon="-1.8438">
        <ele>90</ele>
        <time>2025-05-16T10:16:54Z</time>
      </trkpt>
      <trkpt lat="48.12154" lon="-1.84374">
        <ele>89</ele>
        <time>2025-05-16T10:16:55Z</time>
      </trkpt>
      <trkpt lat="48.12152" lon="-1.84367">
        <ele>89</ele>
        <time>2025-05-16T10:16:56Z</time>
      </trkpt>
      <trkpt lat="48.12151" lon="-1.8436">
        <ele>89</ele>
        <time>2025-05-16T10:16:57Z</time>
      </trkpt>
      <trkpt lat="48.1215" lon="-1.84353">
        <ele>90</ele>
        <time>2025-05-16T10:16:58Z</time>
      </trkpt>
      <trkpt lat="48.12149" lon="-1.84345">
        <ele>90</ele>
        <time>2025-05-16T10:16:59Z</time>
      </trkpt>
      <trkpt lat="48.12148" lon="-1.84337">
        <ele>90</ele>
        <time>2025-05-16T10:17:00Z</time>
      </trkpt>
      <trkpt lat="48.12146" lon="-1.8433">
        <ele>89</ele>
        <time>2025-05-16T10:17:01Z</time>
      </trkpt>
      <trkpt lat="48.12146" lon="-1.84323">
        <ele>89</ele>
        <time>2025-05-16T10:17:02Z</time>
      </trkpt>
      <trkpt lat="48.12145" lon="-1.84315">
        <ele>89</ele>
        <time>2025-05-16T10:17:03Z</time>
      </trkpt>
      <trkpt lat="48.12145" lon="-1.84308">
        <ele>89</ele>
        <time>2025-05-16T10:17:04Z</time>
      </trkpt>
      <trkpt lat="48.12145" lon="-1.843">
        <ele>89</ele>
        <time>2025-05-16T10:17:05Z</time>
      </trkpt>
      <trkpt lat="48.12145" lon="-1.84293">
        <ele>89</ele>
        <time>2025-05-16T10:17:06Z</time>
      </trkpt>
      <trkpt lat="48.12145" lon="-1.84285">
        <ele>90</ele>
        <time>2025-05-16T10:17:07Z</time>
      </trkpt>
      <trkpt lat="48.12146" lon="-1.84277">
        <ele>90</ele>
        <time>2025-05-16T10:17:08Z</time>
      </trkpt>
      <trkpt lat="48.12146" lon="-1.8427">
        <ele>90</ele>
        <time>2025-05-16T10:17:09Z</time>
      </trkpt>
      <trkpt lat="48.12146" lon="-1.84262">
        <ele>89</ele>
        <time>2025-05-16T10:17:10Z</time>
      </trkpt>
      <trkpt lat="48.12147" lon="-1.84254">
        <ele>89</ele>
        <time>2025-05-16T10:17:11Z</time>
      </trkpt>
      <trkpt lat="48.12147" lon="-1.84246">
        <ele>89</ele>
        <time>2025-05-16T10:17:12Z</time>
      </trkpt>
      <trkpt lat="48.12147" lon="-1.84238">
        <ele>88</ele>
        <time>2025-05-16T10:17:13Z</time>
      </trkpt>
      <trkpt lat="48.12148" lon="-1.8423">
        <ele>88</ele>
        <time>2025-05-16T10:17:14Z</time>
      </trkpt>
      <trkpt lat="48.12149" lon="-1.84223">
        <ele>88</ele>
        <time>2025-05-16T10:17:15Z</time>
      </trkpt>
      <trkpt lat="48.12149" lon="-1.84215">
        <ele>88</ele>
        <time>2025-05-16T10:17:16Z</time>
      </trkpt>
      <trkpt lat="48.1215" lon="-1.84207">
        <ele>88</ele>
        <time>2025-05-16T10:17:17Z</time>
      </trkpt>
      <trkpt lat="48.1215" lon="-1.84199">
        <ele>87</ele>
        <time>2025-05-16T10:17:18Z</time>
      </trkpt>
      <trkpt lat="48.1215" lon="-1.84192">
        <ele>87</ele>
        <time>2025-05-16T10:17:19Z</time>
      </trkpt>
      <trkpt lat="48.12151" lon="-1.84184">
        <ele>87</ele>
        <time>2025-05-16T10:17:20Z</time>
      </trkpt>
      <trkpt lat="48.12152" lon="-1.84177">
        <ele>87</ele>
        <time>2025-05-16T10:17:21Z</time>
      </trkpt>
      <trkpt lat="48.12152" lon="-1.84169">
        <ele>87</ele>
        <time>2025-05-16T10:17:22Z</time>
      </trkpt>
      <trkpt lat="48.12153" lon="-1.84162">
        <ele>87</ele>
        <time>2025-05-16T10:17:23Z</time>
      </trkpt>
      <trkpt lat="48.12154" lon="-1.84154">
        <ele>87</ele>
        <time>2025-05-16T10:17:24Z</time>
      </trkpt>
      <trkpt lat="48.12154" lon="-1.84146">
        <ele>87</ele>
        <time>2025-05-16T10:17:25Z</time>
      </trkpt>
      <trkpt lat="48.12154" lon="-1.84139">
        <ele>87</ele>
        <time>2025-05-16T10:17:26Z</time>
      </trkpt>
      <trkpt lat="48.12155" lon="-1.84131">
        <ele>87</ele>
        <time>2025-05-16T10:17:27Z</time>
      </trkpt>
      <trkpt lat="48.12156" lon="-1.84124">
        <ele>86</ele>
        <time>2025-05-16T10:17:28Z</time>
      </trkpt>
      <trkpt lat="48.12157" lon="-1.84116">
        <ele>87</ele>
        <time>2025-05-16T10:17:29Z</time>
      </trkpt>
      <trkpt lat="48.12159" lon="-1.84109">
        <ele>86</ele>
        <time>2025-05-16T10:17:30Z</time>
      </trkpt>
      <trkpt lat="48.1216" lon="-1.84102">
        <ele>86</ele>
        <time>2025-05-16T10:17:31Z</time>
      </trkpt>
      <trkpt lat="48.12162" lon="-1.84094">
        <ele>86</ele>
        <time>2025-05-16T10:17:32Z</time>
      </trkpt>
      <trkpt lat="48.12163" lon="-1.84087">
        <ele>86</ele>
        <time>2025-05-16T10:17:33Z</time>
      </trkpt>
      <trkpt lat="48.12165" lon="-1.84079">
        <ele>86</ele>
        <time>2025-05-16T10:17:34Z</time>
      </trkpt>
      <trkpt lat="48.12166" lon="-1.84071">
        <ele>86</ele>
        <time>2025-05-16T10:17:35Z</time>
      </trkpt>
      <trkpt lat="48.12168" lon="-1.84063">
        <ele>85</ele>
        <time>2025-05-16T10:17:36Z</time>
      </trkpt>
      <trkpt lat="48.12169" lon="-1.84055">
        <ele>85</ele>
        <time>2025-05-16T10:17:37Z</time>
      </trkpt>
      <trkpt lat="48.1217" lon="-1.84047">
        <ele>85</ele>
        <time>2025-05-16T10:17:38Z</time>
      </trkpt>
      <trkpt lat="48.12172" lon="-1.84039">
        <ele>85</ele>
        <time>2025-05-16T10:17:39Z</time>
      </trkpt>
      <trkpt lat="48.12174" lon="-1.84031">
        <ele>85</ele>
        <time>2025-05-16T10:17:40Z</time>
      </trkpt>
      <trkpt lat="48.12175" lon="-1.84023">
        <ele>84</ele>
        <time>2025-05-16T10:17:41Z</time>
      </trkpt>
      <trkpt lat="48.12176" lon="-1.84015">
        <ele>84</ele>
        <time>2025-05-16T10:17:42Z</time>
      </trkpt>
      <trkpt lat="48.12178" lon="-1.84007">
        <ele>84</ele>
        <time>2025-05-16T10:17:43Z</time>
      </trkpt>
      <trkpt lat="48.1218" lon="-1.84">
        <ele>83</ele>
        <time>2025-05-16T10:17:44Z</time>
      </trkpt>
      <trkpt lat="48.12181" lon="-1.83992">
        <ele>83</ele>
        <time>2025-05-16T10:17:45Z</time>
      </trkpt>
      <trkpt lat="48.12183" lon="-1.83983">
        <ele>83</ele>
        <time>2025-05-16T10:17:46Z</time>
      </trkpt>
      <trkpt lat="48.12184" lon="-1.83975">
        <ele>83</ele>
        <time>2025-05-16T10:17:47Z</time>
      </trkpt>
      <trkpt lat="48.12186" lon="-1.83967">
        <ele>82</ele>
        <time>2025-05-16T10:17:48Z</time>
      </trkpt>
      <trkpt lat="48.12188" lon="-1.83959">
        <ele>82</ele>
        <time>2025-05-16T10:17:49Z</time>
      </trkpt>
      <trkpt lat="48.12189" lon="-1.8395">
        <ele>82</ele>
        <time>2025-05-16T10:17:50Z</time>
      </trkpt>
      <trkpt lat="48.12191" lon="-1.83941">
        <ele>82</ele>
        <time>2025-05-16T10:17:51Z</time>
      </trkpt>
      <trkpt lat="48.12192" lon="-1.83933">
        <ele>82</ele>
        <time>2025-05-16T10:17:52Z</time>
      </trkpt>
      <trkpt lat="48.12192" lon="-1.83924">
        <ele>82</ele>
        <time>2025-05-16T10:17:53Z</time>
      </trkpt>
      <trkpt lat="48.12192" lon="-1.83915">
        <ele>82</ele>
        <time>2025-05-16T10:17:54Z</time>
      </trkpt>
      <trkpt lat="48.12192" lon="-1.83906">
        <ele>82</ele>
        <time>2025-05-16T10:17:55Z</time>
      </trkpt>
      <trkpt lat="48.12192" lon="-1.83897">
        <ele>82</ele>
        <time>2025-05-16T10:17:56Z</time>
      </trkpt>
      <trkpt lat="48.12191" lon="-1.83889">
        <ele>82</ele>
        <time>2025-05-16T10:17:57Z</time>
      </trkpt>
      <trkpt lat="48.12189" lon="-1.83881">
        <ele>82</ele>
        <time>2025-05-16T10:17:58Z</time>
      </trkpt>
      <trkpt lat="48.12187" lon="-1.83873">
        <ele>82</ele>
        <time>2025-05-16T10:17:59Z</time>
      </trkpt>
      <trkpt lat="48.12184" lon="-1.83865">
        <ele>83</ele>
        <time>2025-05-16T10:18:00Z</time>
      </trkpt>
      <trkpt lat="48.12182" lon="-1.83858">
        <ele>83</ele>
        <time>2025-05-16T10:18:01Z</time>
      </trkpt>
      <trkpt lat="48.12179" lon="-1.83851">
        <ele>83</ele>
        <time>2025-05-16T10:18:02Z</time>
      </trkpt>
      <trkpt lat="48.12176" lon="-1.83843">
        <ele>83</ele>
        <time>2025-05-16T10:18:03Z</time>
      </trkpt>
      <trkpt lat="48.12173" lon="-1.83836">
        <ele>83</ele>
        <time>2025-05-16T10:18:04Z</time>
      </trkpt>
      <trkpt lat="48.12169" lon="-1.8383">
        <ele>83</ele>
        <time>2025-05-16T10:18:05Z</time>
      </trkpt>
      <trkpt lat="48.12165" lon="-1.83824">
        <ele>83</ele>
        <time>2025-05-16T10:18:06Z</time>
      </trkpt>
      <trkpt lat="48.12162" lon="-1.83818">
        <ele>83</ele>
        <time>2025-05-16T10:18:07Z</time>
      </trkpt>
      <trkpt lat="48.12158" lon="-1.83812">
        <ele>83</ele>
        <time>2025-05-16T10:18:08Z</time>
      </trkpt>
      <trkpt lat="48.12154" lon="-1.83806">
        <ele>83</ele>
        <time>2025-05-16T10:18:09Z</time>
      </trkpt>
      <trkpt lat="48.12151" lon="-1.838">
        <ele>83</ele>
        <time>2025-05-16T10:18:10Z</time>
      </trkpt>
      <trkpt lat="48.12147" lon="-1.83794">
        <ele>83</ele>
        <time>2025-05-16T10:18:11Z</time>
      </trkpt>
      <trkpt lat="48.12144" lon="-1.83787">
        <ele>83</ele>
        <time>2025-05-16T10:18:12Z</time>
      </trkpt>
      <trkpt lat="48.1214" lon="-1.83781">
        <ele>83</ele>
        <time>2025-05-16T10:18:13Z</time>
      </trkpt>
      <trkpt lat="48.12136" lon="-1.83775">
        <ele>83</ele>
        <time>2025-05-16T10:18:14Z</time>
      </trkpt>
      <trkpt lat="48.12133" lon="-1.83769">
        <ele>83</ele>
        <time>2025-05-16T10:18:15Z</time>
      </trkpt>
      <trkpt lat="48.1213" lon="-1.83764">
        <ele>83</ele>
        <time>2025-05-16T10:18:16Z</time>
      </trkpt>
      <trkpt lat="48.12127" lon="-1.83758">
        <ele>83</ele>
        <time>2025-05-16T10:18:17Z</time>
      </trkpt>
      <trkpt lat="48.12124" lon="-1.83753">
        <ele>83</ele>
        <time>2025-05-16T10:18:18Z</time>
      </trkpt>
      <trkpt lat="48.12121" lon="-1.83747">
        <ele>84</ele>
        <time>2025-05-16T10:18:19Z</time>
      </trkpt>
      <trkpt lat="48.12117" lon="-1.83742">
        <ele>83</ele>
        <time>2025-05-16T10:18:20Z</time>
      </trkpt>
      <trkpt lat="48.12114" lon="-1.83737">
        <ele>84</ele>
        <time>2025-05-16T10:18:21Z</time>
      </trkpt>
      <trkpt lat="48.12111" lon="-1.83732">
        <ele>84</ele>
        <time>2025-05-16T10:18:22Z</time>
      </trkpt>
      <trkpt lat="48.12108" lon="-1.83727">
        <ele>84</ele>
        <time>2025-05-16T10:18:23Z</time>
      </trkpt>
      <trkpt lat="48.12105" lon="-1.83722">
        <ele>84</ele>
        <time>2025-05-16T10:18:24Z</time>
      </trkpt>
      <trkpt lat="48.12102" lon="-1.83717">
        <ele>84</ele>
        <time>2025-05-16T10:18:25Z</time>
      </trkpt>
      <trkpt lat="48.12099" lon="-1.83712">
        <ele>85</ele>
        <time>2025-05-16T10:18:26Z</time>
      </trkpt>
      <trkpt lat="48.12096" lon="-1.83707">
        <ele>85</ele>
        <time>2025-05-16T10:18:27Z</time>
      </trkpt>
      <trkpt lat="48.12093" lon="-1.83702">
        <ele>84</ele>
        <time>2025-05-16T10:18:28Z</time>
      </trkpt>
      <trkpt lat="48.1209" lon="-1.83697">
        <ele>84</ele>
        <time>2025-05-16T10:18:29Z</time>
      </trkpt>
      <trkpt lat="48.12088" lon="-1.83692">
        <ele>84</ele>
        <time>2025-05-16T10:18:30Z</time>
      </trkpt>
      <trkpt lat="48.12085" lon="-1.83687">
        <ele>84</ele>
        <time>2025-05-16T10:18:31Z</time>
      </trkpt>
      <trkpt lat="48.12082" lon="-1.83683">
        <ele>85</ele>
        <time>2025-05-16T10:18:32Z</time>
      </trkpt>
      <trkpt lat="48.12079" lon="-1.83678">
        <ele>85</ele>
        <time>2025-05-16T10:18:33Z</time>
      </trkpt>
      <trkpt lat="48.12077" lon="-1.83672">
        <ele>85</ele>
        <time>2025-05-16T10:18:34Z</time>
      </trkpt>
      <trkpt lat="48.12074" lon="-1.83667">
        <ele>85</ele>
        <time>2025-05-16T10:18:35Z</time>
      </trkpt>
      <trkpt lat="48.12071" lon="-1.83663">
        <ele>85</ele>
        <time>2025-05-16T10:18:36Z</time>
      </trkpt>
      <trkpt lat="48.12067" lon="-1.83659">
        <ele>85</ele>
        <time>2025-05-16T10:18:37Z</time>
      </trkpt>
      <trkpt lat="48.12064" lon="-1.83655">
        <ele>85</ele>
        <time>2025-05-16T10:18:38Z</time>
      </trkpt>
      <trkpt lat="48.12061" lon="-1.83651">
        <ele>85</ele>
        <time>2025-05-16T10:18:39Z</time>
      </trkpt>
      <trkpt lat="48.12059" lon="-1.83647">
        <ele>85</ele>
        <time>2025-05-16T10:18:40Z</time>
      </trkpt>
      <trkpt lat="48.12056" lon="-1.83642">
        <ele>85</ele>
        <time>2025-05-16T10:18:41Z</time>
      </trkpt>
      <trkpt lat="48.12053" lon="-1.83638">
        <ele>85</ele>
        <time>2025-05-16T10:18:42Z</time>
      </trkpt>
      <trkpt lat="48.12051" lon="-1.83633">
        <ele>85</ele>
        <time>2025-05-16T10:18:43Z</time>
      </trkpt>
      <trkpt lat="48.12048" lon="-1.83629">
        <ele>85</ele>
        <time>2025-05-16T10:18:44Z</time>
      </trkpt>
      <trkpt lat="48.12045" lon="-1.83625">
        <ele>85</ele>
        <time>2025-05-16T10:18:45Z</time>
      </trkpt>
      <trkpt lat="48.12042" lon="-1.8362">
        <ele>85</ele>
        <time>2025-05-16T10:18:46Z</time>
      </trkpt>
      <trkpt lat="48.12039" lon="-1.83616">
        <ele>85</ele>
        <time>2025-05-16T10:18:47Z</time>
      </trkpt>
      <trkpt lat="48.12036" lon="-1.83611">
        <ele>85</ele>
        <time>2025-05-16T10:18:48Z</time>
      </trkpt>
      <trkpt lat="48.12032" lon="-1.83606">
        <ele>85</ele>
        <time>2025-05-16T10:18:49Z</time>
      </trkpt>
      <trkpt lat="48.12028" lon="-1.836">
        <ele>84</ele>
        <time>2025-05-16T10:18:50Z</time>
      </trkpt>
      <trkpt lat="48.12025" lon="-1.83594">
        <ele>84</ele>
        <time>2025-05-16T10:18:51Z</time>
      </trkpt>
      <trkpt lat="48.12021" lon="-1.83588">
        <ele>83</ele>
        <time>2025-05-16T10:18:52Z</time>
      </trkpt>
      <trkpt lat="48.12017" lon="-1.83582">
        <ele>83</ele>
        <time>2025-05-16T10:18:53Z</time>
      </trkpt>
      <trkpt lat="48.12014" lon="-1.83576">
        <ele>82</ele>
        <time>2025-05-16T10:18:54Z</time>
      </trkpt>
      <trkpt lat="48.1201" lon="-1.83571">
        <ele>82</ele>
        <time>2025-05-16T10:18:55Z</time>
      </trkpt>
      <trkpt lat="48.12008" lon="-1.83565">
        <ele>82</ele>
        <time>2025-05-16T10:18:56Z</time>
      </trkpt>
      <trkpt lat="48.12005" lon="-1.8356">
        <ele>82</ele>
        <time>2025-05-16T10:18:57Z</time>
      </trkpt>
      <trkpt lat="48.12002" lon="-1.83556">
        <ele>82</ele>
        <time>2025-05-16T10:18:58Z</time>
      </trkpt>
      <trkpt lat="48.11998" lon="-1.83553">
        <ele>82</ele>
        <time>2025-05-16T10:18:59Z</time>
      </trkpt>
      <trkpt lat="48.11994" lon="-1.83551">
        <ele>82</ele>
        <time>2025-05-16T10:19:00Z</time>
      </trkpt>
      <trkpt lat="48.1199" lon="-1.83549">
        <ele>82</ele>
        <time>2025-05-16T10:19:01Z</time>
      </trkpt>
      <trkpt lat="48.11987" lon="-1.83548">
        <ele>82</ele>
        <time>2025-05-16T10:19:02Z</time>
      </trkpt>
      <trkpt lat="48.11984" lon="-1.83545">
        <ele>82</ele>
        <time>2025-05-16T10:19:03Z</time>
      </trkpt>
      <trkpt lat="48.11981" lon="-1.83542">
        <ele>83</ele>
        <time>2025-05-16T10:19:04Z</time>
      </trkpt>
      <trkpt lat="48.1198" lon="-1.8354">
        <ele>83</ele>
        <time>2025-05-16T10:19:05Z</time>
      </trkpt>
      <trkpt lat="48.11978" lon="-1.83537">
        <ele>83</ele>
        <time>2025-05-16T10:19:06Z</time>
      </trkpt>
      <trkpt lat="48.11977" lon="-1.83534">
        <ele>83</ele>
        <time>2025-05-16T10:19:07Z</time>
      </trkpt>
      <trkpt lat="48.11976" lon="-1.8353">
        <ele>83</ele>
        <time>2025-05-16T10:19:08Z</time>
      </trkpt>
      <trkpt lat="48.11976" lon="-1.83525">
        <ele>83</ele>
        <time>2025-05-16T10:19:09Z</time>
      </trkpt>
      <trkpt lat="48.11977" lon="-1.8352">
        <ele>83</ele>
        <time>2025-05-16T10:19:10Z</time>
      </trkpt>
      <trkpt lat="48.11978" lon="-1.83516">
        <ele>83</ele>
        <time>2025-05-16T10:19:11Z</time>
      </trkpt>
      <trkpt lat="48.1198" lon="-1.83512">
        <ele>83</ele>
        <time>2025-05-16T10:19:12Z</time>
      </trkpt>
      <trkpt lat="48.11983" lon="-1.83508">
        <ele>83</ele>
        <time>2025-05-16T10:19:13Z</time>
      </trkpt>
      <trkpt lat="48.11985" lon="-1.83504">
        <ele>83</ele>
        <time>2025-05-16T10:19:14Z</time>
      </trkpt>
      <trkpt lat="48.11987" lon="-1.835">
        <ele>83</ele>
        <time>2025-05-16T10:19:15Z</time>
      </trkpt>
      <trkpt lat="48.11989" lon="-1.83497">
        <ele>83</ele>
        <time>2025-05-16T10:19:16Z</time>
      </trkpt>
      <trkpt lat="48.11991" lon="-1.83492">
        <ele>82</ele>
        <time>2025-05-16T10:19:17Z</time>
      </trkpt>
      <trkpt lat="48.11993" lon="-1.83489">
        <ele>82</ele>
        <time>2025-05-16T10:19:18Z</time>
      </trkpt>
      <trkpt lat="48.11995" lon="-1.83485">
        <ele>82</ele>
        <time>2025-05-16T10:19:19Z</time>
      </trkpt>
      <trkpt lat="48.11997" lon="-1.83481">
        <ele>82</ele>
        <time>2025-05-16T10:19:20Z</time>
      </trkpt>
      <trkpt lat="48.11999" lon="-1.83477">
        <ele>82</ele>
        <time>2025-05-16T10:19:21Z</time>
      </trkpt>
      <trkpt lat="48.12002" lon="-1.83473">
        <ele>83</ele>
        <time>2025-05-16T10:19:22Z</time>
      </trkpt>
      <trkpt lat="48.12003" lon="-1.83468">
        <ele>82</ele>
        <time>2025-05-16T10:19:23Z</time>
      </trkpt>
      <trkpt lat="48.12005" lon="-1.83464">
        <ele>82</ele>
        <time>2025-05-16T10:19:24Z</time>
      </trkpt>
      <trkpt lat="48.12008" lon="-1.83461">
        <ele>82</ele>
        <time>2025-05-16T10:19:25Z</time>
      </trkpt>
      <trkpt lat="48.1201" lon="-1.83457">
        <ele>82</ele>
        <time>2025-05-16T10:19:26Z</time>
      </trkpt>
      <trkpt lat="48.12012" lon="-1.83452">
        <ele>82</ele>
        <time>2025-05-16T10:19:27Z</time>
      </trkpt>
      <trkpt lat="48.12014" lon="-1.83448">
        <ele>82</ele>
        <time>2025-05-16T10:19:28Z</time>
      </trkpt>
      <trkpt lat="48.12016" lon="-1.83443">
        <ele>82</ele>
        <time>2025-05-16T10:19:29Z</time>
      </trkpt>
      <trkpt lat="48.12018" lon="-1.83439">
        <ele>82</ele>
        <time>2025-05-16T10:19:30Z</time>
      </trkpt>
      <trkpt lat="48.1202" lon="-1.83435">
        <ele>81</ele>
        <time>2025-05-16T10:19:31Z</time>
      </trkpt>
      <trkpt lat="48.12023" lon="-1.8343">
        <ele>81</ele>
        <time>2025-05-16T10:19:32Z</time>
      </trkpt>
      <trkpt lat="48.12026" lon="-1.83426">
        <ele>81</ele>
        <time>2025-05-16T10:19:33Z</time>
      </trkpt>
      <trkpt lat="48.12028" lon="-1.83422">
        <ele>81</ele>
        <time>2025-05-16T10:19:34Z</time>
      </trkpt>
      <trkpt lat="48.1203" lon="-1.83417">
        <ele>81</ele>
        <time>2025-05-16T10:19:35Z</time>
      </trkpt>
      <trkpt lat="48.12033" lon="-1.83413">
        <ele>81</ele>
        <time>2025-05-16T10:19:36Z</time>
      </trkpt>
      <trkpt lat="48.12035" lon="-1.83408">
        <ele>81</ele>
        <time>2025-05-16T10:19:37Z</time>
      </trkpt>
      <trkpt lat="48.12038" lon="-1.83404">
        <ele>81</ele>
        <time>2025-05-16T10:19:38Z</time>
      </trkpt>
      <trkpt lat="48.1204" lon="-1.83398">
        <ele>82</ele>
        <time>2025-05-16T10:19:39Z</time>
      </trkpt>
      <trkpt lat="48.12042" lon="-1.83394">
        <ele>82</ele>
        <time>2025-05-16T10:19:40Z</time>
      </trkpt>
      <trkpt lat="48.12044" lon="-1.83389">
        <ele>82</ele>
        <time>2025-05-16T10:19:41Z</time>
      </trkpt>
      <trkpt lat="48.12046" lon="-1.83384">
        <ele>82</ele>
        <time>2025-05-16T10:19:42Z</time>
      </trkpt>
      <trkpt lat="48.12048" lon="-1.83379">
        <ele>82</ele>
        <time>2025-05-16T10:19:43Z</time>
      </trkpt>
      <trkpt lat="48.1205" lon="-1.83374">
        <ele>82</ele>
        <time>2025-05-16T10:19:44Z</time>
      </trkpt>
      <trkpt lat="48.12052" lon="-1.83369">
        <ele>81</ele>
        <time>2025-05-16T10:19:45Z</time>
      </trkpt>
      <trkpt lat="48.12054" lon="-1.83364">
        <ele>81</ele>
        <time>2025-05-16T10:19:46Z</time>
      </trkpt>
      <trkpt lat="48.12056" lon="-1.83359">
        <ele>81</ele>
        <time>2025-05-16T10:19:47Z</time>
      </trkpt>
      <trkpt lat="48.12058" lon="-1.83354">
        <ele>82</ele>
        <time>2025-05-16T10:19:48Z</time>
      </trkpt>
      <trkpt lat="48.1206" lon="-1.83349">
        <ele>82</ele>
        <time>2025-05-16T10:19:49Z</time>
      </trkpt>
      <trkpt lat="48.12062" lon="-1.83344">
        <ele>82</ele>
        <time>2025-05-16T10:19:50Z</time>
      </trkpt>
      <trkpt lat="48.12065" lon="-1.83339">
        <ele>82</ele>
        <time>2025-05-16T10:19:51Z</time>
      </trkpt>
      <trkpt lat="48.12067" lon="-1.83334">
        <ele>82</ele>
        <time>2025-05-16T10:19:52Z</time>
      </trkpt>
      <trkpt lat="48.12069" lon="-1.83328">
        <ele>82</ele>
        <time>2025-05-16T10:19:53Z</time>
      </trkpt>
      <trkpt lat="48.12071" lon="-1.83323">
        <ele>82</ele>
        <time>2025-05-16T10:19:54Z</time>
      </trkpt>
      <trkpt lat="48.12073" lon="-1.83318">
        <ele>82</ele>
        <time>2025-05-16T10:19:55Z</time>
      </trkpt>
      <trkpt lat="48.12075" lon="-1.83313">
        <ele>82</ele>
        <time>2025-05-16T10:19:56Z</time>
      </trkpt>
      <trkpt lat="48.12077" lon="-1.83308">
        <ele>82</ele>
        <time>2025-05-16T10:19:57Z</time>
      </trkpt>
      <trkpt lat="48.12079" lon="-1.83303">
        <ele>83</ele>
        <time>2025-05-16T10:19:58Z</time>
      </trkpt>
      <trkpt lat="48.12081" lon="-1.83298">
        <ele>83</ele>
        <time>2025-05-16T10:19:59Z</time>
      </trkpt>
      <trkpt lat="48.12082" lon="-1.83292">
        <ele>83</ele>
        <time>2025-05-16T10:20:00Z</time>
      </trkpt>
      <trkpt lat="48.12085" lon="-1.83287">
        <ele>82</ele>
        <time>2025-05-16T10:20:01Z</time>
      </trkpt>
      <trkpt lat="48.12087" lon="-1.83282">
        <ele>82</ele>
        <time>2025-05-16T10:20:02Z</time>
      </trkpt>
      <trkpt lat="48.12089" lon="-1.83277">
        <ele>83</ele>
        <time>2025-05-16T10:20:03Z</time>
      </trkpt>
      <trkpt lat="48.12092" lon="-1.83273">
        <ele>83</ele>
        <time>2025-05-16T10:20:04Z</time>
      </trkpt>
      <trkpt lat="48.12095" lon="-1.83269">
        <ele>83</ele>
        <time>2025-05-16T10:20:05Z</time>
      </trkpt>
      <trkpt lat="48.12097" lon="-1.83265">
        <ele>83</ele>
        <time>2025-05-16T10:20:06Z</time>
      </trkpt>
      <trkpt lat="48.12099" lon="-1.8326">
        <ele>84</ele>
        <time>2025-05-16T10:20:07Z</time>
      </trkpt>
      <trkpt lat="48.12101" lon="-1.83255">
        <ele>84</ele>
        <time>2025-05-16T10:20:08Z</time>
      </trkpt>
      <trkpt lat="48.12102" lon="-1.8325">
        <ele>83</ele>
        <time>2025-05-16T10:20:09Z</time>
      </trkpt>
      <trkpt lat="48.12105" lon="-1.83245">
        <ele>84</ele>
        <time>2025-05-16T10:20:10Z</time>
      </trkpt>
      <trkpt lat="48.12106" lon="-1.8324">
        <ele>84</ele>
        <time>2025-05-16T10:20:11Z</time>
      </trkpt>
      <trkpt lat="48.12108" lon="-1.83234">
        <ele>84</ele>
        <time>2025-05-16T10:20:12Z</time>
      </trkpt>
      <trkpt lat="48.1211" lon="-1.83229">
        <ele>84</ele>
        <time>2025-05-16T10:20:13Z</time>
      </trkpt>
      <trkpt lat="48.12111" lon="-1.83223">
        <ele>84</ele>
        <time>2025-05-16T10:20:14Z</time>
      </trkpt>
      <trkpt lat="48.12112" lon="-1.83218">
        <ele>84</ele>
        <time>2025-05-16T10:20:15Z</time>
      </trkpt>
      <trkpt lat="48.12113" lon="-1.83212">
        <ele>85</ele>
        <time>2025-05-16T10:20:16Z</time>
      </trkpt>
      <trkpt lat="48.12114" lon="-1.83207">
        <ele>85</ele>
        <time>2025-05-16T10:20:17Z</time>
      </trkpt>
      <trkpt lat="48.12116" lon="-1.83202">
        <ele>85</ele>
        <time>2025-05-16T10:20:18Z</time>
      </trkpt>
      <trkpt lat="48.12119" lon="-1.83198">
        <ele>85</ele>
        <time>2025-05-16T10:20:19Z</time>
      </trkpt>
      <trkpt lat="48.12121" lon="-1.83193">
        <ele>84</ele>
        <time>2025-05-16T10:20:20Z</time>
      </trkpt>
      <trkpt lat="48.12123" lon="-1.83189">
        <ele>84</ele>
        <time>2025-05-16T10:20:21Z</time>
      </trkpt>
      <trkpt lat="48.12125" lon="-1.83184">
        <ele>84</ele>
        <time>2025-05-16T10:20:22Z</time>
      </trkpt>
      <trkpt lat="48.12127" lon="-1.83179">
        <ele>85</ele>
        <time>2025-05-16T10:20:23Z</time>
      </trkpt>
      <trkpt lat="48.12128" lon="-1.83174">
        <ele>84</ele>
        <time>2025-05-16T10:20:24Z</time>
      </trkpt>
      <trkpt lat="48.1213" lon="-1.83169">
        <ele>84</ele>
        <time>2025-05-16T10:20:25Z</time>
      </trkpt>
      <trkpt lat="48.12132" lon="-1.83165">
        <ele>84</ele>
        <time>2025-05-16T10:20:26Z</time>
      </trkpt>
      <trkpt lat="48.12134" lon="-1.8316">
        <ele>83</ele>
        <time>2025-05-16T10:20:27Z</time>
      </trkpt>
      <trkpt lat="48.12136" lon="-1.83154">
        <ele>83</ele>
        <time>2025-05-16T10:20:28Z</time>
      </trkpt>
      <trkpt lat="48.12137" lon="-1.83149">
        <ele>83</ele>
        <time>2025-05-16T10:20:29Z</time>
      </trkpt>
      <trkpt lat="48.12139" lon="-1.83144">
        <ele>83</ele>
        <time>2025-05-16T10:20:30Z</time>
      </trkpt>
      <trkpt lat="48.1214" lon="-1.83138">
        <ele>84</ele>
        <time>2025-05-16T10:20:31Z</time>
      </trkpt>
      <trkpt lat="48.12141" lon="-1.83133">
        <ele>84</ele>
        <time>2025-05-16T10:20:32Z</time>
      </trkpt>
      <trkpt lat="48.12142" lon="-1.83127">
        <ele>84</ele>
        <time>2025-05-16T10:20:33Z</time>
      </trkpt>
      <trkpt lat="48.12143" lon="-1.83122">
        <ele>84</ele>
        <time>2025-05-16T10:20:34Z</time>
      </trkpt>
      <trkpt lat="48.12144" lon="-1.83117">
        <ele>85</ele>
        <time>2025-05-16T10:20:35Z</time>
      </trkpt>
      <trkpt lat="48.12145" lon="-1.83111">
        <ele>85</ele>
        <time>2025-05-16T10:20:36Z</time>
      </trkpt>
      <trkpt lat="48.12146" lon="-1.83106">
        <ele>86</ele>
        <time>2025-05-16T10:20:37Z</time>
      </trkpt>
      <trkpt lat="48.12146" lon="-1.83101">
        <ele>86</ele>
        <time>2025-05-16T10:20:38Z</time>
      </trkpt>
      <trkpt lat="48.12147" lon="-1.83096">
        <ele>86</ele>
        <time>2025-05-16T10:20:39Z</time>
      </trkpt>
      <trkpt lat="48.12149" lon="-1.83091">
        <ele>85</ele>
        <time>2025-05-16T10:20:40Z</time>
      </trkpt>
      <trkpt lat="48.1215" lon="-1.83085">
        <ele>85</ele>
        <time>2025-05-16T10:20:41Z</time>
      </trkpt>
      <trkpt lat="48.12151" lon="-1.83079">
        <ele>85</ele>
        <time>2025-05-16T10:20:42Z</time>
      </trkpt>
      <trkpt lat="48.12152" lon="-1.83074">
        <ele>85</ele>
        <time>2025-05-16T10:20:43Z</time>
      </trkpt>
      <trkpt lat="48.12153" lon="-1.83068">
        <ele>84</ele>
        <time>2025-05-16T10:20:44Z</time>
      </trkpt>
      <trkpt lat="48.12154" lon="-1.83063">
        <ele>84</ele>
        <time>2025-05-16T10:20:45Z</time>
      </trkpt>
      <trkpt lat="48.12156" lon="-1.83057">
        <ele>84</ele>
        <time>2025-05-16T10:20:46Z</time>
      </trkpt>
      <trkpt lat="48.12156" lon="-1.83051">
        <ele>84</ele>
        <time>2025-05-16T10:20:47Z</time>
      </trkpt>
      <trkpt lat="48.12157" lon="-1.83046">
        <ele>84</ele>
        <time>2025-05-16T10:20:48Z</time>
      </trkpt>
      <trkpt lat="48.12158" lon="-1.8304">
        <ele>84</ele>
        <time>2025-05-16T10:20:49Z</time>
      </trkpt>
      <trkpt lat="48.12159" lon="-1.83034">
        <ele>84</ele>
        <time>2025-05-16T10:20:50Z</time>
      </trkpt>
      <trkpt lat="48.1216" lon="-1.83028">
        <ele>84</ele>
        <time>2025-05-16T10:20:51Z</time>
      </trkpt>
      <trkpt lat="48.12161" lon="-1.83023">
        <ele>85</ele>
        <time>2025-05-16T10:20:52Z</time>
      </trkpt>
      <trkpt lat="48.12162" lon="-1.83017">
        <ele>85</ele>
        <time>2025-05-16T10:20:53Z</time>
      </trkpt>
      <trkpt lat="48.12163" lon="-1.83012">
        <ele>86</ele>
        <time>2025-05-16T10:20:54Z</time>
      </trkpt>
      <trkpt lat="48.12164" lon="-1.83006">
        <ele>86</ele>
        <time>2025-05-16T10:20:55Z</time>
      </trkpt>
      <trkpt lat="48.12165" lon="-1.83">
        <ele>86</ele>
        <time>2025-05-16T10:20:56Z</time>
      </trkpt>
      <trkpt lat="48.12166" lon="-1.82994">
        <ele>86</ele>
        <time>2025-05-16T10:20:57Z</time>
      </trkpt>
      <trkpt lat="48.12167" lon="-1.82988">
        <ele>86</ele>
        <time>2025-05-16T10:20:58Z</time>
      </trkpt>
      <trkpt lat="48.12169" lon="-1.82982">
        <ele>86</ele>
        <time>2025-05-16T10:20:59Z</time>
      </trkpt>
      <trkpt lat="48.1217" lon="-1.82977">
        <ele>86</ele>
        <time>2025-05-16T10:21:00Z</time>
      </trkpt>
      <trkpt lat="48.1217" lon="-1.82971">
        <ele>86</ele>
        <time>2025-05-16T10:21:01Z</time>
      </trkpt>
      <trkpt lat="48.12171" lon="-1.82966">
        <ele>85</ele>
        <time>2025-05-16T10:21:02Z</time>
      </trkpt>
      <trkpt lat="48.12172" lon="-1.8296">
        <ele>85</ele>
        <time>2025-05-16T10:21:03Z</time>
      </trkpt>
      <trkpt lat="48.12173" lon="-1.82955">
        <ele>85</ele>
        <time>2025-05-16T10:21:04Z</time>
      </trkpt>
      <trkpt lat="48.12174" lon="-1.82949">
        <ele>85</ele>
        <time>2025-05-16T10:21:05Z</time>
      </trkpt>
      <trkpt lat="48.12175" lon="-1.82943">
        <ele>85</ele>
        <time>2025-05-16T10:21:06Z</time>
      </trkpt>
      <trkpt lat="48.12177" lon="-1.82937">
        <ele>86</ele>
        <time>2025-05-16T10:21:07Z</time>
      </trkpt>
      <trkpt lat="48.12178" lon="-1.8293">
        <ele>86</ele>
        <time>2025-05-16T10:21:08Z</time>
      </trkpt>
      <trkpt lat="48.12179" lon="-1.82924">
        <ele>86</ele>
        <time>2025-05-16T10:21:09Z</time>
      </trkpt>
      <trkpt lat="48.1218" lon="-1.82917">
        <ele>86</ele>
        <time>2025-05-16T10:21:10Z</time>
      </trkpt>
      <trkpt lat="48.12181" lon="-1.8291">
        <ele>86</ele>
        <time>2025-05-16T10:21:11Z</time>
      </trkpt>
      <trkpt lat="48.12182" lon="-1.82903">
        <ele>85</ele>
        <time>2025-05-16T10:21:12Z</time>
      </trkpt>
      <trkpt lat="48.12184" lon="-1.82896">
        <ele>85</ele>
        <time>2025-05-16T10:21:13Z</time>
      </trkpt>
      <trkpt lat="48.12185" lon="-1.82888">
        <ele>85</ele>
        <time>2025-05-16T10:21:14Z</time>
      </trkpt>
      <trkpt lat="48.12187" lon="-1.82881">
        <ele>85</ele>
        <time>2025-05-16T10:21:15Z</time>
      </trkpt>
      <trkpt lat="48.12188" lon="-1.82874">
        <ele>85</ele>
        <time>2025-05-16T10:21:16Z</time>
      </trkpt>
      <trkpt lat="48.12189" lon="-1.82866">
        <ele>85</ele>
        <time>2025-05-16T10:21:17Z</time>
      </trkpt>
      <trkpt lat="48.1219" lon="-1.8286">
        <ele>85</ele>
        <time>2025-05-16T10:21:18Z</time>
      </trkpt>
      <trkpt lat="48.12191" lon="-1.82853">
        <ele>85</ele>
        <time>2025-05-16T10:21:19Z</time>
      </trkpt>
      <trkpt lat="48.12192" lon="-1.82847">
        <ele>86</ele>
        <time>2025-05-16T10:21:20Z</time>
      </trkpt>
      <trkpt lat="48.12193" lon="-1.82841">
        <ele>86</ele>
        <time>2025-05-16T10:21:21Z</time>
      </trkpt>
      <trkpt lat="48.12194" lon="-1.82835">
        <ele>86</ele>
        <time>2025-05-16T10:21:22Z</time>
      </trkpt>
      <trkpt lat="48.12195" lon="-1.82829">
        <ele>86</ele>
        <time>2025-05-16T10:21:23Z</time>
      </trkpt>
      <trkpt lat="48.12196" lon="-1.82823">
        <ele>86</ele>
        <time>2025-05-16T10:21:24Z</time>
      </trkpt>
      <trkpt lat="48.12197" lon="-1.82818">
        <ele>86</ele>
        <time>2025-05-16T10:21:25Z</time>
      </trkpt>
      <trkpt lat="48.12198" lon="-1.82812">
        <ele>86</ele>
        <time>2025-05-16T10:21:26Z</time>
      </trkpt>
      <trkpt lat="48.12199" lon="-1.82806">
        <ele>86</ele>
        <time>2025-05-16T10:21:27Z</time>
      </trkpt>
      <trkpt lat="48.122" lon="-1.828">
        <ele>87</ele>
        <time>2025-05-16T10:21:28Z</time>
      </trkpt>
      <trkpt lat="48.12201" lon="-1.82795">
        <ele>87</ele>
        <time>2025-05-16T10:21:29Z</time>
      </trkpt>
      <trkpt lat="48.12202" lon="-1.82789">
        <ele>87</ele>
        <time>2025-05-16T10:21:30Z</time>
      </trkpt>
      <trkpt lat="48.12203" lon="-1.82783">
        <ele>87</ele>
        <time>2025-05-16T10:21:31Z</time>
      </trkpt>
      <trkpt lat="48.12204" lon="-1.82778">
        <ele>87</ele>
        <time>2025-05-16T10:21:32Z</time>
      </trkpt>
      <trkpt lat="48.12205" lon="-1.82773">
        <ele>87</ele>
        <time>2025-05-16T10:21:33Z</time>
      </trkpt>
      <trkpt lat="48.12206" lon="-1.82768">
        <ele>87</ele>
        <time>2025-05-16T10:21:34Z</time>
      </trkpt>
      <trkpt lat="48.12207" lon="-1.82763">
        <ele>87</ele>
        <time>2025-05-16T10:21:35Z</time>
      </trkpt>
      <trkpt lat="48.12209" lon="-1.82758">
        <ele>87</ele>
        <time>2025-05-16T10:21:36Z</time>
      </trkpt>
      <trkpt lat="48.1221" lon="-1.82753">
        <ele>87</ele>
        <time>2025-05-16T10:21:37Z</time>
      </trkpt>
      <trkpt lat="48.12211" lon="-1.82749">
        <ele>87</ele>
        <time>2025-05-16T10:21:38Z</time>
      </trkpt>
      <trkpt lat="48.12212" lon="-1.82744">
        <ele>87</ele>
        <time>2025-05-16T10:21:39Z</time>
      </trkpt>
      <trkpt lat="48.12213" lon="-1.82739">
        <ele>87</ele>
        <time>2025-05-16T10:21:40Z</time>
      </trkpt>
      <trkpt lat="48.12214" lon="-1.82734">
        <ele>87</ele>
        <time>2025-05-16T10:21:41Z</time>
      </trkpt>
      <trkpt lat="48.12215" lon="-1.82729">
        <ele>87</ele>
        <time>2025-05-16T10:21:42Z</time>
      </trkpt>
      <trkpt lat="48.12217" lon="-1.82724">
        <ele>87</ele>
        <time>2025-05-16T10:21:43Z</time>
      </trkpt>
      <trkpt lat="48.12218" lon="-1.82719">
        <ele>87</ele>
        <time>2025-05-16T10:21:44Z</time>
      </trkpt>
      <trkpt lat="48.12219" lon="-1.82713">
        <ele>88</ele>
        <time>2025-05-16T10:21:45Z</time>
      </trkpt>
      <trkpt lat="48.1222" lon="-1.82708">
        <ele>88</ele>
        <time>2025-05-16T10:21:46Z</time>
      </trkpt>
      <trkpt lat="48.12221" lon="-1.82703">
        <ele>88</ele>
        <time>2025-05-16T10:21:47Z</time>
      </trkpt>
      <trkpt lat="48.12222" lon="-1.82698">
        <ele>88</ele>
        <time>2025-05-16T10:21:48Z</time>
      </trkpt>
      <trkpt lat="48.12223" lon="-1.82693">
        <ele>88</ele>
        <time>2025-05-16T10:21:49Z</time>
      </trkpt>
      <trkpt lat="48.12225" lon="-1.82688">
        <ele>88</ele>
        <time>2025-05-16T10:21:50Z</time>
      </trkpt>
      <trkpt lat="48.12226" lon="-1.82682">
        <ele>88</ele>
        <time>2025-05-16T10:21:51Z</time>
      </trkpt>
      <trkpt lat="48.12227" lon="-1.82677">
        <ele>89</ele>
        <time>2025-05-16T10:21:52Z</time>
      </trkpt>
      <trkpt lat="48.12228" lon="-1.82672">
        <ele>89</ele>
        <time>2025-05-16T10:21:53Z</time>
      </trkpt>
      <trkpt lat="48.12229" lon="-1.82667">
        <ele>90</ele>
        <time>2025-05-16T10:21:54Z</time>
      </trkpt>
      <trkpt lat="48.1223" lon="-1.82662">
        <ele>90</ele>
        <time>2025-05-16T10:21:55Z</time>
      </trkpt>
      <trkpt lat="48.12231" lon="-1.82657">
        <ele>90</ele>
        <time>2025-05-16T10:21:56Z</time>
      </trkpt>
      <trkpt lat="48.12233" lon="-1.82652">
        <ele>90</ele>
        <time>2025-05-16T10:21:57Z</time>
      </trkpt>
      <trkpt lat="48.12233" lon="-1.82647">
        <ele>90</ele>
        <time>2025-05-16T10:21:58Z</time>
      </trkpt>
      <trkpt lat="48.12235" lon="-1.82643">
        <ele>90</ele>
        <time>2025-05-16T10:21:59Z</time>
      </trkpt>
      <trkpt lat="48.12236" lon="-1.82637">
        <ele>90</ele>
        <time>2025-05-16T10:22:00Z</time>
      </trkpt>
      <trkpt lat="48.12237" lon="-1.82633">
        <ele>90</ele>
        <time>2025-05-16T10:22:01Z</time>
      </trkpt>
      <trkpt lat="48.12238" lon="-1.82628">
        <ele>90</ele>
        <time>2025-05-16T10:22:02Z</time>
      </trkpt>
      <trkpt lat="48.12239" lon="-1.82623">
        <ele>90</ele>
        <time>2025-05-16T10:22:03Z</time>
      </trkpt>
      <trkpt lat="48.1224" lon="-1.82619">
        <ele>90</ele>
        <time>2025-05-16T10:22:04Z</time>
      </trkpt>
      <trkpt lat="48.12241" lon="-1.82613">
        <ele>90</ele>
        <time>2025-05-16T10:22:05Z</time>
      </trkpt>
      <trkpt lat="48.12242" lon="-1.82608">
        <ele>90</ele>
        <time>2025-05-16T10:22:06Z</time>
      </trkpt>
      <trkpt lat="48.12243" lon="-1.82603">
        <ele>91</ele>
        <time>2025-05-16T10:22:07Z</time>
      </trkpt>
      <trkpt lat="48.12244" lon="-1.82598">
        <ele>91</ele>
        <time>2025-05-16T10:22:08Z</time>
      </trkpt>
      <trkpt lat="48.12245" lon="-1.82593">
        <ele>91</ele>
        <time>2025-05-16T10:22:09Z</time>
      </trkpt>
      <trkpt lat="48.12246" lon="-1.82589">
        <ele>90</ele>
        <time>2025-05-16T10:22:10Z</time>
      </trkpt>
      <trkpt lat="48.12248" lon="-1.82584">
        <ele>91</ele>
        <time>2025-05-16T10:22:11Z</time>
      </trkpt>
      <trkpt lat="48.12249" lon="-1.82579">
        <ele>91</ele>
        <time>2025-05-16T10:22:12Z</time>
      </trkpt>
      <trkpt lat="48.1225" lon="-1.82574">
        <ele>91</ele>
        <time>2025-05-16T10:22:13Z</time>
      </trkpt>
      <trkpt lat="48.12251" lon="-1.82569">
        <ele>90</ele>
        <time>2025-05-16T10:22:14Z</time>
      </trkpt>
      <trkpt lat="48.12252" lon="-1.82564">
        <ele>91</ele>
        <time>2025-05-16T10:22:15Z</time>
      </trkpt>
      <trkpt lat="48.12253" lon="-1.82559">
        <ele>91</ele>
        <time>2025-05-16T10:22:16Z</time>
      </trkpt>
      <trkpt lat="48.12254" lon="-1.82555">
        <ele>91</ele>
        <time>2025-05-16T10:22:17Z</time>
      </trkpt>
      <trkpt lat="48.12255" lon="-1.8255">
        <ele>91</ele>
        <time>2025-05-16T10:22:18Z</time>
      </trkpt>
      <trkpt lat="48.12256" lon="-1.82545">
        <ele>91</ele>
        <time>2025-05-16T10:22:19Z</time>
      </trkpt>
      <trkpt lat="48.12257" lon="-1.8254">
        <ele>91</ele>
        <time>2025-05-16T10:22:20Z</time>
      </trkpt>
      <trkpt lat="48.12258" lon="-1.82535">
        <ele>91</ele>
        <time>2025-05-16T10:22:21Z</time>
      </trkpt>
      <trkpt lat="48.12259" lon="-1.8253">
        <ele>91</ele>
        <time>2025-05-16T10:22:22Z</time>
      </trkpt>
      <trkpt lat="48.1226" lon="-1.82526">
        <ele>91</ele>
        <time>2025-05-16T10:22:23Z</time>
      </trkpt>
      <trkpt lat="48.12261" lon="-1.82521">
        <ele>90</ele>
        <time>2025-05-16T10:22:24Z</time>
      </trkpt>
      <trkpt lat="48.12262" lon="-1.82516">
        <ele>90</ele>
        <time>2025-05-16T10:22:25Z</time>
      </trkpt>
      <trkpt lat="48.12264" lon="-1.82511">
        <ele>91</ele>
        <time>2025-05-16T10:22:26Z</time>
      </trkpt>
      <trkpt lat="48.12265" lon="-1.82506">
        <ele>91</ele>
        <time>2025-05-16T10:22:27Z</time>
      </trkpt>
      <trkpt lat="48.12266" lon="-1.82501">
        <ele>91</ele>
        <time>2025-05-16T10:22:28Z</time>
      </trkpt>
      <trkpt lat="48.12267" lon="-1.82496">
        <ele>91</ele>
        <time>2025-05-16T10:22:29Z</time>
      </trkpt>
      <trkpt lat="48.12268" lon="-1.82491">
        <ele>91</ele>
        <time>2025-05-16T10:22:30Z</time>
      </trkpt>
      <trkpt lat="48.12269" lon="-1.82487">
        <ele>91</ele>
        <time>2025-05-16T10:22:31Z</time>
      </trkpt>
      <trkpt lat="48.1227" lon="-1.82482">
        <ele>91</ele>
        <time>2025-05-16T10:22:32Z</time>
      </trkpt>
      <trkpt lat="48.12271" lon="-1.82477">
        <ele>91</ele>
        <time>2025-05-16T10:22:33Z</time>
      </trkpt>
      <trkpt lat="48.12272" lon="-1.82472">
        <ele>91</ele>
        <time>2025-05-16T10:22:34Z</time>
      </trkpt>
      <trkpt lat="48.12273" lon="-1.82467">
        <ele>91</ele>
        <time>2025-05-16T10:22:35Z</time>
      </trkpt>
      <trkpt lat="48.12274" lon="-1.82462">
        <ele>91</ele>
        <time>2025-05-16T10:22:36Z</time>
      </trkpt>
      <trkpt lat="48.12276" lon="-1.82457">
        <ele>90</ele>
        <time>2025-05-16T10:22:37Z</time>
      </trkpt>
      <trkpt lat="48.12277" lon="-1.82452">
        <ele>90</ele>
        <time>2025-05-16T10:22:38Z</time>
      </trkpt>
      <trkpt lat="48.12278" lon="-1.82446">
        <ele>91</ele>
        <time>2025-05-16T10:22:39Z</time>
      </trkpt>
      <trkpt lat="48.12279" lon="-1.82441">
        <ele>90</ele>
        <time>2025-05-16T10:22:40Z</time>
      </trkpt>
      <trkpt lat="48.1228" lon="-1.82436">
        <ele>90</ele>
        <time>2025-05-16T10:22:41Z</time>
      </trkpt>
      <trkpt lat="48.12281" lon="-1.8243">
        <ele>90</ele>
        <time>2025-05-16T10:22:42Z</time>
      </trkpt>
      <trkpt lat="48.12282" lon="-1.82425">
        <ele>90</ele>
        <time>2025-05-16T10:22:43Z</time>
      </trkpt>
      <trkpt lat="48.12284" lon="-1.8242">
        <ele>90</ele>
        <time>2025-05-16T10:22:44Z</time>
      </trkpt>
      <trkpt lat="48.12284" lon="-1.82415">
        <ele>89</ele>
        <time>2025-05-16T10:22:45Z</time>
      </trkpt>
      <trkpt lat="48.12285" lon="-1.82409">
        <ele>89</ele>
        <time>2025-05-16T10:22:46Z</time>
      </trkpt>
      <trkpt lat="48.12286" lon="-1.82403">
        <ele>89</ele>
        <time>2025-05-16T10:22:47Z</time>
      </trkpt>
      <trkpt lat="48.12287" lon="-1.82398">
        <ele>89</ele>
        <time>2025-05-16T10:22:48Z</time>
      </trkpt>
      <trkpt lat="48.12288" lon="-1.82393">
        <ele>89</ele>
        <time>2025-05-16T10:22:49Z</time>
      </trkpt>
      <trkpt lat="48.12289" lon="-1.82388">
        <ele>89</ele>
        <time>2025-05-16T10:22:50Z</time>
      </trkpt>
      <trkpt lat="48.1229" lon="-1.82382">
        <ele>89</ele>
        <time>2025-05-16T10:22:51Z</time>
      </trkpt>
      <trkpt lat="48.12291" lon="-1.82377">
        <ele>89</ele>
        <time>2025-05-16T10:22:52Z</time>
      </trkpt>
      <trkpt lat="48.12291" lon="-1.82372">
        <ele>89</ele>
        <time>2025-05-16T10:22:53Z</time>
      </trkpt>
      <trkpt lat="48.12292" lon="-1.82366">
        <ele>89</ele>
        <time>2025-05-16T10:22:54Z</time>
      </trkpt>
      <trkpt lat="48.12293" lon="-1.8236">
        <ele>89</ele>
        <time>2025-05-16T10:22:55Z</time>
      </trkpt>
      <trkpt lat="48.12294" lon="-1.82355">
        <ele>89</ele>
        <time>2025-05-16T10:22:56Z</time>
      </trkpt>
      <trkpt lat="48.12295" lon="-1.82349">
        <ele>89</ele>
        <time>2025-05-16T10:22:57Z</time>
      </trkpt>
      <trkpt lat="48.12296" lon="-1.82343">
        <ele>89</ele>
        <time>2025-05-16T10:22:58Z</time>
      </trkpt>
      <trkpt lat="48.12297" lon="-1.82337">
        <ele>90</ele>
        <time>2025-05-16T10:22:59Z</time>
      </trkpt>
      <trkpt lat="48.12298" lon="-1.82332">
        <ele>90</ele>
        <time>2025-05-16T10:23:00Z</time>
      </trkpt>
      <trkpt lat="48.12298" lon="-1.82326">
        <ele>91</ele>
        <time>2025-05-16T10:23:01Z</time>
      </trkpt>
      <trkpt lat="48.12299" lon="-1.82321">
        <ele>91</ele>
        <time>2025-05-16T10:23:02Z</time>
      </trkpt>
      <trkpt lat="48.123" lon="-1.82315">
        <ele>91</ele>
        <time>2025-05-16T10:23:03Z</time>
      </trkpt>
      <trkpt lat="48.12301" lon="-1.8231">
        <ele>91</ele>
        <time>2025-05-16T10:23:04Z</time>
      </trkpt>
      <trkpt lat="48.12301" lon="-1.82304">
        <ele>91</ele>
        <time>2025-05-16T10:23:05Z</time>
      </trkpt>
      <trkpt lat="48.12302" lon="-1.82299">
        <ele>91</ele>
        <time>2025-05-16T10:23:06Z</time>
      </trkpt>
      <trkpt lat="48.12302" lon="-1.82293">
        <ele>91</ele>
        <time>2025-05-16T10:23:07Z</time>
      </trkpt>
      <trkpt lat="48.12302" lon="-1.82288">
        <ele>91</ele>
        <time>2025-05-16T10:23:08Z</time>
      </trkpt>
      <trkpt lat="48.12303" lon="-1.82282">
        <ele>92</ele>
        <time>2025-05-16T10:23:09Z</time>
      </trkpt>
      <trkpt lat="48.12303" lon="-1.82276">
        <ele>92</ele>
        <time>2025-05-16T10:23:10Z</time>
      </trkpt>
      <trkpt lat="48.12303" lon="-1.8227">
        <ele>92</ele>
        <time>2025-05-16T10:23:11Z</time>
      </trkpt>
      <trkpt lat="48.12303" lon="-1.82265">
        <ele>92</ele>
        <time>2025-05-16T10:23:12Z</time>
      </trkpt>
      <trkpt lat="48.12301" lon="-1.82259">
        <ele>92</ele>
        <time>2025-05-16T10:23:13Z</time>
      </trkpt>
      <trkpt lat="48.123" lon="-1.82253">
        <ele>92</ele>
        <time>2025-05-16T10:23:14Z</time>
      </trkpt>
      <trkpt lat="48.123" lon="-1.82248">
        <ele>92</ele>
        <time>2025-05-16T10:23:15Z</time>
      </trkpt>
      <trkpt lat="48.123" lon="-1.82242">
        <ele>93</ele>
        <time>2025-05-16T10:23:16Z</time>
      </trkpt>
      <trkpt lat="48.12301" lon="-1.82237">
        <ele>92</ele>
        <time>2025-05-16T10:23:17Z</time>
      </trkpt>
      <trkpt lat="48.12301" lon="-1.82231">
        <ele>93</ele>
        <time>2025-05-16T10:23:18Z</time>
      </trkpt>
      <trkpt lat="48.12302" lon="-1.82226">
        <ele>93</ele>
        <time>2025-05-16T10:23:19Z</time>
      </trkpt>
      <trkpt lat="48.12301" lon="-1.8222">
        <ele>92</ele>
        <time>2025-05-16T10:23:20Z</time>
      </trkpt>
      <trkpt lat="48.123" lon="-1.82214">
        <ele>92</ele>
        <time>2025-05-16T10:23:21Z</time>
      </trkpt>
      <trkpt lat="48.123" lon="-1.82209">
        <ele>92</ele>
        <time>2025-05-16T10:23:22Z</time>
      </trkpt>
      <trkpt lat="48.12299" lon="-1.82203">
        <ele>92</ele>
        <time>2025-05-16T10:23:23Z</time>
      </trkpt>
      <trkpt lat="48.12299" lon="-1.82198">
        <ele>92</ele>
        <time>2025-05-16T10:23:24Z</time>
      </trkpt>
      <trkpt lat="48.12299" lon="-1.82192">
        <ele>92</ele>
        <time>2025-05-16T10:23:25Z</time>
      </trkpt>
      <trkpt lat="48.12298" lon="-1.82186">
        <ele>92</ele>
        <time>2025-05-16T10:23:26Z</time>
      </trkpt>
      <trkpt lat="48.12298" lon="-1.82181">
        <ele>92</ele>
        <time>2025-05-16T10:23:27Z</time>
      </trkpt>
      <trkpt lat="48.12297" lon="-1.82175">
        <ele>92</ele>
        <time>2025-05-16T10:23:28Z</time>
      </trkpt>
      <trkpt lat="48.12296" lon="-1.8217">
        <ele>92</ele>
        <time>2025-05-16T10:23:29Z</time>
      </trkpt>
      <trkpt lat="48.12296" lon="-1.82165">
        <ele>92</ele>
        <time>2025-05-16T10:23:30Z</time>
      </trkpt>
      <trkpt lat="48.12295" lon="-1.82159">
        <ele>93</ele>
        <time>2025-05-16T10:23:31Z</time>
      </trkpt>
      <trkpt lat="48.12294" lon="-1.82154">
        <ele>93</ele>
        <time>2025-05-16T10:23:32Z</time>
      </trkpt>
      <trkpt lat="48.12294" lon="-1.8215">
        <ele>93</ele>
        <time>2025-05-16T10:23:33Z</time>
      </trkpt>
      <trkpt lat="48.12293" lon="-1.82145">
        <ele>93</ele>
        <time>2025-05-16T10:23:34Z</time>
      </trkpt>
      <trkpt lat="48.12293" lon="-1.8214">
        <ele>93</ele>
        <time>2025-05-16T10:23:35Z</time>
      </trkpt>
      <trkpt lat="48.12292" lon="-1.82135">
        <ele>93</ele>
        <time>2025-05-16T10:23:36Z</time>
      </trkpt>
      <trkpt lat="48.12291" lon="-1.8213">
        <ele>93</ele>
        <time>2025-05-16T10:23:37Z</time>
      </trkpt>
      <trkpt lat="48.1229" lon="-1.82125">
        <ele>93</ele>
        <time>2025-05-16T10:23:38Z</time>
      </trkpt>
      <trkpt lat="48.12289" lon="-1.8212">
        <ele>94</ele>
        <time>2025-05-16T10:23:39Z</time>
      </trkpt>
      <trkpt lat="48.12289" lon="-1.82115">
        <ele>94</ele>
        <time>2025-05-16T10:23:40Z</time>
      </trkpt>
      <trkpt lat="48.12288" lon="-1.8211">
        <ele>94</ele>
        <time>2025-05-16T10:23:41Z</time>
      </trkpt>
      <trkpt lat="48.12287" lon="-1.82106">
        <ele>94</ele>
        <time>2025-05-16T10:23:42Z</time>
      </trkpt>
      <trkpt lat="48.12286" lon="-1.82101">
        <ele>94</ele>
        <time>2025-05-16T10:23:43Z</time>
      </trkpt>
      <trkpt lat="48.12286" lon="-1.82096">
        <ele>94</ele>
        <time>2025-05-16T10:23:44Z</time>
      </trkpt>
      <trkpt lat="48.12285" lon="-1.82091">
        <ele>94</ele>
        <time>2025-05-16T10:23:45Z</time>
      </trkpt>
      <trkpt lat="48.12285" lon="-1.82086">
        <ele>94</ele>
        <time>2025-05-16T10:23:46Z</time>
      </trkpt>
      <trkpt lat="48.12284" lon="-1.82081">
        <ele>94</ele>
        <time>2025-05-16T10:23:47Z</time>
      </trkpt>
      <trkpt lat="48.12284" lon="-1.82076">
        <ele>95</ele>
        <time>2025-05-16T10:23:48Z</time>
      </trkpt>
      <trkpt lat="48.12283" lon="-1.82071">
        <ele>95</ele>
        <time>2025-05-16T10:23:49Z</time>
      </trkpt>
      <trkpt lat="48.12282" lon="-1.82066">
        <ele>95</ele>
        <time>2025-05-16T10:23:50Z</time>
      </trkpt>
      <trkpt lat="48.12281" lon="-1.82061">
        <ele>95</ele>
        <time>2025-05-16T10:23:51Z</time>
      </trkpt>
      <trkpt lat="48.1228" lon="-1.82057">
        <ele>95</ele>
        <time>2025-05-16T10:23:52Z</time>
      </trkpt>
      <trkpt lat="48.12279" lon="-1.82053">
        <ele>95</ele>
        <time>2025-05-16T10:23:53Z</time>
      </trkpt>
      <trkpt lat="48.12278" lon="-1.82049">
        <ele>95</ele>
        <time>2025-05-16T10:23:54Z</time>
      </trkpt>
      <trkpt lat="48.12278" lon="-1.82044">
        <ele>95</ele>
        <time>2025-05-16T10:23:55Z</time>
      </trkpt>
      <trkpt lat="48.12277" lon="-1.82041">
        <ele>95</ele>
        <time>2025-05-16T10:23:56Z</time>
      </trkpt>
      <trkpt lat="48.12276" lon="-1.82037">
        <ele>95</ele>
        <time>2025-05-16T10:23:57Z</time>
      </trkpt>
      <trkpt lat="48.12276" lon="-1.82033">
        <ele>95</ele>
        <time>2025-05-16T10:23:58Z</time>
      </trkpt>
      <trkpt lat="48.12276" lon="-1.82029">
        <ele>95</ele>
        <time>2025-05-16T10:23:59Z</time>
      </trkpt>
      <trkpt lat="48.12276" lon="-1.82025">
        <ele>96</ele>
        <time>2025-05-16T10:24:00Z</time>
      </trkpt>
      <trkpt lat="48.12275" lon="-1.8202">
        <ele>96</ele>
        <time>2025-05-16T10:24:01Z</time>
      </trkpt>
      <trkpt lat="48.12275" lon="-1.82016">
        <ele>96</ele>
        <time>2025-05-16T10:24:02Z</time>
      </trkpt>
      <trkpt lat="48.12275" lon="-1.82012">
        <ele>97</ele>
        <time>2025-05-16T10:24:03Z</time>
      </trkpt>
      <trkpt lat="48.12275" lon="-1.82008">
        <ele>96</ele>
        <time>2025-05-16T10:24:04Z</time>
      </trkpt>
      <trkpt lat="48.12275" lon="-1.82004">
        <ele>96</ele>
        <time>2025-05-16T10:24:05Z</time>
      </trkpt>
      <trkpt lat="48.12274" lon="-1.82">
        <ele>96</ele>
        <time>2025-05-16T10:24:06Z</time>
      </trkpt>
      <trkpt lat="48.12274" lon="-1.81996">
        <ele>96</ele>
        <time>2025-05-16T10:24:07Z</time>
      </trkpt>
      <trkpt lat="48.12274" lon="-1.81992">
        <ele>96</ele>
        <time>2025-05-16T10:24:08Z</time>
      </trkpt>
      <trkpt lat="48.12273" lon="-1.81987">
        <ele>96</ele>
        <time>2025-05-16T10:24:09Z</time>
      </trkpt>
      <trkpt lat="48.12273" lon="-1.81984">
        <ele>97</ele>
        <time>2025-05-16T10:24:10Z</time>
      </trkpt>
      <trkpt lat="48.12273" lon="-1.81979">
        <ele>97</ele>
        <time>2025-05-16T10:24:11Z</time>
      </trkpt>
      <trkpt lat="48.12273" lon="-1.81975">
        <ele>97</ele>
        <time>2025-05-16T10:24:12Z</time>
      </trkpt>
      <trkpt lat="48.12273" lon="-1.81971">
        <ele>97</ele>
        <time>2025-05-16T10:24:13Z</time>
      </trkpt>
      <trkpt lat="48.12273" lon="-1.81967">
        <ele>97</ele>
        <time>2025-05-16T10:24:14Z</time>
      </trkpt>
      <trkpt lat="48.12272" lon="-1.81963">
        <ele>97</ele>
        <time>2025-05-16T10:24:15Z</time>
      </trkpt>
      <trkpt lat="48.12272" lon="-1.81959">
        <ele>97</ele>
        <time>2025-05-16T10:24:16Z</time>
      </trkpt>
      <trkpt lat="48.12272" lon="-1.81954">
        <ele>97</ele>
        <time>2025-05-16T10:24:17Z</time>
      </trkpt>
      <trkpt lat="48.12271" lon="-1.8195">
        <ele>97</ele>
        <time>2025-05-16T10:24:18Z</time>
      </trkpt>
      <trkpt lat="48.12271" lon="-1.81946">
        <ele>97</ele>
        <time>2025-05-16T10:24:19Z</time>
      </trkpt>
      <trkpt lat="48.1227" lon="-1.81942">
        <ele>98</ele>
        <time>2025-05-16T10:24:20Z</time>
      </trkpt>
      <trkpt lat="48.1227" lon="-1.81938">
        <ele>98</ele>
        <time>2025-05-16T10:24:21Z</time>
      </trkpt>
      <trkpt lat="48.1227" lon="-1.81933">
        <ele>98</ele>
        <time>2025-05-16T10:24:22Z</time>
      </trkpt>
      <trkpt lat="48.1227" lon="-1.81929">
        <ele>99</ele>
        <time>2025-05-16T10:24:23Z</time>
      </trkpt>
      <trkpt lat="48.1227" lon="-1.81925">
        <ele>98</ele>
        <time>2025-05-16T10:24:24Z</time>
      </trkpt>
      <trkpt lat="48.1227" lon="-1.81921">
        <ele>99</ele>
        <time>2025-05-16T10:24:25Z</time>
      </trkpt>
      <trkpt lat="48.1227" lon="-1.81918">
        <ele>99</ele>
        <time>2025-05-16T10:24:26Z</time>
      </trkpt>
      <trkpt lat="48.1227" lon="-1.81914">
        <ele>99</ele>
        <time>2025-05-16T10:24:27Z</time>
      </trkpt>
      <trkpt lat="48.1227" lon="-1.8191">
        <ele>99</ele>
        <time>2025-05-16T10:24:28Z</time>
      </trkpt>
      <trkpt lat="48.1227" lon="-1.81907">
        <ele>99</ele>
        <time>2025-05-16T10:24:29Z</time>
      </trkpt>
      <trkpt lat="48.1227" lon="-1.81903">
        <ele>99</ele>
        <time>2025-05-16T10:24:30Z</time>
      </trkpt>
      <trkpt lat="48.1227" lon="-1.819">
        <ele>100</ele>
        <time>2025-05-16T10:24:31Z</time>
      </trkpt>
      <trkpt lat="48.1227" lon="-1.81896">
        <ele>100</ele>
        <time>2025-05-16T10:24:32Z</time>
      </trkpt>
      <trkpt lat="48.12269" lon="-1.81893">
        <ele>100</ele>
        <time>2025-05-16T10:24:33Z</time>
      </trkpt>
      <trkpt lat="48.12269" lon="-1.81889">
        <ele>100</ele>
        <time>2025-05-16T10:24:34Z</time>
      </trkpt>
      <trkpt lat="48.12269" lon="-1.81886">
        <ele>100</ele>
        <time>2025-05-16T10:24:35Z</time>
      </trkpt>
      <trkpt lat="48.12269" lon="-1.81882">
        <ele>100</ele>
        <time>2025-05-16T10:24:36Z</time>
      </trkpt>
      <trkpt lat="48.12269" lon="-1.81879">
        <ele>100</ele>
        <time>2025-05-16T10:24:37Z</time>
      </trkpt>
      <trkpt lat="48.12269" lon="-1.81875">
        <ele>100</ele>
        <time>2025-05-16T10:24:38Z</time>
      </trkpt>
      <trkpt lat="48.12269" lon="-1.81871">
        <ele>100</ele>
        <time>2025-05-16T10:24:39Z</time>
      </trkpt>
      <trkpt lat="48.1227" lon="-1.81868">
        <ele>100</ele>
        <time>2025-05-16T10:24:40Z</time>
      </trkpt>
      <trkpt lat="48.1227" lon="-1.81865">
        <ele>100</ele>
        <time>2025-05-16T10:24:41Z</time>
      </trkpt>
      <trkpt lat="48.1227" lon="-1.81862">
        <ele>100</ele>
        <time>2025-05-16T10:24:42Z</time>
      </trkpt>
      <trkpt lat="48.12271" lon="-1.81859">
        <ele>100</ele>
        <time>2025-05-16T10:24:43Z</time>
      </trkpt>
      <trkpt lat="48.12272" lon="-1.81856">
        <ele>100</ele>
        <time>2025-05-16T10:24:44Z</time>
      </trkpt>
      <trkpt lat="48.12273" lon="-1.81853">
        <ele>101</ele>
        <time>2025-05-16T10:24:45Z</time>
      </trkpt>
      <trkpt lat="48.12274" lon="-1.8185">
        <ele>101</ele>
        <time>2025-05-16T10:24:46Z</time>
      </trkpt>
      <trkpt lat="48.12275" lon="-1.81848">
        <ele>101</ele>
        <time>2025-05-16T10:24:47Z</time>
      </trkpt>
      <trkpt lat="48.12276" lon="-1.81845">
        <ele>101</ele>
        <time>2025-05-16T10:24:48Z</time>
      </trkpt>
      <trkpt lat="48.12278" lon="-1.81843">
        <ele>101</ele>
        <time>2025-05-16T10:24:49Z</time>
      </trkpt>
      <trkpt lat="48.1228" lon="-1.81841">
        <ele>101</ele>
        <time>2025-05-16T10:24:50Z</time>
      </trkpt>
      <trkpt lat="48.12281" lon="-1.81839">
        <ele>102</ele>
        <time>2025-05-16T10:24:51Z</time>
      </trkpt>
      <trkpt lat="48.12283" lon="-1.81836">
        <ele>102</ele>
        <time>2025-05-16T10:24:52Z</time>
      </trkpt>
      <trkpt lat="48.12284" lon="-1.81834">
        <ele>102</ele>
        <time>2025-05-16T10:24:53Z</time>
      </trkpt>
      <trkpt lat="48.12286" lon="-1.81832">
        <ele>102</ele>
        <time>2025-05-16T10:24:54Z</time>
      </trkpt>
      <trkpt lat="48.12288" lon="-1.81831">
        <ele>102</ele>
        <time>2025-05-16T10:24:55Z</time>
      </trkpt>
      <trkpt lat="48.1229" lon="-1.8183">
        <ele>102</ele>
        <time>2025-05-16T10:24:56Z</time>
      </trkpt>
      <trkpt lat="48.12291" lon="-1.81828">
        <ele>102</ele>
        <time>2025-05-16T10:24:57Z</time>
      </trkpt>
      <trkpt lat="48.12293" lon="-1.81828">
        <ele>103</ele>
        <time>2025-05-16T10:24:58Z</time>
      </trkpt>
      <trkpt lat="48.12295" lon="-1.81826">
        <ele>103</ele>
        <time>2025-05-16T10:24:59Z</time>
      </trkpt>
      <trkpt lat="48.12297" lon="-1.81825">
        <ele>104</ele>
        <time>2025-05-16T10:25:00Z</time>
      </trkpt>
      <trkpt lat="48.12298" lon="-1.81824">
        <ele>104</ele>
        <time>2025-05-16T10:25:01Z</time>
      </trkpt>
      <trkpt lat="48.123" lon="-1.81824">
        <ele>104</ele>
        <time>2025-05-16T10:25:02Z</time>
      </trkpt>
      <trkpt lat="48.12301" lon="-1.81822">
        <ele>104</ele>
        <time>2025-05-16T10:25:03Z</time>
      </trkpt>
      <trkpt lat="48.12303" lon="-1.81821">
        <ele>104</ele>
        <time>2025-05-16T10:25:04Z</time>
      </trkpt>
      <trkpt lat="48.12305" lon="-1.8182">
        <ele>104</ele>
        <time>2025-05-16T10:25:05Z</time>
      </trkpt>
      <trkpt lat="48.12307" lon="-1.81819">
        <ele>104</ele>
        <time>2025-05-16T10:25:06Z</time>
      </trkpt>
      <trkpt lat="48.12309" lon="-1.81818">
        <ele>104</ele>
        <time>2025-05-16T10:25:07Z</time>
      </trkpt>
      <trkpt lat="48.12311" lon="-1.81817">
        <ele>104</ele>
        <time>2025-05-16T10:25:08Z</time>
      </trkpt>
      <trkpt lat="48.12314" lon="-1.81815">
        <ele>103</ele>
        <time>2025-05-16T10:25:09Z</time>
      </trkpt>
      <trkpt lat="48.12317" lon="-1.81813">
        <ele>103</ele>
        <time>2025-05-16T10:25:10Z</time>
      </trkpt>
      <trkpt lat="48.12319" lon="-1.81811">
        <ele>103</ele>
        <time>2025-05-16T10:25:11Z</time>
      </trkpt>
      <trkpt lat="48.12322" lon="-1.8181">
        <ele>102</ele>
        <time>2025-05-16T10:25:12Z</time>
      </trkpt>
      <trkpt lat="48.12324" lon="-1.81808">
        <ele>102</ele>
        <time>2025-05-16T10:25:13Z</time>
      </trkpt>
      <trkpt lat="48.12327" lon="-1.81806">
        <ele>102</ele>
        <time>2025-05-16T10:25:14Z</time>
      </trkpt>
      <trkpt lat="48.1233" lon="-1.81804">
        <ele>102</ele>
        <time>2025-05-16T10:25:15Z</time>
      </trkpt>
      <trkpt lat="48.12333" lon="-1.81803">
        <ele>102</ele>
        <time>2025-05-16T10:25:16Z</time>
      </trkpt>
      <trkpt lat="48.12336" lon="-1.81801">
        <ele>102</ele>
        <time>2025-05-16T10:25:17Z</time>
      </trkpt>
      <trkpt lat="48.12339" lon="-1.81799">
        <ele>102</ele>
        <time>2025-05-16T10:25:18Z</time>
      </trkpt>
      <trkpt lat="48.12342" lon="-1.81797">
        <ele>102</ele>
        <time>2025-05-16T10:25:19Z</time>
      </trkpt>
      <trkpt lat="48.12345" lon="-1.81795">
        <ele>102</ele>
        <time>2025-05-16T10:25:20Z</time>
      </trkpt>
      <trkpt lat="48.12348" lon="-1.81792">
        <ele>102</ele>
        <time>2025-05-16T10:25:21Z</time>
      </trkpt>
      <trkpt lat="48.12351" lon="-1.8179">
        <ele>102</ele>
        <time>2025-05-16T10:25:22Z</time>
      </trkpt>
      <trkpt lat="48.12355" lon="-1.81788">
        <ele>102</ele>
        <time>2025-05-16T10:25:23Z</time>
      </trkpt>
      <trkpt lat="48.12359" lon="-1.81786">
        <ele>103</ele>
        <time>2025-05-16T10:25:24Z</time>
      </trkpt>
      <trkpt lat="48.12363" lon="-1.81785">
        <ele>103</ele>
        <time>2025-05-16T10:25:25Z</time>
      </trkpt>
      <trkpt lat="48.12367" lon="-1.81784">
        <ele>103</ele>
        <time>2025-05-16T10:25:26Z</time>
      </trkpt>
      <trkpt lat="48.12372" lon="-1.81783">
        <ele>103</ele>
        <time>2025-05-16T10:25:27Z</time>
      </trkpt>
      <trkpt lat="48.12376" lon="-1.81781">
        <ele>103</ele>
        <time>2025-05-16T10:25:28Z</time>
      </trkpt>
      <trkpt lat="48.1238" lon="-1.8178">
        <ele>102</ele>
        <time>2025-05-16T10:25:29Z</time>
      </trkpt>
      <trkpt lat="48.12383" lon="-1.81778">
        <ele>101</ele>
        <time>2025-05-16T10:25:30Z</time>
      </trkpt>
      <trkpt lat="48.12386" lon="-1.81776">
        <ele>100</ele>
        <time>2025-05-16T10:25:31Z</time>
      </trkpt>
      <trkpt lat="48.1239" lon="-1.81774">
        <ele>100</ele>
        <time>2025-05-16T10:25:32Z</time>
      </trkpt>
      <trkpt lat="48.12393" lon="-1.81772">
        <ele>100</ele>
        <time>2025-05-16T10:25:33Z</time>
      </trkpt>
      <trkpt lat="48.12396" lon="-1.81769">
        <ele>100</ele>
        <time>2025-05-16T10:25:34Z</time>
      </trkpt>
      <trkpt lat="48.12398" lon="-1.81766">
        <ele>100</ele>
        <time>2025-05-16T10:25:35Z</time>
      </trkpt>
      <trkpt lat="48.12401" lon="-1.81765">
        <ele>100</ele>
        <time>2025-05-16T10:25:36Z</time>
      </trkpt>
      <trkpt lat="48.12404" lon="-1.81763">
        <ele>100</ele>
        <time>2025-05-16T10:25:37Z</time>
      </trkpt>
      <trkpt lat="48.12407" lon="-1.81761">
        <ele>100</ele>
        <time>2025-05-16T10:25:38Z</time>
      </trkpt>
      <trkpt lat="48.12409" lon="-1.8176">
        <ele>101</ele>
        <time>2025-05-16T10:25:39Z</time>
      </trkpt>
      <trkpt lat="48.12412" lon="-1.81759">
        <ele>101</ele>
        <time>2025-05-16T10:25:40Z</time>
      </trkpt>
      <trkpt lat="48.12415" lon="-1.81757">
        <ele>102</ele>
        <time>2025-05-16T10:25:41Z</time>
      </trkpt>
      <trkpt lat="48.12418" lon="-1.81756">
        <ele>102</ele>
        <time>2025-05-16T10:25:42Z</time>
      </trkpt>
      <trkpt lat="48.12421" lon="-1.81754">
        <ele>103</ele>
        <time>2025-05-16T10:25:43Z</time>
      </trkpt>
      <trkpt lat="48.12423" lon="-1.81753">
        <ele>103</ele>
        <time>2025-05-16T10:25:44Z</time>
      </trkpt>
      <trkpt lat="48.12425" lon="-1.81752">
        <ele>103</ele>
        <time>2025-05-16T10:25:45Z</time>
      </trkpt>
      <trkpt lat="48.12427" lon="-1.81751">
        <ele>103</ele>
        <time>2025-05-16T10:25:46Z</time>
      </trkpt>
      <trkpt lat="48.12428" lon="-1.8175">
        <ele>103</ele>
        <time>2025-05-16T10:25:47Z</time>
      </trkpt>
      <trkpt lat="48.12428" lon="-1.81748">
        <ele>103</ele>
        <time>2025-05-16T10:25:48Z</time>
      </trkpt>
      <trkpt lat="48.12428" lon="-1.81746">
        <ele>103</ele>
        <time>2025-05-16T10:25:49Z</time>
      </trkpt>
      <trkpt lat="48.12429" lon="-1.81744">
        <ele>103</ele>
        <time>2025-05-16T10:25:50Z</time>
      </trkpt>
      <trkpt lat="48.12431" lon="-1.81743">
        <ele>103</ele>
        <time>2025-05-16T10:25:51Z</time>
      </trkpt>
      <trkpt lat="48.12433" lon="-1.81742">
        <ele>103</ele>
        <time>2025-05-16T10:25:52Z</time>
      </trkpt>
      <trkpt lat="48.12435" lon="-1.81743">
        <ele>103</ele>
        <time>2025-05-16T10:25:53Z</time>
      </trkpt>
      <trkpt lat="48.12437" lon="-1.81745">
        <ele>104</ele>
        <time>2025-05-16T10:25:54Z</time>
      </trkpt>
      <trkpt lat="48.12439" lon="-1.81746">
        <ele>104</ele>
        <time>2025-05-16T10:25:55Z</time>
      </trkpt>
      <trkpt lat="48.12441" lon="-1.81746">
        <ele>105</ele>
        <time>2025-05-16T10:25:56Z</time>
      </trkpt>
      <trkpt lat="48.12443" lon="-1.81746">
        <ele>105</ele>
        <time>2025-05-16T10:25:57Z</time>
      </trkpt>
      <trkpt lat="48.12446" lon="-1.81746">
        <ele>106</ele>
        <time>2025-05-16T10:25:58Z</time>
      </trkpt>
      <trkpt lat="48.12449" lon="-1.81745">
        <ele>106</ele>
        <time>2025-05-16T10:25:59Z</time>
      </trkpt>
      <trkpt lat="48.12451" lon="-1.81744">
        <ele>106</ele>
        <time>2025-05-16T10:26:00Z</time>
      </trkpt>
      <trkpt lat="48.12453" lon="-1.81744">
        <ele>106</ele>
        <time>2025-05-16T10:26:01Z</time>
      </trkpt>
      <trkpt lat="48.12456" lon="-1.81744">
        <ele>106</ele>
        <time>2025-05-16T10:26:02Z</time>
      </trkpt>
      <trkpt lat="48.12458" lon="-1.81743">
        <ele>106</ele>
        <time>2025-05-16T10:26:03Z</time>
      </trkpt>
      <trkpt lat="48.1246" lon="-1.81742">
        <ele>106</ele>
        <time>2025-05-16T10:26:04Z</time>
      </trkpt>
      <trkpt lat="48.12462" lon="-1.81741">
        <ele>106</ele>
        <time>2025-05-16T10:26:05Z</time>
      </trkpt>
      <trkpt lat="48.12464" lon="-1.81741">
        <ele>106</ele>
        <time>2025-05-16T10:26:06Z</time>
      </trkpt>
      <trkpt lat="48.12467" lon="-1.81741">
        <ele>107</ele>
        <time>2025-05-16T10:26:07Z</time>
      </trkpt>
      <trkpt lat="48.12469" lon="-1.81741">
        <ele>107</ele>
        <time>2025-05-16T10:26:08Z</time>
      </trkpt>
      <trkpt lat="48.12472" lon="-1.81741">
        <ele>107</ele>
        <time>2025-05-16T10:26:09Z</time>
      </trkpt>
      <trkpt lat="48.12474" lon="-1.8174">
        <ele>107</ele>
        <time>2025-05-16T10:26:10Z</time>
      </trkpt>
      <trkpt lat="48.12477" lon="-1.8174">
        <ele>107</ele>
        <time>2025-05-16T10:26:11Z</time>
      </trkpt>
      <trkpt lat="48.1248" lon="-1.81739">
        <ele>107</ele>
        <time>2025-05-16T10:26:12Z</time>
      </trkpt>
      <trkpt lat="48.12483" lon="-1.81739">
        <ele>107</ele>
        <time>2025-05-16T10:26:13Z</time>
      </trkpt>
      <trkpt lat="48.12486" lon="-1.81739">
        <ele>108</ele>
        <time>2025-05-16T10:26:14Z</time>
      </trkpt>
      <trkpt lat="48.12489" lon="-1.81739">
        <ele>108</ele>
        <time>2025-05-16T10:26:15Z</time>
      </trkpt>
      <trkpt lat="48.12493" lon="-1.8174">
        <ele>108</ele>
        <time>2025-05-16T10:26:16Z</time>
      </trkpt>
      <trkpt lat="48.12496" lon="-1.8174">
        <ele>108</ele>
        <time>2025-05-16T10:26:17Z</time>
      </trkpt>
      <trkpt lat="48.12499" lon="-1.81739">
        <ele>108</ele>
        <time>2025-05-16T10:26:18Z</time>
      </trkpt>
      <trkpt lat="48.12502" lon="-1.81739">
        <ele>108</ele>
        <time>2025-05-16T10:26:19Z</time>
      </trkpt>
      <trkpt lat="48.12505" lon="-1.81739">
        <ele>107</ele>
        <time>2025-05-16T10:26:20Z</time>
      </trkpt>
      <trkpt lat="48.12508" lon="-1.81739">
        <ele>107</ele>
        <time>2025-05-16T10:26:21Z</time>
      </trkpt>
      <trkpt lat="48.12511" lon="-1.8174">
        <ele>107</ele>
        <time>2025-05-16T10:26:22Z</time>
      </trkpt>
      <trkpt lat="48.12514" lon="-1.8174">
        <ele>107</ele>
        <time>2025-05-16T10:26:23Z</time>
      </trkpt>
      <trkpt lat="48.12516" lon="-1.8174">
        <ele>106</ele>
        <time>2025-05-16T10:26:24Z</time>
      </trkpt>
      <trkpt lat="48.12519" lon="-1.8174">
        <ele>106</ele>
        <time>2025-05-16T10:26:25Z</time>
      </trkpt>
      <trkpt lat="48.12521" lon="-1.81741">
        <ele>106</ele>
        <time>2025-05-16T10:26:26Z</time>
      </trkpt>
      <trkpt lat="48.12523" lon="-1.8174">
        <ele>106</ele>
        <time>2025-05-16T10:26:27Z</time>
      </trkpt>
      <trkpt lat="48.12525" lon="-1.8174">
        <ele>107</ele>
        <time>2025-05-16T10:26:28Z</time>
      </trkpt>
      <trkpt lat="48.12526" lon="-1.8174">
        <ele>107</ele>
        <time>2025-05-16T10:26:29Z</time>
      </trkpt>
      <trkpt lat="48.12528" lon="-1.8174">
        <ele>107</ele>
        <time>2025-05-16T10:26:30Z</time>
      </trkpt>
      <trkpt lat="48.1253" lon="-1.8174">
        <ele>108</ele>
        <time>2025-05-16T10:26:31Z</time>
      </trkpt>
      <trkpt lat="48.12532" lon="-1.8174">
        <ele>107</ele>
        <time>2025-05-16T10:26:32Z</time>
      </trkpt>
      <trkpt lat="48.12534" lon="-1.81741">
        <ele>107</ele>
        <time>2025-05-16T10:26:33Z</time>
      </trkpt>
      <trkpt lat="48.12536" lon="-1.81741">
        <ele>106</ele>
        <time>2025-05-16T10:26:34Z</time>
      </trkpt>
      <trkpt lat="48.12538" lon="-1.81741">
        <ele>107</ele>
        <time>2025-05-16T10:26:35Z</time>
      </trkpt>
      <trkpt lat="48.1254" lon="-1.81741">
        <ele>107</ele>
        <time>2025-05-16T10:26:36Z</time>
      </trkpt>
      <trkpt lat="48.12541" lon="-1.81742">
        <ele>107</ele>
        <time>2025-05-16T10:26:37Z</time>
      </trkpt>
      <trkpt lat="48.12541" lon="-1.81742">
        <ele>107</ele>
        <time>2025-05-16T10:26:38Z</time>
      </trkpt>
      <trkpt lat="48.12541" lon="-1.81742">
        <ele>107</ele>
        <time>2025-05-16T10:26:39Z</time>
      </trkpt>
      <trkpt lat="48.12541" lon="-1.81742">
        <ele>107</ele>
        <time>2025-05-16T10:26:40Z</time>
      </trkpt>
      <trkpt lat="48.12541" lon="-1.81742">
        <ele>107</ele>
        <time>2025-05-16T10:26:41Z</time>
      </trkpt>
      <trkpt lat="48.12541" lon="-1.81742">
        <ele>107</ele>
        <time>2025-05-16T10:26:42Z</time>
      </trkpt>
      <trkpt lat="48.12541" lon="-1.81742">
        <ele>107</ele>
        <time>2025-05-16T10:26:43Z</time>
      </trkpt>
      <trkpt lat="48.12541" lon="-1.81742">
        <ele>107</ele>
        <time>2025-05-16T10:26:44Z</time>
      </trkpt>
      <trkpt lat="48.12541" lon="-1.81742">
        <ele>107</ele>
        <time>2025-05-16T10:26:45Z</time>
      </trkpt>
      <trkpt lat="48.12541" lon="-1.81742">
        <ele>107</ele>
        <time>2025-05-16T10:26:46Z</time>
      </trkpt>
      <trkpt lat="48.12541" lon="-1.81742">
        <ele>107</ele>
        <time>2025-05-16T10:26:47Z</time>
      </trkpt>
      <trkpt lat="48.12541" lon="-1.81742">
        <ele>107</ele>
        <time>2025-05-16T10:26:48Z</time>
      </trkpt>
      <trkpt lat="48.12541" lon="-1.81742">
        <ele>107</ele>
        <time>2025-05-16T10:26:49Z</time>
      </trkpt>
      <trkpt lat="48.12541" lon="-1.81742">
        <ele>107</ele>
        <time>2025-05-16T10:26:50Z</time>
      </trkpt>
      <trkpt lat="48.12541" lon="-1.81742">
        <ele>107</ele>
        <time>2025-05-16T10:26:51Z</time>
      </trkpt>
      <trkpt lat="48.12541" lon="-1.81742">
        <ele>107</ele>
        <time>2025-05-16T10:26:52Z</time>
      </trkpt>
      <trkpt lat="48.12541" lon="-1.81742">
        <ele>107</ele>
        <time>2025-05-16T10:26:53Z</time>
      </trkpt>
      <trkpt lat="48.12541" lon="-1.81742">
        <ele>107</ele>
        <time>2025-05-16T10:26:54Z</time>
      </trkpt>
      <trkpt lat="48.12541" lon="-1.81742">
        <ele>107</ele>
        <time>2025-05-16T10:26:55Z</time>
      </trkpt>
      <trkpt lat="48.12541" lon="-1.81742">
        <ele>107</ele>
        <time>2025-05-16T10:26:56Z</time>
      </trkpt>
      <trkpt lat="48.12541" lon="-1.81742">
        <ele>107</ele>
        <time>2025-05-16T10:26:57Z</time>
      </trkpt>
      <trkpt lat="48.12542" lon="-1.81745">
        <ele>107</ele>
        <time>2025-05-16T10:26:58Z</time>
      </trkpt>
      <trkpt lat="48.12543" lon="-1.81747">
        <ele>107</ele>
        <time>2025-05-16T10:26:59Z</time>
      </trkpt>
      <trkpt lat="48.12543" lon="-1.8175">
        <ele>106</ele>
        <time>2025-05-16T10:27:00Z</time>
      </trkpt>
      <trkpt lat="48.12544" lon="-1.81752">
        <ele>106</ele>
        <time>2025-05-16T10:27:01Z</time>
      </trkpt>
      <trkpt lat="48.12544" lon="-1.81753">
        <ele>105</ele>
        <time>2025-05-16T10:27:02Z</time>
      </trkpt>
      <trkpt lat="48.12543" lon="-1.81753">
        <ele>105</ele>
        <time>2025-05-16T10:27:03Z</time>
      </trkpt>
      <trkpt lat="48.12543" lon="-1.81753">
        <ele>105</ele>
        <time>2025-05-16T10:27:04Z</time>
      </trkpt>
      <trkpt lat="48.12543" lon="-1.81753">
        <ele>105</ele>
        <time>2025-05-16T10:27:05Z</time>
      </trkpt>
      <trkpt lat="48.12543" lon="-1.81753">
        <ele>105</ele>
        <time>2025-05-16T10:27:06Z</time>
      </trkpt>
      <trkpt lat="48.12543" lon="-1.81753">
        <ele>105</ele>
        <time>2025-05-16T10:27:07Z</time>
      </trkpt>
      <trkpt lat="48.12543" lon="-1.81753">
        <ele>105</ele>
        <time>2025-05-16T10:27:08Z</time>
      </trkpt>
      <trkpt lat="48.12543" lon="-1.81753">
        <ele>105</ele>
        <time>2025-05-16T10:27:09Z</time>
      </trkpt>
      <trkpt lat="48.12543" lon="-1.81753">
        <ele>105</ele>
        <time>2025-05-16T10:27:10Z</time>
      </trkpt>
      <trkpt lat="48.12543" lon="-1.81753">
        <ele>105</ele>
        <time>2025-05-16T10:27:11Z</time>
      </trkpt>
      <trkpt lat="48.12543" lon="-1.81753">
        <ele>105</ele>
        <time>2025-05-16T10:27:12Z</time>
      </trkpt>
      <trkpt lat="48.12543" lon="-1.81753">
        <ele>105</ele>
        <time>2025-05-16T10:27:13Z</time>
      </trkpt>
      <trkpt lat="48.12543" lon="-1.81753">
        <ele>105</ele>
        <time>2025-05-16T10:27:14Z</time>
      </trkpt>
      <trkpt lat="48.12543" lon="-1.81753">
        <ele>105</ele>
        <time>2025-05-16T10:27:15Z</time>
      </trkpt>
      <trkpt lat="48.12543" lon="-1.81753">
        <ele>105</ele>
        <time>2025-05-16T10:27:16Z</time>
      </trkpt>
      <trkpt lat="48.12543" lon="-1.81753">
        <ele>105</ele>
        <time>2025-05-16T10:27:17Z</time>
      </trkpt>
      <trkpt lat="48.12543" lon="-1.81753">
        <ele>105</ele>
        <time>2025-05-16T10:27:18Z</time>
      </trkpt>
      <trkpt lat="48.12543" lon="-1.81753">
        <ele>105</ele>
        <time>2025-05-16T10:27:19Z</time>
      </trkpt>
      <trkpt lat="48.12543" lon="-1.81753">
        <ele>105</ele>
        <time>2025-05-16T10:27:20Z</time>
      </trkpt>
      <trkpt lat="48.12543" lon="-1.81753">
        <ele>105</ele>
        <time>2025-05-16T10:27:21Z</time>
      </trkpt>
      <trkpt lat="48.12543" lon="-1.81753">
        <ele>105</ele>
        <time>2025-05-16T10:27:22Z</time>
      </trkpt>
      <trkpt lat="48.12543" lon="-1.81753">
        <ele>105</ele>
        <time>2025-05-16T10:27:23Z</time>
      </trkpt>
      <trkpt lat="48.12543" lon="-1.81753">
        <ele>105</ele>
        <time>2025-05-16T10:27:24Z</time>
      </trkpt>
      <trkpt lat="48.12543" lon="-1.81753">
        <ele>105</ele>
        <time>2025-05-16T10:27:25Z</time>
      </trkpt>
      <trkpt lat="48.12543" lon="-1.81753">
        <ele>105</ele>
        <time>2025-05-16T10:27:26Z</time>
      </trkpt>
      <trkpt lat="48.12543" lon="-1.81753">
        <ele>105</ele>
        <time>2025-05-16T10:27:27Z</time>
      </trkpt>
      <trkpt lat="48.12543" lon="-1.81753">
        <ele>105</ele>
        <time>2025-05-16T10:27:28Z</time>
      </trkpt>
      <trkpt lat="48.12543" lon="-1.81753">
        <ele>105</ele>
        <time>2025-05-16T10:27:29Z</time>
      </trkpt>
      <trkpt lat="48.12543" lon="-1.81753">
        <ele>105</ele>
        <time>2025-05-16T10:27:30Z</time>
      </trkpt>
      <trkpt lat="48.12543" lon="-1.81753">
        <ele>105</ele>
        <time>2025-05-16T10:27:31Z</time>
      </trkpt>
      <trkpt lat="48.12543" lon="-1.81753">
        <ele>105</ele>
        <time>2025-05-16T10:27:32Z</time>
      </trkpt>
      <trkpt lat="48.12543" lon="-1.81753">
        <ele>105</ele>
        <time>2025-05-16T10:27:33Z</time>
      </trkpt>
      <trkpt lat="48.12543" lon="-1.81753">
        <ele>105</ele>
        <time>2025-05-16T10:27:34Z</time>
      </trkpt>
      <trkpt lat="48.12543" lon="-1.81753">
        <ele>105</ele>
        <time>2025-05-16T10:27:35Z</time>
      </trkpt>
      <trkpt lat="48.12543" lon="-1.81753">
        <ele>105</ele>
        <time>2025-05-16T10:27:36Z</time>
      </trkpt>
      <trkpt lat="48.12543" lon="-1.81753">
        <ele>105</ele>
        <time>2025-05-16T10:27:37Z</time>
      </trkpt>
      <trkpt lat="48.12546" lon="-1.81761">
        <ele>107</ele>
        <time>2025-05-16T10:27:38Z</time>
      </trkpt>
      <trkpt lat="48.12545" lon="-1.81763">
        <ele>107</ele>
        <time>2025-05-16T10:27:39Z</time>
      </trkpt>
      <trkpt lat="48.12545" lon="-1.81764">
        <ele>107</ele>
        <time>2025-05-16T10:27:40Z</time>
      </trkpt>
      <trkpt lat="48.12545" lon="-1.81765">
        <ele>108</ele>
        <time>2025-05-16T10:27:41Z</time>
      </trkpt>
      <trkpt lat="48.12544" lon="-1.81766">
        <ele>108</ele>
        <time>2025-05-16T10:27:42Z</time>
      </trkpt>
      <trkpt lat="48.12544" lon="-1.81766">
        <ele>108</ele>
        <time>2025-05-16T10:27:43Z</time>
      </trkpt>
      <trkpt lat="48.12544" lon="-1.81766">
        <ele>108</ele>
        <time>2025-05-16T10:27:44Z</time>
      </trkpt>
      <trkpt lat="48.12544" lon="-1.81766">
        <ele>108</ele>
        <time>2025-05-16T10:27:45Z</time>
      </trkpt>
      <trkpt lat="48.12544" lon="-1.81766">
        <ele>108</ele>
        <time>2025-05-16T10:27:46Z</time>
      </trkpt>
      <trkpt lat="48.12544" lon="-1.81766">
        <ele>108</ele>
        <time>2025-05-16T10:27:47Z</time>
      </trkpt>
      <trkpt lat="48.12544" lon="-1.81766">
        <ele>108</ele>
        <time>2025-05-16T10:27:48Z</time>
      </trkpt>
      <trkpt lat="48.12544" lon="-1.81766">
        <ele>108</ele>
        <time>2025-05-16T10:27:49Z</time>
      </trkpt>
      <trkpt lat="48.12544" lon="-1.81766">
        <ele>108</ele>
        <time>2025-05-16T10:27:50Z</time>
      </trkpt>
      <trkpt lat="48.12551" lon="-1.81756">
        <ele>114</ele>
        <time>2025-05-16T11:05:31Z</time>
      </trkpt>
      <trkpt lat="48.12551" lon="-1.81756">
        <ele>114</ele>
        <time>2025-05-16T11:05:32Z</time>
      </trkpt>
      <trkpt lat="48.12551" lon="-1.81756">
        <ele>114</ele>
        <time>2025-05-16T11:05:33Z</time>
      </trkpt>
      <trkpt lat="48.12551" lon="-1.81756">
        <ele>114</ele>
        <time>2025-05-16T11:05:34Z</time>
      </trkpt>
      <trkpt lat="48.12551" lon="-1.81756">
        <ele>114</ele>
        <time>2025-05-16T11:05:35Z</time>
      </trkpt>
      <trkpt lat="48.12551" lon="-1.81756">
        <ele>114</ele>
        <time>2025-05-16T11:05:36Z</time>
      </trkpt>
      <trkpt lat="48.12551" lon="-1.81756">
        <ele>114</ele>
        <time>2025-05-16T11:05:37Z</time>
      </trkpt>
      <trkpt lat="48.12551" lon="-1.81756">
        <ele>114</ele>
        <time>2025-05-16T11:05:38Z</time>
      </trkpt>
      <trkpt lat="48.12551" lon="-1.81756">
        <ele>114</ele>
        <time>2025-05-16T11:05:39Z</time>
      </trkpt>
      <trkpt lat="48.12551" lon="-1.81756">
        <ele>114</ele>
        <time>2025-05-16T11:05:40Z</time>
      </trkpt>
      <trkpt lat="48.12551" lon="-1.81756">
        <ele>114</ele>
        <time>2025-05-16T11:05:41Z</time>
      </trkpt>
      <trkpt lat="48.12551" lon="-1.81756">
        <ele>114</ele>
        <time>2025-05-16T11:05:42Z</time>
      </trkpt>
      <trkpt lat="48.12551" lon="-1.81756">
        <ele>114</ele>
        <time>2025-05-16T11:05:43Z</time>
      </trkpt>
      <trkpt lat="48.12551" lon="-1.81756">
        <ele>114</ele>
        <time>2025-05-16T11:05:44Z</time>
      </trkpt>
      <trkpt lat="48.12551" lon="-1.81756">
        <ele>114</ele>
        <time>2025-05-16T11:05:45Z</time>
      </trkpt>
      <trkpt lat="48.12551" lon="-1.81756">
        <ele>114</ele>
        <time>2025-05-16T11:05:46Z</time>
      </trkpt>
      <trkpt lat="48.12551" lon="-1.81756">
        <ele>114</ele>
        <time>2025-05-16T11:05:47Z</time>
      </trkpt>
      <trkpt lat="48.12551" lon="-1.81756">
        <ele>114</ele>
        <time>2025-05-16T11:05:48Z</time>
      </trkpt>
      <trkpt lat="48.12551" lon="-1.81756">
        <ele>114</ele>
        <time>2025-05-16T11:05:49Z</time>
      </trkpt>
      <trkpt lat="48.12551" lon="-1.81756">
        <ele>114</ele>
        <time>2025-05-16T11:05:50Z</time>
      </trkpt>
      <trkpt lat="48.12551" lon="-1.81756">
        <ele>114</ele>
        <time>2025-05-16T11:05:51Z</time>
      </trkpt>
      <trkpt lat="48.12551" lon="-1.81756">
        <ele>114</ele>
        <time>2025-05-16T11:05:52Z</time>
      </trkpt>
      <trkpt lat="48.12551" lon="-1.81756">
        <ele>114</ele>
        <time>2025-05-16T11:05:53Z</time>
      </trkpt>
      <trkpt lat="48.12551" lon="-1.81756">
        <ele>114</ele>
        <time>2025-05-16T11:05:54Z</time>
      </trkpt>
      <trkpt lat="48.12551" lon="-1.81756">
        <ele>114</ele>
        <time>2025-05-16T11:05:55Z</time>
      </trkpt>
      <trkpt lat="48.12551" lon="-1.81756">
        <ele>114</ele>
        <time>2025-05-16T11:05:56Z</time>
      </trkpt>
      <trkpt lat="48.12551" lon="-1.81756">
        <ele>114</ele>
        <time>2025-05-16T11:05:57Z</time>
      </trkpt>
      <trkpt lat="48.12551" lon="-1.81756">
        <ele>114</ele>
        <time>2025-05-16T11:05:58Z</time>
      </trkpt>
      <trkpt lat="48.12551" lon="-1.81756">
        <ele>114</ele>
        <time>2025-05-16T11:05:59Z</time>
      </trkpt>
      <trkpt lat="48.12551" lon="-1.81756">
        <ele>114</ele>
        <time>2025-05-16T11:06:00Z</time>
      </trkpt>
      <trkpt lat="48.12551" lon="-1.81756">
        <ele>114</ele>
        <time>2025-05-16T11:06:01Z</time>
      </trkpt>
      <trkpt lat="48.12551" lon="-1.81756">
        <ele>114</ele>
        <time>2025-05-16T11:06:02Z</time>
      </trkpt>
      <trkpt lat="48.12551" lon="-1.81756">
        <ele>114</ele>
        <time>2025-05-16T11:06:03Z</time>
      </trkpt>
      <trkpt lat="48.12551" lon="-1.81756">
        <ele>114</ele>
        <time>2025-05-16T11:06:04Z</time>
      </trkpt>
      <trkpt lat="48.12551" lon="-1.81756">
        <ele>114</ele>
        <time>2025-05-16T11:06:05Z</time>
      </trkpt>
      <trkpt lat="48.12551" lon="-1.81756">
        <ele>114</ele>
        <time>2025-05-16T11:06:06Z</time>
      </trkpt>
      <trkpt lat="48.12551" lon="-1.81756">
        <ele>114</ele>
        <time>2025-05-16T11:06:07Z</time>
      </trkpt>
      <trkpt lat="48.12551" lon="-1.81756">
        <ele>114</ele>
        <time>2025-05-16T11:06:08Z</time>
      </trkpt>
      <trkpt lat="48.12551" lon="-1.81756">
        <ele>114</ele>
        <time>2025-05-16T11:06:09Z</time>
      </trkpt>
      <trkpt lat="48.12551" lon="-1.81756">
        <ele>114</ele>
        <time>2025-05-16T11:06:10Z</time>
      </trkpt>
      <trkpt lat="48.12551" lon="-1.81756">
        <ele>114</ele>
        <time>2025-05-16T11:06:11Z</time>
      </trkpt>
      <trkpt lat="48.12551" lon="-1.81756">
        <ele>114</ele>
        <time>2025-05-16T11:06:12Z</time>
      </trkpt>
      <trkpt lat="48.12551" lon="-1.81756">
        <ele>114</ele>
        <time>2025-05-16T11:06:13Z</time>
      </trkpt>
      <trkpt lat="48.12551" lon="-1.81756">
        <ele>114</ele>
        <time>2025-05-16T11:06:14Z</time>
      </trkpt>
      <trkpt lat="48.12551" lon="-1.81756">
        <ele>114</ele>
        <time>2025-05-16T11:06:15Z</time>
      </trkpt>
      <trkpt lat="48.12551" lon="-1.81756">
        <ele>114</ele>
        <time>2025-05-16T11:06:16Z</time>
      </trkpt>
      <trkpt lat="48.12551" lon="-1.81756">
        <ele>114</ele>
        <time>2025-05-16T11:06:17Z</time>
      </trkpt>
      <trkpt lat="48.12551" lon="-1.81756">
        <ele>114</ele>
        <time>2025-05-16T11:06:18Z</time>
      </trkpt>
      <trkpt lat="48.12551" lon="-1.81756">
        <ele>114</ele>
        <time>2025-05-16T11:06:19Z</time>
      </trkpt>
      <trkpt lat="48.12551" lon="-1.81756">
        <ele>114</ele>
        <time>2025-05-16T11:06:20Z</time>
      </trkpt>
      <trkpt lat="48.12551" lon="-1.81756">
        <ele>114</ele>
        <time>2025-05-16T11:06:21Z</time>
      </trkpt>
      <trkpt lat="48.12551" lon="-1.81756">
        <ele>114</ele>
        <time>2025-05-16T11:06:22Z</time>
      </trkpt>
      <trkpt lat="48.12551" lon="-1.81756">
        <ele>114</ele>
        <time>2025-05-16T11:06:23Z</time>
      </trkpt>
      <trkpt lat="48.12551" lon="-1.81756">
        <ele>114</ele>
        <time>2025-05-16T11:06:24Z</time>
      </trkpt>
      <trkpt lat="48.12551" lon="-1.81756">
        <ele>114</ele>
        <time>2025-05-16T11:06:25Z</time>
      </trkpt>
      <trkpt lat="48.12551" lon="-1.81756">
        <ele>114</ele>
        <time>2025-05-16T11:06:26Z</time>
      </trkpt>
      <trkpt lat="48.12551" lon="-1.81756">
        <ele>114</ele>
        <time>2025-05-16T11:06:27Z</time>
      </trkpt>
      <trkpt lat="48.12551" lon="-1.81756">
        <ele>114</ele>
        <time>2025-05-16T11:06:28Z</time>
      </trkpt>
      <trkpt lat="48.12551" lon="-1.81756">
        <ele>114</ele>
        <time>2025-05-16T11:06:29Z</time>
      </trkpt>
      <trkpt lat="48.12551" lon="-1.81756">
        <ele>114</ele>
        <time>2025-05-16T11:06:30Z</time>
      </trkpt>
      <trkpt lat="48.12551" lon="-1.81756">
        <ele>114</ele>
        <time>2025-05-16T11:06:31Z</time>
      </trkpt>
      <trkpt lat="48.12551" lon="-1.81756">
        <ele>114</ele>
        <time>2025-05-16T11:06:32Z</time>
      </trkpt>
      <trkpt lat="48.12551" lon="-1.81756">
        <ele>114</ele>
        <time>2025-05-16T11:06:33Z</time>
      </trkpt>
      <trkpt lat="48.12551" lon="-1.81756">
        <ele>114</ele>
        <time>2025-05-16T11:06:34Z</time>
      </trkpt>
      <trkpt lat="48.12551" lon="-1.81756">
        <ele>114</ele>
        <time>2025-05-16T11:06:35Z</time>
      </trkpt>
      <trkpt lat="48.12551" lon="-1.81756">
        <ele>114</ele>
        <time>2025-05-16T11:06:36Z</time>
      </trkpt>
      <trkpt lat="48.12551" lon="-1.81756">
        <ele>114</ele>
        <time>2025-05-16T11:06:37Z</time>
      </trkpt>
      <trkpt lat="48.12551" lon="-1.81756">
        <ele>114</ele>
        <time>2025-05-16T11:06:38Z</time>
      </trkpt>
      <trkpt lat="48.12551" lon="-1.81756">
        <ele>114</ele>
        <time>2025-05-16T11:06:39Z</time>
      </trkpt>
      <trkpt lat="48.12551" lon="-1.81756">
        <ele>114</ele>
        <time>2025-05-16T11:06:40Z</time>
      </trkpt>
      <trkpt lat="48.12551" lon="-1.81756">
        <ele>114</ele>
        <time>2025-05-16T11:06:41Z</time>
      </trkpt>
      <trkpt lat="48.12551" lon="-1.81756">
        <ele>114</ele>
        <time>2025-05-16T11:06:42Z</time>
      </trkpt>
      <trkpt lat="48.12551" lon="-1.81756">
        <ele>114</ele>
        <time>2025-05-16T11:06:43Z</time>
      </trkpt>
      <trkpt lat="48.12551" lon="-1.81756">
        <ele>114</ele>
        <time>2025-05-16T11:06:44Z</time>
      </trkpt>
      <trkpt lat="48.12551" lon="-1.81756">
        <ele>114</ele>
        <time>2025-05-16T11:06:45Z</time>
      </trkpt>
      <trkpt lat="48.12551" lon="-1.81756">
        <ele>114</ele>
        <time>2025-05-16T11:06:46Z</time>
      </trkpt>
      <trkpt lat="48.12551" lon="-1.81756">
        <ele>114</ele>
        <time>2025-05-16T11:06:47Z</time>
      </trkpt>
      <trkpt lat="48.12551" lon="-1.81756">
        <ele>114</ele>
        <time>2025-05-16T11:06:48Z</time>
      </trkpt>
      <trkpt lat="48.12551" lon="-1.81756">
        <ele>114</ele>
        <time>2025-05-16T11:06:49Z</time>
      </trkpt>
      <trkpt lat="48.12551" lon="-1.81756">
        <ele>114</ele>
        <time>2025-05-16T11:06:50Z</time>
      </trkpt>
      <trkpt lat="48.12551" lon="-1.81756">
        <ele>114</ele>
        <time>2025-05-16T11:06:51Z</time>
      </trkpt>
      <trkpt lat="48.12551" lon="-1.81756">
        <ele>114</ele>
        <time>2025-05-16T11:06:52Z</time>
      </trkpt>
      <trkpt lat="48.12551" lon="-1.81756">
        <ele>114</ele>
        <time>2025-05-16T11:06:53Z</time>
      </trkpt>
      <trkpt lat="48.12551" lon="-1.81756">
        <ele>114</ele>
        <time>2025-05-16T11:06:54Z</time>
      </trkpt>
      <trkpt lat="48.12551" lon="-1.81756">
        <ele>114</ele>
        <time>2025-05-16T11:06:55Z</time>
      </trkpt>
      <trkpt lat="48.12551" lon="-1.81756">
        <ele>114</ele>
        <time>2025-05-16T11:06:56Z</time>
      </trkpt>
      <trkpt lat="48.12551" lon="-1.81756">
        <ele>114</ele>
        <time>2025-05-16T11:06:57Z</time>
      </trkpt>
      <trkpt lat="48.12551" lon="-1.81756">
        <ele>114</ele>
        <time>2025-05-16T11:06:58Z</time>
      </trkpt>
      <trkpt lat="48.12551" lon="-1.81756">
        <ele>114</ele>
        <time>2025-05-16T11:06:59Z</time>
      </trkpt>
      <trkpt lat="48.12551" lon="-1.81756">
        <ele>114</ele>
        <time>2025-05-16T11:07:00Z</time>
      </trkpt>
      <trkpt lat="48.1255" lon="-1.81721">
        <ele>106</ele>
        <time>2025-05-16T11:07:20Z</time>
      </trkpt>
      <trkpt lat="48.12551" lon="-1.81717">
        <ele>106</ele>
        <time>2025-05-16T11:07:21Z</time>
      </trkpt>
      <trkpt lat="48.12551" lon="-1.81714">
        <ele>106</ele>
        <time>2025-05-16T11:07:22Z</time>
      </trkpt>
      <trkpt lat="48.12551" lon="-1.81709">
        <ele>106</ele>
        <time>2025-05-16T11:07:23Z</time>
      </trkpt>
      <trkpt lat="48.12551" lon="-1.81706">
        <ele>106</ele>
        <time>2025-05-16T11:07:24Z</time>
      </trkpt>
      <trkpt lat="48.12552" lon="-1.81702">
        <ele>106</ele>
        <time>2025-05-16T11:07:25Z</time>
      </trkpt>
      <trkpt lat="48.12551" lon="-1.81699">
        <ele>106</ele>
        <time>2025-05-16T11:07:26Z</time>
      </trkpt>
      <trkpt lat="48.12552" lon="-1.81695">
        <ele>106</ele>
        <time>2025-05-16T11:07:27Z</time>
      </trkpt>
      <trkpt lat="48.12552" lon="-1.81691">
        <ele>107</ele>
        <time>2025-05-16T11:07:28Z</time>
      </trkpt>
      <trkpt lat="48.12553" lon="-1.81687">
        <ele>107</ele>
        <time>2025-05-16T11:07:29Z</time>
      </trkpt>
      <trkpt lat="48.12553" lon="-1.81684">
        <ele>108</ele>
        <time>2025-05-16T11:07:30Z</time>
      </trkpt>
      <trkpt lat="48.12553" lon="-1.8168">
        <ele>108</ele>
        <time>2025-05-16T11:07:31Z</time>
      </trkpt>
      <trkpt lat="48.12553" lon="-1.81677">
        <ele>108</ele>
        <time>2025-05-16T11:07:32Z</time>
      </trkpt>
      <trkpt lat="48.12553" lon="-1.81672">
        <ele>109</ele>
        <time>2025-05-16T11:07:33Z</time>
      </trkpt>
      <trkpt lat="48.12553" lon="-1.81668">
        <ele>109</ele>
        <time>2025-05-16T11:07:34Z</time>
      </trkpt>
      <trkpt lat="48.12553" lon="-1.81664">
        <ele>109</ele>
        <time>2025-05-16T11:07:35Z</time>
      </trkpt>
      <trkpt lat="48.12553" lon="-1.8166">
        <ele>109</ele>
        <time>2025-05-16T11:07:36Z</time>
      </trkpt>
      <trkpt lat="48.12553" lon="-1.81656">
        <ele>109</ele>
        <time>2025-05-16T11:07:37Z</time>
      </trkpt>
      <trkpt lat="48.12553" lon="-1.81652">
        <ele>109</ele>
        <time>2025-05-16T11:07:38Z</time>
      </trkpt>
      <trkpt lat="48.12553" lon="-1.81648">
        <ele>110</ele>
        <time>2025-05-16T11:07:39Z</time>
      </trkpt>
      <trkpt lat="48.12553" lon="-1.81644">
        <ele>110</ele>
        <time>2025-05-16T11:07:40Z</time>
      </trkpt>
      <trkpt lat="48.12553" lon="-1.8164">
        <ele>110</ele>
        <time>2025-05-16T11:07:41Z</time>
      </trkpt>
      <trkpt lat="48.12553" lon="-1.81636">
        <ele>109</ele>
        <time>2025-05-16T11:07:42Z</time>
      </trkpt>
      <trkpt lat="48.12552" lon="-1.81632">
        <ele>110</ele>
        <time>2025-05-16T11:07:43Z</time>
      </trkpt>
      <trkpt lat="48.12552" lon="-1.81628">
        <ele>110</ele>
        <time>2025-05-16T11:07:44Z</time>
      </trkpt>
      <trkpt lat="48.12552" lon="-1.81624">
        <ele>110</ele>
        <time>2025-05-16T11:07:45Z</time>
      </trkpt>
      <trkpt lat="48.12552" lon="-1.8162">
        <ele>110</ele>
        <time>2025-05-16T11:07:46Z</time>
      </trkpt>
      <trkpt lat="48.12552" lon="-1.81616">
        <ele>110</ele>
        <time>2025-05-16T11:07:47Z</time>
      </trkpt>
      <trkpt lat="48.12552" lon="-1.81612">
        <ele>110</ele>
        <time>2025-05-16T11:07:48Z</time>
      </trkpt>
      <trkpt lat="48.12551" lon="-1.81609">
        <ele>110</ele>
        <time>2025-05-16T11:07:49Z</time>
      </trkpt>
      <trkpt lat="48.12551" lon="-1.81605">
        <ele>110</ele>
        <time>2025-05-16T11:07:50Z</time>
      </trkpt>
      <trkpt lat="48.12551" lon="-1.81601">
        <ele>110</ele>
        <time>2025-05-16T11:07:51Z</time>
      </trkpt>
      <trkpt lat="48.12551" lon="-1.81598">
        <ele>110</ele>
        <time>2025-05-16T11:07:52Z</time>
      </trkpt>
      <trkpt lat="48.12551" lon="-1.81594">
        <ele>110</ele>
        <time>2025-05-16T11:07:53Z</time>
      </trkpt>
      <trkpt lat="48.1255" lon="-1.8159">
        <ele>110</ele>
        <time>2025-05-16T11:07:54Z</time>
      </trkpt>
      <trkpt lat="48.1255" lon="-1.81587">
        <ele>111</ele>
        <time>2025-05-16T11:07:55Z</time>
      </trkpt>
      <trkpt lat="48.1255" lon="-1.81583">
        <ele>111</ele>
        <time>2025-05-16T11:07:56Z</time>
      </trkpt>
      <trkpt lat="48.1255" lon="-1.8158">
        <ele>110</ele>
        <time>2025-05-16T11:07:57Z</time>
      </trkpt>
      <trkpt lat="48.1255" lon="-1.81576">
        <ele>109</ele>
        <time>2025-05-16T11:07:58Z</time>
      </trkpt>
      <trkpt lat="48.1255" lon="-1.81572">
        <ele>109</ele>
        <time>2025-05-16T11:07:59Z</time>
      </trkpt>
      <trkpt lat="48.12549" lon="-1.81567">
        <ele>109</ele>
        <time>2025-05-16T11:08:00Z</time>
      </trkpt>
      <trkpt lat="48.12549" lon="-1.81563">
        <ele>109</ele>
        <time>2025-05-16T11:08:01Z</time>
      </trkpt>
      <trkpt lat="48.12549" lon="-1.81558">
        <ele>109</ele>
        <time>2025-05-16T11:08:02Z</time>
      </trkpt>
      <trkpt lat="48.12548" lon="-1.81554">
        <ele>109</ele>
        <time>2025-05-16T11:08:03Z</time>
      </trkpt>
      <trkpt lat="48.12548" lon="-1.81549">
        <ele>108</ele>
        <time>2025-05-16T11:08:04Z</time>
      </trkpt>
      <trkpt lat="48.12547" lon="-1.81544">
        <ele>108</ele>
        <time>2025-05-16T11:08:05Z</time>
      </trkpt>
      <trkpt lat="48.12547" lon="-1.81539">
        <ele>108</ele>
        <time>2025-05-16T11:08:06Z</time>
      </trkpt>
      <trkpt lat="48.12546" lon="-1.81534">
        <ele>108</ele>
        <time>2025-05-16T11:08:07Z</time>
      </trkpt>
      <trkpt lat="48.12545" lon="-1.81531">
        <ele>108</ele>
        <time>2025-05-16T11:08:08Z</time>
      </trkpt>
      <trkpt lat="48.12544" lon="-1.8153">
        <ele>107</ele>
        <time>2025-05-16T11:08:09Z</time>
      </trkpt>
      <trkpt lat="48.12544" lon="-1.8153">
        <ele>108</ele>
        <time>2025-05-16T11:08:10Z</time>
      </trkpt>
      <trkpt lat="48.12544" lon="-1.8153">
        <ele>108</ele>
        <time>2025-05-16T11:08:11Z</time>
      </trkpt>
      <trkpt lat="48.12544" lon="-1.8153">
        <ele>108</ele>
        <time>2025-05-16T11:08:12Z</time>
      </trkpt>
      <trkpt lat="48.12543" lon="-1.81527">
        <ele>108</ele>
        <time>2025-05-16T11:08:13Z</time>
      </trkpt>
      <trkpt lat="48.12542" lon="-1.81525">
        <ele>109</ele>
        <time>2025-05-16T11:08:14Z</time>
      </trkpt>
      <trkpt lat="48.1254" lon="-1.81522">
        <ele>109</ele>
        <time>2025-05-16T11:08:15Z</time>
      </trkpt>
      <trkpt lat="48.12539" lon="-1.81519">
        <ele>108</ele>
        <time>2025-05-16T11:08:16Z</time>
      </trkpt>
      <trkpt lat="48.12538" lon="-1.81516">
        <ele>108</ele>
        <time>2025-05-16T11:08:17Z</time>
      </trkpt>
      <trkpt lat="48.12538" lon="-1.81513">
        <ele>108</ele>
        <time>2025-05-16T11:08:18Z</time>
      </trkpt>
      <trkpt lat="48.12539" lon="-1.81509">
        <ele>108</ele>
        <time>2025-05-16T11:08:19Z</time>
      </trkpt>
      <trkpt lat="48.1254" lon="-1.81505">
        <ele>107</ele>
        <time>2025-05-16T11:08:20Z</time>
      </trkpt>
      <trkpt lat="48.1254" lon="-1.815">
        <ele>107</ele>
        <time>2025-05-16T11:08:21Z</time>
      </trkpt>
      <trkpt lat="48.1254" lon="-1.81495">
        <ele>106</ele>
        <time>2025-05-16T11:08:22Z</time>
      </trkpt>
      <trkpt lat="48.1254" lon="-1.8149">
        <ele>106</ele>
        <time>2025-05-16T11:08:23Z</time>
      </trkpt>
      <trkpt lat="48.12539" lon="-1.81484">
        <ele>106</ele>
        <time>2025-05-16T11:08:24Z</time>
      </trkpt>
      <trkpt lat="48.12538" lon="-1.81479">
        <ele>106</ele>
        <time>2025-05-16T11:08:25Z</time>
      </trkpt>
      <trkpt lat="48.12537" lon="-1.81473">
        <ele>107</ele>
        <time>2025-05-16T11:08:26Z</time>
      </trkpt>
      <trkpt lat="48.12536" lon="-1.81467">
        <ele>107</ele>
        <time>2025-05-16T11:08:27Z</time>
      </trkpt>
      <trkpt lat="48.12535" lon="-1.81462">
        <ele>106</ele>
        <time>2025-05-16T11:08:28Z</time>
      </trkpt>
      <trkpt lat="48.12534" lon="-1.81456">
        <ele>106</ele>
        <time>2025-05-16T11:08:29Z</time>
      </trkpt>
      <trkpt lat="48.12533" lon="-1.81451">
        <ele>105</ele>
        <time>2025-05-16T11:08:30Z</time>
      </trkpt>
      <trkpt lat="48.12531" lon="-1.81446">
        <ele>104</ele>
        <time>2025-05-16T11:08:31Z</time>
      </trkpt>
      <trkpt lat="48.12531" lon="-1.8144">
        <ele>104</ele>
        <time>2025-05-16T11:08:32Z</time>
      </trkpt>
      <trkpt lat="48.12529" lon="-1.81434">
        <ele>104</ele>
        <time>2025-05-16T11:08:33Z</time>
      </trkpt>
      <trkpt lat="48.12528" lon="-1.81428">
        <ele>104</ele>
        <time>2025-05-16T11:08:34Z</time>
      </trkpt>
      <trkpt lat="48.12526" lon="-1.81422">
        <ele>104</ele>
        <time>2025-05-16T11:08:35Z</time>
      </trkpt>
      <trkpt lat="48.12525" lon="-1.81416">
        <ele>105</ele>
        <time>2025-05-16T11:08:36Z</time>
      </trkpt>
      <trkpt lat="48.12524" lon="-1.8141">
        <ele>104</ele>
        <time>2025-05-16T11:08:37Z</time>
      </trkpt>
      <trkpt lat="48.12522" lon="-1.81404">
        <ele>104</ele>
        <time>2025-05-16T11:08:38Z</time>
      </trkpt>
      <trkpt lat="48.12521" lon="-1.81398">
        <ele>104</ele>
        <time>2025-05-16T11:08:39Z</time>
      </trkpt>
      <trkpt lat="48.1252" lon="-1.81392">
        <ele>104</ele>
        <time>2025-05-16T11:08:40Z</time>
      </trkpt>
      <trkpt lat="48.12518" lon="-1.81385">
        <ele>103</ele>
        <time>2025-05-16T11:08:41Z</time>
      </trkpt>
      <trkpt lat="48.12517" lon="-1.81379">
        <ele>104</ele>
        <time>2025-05-16T11:08:42Z</time>
      </trkpt>
      <trkpt lat="48.12515" lon="-1.81373">
        <ele>103</ele>
        <time>2025-05-16T11:08:43Z</time>
      </trkpt>
      <trkpt lat="48.12514" lon="-1.81366">
        <ele>103</ele>
        <time>2025-05-16T11:08:44Z</time>
      </trkpt>
      <trkpt lat="48.12512" lon="-1.81359">
        <ele>103</ele>
        <time>2025-05-16T11:08:45Z</time>
      </trkpt>
      <trkpt lat="48.12511" lon="-1.81352">
        <ele>104</ele>
        <time>2025-05-16T11:08:46Z</time>
      </trkpt>
      <trkpt lat="48.12509" lon="-1.81346">
        <ele>104</ele>
        <time>2025-05-16T11:08:47Z</time>
      </trkpt>
      <trkpt lat="48.12507" lon="-1.81339">
        <ele>104</ele>
        <time>2025-05-16T11:08:48Z</time>
      </trkpt>
      <trkpt lat="48.12506" lon="-1.81333">
        <ele>103</ele>
        <time>2025-05-16T11:08:49Z</time>
      </trkpt>
      <trkpt lat="48.12504" lon="-1.81327">
        <ele>103</ele>
        <time>2025-05-16T11:08:50Z</time>
      </trkpt>
      <trkpt lat="48.12503" lon="-1.8132">
        <ele>103</ele>
        <time>2025-05-16T11:08:51Z</time>
      </trkpt>
      <trkpt lat="48.12501" lon="-1.81314">
        <ele>102</ele>
        <time>2025-05-16T11:08:52Z</time>
      </trkpt>
      <trkpt lat="48.125" lon="-1.81308">
        <ele>102</ele>
        <time>2025-05-16T11:08:53Z</time>
      </trkpt>
      <trkpt lat="48.12499" lon="-1.81301">
        <ele>101</ele>
        <time>2025-05-16T11:08:54Z</time>
      </trkpt>
      <trkpt lat="48.12497" lon="-1.81294">
        <ele>101</ele>
        <time>2025-05-16T11:08:55Z</time>
      </trkpt>
      <trkpt lat="48.12496" lon="-1.81288">
        <ele>101</ele>
        <time>2025-05-16T11:08:56Z</time>
      </trkpt>
      <trkpt lat="48.12495" lon="-1.81281">
        <ele>101</ele>
        <time>2025-05-16T11:08:57Z</time>
      </trkpt>
      <trkpt lat="48.12493" lon="-1.81275">
        <ele>101</ele>
        <time>2025-05-16T11:08:58Z</time>
      </trkpt>
      <trkpt lat="48.12491" lon="-1.81268">
        <ele>102</ele>
        <time>2025-05-16T11:08:59Z</time>
      </trkpt>
      <trkpt lat="48.1249" lon="-1.81262">
        <ele>102</ele>
        <time>2025-05-16T11:09:00Z</time>
      </trkpt>
      <trkpt lat="48.12488" lon="-1.81255">
        <ele>101</ele>
        <time>2025-05-16T11:09:01Z</time>
      </trkpt>
      <trkpt lat="48.12487" lon="-1.81249">
        <ele>101</ele>
        <time>2025-05-16T11:09:02Z</time>
      </trkpt>
      <trkpt lat="48.12486" lon="-1.81242">
        <ele>101</ele>
        <time>2025-05-16T11:09:03Z</time>
      </trkpt>
      <trkpt lat="48.12484" lon="-1.81235">
        <ele>101</ele>
        <time>2025-05-16T11:09:04Z</time>
      </trkpt>
      <trkpt lat="48.12482" lon="-1.81229">
        <ele>100</ele>
        <time>2025-05-16T11:09:05Z</time>
      </trkpt>
      <trkpt lat="48.12481" lon="-1.81223">
        <ele>101</ele>
        <time>2025-05-16T11:09:06Z</time>
      </trkpt>
      <trkpt lat="48.1248" lon="-1.81216">
        <ele>101</ele>
        <time>2025-05-16T11:09:07Z</time>
      </trkpt>
      <trkpt lat="48.12479" lon="-1.81209">
        <ele>101</ele>
        <time>2025-05-16T11:09:08Z</time>
      </trkpt>
      <trkpt lat="48.12477" lon="-1.81203">
        <ele>101</ele>
        <time>2025-05-16T11:09:09Z</time>
      </trkpt>
      <trkpt lat="48.12476" lon="-1.81196">
        <ele>102</ele>
        <time>2025-05-16T11:09:10Z</time>
      </trkpt>
      <trkpt lat="48.12474" lon="-1.8119">
        <ele>102</ele>
        <time>2025-05-16T11:09:11Z</time>
      </trkpt>
      <trkpt lat="48.12472" lon="-1.81182">
        <ele>102</ele>
        <time>2025-05-16T11:09:12Z</time>
      </trkpt>
      <trkpt lat="48.12471" lon="-1.81176">
        <ele>102</ele>
        <time>2025-05-16T11:09:13Z</time>
      </trkpt>
      <trkpt lat="48.12469" lon="-1.81169">
        <ele>102</ele>
        <time>2025-05-16T11:09:14Z</time>
      </trkpt>
      <trkpt lat="48.12467" lon="-1.81162">
        <ele>101</ele>
        <time>2025-05-16T11:09:15Z</time>
      </trkpt>
      <trkpt lat="48.12465" lon="-1.81156">
        <ele>101</ele>
        <time>2025-05-16T11:09:16Z</time>
      </trkpt>
      <trkpt lat="48.12464" lon="-1.81149">
        <ele>101</ele>
        <time>2025-05-16T11:09:17Z</time>
      </trkpt>
      <trkpt lat="48.12462" lon="-1.81142">
        <ele>101</ele>
        <time>2025-05-16T11:09:18Z</time>
      </trkpt>
      <trkpt lat="48.1246" lon="-1.81135">
        <ele>101</ele>
        <time>2025-05-16T11:09:19Z</time>
      </trkpt>
      <trkpt lat="48.12458" lon="-1.81129">
        <ele>101</ele>
        <time>2025-05-16T11:09:20Z</time>
      </trkpt>
      <trkpt lat="48.12456" lon="-1.81123">
        <ele>101</ele>
        <time>2025-05-16T11:09:21Z</time>
      </trkpt>
      <trkpt lat="48.12454" lon="-1.81117">
        <ele>101</ele>
        <time>2025-05-16T11:09:22Z</time>
      </trkpt>
      <trkpt lat="48.12451" lon="-1.8111">
        <ele>100</ele>
        <time>2025-05-16T11:09:23Z</time>
      </trkpt>
      <trkpt lat="48.1245" lon="-1.81104">
        <ele>100</ele>
        <time>2025-05-16T11:09:24Z</time>
      </trkpt>
      <trkpt lat="48.12449" lon="-1.81098">
        <ele>99</ele>
        <time>2025-05-16T11:09:25Z</time>
      </trkpt>
      <trkpt lat="48.12447" lon="-1.81092">
        <ele>99</ele>
        <time>2025-05-16T11:09:26Z</time>
      </trkpt>
      <trkpt lat="48.12445" lon="-1.81086">
        <ele>98</ele>
        <time>2025-05-16T11:09:27Z</time>
      </trkpt>
      <trkpt lat="48.12443" lon="-1.81079">
        <ele>98</ele>
        <time>2025-05-16T11:09:28Z</time>
      </trkpt>
      <trkpt lat="48.12441" lon="-1.81073">
        <ele>99</ele>
        <time>2025-05-16T11:09:29Z</time>
      </trkpt>
      <trkpt lat="48.12439" lon="-1.81066">
        <ele>99</ele>
        <time>2025-05-16T11:09:30Z</time>
      </trkpt>
      <trkpt lat="48.12437" lon="-1.8106">
        <ele>98</ele>
        <time>2025-05-16T11:09:31Z</time>
      </trkpt>
      <trkpt lat="48.12435" lon="-1.81053">
        <ele>98</ele>
        <time>2025-05-16T11:09:32Z</time>
      </trkpt>
      <trkpt lat="48.12433" lon="-1.81046">
        <ele>98</ele>
        <time>2025-05-16T11:09:33Z</time>
      </trkpt>
      <trkpt lat="48.12431" lon="-1.81039">
        <ele>98</ele>
        <time>2025-05-16T11:09:34Z</time>
      </trkpt>
      <trkpt lat="48.12429" lon="-1.81032">
        <ele>98</ele>
        <time>2025-05-16T11:09:35Z</time>
      </trkpt>
      <trkpt lat="48.12426" lon="-1.81024">
        <ele>98</ele>
        <time>2025-05-16T11:09:36Z</time>
      </trkpt>
      <trkpt lat="48.12424" lon="-1.81017">
        <ele>98</ele>
        <time>2025-05-16T11:09:37Z</time>
      </trkpt>
      <trkpt lat="48.12423" lon="-1.81011">
        <ele>98</ele>
        <time>2025-05-16T11:09:38Z</time>
      </trkpt>
      <trkpt lat="48.1242" lon="-1.81004">
        <ele>99</ele>
        <time>2025-05-16T11:09:39Z</time>
      </trkpt>
      <trkpt lat="48.12418" lon="-1.80997">
        <ele>98</ele>
        <time>2025-05-16T11:09:40Z</time>
      </trkpt>
      <trkpt lat="48.12416" lon="-1.80991">
        <ele>98</ele>
        <time>2025-05-16T11:09:41Z</time>
      </trkpt>
      <trkpt lat="48.12414" lon="-1.80984">
        <ele>98</ele>
        <time>2025-05-16T11:09:42Z</time>
      </trkpt>
      <trkpt lat="48.12413" lon="-1.80978">
        <ele>98</ele>
        <time>2025-05-16T11:09:43Z</time>
      </trkpt>
      <trkpt lat="48.12411" lon="-1.80971">
        <ele>98</ele>
        <time>2025-05-16T11:09:44Z</time>
      </trkpt>
      <trkpt lat="48.12409" lon="-1.80965">
        <ele>98</ele>
        <time>2025-05-16T11:09:45Z</time>
      </trkpt>
      <trkpt lat="48.12408" lon="-1.80958">
        <ele>98</ele>
        <time>2025-05-16T11:09:46Z</time>
      </trkpt>
      <trkpt lat="48.12405" lon="-1.80951">
        <ele>97</ele>
        <time>2025-05-16T11:09:47Z</time>
      </trkpt>
      <trkpt lat="48.12403" lon="-1.80945">
        <ele>97</ele>
        <time>2025-05-16T11:09:48Z</time>
      </trkpt>
      <trkpt lat="48.12401" lon="-1.80938">
        <ele>97</ele>
        <time>2025-05-16T11:09:49Z</time>
      </trkpt>
      <trkpt lat="48.12399" lon="-1.80931">
        <ele>97</ele>
        <time>2025-05-16T11:09:50Z</time>
      </trkpt>
      <trkpt lat="48.12397" lon="-1.80925">
        <ele>97</ele>
        <time>2025-05-16T11:09:51Z</time>
      </trkpt>
      <trkpt lat="48.12394" lon="-1.80918">
        <ele>97</ele>
        <time>2025-05-16T11:09:52Z</time>
      </trkpt>
      <trkpt lat="48.12393" lon="-1.80911">
        <ele>97</ele>
        <time>2025-05-16T11:09:53Z</time>
      </trkpt>
      <trkpt lat="48.12391" lon="-1.80904">
        <ele>97</ele>
        <time>2025-05-16T11:09:54Z</time>
      </trkpt>
      <trkpt lat="48.12389" lon="-1.80897">
        <ele>97</ele>
        <time>2025-05-16T11:09:55Z</time>
      </trkpt>
      <trkpt lat="48.12387" lon="-1.80891">
        <ele>97</ele>
        <time>2025-05-16T11:09:56Z</time>
      </trkpt>
      <trkpt lat="48.12385" lon="-1.80884">
        <ele>97</ele>
        <time>2025-05-16T11:09:57Z</time>
      </trkpt>
      <trkpt lat="48.12382" lon="-1.80878">
        <ele>97</ele>
        <time>2025-05-16T11:09:58Z</time>
      </trkpt>
      <trkpt lat="48.1238" lon="-1.80871">
        <ele>97</ele>
        <time>2025-05-16T11:09:59Z</time>
      </trkpt>
      <trkpt lat="48.12378" lon="-1.80865">
        <ele>97</ele>
        <time>2025-05-16T11:10:00Z</time>
      </trkpt>
      <trkpt lat="48.12376" lon="-1.80858">
        <ele>96</ele>
        <time>2025-05-16T11:10:01Z</time>
      </trkpt>
      <trkpt lat="48.12374" lon="-1.80851">
        <ele>96</ele>
        <time>2025-05-16T11:10:02Z</time>
      </trkpt>
      <trkpt lat="48.12372" lon="-1.80844">
        <ele>97</ele>
        <time>2025-05-16T11:10:03Z</time>
      </trkpt>
      <trkpt lat="48.1237" lon="-1.80838">
        <ele>97</ele>
        <time>2025-05-16T11:10:04Z</time>
      </trkpt>
      <trkpt lat="48.12368" lon="-1.80831">
        <ele>97</ele>
        <time>2025-05-16T11:10:05Z</time>
      </trkpt>
      <trkpt lat="48.12366" lon="-1.80824">
        <ele>97</ele>
        <time>2025-05-16T11:10:06Z</time>
      </trkpt>
      <trkpt lat="48.12364" lon="-1.80818">
        <ele>97</ele>
        <time>2025-05-16T11:10:07Z</time>
      </trkpt>
      <trkpt lat="48.12362" lon="-1.80811">
        <ele>97</ele>
        <time>2025-05-16T11:10:08Z</time>
      </trkpt>
      <trkpt lat="48.1236" lon="-1.80804">
        <ele>97</ele>
        <time>2025-05-16T11:10:09Z</time>
      </trkpt>
      <trkpt lat="48.12359" lon="-1.80797">
        <ele>97</ele>
        <time>2025-05-16T11:10:10Z</time>
      </trkpt>
      <trkpt lat="48.12356" lon="-1.8079">
        <ele>97</ele>
        <time>2025-05-16T11:10:11Z</time>
      </trkpt>
      <trkpt lat="48.12355" lon="-1.80784">
        <ele>97</ele>
        <time>2025-05-16T11:10:12Z</time>
      </trkpt>
      <trkpt lat="48.12353" lon="-1.80778">
        <ele>97</ele>
        <time>2025-05-16T11:10:13Z</time>
      </trkpt>
      <trkpt lat="48.12352" lon="-1.80771">
        <ele>97</ele>
        <time>2025-05-16T11:10:14Z</time>
      </trkpt>
      <trkpt lat="48.1235" lon="-1.80765">
        <ele>97</ele>
        <time>2025-05-16T11:10:15Z</time>
      </trkpt>
      <trkpt lat="48.12348" lon="-1.80759">
        <ele>98</ele>
        <time>2025-05-16T11:10:16Z</time>
      </trkpt>
      <trkpt lat="48.12346" lon="-1.80753">
        <ele>98</ele>
        <time>2025-05-16T11:10:17Z</time>
      </trkpt>
      <trkpt lat="48.12344" lon="-1.80747">
        <ele>98</ele>
        <time>2025-05-16T11:10:18Z</time>
      </trkpt>
      <trkpt lat="48.12343" lon="-1.80741">
        <ele>98</ele>
        <time>2025-05-16T11:10:19Z</time>
      </trkpt>
      <trkpt lat="48.12341" lon="-1.80735">
        <ele>98</ele>
        <time>2025-05-16T11:10:20Z</time>
      </trkpt>
      <trkpt lat="48.12339" lon="-1.80729">
        <ele>98</ele>
        <time>2025-05-16T11:10:21Z</time>
      </trkpt>
      <trkpt lat="48.12337" lon="-1.80723">
        <ele>97</ele>
        <time>2025-05-16T11:10:22Z</time>
      </trkpt>
      <trkpt lat="48.12336" lon="-1.80717">
        <ele>97</ele>
        <time>2025-05-16T11:10:23Z</time>
      </trkpt>
      <trkpt lat="48.12335" lon="-1.80712">
        <ele>97</ele>
        <time>2025-05-16T11:10:24Z</time>
      </trkpt>
      <trkpt lat="48.12333" lon="-1.80706">
        <ele>97</ele>
        <time>2025-05-16T11:10:25Z</time>
      </trkpt>
      <trkpt lat="48.12332" lon="-1.807">
        <ele>97</ele>
        <time>2025-05-16T11:10:26Z</time>
      </trkpt>
      <trkpt lat="48.12331" lon="-1.80695">
        <ele>97</ele>
        <time>2025-05-16T11:10:27Z</time>
      </trkpt>
      <trkpt lat="48.12329" lon="-1.8069">
        <ele>97</ele>
        <time>2025-05-16T11:10:28Z</time>
      </trkpt>
      <trkpt lat="48.12329" lon="-1.80684">
        <ele>97</ele>
        <time>2025-05-16T11:10:29Z</time>
      </trkpt>
      <trkpt lat="48.12328" lon="-1.80678">
        <ele>97</ele>
        <time>2025-05-16T11:10:30Z</time>
      </trkpt>
      <trkpt lat="48.12327" lon="-1.80672">
        <ele>97</ele>
        <time>2025-05-16T11:10:31Z</time>
      </trkpt>
      <trkpt lat="48.12326" lon="-1.80666">
        <ele>97</ele>
        <time>2025-05-16T11:10:32Z</time>
      </trkpt>
      <trkpt lat="48.12325" lon="-1.80661">
        <ele>97</ele>
        <time>2025-05-16T11:10:33Z</time>
      </trkpt>
      <trkpt lat="48.12325" lon="-1.80656">
        <ele>97</ele>
        <time>2025-05-16T11:10:34Z</time>
      </trkpt>
      <trkpt lat="48.12324" lon="-1.8065">
        <ele>97</ele>
        <time>2025-05-16T11:10:35Z</time>
      </trkpt>
      <trkpt lat="48.12322" lon="-1.80644">
        <ele>97</ele>
        <time>2025-05-16T11:10:36Z</time>
      </trkpt>
      <trkpt lat="48.12321" lon="-1.80639">
        <ele>97</ele>
        <time>2025-05-16T11:10:37Z</time>
      </trkpt>
      <trkpt lat="48.12321" lon="-1.80633">
        <ele>97</ele>
        <time>2025-05-16T11:10:38Z</time>
      </trkpt>
      <trkpt lat="48.1232" lon="-1.80627">
        <ele>98</ele>
        <time>2025-05-16T11:10:39Z</time>
      </trkpt>
      <trkpt lat="48.1232" lon="-1.80621">
        <ele>98</ele>
        <time>2025-05-16T11:10:40Z</time>
      </trkpt>
      <trkpt lat="48.12319" lon="-1.80615">
        <ele>98</ele>
        <time>2025-05-16T11:10:41Z</time>
      </trkpt>
      <trkpt lat="48.12318" lon="-1.80609">
        <ele>97</ele>
        <time>2025-05-16T11:10:42Z</time>
      </trkpt>
      <trkpt lat="48.12318" lon="-1.80604">
        <ele>98</ele>
        <time>2025-05-16T11:10:43Z</time>
      </trkpt>
      <trkpt lat="48.12317" lon="-1.80598">
        <ele>99</ele>
        <time>2025-05-16T11:10:44Z</time>
      </trkpt>
      <trkpt lat="48.12317" lon="-1.80592">
        <ele>99</ele>
        <time>2025-05-16T11:10:45Z</time>
      </trkpt>
      <trkpt lat="48.12316" lon="-1.80586">
        <ele>99</ele>
        <time>2025-05-16T11:10:46Z</time>
      </trkpt>
      <trkpt lat="48.12315" lon="-1.80581">
        <ele>98</ele>
        <time>2025-05-16T11:10:47Z</time>
      </trkpt>
      <trkpt lat="48.12313" lon="-1.80575">
        <ele>98</ele>
        <time>2025-05-16T11:10:48Z</time>
      </trkpt>
      <trkpt lat="48.12311" lon="-1.80571">
        <ele>98</ele>
        <time>2025-05-16T11:10:49Z</time>
      </trkpt>
      <trkpt lat="48.12308" lon="-1.80567">
        <ele>98</ele>
        <time>2025-05-16T11:10:50Z</time>
      </trkpt>
      <trkpt lat="48.12304" lon="-1.80564">
        <ele>98</ele>
        <time>2025-05-16T11:10:51Z</time>
      </trkpt>
      <trkpt lat="48.12301" lon="-1.80563">
        <ele>98</ele>
        <time>2025-05-16T11:10:52Z</time>
      </trkpt>
      <trkpt lat="48.12297" lon="-1.80564">
        <ele>98</ele>
        <time>2025-05-16T11:10:53Z</time>
      </trkpt>
      <trkpt lat="48.12295" lon="-1.80566">
        <ele>97</ele>
        <time>2025-05-16T11:10:54Z</time>
      </trkpt>
      <trkpt lat="48.12292" lon="-1.80566">
        <ele>98</ele>
        <time>2025-05-16T11:10:55Z</time>
      </trkpt>
      <trkpt lat="48.12289" lon="-1.80564">
        <ele>98</ele>
        <time>2025-05-16T11:10:56Z</time>
      </trkpt>
      <trkpt lat="48.12287" lon="-1.80562">
        <ele>99</ele>
        <time>2025-05-16T11:10:57Z</time>
      </trkpt>
      <trkpt lat="48.12285" lon="-1.80561">
        <ele>98</ele>
        <time>2025-05-16T11:10:58Z</time>
      </trkpt>
      <trkpt lat="48.12283" lon="-1.80561">
        <ele>98</ele>
        <time>2025-05-16T11:10:59Z</time>
      </trkpt>
      <trkpt lat="48.1228" lon="-1.80561">
        <ele>98</ele>
        <time>2025-05-16T11:11:00Z</time>
      </trkpt>
      <trkpt lat="48.12277" lon="-1.80562">
        <ele>98</ele>
        <time>2025-05-16T11:11:01Z</time>
      </trkpt>
      <trkpt lat="48.12274" lon="-1.80561">
        <ele>97</ele>
        <time>2025-05-16T11:11:02Z</time>
      </trkpt>
      <trkpt lat="48.12272" lon="-1.80561">
        <ele>97</ele>
        <time>2025-05-16T11:11:03Z</time>
      </trkpt>
      <trkpt lat="48.12268" lon="-1.80562">
        <ele>96</ele>
        <time>2025-05-16T11:11:04Z</time>
      </trkpt>
      <trkpt lat="48.12265" lon="-1.80563">
        <ele>96</ele>
        <time>2025-05-16T11:11:05Z</time>
      </trkpt>
      <trkpt lat="48.12262" lon="-1.80563">
        <ele>96</ele>
        <time>2025-05-16T11:11:06Z</time>
      </trkpt>
      <trkpt lat="48.12259" lon="-1.80563">
        <ele>96</ele>
        <time>2025-05-16T11:11:07Z</time>
      </trkpt>
      <trkpt lat="48.12256" lon="-1.80564">
        <ele>95</ele>
        <time>2025-05-16T11:11:08Z</time>
      </trkpt>
      <trkpt lat="48.12253" lon="-1.80566">
        <ele>95</ele>
        <time>2025-05-16T11:11:09Z</time>
      </trkpt>
      <trkpt lat="48.12251" lon="-1.80566">
        <ele>95</ele>
        <time>2025-05-16T11:11:10Z</time>
      </trkpt>
      <trkpt lat="48.12248" lon="-1.80566">
        <ele>95</ele>
        <time>2025-05-16T11:11:11Z</time>
      </trkpt>
      <trkpt lat="48.12245" lon="-1.80567">
        <ele>95</ele>
        <time>2025-05-16T11:11:12Z</time>
      </trkpt>
      <trkpt lat="48.12242" lon="-1.80567">
        <ele>95</ele>
        <time>2025-05-16T11:11:13Z</time>
      </trkpt>
      <trkpt lat="48.12239" lon="-1.80567">
        <ele>96</ele>
        <time>2025-05-16T11:11:14Z</time>
      </trkpt>
      <trkpt lat="48.12236" lon="-1.80567">
        <ele>96</ele>
        <time>2025-05-16T11:11:15Z</time>
      </trkpt>
      <trkpt lat="48.12234" lon="-1.80567">
        <ele>96</ele>
        <time>2025-05-16T11:11:16Z</time>
      </trkpt>
      <trkpt lat="48.12231" lon="-1.80568">
        <ele>97</ele>
        <time>2025-05-16T11:11:17Z</time>
      </trkpt>
      <trkpt lat="48.12229" lon="-1.80568">
        <ele>97</ele>
        <time>2025-05-16T11:11:18Z</time>
      </trkpt>
      <trkpt lat="48.12226" lon="-1.80569">
        <ele>97</ele>
        <time>2025-05-16T11:11:19Z</time>
      </trkpt>
      <trkpt lat="48.12223" lon="-1.80569">
        <ele>97</ele>
        <time>2025-05-16T11:11:20Z</time>
      </trkpt>
      <trkpt lat="48.12221" lon="-1.8057">
        <ele>96</ele>
        <time>2025-05-16T11:11:21Z</time>
      </trkpt>
      <trkpt lat="48.12218" lon="-1.8057">
        <ele>96</ele>
        <time>2025-05-16T11:11:22Z</time>
      </trkpt>
      <trkpt lat="48.12216" lon="-1.80568">
        <ele>96</ele>
        <time>2025-05-16T11:11:23Z</time>
      </trkpt>
      <trkpt lat="48.12213" lon="-1.80567">
        <ele>97</ele>
        <time>2025-05-16T11:11:24Z</time>
      </trkpt>
      <trkpt lat="48.1221" lon="-1.80567">
        <ele>96</ele>
        <time>2025-05-16T11:11:25Z</time>
      </trkpt>
      <trkpt lat="48.12208" lon="-1.80567">
        <ele>97</ele>
        <time>2025-05-16T11:11:26Z</time>
      </trkpt>
      <trkpt lat="48.12204" lon="-1.80568">
        <ele>96</ele>
        <time>2025-05-16T11:11:27Z</time>
      </trkpt>
      <trkpt lat="48.12201" lon="-1.80569">
        <ele>96</ele>
        <time>2025-05-16T11:11:28Z</time>
      </trkpt>
      <trkpt lat="48.12199" lon="-1.8057">
        <ele>96</ele>
        <time>2025-05-16T11:11:29Z</time>
      </trkpt>
      <trkpt lat="48.12196" lon="-1.80571">
        <ele>96</ele>
        <time>2025-05-16T11:11:30Z</time>
      </trkpt>
      <trkpt lat="48.12193" lon="-1.80572">
        <ele>96</ele>
        <time>2025-05-16T11:11:31Z</time>
      </trkpt>
      <trkpt lat="48.1219" lon="-1.80572">
        <ele>96</ele>
        <time>2025-05-16T11:11:32Z</time>
      </trkpt>
      <trkpt lat="48.12187" lon="-1.80572">
        <ele>97</ele>
        <time>2025-05-16T11:11:33Z</time>
      </trkpt>
      <trkpt lat="48.12184" lon="-1.80572">
        <ele>97</ele>
        <time>2025-05-16T11:11:34Z</time>
      </trkpt>
      <trkpt lat="48.12182" lon="-1.80573">
        <ele>97</ele>
        <time>2025-05-16T11:11:35Z</time>
      </trkpt>
      <trkpt lat="48.12179" lon="-1.80573">
        <ele>98</ele>
        <time>2025-05-16T11:11:36Z</time>
      </trkpt>
      <trkpt lat="48.12176" lon="-1.80574">
        <ele>98</ele>
        <time>2025-05-16T11:11:37Z</time>
      </trkpt>
      <trkpt lat="48.12173" lon="-1.80576">
        <ele>97</ele>
        <time>2025-05-16T11:11:38Z</time>
      </trkpt>
      <trkpt lat="48.1217" lon="-1.80576">
        <ele>98</ele>
        <time>2025-05-16T11:11:39Z</time>
      </trkpt>
      <trkpt lat="48.12168" lon="-1.80577">
        <ele>98</ele>
        <time>2025-05-16T11:11:40Z</time>
      </trkpt>
      <trkpt lat="48.12165" lon="-1.80577">
        <ele>98</ele>
        <time>2025-05-16T11:11:41Z</time>
      </trkpt>
      <trkpt lat="48.12162" lon="-1.80578">
        <ele>98</ele>
        <time>2025-05-16T11:11:42Z</time>
      </trkpt>
      <trkpt lat="48.12159" lon="-1.80579">
        <ele>98</ele>
        <time>2025-05-16T11:11:43Z</time>
      </trkpt>
      <trkpt lat="48.12155" lon="-1.8058">
        <ele>98</ele>
        <time>2025-05-16T11:11:44Z</time>
      </trkpt>
      <trkpt lat="48.12152" lon="-1.8058">
        <ele>99</ele>
        <time>2025-05-16T11:11:45Z</time>
      </trkpt>
      <trkpt lat="48.12149" lon="-1.80581">
        <ele>98</ele>
        <time>2025-05-16T11:11:46Z</time>
      </trkpt>
      <trkpt lat="48.12146" lon="-1.80582">
        <ele>98</ele>
        <time>2025-05-16T11:11:47Z</time>
      </trkpt>
      <trkpt lat="48.12143" lon="-1.80583">
        <ele>99</ele>
        <time>2025-05-16T11:11:48Z</time>
      </trkpt>
      <trkpt lat="48.12139" lon="-1.80583">
        <ele>99</ele>
        <time>2025-05-16T11:11:49Z</time>
      </trkpt>
      <trkpt lat="48.12136" lon="-1.80584">
        <ele>99</ele>
        <time>2025-05-16T11:11:50Z</time>
      </trkpt>
      <trkpt lat="48.12133" lon="-1.80585">
        <ele>99</ele>
        <time>2025-05-16T11:11:51Z</time>
      </trkpt>
      <trkpt lat="48.12129" lon="-1.80586">
        <ele>99</ele>
        <time>2025-05-16T11:11:52Z</time>
      </trkpt>
      <trkpt lat="48.12126" lon="-1.80587">
        <ele>98</ele>
        <time>2025-05-16T11:11:53Z</time>
      </trkpt>
      <trkpt lat="48.12123" lon="-1.80588">
        <ele>98</ele>
        <time>2025-05-16T11:11:54Z</time>
      </trkpt>
      <trkpt lat="48.12119" lon="-1.80588">
        <ele>98</ele>
        <time>2025-05-16T11:11:55Z</time>
      </trkpt>
      <trkpt lat="48.12116" lon="-1.80589">
        <ele>98</ele>
        <time>2025-05-16T11:11:56Z</time>
      </trkpt>
      <trkpt lat="48.12113" lon="-1.80589">
        <ele>98</ele>
        <time>2025-05-16T11:11:57Z</time>
      </trkpt>
      <trkpt lat="48.12109" lon="-1.8059">
        <ele>98</ele>
        <time>2025-05-16T11:11:58Z</time>
      </trkpt>
      <trkpt lat="48.12106" lon="-1.80591">
        <ele>98</ele>
        <time>2025-05-16T11:11:59Z</time>
      </trkpt>
      <trkpt lat="48.12102" lon="-1.80591">
        <ele>98</ele>
        <time>2025-05-16T11:12:00Z</time>
      </trkpt>
      <trkpt lat="48.12099" lon="-1.80593">
        <ele>98</ele>
        <time>2025-05-16T11:12:01Z</time>
      </trkpt>
      <trkpt lat="48.12095" lon="-1.80593">
        <ele>98</ele>
        <time>2025-05-16T11:12:02Z</time>
      </trkpt>
      <trkpt lat="48.12091" lon="-1.80594">
        <ele>98</ele>
        <time>2025-05-16T11:12:03Z</time>
      </trkpt>
      <trkpt lat="48.12088" lon="-1.80595">
        <ele>98</ele>
        <time>2025-05-16T11:12:04Z</time>
      </trkpt>
      <trkpt lat="48.12084" lon="-1.80596">
        <ele>97</ele>
        <time>2025-05-16T11:12:05Z</time>
      </trkpt>
      <trkpt lat="48.1208" lon="-1.80596">
        <ele>98</ele>
        <time>2025-05-16T11:12:06Z</time>
      </trkpt>
      <trkpt lat="48.12076" lon="-1.80597">
        <ele>98</ele>
        <time>2025-05-16T11:12:07Z</time>
      </trkpt>
      <trkpt lat="48.12073" lon="-1.80598">
        <ele>98</ele>
        <time>2025-05-16T11:12:08Z</time>
      </trkpt>
      <trkpt lat="48.12069" lon="-1.80598">
        <ele>98</ele>
        <time>2025-05-16T11:12:09Z</time>
      </trkpt>
      <trkpt lat="48.12066" lon="-1.80599">
        <ele>98</ele>
        <time>2025-05-16T11:12:10Z</time>
      </trkpt>
      <trkpt lat="48.12062" lon="-1.806">
        <ele>98</ele>
        <time>2025-05-16T11:12:11Z</time>
      </trkpt>
      <trkpt lat="48.12058" lon="-1.80601">
        <ele>98</ele>
        <time>2025-05-16T11:12:12Z</time>
      </trkpt>
      <trkpt lat="48.12055" lon="-1.80602">
        <ele>98</ele>
        <time>2025-05-16T11:12:13Z</time>
      </trkpt>
      <trkpt lat="48.12051" lon="-1.80603">
        <ele>98</ele>
        <time>2025-05-16T11:12:14Z</time>
      </trkpt>
      <trkpt lat="48.12047" lon="-1.80604">
        <ele>98</ele>
        <time>2025-05-16T11:12:15Z</time>
      </trkpt>
      <trkpt lat="48.12043" lon="-1.80604">
        <ele>98</ele>
        <time>2025-05-16T11:12:16Z</time>
      </trkpt>
      <trkpt lat="48.1204" lon="-1.80605">
        <ele>98</ele>
        <time>2025-05-16T11:12:17Z</time>
      </trkpt>
      <trkpt lat="48.12036" lon="-1.80606">
        <ele>98</ele>
        <time>2025-05-16T11:12:18Z</time>
      </trkpt>
      <trkpt lat="48.12031" lon="-1.80607">
        <ele>98</ele>
        <time>2025-05-16T11:12:19Z</time>
      </trkpt>
      <trkpt lat="48.12027" lon="-1.80608">
        <ele>98</ele>
        <time>2025-05-16T11:12:20Z</time>
      </trkpt>
      <trkpt lat="48.12024" lon="-1.80609">
        <ele>99</ele>
        <time>2025-05-16T11:12:21Z</time>
      </trkpt>
      <trkpt lat="48.1202" lon="-1.80609">
        <ele>98</ele>
        <time>2025-05-16T11:12:22Z</time>
      </trkpt>
      <trkpt lat="48.12016" lon="-1.8061">
        <ele>98</ele>
        <time>2025-05-16T11:12:23Z</time>
      </trkpt>
      <trkpt lat="48.12012" lon="-1.80611">
        <ele>98</ele>
        <time>2025-05-16T11:12:24Z</time>
      </trkpt>
      <trkpt lat="48.12008" lon="-1.80612">
        <ele>98</ele>
        <time>2025-05-16T11:12:25Z</time>
      </trkpt>
      <trkpt lat="48.12004" lon="-1.80612">
        <ele>98</ele>
        <time>2025-05-16T11:12:26Z</time>
      </trkpt>
      <trkpt lat="48.12" lon="-1.80613">
        <ele>98</ele>
        <time>2025-05-16T11:12:27Z</time>
      </trkpt>
      <trkpt lat="48.11996" lon="-1.80614">
        <ele>98</ele>
        <time>2025-05-16T11:12:28Z</time>
      </trkpt>
      <trkpt lat="48.11992" lon="-1.80615">
        <ele>97</ele>
        <time>2025-05-16T11:12:29Z</time>
      </trkpt>
      <trkpt lat="48.11988" lon="-1.80616">
        <ele>97</ele>
        <time>2025-05-16T11:12:30Z</time>
      </trkpt>
      <trkpt lat="48.11984" lon="-1.80617">
        <ele>97</ele>
        <time>2025-05-16T11:12:31Z</time>
      </trkpt>
      <trkpt lat="48.1198" lon="-1.80618">
        <ele>97</ele>
        <time>2025-05-16T11:12:32Z</time>
      </trkpt>
      <trkpt lat="48.11976" lon="-1.80619">
        <ele>97</ele>
        <time>2025-05-16T11:12:33Z</time>
      </trkpt>
      <trkpt lat="48.11972" lon="-1.8062">
        <ele>97</ele>
        <time>2025-05-16T11:12:34Z</time>
      </trkpt>
      <trkpt lat="48.11968" lon="-1.80621">
        <ele>97</ele>
        <time>2025-05-16T11:12:35Z</time>
      </trkpt>
      <trkpt lat="48.11964" lon="-1.80621">
        <ele>97</ele>
        <time>2025-05-16T11:12:36Z</time>
      </trkpt>
      <trkpt lat="48.1196" lon="-1.80622">
        <ele>97</ele>
        <time>2025-05-16T11:12:37Z</time>
      </trkpt>
      <trkpt lat="48.11956" lon="-1.80623">
        <ele>97</ele>
        <time>2025-05-16T11:12:38Z</time>
      </trkpt>
      <trkpt lat="48.11951" lon="-1.80624">
        <ele>97</ele>
        <time>2025-05-16T11:12:39Z</time>
      </trkpt>
      <trkpt lat="48.11947" lon="-1.80625">
        <ele>97</ele>
        <time>2025-05-16T11:12:40Z</time>
      </trkpt>
      <trkpt lat="48.11943" lon="-1.80626">
        <ele>98</ele>
        <time>2025-05-16T11:12:41Z</time>
      </trkpt>
      <trkpt lat="48.11939" lon="-1.80627">
        <ele>98</ele>
        <time>2025-05-16T11:12:42Z</time>
      </trkpt>
      <trkpt lat="48.11935" lon="-1.80627">
        <ele>98</ele>
        <time>2025-05-16T11:12:43Z</time>
      </trkpt>
      <trkpt lat="48.11931" lon="-1.80628">
        <ele>98</ele>
        <time>2025-05-16T11:12:44Z</time>
      </trkpt>
      <trkpt lat="48.11927" lon="-1.80629">
        <ele>98</ele>
        <time>2025-05-16T11:12:45Z</time>
      </trkpt>
      <trkpt lat="48.11923" lon="-1.8063">
        <ele>98</ele>
        <time>2025-05-16T11:12:46Z</time>
      </trkpt>
      <trkpt lat="48.1192" lon="-1.80631">
        <ele>98</ele>
        <time>2025-05-16T11:12:47Z</time>
      </trkpt>
      <trkpt lat="48.11916" lon="-1.80633">
        <ele>98</ele>
        <time>2025-05-16T11:12:48Z</time>
      </trkpt>
      <trkpt lat="48.11912" lon="-1.80635">
        <ele>98</ele>
        <time>2025-05-16T11:12:49Z</time>
      </trkpt>
      <trkpt lat="48.11909" lon="-1.80639">
        <ele>99</ele>
        <time>2025-05-16T11:12:50Z</time>
      </trkpt>
      <trkpt lat="48.11905" lon="-1.80643">
        <ele>99</ele>
        <time>2025-05-16T11:12:51Z</time>
      </trkpt>
      <trkpt lat="48.11902" lon="-1.80647">
        <ele>99</ele>
        <time>2025-05-16T11:12:52Z</time>
      </trkpt>
      <trkpt lat="48.11898" lon="-1.80651">
        <ele>99</ele>
        <time>2025-05-16T11:12:53Z</time>
      </trkpt>
      <trkpt lat="48.11895" lon="-1.80654">
        <ele>99</ele>
        <time>2025-05-16T11:12:54Z</time>
      </trkpt>
      <trkpt lat="48.11892" lon="-1.80658">
        <ele>99</ele>
        <time>2025-05-16T11:12:55Z</time>
      </trkpt>
      <trkpt lat="48.11889" lon="-1.80661">
        <ele>99</ele>
        <time>2025-05-16T11:12:56Z</time>
      </trkpt>
      <trkpt lat="48.11886" lon="-1.80664">
        <ele>99</ele>
        <time>2025-05-16T11:12:57Z</time>
      </trkpt>
      <trkpt lat="48.11883" lon="-1.80667">
        <ele>99</ele>
        <time>2025-05-16T11:12:58Z</time>
      </trkpt>
      <trkpt lat="48.11881" lon="-1.8067">
        <ele>99</ele>
        <time>2025-05-16T11:12:59Z</time>
      </trkpt>
      <trkpt lat="48.11878" lon="-1.80671">
        <ele>99</ele>
        <time>2025-05-16T11:13:00Z</time>
      </trkpt>
      <trkpt lat="48.11875" lon="-1.8067">
        <ele>99</ele>
        <time>2025-05-16T11:13:01Z</time>
      </trkpt>
      <trkpt lat="48.11872" lon="-1.80667">
        <ele>99</ele>
        <time>2025-05-16T11:13:02Z</time>
      </trkpt>
      <trkpt lat="48.11869" lon="-1.80664">
        <ele>99</ele>
        <time>2025-05-16T11:13:03Z</time>
      </trkpt>
      <trkpt lat="48.11866" lon="-1.8066">
        <ele>99</ele>
        <time>2025-05-16T11:13:04Z</time>
      </trkpt>
      <trkpt lat="48.11864" lon="-1.80656">
        <ele>99</ele>
        <time>2025-05-16T11:13:05Z</time>
      </trkpt>
      <trkpt lat="48.11861" lon="-1.80652">
        <ele>99</ele>
        <time>2025-05-16T11:13:06Z</time>
      </trkpt>
      <trkpt lat="48.11857" lon="-1.80649">
        <ele>99</ele>
        <time>2025-05-16T11:13:07Z</time>
      </trkpt>
      <trkpt lat="48.11854" lon="-1.80646">
        <ele>99</ele>
        <time>2025-05-16T11:13:08Z</time>
      </trkpt>
      <trkpt lat="48.1185" lon="-1.80646">
        <ele>99</ele>
        <time>2025-05-16T11:13:09Z</time>
      </trkpt>
      <trkpt lat="48.11846" lon="-1.80647">
        <ele>99</ele>
        <time>2025-05-16T11:13:10Z</time>
      </trkpt>
      <trkpt lat="48.11841" lon="-1.80649">
        <ele>99</ele>
        <time>2025-05-16T11:13:11Z</time>
      </trkpt>
      <trkpt lat="48.11836" lon="-1.8065">
        <ele>99</ele>
        <time>2025-05-16T11:13:12Z</time>
      </trkpt>
      <trkpt lat="48.11832" lon="-1.80651">
        <ele>99</ele>
        <time>2025-05-16T11:13:13Z</time>
      </trkpt>
      <trkpt lat="48.11827" lon="-1.80652">
        <ele>99</ele>
        <time>2025-05-16T11:13:14Z</time>
      </trkpt>
      <trkpt lat="48.11823" lon="-1.80653">
        <ele>99</ele>
        <time>2025-05-16T11:13:15Z</time>
      </trkpt>
      <trkpt lat="48.11818" lon="-1.80654">
        <ele>99</ele>
        <time>2025-05-16T11:13:16Z</time>
      </trkpt>
      <trkpt lat="48.11813" lon="-1.80655">
        <ele>99</ele>
        <time>2025-05-16T11:13:17Z</time>
      </trkpt>
      <trkpt lat="48.11808" lon="-1.80655">
        <ele>99</ele>
        <time>2025-05-16T11:13:18Z</time>
      </trkpt>
      <trkpt lat="48.11803" lon="-1.80656">
        <ele>99</ele>
        <time>2025-05-16T11:13:19Z</time>
      </trkpt>
      <trkpt lat="48.11798" lon="-1.80658">
        <ele>99</ele>
        <time>2025-05-16T11:13:20Z</time>
      </trkpt>
      <trkpt lat="48.11793" lon="-1.80659">
        <ele>99</ele>
        <time>2025-05-16T11:13:21Z</time>
      </trkpt>
      <trkpt lat="48.11788" lon="-1.8066">
        <ele>99</ele>
        <time>2025-05-16T11:13:22Z</time>
      </trkpt>
      <trkpt lat="48.11783" lon="-1.80661">
        <ele>99</ele>
        <time>2025-05-16T11:13:23Z</time>
      </trkpt>
      <trkpt lat="48.11778" lon="-1.80662">
        <ele>99</ele>
        <time>2025-05-16T11:13:24Z</time>
      </trkpt>
      <trkpt lat="48.11773" lon="-1.80664">
        <ele>99</ele>
        <time>2025-05-16T11:13:25Z</time>
      </trkpt>
      <trkpt lat="48.11768" lon="-1.80665">
        <ele>99</ele>
        <time>2025-05-16T11:13:26Z</time>
      </trkpt>
      <trkpt lat="48.11763" lon="-1.80666">
        <ele>99</ele>
        <time>2025-05-16T11:13:27Z</time>
      </trkpt>
      <trkpt lat="48.11758" lon="-1.80667">
        <ele>99</ele>
        <time>2025-05-16T11:13:28Z</time>
      </trkpt>
      <trkpt lat="48.11752" lon="-1.80668">
        <ele>98</ele>
        <time>2025-05-16T11:13:29Z</time>
      </trkpt>
      <trkpt lat="48.11747" lon="-1.80669">
        <ele>98</ele>
        <time>2025-05-16T11:13:30Z</time>
      </trkpt>
      <trkpt lat="48.11742" lon="-1.8067">
        <ele>98</ele>
        <time>2025-05-16T11:13:31Z</time>
      </trkpt>
      <trkpt lat="48.11737" lon="-1.8067">
        <ele>98</ele>
        <time>2025-05-16T11:13:32Z</time>
      </trkpt>
      <trkpt lat="48.11732" lon="-1.80671">
        <ele>98</ele>
        <time>2025-05-16T11:13:33Z</time>
      </trkpt>
      <trkpt lat="48.11727" lon="-1.80672">
        <ele>98</ele>
        <time>2025-05-16T11:13:34Z</time>
      </trkpt>
      <trkpt lat="48.11723" lon="-1.80673">
        <ele>98</ele>
        <time>2025-05-16T11:13:35Z</time>
      </trkpt>
      <trkpt lat="48.11718" lon="-1.80675">
        <ele>98</ele>
        <time>2025-05-16T11:13:36Z</time>
      </trkpt>
      <trkpt lat="48.11713" lon="-1.80677">
        <ele>98</ele>
        <time>2025-05-16T11:13:37Z</time>
      </trkpt>
      <trkpt lat="48.11709" lon="-1.8068">
        <ele>98</ele>
        <time>2025-05-16T11:13:38Z</time>
      </trkpt>
      <trkpt lat="48.11706" lon="-1.80684">
        <ele>97</ele>
        <time>2025-05-16T11:13:39Z</time>
      </trkpt>
      <trkpt lat="48.11703" lon="-1.80688">
        <ele>97</ele>
        <time>2025-05-16T11:13:40Z</time>
      </trkpt>
      <trkpt lat="48.11701" lon="-1.8069">
        <ele>97</ele>
        <time>2025-05-16T11:13:41Z</time>
      </trkpt>
      <trkpt lat="48.11697" lon="-1.80691">
        <ele>97</ele>
        <time>2025-05-16T11:13:42Z</time>
      </trkpt>
      <trkpt lat="48.11694" lon="-1.80691">
        <ele>98</ele>
        <time>2025-05-16T11:13:43Z</time>
      </trkpt>
      <trkpt lat="48.1169" lon="-1.80691">
        <ele>98</ele>
        <time>2025-05-16T11:13:44Z</time>
      </trkpt>
      <trkpt lat="48.11687" lon="-1.80693">
        <ele>98</ele>
        <time>2025-05-16T11:13:45Z</time>
      </trkpt>
      <trkpt lat="48.11684" lon="-1.80695">
        <ele>99</ele>
        <time>2025-05-16T11:13:46Z</time>
      </trkpt>
      <trkpt lat="48.1168" lon="-1.80696">
        <ele>98</ele>
        <time>2025-05-16T11:13:47Z</time>
      </trkpt>
      <trkpt lat="48.11677" lon="-1.80694">
        <ele>98</ele>
        <time>2025-05-16T11:13:48Z</time>
      </trkpt>
      <trkpt lat="48.11674" lon="-1.80691">
        <ele>98</ele>
        <time>2025-05-16T11:13:49Z</time>
      </trkpt>
      <trkpt lat="48.11671" lon="-1.80687">
        <ele>98</ele>
        <time>2025-05-16T11:13:50Z</time>
      </trkpt>
      <trkpt lat="48.11667" lon="-1.80686">
        <ele>98</ele>
        <time>2025-05-16T11:13:51Z</time>
      </trkpt>
      <trkpt lat="48.11663" lon="-1.80686">
        <ele>98</ele>
        <time>2025-05-16T11:13:52Z</time>
      </trkpt>
      <trkpt lat="48.11659" lon="-1.80686">
        <ele>98</ele>
        <time>2025-05-16T11:13:53Z</time>
      </trkpt>
      <trkpt lat="48.11655" lon="-1.80687">
        <ele>98</ele>
        <time>2025-05-16T11:13:54Z</time>
      </trkpt>
      <trkpt lat="48.1165" lon="-1.80688">
        <ele>98</ele>
        <time>2025-05-16T11:13:55Z</time>
      </trkpt>
      <trkpt lat="48.11645" lon="-1.80688">
        <ele>98</ele>
        <time>2025-05-16T11:13:56Z</time>
      </trkpt>
      <trkpt lat="48.11641" lon="-1.80689">
        <ele>98</ele>
        <time>2025-05-16T11:13:57Z</time>
      </trkpt>
      <trkpt lat="48.11636" lon="-1.8069">
        <ele>98</ele>
        <time>2025-05-16T11:13:58Z</time>
      </trkpt>
      <trkpt lat="48.11632" lon="-1.8069">
        <ele>98</ele>
        <time>2025-05-16T11:13:59Z</time>
      </trkpt>
      <trkpt lat="48.11627" lon="-1.80691">
        <ele>98</ele>
        <time>2025-05-16T11:14:00Z</time>
      </trkpt>
      <trkpt lat="48.11622" lon="-1.80691">
        <ele>98</ele>
        <time>2025-05-16T11:14:01Z</time>
      </trkpt>
      <trkpt lat="48.11618" lon="-1.80692">
        <ele>97</ele>
        <time>2025-05-16T11:14:02Z</time>
      </trkpt>
      <trkpt lat="48.11612" lon="-1.80693">
        <ele>97</ele>
        <time>2025-05-16T11:14:03Z</time>
      </trkpt>
      <trkpt lat="48.11607" lon="-1.80694">
        <ele>97</ele>
        <time>2025-05-16T11:14:04Z</time>
      </trkpt>
      <trkpt lat="48.11602" lon="-1.80695">
        <ele>97</ele>
        <time>2025-05-16T11:14:05Z</time>
      </trkpt>
      <trkpt lat="48.11598" lon="-1.80695">
        <ele>96</ele>
        <time>2025-05-16T11:14:06Z</time>
      </trkpt>
      <trkpt lat="48.11593" lon="-1.80696">
        <ele>97</ele>
        <time>2025-05-16T11:14:07Z</time>
      </trkpt>
      <trkpt lat="48.11588" lon="-1.80697">
        <ele>97</ele>
        <time>2025-05-16T11:14:08Z</time>
      </trkpt>
      <trkpt lat="48.11582" lon="-1.80697">
        <ele>97</ele>
        <time>2025-05-16T11:14:09Z</time>
      </trkpt>
      <trkpt lat="48.11578" lon="-1.80698">
        <ele>96</ele>
        <time>2025-05-16T11:14:10Z</time>
      </trkpt>
      <trkpt lat="48.11573" lon="-1.80698">
        <ele>96</ele>
        <time>2025-05-16T11:14:11Z</time>
      </trkpt>
      <trkpt lat="48.11568" lon="-1.80698">
        <ele>96</ele>
        <time>2025-05-16T11:14:12Z</time>
      </trkpt>
      <trkpt lat="48.11563" lon="-1.80699">
        <ele>97</ele>
        <time>2025-05-16T11:14:13Z</time>
      </trkpt>
      <trkpt lat="48.11557" lon="-1.807">
        <ele>97</ele>
        <time>2025-05-16T11:14:14Z</time>
      </trkpt>
      <trkpt lat="48.11552" lon="-1.807">
        <ele>97</ele>
        <time>2025-05-16T11:14:15Z</time>
      </trkpt>
      <trkpt lat="48.11547" lon="-1.80701">
        <ele>97</ele>
        <time>2025-05-16T11:14:16Z</time>
      </trkpt>
      <trkpt lat="48.11542" lon="-1.80701">
        <ele>97</ele>
        <time>2025-05-16T11:14:17Z</time>
      </trkpt>
      <trkpt lat="48.11537" lon="-1.80701">
        <ele>97</ele>
        <time>2025-05-16T11:14:18Z</time>
      </trkpt>
      <trkpt lat="48.11532" lon="-1.80701">
        <ele>96</ele>
        <time>2025-05-16T11:14:19Z</time>
      </trkpt>
      <trkpt lat="48.11526" lon="-1.80701">
        <ele>97</ele>
        <time>2025-05-16T11:14:20Z</time>
      </trkpt>
      <trkpt lat="48.11521" lon="-1.80702">
        <ele>97</ele>
        <time>2025-05-16T11:14:21Z</time>
      </trkpt>
      <trkpt lat="48.11516" lon="-1.80702">
        <ele>96</ele>
        <time>2025-05-16T11:14:22Z</time>
      </trkpt>
      <trkpt lat="48.1151" lon="-1.80702">
        <ele>97</ele>
        <time>2025-05-16T11:14:23Z</time>
      </trkpt>
      <trkpt lat="48.11505" lon="-1.80702">
        <ele>96</ele>
        <time>2025-05-16T11:14:24Z</time>
      </trkpt>
      <trkpt lat="48.11499" lon="-1.80703">
        <ele>97</ele>
        <time>2025-05-16T11:14:25Z</time>
      </trkpt>
      <trkpt lat="48.11494" lon="-1.80702">
        <ele>96</ele>
        <time>2025-05-16T11:14:26Z</time>
      </trkpt>
      <trkpt lat="48.11488" lon="-1.80702">
        <ele>96</ele>
        <time>2025-05-16T11:14:27Z</time>
      </trkpt>
      <trkpt lat="48.11483" lon="-1.80703">
        <ele>96</ele>
        <time>2025-05-16T11:14:28Z</time>
      </trkpt>
      <trkpt lat="48.11478" lon="-1.80703">
        <ele>96</ele>
        <time>2025-05-16T11:14:29Z</time>
      </trkpt>
      <trkpt lat="48.11472" lon="-1.80703">
        <ele>96</ele>
        <time>2025-05-16T11:14:30Z</time>
      </trkpt>
      <trkpt lat="48.11467" lon="-1.80702">
        <ele>96</ele>
        <time>2025-05-16T11:14:31Z</time>
      </trkpt>
      <trkpt lat="48.11461" lon="-1.80702">
        <ele>96</ele>
        <time>2025-05-16T11:14:32Z</time>
      </trkpt>
      <trkpt lat="48.11456" lon="-1.80702">
        <ele>96</ele>
        <time>2025-05-16T11:14:33Z</time>
      </trkpt>
      <trkpt lat="48.1145" lon="-1.80701">
        <ele>97</ele>
        <time>2025-05-16T11:14:34Z</time>
      </trkpt>
      <trkpt lat="48.11444" lon="-1.80701">
        <ele>97</ele>
        <time>2025-05-16T11:14:35Z</time>
      </trkpt>
      <trkpt lat="48.11439" lon="-1.807">
        <ele>97</ele>
        <time>2025-05-16T11:14:36Z</time>
      </trkpt>
      <trkpt lat="48.11433" lon="-1.807">
        <ele>96</ele>
        <time>2025-05-16T11:14:37Z</time>
      </trkpt>
      <trkpt lat="48.11428" lon="-1.80699">
        <ele>96</ele>
        <time>2025-05-16T11:14:38Z</time>
      </trkpt>
      <trkpt lat="48.11422" lon="-1.80698">
        <ele>96</ele>
        <time>2025-05-16T11:14:39Z</time>
      </trkpt>
      <trkpt lat="48.11417" lon="-1.80697">
        <ele>96</ele>
        <time>2025-05-16T11:14:40Z</time>
      </trkpt>
      <trkpt lat="48.11411" lon="-1.80696">
        <ele>96</ele>
        <time>2025-05-16T11:14:41Z</time>
      </trkpt>
      <trkpt lat="48.11406" lon="-1.80696">
        <ele>96</ele>
        <time>2025-05-16T11:14:42Z</time>
      </trkpt>
      <trkpt lat="48.114" lon="-1.80696">
        <ele>95</ele>
        <time>2025-05-16T11:14:43Z</time>
      </trkpt>
      <trkpt lat="48.11395" lon="-1.80695">
        <ele>95</ele>
        <time>2025-05-16T11:14:44Z</time>
      </trkpt>
      <trkpt lat="48.11389" lon="-1.80694">
        <ele>95</ele>
        <time>2025-05-16T11:14:45Z</time>
      </trkpt>
      <trkpt lat="48.11383" lon="-1.80693">
        <ele>95</ele>
        <time>2025-05-16T11:14:46Z</time>
      </trkpt>
      <trkpt lat="48.11378" lon="-1.80692">
        <ele>95</ele>
        <time>2025-05-16T11:14:47Z</time>
      </trkpt>
      <trkpt lat="48.11372" lon="-1.80691">
        <ele>95</ele>
        <time>2025-05-16T11:14:48Z</time>
      </trkpt>
      <trkpt lat="48.11366" lon="-1.8069">
        <ele>95</ele>
        <time>2025-05-16T11:14:49Z</time>
      </trkpt>
      <trkpt lat="48.11361" lon="-1.80689">
        <ele>95</ele>
        <time>2025-05-16T11:14:50Z</time>
      </trkpt>
      <trkpt lat="48.11355" lon="-1.80688">
        <ele>95</ele>
        <time>2025-05-16T11:14:51Z</time>
      </trkpt>
      <trkpt lat="48.11349" lon="-1.80687">
        <ele>94</ele>
        <time>2025-05-16T11:14:52Z</time>
      </trkpt>
      <trkpt lat="48.11343" lon="-1.80685">
        <ele>95</ele>
        <time>2025-05-16T11:14:53Z</time>
      </trkpt>
      <trkpt lat="48.11338" lon="-1.80683">
        <ele>95</ele>
        <time>2025-05-16T11:14:54Z</time>
      </trkpt>
      <trkpt lat="48.11332" lon="-1.80681">
        <ele>95</ele>
        <time>2025-05-16T11:14:55Z</time>
      </trkpt>
      <trkpt lat="48.11327" lon="-1.8068">
        <ele>95</ele>
        <time>2025-05-16T11:14:56Z</time>
      </trkpt>
      <trkpt lat="48.11321" lon="-1.80678">
        <ele>95</ele>
        <time>2025-05-16T11:14:57Z</time>
      </trkpt>
      <trkpt lat="48.11315" lon="-1.80676">
        <ele>95</ele>
        <time>2025-05-16T11:14:58Z</time>
      </trkpt>
      <trkpt lat="48.11309" lon="-1.80674">
        <ele>94</ele>
        <time>2025-05-16T11:14:59Z</time>
      </trkpt>
      <trkpt lat="48.11303" lon="-1.80672">
        <ele>95</ele>
        <time>2025-05-16T11:15:00Z</time>
      </trkpt>
      <trkpt lat="48.11298" lon="-1.80671">
        <ele>95</ele>
        <time>2025-05-16T11:15:01Z</time>
      </trkpt>
      <trkpt lat="48.11292" lon="-1.80669">
        <ele>95</ele>
        <time>2025-05-16T11:15:02Z</time>
      </trkpt>
      <trkpt lat="48.11287" lon="-1.80666">
        <ele>95</ele>
        <time>2025-05-16T11:15:03Z</time>
      </trkpt>
      <trkpt lat="48.11281" lon="-1.80664">
        <ele>95</ele>
        <time>2025-05-16T11:15:04Z</time>
      </trkpt>
      <trkpt lat="48.11275" lon="-1.80662">
        <ele>95</ele>
        <time>2025-05-16T11:15:05Z</time>
      </trkpt>
      <trkpt lat="48.1127" lon="-1.8066">
        <ele>95</ele>
        <time>2025-05-16T11:15:06Z</time>
      </trkpt>
      <trkpt lat="48.11264" lon="-1.80657">
        <ele>95</ele>
        <time>2025-05-16T11:15:07Z</time>
      </trkpt>
      <trkpt lat="48.11259" lon="-1.80655">
        <ele>95</ele>
        <time>2025-05-16T11:15:08Z</time>
      </trkpt>
      <trkpt lat="48.11254" lon="-1.80652">
        <ele>95</ele>
        <time>2025-05-16T11:15:09Z</time>
      </trkpt>
      <trkpt lat="48.11248" lon="-1.8065">
        <ele>94</ele>
        <time>2025-05-16T11:15:10Z</time>
      </trkpt>
      <trkpt lat="48.11243" lon="-1.80647">
        <ele>94</ele>
        <time>2025-05-16T11:15:11Z</time>
      </trkpt>
      <trkpt lat="48.11237" lon="-1.80645">
        <ele>94</ele>
        <time>2025-05-16T11:15:12Z</time>
      </trkpt>
      <trkpt lat="48.11233" lon="-1.80643">
        <ele>93</ele>
        <time>2025-05-16T11:15:13Z</time>
      </trkpt>
      <trkpt lat="48.11228" lon="-1.8064">
        <ele>93</ele>
        <time>2025-05-16T11:15:14Z</time>
      </trkpt>
      <trkpt lat="48.11223" lon="-1.80637">
        <ele>93</ele>
        <time>2025-05-16T11:15:15Z</time>
      </trkpt>
      <trkpt lat="48.11218" lon="-1.80635">
        <ele>93</ele>
        <time>2025-05-16T11:15:16Z</time>
      </trkpt>
      <trkpt lat="48.11213" lon="-1.80632">
        <ele>93</ele>
        <time>2025-05-16T11:15:17Z</time>
      </trkpt>
      <trkpt lat="48.11208" lon="-1.80629">
        <ele>92</ele>
        <time>2025-05-16T11:15:18Z</time>
      </trkpt>
      <trkpt lat="48.11203" lon="-1.80626">
        <ele>92</ele>
        <time>2025-05-16T11:15:19Z</time>
      </trkpt>
      <trkpt lat="48.11198" lon="-1.80623">
        <ele>92</ele>
        <time>2025-05-16T11:15:20Z</time>
      </trkpt>
      <trkpt lat="48.11193" lon="-1.8062">
        <ele>92</ele>
        <time>2025-05-16T11:15:21Z</time>
      </trkpt>
      <trkpt lat="48.11189" lon="-1.80617">
        <ele>93</ele>
        <time>2025-05-16T11:15:22Z</time>
      </trkpt>
      <trkpt lat="48.11184" lon="-1.80614">
        <ele>92</ele>
        <time>2025-05-16T11:15:23Z</time>
      </trkpt>
      <trkpt lat="48.11179" lon="-1.80611">
        <ele>92</ele>
        <time>2025-05-16T11:15:24Z</time>
      </trkpt>
      <trkpt lat="48.11175" lon="-1.80607">
        <ele>93</ele>
        <time>2025-05-16T11:15:25Z</time>
      </trkpt>
      <trkpt lat="48.1117" lon="-1.80604">
        <ele>92</ele>
        <time>2025-05-16T11:15:26Z</time>
      </trkpt>
      <trkpt lat="48.11166" lon="-1.80601">
        <ele>92</ele>
        <time>2025-05-16T11:15:27Z</time>
      </trkpt>
      <trkpt lat="48.11162" lon="-1.80598">
        <ele>92</ele>
        <time>2025-05-16T11:15:28Z</time>
      </trkpt>
      <trkpt lat="48.11157" lon="-1.80596">
        <ele>92</ele>
        <time>2025-05-16T11:15:29Z</time>
      </trkpt>
      <trkpt lat="48.11153" lon="-1.80596">
        <ele>93</ele>
        <time>2025-05-16T11:15:30Z</time>
      </trkpt>
      <trkpt lat="48.1115" lon="-1.80598">
        <ele>93</ele>
        <time>2025-05-16T11:15:31Z</time>
      </trkpt>
      <trkpt lat="48.11147" lon="-1.80602">
        <ele>93</ele>
        <time>2025-05-16T11:15:32Z</time>
      </trkpt>
      <trkpt lat="48.11143" lon="-1.80604">
        <ele>93</ele>
        <time>2025-05-16T11:15:33Z</time>
      </trkpt>
      <trkpt lat="48.11139" lon="-1.80604">
        <ele>93</ele>
        <time>2025-05-16T11:15:34Z</time>
      </trkpt>
      <trkpt lat="48.11136" lon="-1.80601">
        <ele>93</ele>
        <time>2025-05-16T11:15:35Z</time>
      </trkpt>
      <trkpt lat="48.11133" lon="-1.80596">
        <ele>93</ele>
        <time>2025-05-16T11:15:36Z</time>
      </trkpt>
      <trkpt lat="48.11131" lon="-1.8059">
        <ele>93</ele>
        <time>2025-05-16T11:15:37Z</time>
      </trkpt>
      <trkpt lat="48.11128" lon="-1.80586">
        <ele>93</ele>
        <time>2025-05-16T11:15:38Z</time>
      </trkpt>
      <trkpt lat="48.11125" lon="-1.80582">
        <ele>92</ele>
        <time>2025-05-16T11:15:39Z</time>
      </trkpt>
      <trkpt lat="48.11123" lon="-1.80577">
        <ele>92</ele>
        <time>2025-05-16T11:15:40Z</time>
      </trkpt>
      <trkpt lat="48.1112" lon="-1.80573">
        <ele>92</ele>
        <time>2025-05-16T11:15:41Z</time>
      </trkpt>
      <trkpt lat="48.11118" lon="-1.80569">
        <ele>92</ele>
        <time>2025-05-16T11:15:42Z</time>
      </trkpt>
      <trkpt lat="48.11115" lon="-1.80566">
        <ele>92</ele>
        <time>2025-05-16T11:15:43Z</time>
      </trkpt>
      <trkpt lat="48.11111" lon="-1.80563">
        <ele>92</ele>
        <time>2025-05-16T11:15:44Z</time>
      </trkpt>
      <trkpt lat="48.11108" lon="-1.80561">
        <ele>92</ele>
        <time>2025-05-16T11:15:45Z</time>
      </trkpt>
      <trkpt lat="48.11104" lon="-1.80558">
        <ele>92</ele>
        <time>2025-05-16T11:15:46Z</time>
      </trkpt>
      <trkpt lat="48.111" lon="-1.80556">
        <ele>92</ele>
        <time>2025-05-16T11:15:47Z</time>
      </trkpt>
      <trkpt lat="48.11096" lon="-1.80554">
        <ele>92</ele>
        <time>2025-05-16T11:15:48Z</time>
      </trkpt>
      <trkpt lat="48.11092" lon="-1.80552">
        <ele>92</ele>
        <time>2025-05-16T11:15:49Z</time>
      </trkpt>
      <trkpt lat="48.11088" lon="-1.80553">
        <ele>92</ele>
        <time>2025-05-16T11:15:50Z</time>
      </trkpt>
      <trkpt lat="48.11084" lon="-1.80556">
        <ele>92</ele>
        <time>2025-05-16T11:15:51Z</time>
      </trkpt>
      <trkpt lat="48.1108" lon="-1.80558">
        <ele>92</ele>
        <time>2025-05-16T11:15:52Z</time>
      </trkpt>
      <trkpt lat="48.11077" lon="-1.80558">
        <ele>92</ele>
        <time>2025-05-16T11:15:53Z</time>
      </trkpt>
      <trkpt lat="48.11073" lon="-1.80556">
        <ele>92</ele>
        <time>2025-05-16T11:15:54Z</time>
      </trkpt>
      <trkpt lat="48.11069" lon="-1.80553">
        <ele>93</ele>
        <time>2025-05-16T11:15:55Z</time>
      </trkpt>
      <trkpt lat="48.11066" lon="-1.80549">
        <ele>93</ele>
        <time>2025-05-16T11:15:56Z</time>
      </trkpt>
      <trkpt lat="48.11064" lon="-1.80543">
        <ele>93</ele>
        <time>2025-05-16T11:15:57Z</time>
      </trkpt>
      <trkpt lat="48.11063" lon="-1.80537">
        <ele>93</ele>
        <time>2025-05-16T11:15:58Z</time>
      </trkpt>
      <trkpt lat="48.11062" lon="-1.80531">
        <ele>93</ele>
        <time>2025-05-16T11:15:59Z</time>
      </trkpt>
      <trkpt lat="48.11061" lon="-1.80525">
        <ele>93</ele>
        <time>2025-05-16T11:16:00Z</time>
      </trkpt>
      <trkpt lat="48.1106" lon="-1.8052">
        <ele>93</ele>
        <time>2025-05-16T11:16:01Z</time>
      </trkpt>
      <trkpt lat="48.11059" lon="-1.80514">
        <ele>93</ele>
        <time>2025-05-16T11:16:02Z</time>
      </trkpt>
      <trkpt lat="48.11056" lon="-1.80509">
        <ele>93</ele>
        <time>2025-05-16T11:16:03Z</time>
      </trkpt>
      <trkpt lat="48.11053" lon="-1.80504">
        <ele>93</ele>
        <time>2025-05-16T11:16:04Z</time>
      </trkpt>
      <trkpt lat="48.1105" lon="-1.805">
        <ele>93</ele>
        <time>2025-05-16T11:16:05Z</time>
      </trkpt>
      <trkpt lat="48.11047" lon="-1.80496">
        <ele>92</ele>
        <time>2025-05-16T11:16:06Z</time>
      </trkpt>
      <trkpt lat="48.11044" lon="-1.80491">
        <ele>92</ele>
        <time>2025-05-16T11:16:07Z</time>
      </trkpt>
      <trkpt lat="48.11041" lon="-1.80486">
        <ele>92</ele>
        <time>2025-05-16T11:16:08Z</time>
      </trkpt>
      <trkpt lat="48.11038" lon="-1.80481">
        <ele>92</ele>
        <time>2025-05-16T11:16:09Z</time>
      </trkpt>
      <trkpt lat="48.11035" lon="-1.80476">
        <ele>91</ele>
        <time>2025-05-16T11:16:10Z</time>
      </trkpt>
      <trkpt lat="48.11031" lon="-1.80471">
        <ele>91</ele>
        <time>2025-05-16T11:16:11Z</time>
      </trkpt>
      <trkpt lat="48.11027" lon="-1.80467">
        <ele>92</ele>
        <time>2025-05-16T11:16:12Z</time>
      </trkpt>
      <trkpt lat="48.11023" lon="-1.80462">
        <ele>92</ele>
        <time>2025-05-16T11:16:13Z</time>
      </trkpt>
      <trkpt lat="48.11019" lon="-1.80457">
        <ele>92</ele>
        <time>2025-05-16T11:16:14Z</time>
      </trkpt>
      <trkpt lat="48.11015" lon="-1.80452">
        <ele>92</ele>
        <time>2025-05-16T11:16:15Z</time>
      </trkpt>
      <trkpt lat="48.11012" lon="-1.80447">
        <ele>92</ele>
        <time>2025-05-16T11:16:16Z</time>
      </trkpt>
      <trkpt lat="48.11008" lon="-1.80441">
        <ele>92</ele>
        <time>2025-05-16T11:16:17Z</time>
      </trkpt>
      <trkpt lat="48.11005" lon="-1.80436">
        <ele>92</ele>
        <time>2025-05-16T11:16:18Z</time>
      </trkpt>
      <trkpt lat="48.11001" lon="-1.8043">
        <ele>91</ele>
        <time>2025-05-16T11:16:19Z</time>
      </trkpt>
      <trkpt lat="48.10998" lon="-1.80425">
        <ele>91</ele>
        <time>2025-05-16T11:16:20Z</time>
      </trkpt>
      <trkpt lat="48.10994" lon="-1.8042">
        <ele>91</ele>
        <time>2025-05-16T11:16:21Z</time>
      </trkpt>
      <trkpt lat="48.1099" lon="-1.80414">
        <ele>91</ele>
        <time>2025-05-16T11:16:22Z</time>
      </trkpt>
      <trkpt lat="48.10987" lon="-1.80408">
        <ele>91</ele>
        <time>2025-05-16T11:16:23Z</time>
      </trkpt>
      <trkpt lat="48.10983" lon="-1.80403">
        <ele>91</ele>
        <time>2025-05-16T11:16:24Z</time>
      </trkpt>
      <trkpt lat="48.1098" lon="-1.80397">
        <ele>91</ele>
        <time>2025-05-16T11:16:25Z</time>
      </trkpt>
      <trkpt lat="48.10976" lon="-1.80392">
        <ele>91</ele>
        <time>2025-05-16T11:16:26Z</time>
      </trkpt>
      <trkpt lat="48.10972" lon="-1.80386">
        <ele>92</ele>
        <time>2025-05-16T11:16:27Z</time>
      </trkpt>
      <trkpt lat="48.10969" lon="-1.8038">
        <ele>92</ele>
        <time>2025-05-16T11:16:28Z</time>
      </trkpt>
      <trkpt lat="48.10965" lon="-1.80374">
        <ele>92</ele>
        <time>2025-05-16T11:16:29Z</time>
      </trkpt>
      <trkpt lat="48.10962" lon="-1.80368">
        <ele>92</ele>
        <time>2025-05-16T11:16:30Z</time>
      </trkpt>
      <trkpt lat="48.10959" lon="-1.80362">
        <ele>92</ele>
        <time>2025-05-16T11:16:31Z</time>
      </trkpt>
      <trkpt lat="48.10955" lon="-1.80356">
        <ele>92</ele>
        <time>2025-05-16T11:16:32Z</time>
      </trkpt>
      <trkpt lat="48.10952" lon="-1.80349">
        <ele>92</ele>
        <time>2025-05-16T11:16:33Z</time>
      </trkpt>
      <trkpt lat="48.10948" lon="-1.80343">
        <ele>92</ele>
        <time>2025-05-16T11:16:34Z</time>
      </trkpt>
      <trkpt lat="48.10945" lon="-1.80336">
        <ele>92</ele>
        <time>2025-05-16T11:16:35Z</time>
      </trkpt>
      <trkpt lat="48.10942" lon="-1.8033">
        <ele>91</ele>
        <time>2025-05-16T11:16:36Z</time>
      </trkpt>
      <trkpt lat="48.10939" lon="-1.80324">
        <ele>91</ele>
        <time>2025-05-16T11:16:37Z</time>
      </trkpt>
      <trkpt lat="48.10935" lon="-1.80319">
        <ele>91</ele>
        <time>2025-05-16T11:16:38Z</time>
      </trkpt>
      <trkpt lat="48.10932" lon="-1.80312">
        <ele>90</ele>
        <time>2025-05-16T11:16:39Z</time>
      </trkpt>
      <trkpt lat="48.10929" lon="-1.80306">
        <ele>89</ele>
        <time>2025-05-16T11:16:40Z</time>
      </trkpt>
      <trkpt lat="48.10925" lon="-1.803">
        <ele>89</ele>
        <time>2025-05-16T11:16:41Z</time>
      </trkpt>
      <trkpt lat="48.10922" lon="-1.80294">
        <ele>90</ele>
        <time>2025-05-16T11:16:42Z</time>
      </trkpt>
      <trkpt lat="48.10919" lon="-1.80287">
        <ele>89</ele>
        <time>2025-05-16T11:16:43Z</time>
      </trkpt>
      <trkpt lat="48.10916" lon="-1.80279">
        <ele>89</ele>
        <time>2025-05-16T11:16:44Z</time>
      </trkpt>
      <trkpt lat="48.10914" lon="-1.80272">
        <ele>89</ele>
        <time>2025-05-16T11:16:45Z</time>
      </trkpt>
      <trkpt lat="48.1091" lon="-1.80265">
        <ele>89</ele>
        <time>2025-05-16T11:16:46Z</time>
      </trkpt>
      <trkpt lat="48.10908" lon="-1.80258">
        <ele>89</ele>
        <time>2025-05-16T11:16:47Z</time>
      </trkpt>
      <trkpt lat="48.10905" lon="-1.80252">
        <ele>89</ele>
        <time>2025-05-16T11:16:48Z</time>
      </trkpt>
      <trkpt lat="48.10902" lon="-1.80245">
        <ele>90</ele>
        <time>2025-05-16T11:16:49Z</time>
      </trkpt>
      <trkpt lat="48.109" lon="-1.80238">
        <ele>90</ele>
        <time>2025-05-16T11:16:50Z</time>
      </trkpt>
      <trkpt lat="48.10897" lon="-1.80231">
        <ele>90</ele>
        <time>2025-05-16T11:16:51Z</time>
      </trkpt>
      <trkpt lat="48.10894" lon="-1.80223">
        <ele>90</ele>
        <time>2025-05-16T11:16:52Z</time>
      </trkpt>
      <trkpt lat="48.10892" lon="-1.80217">
        <ele>90</ele>
        <time>2025-05-16T11:16:53Z</time>
      </trkpt>
      <trkpt lat="48.10889" lon="-1.80209">
        <ele>89</ele>
        <time>2025-05-16T11:16:54Z</time>
      </trkpt>
      <trkpt lat="48.10886" lon="-1.80202">
        <ele>89</ele>
        <time>2025-05-16T11:16:55Z</time>
      </trkpt>
      <trkpt lat="48.10883" lon="-1.80195">
        <ele>89</ele>
        <time>2025-05-16T11:16:56Z</time>
      </trkpt>
      <trkpt lat="48.1088" lon="-1.80188">
        <ele>89</ele>
        <time>2025-05-16T11:16:57Z</time>
      </trkpt>
      <trkpt lat="48.10878" lon="-1.8018">
        <ele>88</ele>
        <time>2025-05-16T11:16:58Z</time>
      </trkpt>
      <trkpt lat="48.10875" lon="-1.80173">
        <ele>89</ele>
        <time>2025-05-16T11:16:59Z</time>
      </trkpt>
      <trkpt lat="48.10873" lon="-1.80166">
        <ele>89</ele>
        <time>2025-05-16T11:17:00Z</time>
      </trkpt>
      <trkpt lat="48.1087" lon="-1.80159">
        <ele>89</ele>
        <time>2025-05-16T11:17:01Z</time>
      </trkpt>
      <trkpt lat="48.10867" lon="-1.80152">
        <ele>89</ele>
        <time>2025-05-16T11:17:02Z</time>
      </trkpt>
      <trkpt lat="48.10865" lon="-1.80145">
        <ele>89</ele>
        <time>2025-05-16T11:17:03Z</time>
      </trkpt>
      <trkpt lat="48.10862" lon="-1.80138">
        <ele>89</ele>
        <time>2025-05-16T11:17:04Z</time>
      </trkpt>
      <trkpt lat="48.10859" lon="-1.80131">
        <ele>89</ele>
        <time>2025-05-16T11:17:05Z</time>
      </trkpt>
      <trkpt lat="48.10856" lon="-1.80124">
        <ele>89</ele>
        <time>2025-05-16T11:17:06Z</time>
      </trkpt>
      <trkpt lat="48.10853" lon="-1.80117">
        <ele>89</ele>
        <time>2025-05-16T11:17:07Z</time>
      </trkpt>
      <trkpt lat="48.10851" lon="-1.8011">
        <ele>89</ele>
        <time>2025-05-16T11:17:08Z</time>
      </trkpt>
      <trkpt lat="48.10848" lon="-1.80103">
        <ele>89</ele>
        <time>2025-05-16T11:17:09Z</time>
      </trkpt>
      <trkpt lat="48.10845" lon="-1.80095">
        <ele>89</ele>
        <time>2025-05-16T11:17:10Z</time>
      </trkpt>
      <trkpt lat="48.10842" lon="-1.80088">
        <ele>89</ele>
        <time>2025-05-16T11:17:11Z</time>
      </trkpt>
      <trkpt lat="48.10839" lon="-1.80081">
        <ele>88</ele>
        <time>2025-05-16T11:17:12Z</time>
      </trkpt>
      <trkpt lat="48.10836" lon="-1.80073">
        <ele>88</ele>
        <time>2025-05-16T11:17:13Z</time>
      </trkpt>
      <trkpt lat="48.10834" lon="-1.80066">
        <ele>88</ele>
        <time>2025-05-16T11:17:14Z</time>
      </trkpt>
      <trkpt lat="48.10831" lon="-1.80059">
        <ele>88</ele>
        <time>2025-05-16T11:17:15Z</time>
      </trkpt>
      <trkpt lat="48.10828" lon="-1.80052">
        <ele>88</ele>
        <time>2025-05-16T11:17:16Z</time>
      </trkpt>
      <trkpt lat="48.10825" lon="-1.80046">
        <ele>87</ele>
        <time>2025-05-16T11:17:17Z</time>
      </trkpt>
      <trkpt lat="48.10821" lon="-1.80041">
        <ele>88</ele>
        <time>2025-05-16T11:17:18Z</time>
      </trkpt>
      <trkpt lat="48.10817" lon="-1.80035">
        <ele>87</ele>
        <time>2025-05-16T11:17:19Z</time>
      </trkpt>
      <trkpt lat="48.10814" lon="-1.80028">
        <ele>87</ele>
        <time>2025-05-16T11:17:20Z</time>
      </trkpt>
      <trkpt lat="48.10811" lon="-1.8002">
        <ele>87</ele>
        <time>2025-05-16T11:17:21Z</time>
      </trkpt>
      <trkpt lat="48.10808" lon="-1.80012">
        <ele>86</ele>
        <time>2025-05-16T11:17:22Z</time>
      </trkpt>
      <trkpt lat="48.10806" lon="-1.80005">
        <ele>85</ele>
        <time>2025-05-16T11:17:23Z</time>
      </trkpt>
      <trkpt lat="48.10803" lon="-1.79997">
        <ele>85</ele>
        <time>2025-05-16T11:17:24Z</time>
      </trkpt>
      <trkpt lat="48.108" lon="-1.7999">
        <ele>85</ele>
        <time>2025-05-16T11:17:25Z</time>
      </trkpt>
      <trkpt lat="48.10798" lon="-1.79984">
        <ele>85</ele>
        <time>2025-05-16T11:17:26Z</time>
      </trkpt>
      <trkpt lat="48.10795" lon="-1.79977">
        <ele>85</ele>
        <time>2025-05-16T11:17:27Z</time>
      </trkpt>
      <trkpt lat="48.10792" lon="-1.79971">
        <ele>85</ele>
        <time>2025-05-16T11:17:28Z</time>
      </trkpt>
      <trkpt lat="48.1079" lon="-1.79964">
        <ele>85</ele>
        <time>2025-05-16T11:17:29Z</time>
      </trkpt>
      <trkpt lat="48.10787" lon="-1.79957">
        <ele>85</ele>
        <time>2025-05-16T11:17:30Z</time>
      </trkpt>
      <trkpt lat="48.10785" lon="-1.7995">
        <ele>85</ele>
        <time>2025-05-16T11:17:31Z</time>
      </trkpt>
      <trkpt lat="48.10782" lon="-1.79944">
        <ele>85</ele>
        <time>2025-05-16T11:17:32Z</time>
      </trkpt>
      <trkpt lat="48.10779" lon="-1.79937">
        <ele>85</ele>
        <time>2025-05-16T11:17:33Z</time>
      </trkpt>
      <trkpt lat="48.10777" lon="-1.7993">
        <ele>85</ele>
        <time>2025-05-16T11:17:34Z</time>
      </trkpt>
      <trkpt lat="48.10774" lon="-1.79923">
        <ele>84</ele>
        <time>2025-05-16T11:17:35Z</time>
      </trkpt>
      <trkpt lat="48.10771" lon="-1.79916">
        <ele>84</ele>
        <time>2025-05-16T11:17:36Z</time>
      </trkpt>
      <trkpt lat="48.10769" lon="-1.79908">
        <ele>84</ele>
        <time>2025-05-16T11:17:37Z</time>
      </trkpt>
      <trkpt lat="48.10766" lon="-1.79901">
        <ele>84</ele>
        <time>2025-05-16T11:17:38Z</time>
      </trkpt>
      <trkpt lat="48.10764" lon="-1.79894">
        <ele>84</ele>
        <time>2025-05-16T11:17:39Z</time>
      </trkpt>
      <trkpt lat="48.10761" lon="-1.79887">
        <ele>84</ele>
        <time>2025-05-16T11:17:40Z</time>
      </trkpt>
      <trkpt lat="48.10758" lon="-1.7988">
        <ele>84</ele>
        <time>2025-05-16T11:17:41Z</time>
      </trkpt>
      <trkpt lat="48.10755" lon="-1.79873">
        <ele>84</ele>
        <time>2025-05-16T11:17:42Z</time>
      </trkpt>
      <trkpt lat="48.10753" lon="-1.79866">
        <ele>84</ele>
        <time>2025-05-16T11:17:43Z</time>
      </trkpt>
      <trkpt lat="48.1075" lon="-1.79859">
        <ele>84</ele>
        <time>2025-05-16T11:17:44Z</time>
      </trkpt>
      <trkpt lat="48.10747" lon="-1.79852">
        <ele>84</ele>
        <time>2025-05-16T11:17:45Z</time>
      </trkpt>
      <trkpt lat="48.10745" lon="-1.79845">
        <ele>84</ele>
        <time>2025-05-16T11:17:46Z</time>
      </trkpt>
      <trkpt lat="48.10742" lon="-1.79839">
        <ele>84</ele>
        <time>2025-05-16T11:17:47Z</time>
      </trkpt>
      <trkpt lat="48.10738" lon="-1.79834">
        <ele>84</ele>
        <time>2025-05-16T11:17:48Z</time>
      </trkpt>
      <trkpt lat="48.10735" lon="-1.79829">
        <ele>84</ele>
        <time>2025-05-16T11:17:49Z</time>
      </trkpt>
      <trkpt lat="48.10733" lon="-1.79823">
        <ele>84</ele>
        <time>2025-05-16T11:17:50Z</time>
      </trkpt>
      <trkpt lat="48.10729" lon="-1.79817">
        <ele>84</ele>
        <time>2025-05-16T11:17:51Z</time>
      </trkpt>
      <trkpt lat="48.10727" lon="-1.7981">
        <ele>84</ele>
        <time>2025-05-16T11:17:52Z</time>
      </trkpt>
      <trkpt lat="48.10724" lon="-1.79804">
        <ele>84</ele>
        <time>2025-05-16T11:17:53Z</time>
      </trkpt>
      <trkpt lat="48.10722" lon="-1.79798">
        <ele>84</ele>
        <time>2025-05-16T11:17:54Z</time>
      </trkpt>
      <trkpt lat="48.1072" lon="-1.79791">
        <ele>84</ele>
        <time>2025-05-16T11:17:55Z</time>
      </trkpt>
      <trkpt lat="48.10717" lon="-1.79785">
        <ele>84</ele>
        <time>2025-05-16T11:17:56Z</time>
      </trkpt>
      <trkpt lat="48.10715" lon="-1.79779">
        <ele>83</ele>
        <time>2025-05-16T11:17:57Z</time>
      </trkpt>
      <trkpt lat="48.10713" lon="-1.79773">
        <ele>83</ele>
        <time>2025-05-16T11:17:58Z</time>
      </trkpt>
      <trkpt lat="48.1071" lon="-1.79766">
        <ele>84</ele>
        <time>2025-05-16T11:17:59Z</time>
      </trkpt>
      <trkpt lat="48.10707" lon="-1.7976">
        <ele>84</ele>
        <time>2025-05-16T11:18:00Z</time>
      </trkpt>
      <trkpt lat="48.10705" lon="-1.79754">
        <ele>84</ele>
        <time>2025-05-16T11:18:01Z</time>
      </trkpt>
      <trkpt lat="48.10703" lon="-1.79748">
        <ele>84</ele>
        <time>2025-05-16T11:18:02Z</time>
      </trkpt>
      <trkpt lat="48.107" lon="-1.79741">
        <ele>84</ele>
        <time>2025-05-16T11:18:03Z</time>
      </trkpt>
      <trkpt lat="48.10698" lon="-1.79733">
        <ele>84</ele>
        <time>2025-05-16T11:18:04Z</time>
      </trkpt>
      <trkpt lat="48.10696" lon="-1.79726">
        <ele>84</ele>
        <time>2025-05-16T11:18:05Z</time>
      </trkpt>
      <trkpt lat="48.10694" lon="-1.79718">
        <ele>84</ele>
        <time>2025-05-16T11:18:06Z</time>
      </trkpt>
      <trkpt lat="48.10693" lon="-1.79711">
        <ele>84</ele>
        <time>2025-05-16T11:18:07Z</time>
      </trkpt>
      <trkpt lat="48.10691" lon="-1.79705">
        <ele>85</ele>
        <time>2025-05-16T11:18:08Z</time>
      </trkpt>
      <trkpt lat="48.10689" lon="-1.79699">
        <ele>85</ele>
        <time>2025-05-16T11:18:09Z</time>
      </trkpt>
      <trkpt lat="48.10687" lon="-1.79693">
        <ele>84</ele>
        <time>2025-05-16T11:18:10Z</time>
      </trkpt>
      <trkpt lat="48.10685" lon="-1.79686">
        <ele>84</ele>
        <time>2025-05-16T11:18:11Z</time>
      </trkpt>
      <trkpt lat="48.10683" lon="-1.7968">
        <ele>83</ele>
        <time>2025-05-16T11:18:12Z</time>
      </trkpt>
      <trkpt lat="48.10681" lon="-1.79673">
        <ele>83</ele>
        <time>2025-05-16T11:18:13Z</time>
      </trkpt>
      <trkpt lat="48.10678" lon="-1.79667">
        <ele>83</ele>
        <time>2025-05-16T11:18:14Z</time>
      </trkpt>
      <trkpt lat="48.10675" lon="-1.79662">
        <ele>83</ele>
        <time>2025-05-16T11:18:15Z</time>
      </trkpt>
      <trkpt lat="48.10673" lon="-1.79656">
        <ele>84</ele>
        <time>2025-05-16T11:18:16Z</time>
      </trkpt>
      <trkpt lat="48.1067" lon="-1.7965">
        <ele>84</ele>
        <time>2025-05-16T11:18:17Z</time>
      </trkpt>
      <trkpt lat="48.10668" lon="-1.79644">
        <ele>84</ele>
        <time>2025-05-16T11:18:18Z</time>
      </trkpt>
      <trkpt lat="48.10667" lon="-1.79639">
        <ele>84</ele>
        <time>2025-05-16T11:18:19Z</time>
      </trkpt>
      <trkpt lat="48.10664" lon="-1.79634">
        <ele>84</ele>
        <time>2025-05-16T11:18:20Z</time>
      </trkpt>
      <trkpt lat="48.10663" lon="-1.79628">
        <ele>84</ele>
        <time>2025-05-16T11:18:21Z</time>
      </trkpt>
      <trkpt lat="48.10661" lon="-1.79623">
        <ele>83</ele>
        <time>2025-05-16T11:18:22Z</time>
      </trkpt>
      <trkpt lat="48.10659" lon="-1.79618">
        <ele>83</ele>
        <time>2025-05-16T11:18:23Z</time>
      </trkpt>
      <trkpt lat="48.10657" lon="-1.79613">
        <ele>83</ele>
        <time>2025-05-16T11:18:24Z</time>
      </trkpt>
      <trkpt lat="48.10655" lon="-1.79608">
        <ele>83</ele>
        <time>2025-05-16T11:18:25Z</time>
      </trkpt>
      <trkpt lat="48.10653" lon="-1.79602">
        <ele>83</ele>
        <time>2025-05-16T11:18:26Z</time>
      </trkpt>
      <trkpt lat="48.1065" lon="-1.79597">
        <ele>84</ele>
        <time>2025-05-16T11:18:27Z</time>
      </trkpt>
      <trkpt lat="48.10648" lon="-1.79592">
        <ele>84</ele>
        <time>2025-05-16T11:18:28Z</time>
      </trkpt>
      <trkpt lat="48.10647" lon="-1.79587">
        <ele>84</ele>
        <time>2025-05-16T11:18:29Z</time>
      </trkpt>
      <trkpt lat="48.10645" lon="-1.79582">
        <ele>84</ele>
        <time>2025-05-16T11:18:30Z</time>
      </trkpt>
      <trkpt lat="48.10643" lon="-1.79577">
        <ele>84</ele>
        <time>2025-05-16T11:18:31Z</time>
      </trkpt>
      <trkpt lat="48.10642" lon="-1.79572">
        <ele>84</ele>
        <time>2025-05-16T11:18:32Z</time>
      </trkpt>
      <trkpt lat="48.1064" lon="-1.79567">
        <ele>84</ele>
        <time>2025-05-16T11:18:33Z</time>
      </trkpt>
      <trkpt lat="48.10637" lon="-1.79563">
        <ele>83</ele>
        <time>2025-05-16T11:18:34Z</time>
      </trkpt>
      <trkpt lat="48.10635" lon="-1.79559">
        <ele>84</ele>
        <time>2025-05-16T11:18:35Z</time>
      </trkpt>
      <trkpt lat="48.10633" lon="-1.79554">
        <ele>83</ele>
        <time>2025-05-16T11:18:36Z</time>
      </trkpt>
      <trkpt lat="48.10631" lon="-1.79549">
        <ele>83</ele>
        <time>2025-05-16T11:18:37Z</time>
      </trkpt>
      <trkpt lat="48.10629" lon="-1.79544">
        <ele>83</ele>
        <time>2025-05-16T11:18:38Z</time>
      </trkpt>
      <trkpt lat="48.10627" lon="-1.79538">
        <ele>83</ele>
        <time>2025-05-16T11:18:39Z</time>
      </trkpt>
      <trkpt lat="48.10625" lon="-1.79533">
        <ele>82</ele>
        <time>2025-05-16T11:18:40Z</time>
      </trkpt>
      <trkpt lat="48.10623" lon="-1.79528">
        <ele>82</ele>
        <time>2025-05-16T11:18:41Z</time>
      </trkpt>
      <trkpt lat="48.10621" lon="-1.79522">
        <ele>82</ele>
        <time>2025-05-16T11:18:42Z</time>
      </trkpt>
      <trkpt lat="48.10619" lon="-1.79518">
        <ele>82</ele>
        <time>2025-05-16T11:18:43Z</time>
      </trkpt>
      <trkpt lat="48.10617" lon="-1.79513">
        <ele>82</ele>
        <time>2025-05-16T11:18:44Z</time>
      </trkpt>
      <trkpt lat="48.10615" lon="-1.79508">
        <ele>82</ele>
        <time>2025-05-16T11:18:45Z</time>
      </trkpt>
      <trkpt lat="48.10614" lon="-1.79504">
        <ele>83</ele>
        <time>2025-05-16T11:18:46Z</time>
      </trkpt>
      <trkpt lat="48.10612" lon="-1.79499">
        <ele>83</ele>
        <time>2025-05-16T11:18:47Z</time>
      </trkpt>
      <trkpt lat="48.1061" lon="-1.79494">
        <ele>83</ele>
        <time>2025-05-16T11:18:48Z</time>
      </trkpt>
      <trkpt lat="48.10609" lon="-1.79489">
        <ele>83</ele>
        <time>2025-05-16T11:18:49Z</time>
      </trkpt>
      <trkpt lat="48.10607" lon="-1.79484">
        <ele>83</ele>
        <time>2025-05-16T11:18:50Z</time>
      </trkpt>
      <trkpt lat="48.10605" lon="-1.79479">
        <ele>83</ele>
        <time>2025-05-16T11:18:51Z</time>
      </trkpt>
      <trkpt lat="48.10604" lon="-1.79475">
        <ele>84</ele>
        <time>2025-05-16T11:18:52Z</time>
      </trkpt>
      <trkpt lat="48.10603" lon="-1.79473">
        <ele>84</ele>
        <time>2025-05-16T11:18:53Z</time>
      </trkpt>
      <trkpt lat="48.10602" lon="-1.7947">
        <ele>84</ele>
        <time>2025-05-16T11:18:54Z</time>
      </trkpt>
      <trkpt lat="48.10602" lon="-1.79468">
        <ele>83</ele>
        <time>2025-05-16T11:18:55Z</time>
      </trkpt>
      <trkpt lat="48.10602" lon="-1.79467">
        <ele>83</ele>
        <time>2025-05-16T11:18:56Z</time>
      </trkpt>
      <trkpt lat="48.10602" lon="-1.79467">
        <ele>83</ele>
        <time>2025-05-16T11:18:57Z</time>
      </trkpt>
      <trkpt lat="48.10602" lon="-1.79467">
        <ele>83</ele>
        <time>2025-05-16T11:18:58Z</time>
      </trkpt>
      <trkpt lat="48.10602" lon="-1.79467">
        <ele>83</ele>
        <time>2025-05-16T11:18:59Z</time>
      </trkpt>
      <trkpt lat="48.10602" lon="-1.79467">
        <ele>83</ele>
        <time>2025-05-16T11:19:00Z</time>
      </trkpt>
      <trkpt lat="48.10602" lon="-1.79467">
        <ele>83</ele>
        <time>2025-05-16T11:19:01Z</time>
      </trkpt>
      <trkpt lat="48.10602" lon="-1.79467">
        <ele>83</ele>
        <time>2025-05-16T11:19:02Z</time>
      </trkpt>
      <trkpt lat="48.10602" lon="-1.79467">
        <ele>83</ele>
        <time>2025-05-16T11:19:03Z</time>
      </trkpt>
      <trkpt lat="48.10602" lon="-1.79467">
        <ele>83</ele>
        <time>2025-05-16T11:19:04Z</time>
      </trkpt>
      <trkpt lat="48.10602" lon="-1.79467">
        <ele>83</ele>
        <time>2025-05-16T11:19:05Z</time>
      </trkpt>
      <trkpt lat="48.10602" lon="-1.79467">
        <ele>83</ele>
        <time>2025-05-16T11:19:06Z</time>
      </trkpt>
      <trkpt lat="48.10602" lon="-1.79467">
        <ele>83</ele>
        <time>2025-05-16T11:19:07Z</time>
      </trkpt>
      <trkpt lat="48.10602" lon="-1.79467">
        <ele>83</ele>
        <time>2025-05-16T11:19:08Z</time>
      </trkpt>
      <trkpt lat="48.10602" lon="-1.79467">
        <ele>83</ele>
        <time>2025-05-16T11:19:09Z</time>
      </trkpt>
      <trkpt lat="48.10602" lon="-1.79467">
        <ele>83</ele>
        <time>2025-05-16T11:19:10Z</time>
      </trkpt>
      <trkpt lat="48.10602" lon="-1.79467">
        <ele>83</ele>
        <time>2025-05-16T11:19:11Z</time>
      </trkpt>
      <trkpt lat="48.10602" lon="-1.79467">
        <ele>83</ele>
        <time>2025-05-16T11:19:12Z</time>
      </trkpt>
      <trkpt lat="48.10602" lon="-1.79467">
        <ele>83</ele>
        <time>2025-05-16T11:19:13Z</time>
      </trkpt>
      <trkpt lat="48.10602" lon="-1.79467">
        <ele>83</ele>
        <time>2025-05-16T11:19:14Z</time>
      </trkpt>
      <trkpt lat="48.10602" lon="-1.79467">
        <ele>83</ele>
        <time>2025-05-16T11:19:15Z</time>
      </trkpt>
      <trkpt lat="48.10602" lon="-1.79467">
        <ele>83</ele>
        <time>2025-05-16T11:19:16Z</time>
      </trkpt>
      <trkpt lat="48.10602" lon="-1.79467">
        <ele>83</ele>
        <time>2025-05-16T11:19:17Z</time>
      </trkpt>
      <trkpt lat="48.10602" lon="-1.79467">
        <ele>83</ele>
        <time>2025-05-16T11:19:18Z</time>
      </trkpt>
      <trkpt lat="48.10602" lon="-1.79467">
        <ele>83</ele>
        <time>2025-05-16T11:19:19Z</time>
      </trkpt>
      <trkpt lat="48.10602" lon="-1.79467">
        <ele>83</ele>
        <time>2025-05-16T11:19:20Z</time>
      </trkpt>
      <trkpt lat="48.10602" lon="-1.79467">
        <ele>83</ele>
        <time>2025-05-16T11:19:21Z</time>
      </trkpt>
      <trkpt lat="48.10602" lon="-1.79467">
        <ele>83</ele>
        <time>2025-05-16T11:19:22Z</time>
      </trkpt>
      <trkpt lat="48.10602" lon="-1.79467">
        <ele>83</ele>
        <time>2025-05-16T11:19:23Z</time>
      </trkpt>
      <trkpt lat="48.10602" lon="-1.79467">
        <ele>83</ele>
        <time>2025-05-16T11:19:24Z</time>
      </trkpt>
      <trkpt lat="48.10602" lon="-1.79467">
        <ele>83</ele>
        <time>2025-05-16T11:19:25Z</time>
      </trkpt>
      <trkpt lat="48.10602" lon="-1.79467">
        <ele>83</ele>
        <time>2025-05-16T11:19:26Z</time>
      </trkpt>
      <trkpt lat="48.10602" lon="-1.79467">
        <ele>83</ele>
        <time>2025-05-16T11:19:27Z</time>
      </trkpt>
      <trkpt lat="48.10602" lon="-1.79467">
        <ele>83</ele>
        <time>2025-05-16T11:19:28Z</time>
      </trkpt>
      <trkpt lat="48.10602" lon="-1.79467">
        <ele>83</ele>
        <time>2025-05-16T11:19:29Z</time>
      </trkpt>
      <trkpt lat="48.10602" lon="-1.79467">
        <ele>83</ele>
        <time>2025-05-16T11:19:30Z</time>
      </trkpt>
      <trkpt lat="48.10602" lon="-1.79467">
        <ele>83</ele>
        <time>2025-05-16T11:19:31Z</time>
      </trkpt>
      <trkpt lat="48.10602" lon="-1.79467">
        <ele>83</ele>
        <time>2025-05-16T11:19:32Z</time>
      </trkpt>
      <trkpt lat="48.10602" lon="-1.79467">
        <ele>83</ele>
        <time>2025-05-16T11:19:33Z</time>
      </trkpt>
      <trkpt lat="48.10602" lon="-1.79467">
        <ele>83</ele>
        <time>2025-05-16T11:19:34Z</time>
      </trkpt>
      <trkpt lat="48.10602" lon="-1.79467">
        <ele>83</ele>
        <time>2025-05-16T11:19:35Z</time>
      </trkpt>
      <trkpt lat="48.10602" lon="-1.79467">
        <ele>83</ele>
        <time>2025-05-16T11:19:36Z</time>
      </trkpt>
      <trkpt lat="48.10602" lon="-1.79467">
        <ele>83</ele>
        <time>2025-05-16T11:19:37Z</time>
      </trkpt>
      <trkpt lat="48.10602" lon="-1.79467">
        <ele>83</ele>
        <time>2025-05-16T11:19:38Z</time>
      </trkpt>
      <trkpt lat="48.10602" lon="-1.79467">
        <ele>83</ele>
        <time>2025-05-16T11:19:39Z</time>
      </trkpt>
      <trkpt lat="48.10602" lon="-1.79467">
        <ele>83</ele>
        <time>2025-05-16T11:19:40Z</time>
      </trkpt>
      <trkpt lat="48.10602" lon="-1.79467">
        <ele>83</ele>
        <time>2025-05-16T11:19:41Z</time>
      </trkpt>
      <trkpt lat="48.10602" lon="-1.79467">
        <ele>83</ele>
        <time>2025-05-16T11:19:42Z</time>
      </trkpt>
      <trkpt lat="48.10602" lon="-1.79467">
        <ele>83</ele>
        <time>2025-05-16T11:19:43Z</time>
      </trkpt>
      <trkpt lat="48.10602" lon="-1.79467">
        <ele>83</ele>
        <time>2025-05-16T11:19:44Z</time>
      </trkpt>
      <trkpt lat="48.10602" lon="-1.79467">
        <ele>83</ele>
        <time>2025-05-16T11:19:45Z</time>
      </trkpt>
      <trkpt lat="48.10602" lon="-1.79467">
        <ele>83</ele>
        <time>2025-05-16T11:19:46Z</time>
      </trkpt>
      <trkpt lat="48.10602" lon="-1.79467">
        <ele>83</ele>
        <time>2025-05-16T11:19:47Z</time>
      </trkpt>
      <trkpt lat="48.10602" lon="-1.79467">
        <ele>83</ele>
        <time>2025-05-16T11:19:48Z</time>
      </trkpt>
      <trkpt lat="48.10602" lon="-1.79467">
        <ele>83</ele>
        <time>2025-05-16T11:19:49Z</time>
      </trkpt>
      <trkpt lat="48.10602" lon="-1.79467">
        <ele>83</ele>
        <time>2025-05-16T11:19:50Z</time>
      </trkpt>
      <trkpt lat="48.10602" lon="-1.79467">
        <ele>83</ele>
        <time>2025-05-16T11:19:51Z</time>
      </trkpt>
      <trkpt lat="48.10602" lon="-1.79467">
        <ele>83</ele>
        <time>2025-05-16T11:19:52Z</time>
      </trkpt>
      <trkpt lat="48.10602" lon="-1.79467">
        <ele>83</ele>
        <time>2025-05-16T11:19:53Z</time>
      </trkpt>
      <trkpt lat="48.10602" lon="-1.79467">
        <ele>83</ele>
        <time>2025-05-16T11:19:54Z</time>
      </trkpt>
      <trkpt lat="48.10602" lon="-1.79467">
        <ele>83</ele>
        <time>2025-05-16T11:19:55Z</time>
      </trkpt>
      <trkpt lat="48.10602" lon="-1.79467">
        <ele>83</ele>
        <time>2025-05-16T11:19:56Z</time>
      </trkpt>
      <trkpt lat="48.10602" lon="-1.79467">
        <ele>83</ele>
        <time>2025-05-16T11:19:57Z</time>
      </trkpt>
      <trkpt lat="48.10602" lon="-1.79467">
        <ele>83</ele>
        <time>2025-05-16T11:19:58Z</time>
      </trkpt>
      <trkpt lat="48.10602" lon="-1.79467">
        <ele>83</ele>
        <time>2025-05-16T11:19:59Z</time>
      </trkpt>
      <trkpt lat="48.10602" lon="-1.79467">
        <ele>83</ele>
        <time>2025-05-16T11:20:00Z</time>
      </trkpt>
      <trkpt lat="48.10602" lon="-1.79467">
        <ele>83</ele>
        <time>2025-05-16T11:20:01Z</time>
      </trkpt>
      <trkpt lat="48.10602" lon="-1.79467">
        <ele>83</ele>
        <time>2025-05-16T11:20:02Z</time>
      </trkpt>
      <trkpt lat="48.10602" lon="-1.79467">
        <ele>83</ele>
        <time>2025-05-16T11:20:03Z</time>
      </trkpt>
      <trkpt lat="48.10602" lon="-1.79467">
        <ele>83</ele>
        <time>2025-05-16T11:20:04Z</time>
      </trkpt>
      <trkpt lat="48.10602" lon="-1.79467">
        <ele>83</ele>
        <time>2025-05-16T11:20:05Z</time>
      </trkpt>
      <trkpt lat="48.10602" lon="-1.79467">
        <ele>83</ele>
        <time>2025-05-16T11:20:06Z</time>
      </trkpt>
      <trkpt lat="48.10602" lon="-1.79467">
        <ele>83</ele>
        <time>2025-05-16T11:20:07Z</time>
      </trkpt>
      <trkpt lat="48.10602" lon="-1.79467">
        <ele>83</ele>
        <time>2025-05-16T11:20:08Z</time>
      </trkpt>
      <trkpt lat="48.10602" lon="-1.79467">
        <ele>83</ele>
        <time>2025-05-16T11:20:09Z</time>
      </trkpt>
      <trkpt lat="48.10602" lon="-1.79467">
        <ele>83</ele>
        <time>2025-05-16T11:20:10Z</time>
      </trkpt>
      <trkpt lat="48.10602" lon="-1.79467">
        <ele>83</ele>
        <time>2025-05-16T11:20:11Z</time>
      </trkpt>
      <trkpt lat="48.10602" lon="-1.79467">
        <ele>83</ele>
        <time>2025-05-16T11:20:12Z</time>
      </trkpt>
      <trkpt lat="48.10602" lon="-1.79467">
        <ele>83</ele>
        <time>2025-05-16T11:35:29Z</time>
      </trkpt>
      <trkpt lat="48.10602" lon="-1.79467">
        <ele>83</ele>
        <time>2025-05-16T11:35:30Z</time>
      </trkpt>
      <trkpt lat="48.10602" lon="-1.79467">
        <ele>83</ele>
        <time>2025-05-16T11:35:31Z</time>
      </trkpt>
      <trkpt lat="48.10602" lon="-1.79467">
        <ele>83</ele>
        <time>2025-05-16T11:35:32Z</time>
      </trkpt>
      <trkpt lat="48.106" lon="-1.79465">
        <ele>85</ele>
        <time>2025-05-16T11:35:33Z</time>
      </trkpt>
      <trkpt lat="48.10598" lon="-1.79464">
        <ele>85</ele>
        <time>2025-05-16T11:35:34Z</time>
      </trkpt>
      <trkpt lat="48.10597" lon="-1.79461">
        <ele>85</ele>
        <time>2025-05-16T11:35:35Z</time>
      </trkpt>
      <trkpt lat="48.10595" lon="-1.79458">
        <ele>84</ele>
        <time>2025-05-16T11:35:36Z</time>
      </trkpt>
      <trkpt lat="48.10593" lon="-1.79457">
        <ele>84</ele>
        <time>2025-05-16T11:35:37Z</time>
      </trkpt>
      <trkpt lat="48.10591" lon="-1.79455">
        <ele>84</ele>
        <time>2025-05-16T11:35:38Z</time>
      </trkpt>
      <trkpt lat="48.10588" lon="-1.79455">
        <ele>84</ele>
        <time>2025-05-16T11:35:39Z</time>
      </trkpt>
      <trkpt lat="48.10586" lon="-1.79455">
        <ele>84</ele>
        <time>2025-05-16T11:35:40Z</time>
      </trkpt>
      <trkpt lat="48.10584" lon="-1.79455">
        <ele>85</ele>
        <time>2025-05-16T11:35:41Z</time>
      </trkpt>
      <trkpt lat="48.10582" lon="-1.79454">
        <ele>85</ele>
        <time>2025-05-16T11:35:42Z</time>
      </trkpt>
      <trkpt lat="48.10581" lon="-1.79452">
        <ele>85</ele>
        <time>2025-05-16T11:35:43Z</time>
      </trkpt>
      <trkpt lat="48.1058" lon="-1.79451">
        <ele>85</ele>
        <time>2025-05-16T11:35:44Z</time>
      </trkpt>
      <trkpt lat="48.1058" lon="-1.79451">
        <ele>85</ele>
        <time>2025-05-16T11:35:45Z</time>
      </trkpt>
      <trkpt lat="48.1058" lon="-1.79451">
        <ele>85</ele>
        <time>2025-05-16T11:35:46Z</time>
      </trkpt>
      <trkpt lat="48.1058" lon="-1.79451">
        <ele>85</ele>
        <time>2025-05-16T11:35:47Z</time>
      </trkpt>
      <trkpt lat="48.1058" lon="-1.79451">
        <ele>85</ele>
        <time>2025-05-16T11:35:48Z</time>
      </trkpt>
      <trkpt lat="48.1058" lon="-1.79451">
        <ele>85</ele>
        <time>2025-05-16T11:35:49Z</time>
      </trkpt>
      <trkpt lat="48.1058" lon="-1.79448">
        <ele>85</ele>
        <time>2025-05-16T11:35:50Z</time>
      </trkpt>
      <trkpt lat="48.10579" lon="-1.79445">
        <ele>84</ele>
        <time>2025-05-16T11:35:51Z</time>
      </trkpt>
      <trkpt lat="48.10577" lon="-1.79443">
        <ele>84</ele>
        <time>2025-05-16T11:35:52Z</time>
      </trkpt>
      <trkpt lat="48.10577" lon="-1.79439">
        <ele>85</ele>
        <time>2025-05-16T11:35:53Z</time>
      </trkpt>
      <trkpt lat="48.10578" lon="-1.79436">
        <ele>85</ele>
        <time>2025-05-16T11:35:54Z</time>
      </trkpt>
      <trkpt lat="48.1058" lon="-1.79435">
        <ele>85</ele>
        <time>2025-05-16T11:35:55Z</time>
      </trkpt>
      <trkpt lat="48.10581" lon="-1.79433">
        <ele>85</ele>
        <time>2025-05-16T11:35:56Z</time>
      </trkpt>
      <trkpt lat="48.10582" lon="-1.7943">
        <ele>85</ele>
        <time>2025-05-16T11:35:57Z</time>
      </trkpt>
      <trkpt lat="48.10583" lon="-1.79427">
        <ele>86</ele>
        <time>2025-05-16T11:35:58Z</time>
      </trkpt>
      <trkpt lat="48.10584" lon="-1.79425">
        <ele>86</ele>
        <time>2025-05-16T11:35:59Z</time>
      </trkpt>
      <trkpt lat="48.10585" lon="-1.79423">
        <ele>86</ele>
        <time>2025-05-16T11:36:00Z</time>
      </trkpt>
      <trkpt lat="48.10585" lon="-1.7942">
        <ele>85</ele>
        <time>2025-05-16T11:36:01Z</time>
      </trkpt>
      <trkpt lat="48.10585" lon="-1.79417">
        <ele>85</ele>
        <time>2025-05-16T11:36:02Z</time>
      </trkpt>
      <trkpt lat="48.10585" lon="-1.79415">
        <ele>85</ele>
        <time>2025-05-16T11:36:03Z</time>
      </trkpt>
      <trkpt lat="48.10585" lon="-1.79412">
        <ele>85</ele>
        <time>2025-05-16T11:36:04Z</time>
      </trkpt>
      <trkpt lat="48.10585" lon="-1.79409">
        <ele>84</ele>
        <time>2025-05-16T11:36:05Z</time>
      </trkpt>
      <trkpt lat="48.10583" lon="-1.79407">
        <ele>84</ele>
        <time>2025-05-16T11:36:06Z</time>
      </trkpt>
      <trkpt lat="48.10582" lon="-1.79404">
        <ele>84</ele>
        <time>2025-05-16T11:36:07Z</time>
      </trkpt>
      <trkpt lat="48.10581" lon="-1.794">
        <ele>84</ele>
        <time>2025-05-16T11:36:08Z</time>
      </trkpt>
      <trkpt lat="48.10579" lon="-1.79397">
        <ele>84</ele>
        <time>2025-05-16T11:36:09Z</time>
      </trkpt>
      <trkpt lat="48.10578" lon="-1.79393">
        <ele>84</ele>
        <time>2025-05-16T11:36:10Z</time>
      </trkpt>
      <trkpt lat="48.10577" lon="-1.7939">
        <ele>85</ele>
        <time>2025-05-16T11:36:11Z</time>
      </trkpt>
      <trkpt lat="48.10576" lon="-1.79387">
        <ele>85</ele>
        <time>2025-05-16T11:36:12Z</time>
      </trkpt>
      <trkpt lat="48.10575" lon="-1.79383">
        <ele>86</ele>
        <time>2025-05-16T11:36:13Z</time>
      </trkpt>
      <trkpt lat="48.10575" lon="-1.79379">
        <ele>87</ele>
        <time>2025-05-16T11:36:14Z</time>
      </trkpt>
      <trkpt lat="48.10574" lon="-1.79376">
        <ele>87</ele>
        <time>2025-05-16T11:36:15Z</time>
      </trkpt>
      <trkpt lat="48.10573" lon="-1.79373">
        <ele>87</ele>
        <time>2025-05-16T11:36:16Z</time>
      </trkpt>
      <trkpt lat="48.10572" lon="-1.79369">
        <ele>87</ele>
        <time>2025-05-16T11:36:17Z</time>
      </trkpt>
      <trkpt lat="48.10571" lon="-1.79365">
        <ele>87</ele>
        <time>2025-05-16T11:36:18Z</time>
      </trkpt>
      <trkpt lat="48.1057" lon="-1.79361">
        <ele>87</ele>
        <time>2025-05-16T11:36:19Z</time>
      </trkpt>
      <trkpt lat="48.10569" lon="-1.79358">
        <ele>88</ele>
        <time>2025-05-16T11:36:20Z</time>
      </trkpt>
      <trkpt lat="48.10567" lon="-1.79354">
        <ele>87</ele>
        <time>2025-05-16T11:36:21Z</time>
      </trkpt>
      <trkpt lat="48.10566" lon="-1.7935">
        <ele>87</ele>
        <time>2025-05-16T11:36:22Z</time>
      </trkpt>
      <trkpt lat="48.10564" lon="-1.79346">
        <ele>87</ele>
        <time>2025-05-16T11:36:23Z</time>
      </trkpt>
      <trkpt lat="48.10563" lon="-1.79343">
        <ele>86</ele>
        <time>2025-05-16T11:36:24Z</time>
      </trkpt>
      <trkpt lat="48.10562" lon="-1.79339">
        <ele>86</ele>
        <time>2025-05-16T11:36:25Z</time>
      </trkpt>
      <trkpt lat="48.1056" lon="-1.79335">
        <ele>85</ele>
        <time>2025-05-16T11:36:26Z</time>
      </trkpt>
      <trkpt lat="48.10559" lon="-1.79331">
        <ele>86</ele>
        <time>2025-05-16T11:36:27Z</time>
      </trkpt>
      <trkpt lat="48.10558" lon="-1.79327">
        <ele>86</ele>
        <time>2025-05-16T11:36:28Z</time>
      </trkpt>
      <trkpt lat="48.10558" lon="-1.79323">
        <ele>86</ele>
        <time>2025-05-16T11:36:29Z</time>
      </trkpt>
      <trkpt lat="48.10557" lon="-1.79319">
        <ele>86</ele>
        <time>2025-05-16T11:36:30Z</time>
      </trkpt>
      <trkpt lat="48.10556" lon="-1.79315">
        <ele>86</ele>
        <time>2025-05-16T11:36:31Z</time>
      </trkpt>
      <trkpt lat="48.10555" lon="-1.79311">
        <ele>86</ele>
        <time>2025-05-16T11:36:32Z</time>
      </trkpt>
      <trkpt lat="48.10553" lon="-1.79308">
        <ele>86</ele>
        <time>2025-05-16T11:36:33Z</time>
      </trkpt>
      <trkpt lat="48.10552" lon="-1.79304">
        <ele>86</ele>
        <time>2025-05-16T11:36:34Z</time>
      </trkpt>
      <trkpt lat="48.1055" lon="-1.793">
        <ele>87</ele>
        <time>2025-05-16T11:36:35Z</time>
      </trkpt>
      <trkpt lat="48.10549" lon="-1.79295">
        <ele>87</ele>
        <time>2025-05-16T11:36:36Z</time>
      </trkpt>
      <trkpt lat="48.10548" lon="-1.7929">
        <ele>88</ele>
        <time>2025-05-16T11:36:37Z</time>
      </trkpt>
      <trkpt lat="48.10547" lon="-1.79286">
        <ele>88</ele>
        <time>2025-05-16T11:36:38Z</time>
      </trkpt>
      <trkpt lat="48.10546" lon="-1.79282">
        <ele>88</ele>
        <time>2025-05-16T11:36:39Z</time>
      </trkpt>
      <trkpt lat="48.10544" lon="-1.79278">
        <ele>89</ele>
        <time>2025-05-16T11:36:40Z</time>
      </trkpt>
      <trkpt lat="48.10543" lon="-1.79274">
        <ele>88</ele>
        <time>2025-05-16T11:36:41Z</time>
      </trkpt>
      <trkpt lat="48.10542" lon="-1.7927">
        <ele>88</ele>
        <time>2025-05-16T11:36:42Z</time>
      </trkpt>
      <trkpt lat="48.10541" lon="-1.79266">
        <ele>88</ele>
        <time>2025-05-16T11:36:43Z</time>
      </trkpt>
      <trkpt lat="48.10539" lon="-1.79262">
        <ele>88</ele>
        <time>2025-05-16T11:36:44Z</time>
      </trkpt>
      <trkpt lat="48.10537" lon="-1.79257">
        <ele>89</ele>
        <time>2025-05-16T11:36:45Z</time>
      </trkpt>
      <trkpt lat="48.10536" lon="-1.79253">
        <ele>89</ele>
        <time>2025-05-16T11:36:46Z</time>
      </trkpt>
      <trkpt lat="48.10534" lon="-1.79248">
        <ele>89</ele>
        <time>2025-05-16T11:36:47Z</time>
      </trkpt>
      <trkpt lat="48.10533" lon="-1.79244">
        <ele>89</ele>
        <time>2025-05-16T11:36:48Z</time>
      </trkpt>
      <trkpt lat="48.10531" lon="-1.7924">
        <ele>89</ele>
        <time>2025-05-16T11:36:49Z</time>
      </trkpt>
      <trkpt lat="48.1053" lon="-1.79235">
        <ele>89</ele>
        <time>2025-05-16T11:36:50Z</time>
      </trkpt>
      <trkpt lat="48.10528" lon="-1.79231">
        <ele>89</ele>
        <time>2025-05-16T11:36:51Z</time>
      </trkpt>
      <trkpt lat="48.10527" lon="-1.79227">
        <ele>89</ele>
        <time>2025-05-16T11:36:52Z</time>
      </trkpt>
      <trkpt lat="48.10525" lon="-1.79223">
        <ele>89</ele>
        <time>2025-05-16T11:36:53Z</time>
      </trkpt>
      <trkpt lat="48.10524" lon="-1.79218">
        <ele>89</ele>
        <time>2025-05-16T11:36:54Z</time>
      </trkpt>
      <trkpt lat="48.10523" lon="-1.79214">
        <ele>89</ele>
        <time>2025-05-16T11:36:55Z</time>
      </trkpt>
      <trkpt lat="48.10521" lon="-1.7921">
        <ele>89</ele>
        <time>2025-05-16T11:36:56Z</time>
      </trkpt>
      <trkpt lat="48.1052" lon="-1.79206">
        <ele>89</ele>
        <time>2025-05-16T11:36:57Z</time>
      </trkpt>
      <trkpt lat="48.10518" lon="-1.79202">
        <ele>90</ele>
        <time>2025-05-16T11:36:58Z</time>
      </trkpt>
      <trkpt lat="48.10516" lon="-1.79197">
        <ele>90</ele>
        <time>2025-05-16T11:36:59Z</time>
      </trkpt>
      <trkpt lat="48.10515" lon="-1.79193">
        <ele>89</ele>
        <time>2025-05-16T11:37:00Z</time>
      </trkpt>
      <trkpt lat="48.10513" lon="-1.79189">
        <ele>89</ele>
        <time>2025-05-16T11:37:01Z</time>
      </trkpt>
      <trkpt lat="48.10512" lon="-1.79184">
        <ele>89</ele>
        <time>2025-05-16T11:37:02Z</time>
      </trkpt>
      <trkpt lat="48.10511" lon="-1.7918">
        <ele>88</ele>
        <time>2025-05-16T11:37:03Z</time>
      </trkpt>
      <trkpt lat="48.10509" lon="-1.79176">
        <ele>88</ele>
        <time>2025-05-16T11:37:04Z</time>
      </trkpt>
      <trkpt lat="48.10507" lon="-1.79171">
        <ele>88</ele>
        <time>2025-05-16T11:37:05Z</time>
      </trkpt>
      <trkpt lat="48.10506" lon="-1.79167">
        <ele>88</ele>
        <time>2025-05-16T11:37:06Z</time>
      </trkpt>
      <trkpt lat="48.10504" lon="-1.79162">
        <ele>89</ele>
        <time>2025-05-16T11:37:07Z</time>
      </trkpt>
      <trkpt lat="48.10503" lon="-1.79157">
        <ele>89</ele>
        <time>2025-05-16T11:37:08Z</time>
      </trkpt>
      <trkpt lat="48.10501" lon="-1.79152">
        <ele>89</ele>
        <time>2025-05-16T11:37:09Z</time>
      </trkpt>
      <trkpt lat="48.105" lon="-1.79146">
        <ele>89</ele>
        <time>2025-05-16T11:37:10Z</time>
      </trkpt>
      <trkpt lat="48.10498" lon="-1.79141">
        <ele>89</ele>
        <time>2025-05-16T11:37:11Z</time>
      </trkpt>
      <trkpt lat="48.10496" lon="-1.79136">
        <ele>90</ele>
        <time>2025-05-16T11:37:12Z</time>
      </trkpt>
      <trkpt lat="48.10494" lon="-1.79131">
        <ele>90</ele>
        <time>2025-05-16T11:37:13Z</time>
      </trkpt>
      <trkpt lat="48.10492" lon="-1.79126">
        <ele>90</ele>
        <time>2025-05-16T11:37:14Z</time>
      </trkpt>
      <trkpt lat="48.1049" lon="-1.79121">
        <ele>89</ele>
        <time>2025-05-16T11:37:15Z</time>
      </trkpt>
      <trkpt lat="48.10488" lon="-1.79115">
        <ele>89</ele>
        <time>2025-05-16T11:37:16Z</time>
      </trkpt>
      <trkpt lat="48.10487" lon="-1.79109">
        <ele>89</ele>
        <time>2025-05-16T11:37:17Z</time>
      </trkpt>
      <trkpt lat="48.10485" lon="-1.79104">
        <ele>89</ele>
        <time>2025-05-16T11:37:18Z</time>
      </trkpt>
      <trkpt lat="48.10483" lon="-1.79099">
        <ele>89</ele>
        <time>2025-05-16T11:37:19Z</time>
      </trkpt>
      <trkpt lat="48.10482" lon="-1.79094">
        <ele>90</ele>
        <time>2025-05-16T11:37:20Z</time>
      </trkpt>
      <trkpt lat="48.1048" lon="-1.79088">
        <ele>89</ele>
        <time>2025-05-16T11:37:21Z</time>
      </trkpt>
      <trkpt lat="48.10478" lon="-1.79082">
        <ele>89</ele>
        <time>2025-05-16T11:37:22Z</time>
      </trkpt>
      <trkpt lat="48.10476" lon="-1.79076">
        <ele>89</ele>
        <time>2025-05-16T11:37:23Z</time>
      </trkpt>
      <trkpt lat="48.10474" lon="-1.79071">
        <ele>89</ele>
        <time>2025-05-16T11:37:24Z</time>
      </trkpt>
      <trkpt lat="48.10472" lon="-1.79065">
        <ele>89</ele>
        <time>2025-05-16T11:37:25Z</time>
      </trkpt>
      <trkpt lat="48.1047" lon="-1.79059">
        <ele>88</ele>
        <time>2025-05-16T11:37:26Z</time>
      </trkpt>
      <trkpt lat="48.10469" lon="-1.79053">
        <ele>89</ele>
        <time>2025-05-16T11:37:27Z</time>
      </trkpt>
      <trkpt lat="48.10467" lon="-1.79048">
        <ele>88</ele>
        <time>2025-05-16T11:37:28Z</time>
      </trkpt>
      <trkpt lat="48.10465" lon="-1.79042">
        <ele>88</ele>
        <time>2025-05-16T11:37:29Z</time>
      </trkpt>
      <trkpt lat="48.10463" lon="-1.79036">
        <ele>89</ele>
        <time>2025-05-16T11:37:30Z</time>
      </trkpt>
      <trkpt lat="48.1046" lon="-1.7903">
        <ele>88</ele>
        <time>2025-05-16T11:37:31Z</time>
      </trkpt>
      <trkpt lat="48.10458" lon="-1.79024">
        <ele>88</ele>
        <time>2025-05-16T11:37:32Z</time>
      </trkpt>
      <trkpt lat="48.10456" lon="-1.79017">
        <ele>88</ele>
        <time>2025-05-16T11:37:33Z</time>
      </trkpt>
      <trkpt lat="48.10454" lon="-1.79011">
        <ele>88</ele>
        <time>2025-05-16T11:37:34Z</time>
      </trkpt>
      <trkpt lat="48.10452" lon="-1.79005">
        <ele>87</ele>
        <time>2025-05-16T11:37:35Z</time>
      </trkpt>
      <trkpt lat="48.1045" lon="-1.78999">
        <ele>87</ele>
        <time>2025-05-16T11:37:36Z</time>
      </trkpt>
      <trkpt lat="48.10448" lon="-1.78993">
        <ele>87</ele>
        <time>2025-05-16T11:37:37Z</time>
      </trkpt>
      <trkpt lat="48.10446" lon="-1.78988">
        <ele>87</ele>
        <time>2025-05-16T11:37:38Z</time>
      </trkpt>
      <trkpt lat="48.10444" lon="-1.78983">
        <ele>87</ele>
        <time>2025-05-16T11:37:39Z</time>
      </trkpt>
      <trkpt lat="48.10442" lon="-1.78977">
        <ele>87</ele>
        <time>2025-05-16T11:37:40Z</time>
      </trkpt>
      <trkpt lat="48.10441" lon="-1.78971">
        <ele>87</ele>
        <time>2025-05-16T11:37:41Z</time>
      </trkpt>
      <trkpt lat="48.10438" lon="-1.78966">
        <ele>87</ele>
        <time>2025-05-16T11:37:42Z</time>
      </trkpt>
      <trkpt lat="48.10434" lon="-1.78963">
        <ele>87</ele>
        <time>2025-05-16T11:37:43Z</time>
      </trkpt>
      <trkpt lat="48.1043" lon="-1.78962">
        <ele>87</ele>
        <time>2025-05-16T11:37:44Z</time>
      </trkpt>
      <trkpt lat="48.10426" lon="-1.7896">
        <ele>88</ele>
        <time>2025-05-16T11:37:45Z</time>
      </trkpt>
      <trkpt lat="48.10423" lon="-1.78956">
        <ele>88</ele>
        <time>2025-05-16T11:37:46Z</time>
      </trkpt>
      <trkpt lat="48.10422" lon="-1.78951">
        <ele>87</ele>
        <time>2025-05-16T11:37:47Z</time>
      </trkpt>
      <trkpt lat="48.10421" lon="-1.78945">
        <ele>87</ele>
        <time>2025-05-16T11:37:48Z</time>
      </trkpt>
      <trkpt lat="48.10422" lon="-1.7894">
        <ele>86</ele>
        <time>2025-05-16T11:37:49Z</time>
      </trkpt>
      <trkpt lat="48.10424" lon="-1.78936">
        <ele>86</ele>
        <time>2025-05-16T11:37:50Z</time>
      </trkpt>
      <trkpt lat="48.10426" lon="-1.78932">
        <ele>86</ele>
        <time>2025-05-16T11:37:51Z</time>
      </trkpt>
      <trkpt lat="48.10427" lon="-1.78928">
        <ele>86</ele>
        <time>2025-05-16T11:37:52Z</time>
      </trkpt>
      <trkpt lat="48.10428" lon="-1.78923">
        <ele>86</ele>
        <time>2025-05-16T11:37:53Z</time>
      </trkpt>
      <trkpt lat="48.10428" lon="-1.78919">
        <ele>85</ele>
        <time>2025-05-16T11:37:54Z</time>
      </trkpt>
      <trkpt lat="48.10427" lon="-1.78914">
        <ele>85</ele>
        <time>2025-05-16T11:37:55Z</time>
      </trkpt>
      <trkpt lat="48.10426" lon="-1.7891">
        <ele>85</ele>
        <time>2025-05-16T11:37:56Z</time>
      </trkpt>
      <trkpt lat="48.10424" lon="-1.78907">
        <ele>85</ele>
        <time>2025-05-16T11:37:57Z</time>
      </trkpt>
      <trkpt lat="48.10421" lon="-1.78903">
        <ele>85</ele>
        <time>2025-05-16T11:37:58Z</time>
      </trkpt>
      <trkpt lat="48.10418" lon="-1.78901">
        <ele>84</ele>
        <time>2025-05-16T11:37:59Z</time>
      </trkpt>
      <trkpt lat="48.10415" lon="-1.78899">
        <ele>84</ele>
        <time>2025-05-16T11:38:00Z</time>
      </trkpt>
      <trkpt lat="48.10411" lon="-1.78896">
        <ele>85</ele>
        <time>2025-05-16T11:38:01Z</time>
      </trkpt>
      <trkpt lat="48.10408" lon="-1.78893">
        <ele>85</ele>
        <time>2025-05-16T11:38:02Z</time>
      </trkpt>
      <trkpt lat="48.10405" lon="-1.7889">
        <ele>85</ele>
        <time>2025-05-16T11:38:03Z</time>
      </trkpt>
      <trkpt lat="48.10401" lon="-1.78887">
        <ele>86</ele>
        <time>2025-05-16T11:38:04Z</time>
      </trkpt>
      <trkpt lat="48.10398" lon="-1.78883">
        <ele>86</ele>
        <time>2025-05-16T11:38:05Z</time>
      </trkpt>
      <trkpt lat="48.10394" lon="-1.7888">
        <ele>86</ele>
        <time>2025-05-16T11:38:06Z</time>
      </trkpt>
      <trkpt lat="48.10391" lon="-1.78876">
        <ele>86</ele>
        <time>2025-05-16T11:38:07Z</time>
      </trkpt>
      <trkpt lat="48.10386" lon="-1.78872">
        <ele>87</ele>
        <time>2025-05-16T11:38:08Z</time>
      </trkpt>
      <trkpt lat="48.10382" lon="-1.78869">
        <ele>87</ele>
        <time>2025-05-16T11:38:09Z</time>
      </trkpt>
      <trkpt lat="48.10378" lon="-1.78867">
        <ele>87</ele>
        <time>2025-05-16T11:38:10Z</time>
      </trkpt>
      <trkpt lat="48.10374" lon="-1.78863">
        <ele>87</ele>
        <time>2025-05-16T11:38:11Z</time>
      </trkpt>
      <trkpt lat="48.10369" lon="-1.78859">
        <ele>86</ele>
        <time>2025-05-16T11:38:12Z</time>
      </trkpt>
      <trkpt lat="48.10365" lon="-1.78855">
        <ele>87</ele>
        <time>2025-05-16T11:38:13Z</time>
      </trkpt>
      <trkpt lat="48.1036" lon="-1.7885">
        <ele>87</ele>
        <time>2025-05-16T11:38:14Z</time>
      </trkpt>
      <trkpt lat="48.10355" lon="-1.78846">
        <ele>86</ele>
        <time>2025-05-16T11:38:15Z</time>
      </trkpt>
      <trkpt lat="48.1035" lon="-1.78841">
        <ele>86</ele>
        <time>2025-05-16T11:38:16Z</time>
      </trkpt>
      <trkpt lat="48.10345" lon="-1.78837">
        <ele>86</ele>
        <time>2025-05-16T11:38:17Z</time>
      </trkpt>
      <trkpt lat="48.1034" lon="-1.78833">
        <ele>86</ele>
        <time>2025-05-16T11:38:18Z</time>
      </trkpt>
      <trkpt lat="48.10334" lon="-1.78829">
        <ele>85</ele>
        <time>2025-05-16T11:38:19Z</time>
      </trkpt>
      <trkpt lat="48.10329" lon="-1.78825">
        <ele>84</ele>
        <time>2025-05-16T11:38:20Z</time>
      </trkpt>
      <trkpt lat="48.10323" lon="-1.7882">
        <ele>84</ele>
        <time>2025-05-16T11:38:21Z</time>
      </trkpt>
      <trkpt lat="48.10318" lon="-1.78815">
        <ele>83</ele>
        <time>2025-05-16T11:38:22Z</time>
      </trkpt>
      <trkpt lat="48.10313" lon="-1.78809">
        <ele>83</ele>
        <time>2025-05-16T11:38:23Z</time>
      </trkpt>
      <trkpt lat="48.10308" lon="-1.78804">
        <ele>84</ele>
        <time>2025-05-16T11:38:24Z</time>
      </trkpt>
      <trkpt lat="48.10303" lon="-1.78799">
        <ele>84</ele>
        <time>2025-05-16T11:38:25Z</time>
      </trkpt>
      <trkpt lat="48.10298" lon="-1.78794">
        <ele>84</ele>
        <time>2025-05-16T11:38:26Z</time>
      </trkpt>
      <trkpt lat="48.10293" lon="-1.7879">
        <ele>83</ele>
        <time>2025-05-16T11:38:27Z</time>
      </trkpt>
      <trkpt lat="48.10288" lon="-1.78786">
        <ele>83</ele>
        <time>2025-05-16T11:38:28Z</time>
      </trkpt>
      <trkpt lat="48.10283" lon="-1.78782">
        <ele>83</ele>
        <time>2025-05-16T11:38:29Z</time>
      </trkpt>
      <trkpt lat="48.10278" lon="-1.78778">
        <ele>84</ele>
        <time>2025-05-16T11:38:30Z</time>
      </trkpt>
      <trkpt lat="48.10273" lon="-1.78773">
        <ele>84</ele>
        <time>2025-05-16T11:38:31Z</time>
      </trkpt>
      <trkpt lat="48.10268" lon="-1.78769">
        <ele>84</ele>
        <time>2025-05-16T11:38:32Z</time>
      </trkpt>
      <trkpt lat="48.10263" lon="-1.78765">
        <ele>84</ele>
        <time>2025-05-16T11:38:33Z</time>
      </trkpt>
      <trkpt lat="48.10259" lon="-1.7876">
        <ele>83</ele>
        <time>2025-05-16T11:38:34Z</time>
      </trkpt>
      <trkpt lat="48.10255" lon="-1.78756">
        <ele>84</ele>
        <time>2025-05-16T11:38:35Z</time>
      </trkpt>
      <trkpt lat="48.10251" lon="-1.78752">
        <ele>85</ele>
        <time>2025-05-16T11:38:36Z</time>
      </trkpt>
      <trkpt lat="48.10247" lon="-1.78748">
        <ele>85</ele>
        <time>2025-05-16T11:38:37Z</time>
      </trkpt>
      <trkpt lat="48.10242" lon="-1.78743">
        <ele>86</ele>
        <time>2025-05-16T11:38:38Z</time>
      </trkpt>
      <trkpt lat="48.10238" lon="-1.78739">
        <ele>86</ele>
        <time>2025-05-16T11:38:39Z</time>
      </trkpt>
      <trkpt lat="48.10234" lon="-1.78735">
        <ele>86</ele>
        <time>2025-05-16T11:38:40Z</time>
      </trkpt>
      <trkpt lat="48.1023" lon="-1.78732">
        <ele>85</ele>
        <time>2025-05-16T11:38:41Z</time>
      </trkpt>
      <trkpt lat="48.10226" lon="-1.78728">
        <ele>84</ele>
        <time>2025-05-16T11:38:42Z</time>
      </trkpt>
      <trkpt lat="48.10222" lon="-1.78725">
        <ele>83</ele>
        <time>2025-05-16T11:38:43Z</time>
      </trkpt>
      <trkpt lat="48.10218" lon="-1.78722">
        <ele>83</ele>
        <time>2025-05-16T11:38:44Z</time>
      </trkpt>
      <trkpt lat="48.10214" lon="-1.78719">
        <ele>83</ele>
        <time>2025-05-16T11:38:45Z</time>
      </trkpt>
      <trkpt lat="48.1021" lon="-1.78716">
        <ele>83</ele>
        <time>2025-05-16T11:38:46Z</time>
      </trkpt>
      <trkpt lat="48.10206" lon="-1.78713">
        <ele>84</ele>
        <time>2025-05-16T11:38:47Z</time>
      </trkpt>
      <trkpt lat="48.10202" lon="-1.78709">
        <ele>84</ele>
        <time>2025-05-16T11:38:48Z</time>
      </trkpt>
      <trkpt lat="48.10198" lon="-1.78706">
        <ele>84</ele>
        <time>2025-05-16T11:38:49Z</time>
      </trkpt>
      <trkpt lat="48.10195" lon="-1.78703">
        <ele>83</ele>
        <time>2025-05-16T11:38:50Z</time>
      </trkpt>
      <trkpt lat="48.10191" lon="-1.78699">
        <ele>83</ele>
        <time>2025-05-16T11:38:51Z</time>
      </trkpt>
      <trkpt lat="48.10187" lon="-1.78696">
        <ele>83</ele>
        <time>2025-05-16T11:38:52Z</time>
      </trkpt>
      <trkpt lat="48.10183" lon="-1.78692">
        <ele>83</ele>
        <time>2025-05-16T11:38:53Z</time>
      </trkpt>
      <trkpt lat="48.1018" lon="-1.78689">
        <ele>83</ele>
        <time>2025-05-16T11:38:54Z</time>
      </trkpt>
      <trkpt lat="48.10176" lon="-1.78685">
        <ele>82</ele>
        <time>2025-05-16T11:38:55Z</time>
      </trkpt>
      <trkpt lat="48.10172" lon="-1.78682">
        <ele>82</ele>
        <time>2025-05-16T11:38:56Z</time>
      </trkpt>
      <trkpt lat="48.10168" lon="-1.78678">
        <ele>82</ele>
        <time>2025-05-16T11:38:57Z</time>
      </trkpt>
      <trkpt lat="48.10164" lon="-1.78675">
        <ele>83</ele>
        <time>2025-05-16T11:38:58Z</time>
      </trkpt>
      <trkpt lat="48.10161" lon="-1.78671">
        <ele>83</ele>
        <time>2025-05-16T11:38:59Z</time>
      </trkpt>
      <trkpt lat="48.10157" lon="-1.78668">
        <ele>84</ele>
        <time>2025-05-16T11:39:00Z</time>
      </trkpt>
      <trkpt lat="48.10153" lon="-1.78665">
        <ele>84</ele>
        <time>2025-05-16T11:39:01Z</time>
      </trkpt>
      <trkpt lat="48.1015" lon="-1.78662">
        <ele>84</ele>
        <time>2025-05-16T11:39:02Z</time>
      </trkpt>
      <trkpt lat="48.10146" lon="-1.78658">
        <ele>84</ele>
        <time>2025-05-16T11:39:03Z</time>
      </trkpt>
      <trkpt lat="48.10143" lon="-1.78656">
        <ele>84</ele>
        <time>2025-05-16T11:39:04Z</time>
      </trkpt>
      <trkpt lat="48.10139" lon="-1.78653">
        <ele>84</ele>
        <time>2025-05-16T11:39:05Z</time>
      </trkpt>
      <trkpt lat="48.10136" lon="-1.78649">
        <ele>85</ele>
        <time>2025-05-16T11:39:06Z</time>
      </trkpt>
      <trkpt lat="48.10133" lon="-1.78646">
        <ele>85</ele>
        <time>2025-05-16T11:39:07Z</time>
      </trkpt>
      <trkpt lat="48.1013" lon="-1.78644">
        <ele>85</ele>
        <time>2025-05-16T11:39:08Z</time>
      </trkpt>
      <trkpt lat="48.10126" lon="-1.78644">
        <ele>86</ele>
        <time>2025-05-16T11:39:09Z</time>
      </trkpt>
      <trkpt lat="48.10122" lon="-1.78643">
        <ele>86</ele>
        <time>2025-05-16T11:39:10Z</time>
      </trkpt>
      <trkpt lat="48.10119" lon="-1.78642">
        <ele>86</ele>
        <time>2025-05-16T11:39:11Z</time>
      </trkpt>
      <trkpt lat="48.10116" lon="-1.78641">
        <ele>86</ele>
        <time>2025-05-16T11:39:12Z</time>
      </trkpt>
      <trkpt lat="48.10113" lon="-1.78639">
        <ele>86</ele>
        <time>2025-05-16T11:39:13Z</time>
      </trkpt>
      <trkpt lat="48.1011" lon="-1.78638">
        <ele>86</ele>
        <time>2025-05-16T11:39:14Z</time>
      </trkpt>
      <trkpt lat="48.10107" lon="-1.78636">
        <ele>86</ele>
        <time>2025-05-16T11:39:15Z</time>
      </trkpt>
      <trkpt lat="48.10103" lon="-1.78635">
        <ele>87</ele>
        <time>2025-05-16T11:39:16Z</time>
      </trkpt>
      <trkpt lat="48.10099" lon="-1.78634">
        <ele>86</ele>
        <time>2025-05-16T11:39:17Z</time>
      </trkpt>
      <trkpt lat="48.10095" lon="-1.78632">
        <ele>86</ele>
        <time>2025-05-16T11:39:18Z</time>
      </trkpt>
      <trkpt lat="48.10091" lon="-1.78631">
        <ele>86</ele>
        <time>2025-05-16T11:39:19Z</time>
      </trkpt>
      <trkpt lat="48.10088" lon="-1.7863">
        <ele>85</ele>
        <time>2025-05-16T11:39:20Z</time>
      </trkpt>
      <trkpt lat="48.10083" lon="-1.78629">
        <ele>85</ele>
        <time>2025-05-16T11:39:21Z</time>
      </trkpt>
      <trkpt lat="48.10079" lon="-1.78629">
        <ele>85</ele>
        <time>2025-05-16T11:39:22Z</time>
      </trkpt>
      <trkpt lat="48.10075" lon="-1.7863">
        <ele>84</ele>
        <time>2025-05-16T11:39:23Z</time>
      </trkpt>
      <trkpt lat="48.10071" lon="-1.78631">
        <ele>84</ele>
        <time>2025-05-16T11:39:24Z</time>
      </trkpt>
      <trkpt lat="48.10067" lon="-1.78631">
        <ele>84</ele>
        <time>2025-05-16T11:39:25Z</time>
      </trkpt>
      <trkpt lat="48.10063" lon="-1.78632">
        <ele>84</ele>
        <time>2025-05-16T11:39:26Z</time>
      </trkpt>
      <trkpt lat="48.10059" lon="-1.78632">
        <ele>84</ele>
        <time>2025-05-16T11:39:27Z</time>
      </trkpt>
      <trkpt lat="48.10055" lon="-1.78633">
        <ele>85</ele>
        <time>2025-05-16T11:39:28Z</time>
      </trkpt>
      <trkpt lat="48.10051" lon="-1.78633">
        <ele>85</ele>
        <time>2025-05-16T11:39:29Z</time>
      </trkpt>
      <trkpt lat="48.10046" lon="-1.78633">
        <ele>85</ele>
        <time>2025-05-16T11:39:30Z</time>
      </trkpt>
      <trkpt lat="48.10043" lon="-1.78634">
        <ele>86</ele>
        <time>2025-05-16T11:39:31Z</time>
      </trkpt>
      <trkpt lat="48.10039" lon="-1.78634">
        <ele>86</ele>
        <time>2025-05-16T11:39:32Z</time>
      </trkpt>
      <trkpt lat="48.10034" lon="-1.78633">
        <ele>87</ele>
        <time>2025-05-16T11:39:33Z</time>
      </trkpt>
      <trkpt lat="48.1003" lon="-1.78634">
        <ele>87</ele>
        <time>2025-05-16T11:39:34Z</time>
      </trkpt>
      <trkpt lat="48.10027" lon="-1.78634">
        <ele>86</ele>
        <time>2025-05-16T11:39:35Z</time>
      </trkpt>
      <trkpt lat="48.10023" lon="-1.78634">
        <ele>86</ele>
        <time>2025-05-16T11:39:36Z</time>
      </trkpt>
      <trkpt lat="48.1002" lon="-1.78634">
        <ele>85</ele>
        <time>2025-05-16T11:39:37Z</time>
      </trkpt>
      <trkpt lat="48.10016" lon="-1.78635">
        <ele>85</ele>
        <time>2025-05-16T11:39:38Z</time>
      </trkpt>
      <trkpt lat="48.10012" lon="-1.78636">
        <ele>85</ele>
        <time>2025-05-16T11:39:39Z</time>
      </trkpt>
      <trkpt lat="48.10009" lon="-1.78637">
        <ele>85</ele>
        <time>2025-05-16T11:39:40Z</time>
      </trkpt>
      <trkpt lat="48.10006" lon="-1.78639">
        <ele>84</ele>
        <time>2025-05-16T11:39:41Z</time>
      </trkpt>
      <trkpt lat="48.10002" lon="-1.7864">
        <ele>84</ele>
        <time>2025-05-16T11:39:42Z</time>
      </trkpt>
      <trkpt lat="48.09998" lon="-1.78641">
        <ele>85</ele>
        <time>2025-05-16T11:39:43Z</time>
      </trkpt>
      <trkpt lat="48.09994" lon="-1.78643">
        <ele>86</ele>
        <time>2025-05-16T11:39:44Z</time>
      </trkpt>
      <trkpt lat="48.0999" lon="-1.78644">
        <ele>87</ele>
        <time>2025-05-16T11:39:45Z</time>
      </trkpt>
      <trkpt lat="48.09986" lon="-1.78647">
        <ele>87</ele>
        <time>2025-05-16T11:39:46Z</time>
      </trkpt>
      <trkpt lat="48.09983" lon="-1.78649">
        <ele>86</ele>
        <time>2025-05-16T11:39:47Z</time>
      </trkpt>
      <trkpt lat="48.09979" lon="-1.78652">
        <ele>86</ele>
        <time>2025-05-16T11:39:48Z</time>
      </trkpt>
      <trkpt lat="48.09976" lon="-1.78655">
        <ele>86</ele>
        <time>2025-05-16T11:39:49Z</time>
      </trkpt>
      <trkpt lat="48.09973" lon="-1.78658">
        <ele>86</ele>
        <time>2025-05-16T11:39:50Z</time>
      </trkpt>
      <trkpt lat="48.09969" lon="-1.78662">
        <ele>86</ele>
        <time>2025-05-16T11:39:51Z</time>
      </trkpt>
      <trkpt lat="48.09966" lon="-1.78665">
        <ele>86</ele>
        <time>2025-05-16T11:39:52Z</time>
      </trkpt>
      <trkpt lat="48.09963" lon="-1.78668">
        <ele>85</ele>
        <time>2025-05-16T11:39:53Z</time>
      </trkpt>
      <trkpt lat="48.0996" lon="-1.78672">
        <ele>85</ele>
        <time>2025-05-16T11:39:54Z</time>
      </trkpt>
      <trkpt lat="48.09957" lon="-1.78675">
        <ele>85</ele>
        <time>2025-05-16T11:39:55Z</time>
      </trkpt>
      <trkpt lat="48.09955" lon="-1.78678">
        <ele>85</ele>
        <time>2025-05-16T11:39:56Z</time>
      </trkpt>
      <trkpt lat="48.09953" lon="-1.78682">
        <ele>85</ele>
        <time>2025-05-16T11:39:57Z</time>
      </trkpt>
      <trkpt lat="48.09951" lon="-1.78684">
        <ele>85</ele>
        <time>2025-05-16T11:39:58Z</time>
      </trkpt>
      <trkpt lat="48.09949" lon="-1.78686">
        <ele>85</ele>
        <time>2025-05-16T11:39:59Z</time>
      </trkpt>
      <trkpt lat="48.09947" lon="-1.78689">
        <ele>85</ele>
        <time>2025-05-16T11:40:00Z</time>
      </trkpt>
      <trkpt lat="48.09945" lon="-1.78692">
        <ele>85</ele>
        <time>2025-05-16T11:40:01Z</time>
      </trkpt>
      <trkpt lat="48.09944" lon="-1.78695">
        <ele>85</ele>
        <time>2025-05-16T11:40:02Z</time>
      </trkpt>
      <trkpt lat="48.09942" lon="-1.78698">
        <ele>85</ele>
        <time>2025-05-16T11:40:03Z</time>
      </trkpt>
      <trkpt lat="48.09939" lon="-1.78701">
        <ele>85</ele>
        <time>2025-05-16T11:40:04Z</time>
      </trkpt>
      <trkpt lat="48.09937" lon="-1.78705">
        <ele>85</ele>
        <time>2025-05-16T11:40:05Z</time>
      </trkpt>
      <trkpt lat="48.09934" lon="-1.78709">
        <ele>85</ele>
        <time>2025-05-16T11:40:06Z</time>
      </trkpt>
      <trkpt lat="48.09933" lon="-1.78713">
        <ele>84</ele>
        <time>2025-05-16T11:40:07Z</time>
      </trkpt>
      <trkpt lat="48.09932" lon="-1.78718">
        <ele>84</ele>
        <time>2025-05-16T11:40:08Z</time>
      </trkpt>
      <trkpt lat="48.0993" lon="-1.78722">
        <ele>84</ele>
        <time>2025-05-16T11:40:09Z</time>
      </trkpt>
      <trkpt lat="48.09929" lon="-1.78727">
        <ele>84</ele>
        <time>2025-05-16T11:40:10Z</time>
      </trkpt>
      <trkpt lat="48.09928" lon="-1.78731">
        <ele>84</ele>
        <time>2025-05-16T11:40:11Z</time>
      </trkpt>
      <trkpt lat="48.09926" lon="-1.78736">
        <ele>84</ele>
        <time>2025-05-16T11:40:12Z</time>
      </trkpt>
      <trkpt lat="48.09926" lon="-1.78741">
        <ele>84</ele>
        <time>2025-05-16T11:40:13Z</time>
      </trkpt>
      <trkpt lat="48.09925" lon="-1.78745">
        <ele>84</ele>
        <time>2025-05-16T11:40:14Z</time>
      </trkpt>
      <trkpt lat="48.09924" lon="-1.7875">
        <ele>84</ele>
        <time>2025-05-16T11:40:15Z</time>
      </trkpt>
      <trkpt lat="48.09922" lon="-1.78755">
        <ele>84</ele>
        <time>2025-05-16T11:40:16Z</time>
      </trkpt>
      <trkpt lat="48.09921" lon="-1.78759">
        <ele>84</ele>
        <time>2025-05-16T11:40:17Z</time>
      </trkpt>
      <trkpt lat="48.0992" lon="-1.78764">
        <ele>85</ele>
        <time>2025-05-16T11:40:18Z</time>
      </trkpt>
      <trkpt lat="48.09919" lon="-1.78768">
        <ele>85</ele>
        <time>2025-05-16T11:40:19Z</time>
      </trkpt>
      <trkpt lat="48.09918" lon="-1.78773">
        <ele>85</ele>
        <time>2025-05-16T11:40:20Z</time>
      </trkpt>
      <trkpt lat="48.09916" lon="-1.78777">
        <ele>85</ele>
        <time>2025-05-16T11:40:21Z</time>
      </trkpt>
      <trkpt lat="48.09914" lon="-1.78782">
        <ele>85</ele>
        <time>2025-05-16T11:40:22Z</time>
      </trkpt>
      <trkpt lat="48.09912" lon="-1.78786">
        <ele>85</ele>
        <time>2025-05-16T11:40:23Z</time>
      </trkpt>
      <trkpt lat="48.0991" lon="-1.78789">
        <ele>85</ele>
        <time>2025-05-16T11:40:24Z</time>
      </trkpt>
      <trkpt lat="48.09908" lon="-1.78793">
        <ele>86</ele>
        <time>2025-05-16T11:40:25Z</time>
      </trkpt>
      <trkpt lat="48.09906" lon="-1.78797">
        <ele>86</ele>
        <time>2025-05-16T11:40:26Z</time>
      </trkpt>
      <trkpt lat="48.09903" lon="-1.788">
        <ele>86</ele>
        <time>2025-05-16T11:40:27Z</time>
      </trkpt>
      <trkpt lat="48.09901" lon="-1.78803">
        <ele>86</ele>
        <time>2025-05-16T11:40:28Z</time>
      </trkpt>
      <trkpt lat="48.09898" lon="-1.78807">
        <ele>86</ele>
        <time>2025-05-16T11:40:29Z</time>
      </trkpt>
      <trkpt lat="48.09896" lon="-1.78809">
        <ele>86</ele>
        <time>2025-05-16T11:40:30Z</time>
      </trkpt>
      <trkpt lat="48.09894" lon="-1.78812">
        <ele>86</ele>
        <time>2025-05-16T11:40:31Z</time>
      </trkpt>
      <trkpt lat="48.09893" lon="-1.78816">
        <ele>86</ele>
        <time>2025-05-16T11:40:32Z</time>
      </trkpt>
      <trkpt lat="48.09893" lon="-1.7882">
        <ele>86</ele>
        <time>2025-05-16T11:40:33Z</time>
      </trkpt>
      <trkpt lat="48.09892" lon="-1.78823">
        <ele>86</ele>
        <time>2025-05-16T11:40:34Z</time>
      </trkpt>
      <trkpt lat="48.09891" lon="-1.78826">
        <ele>86</ele>
        <time>2025-05-16T11:40:35Z</time>
      </trkpt>
      <trkpt lat="48.09889" lon="-1.7883">
        <ele>86</ele>
        <time>2025-05-16T11:40:36Z</time>
      </trkpt>
      <trkpt lat="48.09887" lon="-1.78834">
        <ele>86</ele>
        <time>2025-05-16T11:40:37Z</time>
      </trkpt>
      <trkpt lat="48.09884" lon="-1.78837">
        <ele>86</ele>
        <time>2025-05-16T11:40:38Z</time>
      </trkpt>
      <trkpt lat="48.09882" lon="-1.7884">
        <ele>86</ele>
        <time>2025-05-16T11:40:39Z</time>
      </trkpt>
      <trkpt lat="48.09879" lon="-1.78841">
        <ele>86</ele>
        <time>2025-05-16T11:40:40Z</time>
      </trkpt>
      <trkpt lat="48.09876" lon="-1.78841">
        <ele>86</ele>
        <time>2025-05-16T11:40:41Z</time>
      </trkpt>
      <trkpt lat="48.09873" lon="-1.78841">
        <ele>87</ele>
        <time>2025-05-16T11:40:42Z</time>
      </trkpt>
      <trkpt lat="48.0987" lon="-1.78841">
        <ele>87</ele>
        <time>2025-05-16T11:40:43Z</time>
      </trkpt>
      <trkpt lat="48.09867" lon="-1.7884">
        <ele>87</ele>
        <time>2025-05-16T11:40:44Z</time>
      </trkpt>
      <trkpt lat="48.09864" lon="-1.78838">
        <ele>88</ele>
        <time>2025-05-16T11:40:45Z</time>
      </trkpt>
      <trkpt lat="48.09862" lon="-1.78834">
        <ele>88</ele>
        <time>2025-05-16T11:40:46Z</time>
      </trkpt>
      <trkpt lat="48.09859" lon="-1.78831">
        <ele>88</ele>
        <time>2025-05-16T11:40:47Z</time>
      </trkpt>
      <trkpt lat="48.09856" lon="-1.78829">
        <ele>88</ele>
        <time>2025-05-16T11:40:48Z</time>
      </trkpt>
      <trkpt lat="48.09854" lon="-1.78826">
        <ele>87</ele>
        <time>2025-05-16T11:40:49Z</time>
      </trkpt>
      <trkpt lat="48.09853" lon="-1.78821">
        <ele>87</ele>
        <time>2025-05-16T11:40:50Z</time>
      </trkpt>
      <trkpt lat="48.09852" lon="-1.78816">
        <ele>86</ele>
        <time>2025-05-16T11:40:51Z</time>
      </trkpt>
      <trkpt lat="48.09852" lon="-1.78811">
        <ele>86</ele>
        <time>2025-05-16T11:40:52Z</time>
      </trkpt>
      <trkpt lat="48.09853" lon="-1.78806">
        <ele>85</ele>
        <time>2025-05-16T11:40:53Z</time>
      </trkpt>
      <trkpt lat="48.09854" lon="-1.78801">
        <ele>85</ele>
        <time>2025-05-16T11:40:54Z</time>
      </trkpt>
      <trkpt lat="48.09854" lon="-1.78795">
        <ele>85</ele>
        <time>2025-05-16T11:40:55Z</time>
      </trkpt>
      <trkpt lat="48.09855" lon="-1.7879">
        <ele>85</ele>
        <time>2025-05-16T11:40:56Z</time>
      </trkpt>
      <trkpt lat="48.09856" lon="-1.78785">
        <ele>84</ele>
        <time>2025-05-16T11:40:57Z</time>
      </trkpt>
      <trkpt lat="48.09856" lon="-1.7878">
        <ele>84</ele>
        <time>2025-05-16T11:40:58Z</time>
      </trkpt>
      <trkpt lat="48.09857" lon="-1.78774">
        <ele>84</ele>
        <time>2025-05-16T11:40:59Z</time>
      </trkpt>
      <trkpt lat="48.09857" lon="-1.78769">
        <ele>84</ele>
        <time>2025-05-16T11:41:00Z</time>
      </trkpt>
      <trkpt lat="48.09857" lon="-1.78764">
        <ele>84</ele>
        <time>2025-05-16T11:41:01Z</time>
      </trkpt>
      <trkpt lat="48.09856" lon="-1.78759">
        <ele>84</ele>
        <time>2025-05-16T11:41:02Z</time>
      </trkpt>
      <trkpt lat="48.09855" lon="-1.78754">
        <ele>84</ele>
        <time>2025-05-16T11:41:03Z</time>
      </trkpt>
      <trkpt lat="48.09854" lon="-1.78749">
        <ele>84</ele>
        <time>2025-05-16T11:41:04Z</time>
      </trkpt>
      <trkpt lat="48.09853" lon="-1.78745">
        <ele>84</ele>
        <time>2025-05-16T11:41:05Z</time>
      </trkpt>
      <trkpt lat="48.09852" lon="-1.7874">
        <ele>84</ele>
        <time>2025-05-16T11:41:06Z</time>
      </trkpt>
      <trkpt lat="48.09851" lon="-1.78735">
        <ele>84</ele>
        <time>2025-05-16T11:41:07Z</time>
      </trkpt>
      <trkpt lat="48.0985" lon="-1.7873">
        <ele>84</ele>
        <time>2025-05-16T11:41:08Z</time>
      </trkpt>
      <trkpt lat="48.09849" lon="-1.78724">
        <ele>84</ele>
        <time>2025-05-16T11:41:09Z</time>
      </trkpt>
      <trkpt lat="48.09848" lon="-1.78719">
        <ele>85</ele>
        <time>2025-05-16T11:41:10Z</time>
      </trkpt>
      <trkpt lat="48.09847" lon="-1.78714">
        <ele>85</ele>
        <time>2025-05-16T11:41:11Z</time>
      </trkpt>
      <trkpt lat="48.09846" lon="-1.78709">
        <ele>85</ele>
        <time>2025-05-16T11:41:12Z</time>
      </trkpt>
      <trkpt lat="48.09846" lon="-1.78704">
        <ele>85</ele>
        <time>2025-05-16T11:41:13Z</time>
      </trkpt>
      <trkpt lat="48.09845" lon="-1.78698">
        <ele>85</ele>
        <time>2025-05-16T11:41:14Z</time>
      </trkpt>
      <trkpt lat="48.09844" lon="-1.78693">
        <ele>85</ele>
        <time>2025-05-16T11:41:15Z</time>
      </trkpt>
      <trkpt lat="48.09843" lon="-1.78688">
        <ele>85</ele>
        <time>2025-05-16T11:41:16Z</time>
      </trkpt>
      <trkpt lat="48.09842" lon="-1.78682">
        <ele>86</ele>
        <time>2025-05-16T11:41:17Z</time>
      </trkpt>
      <trkpt lat="48.09841" lon="-1.78676">
        <ele>86</ele>
        <time>2025-05-16T11:41:18Z</time>
      </trkpt>
      <trkpt lat="48.0984" lon="-1.78671">
        <ele>86</ele>
        <time>2025-05-16T11:41:19Z</time>
      </trkpt>
      <trkpt lat="48.09839" lon="-1.78666">
        <ele>87</ele>
        <time>2025-05-16T11:41:20Z</time>
      </trkpt>
      <trkpt lat="48.09838" lon="-1.78661">
        <ele>86</ele>
        <time>2025-05-16T11:41:21Z</time>
      </trkpt>
      <trkpt lat="48.09836" lon="-1.78655">
        <ele>86</ele>
        <time>2025-05-16T11:41:22Z</time>
      </trkpt>
      <trkpt lat="48.09836" lon="-1.7865">
        <ele>86</ele>
        <time>2025-05-16T11:41:23Z</time>
      </trkpt>
      <trkpt lat="48.09834" lon="-1.78645">
        <ele>86</ele>
        <time>2025-05-16T11:41:24Z</time>
      </trkpt>
      <trkpt lat="48.09833" lon="-1.7864">
        <ele>86</ele>
        <time>2025-05-16T11:41:25Z</time>
      </trkpt>
      <trkpt lat="48.09832" lon="-1.78635">
        <ele>86</ele>
        <time>2025-05-16T11:41:26Z</time>
      </trkpt>
      <trkpt lat="48.09831" lon="-1.7863">
        <ele>86</ele>
        <time>2025-05-16T11:41:27Z</time>
      </trkpt>
      <trkpt lat="48.09829" lon="-1.78625">
        <ele>86</ele>
        <time>2025-05-16T11:41:28Z</time>
      </trkpt>
      <trkpt lat="48.09828" lon="-1.7862">
        <ele>86</ele>
        <time>2025-05-16T11:41:29Z</time>
      </trkpt>
      <trkpt lat="48.09827" lon="-1.78615">
        <ele>86</ele>
        <time>2025-05-16T11:41:30Z</time>
      </trkpt>
      <trkpt lat="48.09826" lon="-1.7861">
        <ele>85</ele>
        <time>2025-05-16T11:41:31Z</time>
      </trkpt>
      <trkpt lat="48.09825" lon="-1.78605">
        <ele>86</ele>
        <time>2025-05-16T11:41:32Z</time>
      </trkpt>
      <trkpt lat="48.09824" lon="-1.786">
        <ele>86</ele>
        <time>2025-05-16T11:41:33Z</time>
      </trkpt>
      <trkpt lat="48.09823" lon="-1.78595">
        <ele>86</ele>
        <time>2025-05-16T11:41:34Z</time>
      </trkpt>
      <trkpt lat="48.09822" lon="-1.7859">
        <ele>86</ele>
        <time>2025-05-16T11:41:35Z</time>
      </trkpt>
      <trkpt lat="48.09821" lon="-1.78584">
        <ele>86</ele>
        <time>2025-05-16T11:41:36Z</time>
      </trkpt>
      <trkpt lat="48.0982" lon="-1.78579">
        <ele>86</ele>
        <time>2025-05-16T11:41:37Z</time>
      </trkpt>
      <trkpt lat="48.09819" lon="-1.78574">
        <ele>86</ele>
        <time>2025-05-16T11:41:38Z</time>
      </trkpt>
      <trkpt lat="48.09818" lon="-1.78569">
        <ele>86</ele>
        <time>2025-05-16T11:41:39Z</time>
      </trkpt>
      <trkpt lat="48.09817" lon="-1.78564">
        <ele>86</ele>
        <time>2025-05-16T11:41:40Z</time>
      </trkpt>
      <trkpt lat="48.09816" lon="-1.78559">
        <ele>86</ele>
        <time>2025-05-16T11:41:41Z</time>
      </trkpt>
      <trkpt lat="48.09815" lon="-1.78554">
        <ele>86</ele>
        <time>2025-05-16T11:41:42Z</time>
      </trkpt>
      <trkpt lat="48.09814" lon="-1.78549">
        <ele>87</ele>
        <time>2025-05-16T11:41:43Z</time>
      </trkpt>
      <trkpt lat="48.09813" lon="-1.78544">
        <ele>87</ele>
        <time>2025-05-16T11:41:44Z</time>
      </trkpt>
      <trkpt lat="48.09812" lon="-1.78538">
        <ele>87</ele>
        <time>2025-05-16T11:41:45Z</time>
      </trkpt>
      <trkpt lat="48.09811" lon="-1.78532">
        <ele>87</ele>
        <time>2025-05-16T11:41:46Z</time>
      </trkpt>
      <trkpt lat="48.0981" lon="-1.78527">
        <ele>87</ele>
        <time>2025-05-16T11:41:47Z</time>
      </trkpt>
      <trkpt lat="48.09809" lon="-1.78522">
        <ele>87</ele>
        <time>2025-05-16T11:41:48Z</time>
      </trkpt>
      <trkpt lat="48.09808" lon="-1.78517">
        <ele>87</ele>
        <time>2025-05-16T11:41:49Z</time>
      </trkpt>
      <trkpt lat="48.09807" lon="-1.78513">
        <ele>87</ele>
        <time>2025-05-16T11:41:50Z</time>
      </trkpt>
      <trkpt lat="48.09806" lon="-1.78508">
        <ele>87</ele>
        <time>2025-05-16T11:41:51Z</time>
      </trkpt>
      <trkpt lat="48.09805" lon="-1.78503">
        <ele>87</ele>
        <time>2025-05-16T11:41:52Z</time>
      </trkpt>
      <trkpt lat="48.09804" lon="-1.78498">
        <ele>87</ele>
        <time>2025-05-16T11:41:53Z</time>
      </trkpt>
      <trkpt lat="48.09803" lon="-1.78493">
        <ele>86</ele>
        <time>2025-05-16T11:41:54Z</time>
      </trkpt>
      <trkpt lat="48.09802" lon="-1.78488">
        <ele>87</ele>
        <time>2025-05-16T11:41:55Z</time>
      </trkpt>
      <trkpt lat="48.09801" lon="-1.78483">
        <ele>87</ele>
        <time>2025-05-16T11:41:56Z</time>
      </trkpt>
      <trkpt lat="48.098" lon="-1.78478">
        <ele>87</ele>
        <time>2025-05-16T11:41:57Z</time>
      </trkpt>
      <trkpt lat="48.09799" lon="-1.78474">
        <ele>87</ele>
        <time>2025-05-16T11:41:58Z</time>
      </trkpt>
      <trkpt lat="48.09798" lon="-1.78469">
        <ele>86</ele>
        <time>2025-05-16T11:41:59Z</time>
      </trkpt>
      <trkpt lat="48.09798" lon="-1.78464">
        <ele>86</ele>
        <time>2025-05-16T11:42:00Z</time>
      </trkpt>
      <trkpt lat="48.09797" lon="-1.7846">
        <ele>86</ele>
        <time>2025-05-16T11:42:01Z</time>
      </trkpt>
      <trkpt lat="48.09796" lon="-1.78455">
        <ele>86</ele>
        <time>2025-05-16T11:42:02Z</time>
      </trkpt>
      <trkpt lat="48.09795" lon="-1.7845">
        <ele>86</ele>
        <time>2025-05-16T11:42:03Z</time>
      </trkpt>
      <trkpt lat="48.09794" lon="-1.78445">
        <ele>86</ele>
        <time>2025-05-16T11:42:04Z</time>
      </trkpt>
      <trkpt lat="48.09793" lon="-1.7844">
        <ele>86</ele>
        <time>2025-05-16T11:42:05Z</time>
      </trkpt>
      <trkpt lat="48.09792" lon="-1.78435">
        <ele>87</ele>
        <time>2025-05-16T11:42:06Z</time>
      </trkpt>
      <trkpt lat="48.09791" lon="-1.78429">
        <ele>87</ele>
        <time>2025-05-16T11:42:07Z</time>
      </trkpt>
      <trkpt lat="48.0979" lon="-1.78423">
        <ele>87</ele>
        <time>2025-05-16T11:42:08Z</time>
      </trkpt>
      <trkpt lat="48.09789" lon="-1.78417">
        <ele>87</ele>
        <time>2025-05-16T11:42:09Z</time>
      </trkpt>
      <trkpt lat="48.09788" lon="-1.78411">
        <ele>87</ele>
        <time>2025-05-16T11:42:10Z</time>
      </trkpt>
      <trkpt lat="48.09787" lon="-1.78406">
        <ele>87</ele>
        <time>2025-05-16T11:42:11Z</time>
      </trkpt>
      <trkpt lat="48.09786" lon="-1.784">
        <ele>88</ele>
        <time>2025-05-16T11:42:12Z</time>
      </trkpt>
      <trkpt lat="48.09784" lon="-1.78394">
        <ele>88</ele>
        <time>2025-05-16T11:42:13Z</time>
      </trkpt>
      <trkpt lat="48.09783" lon="-1.78388">
        <ele>88</ele>
        <time>2025-05-16T11:42:14Z</time>
      </trkpt>
      <trkpt lat="48.09782" lon="-1.78382">
        <ele>87</ele>
        <time>2025-05-16T11:42:15Z</time>
      </trkpt>
      <trkpt lat="48.09781" lon="-1.78375">
        <ele>87</ele>
        <time>2025-05-16T11:42:16Z</time>
      </trkpt>
      <trkpt lat="48.0978" lon="-1.78368">
        <ele>87</ele>
        <time>2025-05-16T11:42:17Z</time>
      </trkpt>
      <trkpt lat="48.09779" lon="-1.78361">
        <ele>87</ele>
        <time>2025-05-16T11:42:18Z</time>
      </trkpt>
      <trkpt lat="48.09778" lon="-1.78354">
        <ele>87</ele>
        <time>2025-05-16T11:42:19Z</time>
      </trkpt>
      <trkpt lat="48.09777" lon="-1.78347">
        <ele>87</ele>
        <time>2025-05-16T11:42:20Z</time>
      </trkpt>
      <trkpt lat="48.09776" lon="-1.7834">
        <ele>87</ele>
        <time>2025-05-16T11:42:21Z</time>
      </trkpt>
      <trkpt lat="48.09774" lon="-1.78333">
        <ele>87</ele>
        <time>2025-05-16T11:42:22Z</time>
      </trkpt>
      <trkpt lat="48.09773" lon="-1.78326">
        <ele>87</ele>
        <time>2025-05-16T11:42:23Z</time>
      </trkpt>
      <trkpt lat="48.0977" lon="-1.78319">
        <ele>86</ele>
        <time>2025-05-16T11:42:24Z</time>
      </trkpt>
      <trkpt lat="48.09768" lon="-1.78312">
        <ele>85</ele>
        <time>2025-05-16T11:42:25Z</time>
      </trkpt>
      <trkpt lat="48.09767" lon="-1.78305">
        <ele>85</ele>
        <time>2025-05-16T11:42:26Z</time>
      </trkpt>
      <trkpt lat="48.09766" lon="-1.78298">
        <ele>85</ele>
        <time>2025-05-16T11:42:27Z</time>
      </trkpt>
      <trkpt lat="48.09766" lon="-1.78291">
        <ele>85</ele>
        <time>2025-05-16T11:42:28Z</time>
      </trkpt>
      <trkpt lat="48.09767" lon="-1.78283">
        <ele>86</ele>
        <time>2025-05-16T11:42:29Z</time>
      </trkpt>
      <trkpt lat="48.09766" lon="-1.78276">
        <ele>86</ele>
        <time>2025-05-16T11:42:30Z</time>
      </trkpt>
      <trkpt lat="48.09766" lon="-1.78271">
        <ele>86</ele>
        <time>2025-05-16T11:42:31Z</time>
      </trkpt>
      <trkpt lat="48.09765" lon="-1.78264">
        <ele>86</ele>
        <time>2025-05-16T11:42:32Z</time>
      </trkpt>
      <trkpt lat="48.09764" lon="-1.78257">
        <ele>86</ele>
        <time>2025-05-16T11:42:33Z</time>
      </trkpt>
      <trkpt lat="48.09763" lon="-1.78251">
        <ele>86</ele>
        <time>2025-05-16T11:42:34Z</time>
      </trkpt>
      <trkpt lat="48.09763" lon="-1.78244">
        <ele>86</ele>
        <time>2025-05-16T11:42:35Z</time>
      </trkpt>
      <trkpt lat="48.09762" lon="-1.78236">
        <ele>86</ele>
        <time>2025-05-16T11:42:36Z</time>
      </trkpt>
      <trkpt lat="48.09762" lon="-1.78228">
        <ele>86</ele>
        <time>2025-05-16T11:42:37Z</time>
      </trkpt>
      <trkpt lat="48.09761" lon="-1.78221">
        <ele>86</ele>
        <time>2025-05-16T11:42:38Z</time>
      </trkpt>
      <trkpt lat="48.0976" lon="-1.78214">
        <ele>86</ele>
        <time>2025-05-16T11:42:39Z</time>
      </trkpt>
      <trkpt lat="48.09759" lon="-1.78207">
        <ele>86</ele>
        <time>2025-05-16T11:42:40Z</time>
      </trkpt>
      <trkpt lat="48.09758" lon="-1.78199">
        <ele>85</ele>
        <time>2025-05-16T11:42:41Z</time>
      </trkpt>
      <trkpt lat="48.09757" lon="-1.78192">
        <ele>85</ele>
        <time>2025-05-16T11:42:42Z</time>
      </trkpt>
      <trkpt lat="48.09756" lon="-1.78184">
        <ele>85</ele>
        <time>2025-05-16T11:42:43Z</time>
      </trkpt>
      <trkpt lat="48.09755" lon="-1.78176">
        <ele>85</ele>
        <time>2025-05-16T11:42:44Z</time>
      </trkpt>
      <trkpt lat="48.09754" lon="-1.78169">
        <ele>84</ele>
        <time>2025-05-16T11:42:45Z</time>
      </trkpt>
      <trkpt lat="48.09753" lon="-1.78161">
        <ele>84</ele>
        <time>2025-05-16T11:42:46Z</time>
      </trkpt>
      <trkpt lat="48.09752" lon="-1.78154">
        <ele>85</ele>
        <time>2025-05-16T11:42:47Z</time>
      </trkpt>
      <trkpt lat="48.09752" lon="-1.78146">
        <ele>85</ele>
        <time>2025-05-16T11:42:48Z</time>
      </trkpt>
      <trkpt lat="48.09751" lon="-1.78139">
        <ele>85</ele>
        <time>2025-05-16T11:42:49Z</time>
      </trkpt>
      <trkpt lat="48.0975" lon="-1.78131">
        <ele>85</ele>
        <time>2025-05-16T11:42:50Z</time>
      </trkpt>
      <trkpt lat="48.09749" lon="-1.78123">
        <ele>86</ele>
        <time>2025-05-16T11:42:51Z</time>
      </trkpt>
      <trkpt lat="48.09748" lon="-1.78116">
        <ele>85</ele>
        <time>2025-05-16T11:42:52Z</time>
      </trkpt>
      <trkpt lat="48.09747" lon="-1.78109">
        <ele>85</ele>
        <time>2025-05-16T11:42:53Z</time>
      </trkpt>
      <trkpt lat="48.09746" lon="-1.78101">
        <ele>85</ele>
        <time>2025-05-16T11:42:54Z</time>
      </trkpt>
      <trkpt lat="48.09746" lon="-1.78094">
        <ele>85</ele>
        <time>2025-05-16T11:42:55Z</time>
      </trkpt>
      <trkpt lat="48.09745" lon="-1.78088">
        <ele>85</ele>
        <time>2025-05-16T11:42:56Z</time>
      </trkpt>
      <trkpt lat="48.09744" lon="-1.78081">
        <ele>85</ele>
        <time>2025-05-16T11:42:57Z</time>
      </trkpt>
      <trkpt lat="48.09743" lon="-1.78075">
        <ele>85</ele>
        <time>2025-05-16T11:42:58Z</time>
      </trkpt>
      <trkpt lat="48.09743" lon="-1.78068">
        <ele>85</ele>
        <time>2025-05-16T11:42:59Z</time>
      </trkpt>
      <trkpt lat="48.09742" lon="-1.78061">
        <ele>84</ele>
        <time>2025-05-16T11:43:00Z</time>
      </trkpt>
      <trkpt lat="48.09741" lon="-1.78055">
        <ele>84</ele>
        <time>2025-05-16T11:43:01Z</time>
      </trkpt>
      <trkpt lat="48.09741" lon="-1.78049">
        <ele>84</ele>
        <time>2025-05-16T11:43:02Z</time>
      </trkpt>
      <trkpt lat="48.0974" lon="-1.78043">
        <ele>84</ele>
        <time>2025-05-16T11:43:03Z</time>
      </trkpt>
      <trkpt lat="48.09739" lon="-1.78037">
        <ele>84</ele>
        <time>2025-05-16T11:43:04Z</time>
      </trkpt>
      <trkpt lat="48.09738" lon="-1.78031">
        <ele>84</ele>
        <time>2025-05-16T11:43:05Z</time>
      </trkpt>
      <trkpt lat="48.09737" lon="-1.78025">
        <ele>84</ele>
        <time>2025-05-16T11:43:06Z</time>
      </trkpt>
      <trkpt lat="48.09737" lon="-1.78019">
        <ele>84</ele>
        <time>2025-05-16T11:43:07Z</time>
      </trkpt>
      <trkpt lat="48.09736" lon="-1.78013">
        <ele>84</ele>
        <time>2025-05-16T11:43:08Z</time>
      </trkpt>
      <trkpt lat="48.09735" lon="-1.78007">
        <ele>84</ele>
        <time>2025-05-16T11:43:09Z</time>
      </trkpt>
      <trkpt lat="48.09735" lon="-1.78001">
        <ele>84</ele>
        <time>2025-05-16T11:43:10Z</time>
      </trkpt>
      <trkpt lat="48.09734" lon="-1.77996">
        <ele>84</ele>
        <time>2025-05-16T11:43:11Z</time>
      </trkpt>
      <trkpt lat="48.09732" lon="-1.7799">
        <ele>84</ele>
        <time>2025-05-16T11:43:12Z</time>
      </trkpt>
      <trkpt lat="48.09731" lon="-1.77984">
        <ele>84</ele>
        <time>2025-05-16T11:43:13Z</time>
      </trkpt>
      <trkpt lat="48.09731" lon="-1.77978">
        <ele>84</ele>
        <time>2025-05-16T11:43:14Z</time>
      </trkpt>
      <trkpt lat="48.0973" lon="-1.77972">
        <ele>83</ele>
        <time>2025-05-16T11:43:15Z</time>
      </trkpt>
      <trkpt lat="48.0973" lon="-1.77965">
        <ele>84</ele>
        <time>2025-05-16T11:43:16Z</time>
      </trkpt>
      <trkpt lat="48.09729" lon="-1.77959">
        <ele>85</ele>
        <time>2025-05-16T11:43:17Z</time>
      </trkpt>
      <trkpt lat="48.09728" lon="-1.77954">
        <ele>85</ele>
        <time>2025-05-16T11:43:18Z</time>
      </trkpt>
      <trkpt lat="48.09728" lon="-1.77947">
        <ele>85</ele>
        <time>2025-05-16T11:43:19Z</time>
      </trkpt>
      <trkpt lat="48.09727" lon="-1.77941">
        <ele>85</ele>
        <time>2025-05-16T11:43:20Z</time>
      </trkpt>
      <trkpt lat="48.09726" lon="-1.77936">
        <ele>85</ele>
        <time>2025-05-16T11:43:21Z</time>
      </trkpt>
      <trkpt lat="48.09725" lon="-1.7793">
        <ele>85</ele>
        <time>2025-05-16T11:43:22Z</time>
      </trkpt>
      <trkpt lat="48.09724" lon="-1.77924">
        <ele>85</ele>
        <time>2025-05-16T11:43:23Z</time>
      </trkpt>
      <trkpt lat="48.09724" lon="-1.77919">
        <ele>85</ele>
        <time>2025-05-16T11:43:24Z</time>
      </trkpt>
      <trkpt lat="48.09723" lon="-1.77913">
        <ele>85</ele>
        <time>2025-05-16T11:43:25Z</time>
      </trkpt>
      <trkpt lat="48.09723" lon="-1.77907">
        <ele>85</ele>
        <time>2025-05-16T11:43:26Z</time>
      </trkpt>
      <trkpt lat="48.09722" lon="-1.77902">
        <ele>84</ele>
        <time>2025-05-16T11:43:27Z</time>
      </trkpt>
      <trkpt lat="48.09721" lon="-1.77897">
        <ele>84</ele>
        <time>2025-05-16T11:43:28Z</time>
      </trkpt>
      <trkpt lat="48.0972" lon="-1.77891">
        <ele>85</ele>
        <time>2025-05-16T11:43:29Z</time>
      </trkpt>
      <trkpt lat="48.09719" lon="-1.77885">
        <ele>84</ele>
        <time>2025-05-16T11:43:30Z</time>
      </trkpt>
      <trkpt lat="48.09717" lon="-1.77881">
        <ele>85</ele>
        <time>2025-05-16T11:43:31Z</time>
      </trkpt>
      <trkpt lat="48.09715" lon="-1.77876">
        <ele>85</ele>
        <time>2025-05-16T11:43:32Z</time>
      </trkpt>
      <trkpt lat="48.09713" lon="-1.77872">
        <ele>85</ele>
        <time>2025-05-16T11:43:33Z</time>
      </trkpt>
      <trkpt lat="48.0971" lon="-1.77868">
        <ele>86</ele>
        <time>2025-05-16T11:43:34Z</time>
      </trkpt>
      <trkpt lat="48.09707" lon="-1.77865">
        <ele>85</ele>
        <time>2025-05-16T11:43:35Z</time>
      </trkpt>
      <trkpt lat="48.09704" lon="-1.77861">
        <ele>85</ele>
        <time>2025-05-16T11:43:36Z</time>
      </trkpt>
      <trkpt lat="48.09701" lon="-1.77857">
        <ele>85</ele>
        <time>2025-05-16T11:43:37Z</time>
      </trkpt>
      <trkpt lat="48.09698" lon="-1.77854">
        <ele>85</ele>
        <time>2025-05-16T11:43:38Z</time>
      </trkpt>
      <trkpt lat="48.09696" lon="-1.77849">
        <ele>86</ele>
        <time>2025-05-16T11:43:39Z</time>
      </trkpt>
      <trkpt lat="48.09694" lon="-1.77844">
        <ele>86</ele>
        <time>2025-05-16T11:43:40Z</time>
      </trkpt>
      <trkpt lat="48.09694" lon="-1.77839">
        <ele>86</ele>
        <time>2025-05-16T11:43:41Z</time>
      </trkpt>
      <trkpt lat="48.09693" lon="-1.77834">
        <ele>86</ele>
        <time>2025-05-16T11:43:42Z</time>
      </trkpt>
      <trkpt lat="48.09692" lon="-1.77829">
        <ele>86</ele>
        <time>2025-05-16T11:43:43Z</time>
      </trkpt>
      <trkpt lat="48.09692" lon="-1.77823">
        <ele>86</ele>
        <time>2025-05-16T11:43:44Z</time>
      </trkpt>
      <trkpt lat="48.09693" lon="-1.77818">
        <ele>86</ele>
        <time>2025-05-16T11:43:45Z</time>
      </trkpt>
      <trkpt lat="48.09695" lon="-1.77812">
        <ele>86</ele>
        <time>2025-05-16T11:43:46Z</time>
      </trkpt>
      <trkpt lat="48.09696" lon="-1.77806">
        <ele>87</ele>
        <time>2025-05-16T11:43:47Z</time>
      </trkpt>
      <trkpt lat="48.09697" lon="-1.778">
        <ele>86</ele>
        <time>2025-05-16T11:43:48Z</time>
      </trkpt>
      <trkpt lat="48.09698" lon="-1.77793">
        <ele>86</ele>
        <time>2025-05-16T11:43:49Z</time>
      </trkpt>
      <trkpt lat="48.097" lon="-1.77787">
        <ele>86</ele>
        <time>2025-05-16T11:43:50Z</time>
      </trkpt>
      <trkpt lat="48.09701" lon="-1.77782">
        <ele>85</ele>
        <time>2025-05-16T11:43:51Z</time>
      </trkpt>
      <trkpt lat="48.09702" lon="-1.77776">
        <ele>85</ele>
        <time>2025-05-16T11:43:52Z</time>
      </trkpt>
      <trkpt lat="48.09704" lon="-1.7777">
        <ele>85</ele>
        <time>2025-05-16T11:43:53Z</time>
      </trkpt>
      <trkpt lat="48.09704" lon="-1.77764">
        <ele>85</ele>
        <time>2025-05-16T11:43:54Z</time>
      </trkpt>
      <trkpt lat="48.09705" lon="-1.77758">
        <ele>84</ele>
        <time>2025-05-16T11:43:55Z</time>
      </trkpt>
      <trkpt lat="48.09704" lon="-1.77752">
        <ele>84</ele>
        <time>2025-05-16T11:43:56Z</time>
      </trkpt>
      <trkpt lat="48.09704" lon="-1.77745">
        <ele>84</ele>
        <time>2025-05-16T11:43:57Z</time>
      </trkpt>
      <trkpt lat="48.09703" lon="-1.77739">
        <ele>84</ele>
        <time>2025-05-16T11:43:58Z</time>
      </trkpt>
      <trkpt lat="48.09702" lon="-1.77733">
        <ele>84</ele>
        <time>2025-05-16T11:43:59Z</time>
      </trkpt>
      <trkpt lat="48.09702" lon="-1.77727">
        <ele>84</ele>
        <time>2025-05-16T11:44:00Z</time>
      </trkpt>
      <trkpt lat="48.09701" lon="-1.77721">
        <ele>84</ele>
        <time>2025-05-16T11:44:01Z</time>
      </trkpt>
      <trkpt lat="48.09701" lon="-1.77715">
        <ele>84</ele>
        <time>2025-05-16T11:44:02Z</time>
      </trkpt>
      <trkpt lat="48.097" lon="-1.77708">
        <ele>84</ele>
        <time>2025-05-16T11:44:03Z</time>
      </trkpt>
      <trkpt lat="48.097" lon="-1.77701">
        <ele>84</ele>
        <time>2025-05-16T11:44:04Z</time>
      </trkpt>
      <trkpt lat="48.09699" lon="-1.77695">
        <ele>84</ele>
        <time>2025-05-16T11:44:05Z</time>
      </trkpt>
      <trkpt lat="48.09698" lon="-1.77688">
        <ele>84</ele>
        <time>2025-05-16T11:44:06Z</time>
      </trkpt>
      <trkpt lat="48.09697" lon="-1.77681">
        <ele>84</ele>
        <time>2025-05-16T11:44:07Z</time>
      </trkpt>
      <trkpt lat="48.09697" lon="-1.77674">
        <ele>84</ele>
        <time>2025-05-16T11:44:08Z</time>
      </trkpt>
      <trkpt lat="48.09696" lon="-1.77668">
        <ele>84</ele>
        <time>2025-05-16T11:44:09Z</time>
      </trkpt>
      <trkpt lat="48.09695" lon="-1.77662">
        <ele>84</ele>
        <time>2025-05-16T11:44:10Z</time>
      </trkpt>
      <trkpt lat="48.09695" lon="-1.77655">
        <ele>84</ele>
        <time>2025-05-16T11:44:11Z</time>
      </trkpt>
      <trkpt lat="48.09694" lon="-1.77649">
        <ele>84</ele>
        <time>2025-05-16T11:44:12Z</time>
      </trkpt>
      <trkpt lat="48.09693" lon="-1.77643">
        <ele>84</ele>
        <time>2025-05-16T11:44:13Z</time>
      </trkpt>
      <trkpt lat="48.09692" lon="-1.77636">
        <ele>84</ele>
        <time>2025-05-16T11:44:14Z</time>
      </trkpt>
      <trkpt lat="48.09691" lon="-1.7763">
        <ele>84</ele>
        <time>2025-05-16T11:44:15Z</time>
      </trkpt>
      <trkpt lat="48.0969" lon="-1.77623">
        <ele>84</ele>
        <time>2025-05-16T11:44:16Z</time>
      </trkpt>
      <trkpt lat="48.09689" lon="-1.77617">
        <ele>83</ele>
        <time>2025-05-16T11:44:17Z</time>
      </trkpt>
      <trkpt lat="48.09688" lon="-1.7761">
        <ele>83</ele>
        <time>2025-05-16T11:44:18Z</time>
      </trkpt>
      <trkpt lat="48.09687" lon="-1.77603">
        <ele>83</ele>
        <time>2025-05-16T11:44:19Z</time>
      </trkpt>
      <trkpt lat="48.09687" lon="-1.77596">
        <ele>83</ele>
        <time>2025-05-16T11:44:20Z</time>
      </trkpt>
      <trkpt lat="48.09686" lon="-1.77588">
        <ele>84</ele>
        <time>2025-05-16T11:44:21Z</time>
      </trkpt>
      <trkpt lat="48.09685" lon="-1.77581">
        <ele>84</ele>
        <time>2025-05-16T11:44:22Z</time>
      </trkpt>
      <trkpt lat="48.09684" lon="-1.77574">
        <ele>84</ele>
        <time>2025-05-16T11:44:23Z</time>
      </trkpt>
      <trkpt lat="48.09684" lon="-1.77567">
        <ele>85</ele>
        <time>2025-05-16T11:44:24Z</time>
      </trkpt>
      <trkpt lat="48.09683" lon="-1.7756">
        <ele>85</ele>
        <time>2025-05-16T11:44:25Z</time>
      </trkpt>
      <trkpt lat="48.09682" lon="-1.77554">
        <ele>85</ele>
        <time>2025-05-16T11:44:26Z</time>
      </trkpt>
      <trkpt lat="48.09682" lon="-1.77547">
        <ele>85</ele>
        <time>2025-05-16T11:44:27Z</time>
      </trkpt>
      <trkpt lat="48.09682" lon="-1.77541">
        <ele>85</ele>
        <time>2025-05-16T11:44:28Z</time>
      </trkpt>
      <trkpt lat="48.09681" lon="-1.77535">
        <ele>86</ele>
        <time>2025-05-16T11:44:29Z</time>
      </trkpt>
      <trkpt lat="48.0968" lon="-1.77529">
        <ele>86</ele>
        <time>2025-05-16T11:44:30Z</time>
      </trkpt>
      <trkpt lat="48.09679" lon="-1.77523">
        <ele>86</ele>
        <time>2025-05-16T11:44:31Z</time>
      </trkpt>
      <trkpt lat="48.09678" lon="-1.77518">
        <ele>86</ele>
        <time>2025-05-16T11:44:32Z</time>
      </trkpt>
      <trkpt lat="48.09677" lon="-1.77511">
        <ele>87</ele>
        <time>2025-05-16T11:44:33Z</time>
      </trkpt>
      <trkpt lat="48.09677" lon="-1.77506">
        <ele>87</ele>
        <time>2025-05-16T11:44:34Z</time>
      </trkpt>
      <trkpt lat="48.09676" lon="-1.775">
        <ele>87</ele>
        <time>2025-05-16T11:44:35Z</time>
      </trkpt>
      <trkpt lat="48.09675" lon="-1.77495">
        <ele>87</ele>
        <time>2025-05-16T11:44:36Z</time>
      </trkpt>
      <trkpt lat="48.09675" lon="-1.7749">
        <ele>87</ele>
        <time>2025-05-16T11:44:37Z</time>
      </trkpt>
      <trkpt lat="48.09674" lon="-1.77485">
        <ele>87</ele>
        <time>2025-05-16T11:44:38Z</time>
      </trkpt>
      <trkpt lat="48.09674" lon="-1.7748">
        <ele>87</ele>
        <time>2025-05-16T11:44:39Z</time>
      </trkpt>
      <trkpt lat="48.09673" lon="-1.77475">
        <ele>87</ele>
        <time>2025-05-16T11:44:40Z</time>
      </trkpt>
      <trkpt lat="48.09673" lon="-1.7747">
        <ele>88</ele>
        <time>2025-05-16T11:44:41Z</time>
      </trkpt>
      <trkpt lat="48.09672" lon="-1.77464">
        <ele>88</ele>
        <time>2025-05-16T11:44:42Z</time>
      </trkpt>
      <trkpt lat="48.09672" lon="-1.77459">
        <ele>88</ele>
        <time>2025-05-16T11:44:43Z</time>
      </trkpt>
      <trkpt lat="48.09671" lon="-1.77454">
        <ele>88</ele>
        <time>2025-05-16T11:44:44Z</time>
      </trkpt>
      <trkpt lat="48.0967" lon="-1.77449">
        <ele>88</ele>
        <time>2025-05-16T11:44:45Z</time>
      </trkpt>
      <trkpt lat="48.0967" lon="-1.77444">
        <ele>88</ele>
        <time>2025-05-16T11:44:46Z</time>
      </trkpt>
      <trkpt lat="48.09669" lon="-1.77439">
        <ele>88</ele>
        <time>2025-05-16T11:44:47Z</time>
      </trkpt>
      <trkpt lat="48.09669" lon="-1.77434">
        <ele>88</ele>
        <time>2025-05-16T11:44:48Z</time>
      </trkpt>
      <trkpt lat="48.09669" lon="-1.77429">
        <ele>88</ele>
        <time>2025-05-16T11:44:49Z</time>
      </trkpt>
      <trkpt lat="48.09668" lon="-1.77425">
        <ele>88</ele>
        <time>2025-05-16T11:44:50Z</time>
      </trkpt>
      <trkpt lat="48.09667" lon="-1.7742">
        <ele>88</ele>
        <time>2025-05-16T11:44:51Z</time>
      </trkpt>
      <trkpt lat="48.09667" lon="-1.77415">
        <ele>88</ele>
        <time>2025-05-16T11:44:52Z</time>
      </trkpt>
      <trkpt lat="48.09666" lon="-1.7741">
        <ele>88</ele>
        <time>2025-05-16T11:44:53Z</time>
      </trkpt>
      <trkpt lat="48.09665" lon="-1.77405">
        <ele>88</ele>
        <time>2025-05-16T11:44:54Z</time>
      </trkpt>
      <trkpt lat="48.09665" lon="-1.774">
        <ele>88</ele>
        <time>2025-05-16T11:44:55Z</time>
      </trkpt>
      <trkpt lat="48.09665" lon="-1.77394">
        <ele>88</ele>
        <time>2025-05-16T11:44:56Z</time>
      </trkpt>
      <trkpt lat="48.09664" lon="-1.7739">
        <ele>88</ele>
        <time>2025-05-16T11:44:57Z</time>
      </trkpt>
      <trkpt lat="48.09664" lon="-1.77385">
        <ele>88</ele>
        <time>2025-05-16T11:44:58Z</time>
      </trkpt>
      <trkpt lat="48.09664" lon="-1.7738">
        <ele>89</ele>
        <time>2025-05-16T11:44:59Z</time>
      </trkpt>
      <trkpt lat="48.09663" lon="-1.77375">
        <ele>89</ele>
        <time>2025-05-16T11:45:00Z</time>
      </trkpt>
      <trkpt lat="48.09662" lon="-1.77371">
        <ele>89</ele>
        <time>2025-05-16T11:45:01Z</time>
      </trkpt>
      <trkpt lat="48.09661" lon="-1.77366">
        <ele>89</ele>
        <time>2025-05-16T11:45:02Z</time>
      </trkpt>
      <trkpt lat="48.09661" lon="-1.77362">
        <ele>89</ele>
        <time>2025-05-16T11:45:03Z</time>
      </trkpt>
      <trkpt lat="48.0966" lon="-1.77357">
        <ele>90</ele>
        <time>2025-05-16T11:45:04Z</time>
      </trkpt>
      <trkpt lat="48.0966" lon="-1.77353">
        <ele>90</ele>
        <time>2025-05-16T11:45:05Z</time>
      </trkpt>
      <trkpt lat="48.0966" lon="-1.77348">
        <ele>90</ele>
        <time>2025-05-16T11:45:06Z</time>
      </trkpt>
      <trkpt lat="48.09659" lon="-1.77344">
        <ele>90</ele>
        <time>2025-05-16T11:45:07Z</time>
      </trkpt>
      <trkpt lat="48.09659" lon="-1.7734">
        <ele>90</ele>
        <time>2025-05-16T11:45:08Z</time>
      </trkpt>
      <trkpt lat="48.09659" lon="-1.77336">
        <ele>90</ele>
        <time>2025-05-16T11:45:09Z</time>
      </trkpt>
      <trkpt lat="48.09659" lon="-1.77332">
        <ele>89</ele>
        <time>2025-05-16T11:45:10Z</time>
      </trkpt>
      <trkpt lat="48.09658" lon="-1.77328">
        <ele>89</ele>
        <time>2025-05-16T11:45:11Z</time>
      </trkpt>
      <trkpt lat="48.09658" lon="-1.77323">
        <ele>89</ele>
        <time>2025-05-16T11:45:12Z</time>
      </trkpt>
      <trkpt lat="48.09657" lon="-1.77319">
        <ele>90</ele>
        <time>2025-05-16T11:45:13Z</time>
      </trkpt>
      <trkpt lat="48.09657" lon="-1.77315">
        <ele>90</ele>
        <time>2025-05-16T11:45:14Z</time>
      </trkpt>
      <trkpt lat="48.09656" lon="-1.7731">
        <ele>90</ele>
        <time>2025-05-16T11:45:15Z</time>
      </trkpt>
      <trkpt lat="48.09656" lon="-1.77306">
        <ele>90</ele>
        <time>2025-05-16T11:45:16Z</time>
      </trkpt>
      <trkpt lat="48.09656" lon="-1.77302">
        <ele>90</ele>
        <time>2025-05-16T11:45:17Z</time>
      </trkpt>
      <trkpt lat="48.09655" lon="-1.77298">
        <ele>90</ele>
        <time>2025-05-16T11:45:18Z</time>
      </trkpt>
      <trkpt lat="48.09655" lon="-1.77295">
        <ele>91</ele>
        <time>2025-05-16T11:45:19Z</time>
      </trkpt>
      <trkpt lat="48.09655" lon="-1.7729">
        <ele>91</ele>
        <time>2025-05-16T11:45:20Z</time>
      </trkpt>
      <trkpt lat="48.09654" lon="-1.77286">
        <ele>91</ele>
        <time>2025-05-16T11:45:21Z</time>
      </trkpt>
      <trkpt lat="48.09654" lon="-1.77282">
        <ele>91</ele>
        <time>2025-05-16T11:45:22Z</time>
      </trkpt>
      <trkpt lat="48.09653" lon="-1.77278">
        <ele>91</ele>
        <time>2025-05-16T11:45:23Z</time>
      </trkpt>
      <trkpt lat="48.09653" lon="-1.77274">
        <ele>91</ele>
        <time>2025-05-16T11:45:24Z</time>
      </trkpt>
      <trkpt lat="48.09652" lon="-1.7727">
        <ele>92</ele>
        <time>2025-05-16T11:45:25Z</time>
      </trkpt>
      <trkpt lat="48.09651" lon="-1.77267">
        <ele>92</ele>
        <time>2025-05-16T11:45:26Z</time>
      </trkpt>
      <trkpt lat="48.0965" lon="-1.77263">
        <ele>92</ele>
        <time>2025-05-16T11:45:27Z</time>
      </trkpt>
      <trkpt lat="48.09649" lon="-1.77259">
        <ele>91</ele>
        <time>2025-05-16T11:45:28Z</time>
      </trkpt>
      <trkpt lat="48.09649" lon="-1.77256">
        <ele>91</ele>
        <time>2025-05-16T11:45:29Z</time>
      </trkpt>
      <trkpt lat="48.09649" lon="-1.77252">
        <ele>92</ele>
        <time>2025-05-16T11:45:30Z</time>
      </trkpt>
      <trkpt lat="48.09648" lon="-1.77248">
        <ele>91</ele>
        <time>2025-05-16T11:45:31Z</time>
      </trkpt>
      <trkpt lat="48.09647" lon="-1.77245">
        <ele>92</ele>
        <time>2025-05-16T11:45:32Z</time>
      </trkpt>
      <trkpt lat="48.09647" lon="-1.77241">
        <ele>92</ele>
        <time>2025-05-16T11:45:33Z</time>
      </trkpt>
      <trkpt lat="48.09646" lon="-1.77237">
        <ele>92</ele>
        <time>2025-05-16T11:45:34Z</time>
      </trkpt>
      <trkpt lat="48.09645" lon="-1.77233">
        <ele>92</ele>
        <time>2025-05-16T11:45:35Z</time>
      </trkpt>
      <trkpt lat="48.09644" lon="-1.77229">
        <ele>92</ele>
        <time>2025-05-16T11:45:36Z</time>
      </trkpt>
      <trkpt lat="48.09643" lon="-1.77225">
        <ele>92</ele>
        <time>2025-05-16T11:45:37Z</time>
      </trkpt>
      <trkpt lat="48.09643" lon="-1.77221">
        <ele>92</ele>
        <time>2025-05-16T11:45:38Z</time>
      </trkpt>
      <trkpt lat="48.09642" lon="-1.77216">
        <ele>92</ele>
        <time>2025-05-16T11:45:39Z</time>
      </trkpt>
      <trkpt lat="48.09642" lon="-1.77212">
        <ele>92</ele>
        <time>2025-05-16T11:45:40Z</time>
      </trkpt>
      <trkpt lat="48.09642" lon="-1.77208">
        <ele>93</ele>
        <time>2025-05-16T11:45:41Z</time>
      </trkpt>
      <trkpt lat="48.09641" lon="-1.77203">
        <ele>93</ele>
        <time>2025-05-16T11:45:42Z</time>
      </trkpt>
      <trkpt lat="48.0964" lon="-1.77198">
        <ele>93</ele>
        <time>2025-05-16T11:45:43Z</time>
      </trkpt>
      <trkpt lat="48.0964" lon="-1.77194">
        <ele>92</ele>
        <time>2025-05-16T11:45:44Z</time>
      </trkpt>
      <trkpt lat="48.09639" lon="-1.77189">
        <ele>92</ele>
        <time>2025-05-16T11:45:45Z</time>
      </trkpt>
      <trkpt lat="48.09638" lon="-1.77185">
        <ele>92</ele>
        <time>2025-05-16T11:45:46Z</time>
      </trkpt>
      <trkpt lat="48.09637" lon="-1.7718">
        <ele>92</ele>
        <time>2025-05-16T11:45:47Z</time>
      </trkpt>
      <trkpt lat="48.09636" lon="-1.77176">
        <ele>91</ele>
        <time>2025-05-16T11:45:48Z</time>
      </trkpt>
      <trkpt lat="48.09636" lon="-1.77171">
        <ele>91</ele>
        <time>2025-05-16T11:45:49Z</time>
      </trkpt>
      <trkpt lat="48.09635" lon="-1.77166">
        <ele>91</ele>
        <time>2025-05-16T11:45:50Z</time>
      </trkpt>
      <trkpt lat="48.09634" lon="-1.77161">
        <ele>91</ele>
        <time>2025-05-16T11:45:51Z</time>
      </trkpt>
      <trkpt lat="48.09634" lon="-1.77157">
        <ele>91</ele>
        <time>2025-05-16T11:45:52Z</time>
      </trkpt>
      <trkpt lat="48.09633" lon="-1.77152">
        <ele>91</ele>
        <time>2025-05-16T11:45:53Z</time>
      </trkpt>
      <trkpt lat="48.09633" lon="-1.77148">
        <ele>91</ele>
        <time>2025-05-16T11:45:54Z</time>
      </trkpt>
      <trkpt lat="48.09632" lon="-1.77143">
        <ele>91</ele>
        <time>2025-05-16T11:45:55Z</time>
      </trkpt>
      <trkpt lat="48.09631" lon="-1.77138">
        <ele>91</ele>
        <time>2025-05-16T11:45:56Z</time>
      </trkpt>
      <trkpt lat="48.0963" lon="-1.77133">
        <ele>91</ele>
        <time>2025-05-16T11:45:57Z</time>
      </trkpt>
      <trkpt lat="48.09629" lon="-1.77128">
        <ele>91</ele>
        <time>2025-05-16T11:45:58Z</time>
      </trkpt>
      <trkpt lat="48.09628" lon="-1.77123">
        <ele>90</ele>
        <time>2025-05-16T11:45:59Z</time>
      </trkpt>
      <trkpt lat="48.09628" lon="-1.77118">
        <ele>90</ele>
        <time>2025-05-16T11:46:00Z</time>
      </trkpt>
      <trkpt lat="48.09627" lon="-1.77112">
        <ele>90</ele>
        <time>2025-05-16T11:46:01Z</time>
      </trkpt>
      <trkpt lat="48.09627" lon="-1.77107">
        <ele>89</ele>
        <time>2025-05-16T11:46:02Z</time>
      </trkpt>
      <trkpt lat="48.09626" lon="-1.77101">
        <ele>89</ele>
        <time>2025-05-16T11:46:03Z</time>
      </trkpt>
      <trkpt lat="48.09625" lon="-1.77096">
        <ele>88</ele>
        <time>2025-05-16T11:46:04Z</time>
      </trkpt>
      <trkpt lat="48.09624" lon="-1.7709">
        <ele>88</ele>
        <time>2025-05-16T11:46:05Z</time>
      </trkpt>
      <trkpt lat="48.09624" lon="-1.77085">
        <ele>88</ele>
        <time>2025-05-16T11:46:06Z</time>
      </trkpt>
      <trkpt lat="48.09623" lon="-1.77079">
        <ele>88</ele>
        <time>2025-05-16T11:46:07Z</time>
      </trkpt>
      <trkpt lat="48.09622" lon="-1.77073">
        <ele>87</ele>
        <time>2025-05-16T11:46:08Z</time>
      </trkpt>
      <trkpt lat="48.09621" lon="-1.77068">
        <ele>87</ele>
        <time>2025-05-16T11:46:09Z</time>
      </trkpt>
      <trkpt lat="48.09621" lon="-1.77062">
        <ele>88</ele>
        <time>2025-05-16T11:46:10Z</time>
      </trkpt>
      <trkpt lat="48.0962" lon="-1.77057">
        <ele>88</ele>
        <time>2025-05-16T11:46:11Z</time>
      </trkpt>
      <trkpt lat="48.09618" lon="-1.77051">
        <ele>88</ele>
        <time>2025-05-16T11:46:12Z</time>
      </trkpt>
      <trkpt lat="48.09617" lon="-1.77045">
        <ele>88</ele>
        <time>2025-05-16T11:46:13Z</time>
      </trkpt>
      <trkpt lat="48.09617" lon="-1.77039">
        <ele>88</ele>
        <time>2025-05-16T11:46:14Z</time>
      </trkpt>
      <trkpt lat="48.09616" lon="-1.77033">
        <ele>87</ele>
        <time>2025-05-16T11:46:15Z</time>
      </trkpt>
      <trkpt lat="48.09615" lon="-1.77028">
        <ele>87</ele>
        <time>2025-05-16T11:46:16Z</time>
      </trkpt>
      <trkpt lat="48.09614" lon="-1.77022">
        <ele>87</ele>
        <time>2025-05-16T11:46:17Z</time>
      </trkpt>
      <trkpt lat="48.09613" lon="-1.77017">
        <ele>87</ele>
        <time>2025-05-16T11:46:18Z</time>
      </trkpt>
      <trkpt lat="48.09612" lon="-1.77011">
        <ele>87</ele>
        <time>2025-05-16T11:46:19Z</time>
      </trkpt>
      <trkpt lat="48.09612" lon="-1.77005">
        <ele>87</ele>
        <time>2025-05-16T11:46:20Z</time>
      </trkpt>
      <trkpt lat="48.09612" lon="-1.77">
        <ele>87</ele>
        <time>2025-05-16T11:46:21Z</time>
      </trkpt>
      <trkpt lat="48.09611" lon="-1.76994">
        <ele>87</ele>
        <time>2025-05-16T11:46:22Z</time>
      </trkpt>
      <trkpt lat="48.0961" lon="-1.76989">
        <ele>87</ele>
        <time>2025-05-16T11:46:23Z</time>
      </trkpt>
      <trkpt lat="48.09609" lon="-1.76984">
        <ele>87</ele>
        <time>2025-05-16T11:46:24Z</time>
      </trkpt>
      <trkpt lat="48.09607" lon="-1.76978">
        <ele>87</ele>
        <time>2025-05-16T11:46:25Z</time>
      </trkpt>
      <trkpt lat="48.09606" lon="-1.76973">
        <ele>88</ele>
        <time>2025-05-16T11:46:26Z</time>
      </trkpt>
      <trkpt lat="48.09605" lon="-1.76967">
        <ele>88</ele>
        <time>2025-05-16T11:46:27Z</time>
      </trkpt>
      <trkpt lat="48.09604" lon="-1.76962">
        <ele>88</ele>
        <time>2025-05-16T11:46:28Z</time>
      </trkpt>
      <trkpt lat="48.09603" lon="-1.76956">
        <ele>89</ele>
        <time>2025-05-16T11:46:29Z</time>
      </trkpt>
      <trkpt lat="48.09602" lon="-1.76951">
        <ele>88</ele>
        <time>2025-05-16T11:46:30Z</time>
      </trkpt>
      <trkpt lat="48.09601" lon="-1.76946">
        <ele>88</ele>
        <time>2025-05-16T11:46:31Z</time>
      </trkpt>
      <trkpt lat="48.09599" lon="-1.7694">
        <ele>88</ele>
        <time>2025-05-16T11:46:32Z</time>
      </trkpt>
      <trkpt lat="48.09598" lon="-1.76934">
        <ele>88</ele>
        <time>2025-05-16T11:46:33Z</time>
      </trkpt>
      <trkpt lat="48.09596" lon="-1.76929">
        <ele>89</ele>
        <time>2025-05-16T11:46:34Z</time>
      </trkpt>
      <trkpt lat="48.09594" lon="-1.76924">
        <ele>90</ele>
        <time>2025-05-16T11:46:35Z</time>
      </trkpt>
      <trkpt lat="48.09593" lon="-1.76919">
        <ele>90</ele>
        <time>2025-05-16T11:46:36Z</time>
      </trkpt>
      <trkpt lat="48.09591" lon="-1.76913">
        <ele>90</ele>
        <time>2025-05-16T11:46:37Z</time>
      </trkpt>
      <trkpt lat="48.09589" lon="-1.76908">
        <ele>90</ele>
        <time>2025-05-16T11:46:38Z</time>
      </trkpt>
      <trkpt lat="48.09587" lon="-1.76903">
        <ele>90</ele>
        <time>2025-05-16T11:46:39Z</time>
      </trkpt>
      <trkpt lat="48.09584" lon="-1.76899">
        <ele>90</ele>
        <time>2025-05-16T11:46:40Z</time>
      </trkpt>
      <trkpt lat="48.09581" lon="-1.76895">
        <ele>90</ele>
        <time>2025-05-16T11:46:41Z</time>
      </trkpt>
      <trkpt lat="48.09579" lon="-1.76891">
        <ele>90</ele>
        <time>2025-05-16T11:46:42Z</time>
      </trkpt>
      <trkpt lat="48.09577" lon="-1.76886">
        <ele>90</ele>
        <time>2025-05-16T11:46:43Z</time>
      </trkpt>
      <trkpt lat="48.09574" lon="-1.76881">
        <ele>89</ele>
        <time>2025-05-16T11:46:44Z</time>
      </trkpt>
      <trkpt lat="48.09571" lon="-1.76877">
        <ele>89</ele>
        <time>2025-05-16T11:46:45Z</time>
      </trkpt>
      <trkpt lat="48.09569" lon="-1.76872">
        <ele>89</ele>
        <time>2025-05-16T11:46:46Z</time>
      </trkpt>
      <trkpt lat="48.09566" lon="-1.76867">
        <ele>89</ele>
        <time>2025-05-16T11:46:47Z</time>
      </trkpt>
      <trkpt lat="48.09565" lon="-1.76863">
        <ele>89</ele>
        <time>2025-05-16T11:46:48Z</time>
      </trkpt>
      <trkpt lat="48.09562" lon="-1.76859">
        <ele>90</ele>
        <time>2025-05-16T11:46:49Z</time>
      </trkpt>
      <trkpt lat="48.0956" lon="-1.76855">
        <ele>90</ele>
        <time>2025-05-16T11:46:50Z</time>
      </trkpt>
      <trkpt lat="48.09557" lon="-1.76853">
        <ele>89</ele>
        <time>2025-05-16T11:46:51Z</time>
      </trkpt>
      <trkpt lat="48.09553" lon="-1.76851">
        <ele>89</ele>
        <time>2025-05-16T11:46:52Z</time>
      </trkpt>
      <trkpt lat="48.0955" lon="-1.76851">
        <ele>89</ele>
        <time>2025-05-16T11:46:53Z</time>
      </trkpt>
      <trkpt lat="48.09547" lon="-1.76852">
        <ele>89</ele>
        <time>2025-05-16T11:46:54Z</time>
      </trkpt>
      <trkpt lat="48.09544" lon="-1.76854">
        <ele>90</ele>
        <time>2025-05-16T11:46:55Z</time>
      </trkpt>
      <trkpt lat="48.09541" lon="-1.76855">
        <ele>89</ele>
        <time>2025-05-16T11:46:56Z</time>
      </trkpt>
      <trkpt lat="48.09539" lon="-1.76855">
        <ele>89</ele>
        <time>2025-05-16T11:46:57Z</time>
      </trkpt>
      <trkpt lat="48.09537" lon="-1.76855">
        <ele>89</ele>
        <time>2025-05-16T11:46:58Z</time>
      </trkpt>
      <trkpt lat="48.09536" lon="-1.76854">
        <ele>89</ele>
        <time>2025-05-16T11:46:59Z</time>
      </trkpt>
      <trkpt lat="48.09535" lon="-1.76854">
        <ele>89</ele>
        <time>2025-05-16T11:47:00Z</time>
      </trkpt>
      <trkpt lat="48.09535" lon="-1.76854">
        <ele>89</ele>
        <time>2025-05-16T11:47:01Z</time>
      </trkpt>
      <trkpt lat="48.09535" lon="-1.76854">
        <ele>89</ele>
        <time>2025-05-16T11:47:02Z</time>
      </trkpt>
      <trkpt lat="48.09535" lon="-1.76854">
        <ele>89</ele>
        <time>2025-05-16T11:47:03Z</time>
      </trkpt>
      <trkpt lat="48.09535" lon="-1.76854">
        <ele>89</ele>
        <time>2025-05-16T11:47:04Z</time>
      </trkpt>
      <trkpt lat="48.09535" lon="-1.76854">
        <ele>89</ele>
        <time>2025-05-16T11:47:05Z</time>
      </trkpt>
      <trkpt lat="48.09535" lon="-1.76854">
        <ele>89</ele>
        <time>2025-05-16T11:47:06Z</time>
      </trkpt>
      <trkpt lat="48.09535" lon="-1.76854">
        <ele>89</ele>
        <time>2025-05-16T11:47:07Z</time>
      </trkpt>
      <trkpt lat="48.09535" lon="-1.76854">
        <ele>89</ele>
        <time>2025-05-16T11:47:08Z</time>
      </trkpt>
      <trkpt lat="48.09535" lon="-1.76854">
        <ele>89</ele>
        <time>2025-05-16T11:47:09Z</time>
      </trkpt>
      <trkpt lat="48.09535" lon="-1.76854">
        <ele>89</ele>
        <time>2025-05-16T11:47:10Z</time>
      </trkpt>
      <trkpt lat="48.09535" lon="-1.76854">
        <ele>89</ele>
        <time>2025-05-16T11:47:11Z</time>
      </trkpt>
      <trkpt lat="48.09535" lon="-1.76854">
        <ele>89</ele>
        <time>2025-05-16T11:47:12Z</time>
      </trkpt>
      <trkpt lat="48.09535" lon="-1.76854">
        <ele>89</ele>
        <time>2025-05-16T11:47:13Z</time>
      </trkpt>
      <trkpt lat="48.09535" lon="-1.76854">
        <ele>89</ele>
        <time>2025-05-16T11:47:14Z</time>
      </trkpt>
      <trkpt lat="48.09535" lon="-1.76854">
        <ele>89</ele>
        <time>2025-05-16T11:47:15Z</time>
      </trkpt>
      <trkpt lat="48.09535" lon="-1.76854">
        <ele>89</ele>
        <time>2025-05-16T11:47:16Z</time>
      </trkpt>
      <trkpt lat="48.09535" lon="-1.76854">
        <ele>89</ele>
        <time>2025-05-16T11:47:17Z</time>
      </trkpt>
      <trkpt lat="48.09535" lon="-1.76854">
        <ele>89</ele>
        <time>2025-05-16T11:47:18Z</time>
      </trkpt>
      <trkpt lat="48.09535" lon="-1.76854">
        <ele>89</ele>
        <time>2025-05-16T11:47:19Z</time>
      </trkpt>
      <trkpt lat="48.09535" lon="-1.76854">
        <ele>89</ele>
        <time>2025-05-16T11:47:20Z</time>
      </trkpt>
      <trkpt lat="48.09535" lon="-1.76854">
        <ele>89</ele>
        <time>2025-05-16T11:47:21Z</time>
      </trkpt>
      <trkpt lat="48.09535" lon="-1.76854">
        <ele>89</ele>
        <time>2025-05-16T11:47:22Z</time>
      </trkpt>
      <trkpt lat="48.09535" lon="-1.76854">
        <ele>89</ele>
        <time>2025-05-16T11:47:23Z</time>
      </trkpt>
      <trkpt lat="48.09535" lon="-1.76854">
        <ele>89</ele>
        <time>2025-05-16T11:47:24Z</time>
      </trkpt>
      <trkpt lat="48.09535" lon="-1.76854">
        <ele>89</ele>
        <time>2025-05-16T11:47:25Z</time>
      </trkpt>
      <trkpt lat="48.09535" lon="-1.76854">
        <ele>89</ele>
        <time>2025-05-16T11:47:26Z</time>
      </trkpt>
      <trkpt lat="48.09535" lon="-1.76854">
        <ele>89</ele>
        <time>2025-05-16T11:47:27Z</time>
      </trkpt>
      <trkpt lat="48.09535" lon="-1.76854">
        <ele>89</ele>
        <time>2025-05-16T11:47:28Z</time>
      </trkpt>
      <trkpt lat="48.09535" lon="-1.76854">
        <ele>89</ele>
        <time>2025-05-16T11:47:29Z</time>
      </trkpt>
      <trkpt lat="48.09535" lon="-1.76854">
        <ele>89</ele>
        <time>2025-05-16T11:47:30Z</time>
      </trkpt>
      <trkpt lat="48.09535" lon="-1.76854">
        <ele>89</ele>
        <time>2025-05-16T11:47:31Z</time>
      </trkpt>
      <trkpt lat="48.09535" lon="-1.76854">
        <ele>89</ele>
        <time>2025-05-16T11:47:32Z</time>
      </trkpt>
      <trkpt lat="48.09535" lon="-1.76854">
        <ele>89</ele>
        <time>2025-05-16T11:47:33Z</time>
      </trkpt>
      <trkpt lat="48.09535" lon="-1.76854">
        <ele>89</ele>
        <time>2025-05-16T11:47:34Z</time>
      </trkpt>
      <trkpt lat="48.09535" lon="-1.76854">
        <ele>89</ele>
        <time>2025-05-16T11:47:35Z</time>
      </trkpt>
      <trkpt lat="48.09535" lon="-1.76854">
        <ele>89</ele>
        <time>2025-05-16T11:47:36Z</time>
      </trkpt>
      <trkpt lat="48.09535" lon="-1.76854">
        <ele>89</ele>
        <time>2025-05-16T11:47:37Z</time>
      </trkpt>
      <trkpt lat="48.09535" lon="-1.76854">
        <ele>89</ele>
        <time>2025-05-16T11:47:38Z</time>
      </trkpt>
      <trkpt lat="48.09533" lon="-1.76852">
        <ele>91</ele>
        <time>2025-05-16T11:47:39Z</time>
      </trkpt>
      <trkpt lat="48.09531" lon="-1.76851">
        <ele>91</ele>
        <time>2025-05-16T11:47:40Z</time>
      </trkpt>
      <trkpt lat="48.09529" lon="-1.7685">
        <ele>91</ele>
        <time>2025-05-16T11:47:41Z</time>
      </trkpt>
      <trkpt lat="48.09527" lon="-1.76848">
        <ele>91</ele>
        <time>2025-05-16T11:47:42Z</time>
      </trkpt>
      <trkpt lat="48.09524" lon="-1.76846">
        <ele>91</ele>
        <time>2025-05-16T11:47:43Z</time>
      </trkpt>
      <trkpt lat="48.09522" lon="-1.76844">
        <ele>91</ele>
        <time>2025-05-16T11:47:44Z</time>
      </trkpt>
      <trkpt lat="48.0952" lon="-1.76841">
        <ele>90</ele>
        <time>2025-05-16T11:47:45Z</time>
      </trkpt>
      <trkpt lat="48.0952" lon="-1.76838">
        <ele>90</ele>
        <time>2025-05-16T11:47:46Z</time>
      </trkpt>
      <trkpt lat="48.0952" lon="-1.76835">
        <ele>90</ele>
        <time>2025-05-16T11:47:47Z</time>
      </trkpt>
      <trkpt lat="48.0952" lon="-1.76833">
        <ele>90</ele>
        <time>2025-05-16T11:47:48Z</time>
      </trkpt>
      <trkpt lat="48.0952" lon="-1.76831">
        <ele>90</ele>
        <time>2025-05-16T11:47:49Z</time>
      </trkpt>
      <trkpt lat="48.0952" lon="-1.7683">
        <ele>90</ele>
        <time>2025-05-16T11:47:50Z</time>
      </trkpt>
      <trkpt lat="48.0952" lon="-1.7683">
        <ele>90</ele>
        <time>2025-05-16T11:47:51Z</time>
      </trkpt>
      <trkpt lat="48.0952" lon="-1.7683">
        <ele>90</ele>
        <time>2025-05-16T11:47:52Z</time>
      </trkpt>
      <trkpt lat="48.0952" lon="-1.7683">
        <ele>90</ele>
        <time>2025-05-16T11:47:53Z</time>
      </trkpt>
      <trkpt lat="48.0952" lon="-1.7683">
        <ele>90</ele>
        <time>2025-05-16T11:47:54Z</time>
      </trkpt>
      <trkpt lat="48.0952" lon="-1.7683">
        <ele>90</ele>
        <time>2025-05-16T11:47:55Z</time>
      </trkpt>
      <trkpt lat="48.0952" lon="-1.7683">
        <ele>90</ele>
        <time>2025-05-16T11:47:56Z</time>
      </trkpt>
      <trkpt lat="48.0952" lon="-1.7683">
        <ele>90</ele>
        <time>2025-05-16T11:47:57Z</time>
      </trkpt>
      <trkpt lat="48.0952" lon="-1.7683">
        <ele>90</ele>
        <time>2025-05-16T11:47:58Z</time>
      </trkpt>
      <trkpt lat="48.0952" lon="-1.7683">
        <ele>90</ele>
        <time>2025-05-16T11:47:59Z</time>
      </trkpt>
      <trkpt lat="48.0952" lon="-1.7683">
        <ele>90</ele>
        <time>2025-05-16T11:48:00Z</time>
      </trkpt>
      <trkpt lat="48.0952" lon="-1.7683">
        <ele>90</ele>
        <time>2025-05-16T11:48:01Z</time>
      </trkpt>
      <trkpt lat="48.09521" lon="-1.76826">
        <ele>91</ele>
        <time>2025-05-16T11:48:02Z</time>
      </trkpt>
      <trkpt lat="48.09522" lon="-1.76822">
        <ele>90</ele>
        <time>2025-05-16T11:48:03Z</time>
      </trkpt>
      <trkpt lat="48.09524" lon="-1.76818">
        <ele>90</ele>
        <time>2025-05-16T11:48:04Z</time>
      </trkpt>
      <trkpt lat="48.09525" lon="-1.76813">
        <ele>90</ele>
        <time>2025-05-16T11:48:05Z</time>
      </trkpt>
      <trkpt lat="48.09526" lon="-1.76809">
        <ele>90</ele>
        <time>2025-05-16T11:48:06Z</time>
      </trkpt>
      <trkpt lat="48.09527" lon="-1.76805">
        <ele>90</ele>
        <time>2025-05-16T11:48:07Z</time>
      </trkpt>
      <trkpt lat="48.09528" lon="-1.76802">
        <ele>90</ele>
        <time>2025-05-16T11:48:08Z</time>
      </trkpt>
      <trkpt lat="48.09529" lon="-1.76798">
        <ele>90</ele>
        <time>2025-05-16T11:48:09Z</time>
      </trkpt>
      <trkpt lat="48.09531" lon="-1.76795">
        <ele>90</ele>
        <time>2025-05-16T11:48:10Z</time>
      </trkpt>
      <trkpt lat="48.09533" lon="-1.76791">
        <ele>90</ele>
        <time>2025-05-16T11:48:11Z</time>
      </trkpt>
      <trkpt lat="48.09535" lon="-1.76786">
        <ele>90</ele>
        <time>2025-05-16T11:48:12Z</time>
      </trkpt>
      <trkpt lat="48.09537" lon="-1.7678">
        <ele>90</ele>
        <time>2025-05-16T11:48:13Z</time>
      </trkpt>
      <trkpt lat="48.09539" lon="-1.76774">
        <ele>89</ele>
        <time>2025-05-16T11:48:14Z</time>
      </trkpt>
      <trkpt lat="48.0954" lon="-1.76768">
        <ele>89</ele>
        <time>2025-05-16T11:48:15Z</time>
      </trkpt>
      <trkpt lat="48.09541" lon="-1.76763">
        <ele>88</ele>
        <time>2025-05-16T11:48:16Z</time>
      </trkpt>
      <trkpt lat="48.09542" lon="-1.76757">
        <ele>88</ele>
        <time>2025-05-16T11:48:17Z</time>
      </trkpt>
      <trkpt lat="48.09544" lon="-1.76751">
        <ele>88</ele>
        <time>2025-05-16T11:48:18Z</time>
      </trkpt>
      <trkpt lat="48.09545" lon="-1.76745">
        <ele>87</ele>
        <time>2025-05-16T11:48:19Z</time>
      </trkpt>
      <trkpt lat="48.09547" lon="-1.76739">
        <ele>87</ele>
        <time>2025-05-16T11:48:20Z</time>
      </trkpt>
      <trkpt lat="48.09548" lon="-1.76733">
        <ele>86</ele>
        <time>2025-05-16T11:48:21Z</time>
      </trkpt>
      <trkpt lat="48.09549" lon="-1.76727">
        <ele>86</ele>
        <time>2025-05-16T11:48:22Z</time>
      </trkpt>
      <trkpt lat="48.09551" lon="-1.76722">
        <ele>85</ele>
        <time>2025-05-16T11:48:23Z</time>
      </trkpt>
      <trkpt lat="48.09553" lon="-1.76717">
        <ele>85</ele>
        <time>2025-05-16T11:48:24Z</time>
      </trkpt>
      <trkpt lat="48.09554" lon="-1.76711">
        <ele>86</ele>
        <time>2025-05-16T11:48:25Z</time>
      </trkpt>
      <trkpt lat="48.09555" lon="-1.76705">
        <ele>86</ele>
        <time>2025-05-16T11:48:26Z</time>
      </trkpt>
      <trkpt lat="48.09557" lon="-1.767">
        <ele>86</ele>
        <time>2025-05-16T11:48:27Z</time>
      </trkpt>
      <trkpt lat="48.09558" lon="-1.76695">
        <ele>86</ele>
        <time>2025-05-16T11:48:28Z</time>
      </trkpt>
      <trkpt lat="48.09559" lon="-1.76689">
        <ele>86</ele>
        <time>2025-05-16T11:48:29Z</time>
      </trkpt>
      <trkpt lat="48.09561" lon="-1.76683">
        <ele>86</ele>
        <time>2025-05-16T11:48:30Z</time>
      </trkpt>
      <trkpt lat="48.09562" lon="-1.76677">
        <ele>86</ele>
        <time>2025-05-16T11:48:31Z</time>
      </trkpt>
      <trkpt lat="48.09563" lon="-1.76671">
        <ele>87</ele>
        <time>2025-05-16T11:48:32Z</time>
      </trkpt>
      <trkpt lat="48.09564" lon="-1.76665">
        <ele>87</ele>
        <time>2025-05-16T11:48:33Z</time>
      </trkpt>
      <trkpt lat="48.09566" lon="-1.7666">
        <ele>87</ele>
        <time>2025-05-16T11:48:34Z</time>
      </trkpt>
      <trkpt lat="48.09567" lon="-1.76654">
        <ele>87</ele>
        <time>2025-05-16T11:48:35Z</time>
      </trkpt>
      <trkpt lat="48.09569" lon="-1.76649">
        <ele>85</ele>
        <time>2025-05-16T11:48:36Z</time>
      </trkpt>
      <trkpt lat="48.0957" lon="-1.76643">
        <ele>85</ele>
        <time>2025-05-16T11:48:37Z</time>
      </trkpt>
      <trkpt lat="48.09572" lon="-1.76638">
        <ele>85</ele>
        <time>2025-05-16T11:48:38Z</time>
      </trkpt>
      <trkpt lat="48.09573" lon="-1.76632">
        <ele>85</ele>
        <time>2025-05-16T11:48:39Z</time>
      </trkpt>
      <trkpt lat="48.09575" lon="-1.76627">
        <ele>86</ele>
        <time>2025-05-16T11:48:40Z</time>
      </trkpt>
      <trkpt lat="48.09576" lon="-1.76622">
        <ele>86</ele>
        <time>2025-05-16T11:48:41Z</time>
      </trkpt>
      <trkpt lat="48.09578" lon="-1.76616">
        <ele>86</ele>
        <time>2025-05-16T11:48:42Z</time>
      </trkpt>
      <trkpt lat="48.09579" lon="-1.7661">
        <ele>86</ele>
        <time>2025-05-16T11:48:43Z</time>
      </trkpt>
      <trkpt lat="48.09579" lon="-1.76604">
        <ele>86</ele>
        <time>2025-05-16T11:48:44Z</time>
      </trkpt>
      <trkpt lat="48.0958" lon="-1.76597">
        <ele>85</ele>
        <time>2025-05-16T11:48:45Z</time>
      </trkpt>
      <trkpt lat="48.09582" lon="-1.76591">
        <ele>85</ele>
        <time>2025-05-16T11:48:46Z</time>
      </trkpt>
      <trkpt lat="48.09583" lon="-1.76585">
        <ele>85</ele>
        <time>2025-05-16T11:48:47Z</time>
      </trkpt>
      <trkpt lat="48.09585" lon="-1.7658">
        <ele>85</ele>
        <time>2025-05-16T11:48:48Z</time>
      </trkpt>
      <trkpt lat="48.09586" lon="-1.76574">
        <ele>85</ele>
        <time>2025-05-16T11:48:49Z</time>
      </trkpt>
      <trkpt lat="48.09588" lon="-1.76567">
        <ele>84</ele>
        <time>2025-05-16T11:48:50Z</time>
      </trkpt>
      <trkpt lat="48.09589" lon="-1.76561">
        <ele>84</ele>
        <time>2025-05-16T11:48:51Z</time>
      </trkpt>
      <trkpt lat="48.09591" lon="-1.76555">
        <ele>84</ele>
        <time>2025-05-16T11:48:52Z</time>
      </trkpt>
      <trkpt lat="48.09592" lon="-1.76548">
        <ele>84</ele>
        <time>2025-05-16T11:48:53Z</time>
      </trkpt>
      <trkpt lat="48.09594" lon="-1.76542">
        <ele>84</ele>
        <time>2025-05-16T11:48:54Z</time>
      </trkpt>
      <trkpt lat="48.09595" lon="-1.76535">
        <ele>84</ele>
        <time>2025-05-16T11:48:55Z</time>
      </trkpt>
      <trkpt lat="48.09597" lon="-1.76529">
        <ele>84</ele>
        <time>2025-05-16T11:48:56Z</time>
      </trkpt>
      <trkpt lat="48.09599" lon="-1.76522">
        <ele>84</ele>
        <time>2025-05-16T11:48:57Z</time>
      </trkpt>
      <trkpt lat="48.09601" lon="-1.76516">
        <ele>84</ele>
        <time>2025-05-16T11:48:58Z</time>
      </trkpt>
      <trkpt lat="48.09603" lon="-1.7651">
        <ele>85</ele>
        <time>2025-05-16T11:48:59Z</time>
      </trkpt>
      <trkpt lat="48.09605" lon="-1.76504">
        <ele>85</ele>
        <time>2025-05-16T11:49:00Z</time>
      </trkpt>
      <trkpt lat="48.09606" lon="-1.76498">
        <ele>85</ele>
        <time>2025-05-16T11:49:01Z</time>
      </trkpt>
      <trkpt lat="48.09607" lon="-1.76491">
        <ele>85</ele>
        <time>2025-05-16T11:49:02Z</time>
      </trkpt>
      <trkpt lat="48.09609" lon="-1.76484">
        <ele>85</ele>
        <time>2025-05-16T11:49:03Z</time>
      </trkpt>
      <trkpt lat="48.09611" lon="-1.76478">
        <ele>85</ele>
        <time>2025-05-16T11:49:04Z</time>
      </trkpt>
      <trkpt lat="48.09612" lon="-1.76471">
        <ele>85</ele>
        <time>2025-05-16T11:49:05Z</time>
      </trkpt>
      <trkpt lat="48.09613" lon="-1.76464">
        <ele>85</ele>
        <time>2025-05-16T11:49:06Z</time>
      </trkpt>
      <trkpt lat="48.09614" lon="-1.76458">
        <ele>84</ele>
        <time>2025-05-16T11:49:07Z</time>
      </trkpt>
      <trkpt lat="48.09615" lon="-1.76452">
        <ele>84</ele>
        <time>2025-05-16T11:49:08Z</time>
      </trkpt>
      <trkpt lat="48.09617" lon="-1.76445">
        <ele>84</ele>
        <time>2025-05-16T11:49:09Z</time>
      </trkpt>
      <trkpt lat="48.09619" lon="-1.76439">
        <ele>83</ele>
        <time>2025-05-16T11:49:10Z</time>
      </trkpt>
      <trkpt lat="48.09621" lon="-1.76432">
        <ele>82</ele>
        <time>2025-05-16T11:49:11Z</time>
      </trkpt>
      <trkpt lat="48.09622" lon="-1.76425">
        <ele>82</ele>
        <time>2025-05-16T11:49:12Z</time>
      </trkpt>
      <trkpt lat="48.09623" lon="-1.76417">
        <ele>82</ele>
        <time>2025-05-16T11:49:13Z</time>
      </trkpt>
      <trkpt lat="48.09625" lon="-1.76411">
        <ele>81</ele>
        <time>2025-05-16T11:49:14Z</time>
      </trkpt>
      <trkpt lat="48.09626" lon="-1.76404">
        <ele>82</ele>
        <time>2025-05-16T11:49:15Z</time>
      </trkpt>
      <trkpt lat="48.09628" lon="-1.76396">
        <ele>81</ele>
        <time>2025-05-16T11:49:16Z</time>
      </trkpt>
      <trkpt lat="48.0963" lon="-1.7639">
        <ele>80</ele>
        <time>2025-05-16T11:49:17Z</time>
      </trkpt>
      <trkpt lat="48.09632" lon="-1.76383">
        <ele>78</ele>
        <time>2025-05-16T11:49:18Z</time>
      </trkpt>
      <trkpt lat="48.09633" lon="-1.76376">
        <ele>79</ele>
        <time>2025-05-16T11:49:19Z</time>
      </trkpt>
      <trkpt lat="48.09635" lon="-1.76369">
        <ele>79</ele>
        <time>2025-05-16T11:49:20Z</time>
      </trkpt>
      <trkpt lat="48.09636" lon="-1.76362">
        <ele>79</ele>
        <time>2025-05-16T11:49:21Z</time>
      </trkpt>
      <trkpt lat="48.09638" lon="-1.76355">
        <ele>80</ele>
        <time>2025-05-16T11:49:22Z</time>
      </trkpt>
      <trkpt lat="48.09639" lon="-1.76348">
        <ele>81</ele>
        <time>2025-05-16T11:49:23Z</time>
      </trkpt>
      <trkpt lat="48.0964" lon="-1.7634">
        <ele>81</ele>
        <time>2025-05-16T11:49:24Z</time>
      </trkpt>
      <trkpt lat="48.09641" lon="-1.76334">
        <ele>82</ele>
        <time>2025-05-16T11:49:25Z</time>
      </trkpt>
      <trkpt lat="48.09643" lon="-1.76328">
        <ele>82</ele>
        <time>2025-05-16T11:49:26Z</time>
      </trkpt>
      <trkpt lat="48.09645" lon="-1.76323">
        <ele>82</ele>
        <time>2025-05-16T11:49:27Z</time>
      </trkpt>
      <trkpt lat="48.09645" lon="-1.76317">
        <ele>82</ele>
        <time>2025-05-16T11:49:28Z</time>
      </trkpt>
      <trkpt lat="48.09647" lon="-1.76312">
        <ele>82</ele>
        <time>2025-05-16T11:49:29Z</time>
      </trkpt>
      <trkpt lat="48.09648" lon="-1.76306">
        <ele>83</ele>
        <time>2025-05-16T11:49:30Z</time>
      </trkpt>
      <trkpt lat="48.09648" lon="-1.763">
        <ele>83</ele>
        <time>2025-05-16T11:49:31Z</time>
      </trkpt>
      <trkpt lat="48.09649" lon="-1.76294">
        <ele>83</ele>
        <time>2025-05-16T11:49:32Z</time>
      </trkpt>
      <trkpt lat="48.09649" lon="-1.76288">
        <ele>83</ele>
        <time>2025-05-16T11:49:33Z</time>
      </trkpt>
      <trkpt lat="48.09651" lon="-1.76282">
        <ele>83</ele>
        <time>2025-05-16T11:49:34Z</time>
      </trkpt>
      <trkpt lat="48.09651" lon="-1.76277">
        <ele>83</ele>
        <time>2025-05-16T11:49:35Z</time>
      </trkpt>
      <trkpt lat="48.09653" lon="-1.76272">
        <ele>83</ele>
        <time>2025-05-16T11:49:36Z</time>
      </trkpt>
      <trkpt lat="48.09656" lon="-1.76268">
        <ele>84</ele>
        <time>2025-05-16T11:49:37Z</time>
      </trkpt>
      <trkpt lat="48.09659" lon="-1.76264">
        <ele>84</ele>
        <time>2025-05-16T11:49:38Z</time>
      </trkpt>
      <trkpt lat="48.09661" lon="-1.7626">
        <ele>84</ele>
        <time>2025-05-16T11:49:39Z</time>
      </trkpt>
      <trkpt lat="48.09663" lon="-1.76255">
        <ele>84</ele>
        <time>2025-05-16T11:49:40Z</time>
      </trkpt>
      <trkpt lat="48.09665" lon="-1.76249">
        <ele>84</ele>
        <time>2025-05-16T11:49:41Z</time>
      </trkpt>
      <trkpt lat="48.09666" lon="-1.76244">
        <ele>83</ele>
        <time>2025-05-16T11:49:42Z</time>
      </trkpt>
      <trkpt lat="48.09668" lon="-1.76239">
        <ele>83</ele>
        <time>2025-05-16T11:49:43Z</time>
      </trkpt>
      <trkpt lat="48.09669" lon="-1.76233">
        <ele>83</ele>
        <time>2025-05-16T11:49:44Z</time>
      </trkpt>
      <trkpt lat="48.0967" lon="-1.76228">
        <ele>83</ele>
        <time>2025-05-16T11:49:45Z</time>
      </trkpt>
      <trkpt lat="48.09671" lon="-1.76223">
        <ele>83</ele>
        <time>2025-05-16T11:49:46Z</time>
      </trkpt>
      <trkpt lat="48.09672" lon="-1.76218">
        <ele>83</ele>
        <time>2025-05-16T11:49:47Z</time>
      </trkpt>
      <trkpt lat="48.09673" lon="-1.76212">
        <ele>83</ele>
        <time>2025-05-16T11:49:48Z</time>
      </trkpt>
      <trkpt lat="48.09674" lon="-1.76206">
        <ele>83</ele>
        <time>2025-05-16T11:49:49Z</time>
      </trkpt>
      <trkpt lat="48.09675" lon="-1.76201">
        <ele>84</ele>
        <time>2025-05-16T11:49:50Z</time>
      </trkpt>
      <trkpt lat="48.09677" lon="-1.76196">
        <ele>83</ele>
        <time>2025-05-16T11:49:51Z</time>
      </trkpt>
      <trkpt lat="48.09678" lon="-1.7619">
        <ele>83</ele>
        <time>2025-05-16T11:49:52Z</time>
      </trkpt>
      <trkpt lat="48.09679" lon="-1.76185">
        <ele>83</ele>
        <time>2025-05-16T11:49:53Z</time>
      </trkpt>
      <trkpt lat="48.09681" lon="-1.7618">
        <ele>83</ele>
        <time>2025-05-16T11:49:54Z</time>
      </trkpt>
      <trkpt lat="48.09682" lon="-1.76175">
        <ele>83</ele>
        <time>2025-05-16T11:49:55Z</time>
      </trkpt>
      <trkpt lat="48.09683" lon="-1.76169">
        <ele>83</ele>
        <time>2025-05-16T11:49:56Z</time>
      </trkpt>
      <trkpt lat="48.09685" lon="-1.76164">
        <ele>83</ele>
        <time>2025-05-16T11:49:57Z</time>
      </trkpt>
      <trkpt lat="48.09686" lon="-1.76158">
        <ele>83</ele>
        <time>2025-05-16T11:49:58Z</time>
      </trkpt>
      <trkpt lat="48.09688" lon="-1.76153">
        <ele>83</ele>
        <time>2025-05-16T11:49:59Z</time>
      </trkpt>
      <trkpt lat="48.0969" lon="-1.76148">
        <ele>83</ele>
        <time>2025-05-16T11:50:00Z</time>
      </trkpt>
      <trkpt lat="48.09692" lon="-1.76142">
        <ele>83</ele>
        <time>2025-05-16T11:50:01Z</time>
      </trkpt>
      <trkpt lat="48.09694" lon="-1.76138">
        <ele>83</ele>
        <time>2025-05-16T11:50:02Z</time>
      </trkpt>
      <trkpt lat="48.09696" lon="-1.76133">
        <ele>83</ele>
        <time>2025-05-16T11:50:03Z</time>
      </trkpt>
      <trkpt lat="48.09698" lon="-1.76128">
        <ele>82</ele>
        <time>2025-05-16T11:50:04Z</time>
      </trkpt>
      <trkpt lat="48.09701" lon="-1.76123">
        <ele>83</ele>
        <time>2025-05-16T11:50:05Z</time>
      </trkpt>
      <trkpt lat="48.09703" lon="-1.76118">
        <ele>83</ele>
        <time>2025-05-16T11:50:06Z</time>
      </trkpt>
      <trkpt lat="48.09706" lon="-1.76113">
        <ele>83</ele>
        <time>2025-05-16T11:50:07Z</time>
      </trkpt>
      <trkpt lat="48.09708" lon="-1.76109">
        <ele>83</ele>
        <time>2025-05-16T11:50:08Z</time>
      </trkpt>
      <trkpt lat="48.09711" lon="-1.76105">
        <ele>83</ele>
        <time>2025-05-16T11:50:09Z</time>
      </trkpt>
      <trkpt lat="48.09714" lon="-1.761">
        <ele>84</ele>
        <time>2025-05-16T11:50:10Z</time>
      </trkpt>
      <trkpt lat="48.09717" lon="-1.76095">
        <ele>85</ele>
        <time>2025-05-16T11:50:11Z</time>
      </trkpt>
      <trkpt lat="48.0972" lon="-1.7609">
        <ele>85</ele>
        <time>2025-05-16T11:50:12Z</time>
      </trkpt>
      <trkpt lat="48.09723" lon="-1.76086">
        <ele>85</ele>
        <time>2025-05-16T11:50:13Z</time>
      </trkpt>
      <trkpt lat="48.09725" lon="-1.76081">
        <ele>84</ele>
        <time>2025-05-16T11:50:14Z</time>
      </trkpt>
      <trkpt lat="48.09727" lon="-1.76076">
        <ele>85</ele>
        <time>2025-05-16T11:50:15Z</time>
      </trkpt>
      <trkpt lat="48.0973" lon="-1.76071">
        <ele>85</ele>
        <time>2025-05-16T11:50:16Z</time>
      </trkpt>
      <trkpt lat="48.09734" lon="-1.76067">
        <ele>85</ele>
        <time>2025-05-16T11:50:17Z</time>
      </trkpt>
      <trkpt lat="48.09736" lon="-1.76062">
        <ele>86</ele>
        <time>2025-05-16T11:50:18Z</time>
      </trkpt>
      <trkpt lat="48.09739" lon="-1.76057">
        <ele>86</ele>
        <time>2025-05-16T11:50:19Z</time>
      </trkpt>
      <trkpt lat="48.09741" lon="-1.76052">
        <ele>85</ele>
        <time>2025-05-16T11:50:20Z</time>
      </trkpt>
      <trkpt lat="48.09744" lon="-1.76048">
        <ele>85</ele>
        <time>2025-05-16T11:50:21Z</time>
      </trkpt>
      <trkpt lat="48.09747" lon="-1.76043">
        <ele>85</ele>
        <time>2025-05-16T11:50:22Z</time>
      </trkpt>
      <trkpt lat="48.09749" lon="-1.76038">
        <ele>85</ele>
        <time>2025-05-16T11:50:23Z</time>
      </trkpt>
      <trkpt lat="48.09752" lon="-1.76033">
        <ele>85</ele>
        <time>2025-05-16T11:50:24Z</time>
      </trkpt>
      <trkpt lat="48.09755" lon="-1.76029">
        <ele>85</ele>
        <time>2025-05-16T11:50:25Z</time>
      </trkpt>
      <trkpt lat="48.09757" lon="-1.76024">
        <ele>85</ele>
        <time>2025-05-16T11:50:26Z</time>
      </trkpt>
      <trkpt lat="48.09759" lon="-1.7602">
        <ele>85</ele>
        <time>2025-05-16T11:50:27Z</time>
      </trkpt>
      <trkpt lat="48.09762" lon="-1.76016">
        <ele>86</ele>
        <time>2025-05-16T11:50:28Z</time>
      </trkpt>
      <trkpt lat="48.09765" lon="-1.76012">
        <ele>85</ele>
        <time>2025-05-16T11:50:29Z</time>
      </trkpt>
      <trkpt lat="48.09768" lon="-1.76008">
        <ele>85</ele>
        <time>2025-05-16T11:50:30Z</time>
      </trkpt>
      <trkpt lat="48.0977" lon="-1.76003">
        <ele>85</ele>
        <time>2025-05-16T11:50:31Z</time>
      </trkpt>
      <trkpt lat="48.09773" lon="-1.75998">
        <ele>85</ele>
        <time>2025-05-16T11:50:32Z</time>
      </trkpt>
      <trkpt lat="48.09776" lon="-1.75994">
        <ele>85</ele>
        <time>2025-05-16T11:50:33Z</time>
      </trkpt>
      <trkpt lat="48.09779" lon="-1.75989">
        <ele>84</ele>
        <time>2025-05-16T11:50:34Z</time>
      </trkpt>
      <trkpt lat="48.09783" lon="-1.75984">
        <ele>84</ele>
        <time>2025-05-16T11:50:35Z</time>
      </trkpt>
      <trkpt lat="48.09785" lon="-1.7598">
        <ele>84</ele>
        <time>2025-05-16T11:50:36Z</time>
      </trkpt>
      <trkpt lat="48.09788" lon="-1.75976">
        <ele>84</ele>
        <time>2025-05-16T11:50:37Z</time>
      </trkpt>
      <trkpt lat="48.09791" lon="-1.75971">
        <ele>84</ele>
        <time>2025-05-16T11:50:38Z</time>
      </trkpt>
      <trkpt lat="48.09793" lon="-1.75966">
        <ele>85</ele>
        <time>2025-05-16T11:50:39Z</time>
      </trkpt>
      <trkpt lat="48.09796" lon="-1.75962">
        <ele>84</ele>
        <time>2025-05-16T11:50:40Z</time>
      </trkpt>
      <trkpt lat="48.09799" lon="-1.75958">
        <ele>84</ele>
        <time>2025-05-16T11:50:41Z</time>
      </trkpt>
      <trkpt lat="48.09802" lon="-1.75953">
        <ele>84</ele>
        <time>2025-05-16T11:50:42Z</time>
      </trkpt>
      <trkpt lat="48.09805" lon="-1.75949">
        <ele>85</ele>
        <time>2025-05-16T11:50:43Z</time>
      </trkpt>
      <trkpt lat="48.09807" lon="-1.75945">
        <ele>86</ele>
        <time>2025-05-16T11:50:44Z</time>
      </trkpt>
      <trkpt lat="48.0981" lon="-1.75941">
        <ele>86</ele>
        <time>2025-05-16T11:50:45Z</time>
      </trkpt>
      <trkpt lat="48.09812" lon="-1.75937">
        <ele>86</ele>
        <time>2025-05-16T11:50:46Z</time>
      </trkpt>
      <trkpt lat="48.09814" lon="-1.75933">
        <ele>86</ele>
        <time>2025-05-16T11:50:47Z</time>
      </trkpt>
      <trkpt lat="48.09816" lon="-1.7593">
        <ele>85</ele>
        <time>2025-05-16T11:50:48Z</time>
      </trkpt>
      <trkpt lat="48.09819" lon="-1.75926">
        <ele>85</ele>
        <time>2025-05-16T11:50:49Z</time>
      </trkpt>
      <trkpt lat="48.09821" lon="-1.75923">
        <ele>85</ele>
        <time>2025-05-16T11:50:50Z</time>
      </trkpt>
      <trkpt lat="48.09823" lon="-1.7592">
        <ele>85</ele>
        <time>2025-05-16T11:50:51Z</time>
      </trkpt>
      <trkpt lat="48.09825" lon="-1.75916">
        <ele>85</ele>
        <time>2025-05-16T11:50:52Z</time>
      </trkpt>
      <trkpt lat="48.09827" lon="-1.75913">
        <ele>85</ele>
        <time>2025-05-16T11:50:53Z</time>
      </trkpt>
      <trkpt lat="48.09829" lon="-1.75909">
        <ele>85</ele>
        <time>2025-05-16T11:50:54Z</time>
      </trkpt>
      <trkpt lat="48.0983" lon="-1.75906">
        <ele>86</ele>
        <time>2025-05-16T11:50:55Z</time>
      </trkpt>
      <trkpt lat="48.09832" lon="-1.75904">
        <ele>86</ele>
        <time>2025-05-16T11:50:56Z</time>
      </trkpt>
      <trkpt lat="48.09833" lon="-1.75901">
        <ele>87</ele>
        <time>2025-05-16T11:50:57Z</time>
      </trkpt>
      <trkpt lat="48.09835" lon="-1.75898">
        <ele>87</ele>
        <time>2025-05-16T11:50:58Z</time>
      </trkpt>
      <trkpt lat="48.09836" lon="-1.75896">
        <ele>87</ele>
        <time>2025-05-16T11:50:59Z</time>
      </trkpt>
      <trkpt lat="48.09837" lon="-1.75894">
        <ele>87</ele>
        <time>2025-05-16T11:51:00Z</time>
      </trkpt>
      <trkpt lat="48.09838" lon="-1.75892">
        <ele>87</ele>
        <time>2025-05-16T11:51:01Z</time>
      </trkpt>
      <trkpt lat="48.09839" lon="-1.7589">
        <ele>87</ele>
        <time>2025-05-16T11:51:02Z</time>
      </trkpt>
      <trkpt lat="48.0984" lon="-1.75889">
        <ele>87</ele>
        <time>2025-05-16T11:51:03Z</time>
      </trkpt>
      <trkpt lat="48.09841" lon="-1.75889">
        <ele>88</ele>
        <time>2025-05-16T11:51:04Z</time>
      </trkpt>
      <trkpt lat="48.09841" lon="-1.75889">
        <ele>88</ele>
        <time>2025-05-16T11:51:05Z</time>
      </trkpt>
      <trkpt lat="48.09841" lon="-1.7589">
        <ele>88</ele>
        <time>2025-05-16T11:51:06Z</time>
      </trkpt>
      <trkpt lat="48.09841" lon="-1.7589">
        <ele>88</ele>
        <time>2025-05-16T11:51:07Z</time>
      </trkpt>
      <trkpt lat="48.09841" lon="-1.7589">
        <ele>88</ele>
        <time>2025-05-16T11:51:08Z</time>
      </trkpt>
      <trkpt lat="48.09841" lon="-1.7589">
        <ele>88</ele>
        <time>2025-05-16T11:51:09Z</time>
      </trkpt>
      <trkpt lat="48.09841" lon="-1.7589">
        <ele>88</ele>
        <time>2025-05-16T11:51:10Z</time>
      </trkpt>
      <trkpt lat="48.09841" lon="-1.7589">
        <ele>88</ele>
        <time>2025-05-16T11:51:11Z</time>
      </trkpt>
      <trkpt lat="48.09841" lon="-1.7589">
        <ele>88</ele>
        <time>2025-05-16T11:51:12Z</time>
      </trkpt>
      <trkpt lat="48.09841" lon="-1.7589">
        <ele>88</ele>
        <time>2025-05-16T11:51:13Z</time>
      </trkpt>
      <trkpt lat="48.09841" lon="-1.7589">
        <ele>88</ele>
        <time>2025-05-16T11:51:14Z</time>
      </trkpt>
      <trkpt lat="48.09841" lon="-1.7589">
        <ele>88</ele>
        <time>2025-05-16T11:51:15Z</time>
      </trkpt>
      <trkpt lat="48.09841" lon="-1.7589">
        <ele>88</ele>
        <time>2025-05-16T11:51:16Z</time>
      </trkpt>
      <trkpt lat="48.09841" lon="-1.7589">
        <ele>88</ele>
        <time>2025-05-16T11:51:17Z</time>
      </trkpt>
      <trkpt lat="48.09841" lon="-1.7589">
        <ele>88</ele>
        <time>2025-05-16T11:51:18Z</time>
      </trkpt>
      <trkpt lat="48.09841" lon="-1.7589">
        <ele>88</ele>
        <time>2025-05-16T11:51:19Z</time>
      </trkpt>
      <trkpt lat="48.09841" lon="-1.7589">
        <ele>88</ele>
        <time>2025-05-16T11:51:20Z</time>
      </trkpt>
      <trkpt lat="48.09841" lon="-1.7589">
        <ele>88</ele>
        <time>2025-05-16T11:51:21Z</time>
      </trkpt>
      <trkpt lat="48.09841" lon="-1.7589">
        <ele>88</ele>
        <time>2025-05-16T11:51:22Z</time>
      </trkpt>
      <trkpt lat="48.09841" lon="-1.7589">
        <ele>88</ele>
        <time>2025-05-16T11:51:23Z</time>
      </trkpt>
      <trkpt lat="48.09841" lon="-1.7589">
        <ele>88</ele>
        <time>2025-05-16T11:51:24Z</time>
      </trkpt>
      <trkpt lat="48.09841" lon="-1.7589">
        <ele>88</ele>
        <time>2025-05-16T11:51:25Z</time>
      </trkpt>
      <trkpt lat="48.09841" lon="-1.7589">
        <ele>88</ele>
        <time>2025-05-16T11:51:26Z</time>
      </trkpt>
      <trkpt lat="48.09841" lon="-1.7589">
        <ele>88</ele>
        <time>2025-05-16T11:51:27Z</time>
      </trkpt>
      <trkpt lat="48.09841" lon="-1.7589">
        <ele>88</ele>
        <time>2025-05-16T11:51:28Z</time>
      </trkpt>
      <trkpt lat="48.09841" lon="-1.7589">
        <ele>88</ele>
        <time>2025-05-16T11:51:29Z</time>
      </trkpt>
      <trkpt lat="48.09841" lon="-1.7589">
        <ele>88</ele>
        <time>2025-05-16T11:51:30Z</time>
      </trkpt>
      <trkpt lat="48.09841" lon="-1.7589">
        <ele>88</ele>
        <time>2025-05-16T11:51:31Z</time>
      </trkpt>
      <trkpt lat="48.09841" lon="-1.7589">
        <ele>88</ele>
        <time>2025-05-16T11:51:32Z</time>
      </trkpt>
      <trkpt lat="48.09841" lon="-1.7589">
        <ele>88</ele>
        <time>2025-05-16T11:51:33Z</time>
      </trkpt>
      <trkpt lat="48.09841" lon="-1.7589">
        <ele>88</ele>
        <time>2025-05-16T11:51:34Z</time>
      </trkpt>
      <trkpt lat="48.09841" lon="-1.7589">
        <ele>88</ele>
        <time>2025-05-16T11:51:35Z</time>
      </trkpt>
      <trkpt lat="48.09841" lon="-1.7589">
        <ele>88</ele>
        <time>2025-05-16T11:51:36Z</time>
      </trkpt>
      <trkpt lat="48.09841" lon="-1.7589">
        <ele>88</ele>
        <time>2025-05-16T11:51:37Z</time>
      </trkpt>
      <trkpt lat="48.09841" lon="-1.7589">
        <ele>88</ele>
        <time>2025-05-16T11:51:38Z</time>
      </trkpt>
      <trkpt lat="48.09841" lon="-1.7589">
        <ele>88</ele>
        <time>2025-05-16T11:51:39Z</time>
      </trkpt>
      <trkpt lat="48.09841" lon="-1.7589">
        <ele>88</ele>
        <time>2025-05-16T11:51:40Z</time>
      </trkpt>
      <trkpt lat="48.09844" lon="-1.75888">
        <ele>89</ele>
        <time>2025-05-16T11:51:41Z</time>
      </trkpt>
      <trkpt lat="48.09845" lon="-1.75887">
        <ele>89</ele>
        <time>2025-05-16T11:51:42Z</time>
      </trkpt>
      <trkpt lat="48.09847" lon="-1.75884">
        <ele>88</ele>
        <time>2025-05-16T11:51:43Z</time>
      </trkpt>
      <trkpt lat="48.09849" lon="-1.75882">
        <ele>88</ele>
        <time>2025-05-16T11:51:44Z</time>
      </trkpt>
      <trkpt lat="48.09851" lon="-1.75879">
        <ele>89</ele>
        <time>2025-05-16T11:51:45Z</time>
      </trkpt>
      <trkpt lat="48.09852" lon="-1.75876">
        <ele>89</ele>
        <time>2025-05-16T11:51:46Z</time>
      </trkpt>
      <trkpt lat="48.09854" lon="-1.75873">
        <ele>89</ele>
        <time>2025-05-16T11:51:47Z</time>
      </trkpt>
      <trkpt lat="48.09855" lon="-1.7587">
        <ele>89</ele>
        <time>2025-05-16T11:51:48Z</time>
      </trkpt>
      <trkpt lat="48.09857" lon="-1.75866">
        <ele>89</ele>
        <time>2025-05-16T11:51:49Z</time>
      </trkpt>
      <trkpt lat="48.09859" lon="-1.75862">
        <ele>89</ele>
        <time>2025-05-16T11:51:50Z</time>
      </trkpt>
      <trkpt lat="48.09861" lon="-1.75859">
        <ele>89</ele>
        <time>2025-05-16T11:51:51Z</time>
      </trkpt>
      <trkpt lat="48.09863" lon="-1.75855">
        <ele>89</ele>
        <time>2025-05-16T11:51:52Z</time>
      </trkpt>
      <trkpt lat="48.09865" lon="-1.7585">
        <ele>89</ele>
        <time>2025-05-16T11:51:53Z</time>
      </trkpt>
      <trkpt lat="48.09866" lon="-1.75846">
        <ele>89</ele>
        <time>2025-05-16T11:51:54Z</time>
      </trkpt>
      <trkpt lat="48.09867" lon="-1.75841">
        <ele>89</ele>
        <time>2025-05-16T11:51:55Z</time>
      </trkpt>
      <trkpt lat="48.09867" lon="-1.75836">
        <ele>88</ele>
        <time>2025-05-16T11:51:56Z</time>
      </trkpt>
      <trkpt lat="48.09867" lon="-1.75831">
        <ele>88</ele>
        <time>2025-05-16T11:51:57Z</time>
      </trkpt>
      <trkpt lat="48.09866" lon="-1.75826">
        <ele>88</ele>
        <time>2025-05-16T11:51:58Z</time>
      </trkpt>
      <trkpt lat="48.09866" lon="-1.75821">
        <ele>88</ele>
        <time>2025-05-16T11:51:59Z</time>
      </trkpt>
      <trkpt lat="48.09865" lon="-1.75817">
        <ele>88</ele>
        <time>2025-05-16T11:52:00Z</time>
      </trkpt>
      <trkpt lat="48.09864" lon="-1.75813">
        <ele>88</ele>
        <time>2025-05-16T11:52:01Z</time>
      </trkpt>
      <trkpt lat="48.09863" lon="-1.75809">
        <ele>88</ele>
        <time>2025-05-16T11:52:02Z</time>
      </trkpt>
      <trkpt lat="48.09861" lon="-1.75806">
        <ele>88</ele>
        <time>2025-05-16T11:52:03Z</time>
      </trkpt>
      <trkpt lat="48.09861" lon="-1.75803">
        <ele>88</ele>
        <time>2025-05-16T11:52:04Z</time>
      </trkpt>
      <trkpt lat="48.0986" lon="-1.75799">
        <ele>88</ele>
        <time>2025-05-16T11:52:05Z</time>
      </trkpt>
      <trkpt lat="48.0986" lon="-1.75797">
        <ele>88</ele>
        <time>2025-05-16T11:52:06Z</time>
      </trkpt>
      <trkpt lat="48.09861" lon="-1.75795">
        <ele>88</ele>
        <time>2025-05-16T11:52:07Z</time>
      </trkpt>
      <trkpt lat="48.09861" lon="-1.75793">
        <ele>88</ele>
        <time>2025-05-16T11:52:08Z</time>
      </trkpt>
      <trkpt lat="48.09861" lon="-1.75791">
        <ele>88</ele>
        <time>2025-05-16T11:52:09Z</time>
      </trkpt>
      <trkpt lat="48.09861" lon="-1.7579">
        <ele>88</ele>
        <time>2025-05-16T11:52:10Z</time>
      </trkpt>
      <trkpt lat="48.09861" lon="-1.7579">
        <ele>88</ele>
        <time>2025-05-16T11:52:11Z</time>
      </trkpt>
      <trkpt lat="48.09861" lon="-1.7579">
        <ele>88</ele>
        <time>2025-05-16T11:52:12Z</time>
      </trkpt>
      <trkpt lat="48.09861" lon="-1.7579">
        <ele>88</ele>
        <time>2025-05-16T11:52:13Z</time>
      </trkpt>
      <trkpt lat="48.09861" lon="-1.7579">
        <ele>88</ele>
        <time>2025-05-16T11:52:14Z</time>
      </trkpt>
      <trkpt lat="48.09861" lon="-1.7579">
        <ele>88</ele>
        <time>2025-05-16T11:52:15Z</time>
      </trkpt>
      <trkpt lat="48.09861" lon="-1.7579">
        <ele>88</ele>
        <time>2025-05-16T11:52:16Z</time>
      </trkpt>
      <trkpt lat="48.09861" lon="-1.7579">
        <ele>88</ele>
        <time>2025-05-16T11:52:17Z</time>
      </trkpt>
      <trkpt lat="48.09861" lon="-1.7579">
        <ele>88</ele>
        <time>2025-05-16T11:52:18Z</time>
      </trkpt>
      <trkpt lat="48.09861" lon="-1.7579">
        <ele>88</ele>
        <time>2025-05-16T11:52:19Z</time>
      </trkpt>
      <trkpt lat="48.09861" lon="-1.7579">
        <ele>88</ele>
        <time>2025-05-16T11:52:20Z</time>
      </trkpt>
      <trkpt lat="48.09861" lon="-1.7579">
        <ele>88</ele>
        <time>2025-05-16T11:52:21Z</time>
      </trkpt>
      <trkpt lat="48.09861" lon="-1.7579">
        <ele>88</ele>
        <time>2025-05-16T11:52:22Z</time>
      </trkpt>
      <trkpt lat="48.09861" lon="-1.7579">
        <ele>88</ele>
        <time>2025-05-16T11:52:23Z</time>
      </trkpt>
      <trkpt lat="48.09861" lon="-1.7579">
        <ele>88</ele>
        <time>2025-05-16T11:52:24Z</time>
      </trkpt>
      <trkpt lat="48.09861" lon="-1.7579">
        <ele>88</ele>
        <time>2025-05-16T11:52:25Z</time>
      </trkpt>
      <trkpt lat="48.09861" lon="-1.7579">
        <ele>88</ele>
        <time>2025-05-16T11:52:26Z</time>
      </trkpt>
      <trkpt lat="48.09861" lon="-1.7579">
        <ele>88</ele>
        <time>2025-05-16T11:52:27Z</time>
      </trkpt>
      <trkpt lat="48.09861" lon="-1.7579">
        <ele>88</ele>
        <time>2025-05-16T11:52:28Z</time>
      </trkpt>
      <trkpt lat="48.09861" lon="-1.7579">
        <ele>88</ele>
        <time>2025-05-16T11:52:29Z</time>
      </trkpt>
      <trkpt lat="48.09861" lon="-1.7579">
        <ele>88</ele>
        <time>2025-05-16T11:52:30Z</time>
      </trkpt>
      <trkpt lat="48.09861" lon="-1.7579">
        <ele>88</ele>
        <time>2025-05-16T11:52:31Z</time>
      </trkpt>
      <trkpt lat="48.09861" lon="-1.7579">
        <ele>88</ele>
        <time>2025-05-16T11:52:32Z</time>
      </trkpt>
      <trkpt lat="48.09861" lon="-1.7579">
        <ele>88</ele>
        <time>2025-05-16T11:52:33Z</time>
      </trkpt>
      <trkpt lat="48.09861" lon="-1.7579">
        <ele>88</ele>
        <time>2025-05-16T11:52:34Z</time>
      </trkpt>
      <trkpt lat="48.09861" lon="-1.7579">
        <ele>88</ele>
        <time>2025-05-16T11:52:35Z</time>
      </trkpt>
      <trkpt lat="48.09861" lon="-1.7579">
        <ele>88</ele>
        <time>2025-05-16T11:52:36Z</time>
      </trkpt>
      <trkpt lat="48.09861" lon="-1.7579">
        <ele>88</ele>
        <time>2025-05-16T11:52:37Z</time>
      </trkpt>
      <trkpt lat="48.09861" lon="-1.7579">
        <ele>88</ele>
        <time>2025-05-16T11:52:38Z</time>
      </trkpt>
      <trkpt lat="48.09861" lon="-1.7579">
        <ele>88</ele>
        <time>2025-05-16T11:52:39Z</time>
      </trkpt>
      <trkpt lat="48.09861" lon="-1.7579">
        <ele>88</ele>
        <time>2025-05-16T11:52:40Z</time>
      </trkpt>
      <trkpt lat="48.09861" lon="-1.7579">
        <ele>88</ele>
        <time>2025-05-16T11:52:41Z</time>
      </trkpt>
      <trkpt lat="48.09861" lon="-1.7579">
        <ele>88</ele>
        <time>2025-05-16T11:52:42Z</time>
      </trkpt>
      <trkpt lat="48.09861" lon="-1.75787">
        <ele>89</ele>
        <time>2025-05-16T11:52:43Z</time>
      </trkpt>
      <trkpt lat="48.09861" lon="-1.75785">
        <ele>89</ele>
        <time>2025-05-16T11:52:44Z</time>
      </trkpt>
      <trkpt lat="48.09861" lon="-1.75781">
        <ele>90</ele>
        <time>2025-05-16T11:52:45Z</time>
      </trkpt>
      <trkpt lat="48.09862" lon="-1.75778">
        <ele>90</ele>
        <time>2025-05-16T11:52:46Z</time>
      </trkpt>
      <trkpt lat="48.09862" lon="-1.75773">
        <ele>90</ele>
        <time>2025-05-16T11:52:47Z</time>
      </trkpt>
      <trkpt lat="48.09862" lon="-1.7577">
        <ele>90</ele>
        <time>2025-05-16T11:52:48Z</time>
      </trkpt>
      <trkpt lat="48.09862" lon="-1.75766">
        <ele>90</ele>
        <time>2025-05-16T11:52:49Z</time>
      </trkpt>
      <trkpt lat="48.09862" lon="-1.75761">
        <ele>90</ele>
        <time>2025-05-16T11:52:50Z</time>
      </trkpt>
      <trkpt lat="48.09863" lon="-1.75757">
        <ele>90</ele>
        <time>2025-05-16T11:52:51Z</time>
      </trkpt>
      <trkpt lat="48.09864" lon="-1.75752">
        <ele>90</ele>
        <time>2025-05-16T11:52:52Z</time>
      </trkpt>
      <trkpt lat="48.09866" lon="-1.75748">
        <ele>90</ele>
        <time>2025-05-16T11:52:53Z</time>
      </trkpt>
      <trkpt lat="48.09868" lon="-1.75745">
        <ele>90</ele>
        <time>2025-05-16T11:52:54Z</time>
      </trkpt>
      <trkpt lat="48.09871" lon="-1.75743">
        <ele>89</ele>
        <time>2025-05-16T11:52:55Z</time>
      </trkpt>
      <trkpt lat="48.09874" lon="-1.75741">
        <ele>89</ele>
        <time>2025-05-16T11:52:56Z</time>
      </trkpt>
      <trkpt lat="48.09876" lon="-1.75739">
        <ele>89</ele>
        <time>2025-05-16T11:52:57Z</time>
      </trkpt>
      <trkpt lat="48.09879" lon="-1.75737">
        <ele>89</ele>
        <time>2025-05-16T11:52:58Z</time>
      </trkpt>
      <trkpt lat="48.09881" lon="-1.75734">
        <ele>89</ele>
        <time>2025-05-16T11:52:59Z</time>
      </trkpt>
      <trkpt lat="48.09884" lon="-1.75732">
        <ele>89</ele>
        <time>2025-05-16T11:53:00Z</time>
      </trkpt>
      <trkpt lat="48.09886" lon="-1.7573">
        <ele>89</ele>
        <time>2025-05-16T11:53:01Z</time>
      </trkpt>
      <trkpt lat="48.09888" lon="-1.75728">
        <ele>89</ele>
        <time>2025-05-16T11:53:02Z</time>
      </trkpt>
      <trkpt lat="48.0989" lon="-1.75725">
        <ele>89</ele>
        <time>2025-05-16T11:53:03Z</time>
      </trkpt>
      <trkpt lat="48.09893" lon="-1.75723">
        <ele>89</ele>
        <time>2025-05-16T11:53:04Z</time>
      </trkpt>
      <trkpt lat="48.09895" lon="-1.7572">
        <ele>89</ele>
        <time>2025-05-16T11:53:05Z</time>
      </trkpt>
      <trkpt lat="48.09898" lon="-1.75717">
        <ele>89</ele>
        <time>2025-05-16T11:53:06Z</time>
      </trkpt>
      <trkpt lat="48.09901" lon="-1.75715">
        <ele>89</ele>
        <time>2025-05-16T11:53:07Z</time>
      </trkpt>
      <trkpt lat="48.09904" lon="-1.75712">
        <ele>89</ele>
        <time>2025-05-16T11:53:08Z</time>
      </trkpt>
      <trkpt lat="48.09907" lon="-1.7571">
        <ele>89</ele>
        <time>2025-05-16T11:53:09Z</time>
      </trkpt>
      <trkpt lat="48.0991" lon="-1.75707">
        <ele>89</ele>
        <time>2025-05-16T11:53:10Z</time>
      </trkpt>
      <trkpt lat="48.09913" lon="-1.75704">
        <ele>89</ele>
        <time>2025-05-16T11:53:11Z</time>
      </trkpt>
      <trkpt lat="48.09916" lon="-1.75701">
        <ele>89</ele>
        <time>2025-05-16T11:53:12Z</time>
      </trkpt>
      <trkpt lat="48.09918" lon="-1.75699">
        <ele>90</ele>
        <time>2025-05-16T11:53:13Z</time>
      </trkpt>
      <trkpt lat="48.09921" lon="-1.75696">
        <ele>90</ele>
        <time>2025-05-16T11:53:14Z</time>
      </trkpt>
      <trkpt lat="48.09924" lon="-1.75693">
        <ele>90</ele>
        <time>2025-05-16T11:53:15Z</time>
      </trkpt>
      <trkpt lat="48.09927" lon="-1.75691">
        <ele>90</ele>
        <time>2025-05-16T11:53:16Z</time>
      </trkpt>
      <trkpt lat="48.0993" lon="-1.75688">
        <ele>90</ele>
        <time>2025-05-16T11:53:17Z</time>
      </trkpt>
      <trkpt lat="48.09933" lon="-1.75685">
        <ele>90</ele>
        <time>2025-05-16T11:53:18Z</time>
      </trkpt>
      <trkpt lat="48.09935" lon="-1.75682">
        <ele>90</ele>
        <time>2025-05-16T11:53:19Z</time>
      </trkpt>
      <trkpt lat="48.09938" lon="-1.75679">
        <ele>90</ele>
        <time>2025-05-16T11:53:20Z</time>
      </trkpt>
      <trkpt lat="48.09941" lon="-1.75676">
        <ele>90</ele>
        <time>2025-05-16T11:53:21Z</time>
      </trkpt>
      <trkpt lat="48.09944" lon="-1.75673">
        <ele>90</ele>
        <time>2025-05-16T11:53:22Z</time>
      </trkpt>
      <trkpt lat="48.09946" lon="-1.75671">
        <ele>90</ele>
        <time>2025-05-16T11:53:23Z</time>
      </trkpt>
      <trkpt lat="48.09949" lon="-1.75668">
        <ele>90</ele>
        <time>2025-05-16T11:53:24Z</time>
      </trkpt>
      <trkpt lat="48.09952" lon="-1.75665">
        <ele>90</ele>
        <time>2025-05-16T11:53:25Z</time>
      </trkpt>
      <trkpt lat="48.09955" lon="-1.75661">
        <ele>90</ele>
        <time>2025-05-16T11:53:26Z</time>
      </trkpt>
      <trkpt lat="48.09957" lon="-1.75658">
        <ele>90</ele>
        <time>2025-05-16T11:53:27Z</time>
      </trkpt>
      <trkpt lat="48.0996" lon="-1.75655">
        <ele>90</ele>
        <time>2025-05-16T11:53:28Z</time>
      </trkpt>
      <trkpt lat="48.09963" lon="-1.75651">
        <ele>90</ele>
        <time>2025-05-16T11:53:29Z</time>
      </trkpt>
      <trkpt lat="48.09966" lon="-1.75648">
        <ele>90</ele>
        <time>2025-05-16T11:53:30Z</time>
      </trkpt>
      <trkpt lat="48.09969" lon="-1.75645">
        <ele>90</ele>
        <time>2025-05-16T11:53:31Z</time>
      </trkpt>
      <trkpt lat="48.09972" lon="-1.75642">
        <ele>90</ele>
        <time>2025-05-16T11:53:32Z</time>
      </trkpt>
      <trkpt lat="48.09975" lon="-1.75638">
        <ele>90</ele>
        <time>2025-05-16T11:53:33Z</time>
      </trkpt>
      <trkpt lat="48.09979" lon="-1.75635">
        <ele>90</ele>
        <time>2025-05-16T11:53:34Z</time>
      </trkpt>
      <trkpt lat="48.09981" lon="-1.75631">
        <ele>90</ele>
        <time>2025-05-16T11:53:35Z</time>
      </trkpt>
      <trkpt lat="48.09984" lon="-1.75627">
        <ele>89</ele>
        <time>2025-05-16T11:53:36Z</time>
      </trkpt>
      <trkpt lat="48.09987" lon="-1.75623">
        <ele>89</ele>
        <time>2025-05-16T11:53:37Z</time>
      </trkpt>
      <trkpt lat="48.0999" lon="-1.75619">
        <ele>89</ele>
        <time>2025-05-16T11:53:38Z</time>
      </trkpt>
      <trkpt lat="48.09993" lon="-1.75616">
        <ele>89</ele>
        <time>2025-05-16T11:53:39Z</time>
      </trkpt>
      <trkpt lat="48.09996" lon="-1.75612">
        <ele>89</ele>
        <time>2025-05-16T11:53:40Z</time>
      </trkpt>
      <trkpt lat="48.09999" lon="-1.75608">
        <ele>89</ele>
        <time>2025-05-16T11:53:41Z</time>
      </trkpt>
      <trkpt lat="48.10002" lon="-1.75604">
        <ele>89</ele>
        <time>2025-05-16T11:53:42Z</time>
      </trkpt>
      <trkpt lat="48.10005" lon="-1.756">
        <ele>88</ele>
        <time>2025-05-16T11:53:43Z</time>
      </trkpt>
      <trkpt lat="48.10008" lon="-1.75596">
        <ele>88</ele>
        <time>2025-05-16T11:53:44Z</time>
      </trkpt>
      <trkpt lat="48.10012" lon="-1.75592">
        <ele>88</ele>
        <time>2025-05-16T11:53:45Z</time>
      </trkpt>
      <trkpt lat="48.10015" lon="-1.75588">
        <ele>88</ele>
        <time>2025-05-16T11:53:46Z</time>
      </trkpt>
      <trkpt lat="48.10019" lon="-1.75583">
        <ele>88</ele>
        <time>2025-05-16T11:53:47Z</time>
      </trkpt>
      <trkpt lat="48.10022" lon="-1.75579">
        <ele>89</ele>
        <time>2025-05-16T11:53:48Z</time>
      </trkpt>
      <trkpt lat="48.10025" lon="-1.75575">
        <ele>89</ele>
        <time>2025-05-16T11:53:49Z</time>
      </trkpt>
      <trkpt lat="48.10028" lon="-1.75571">
        <ele>89</ele>
        <time>2025-05-16T11:53:50Z</time>
      </trkpt>
      <trkpt lat="48.10031" lon="-1.75567">
        <ele>89</ele>
        <time>2025-05-16T11:53:51Z</time>
      </trkpt>
      <trkpt lat="48.10033" lon="-1.75562">
        <ele>89</ele>
        <time>2025-05-16T11:53:52Z</time>
      </trkpt>
      <trkpt lat="48.10036" lon="-1.75557">
        <ele>89</ele>
        <time>2025-05-16T11:53:53Z</time>
      </trkpt>
      <trkpt lat="48.1004" lon="-1.75553">
        <ele>89</ele>
        <time>2025-05-16T11:53:54Z</time>
      </trkpt>
      <trkpt lat="48.10043" lon="-1.75548">
        <ele>88</ele>
        <time>2025-05-16T11:53:55Z</time>
      </trkpt>
      <trkpt lat="48.10046" lon="-1.75544">
        <ele>88</ele>
        <time>2025-05-16T11:53:56Z</time>
      </trkpt>
      <trkpt lat="48.10049" lon="-1.75539">
        <ele>88</ele>
        <time>2025-05-16T11:53:57Z</time>
      </trkpt>
      <trkpt lat="48.10053" lon="-1.75534">
        <ele>88</ele>
        <time>2025-05-16T11:53:58Z</time>
      </trkpt>
      <trkpt lat="48.10056" lon="-1.75529">
        <ele>88</ele>
        <time>2025-05-16T11:53:59Z</time>
      </trkpt>
      <trkpt lat="48.10059" lon="-1.75525">
        <ele>88</ele>
        <time>2025-05-16T11:54:00Z</time>
      </trkpt>
      <trkpt lat="48.10062" lon="-1.75519">
        <ele>88</ele>
        <time>2025-05-16T11:54:01Z</time>
      </trkpt>
      <trkpt lat="48.10065" lon="-1.75513">
        <ele>88</ele>
        <time>2025-05-16T11:54:02Z</time>
      </trkpt>
      <trkpt lat="48.10069" lon="-1.75508">
        <ele>87</ele>
        <time>2025-05-16T11:54:03Z</time>
      </trkpt>
      <trkpt lat="48.10072" lon="-1.75502">
        <ele>87</ele>
        <time>2025-05-16T11:54:04Z</time>
      </trkpt>
      <trkpt lat="48.10076" lon="-1.75495">
        <ele>87</ele>
        <time>2025-05-16T11:54:05Z</time>
      </trkpt>
      <trkpt lat="48.1008" lon="-1.75489">
        <ele>87</ele>
        <time>2025-05-16T11:54:06Z</time>
      </trkpt>
      <trkpt lat="48.10084" lon="-1.75483">
        <ele>86</ele>
        <time>2025-05-16T11:54:07Z</time>
      </trkpt>
      <trkpt lat="48.10089" lon="-1.75476">
        <ele>86</ele>
        <time>2025-05-16T11:54:08Z</time>
      </trkpt>
      <trkpt lat="48.10093" lon="-1.75469">
        <ele>85</ele>
        <time>2025-05-16T11:54:09Z</time>
      </trkpt>
      <trkpt lat="48.10097" lon="-1.75461">
        <ele>85</ele>
        <time>2025-05-16T11:54:10Z</time>
      </trkpt>
      <trkpt lat="48.10101" lon="-1.75454">
        <ele>85</ele>
        <time>2025-05-16T11:54:11Z</time>
      </trkpt>
      <trkpt lat="48.10105" lon="-1.75447">
        <ele>85</ele>
        <time>2025-05-16T11:54:12Z</time>
      </trkpt>
      <trkpt lat="48.1011" lon="-1.7544">
        <ele>84</ele>
        <time>2025-05-16T11:54:13Z</time>
      </trkpt>
      <trkpt lat="48.10114" lon="-1.75433">
        <ele>83</ele>
        <time>2025-05-16T11:54:14Z</time>
      </trkpt>
      <trkpt lat="48.10119" lon="-1.75426">
        <ele>82</ele>
        <time>2025-05-16T11:54:15Z</time>
      </trkpt>
      <trkpt lat="48.10123" lon="-1.75419">
        <ele>82</ele>
        <time>2025-05-16T11:54:16Z</time>
      </trkpt>
      <trkpt lat="48.10128" lon="-1.75412">
        <ele>82</ele>
        <time>2025-05-16T11:54:17Z</time>
      </trkpt>
      <trkpt lat="48.10132" lon="-1.75405">
        <ele>81</ele>
        <time>2025-05-16T11:54:18Z</time>
      </trkpt>
      <trkpt lat="48.10136" lon="-1.75399">
        <ele>81</ele>
        <time>2025-05-16T11:54:19Z</time>
      </trkpt>
      <trkpt lat="48.10139" lon="-1.75393">
        <ele>81</ele>
        <time>2025-05-16T11:54:20Z</time>
      </trkpt>
      <trkpt lat="48.10143" lon="-1.75388">
        <ele>81</ele>
        <time>2025-05-16T11:54:21Z</time>
      </trkpt>
      <trkpt lat="48.10145" lon="-1.75383">
        <ele>81</ele>
        <time>2025-05-16T11:54:22Z</time>
      </trkpt>
      <trkpt lat="48.10146" lon="-1.75379">
        <ele>80</ele>
        <time>2025-05-16T11:54:23Z</time>
      </trkpt>
      <trkpt lat="48.10147" lon="-1.75375">
        <ele>80</ele>
        <time>2025-05-16T11:54:24Z</time>
      </trkpt>
      <trkpt lat="48.10148" lon="-1.75373">
        <ele>80</ele>
        <time>2025-05-16T11:54:25Z</time>
      </trkpt>
      <trkpt lat="48.10149" lon="-1.7537">
        <ele>80</ele>
        <time>2025-05-16T11:54:26Z</time>
      </trkpt>
      <trkpt lat="48.1015" lon="-1.75366">
        <ele>80</ele>
        <time>2025-05-16T11:54:27Z</time>
      </trkpt>
      <trkpt lat="48.10149" lon="-1.75362">
        <ele>80</ele>
        <time>2025-05-16T11:54:28Z</time>
      </trkpt>
      <trkpt lat="48.10148" lon="-1.75356">
        <ele>80</ele>
        <time>2025-05-16T11:54:29Z</time>
      </trkpt>
      <trkpt lat="48.10147" lon="-1.75351">
        <ele>80</ele>
        <time>2025-05-16T11:54:30Z</time>
      </trkpt>
      <trkpt lat="48.10145" lon="-1.75346">
        <ele>80</ele>
        <time>2025-05-16T11:54:31Z</time>
      </trkpt>
      <trkpt lat="48.10144" lon="-1.75342">
        <ele>81</ele>
        <time>2025-05-16T11:54:32Z</time>
      </trkpt>
      <trkpt lat="48.10142" lon="-1.75337">
        <ele>81</ele>
        <time>2025-05-16T11:54:33Z</time>
      </trkpt>
      <trkpt lat="48.1014" lon="-1.75332">
        <ele>82</ele>
        <time>2025-05-16T11:54:34Z</time>
      </trkpt>
      <trkpt lat="48.10137" lon="-1.75328">
        <ele>83</ele>
        <time>2025-05-16T11:54:35Z</time>
      </trkpt>
      <trkpt lat="48.10134" lon="-1.75324">
        <ele>83</ele>
        <time>2025-05-16T11:54:36Z</time>
      </trkpt>
      <trkpt lat="48.10132" lon="-1.7532">
        <ele>83</ele>
        <time>2025-05-16T11:54:37Z</time>
      </trkpt>
      <trkpt lat="48.10129" lon="-1.75316">
        <ele>84</ele>
        <time>2025-05-16T11:54:38Z</time>
      </trkpt>
      <trkpt lat="48.10125" lon="-1.75312">
        <ele>83</ele>
        <time>2025-05-16T11:54:39Z</time>
      </trkpt>
      <trkpt lat="48.10122" lon="-1.75309">
        <ele>83</ele>
        <time>2025-05-16T11:54:40Z</time>
      </trkpt>
      <trkpt lat="48.10118" lon="-1.75305">
        <ele>83</ele>
        <time>2025-05-16T11:54:41Z</time>
      </trkpt>
      <trkpt lat="48.10115" lon="-1.75302">
        <ele>83</ele>
        <time>2025-05-16T11:54:42Z</time>
      </trkpt>
      <trkpt lat="48.10111" lon="-1.75297">
        <ele>83</ele>
        <time>2025-05-16T11:54:43Z</time>
      </trkpt>
      <trkpt lat="48.10107" lon="-1.75293">
        <ele>82</ele>
        <time>2025-05-16T11:54:44Z</time>
      </trkpt>
      <trkpt lat="48.10102" lon="-1.7529">
        <ele>82</ele>
        <time>2025-05-16T11:54:45Z</time>
      </trkpt>
      <trkpt lat="48.10099" lon="-1.75286">
        <ele>82</ele>
        <time>2025-05-16T11:54:46Z</time>
      </trkpt>
      <trkpt lat="48.10095" lon="-1.75282">
        <ele>81</ele>
        <time>2025-05-16T11:54:47Z</time>
      </trkpt>
      <trkpt lat="48.10091" lon="-1.75279">
        <ele>81</ele>
        <time>2025-05-16T11:54:48Z</time>
      </trkpt>
      <trkpt lat="48.10087" lon="-1.75275">
        <ele>81</ele>
        <time>2025-05-16T11:54:49Z</time>
      </trkpt>
      <trkpt lat="48.10083" lon="-1.75271">
        <ele>81</ele>
        <time>2025-05-16T11:54:50Z</time>
      </trkpt>
      <trkpt lat="48.10078" lon="-1.75267">
        <ele>81</ele>
        <time>2025-05-16T11:54:51Z</time>
      </trkpt>
      <trkpt lat="48.10074" lon="-1.75264">
        <ele>81</ele>
        <time>2025-05-16T11:54:52Z</time>
      </trkpt>
      <trkpt lat="48.1007" lon="-1.7526">
        <ele>81</ele>
        <time>2025-05-16T11:54:53Z</time>
      </trkpt>
      <trkpt lat="48.10066" lon="-1.75257">
        <ele>81</ele>
        <time>2025-05-16T11:54:54Z</time>
      </trkpt>
      <trkpt lat="48.10062" lon="-1.75253">
        <ele>80</ele>
        <time>2025-05-16T11:54:55Z</time>
      </trkpt>
      <trkpt lat="48.10058" lon="-1.75249">
        <ele>80</ele>
        <time>2025-05-16T11:54:56Z</time>
      </trkpt>
      <trkpt lat="48.10054" lon="-1.75246">
        <ele>80</ele>
        <time>2025-05-16T11:54:57Z</time>
      </trkpt>
      <trkpt lat="48.1005" lon="-1.75242">
        <ele>81</ele>
        <time>2025-05-16T11:54:58Z</time>
      </trkpt>
      <trkpt lat="48.10046" lon="-1.75239">
        <ele>81</ele>
        <time>2025-05-16T11:54:59Z</time>
      </trkpt>
      <trkpt lat="48.10041" lon="-1.75235">
        <ele>81</ele>
        <time>2025-05-16T11:55:00Z</time>
      </trkpt>
      <trkpt lat="48.10038" lon="-1.75231">
        <ele>81</ele>
        <time>2025-05-16T11:55:01Z</time>
      </trkpt>
      <trkpt lat="48.10034" lon="-1.75228">
        <ele>80</ele>
        <time>2025-05-16T11:55:02Z</time>
      </trkpt>
      <trkpt lat="48.1003" lon="-1.75224">
        <ele>80</ele>
        <time>2025-05-16T11:55:03Z</time>
      </trkpt>
      <trkpt lat="48.10027" lon="-1.75221">
        <ele>80</ele>
        <time>2025-05-16T11:55:04Z</time>
      </trkpt>
      <trkpt lat="48.10023" lon="-1.75218">
        <ele>80</ele>
        <time>2025-05-16T11:55:05Z</time>
      </trkpt>
      <trkpt lat="48.10019" lon="-1.75215">
        <ele>80</ele>
        <time>2025-05-16T11:55:06Z</time>
      </trkpt>
      <trkpt lat="48.10015" lon="-1.75211">
        <ele>80</ele>
        <time>2025-05-16T11:55:07Z</time>
      </trkpt>
      <trkpt lat="48.10011" lon="-1.75208">
        <ele>80</ele>
        <time>2025-05-16T11:55:08Z</time>
      </trkpt>
      <trkpt lat="48.10008" lon="-1.75205">
        <ele>80</ele>
        <time>2025-05-16T11:55:09Z</time>
      </trkpt>
      <trkpt lat="48.10004" lon="-1.75202">
        <ele>80</ele>
        <time>2025-05-16T11:55:10Z</time>
      </trkpt>
      <trkpt lat="48.10001" lon="-1.75198">
        <ele>80</ele>
        <time>2025-05-16T11:55:11Z</time>
      </trkpt>
      <trkpt lat="48.09997" lon="-1.75195">
        <ele>80</ele>
        <time>2025-05-16T11:55:12Z</time>
      </trkpt>
      <trkpt lat="48.09993" lon="-1.75192">
        <ele>80</ele>
        <time>2025-05-16T11:55:13Z</time>
      </trkpt>
      <trkpt lat="48.0999" lon="-1.75188">
        <ele>80</ele>
        <time>2025-05-16T11:55:14Z</time>
      </trkpt>
      <trkpt lat="48.09986" lon="-1.75185">
        <ele>80</ele>
        <time>2025-05-16T11:55:15Z</time>
      </trkpt>
      <trkpt lat="48.09982" lon="-1.75182">
        <ele>80</ele>
        <time>2025-05-16T11:55:16Z</time>
      </trkpt>
      <trkpt lat="48.09979" lon="-1.75179">
        <ele>81</ele>
        <time>2025-05-16T11:55:17Z</time>
      </trkpt>
      <trkpt lat="48.09975" lon="-1.75176">
        <ele>81</ele>
        <time>2025-05-16T11:55:18Z</time>
      </trkpt>
      <trkpt lat="48.09972" lon="-1.75172">
        <ele>80</ele>
        <time>2025-05-16T11:55:19Z</time>
      </trkpt>
      <trkpt lat="48.09968" lon="-1.75169">
        <ele>80</ele>
        <time>2025-05-16T11:55:20Z</time>
      </trkpt>
      <trkpt lat="48.09965" lon="-1.75166">
        <ele>80</ele>
        <time>2025-05-16T11:55:21Z</time>
      </trkpt>
      <trkpt lat="48.09961" lon="-1.75162">
        <ele>80</ele>
        <time>2025-05-16T11:55:22Z</time>
      </trkpt>
      <trkpt lat="48.09958" lon="-1.75159">
        <ele>80</ele>
        <time>2025-05-16T11:55:23Z</time>
      </trkpt>
      <trkpt lat="48.09955" lon="-1.75156">
        <ele>80</ele>
        <time>2025-05-16T11:55:24Z</time>
      </trkpt>
      <trkpt lat="48.09951" lon="-1.75153">
        <ele>80</ele>
        <time>2025-05-16T11:55:25Z</time>
      </trkpt>
      <trkpt lat="48.09948" lon="-1.75149">
        <ele>80</ele>
        <time>2025-05-16T11:55:26Z</time>
      </trkpt>
      <trkpt lat="48.09944" lon="-1.75146">
        <ele>81</ele>
        <time>2025-05-16T11:55:27Z</time>
      </trkpt>
      <trkpt lat="48.09941" lon="-1.75142">
        <ele>80</ele>
        <time>2025-05-16T11:55:28Z</time>
      </trkpt>
      <trkpt lat="48.09938" lon="-1.75139">
        <ele>80</ele>
        <time>2025-05-16T11:55:29Z</time>
      </trkpt>
      <trkpt lat="48.09934" lon="-1.75135">
        <ele>81</ele>
        <time>2025-05-16T11:55:30Z</time>
      </trkpt>
      <trkpt lat="48.09931" lon="-1.75132">
        <ele>81</ele>
        <time>2025-05-16T11:55:31Z</time>
      </trkpt>
      <trkpt lat="48.09927" lon="-1.75128">
        <ele>81</ele>
        <time>2025-05-16T11:55:32Z</time>
      </trkpt>
      <trkpt lat="48.09924" lon="-1.75125">
        <ele>81</ele>
        <time>2025-05-16T11:55:33Z</time>
      </trkpt>
      <trkpt lat="48.09921" lon="-1.75121">
        <ele>81</ele>
        <time>2025-05-16T11:55:34Z</time>
      </trkpt>
      <trkpt lat="48.09917" lon="-1.75117">
        <ele>81</ele>
        <time>2025-05-16T11:55:35Z</time>
      </trkpt>
      <trkpt lat="48.09914" lon="-1.75112">
        <ele>81</ele>
        <time>2025-05-16T11:55:36Z</time>
      </trkpt>
      <trkpt lat="48.09911" lon="-1.75108">
        <ele>81</ele>
        <time>2025-05-16T11:55:37Z</time>
      </trkpt>
      <trkpt lat="48.09907" lon="-1.75104">
        <ele>80</ele>
        <time>2025-05-16T11:55:38Z</time>
      </trkpt>
      <trkpt lat="48.09904" lon="-1.751">
        <ele>81</ele>
        <time>2025-05-16T11:55:39Z</time>
      </trkpt>
      <trkpt lat="48.099" lon="-1.75096">
        <ele>81</ele>
        <time>2025-05-16T11:55:40Z</time>
      </trkpt>
      <trkpt lat="48.09897" lon="-1.75091">
        <ele>81</ele>
        <time>2025-05-16T11:55:41Z</time>
      </trkpt>
      <trkpt lat="48.09893" lon="-1.75087">
        <ele>81</ele>
        <time>2025-05-16T11:55:42Z</time>
      </trkpt>
      <trkpt lat="48.0989" lon="-1.75083">
        <ele>81</ele>
        <time>2025-05-16T11:55:43Z</time>
      </trkpt>
      <trkpt lat="48.09886" lon="-1.75078">
        <ele>81</ele>
        <time>2025-05-16T11:55:44Z</time>
      </trkpt>
      <trkpt lat="48.09882" lon="-1.75074">
        <ele>81</ele>
        <time>2025-05-16T11:55:45Z</time>
      </trkpt>
      <trkpt lat="48.09879" lon="-1.75069">
        <ele>81</ele>
        <time>2025-05-16T11:55:46Z</time>
      </trkpt>
      <trkpt lat="48.09875" lon="-1.75065">
        <ele>81</ele>
        <time>2025-05-16T11:55:47Z</time>
      </trkpt>
      <trkpt lat="48.09871" lon="-1.7506">
        <ele>82</ele>
        <time>2025-05-16T11:55:48Z</time>
      </trkpt>
      <trkpt lat="48.09867" lon="-1.75056">
        <ele>82</ele>
        <time>2025-05-16T11:55:49Z</time>
      </trkpt>
      <trkpt lat="48.09864" lon="-1.75052">
        <ele>82</ele>
        <time>2025-05-16T11:55:50Z</time>
      </trkpt>
      <trkpt lat="48.0986" lon="-1.75048">
        <ele>82</ele>
        <time>2025-05-16T11:55:51Z</time>
      </trkpt>
      <trkpt lat="48.09856" lon="-1.75043">
        <ele>82</ele>
        <time>2025-05-16T11:55:52Z</time>
      </trkpt>
      <trkpt lat="48.09852" lon="-1.75038">
        <ele>82</ele>
        <time>2025-05-16T11:55:53Z</time>
      </trkpt>
      <trkpt lat="48.09848" lon="-1.75034">
        <ele>83</ele>
        <time>2025-05-16T11:55:54Z</time>
      </trkpt>
      <trkpt lat="48.09844" lon="-1.75029">
        <ele>83</ele>
        <time>2025-05-16T11:55:55Z</time>
      </trkpt>
      <trkpt lat="48.0984" lon="-1.75025">
        <ele>83</ele>
        <time>2025-05-16T11:55:56Z</time>
      </trkpt>
      <trkpt lat="48.09836" lon="-1.75021">
        <ele>83</ele>
        <time>2025-05-16T11:55:57Z</time>
      </trkpt>
      <trkpt lat="48.09832" lon="-1.75017">
        <ele>82</ele>
        <time>2025-05-16T11:55:58Z</time>
      </trkpt>
      <trkpt lat="48.09829" lon="-1.75012">
        <ele>82</ele>
        <time>2025-05-16T11:55:59Z</time>
      </trkpt>
      <trkpt lat="48.09825" lon="-1.75007">
        <ele>83</ele>
        <time>2025-05-16T11:56:00Z</time>
      </trkpt>
      <trkpt lat="48.09821" lon="-1.75003">
        <ele>83</ele>
        <time>2025-05-16T11:56:01Z</time>
      </trkpt>
      <trkpt lat="48.09817" lon="-1.74999">
        <ele>83</ele>
        <time>2025-05-16T11:56:02Z</time>
      </trkpt>
      <trkpt lat="48.09813" lon="-1.74995">
        <ele>83</ele>
        <time>2025-05-16T11:56:03Z</time>
      </trkpt>
      <trkpt lat="48.09809" lon="-1.74991">
        <ele>83</ele>
        <time>2025-05-16T11:56:04Z</time>
      </trkpt>
      <trkpt lat="48.09804" lon="-1.74988">
        <ele>82</ele>
        <time>2025-05-16T11:56:05Z</time>
      </trkpt>
      <trkpt lat="48.098" lon="-1.74985">
        <ele>82</ele>
        <time>2025-05-16T11:56:06Z</time>
      </trkpt>
      <trkpt lat="48.09795" lon="-1.74983">
        <ele>82</ele>
        <time>2025-05-16T11:56:07Z</time>
      </trkpt>
      <trkpt lat="48.09791" lon="-1.7498">
        <ele>82</ele>
        <time>2025-05-16T11:56:08Z</time>
      </trkpt>
      <trkpt lat="48.09787" lon="-1.74978">
        <ele>82</ele>
        <time>2025-05-16T11:56:09Z</time>
      </trkpt>
      <trkpt lat="48.09782" lon="-1.74976">
        <ele>82</ele>
        <time>2025-05-16T11:56:10Z</time>
      </trkpt>
      <trkpt lat="48.09777" lon="-1.74975">
        <ele>83</ele>
        <time>2025-05-16T11:56:11Z</time>
      </trkpt>
      <trkpt lat="48.09772" lon="-1.74973">
        <ele>82</ele>
        <time>2025-05-16T11:56:12Z</time>
      </trkpt>
      <trkpt lat="48.09768" lon="-1.74972">
        <ele>82</ele>
        <time>2025-05-16T11:56:13Z</time>
      </trkpt>
      <trkpt lat="48.09763" lon="-1.74972">
        <ele>82</ele>
        <time>2025-05-16T11:56:14Z</time>
      </trkpt>
      <trkpt lat="48.09758" lon="-1.74972">
        <ele>82</ele>
        <time>2025-05-16T11:56:15Z</time>
      </trkpt>
      <trkpt lat="48.09753" lon="-1.74972">
        <ele>82</ele>
        <time>2025-05-16T11:56:16Z</time>
      </trkpt>
      <trkpt lat="48.09748" lon="-1.74973">
        <ele>82</ele>
        <time>2025-05-16T11:56:17Z</time>
      </trkpt>
      <trkpt lat="48.09743" lon="-1.74973">
        <ele>82</ele>
        <time>2025-05-16T11:56:18Z</time>
      </trkpt>
      <trkpt lat="48.09738" lon="-1.74974">
        <ele>82</ele>
        <time>2025-05-16T11:56:19Z</time>
      </trkpt>
      <trkpt lat="48.09734" lon="-1.74976">
        <ele>81</ele>
        <time>2025-05-16T11:56:20Z</time>
      </trkpt>
      <trkpt lat="48.09729" lon="-1.74978">
        <ele>82</ele>
        <time>2025-05-16T11:56:21Z</time>
      </trkpt>
      <trkpt lat="48.09725" lon="-1.7498">
        <ele>82</ele>
        <time>2025-05-16T11:56:22Z</time>
      </trkpt>
      <trkpt lat="48.0972" lon="-1.74982">
        <ele>82</ele>
        <time>2025-05-16T11:56:23Z</time>
      </trkpt>
      <trkpt lat="48.09716" lon="-1.74985">
        <ele>82</ele>
        <time>2025-05-16T11:56:24Z</time>
      </trkpt>
      <trkpt lat="48.09712" lon="-1.74988">
        <ele>82</ele>
        <time>2025-05-16T11:56:25Z</time>
      </trkpt>
      <trkpt lat="48.09707" lon="-1.74991">
        <ele>82</ele>
        <time>2025-05-16T11:56:26Z</time>
      </trkpt>
      <trkpt lat="48.09703" lon="-1.74995">
        <ele>82</ele>
        <time>2025-05-16T11:56:27Z</time>
      </trkpt>
      <trkpt lat="48.09699" lon="-1.74998">
        <ele>82</ele>
        <time>2025-05-16T11:56:28Z</time>
      </trkpt>
      <trkpt lat="48.09695" lon="-1.75002">
        <ele>82</ele>
        <time>2025-05-16T11:56:29Z</time>
      </trkpt>
      <trkpt lat="48.09691" lon="-1.75006">
        <ele>83</ele>
        <time>2025-05-16T11:56:30Z</time>
      </trkpt>
      <trkpt lat="48.09688" lon="-1.7501">
        <ele>83</ele>
        <time>2025-05-16T11:56:31Z</time>
      </trkpt>
      <trkpt lat="48.09684" lon="-1.75014">
        <ele>83</ele>
        <time>2025-05-16T11:56:32Z</time>
      </trkpt>
      <trkpt lat="48.09681" lon="-1.75018">
        <ele>83</ele>
        <time>2025-05-16T11:56:33Z</time>
      </trkpt>
      <trkpt lat="48.09678" lon="-1.75022">
        <ele>82</ele>
        <time>2025-05-16T11:56:34Z</time>
      </trkpt>
      <trkpt lat="48.09675" lon="-1.75026">
        <ele>82</ele>
        <time>2025-05-16T11:56:35Z</time>
      </trkpt>
      <trkpt lat="48.09672" lon="-1.7503">
        <ele>82</ele>
        <time>2025-05-16T11:56:36Z</time>
      </trkpt>
      <trkpt lat="48.09668" lon="-1.75034">
        <ele>82</ele>
        <time>2025-05-16T11:56:37Z</time>
      </trkpt>
      <trkpt lat="48.09665" lon="-1.75037">
        <ele>82</ele>
        <time>2025-05-16T11:56:38Z</time>
      </trkpt>
      <trkpt lat="48.09662" lon="-1.75041">
        <ele>82</ele>
        <time>2025-05-16T11:56:39Z</time>
      </trkpt>
      <trkpt lat="48.09659" lon="-1.75044">
        <ele>82</ele>
        <time>2025-05-16T11:56:40Z</time>
      </trkpt>
      <trkpt lat="48.09656" lon="-1.75048">
        <ele>82</ele>
        <time>2025-05-16T11:56:41Z</time>
      </trkpt>
      <trkpt lat="48.09653" lon="-1.75052">
        <ele>82</ele>
        <time>2025-05-16T11:56:42Z</time>
      </trkpt>
      <trkpt lat="48.0965" lon="-1.75056">
        <ele>82</ele>
        <time>2025-05-16T11:56:43Z</time>
      </trkpt>
      <trkpt lat="48.09647" lon="-1.7506">
        <ele>83</ele>
        <time>2025-05-16T11:56:44Z</time>
      </trkpt>
      <trkpt lat="48.09644" lon="-1.75064">
        <ele>83</ele>
        <time>2025-05-16T11:56:45Z</time>
      </trkpt>
      <trkpt lat="48.09642" lon="-1.75068">
        <ele>83</ele>
        <time>2025-05-16T11:56:46Z</time>
      </trkpt>
      <trkpt lat="48.09639" lon="-1.75071">
        <ele>83</ele>
        <time>2025-05-16T11:56:47Z</time>
      </trkpt>
      <trkpt lat="48.09636" lon="-1.75075">
        <ele>83</ele>
        <time>2025-05-16T11:56:48Z</time>
      </trkpt>
      <trkpt lat="48.09634" lon="-1.75078">
        <ele>83</ele>
        <time>2025-05-16T11:56:49Z</time>
      </trkpt>
      <trkpt lat="48.09631" lon="-1.75081">
        <ele>83</ele>
        <time>2025-05-16T11:56:50Z</time>
      </trkpt>
      <trkpt lat="48.09629" lon="-1.75083">
        <ele>83</ele>
        <time>2025-05-16T11:56:51Z</time>
      </trkpt>
      <trkpt lat="48.09627" lon="-1.75085">
        <ele>83</ele>
        <time>2025-05-16T11:56:52Z</time>
      </trkpt>
      <trkpt lat="48.09625" lon="-1.75088">
        <ele>84</ele>
        <time>2025-05-16T11:56:53Z</time>
      </trkpt>
      <trkpt lat="48.09623" lon="-1.75091">
        <ele>84</ele>
        <time>2025-05-16T11:56:54Z</time>
      </trkpt>
      <trkpt lat="48.09621" lon="-1.75094">
        <ele>84</ele>
        <time>2025-05-16T11:56:55Z</time>
      </trkpt>
      <trkpt lat="48.0962" lon="-1.75097">
        <ele>84</ele>
        <time>2025-05-16T11:56:56Z</time>
      </trkpt>
      <trkpt lat="48.09618" lon="-1.75099">
        <ele>85</ele>
        <time>2025-05-16T11:56:57Z</time>
      </trkpt>
      <trkpt lat="48.09615" lon="-1.75101">
        <ele>85</ele>
        <time>2025-05-16T11:56:58Z</time>
      </trkpt>
      <trkpt lat="48.09613" lon="-1.75103">
        <ele>85</ele>
        <time>2025-05-16T11:56:59Z</time>
      </trkpt>
      <trkpt lat="48.09611" lon="-1.75105">
        <ele>85</ele>
        <time>2025-05-16T11:57:00Z</time>
      </trkpt>
      <trkpt lat="48.0961" lon="-1.75106">
        <ele>85</ele>
        <time>2025-05-16T11:57:01Z</time>
      </trkpt>
      <trkpt lat="48.09608" lon="-1.75108">
        <ele>85</ele>
        <time>2025-05-16T11:57:02Z</time>
      </trkpt>
      <trkpt lat="48.09607" lon="-1.7511">
        <ele>85</ele>
        <time>2025-05-16T11:57:03Z</time>
      </trkpt>
      <trkpt lat="48.09606" lon="-1.75112">
        <ele>85</ele>
        <time>2025-05-16T11:57:04Z</time>
      </trkpt>
      <trkpt lat="48.09606" lon="-1.75115">
        <ele>85</ele>
        <time>2025-05-16T11:57:05Z</time>
      </trkpt>
      <trkpt lat="48.09605" lon="-1.75116">
        <ele>85</ele>
        <time>2025-05-16T11:57:06Z</time>
      </trkpt>
      <trkpt lat="48.09604" lon="-1.75116">
        <ele>84</ele>
        <time>2025-05-16T11:57:07Z</time>
      </trkpt>
      <trkpt lat="48.09603" lon="-1.75116">
        <ele>84</ele>
        <time>2025-05-16T11:57:08Z</time>
      </trkpt>
      <trkpt lat="48.09603" lon="-1.75116">
        <ele>85</ele>
        <time>2025-05-16T11:57:09Z</time>
      </trkpt>
      <trkpt lat="48.09603" lon="-1.75116">
        <ele>85</ele>
        <time>2025-05-16T11:57:10Z</time>
      </trkpt>
      <trkpt lat="48.096" lon="-1.75115">
        <ele>84</ele>
        <time>2025-05-16T11:57:11Z</time>
      </trkpt>
      <trkpt lat="48.09598" lon="-1.75115">
        <ele>84</ele>
        <time>2025-05-16T11:57:12Z</time>
      </trkpt>
      <trkpt lat="48.09596" lon="-1.75114">
        <ele>84</ele>
        <time>2025-05-16T11:57:13Z</time>
      </trkpt>
      <trkpt lat="48.09593" lon="-1.75114">
        <ele>84</ele>
        <time>2025-05-16T11:57:14Z</time>
      </trkpt>
      <trkpt lat="48.09591" lon="-1.75113">
        <ele>85</ele>
        <time>2025-05-16T11:57:15Z</time>
      </trkpt>
      <trkpt lat="48.09588" lon="-1.7511">
        <ele>85</ele>
        <time>2025-05-16T11:57:16Z</time>
      </trkpt>
      <trkpt lat="48.09587" lon="-1.75106">
        <ele>85</ele>
        <time>2025-05-16T11:57:17Z</time>
      </trkpt>
      <trkpt lat="48.09585" lon="-1.75101">
        <ele>85</ele>
        <time>2025-05-16T11:57:18Z</time>
      </trkpt>
      <trkpt lat="48.09584" lon="-1.75095">
        <ele>85</ele>
        <time>2025-05-16T11:57:19Z</time>
      </trkpt>
      <trkpt lat="48.09583" lon="-1.75088">
        <ele>85</ele>
        <time>2025-05-16T11:57:20Z</time>
      </trkpt>
      <trkpt lat="48.09581" lon="-1.75082">
        <ele>85</ele>
        <time>2025-05-16T11:57:21Z</time>
      </trkpt>
      <trkpt lat="48.09579" lon="-1.75075">
        <ele>84</ele>
        <time>2025-05-16T11:57:22Z</time>
      </trkpt>
      <trkpt lat="48.09576" lon="-1.75069">
        <ele>84</ele>
        <time>2025-05-16T11:57:23Z</time>
      </trkpt>
      <trkpt lat="48.09574" lon="-1.75061">
        <ele>84</ele>
        <time>2025-05-16T11:57:24Z</time>
      </trkpt>
      <trkpt lat="48.09572" lon="-1.75054">
        <ele>84</ele>
        <time>2025-05-16T11:57:25Z</time>
      </trkpt>
      <trkpt lat="48.0957" lon="-1.75046">
        <ele>83</ele>
        <time>2025-05-16T11:57:26Z</time>
      </trkpt>
      <trkpt lat="48.09567" lon="-1.75038">
        <ele>82</ele>
        <time>2025-05-16T11:57:27Z</time>
      </trkpt>
      <trkpt lat="48.09565" lon="-1.7503">
        <ele>81</ele>
        <time>2025-05-16T11:57:28Z</time>
      </trkpt>
      <trkpt lat="48.09562" lon="-1.75023">
        <ele>81</ele>
        <time>2025-05-16T11:57:29Z</time>
      </trkpt>
      <trkpt lat="48.09559" lon="-1.75017">
        <ele>80</ele>
        <time>2025-05-16T11:57:30Z</time>
      </trkpt>
      <trkpt lat="48.09556" lon="-1.7501">
        <ele>79</ele>
        <time>2025-05-16T11:57:31Z</time>
      </trkpt>
      <trkpt lat="48.09554" lon="-1.75003">
        <ele>78</ele>
        <time>2025-05-16T11:57:32Z</time>
      </trkpt>
      <trkpt lat="48.09551" lon="-1.74995">
        <ele>77</ele>
        <time>2025-05-16T11:57:33Z</time>
      </trkpt>
      <trkpt lat="48.09548" lon="-1.74987">
        <ele>77</ele>
        <time>2025-05-16T11:57:34Z</time>
      </trkpt>
      <trkpt lat="48.09545" lon="-1.74979">
        <ele>76</ele>
        <time>2025-05-16T11:57:35Z</time>
      </trkpt>
      <trkpt lat="48.09543" lon="-1.74969">
        <ele>77</ele>
        <time>2025-05-16T11:57:36Z</time>
      </trkpt>
      <trkpt lat="48.09539" lon="-1.7496">
        <ele>76</ele>
        <time>2025-05-16T11:57:37Z</time>
      </trkpt>
      <trkpt lat="48.09536" lon="-1.74951">
        <ele>76</ele>
        <time>2025-05-16T11:57:38Z</time>
      </trkpt>
      <trkpt lat="48.09533" lon="-1.74942">
        <ele>75</ele>
        <time>2025-05-16T11:57:39Z</time>
      </trkpt>
      <trkpt lat="48.0953" lon="-1.74934">
        <ele>75</ele>
        <time>2025-05-16T11:57:40Z</time>
      </trkpt>
      <trkpt lat="48.09526" lon="-1.74925">
        <ele>74</ele>
        <time>2025-05-16T11:57:41Z</time>
      </trkpt>
      <trkpt lat="48.09522" lon="-1.74916">
        <ele>74</ele>
        <time>2025-05-16T11:57:42Z</time>
      </trkpt>
      <trkpt lat="48.09519" lon="-1.74908">
        <ele>73</ele>
        <time>2025-05-16T11:57:43Z</time>
      </trkpt>
      <trkpt lat="48.09516" lon="-1.749">
        <ele>72</ele>
        <time>2025-05-16T11:57:44Z</time>
      </trkpt>
      <trkpt lat="48.09513" lon="-1.74891">
        <ele>72</ele>
        <time>2025-05-16T11:57:45Z</time>
      </trkpt>
      <trkpt lat="48.0951" lon="-1.74882">
        <ele>72</ele>
        <time>2025-05-16T11:57:46Z</time>
      </trkpt>
      <trkpt lat="48.09507" lon="-1.74874">
        <ele>72</ele>
        <time>2025-05-16T11:57:47Z</time>
      </trkpt>
      <trkpt lat="48.09503" lon="-1.74866">
        <ele>72</ele>
        <time>2025-05-16T11:57:48Z</time>
      </trkpt>
      <trkpt lat="48.095" lon="-1.74858">
        <ele>72</ele>
        <time>2025-05-16T11:57:49Z</time>
      </trkpt>
      <trkpt lat="48.09498" lon="-1.74851">
        <ele>72</ele>
        <time>2025-05-16T11:57:50Z</time>
      </trkpt>
      <trkpt lat="48.09496" lon="-1.74844">
        <ele>71</ele>
        <time>2025-05-16T11:57:51Z</time>
      </trkpt>
      <trkpt lat="48.09493" lon="-1.74837">
        <ele>71</ele>
        <time>2025-05-16T11:57:52Z</time>
      </trkpt>
      <trkpt lat="48.0949" lon="-1.74831">
        <ele>71</ele>
        <time>2025-05-16T11:57:53Z</time>
      </trkpt>
      <trkpt lat="48.09488" lon="-1.74825">
        <ele>71</ele>
        <time>2025-05-16T11:57:54Z</time>
      </trkpt>
      <trkpt lat="48.09486" lon="-1.74819">
        <ele>71</ele>
        <time>2025-05-16T11:57:55Z</time>
      </trkpt>
      <trkpt lat="48.09484" lon="-1.74813">
        <ele>71</ele>
        <time>2025-05-16T11:57:56Z</time>
      </trkpt>
      <trkpt lat="48.09482" lon="-1.74807">
        <ele>72</ele>
        <time>2025-05-16T11:57:57Z</time>
      </trkpt>
      <trkpt lat="48.0948" lon="-1.74801">
        <ele>72</ele>
        <time>2025-05-16T11:57:58Z</time>
      </trkpt>
      <trkpt lat="48.09477" lon="-1.74795">
        <ele>73</ele>
        <time>2025-05-16T11:57:59Z</time>
      </trkpt>
      <trkpt lat="48.09474" lon="-1.7479">
        <ele>73</ele>
        <time>2025-05-16T11:58:00Z</time>
      </trkpt>
      <trkpt lat="48.09472" lon="-1.74784">
        <ele>73</ele>
        <time>2025-05-16T11:58:01Z</time>
      </trkpt>
      <trkpt lat="48.09469" lon="-1.74778">
        <ele>73</ele>
        <time>2025-05-16T11:58:02Z</time>
      </trkpt>
      <trkpt lat="48.09466" lon="-1.74771">
        <ele>74</ele>
        <time>2025-05-16T11:58:03Z</time>
      </trkpt>
      <trkpt lat="48.09464" lon="-1.74766">
        <ele>74</ele>
        <time>2025-05-16T11:58:04Z</time>
      </trkpt>
      <trkpt lat="48.09461" lon="-1.74761">
        <ele>74</ele>
        <time>2025-05-16T11:58:05Z</time>
      </trkpt>
      <trkpt lat="48.09459" lon="-1.74756">
        <ele>74</ele>
        <time>2025-05-16T11:58:06Z</time>
      </trkpt>
      <trkpt lat="48.09456" lon="-1.74753">
        <ele>74</ele>
        <time>2025-05-16T11:58:07Z</time>
      </trkpt>
      <trkpt lat="48.09453" lon="-1.74748">
        <ele>75</ele>
        <time>2025-05-16T11:58:08Z</time>
      </trkpt>
      <trkpt lat="48.09451" lon="-1.74745">
        <ele>75</ele>
        <time>2025-05-16T11:58:09Z</time>
      </trkpt>
      <trkpt lat="48.09448" lon="-1.74741">
        <ele>75</ele>
        <time>2025-05-16T11:58:10Z</time>
      </trkpt>
      <trkpt lat="48.09446" lon="-1.74737">
        <ele>75</ele>
        <time>2025-05-16T11:58:11Z</time>
      </trkpt>
      <trkpt lat="48.09444" lon="-1.74734">
        <ele>75</ele>
        <time>2025-05-16T11:58:12Z</time>
      </trkpt>
      <trkpt lat="48.09442" lon="-1.7473">
        <ele>75</ele>
        <time>2025-05-16T11:58:13Z</time>
      </trkpt>
      <trkpt lat="48.09439" lon="-1.74726">
        <ele>75</ele>
        <time>2025-05-16T11:58:14Z</time>
      </trkpt>
      <trkpt lat="48.09436" lon="-1.74722">
        <ele>75</ele>
        <time>2025-05-16T11:58:15Z</time>
      </trkpt>
      <trkpt lat="48.09434" lon="-1.74716">
        <ele>74</ele>
        <time>2025-05-16T11:58:16Z</time>
      </trkpt>
      <trkpt lat="48.09432" lon="-1.74709">
        <ele>75</ele>
        <time>2025-05-16T11:58:17Z</time>
      </trkpt>
      <trkpt lat="48.09429" lon="-1.74704">
        <ele>74</ele>
        <time>2025-05-16T11:58:18Z</time>
      </trkpt>
      <trkpt lat="48.09426" lon="-1.74698">
        <ele>74</ele>
        <time>2025-05-16T11:58:19Z</time>
      </trkpt>
      <trkpt lat="48.09423" lon="-1.74693">
        <ele>74</ele>
        <time>2025-05-16T11:58:20Z</time>
      </trkpt>
      <trkpt lat="48.0942" lon="-1.74688">
        <ele>74</ele>
        <time>2025-05-16T11:58:21Z</time>
      </trkpt>
      <trkpt lat="48.09417" lon="-1.74684">
        <ele>74</ele>
        <time>2025-05-16T11:58:22Z</time>
      </trkpt>
      <trkpt lat="48.09414" lon="-1.74681">
        <ele>74</ele>
        <time>2025-05-16T11:58:23Z</time>
      </trkpt>
      <trkpt lat="48.09411" lon="-1.74679">
        <ele>75</ele>
        <time>2025-05-16T11:58:24Z</time>
      </trkpt>
      <trkpt lat="48.09408" lon="-1.74676">
        <ele>75</ele>
        <time>2025-05-16T11:58:25Z</time>
      </trkpt>
      <trkpt lat="48.09406" lon="-1.74674">
        <ele>75</ele>
        <time>2025-05-16T11:58:26Z</time>
      </trkpt>
      <trkpt lat="48.09404" lon="-1.74671">
        <ele>75</ele>
        <time>2025-05-16T11:58:27Z</time>
      </trkpt>
      <trkpt lat="48.09403" lon="-1.74668">
        <ele>75</ele>
        <time>2025-05-16T11:58:28Z</time>
      </trkpt>
      <trkpt lat="48.09401" lon="-1.74665">
        <ele>76</ele>
        <time>2025-05-16T11:58:29Z</time>
      </trkpt>
      <trkpt lat="48.09399" lon="-1.74663">
        <ele>76</ele>
        <time>2025-05-16T11:58:30Z</time>
      </trkpt>
      <trkpt lat="48.09397" lon="-1.74662">
        <ele>76</ele>
        <time>2025-05-16T11:58:31Z</time>
      </trkpt>
      <trkpt lat="48.09395" lon="-1.7466">
        <ele>76</ele>
        <time>2025-05-16T11:58:32Z</time>
      </trkpt>
      <trkpt lat="48.09393" lon="-1.74659">
        <ele>76</ele>
        <time>2025-05-16T11:58:33Z</time>
      </trkpt>
      <trkpt lat="48.09392" lon="-1.74657">
        <ele>76</ele>
        <time>2025-05-16T11:58:34Z</time>
      </trkpt>
      <trkpt lat="48.0939" lon="-1.74655">
        <ele>76</ele>
        <time>2025-05-16T11:58:35Z</time>
      </trkpt>
      <trkpt lat="48.09388" lon="-1.74654">
        <ele>76</ele>
        <time>2025-05-16T11:58:36Z</time>
      </trkpt>
      <trkpt lat="48.09387" lon="-1.74652">
        <ele>76</ele>
        <time>2025-05-16T11:58:37Z</time>
      </trkpt>
      <trkpt lat="48.09385" lon="-1.74651">
        <ele>76</ele>
        <time>2025-05-16T11:58:38Z</time>
      </trkpt>
      <trkpt lat="48.09384" lon="-1.7465">
        <ele>76</ele>
        <time>2025-05-16T11:58:39Z</time>
      </trkpt>
      <trkpt lat="48.09384" lon="-1.74649">
        <ele>76</ele>
        <time>2025-05-16T11:58:40Z</time>
      </trkpt>
      <trkpt lat="48.09384" lon="-1.74649">
        <ele>76</ele>
        <time>2025-05-16T11:58:41Z</time>
      </trkpt>
      <trkpt lat="48.09384" lon="-1.74648">
        <ele>76</ele>
        <time>2025-05-16T11:58:42Z</time>
      </trkpt>
      <trkpt lat="48.09384" lon="-1.74648">
        <ele>76</ele>
        <time>2025-05-16T11:58:43Z</time>
      </trkpt>
      <trkpt lat="48.09384" lon="-1.74648">
        <ele>76</ele>
        <time>2025-05-16T11:58:44Z</time>
      </trkpt>
      <trkpt lat="48.09384" lon="-1.74648">
        <ele>76</ele>
        <time>2025-05-16T11:58:45Z</time>
      </trkpt>
      <trkpt lat="48.09384" lon="-1.74648">
        <ele>76</ele>
        <time>2025-05-16T11:58:46Z</time>
      </trkpt>
      <trkpt lat="48.09385" lon="-1.74647">
        <ele>76</ele>
        <time>2025-05-16T11:58:47Z</time>
      </trkpt>
      <trkpt lat="48.09386" lon="-1.74645">
        <ele>76</ele>
        <time>2025-05-16T11:58:48Z</time>
      </trkpt>
      <trkpt lat="48.09387" lon="-1.74643">
        <ele>76</ele>
        <time>2025-05-16T11:58:49Z</time>
      </trkpt>
      <trkpt lat="48.09389" lon="-1.74641">
        <ele>75</ele>
        <time>2025-05-16T11:58:50Z</time>
      </trkpt>
      <trkpt lat="48.09391" lon="-1.74637">
        <ele>75</ele>
        <time>2025-05-16T11:58:51Z</time>
      </trkpt>
      <trkpt lat="48.09394" lon="-1.74632">
        <ele>74</ele>
        <time>2025-05-16T11:58:52Z</time>
      </trkpt>
      <trkpt lat="48.09397" lon="-1.74626">
        <ele>74</ele>
        <time>2025-05-16T11:58:53Z</time>
      </trkpt>
      <trkpt lat="48.094" lon="-1.7462">
        <ele>74</ele>
        <time>2025-05-16T11:58:54Z</time>
      </trkpt>
      <trkpt lat="48.09403" lon="-1.74615">
        <ele>75</ele>
        <time>2025-05-16T11:58:55Z</time>
      </trkpt>
      <trkpt lat="48.09406" lon="-1.74609">
        <ele>74</ele>
        <time>2025-05-16T11:58:56Z</time>
      </trkpt>
      <trkpt lat="48.09408" lon="-1.74604">
        <ele>74</ele>
        <time>2025-05-16T11:58:57Z</time>
      </trkpt>
      <trkpt lat="48.0941" lon="-1.74599">
        <ele>74</ele>
        <time>2025-05-16T11:58:58Z</time>
      </trkpt>
      <trkpt lat="48.09411" lon="-1.74594">
        <ele>75</ele>
        <time>2025-05-16T11:58:59Z</time>
      </trkpt>
      <trkpt lat="48.09413" lon="-1.74591">
        <ele>75</ele>
        <time>2025-05-16T11:59:00Z</time>
      </trkpt>
      <trkpt lat="48.09415" lon="-1.74587">
        <ele>75</ele>
        <time>2025-05-16T11:59:01Z</time>
      </trkpt>
      <trkpt lat="48.09417" lon="-1.74583">
        <ele>75</ele>
        <time>2025-05-16T11:59:02Z</time>
      </trkpt>
      <trkpt lat="48.09418" lon="-1.7458">
        <ele>75</ele>
        <time>2025-05-16T11:59:03Z</time>
      </trkpt>
      <trkpt lat="48.09417" lon="-1.74577">
        <ele>74</ele>
        <time>2025-05-16T11:59:04Z</time>
      </trkpt>
      <trkpt lat="48.09419" lon="-1.74574">
        <ele>74</ele>
        <time>2025-05-16T11:59:05Z</time>
      </trkpt>
      <trkpt lat="48.09421" lon="-1.74571">
        <ele>74</ele>
        <time>2025-05-16T11:59:06Z</time>
      </trkpt>
      <trkpt lat="48.09423" lon="-1.74568">
        <ele>75</ele>
        <time>2025-05-16T11:59:07Z</time>
      </trkpt>
      <trkpt lat="48.09425" lon="-1.74566">
        <ele>75</ele>
        <time>2025-05-16T11:59:08Z</time>
      </trkpt>
      <trkpt lat="48.09428" lon="-1.74564">
        <ele>75</ele>
        <time>2025-05-16T11:59:09Z</time>
      </trkpt>
      <trkpt lat="48.0943" lon="-1.74562">
        <ele>75</ele>
        <time>2025-05-16T11:59:10Z</time>
      </trkpt>
      <trkpt lat="48.09432" lon="-1.74561">
        <ele>75</ele>
        <time>2025-05-16T11:59:11Z</time>
      </trkpt>
      <trkpt lat="48.09434" lon="-1.74559">
        <ele>75</ele>
        <time>2025-05-16T11:59:12Z</time>
      </trkpt>
      <trkpt lat="48.09436" lon="-1.74557">
        <ele>75</ele>
        <time>2025-05-16T11:59:13Z</time>
      </trkpt>
      <trkpt lat="48.09438" lon="-1.74556">
        <ele>75</ele>
        <time>2025-05-16T11:59:14Z</time>
      </trkpt>
      <trkpt lat="48.09439" lon="-1.74554">
        <ele>74</ele>
        <time>2025-05-16T11:59:15Z</time>
      </trkpt>
      <trkpt lat="48.09441" lon="-1.74553">
        <ele>74</ele>
        <time>2025-05-16T11:59:16Z</time>
      </trkpt>
      <trkpt lat="48.09442" lon="-1.74552">
        <ele>74</ele>
        <time>2025-05-16T11:59:17Z</time>
      </trkpt>
      <trkpt lat="48.09444" lon="-1.7455">
        <ele>74</ele>
        <time>2025-05-16T11:59:18Z</time>
      </trkpt>
      <trkpt lat="48.09445" lon="-1.74549">
        <ele>74</ele>
        <time>2025-05-16T11:59:19Z</time>
      </trkpt>
      <trkpt lat="48.09446" lon="-1.74548">
        <ele>74</ele>
        <time>2025-05-16T11:59:20Z</time>
      </trkpt>
      <trkpt lat="48.09447" lon="-1.74547">
        <ele>73</ele>
        <time>2025-05-16T11:59:21Z</time>
      </trkpt>
      <trkpt lat="48.09447" lon="-1.74547">
        <ele>73</ele>
        <time>2025-05-16T11:59:22Z</time>
      </trkpt>
      <trkpt lat="48.09447" lon="-1.74547">
        <ele>73</ele>
        <time>2025-05-16T11:59:23Z</time>
      </trkpt>
      <trkpt lat="48.09447" lon="-1.74547">
        <ele>73</ele>
        <time>2025-05-16T11:59:24Z</time>
      </trkpt>
      <trkpt lat="48.09447" lon="-1.74547">
        <ele>73</ele>
        <time>2025-05-16T11:59:25Z</time>
      </trkpt>
      <trkpt lat="48.09447" lon="-1.74547">
        <ele>73</ele>
        <time>2025-05-16T11:59:26Z</time>
      </trkpt>
      <trkpt lat="48.09447" lon="-1.74547">
        <ele>73</ele>
        <time>2025-05-16T11:59:27Z</time>
      </trkpt>
      <trkpt lat="48.09447" lon="-1.74547">
        <ele>73</ele>
        <time>2025-05-16T11:59:28Z</time>
      </trkpt>
      <trkpt lat="48.09447" lon="-1.74547">
        <ele>73</ele>
        <time>2025-05-16T11:59:29Z</time>
      </trkpt>
      <trkpt lat="48.09447" lon="-1.74547">
        <ele>73</ele>
        <time>2025-05-16T11:59:30Z</time>
      </trkpt>
      <trkpt lat="48.09447" lon="-1.74547">
        <ele>73</ele>
        <time>2025-05-16T11:59:31Z</time>
      </trkpt>
      <trkpt lat="48.09447" lon="-1.74547">
        <ele>73</ele>
        <time>2025-05-16T11:59:32Z</time>
      </trkpt>
      <trkpt lat="48.09447" lon="-1.74547">
        <ele>73</ele>
        <time>2025-05-16T11:59:33Z</time>
      </trkpt>
      <trkpt lat="48.09447" lon="-1.74547">
        <ele>73</ele>
        <time>2025-05-16T11:59:34Z</time>
      </trkpt>
      <trkpt lat="48.09447" lon="-1.74547">
        <ele>73</ele>
        <time>2025-05-16T11:59:35Z</time>
      </trkpt>
      <trkpt lat="48.09447" lon="-1.74547">
        <ele>73</ele>
        <time>2025-05-16T11:59:36Z</time>
      </trkpt>
      <trkpt lat="48.09447" lon="-1.74547">
        <ele>73</ele>
        <time>2025-05-16T11:59:37Z</time>
      </trkpt>
      <trkpt lat="48.09447" lon="-1.74547">
        <ele>73</ele>
        <time>2025-05-16T11:59:38Z</time>
      </trkpt>
      <trkpt lat="48.09447" lon="-1.74547">
        <ele>73</ele>
        <time>2025-05-16T11:59:39Z</time>
      </trkpt>
      <trkpt lat="48.09447" lon="-1.74547">
        <ele>73</ele>
        <time>2025-05-16T11:59:40Z</time>
      </trkpt>
      <trkpt lat="48.09447" lon="-1.74547">
        <ele>73</ele>
        <time>2025-05-16T11:59:41Z</time>
      </trkpt>
      <trkpt lat="48.09447" lon="-1.74547">
        <ele>73</ele>
        <time>2025-05-16T11:59:42Z</time>
      </trkpt>
      <trkpt lat="48.09447" lon="-1.74547">
        <ele>73</ele>
        <time>2025-05-16T11:59:43Z</time>
      </trkpt>
      <trkpt lat="48.09447" lon="-1.74547">
        <ele>73</ele>
        <time>2025-05-16T11:59:44Z</time>
      </trkpt>
      <trkpt lat="48.09447" lon="-1.74547">
        <ele>73</ele>
        <time>2025-05-16T11:59:45Z</time>
      </trkpt>
      <trkpt lat="48.09447" lon="-1.74547">
        <ele>73</ele>
        <time>2025-05-16T11:59:46Z</time>
      </trkpt>
      <trkpt lat="48.09447" lon="-1.74547">
        <ele>73</ele>
        <time>2025-05-16T11:59:47Z</time>
      </trkpt>
      <trkpt lat="48.09447" lon="-1.74547">
        <ele>73</ele>
        <time>2025-05-16T11:59:48Z</time>
      </trkpt>
      <trkpt lat="48.09447" lon="-1.74547">
        <ele>73</ele>
        <time>2025-05-16T11:59:49Z</time>
      </trkpt>
      <trkpt lat="48.09447" lon="-1.74547">
        <ele>73</ele>
        <time>2025-05-16T11:59:50Z</time>
      </trkpt>
      <trkpt lat="48.09447" lon="-1.74547">
        <ele>73</ele>
        <time>2025-05-16T11:59:51Z</time>
      </trkpt>
      <trkpt lat="48.09447" lon="-1.74547">
        <ele>73</ele>
        <time>2025-05-16T11:59:52Z</time>
      </trkpt>
      <trkpt lat="48.09447" lon="-1.74547">
        <ele>73</ele>
        <time>2025-05-16T11:59:53Z</time>
      </trkpt>
      <trkpt lat="48.09447" lon="-1.74547">
        <ele>73</ele>
        <time>2025-05-16T11:59:54Z</time>
      </trkpt>
      <trkpt lat="48.09447" lon="-1.74547">
        <ele>73</ele>
        <time>2025-05-16T11:59:55Z</time>
      </trkpt>
      <trkpt lat="48.09447" lon="-1.74547">
        <ele>73</ele>
        <time>2025-05-16T11:59:56Z</time>
      </trkpt>
      <trkpt lat="48.09447" lon="-1.74547">
        <ele>73</ele>
        <time>2025-05-16T11:59:57Z</time>
      </trkpt>
      <trkpt lat="48.09447" lon="-1.74547">
        <ele>73</ele>
        <time>2025-05-16T11:59:58Z</time>
      </trkpt>
      <trkpt lat="48.09447" lon="-1.74547">
        <ele>73</ele>
        <time>2025-05-16T11:59:59Z</time>
      </trkpt>
      <trkpt lat="48.09447" lon="-1.74547">
        <ele>73</ele>
        <time>2025-05-16T12:00:00Z</time>
      </trkpt>
      <trkpt lat="48.09447" lon="-1.74547">
        <ele>73</ele>
        <time>2025-05-16T12:00:01Z</time>
      </trkpt>
      <trkpt lat="48.09447" lon="-1.74547">
        <ele>73</ele>
        <time>2025-05-16T12:00:02Z</time>
      </trkpt>
      <trkpt lat="48.09447" lon="-1.74547">
        <ele>73</ele>
        <time>2025-05-16T12:00:03Z</time>
      </trkpt>
      <trkpt lat="48.09447" lon="-1.74547">
        <ele>73</ele>
        <time>2025-05-16T12:00:04Z</time>
      </trkpt>
      <trkpt lat="48.09447" lon="-1.74547">
        <ele>73</ele>
        <time>2025-05-16T12:00:05Z</time>
      </trkpt>
      <trkpt lat="48.09447" lon="-1.74547">
        <ele>73</ele>
        <time>2025-05-16T12:00:06Z</time>
      </trkpt>
      <trkpt lat="48.09447" lon="-1.74547">
        <ele>73</ele>
        <time>2025-05-16T12:00:07Z</time>
      </trkpt>
      <trkpt lat="48.09447" lon="-1.74547">
        <ele>73</ele>
        <time>2025-05-16T12:00:08Z</time>
      </trkpt>
      <trkpt lat="48.09447" lon="-1.74547">
        <ele>73</ele>
        <time>2025-05-16T12:00:09Z</time>
      </trkpt>
      <trkpt lat="48.09447" lon="-1.74547">
        <ele>73</ele>
        <time>2025-05-16T12:00:10Z</time>
      </trkpt>
      <trkpt lat="48.09447" lon="-1.74547">
        <ele>73</ele>
        <time>2025-05-16T12:00:11Z</time>
      </trkpt>
      <trkpt lat="48.09447" lon="-1.74547">
        <ele>73</ele>
        <time>2025-05-16T12:00:12Z</time>
      </trkpt>
      <trkpt lat="48.09447" lon="-1.74547">
        <ele>73</ele>
        <time>2025-05-16T12:00:13Z</time>
      </trkpt>
      <trkpt lat="48.09447" lon="-1.74547">
        <ele>73</ele>
        <time>2025-05-16T12:00:14Z</time>
      </trkpt>
      <trkpt lat="48.09447" lon="-1.74547">
        <ele>73</ele>
        <time>2025-05-16T12:00:15Z</time>
      </trkpt>
      <trkpt lat="48.09447" lon="-1.74547">
        <ele>73</ele>
        <time>2025-05-16T12:00:16Z</time>
      </trkpt>
      <trkpt lat="48.09447" lon="-1.74547">
        <ele>73</ele>
        <time>2025-05-16T12:00:17Z</time>
      </trkpt>
      <trkpt lat="48.09447" lon="-1.74547">
        <ele>73</ele>
        <time>2025-05-16T12:00:18Z</time>
      </trkpt>
      <trkpt lat="48.09447" lon="-1.74547">
        <ele>73</ele>
        <time>2025-05-16T12:00:19Z</time>
      </trkpt>
      <trkpt lat="48.09447" lon="-1.74547">
        <ele>73</ele>
        <time>2025-05-16T12:00:20Z</time>
      </trkpt>
      <trkpt lat="48.09447" lon="-1.74547">
        <ele>73</ele>
        <time>2025-05-16T12:00:21Z</time>
      </trkpt>
      <trkpt lat="48.09447" lon="-1.74547">
        <ele>73</ele>
        <time>2025-05-16T12:00:22Z</time>
      </trkpt>
      <trkpt lat="48.09447" lon="-1.74547">
        <ele>73</ele>
        <time>2025-05-16T12:00:23Z</time>
      </trkpt>
      <trkpt lat="48.09447" lon="-1.74547">
        <ele>73</ele>
        <time>2025-05-16T12:00:24Z</time>
      </trkpt>
      <trkpt lat="48.09449" lon="-1.74546">
        <ele>74</ele>
        <time>2025-05-16T12:00:25Z</time>
      </trkpt>
      <trkpt lat="48.0945" lon="-1.74545">
        <ele>74</ele>
        <time>2025-05-16T12:00:26Z</time>
      </trkpt>
      <trkpt lat="48.09452" lon="-1.74543">
        <ele>74</ele>
        <time>2025-05-16T12:00:27Z</time>
      </trkpt>
      <trkpt lat="48.09454" lon="-1.74542">
        <ele>74</ele>
        <time>2025-05-16T12:00:28Z</time>
      </trkpt>
      <trkpt lat="48.09457" lon="-1.74541">
        <ele>74</ele>
        <time>2025-05-16T12:00:29Z</time>
      </trkpt>
      <trkpt lat="48.0946" lon="-1.74539">
        <ele>74</ele>
        <time>2025-05-16T12:00:30Z</time>
      </trkpt>
      <trkpt lat="48.09463" lon="-1.74538">
        <ele>74</ele>
        <time>2025-05-16T12:00:31Z</time>
      </trkpt>
      <trkpt lat="48.09466" lon="-1.74537">
        <ele>74</ele>
        <time>2025-05-16T12:00:32Z</time>
      </trkpt>
      <trkpt lat="48.09469" lon="-1.74536">
        <ele>74</ele>
        <time>2025-05-16T12:00:33Z</time>
      </trkpt>
      <trkpt lat="48.09472" lon="-1.74535">
        <ele>75</ele>
        <time>2025-05-16T12:00:34Z</time>
      </trkpt>
      <trkpt lat="48.09476" lon="-1.74534">
        <ele>74</ele>
        <time>2025-05-16T12:00:35Z</time>
      </trkpt>
      <trkpt lat="48.09479" lon="-1.74533">
        <ele>75</ele>
        <time>2025-05-16T12:00:36Z</time>
      </trkpt>
      <trkpt lat="48.09482" lon="-1.74532">
        <ele>75</ele>
        <time>2025-05-16T12:00:37Z</time>
      </trkpt>
      <trkpt lat="48.09485" lon="-1.74531">
        <ele>75</ele>
        <time>2025-05-16T12:00:38Z</time>
      </trkpt>
      <trkpt lat="48.09488" lon="-1.74531">
        <ele>75</ele>
        <time>2025-05-16T12:00:39Z</time>
      </trkpt>
      <trkpt lat="48.09491" lon="-1.7453">
        <ele>75</ele>
        <time>2025-05-16T12:00:40Z</time>
      </trkpt>
      <trkpt lat="48.09494" lon="-1.74529">
        <ele>75</ele>
        <time>2025-05-16T12:00:41Z</time>
      </trkpt>
      <trkpt lat="48.09498" lon="-1.74528">
        <ele>75</ele>
        <time>2025-05-16T12:00:42Z</time>
      </trkpt>
      <trkpt lat="48.09502" lon="-1.74526">
        <ele>74</ele>
        <time>2025-05-16T12:00:43Z</time>
      </trkpt>
      <trkpt lat="48.09505" lon="-1.74525">
        <ele>75</ele>
        <time>2025-05-16T12:00:44Z</time>
      </trkpt>
      <trkpt lat="48.09508" lon="-1.74523">
        <ele>74</ele>
        <time>2025-05-16T12:00:45Z</time>
      </trkpt>
      <trkpt lat="48.09511" lon="-1.74522">
        <ele>75</ele>
        <time>2025-05-16T12:00:46Z</time>
      </trkpt>
      <trkpt lat="48.09515" lon="-1.74521">
        <ele>75</ele>
        <time>2025-05-16T12:00:47Z</time>
      </trkpt>
      <trkpt lat="48.09519" lon="-1.74521">
        <ele>74</ele>
        <time>2025-05-16T12:00:48Z</time>
      </trkpt>
      <trkpt lat="48.09523" lon="-1.7452">
        <ele>74</ele>
        <time>2025-05-16T12:00:49Z</time>
      </trkpt>
      <trkpt lat="48.09527" lon="-1.74519">
        <ele>74</ele>
        <time>2025-05-16T12:00:50Z</time>
      </trkpt>
      <trkpt lat="48.0953" lon="-1.74518">
        <ele>73</ele>
        <time>2025-05-16T12:00:51Z</time>
      </trkpt>
      <trkpt lat="48.09534" lon="-1.74517">
        <ele>73</ele>
        <time>2025-05-16T12:00:52Z</time>
      </trkpt>
      <trkpt lat="48.09538" lon="-1.74516">
        <ele>73</ele>
        <time>2025-05-16T12:00:53Z</time>
      </trkpt>
      <trkpt lat="48.09542" lon="-1.74515">
        <ele>72</ele>
        <time>2025-05-16T12:00:54Z</time>
      </trkpt>
      <trkpt lat="48.09546" lon="-1.74513">
        <ele>72</ele>
        <time>2025-05-16T12:00:55Z</time>
      </trkpt>
      <trkpt lat="48.0955" lon="-1.74512">
        <ele>72</ele>
        <time>2025-05-16T12:00:56Z</time>
      </trkpt>
      <trkpt lat="48.09554" lon="-1.74511">
        <ele>72</ele>
        <time>2025-05-16T12:00:57Z</time>
      </trkpt>
      <trkpt lat="48.09558" lon="-1.7451">
        <ele>72</ele>
        <time>2025-05-16T12:00:58Z</time>
      </trkpt>
      <trkpt lat="48.09562" lon="-1.74509">
        <ele>72</ele>
        <time>2025-05-16T12:00:59Z</time>
      </trkpt>
      <trkpt lat="48.09566" lon="-1.74507">
        <ele>72</ele>
        <time>2025-05-16T12:01:00Z</time>
      </trkpt>
      <trkpt lat="48.0957" lon="-1.74506">
        <ele>72</ele>
        <time>2025-05-16T12:01:01Z</time>
      </trkpt>
      <trkpt lat="48.09574" lon="-1.74506">
        <ele>72</ele>
        <time>2025-05-16T12:01:02Z</time>
      </trkpt>
      <trkpt lat="48.09578" lon="-1.74504">
        <ele>72</ele>
        <time>2025-05-16T12:01:03Z</time>
      </trkpt>
      <trkpt lat="48.09581" lon="-1.74503">
        <ele>72</ele>
        <time>2025-05-16T12:01:04Z</time>
      </trkpt>
      <trkpt lat="48.09585" lon="-1.74503">
        <ele>72</ele>
        <time>2025-05-16T12:01:05Z</time>
      </trkpt>
      <trkpt lat="48.09589" lon="-1.74502">
        <ele>72</ele>
        <time>2025-05-16T12:01:06Z</time>
      </trkpt>
      <trkpt lat="48.09593" lon="-1.745">
        <ele>73</ele>
        <time>2025-05-16T12:01:07Z</time>
      </trkpt>
      <trkpt lat="48.09597" lon="-1.74499">
        <ele>73</ele>
        <time>2025-05-16T12:01:08Z</time>
      </trkpt>
      <trkpt lat="48.09601" lon="-1.74498">
        <ele>73</ele>
        <time>2025-05-16T12:01:09Z</time>
      </trkpt>
      <trkpt lat="48.09605" lon="-1.74498">
        <ele>73</ele>
        <time>2025-05-16T12:01:10Z</time>
      </trkpt>
      <trkpt lat="48.09609" lon="-1.74497">
        <ele>73</ele>
        <time>2025-05-16T12:01:11Z</time>
      </trkpt>
      <trkpt lat="48.09613" lon="-1.74496">
        <ele>73</ele>
        <time>2025-05-16T12:01:12Z</time>
      </trkpt>
      <trkpt lat="48.09617" lon="-1.74494">
        <ele>72</ele>
        <time>2025-05-16T12:01:13Z</time>
      </trkpt>
      <trkpt lat="48.09621" lon="-1.74493">
        <ele>72</ele>
        <time>2025-05-16T12:01:14Z</time>
      </trkpt>
      <trkpt lat="48.09625" lon="-1.74492">
        <ele>72</ele>
        <time>2025-05-16T12:01:15Z</time>
      </trkpt>
      <trkpt lat="48.09629" lon="-1.7449">
        <ele>71</ele>
        <time>2025-05-16T12:01:16Z</time>
      </trkpt>
      <trkpt lat="48.09633" lon="-1.74489">
        <ele>71</ele>
        <time>2025-05-16T12:01:17Z</time>
      </trkpt>
      <trkpt lat="48.09637" lon="-1.74487">
        <ele>72</ele>
        <time>2025-05-16T12:01:18Z</time>
      </trkpt>
      <trkpt lat="48.09641" lon="-1.74486">
        <ele>72</ele>
        <time>2025-05-16T12:01:19Z</time>
      </trkpt>
      <trkpt lat="48.09645" lon="-1.74485">
        <ele>72</ele>
        <time>2025-05-16T12:01:20Z</time>
      </trkpt>
      <trkpt lat="48.09648" lon="-1.74484">
        <ele>72</ele>
        <time>2025-05-16T12:01:21Z</time>
      </trkpt>
      <trkpt lat="48.09652" lon="-1.74483">
        <ele>72</ele>
        <time>2025-05-16T12:01:22Z</time>
      </trkpt>
      <trkpt lat="48.09656" lon="-1.74482">
        <ele>72</ele>
        <time>2025-05-16T12:01:23Z</time>
      </trkpt>
      <trkpt lat="48.0966" lon="-1.74481">
        <ele>72</ele>
        <time>2025-05-16T12:01:24Z</time>
      </trkpt>
      <trkpt lat="48.09664" lon="-1.74479">
        <ele>72</ele>
        <time>2025-05-16T12:01:25Z</time>
      </trkpt>
      <trkpt lat="48.09668" lon="-1.74478">
        <ele>72</ele>
        <time>2025-05-16T12:01:26Z</time>
      </trkpt>
      <trkpt lat="48.09672" lon="-1.74477">
        <ele>72</ele>
        <time>2025-05-16T12:01:27Z</time>
      </trkpt>
      <trkpt lat="48.09676" lon="-1.74476">
        <ele>72</ele>
        <time>2025-05-16T12:01:28Z</time>
      </trkpt>
      <trkpt lat="48.0968" lon="-1.74474">
        <ele>72</ele>
        <time>2025-05-16T12:01:29Z</time>
      </trkpt>
      <trkpt lat="48.09684" lon="-1.74474">
        <ele>71</ele>
        <time>2025-05-16T12:01:30Z</time>
      </trkpt>
      <trkpt lat="48.09688" lon="-1.74472">
        <ele>72</ele>
        <time>2025-05-16T12:01:31Z</time>
      </trkpt>
      <trkpt lat="48.09691" lon="-1.74471">
        <ele>72</ele>
        <time>2025-05-16T12:01:32Z</time>
      </trkpt>
      <trkpt lat="48.09695" lon="-1.7447">
        <ele>72</ele>
        <time>2025-05-16T12:01:33Z</time>
      </trkpt>
      <trkpt lat="48.09699" lon="-1.74469">
        <ele>72</ele>
        <time>2025-05-16T12:01:34Z</time>
      </trkpt>
      <trkpt lat="48.09703" lon="-1.74468">
        <ele>72</ele>
        <time>2025-05-16T12:01:35Z</time>
      </trkpt>
      <trkpt lat="48.09707" lon="-1.74466">
        <ele>72</ele>
        <time>2025-05-16T12:01:36Z</time>
      </trkpt>
      <trkpt lat="48.09711" lon="-1.74465">
        <ele>71</ele>
        <time>2025-05-16T12:01:37Z</time>
      </trkpt>
      <trkpt lat="48.09715" lon="-1.74464">
        <ele>71</ele>
        <time>2025-05-16T12:01:38Z</time>
      </trkpt>
      <trkpt lat="48.09719" lon="-1.74462">
        <ele>72</ele>
        <time>2025-05-16T12:01:39Z</time>
      </trkpt>
      <trkpt lat="48.09723" lon="-1.74461">
        <ele>71</ele>
        <time>2025-05-16T12:01:40Z</time>
      </trkpt>
      <trkpt lat="48.09727" lon="-1.7446">
        <ele>71</ele>
        <time>2025-05-16T12:01:41Z</time>
      </trkpt>
      <trkpt lat="48.09731" lon="-1.7446">
        <ele>71</ele>
        <time>2025-05-16T12:01:42Z</time>
      </trkpt>
      <trkpt lat="48.09734" lon="-1.74459">
        <ele>71</ele>
        <time>2025-05-16T12:01:43Z</time>
      </trkpt>
      <trkpt lat="48.09738" lon="-1.74458">
        <ele>71</ele>
        <time>2025-05-16T12:01:44Z</time>
      </trkpt>
      <trkpt lat="48.09742" lon="-1.74456">
        <ele>71</ele>
        <time>2025-05-16T12:01:45Z</time>
      </trkpt>
      <trkpt lat="48.09746" lon="-1.74455">
        <ele>71</ele>
        <time>2025-05-16T12:01:46Z</time>
      </trkpt>
      <trkpt lat="48.0975" lon="-1.74454">
        <ele>71</ele>
        <time>2025-05-16T12:01:47Z</time>
      </trkpt>
      <trkpt lat="48.09754" lon="-1.74452">
        <ele>71</ele>
        <time>2025-05-16T12:01:48Z</time>
      </trkpt>
      <trkpt lat="48.09758" lon="-1.74451">
        <ele>71</ele>
        <time>2025-05-16T12:01:49Z</time>
      </trkpt>
      <trkpt lat="48.09763" lon="-1.74449">
        <ele>71</ele>
        <time>2025-05-16T12:01:50Z</time>
      </trkpt>
      <trkpt lat="48.09767" lon="-1.74448">
        <ele>72</ele>
        <time>2025-05-16T12:01:51Z</time>
      </trkpt>
      <trkpt lat="48.09771" lon="-1.74447">
        <ele>72</ele>
        <time>2025-05-16T12:01:52Z</time>
      </trkpt>
      <trkpt lat="48.09775" lon="-1.74445">
        <ele>72</ele>
        <time>2025-05-16T12:01:53Z</time>
      </trkpt>
      <trkpt lat="48.09779" lon="-1.74444">
        <ele>72</ele>
        <time>2025-05-16T12:01:54Z</time>
      </trkpt>
      <trkpt lat="48.09783" lon="-1.74442">
        <ele>72</ele>
        <time>2025-05-16T12:01:55Z</time>
      </trkpt>
      <trkpt lat="48.09787" lon="-1.7444">
        <ele>72</ele>
        <time>2025-05-16T12:01:56Z</time>
      </trkpt>
      <trkpt lat="48.09791" lon="-1.74438">
        <ele>72</ele>
        <time>2025-05-16T12:01:57Z</time>
      </trkpt>
      <trkpt lat="48.09794" lon="-1.74435">
        <ele>72</ele>
        <time>2025-05-16T12:01:58Z</time>
      </trkpt>
      <trkpt lat="48.09798" lon="-1.74432">
        <ele>72</ele>
        <time>2025-05-16T12:01:59Z</time>
      </trkpt>
      <trkpt lat="48.09802" lon="-1.7443">
        <ele>72</ele>
        <time>2025-05-16T12:02:00Z</time>
      </trkpt>
      <trkpt lat="48.09806" lon="-1.74427">
        <ele>72</ele>
        <time>2025-05-16T12:02:01Z</time>
      </trkpt>
      <trkpt lat="48.0981" lon="-1.74424">
        <ele>72</ele>
        <time>2025-05-16T12:02:02Z</time>
      </trkpt>
      <trkpt lat="48.09813" lon="-1.74422">
        <ele>72</ele>
        <time>2025-05-16T12:02:03Z</time>
      </trkpt>
      <trkpt lat="48.09817" lon="-1.74419">
        <ele>72</ele>
        <time>2025-05-16T12:02:04Z</time>
      </trkpt>
      <trkpt lat="48.0982" lon="-1.74417">
        <ele>72</ele>
        <time>2025-05-16T12:02:05Z</time>
      </trkpt>
      <trkpt lat="48.09824" lon="-1.74414">
        <ele>72</ele>
        <time>2025-05-16T12:02:06Z</time>
      </trkpt>
      <trkpt lat="48.09828" lon="-1.74412">
        <ele>72</ele>
        <time>2025-05-16T12:02:07Z</time>
      </trkpt>
      <trkpt lat="48.09831" lon="-1.74409">
        <ele>71</ele>
        <time>2025-05-16T12:02:08Z</time>
      </trkpt>
      <trkpt lat="48.09835" lon="-1.74406">
        <ele>71</ele>
        <time>2025-05-16T12:02:09Z</time>
      </trkpt>
      <trkpt lat="48.0984" lon="-1.74403">
        <ele>72</ele>
        <time>2025-05-16T12:02:10Z</time>
      </trkpt>
      <trkpt lat="48.09844" lon="-1.744">
        <ele>72</ele>
        <time>2025-05-16T12:02:11Z</time>
      </trkpt>
      <trkpt lat="48.09847" lon="-1.74397">
        <ele>72</ele>
        <time>2025-05-16T12:02:12Z</time>
      </trkpt>
      <trkpt lat="48.09851" lon="-1.74394">
        <ele>72</ele>
        <time>2025-05-16T12:02:13Z</time>
      </trkpt>
      <trkpt lat="48.09855" lon="-1.74391">
        <ele>72</ele>
        <time>2025-05-16T12:02:14Z</time>
      </trkpt>
      <trkpt lat="48.09858" lon="-1.74389">
        <ele>73</ele>
        <time>2025-05-16T12:02:15Z</time>
      </trkpt>
      <trkpt lat="48.09862" lon="-1.74386">
        <ele>73</ele>
        <time>2025-05-16T12:02:16Z</time>
      </trkpt>
      <trkpt lat="48.09865" lon="-1.74383">
        <ele>73</ele>
        <time>2025-05-16T12:02:17Z</time>
      </trkpt>
      <trkpt lat="48.09868" lon="-1.7438">
        <ele>73</ele>
        <time>2025-05-16T12:02:18Z</time>
      </trkpt>
      <trkpt lat="48.09872" lon="-1.74377">
        <ele>72</ele>
        <time>2025-05-16T12:02:19Z</time>
      </trkpt>
      <trkpt lat="48.09875" lon="-1.74373">
        <ele>72</ele>
        <time>2025-05-16T12:02:20Z</time>
      </trkpt>
      <trkpt lat="48.09878" lon="-1.7437">
        <ele>72</ele>
        <time>2025-05-16T12:02:21Z</time>
      </trkpt>
      <trkpt lat="48.09882" lon="-1.74367">
        <ele>72</ele>
        <time>2025-05-16T12:02:22Z</time>
      </trkpt>
      <trkpt lat="48.09886" lon="-1.74364">
        <ele>71</ele>
        <time>2025-05-16T12:02:23Z</time>
      </trkpt>
      <trkpt lat="48.09889" lon="-1.7436">
        <ele>71</ele>
        <time>2025-05-16T12:02:24Z</time>
      </trkpt>
      <trkpt lat="48.09893" lon="-1.74357">
        <ele>71</ele>
        <time>2025-05-16T12:02:25Z</time>
      </trkpt>
      <trkpt lat="48.09896" lon="-1.74353">
        <ele>71</ele>
        <time>2025-05-16T12:02:26Z</time>
      </trkpt>
      <trkpt lat="48.099" lon="-1.7435">
        <ele>71</ele>
        <time>2025-05-16T12:02:27Z</time>
      </trkpt>
      <trkpt lat="48.09903" lon="-1.74347">
        <ele>71</ele>
        <time>2025-05-16T12:02:28Z</time>
      </trkpt>
      <trkpt lat="48.09907" lon="-1.74343">
        <ele>71</ele>
        <time>2025-05-16T12:02:29Z</time>
      </trkpt>
      <trkpt lat="48.09909" lon="-1.7434">
        <ele>71</ele>
        <time>2025-05-16T12:02:30Z</time>
      </trkpt>
      <trkpt lat="48.09912" lon="-1.74336">
        <ele>71</ele>
        <time>2025-05-16T12:02:31Z</time>
      </trkpt>
      <trkpt lat="48.09916" lon="-1.74333">
        <ele>71</ele>
        <time>2025-05-16T12:02:32Z</time>
      </trkpt>
      <trkpt lat="48.09919" lon="-1.7433">
        <ele>72</ele>
        <time>2025-05-16T12:02:33Z</time>
      </trkpt>
      <trkpt lat="48.09922" lon="-1.74326">
        <ele>72</ele>
        <time>2025-05-16T12:02:34Z</time>
      </trkpt>
      <trkpt lat="48.09926" lon="-1.74323">
        <ele>72</ele>
        <time>2025-05-16T12:02:35Z</time>
      </trkpt>
      <trkpt lat="48.09929" lon="-1.74319">
        <ele>72</ele>
        <time>2025-05-16T12:02:36Z</time>
      </trkpt>
      <trkpt lat="48.09932" lon="-1.74315">
        <ele>72</ele>
        <time>2025-05-16T12:02:37Z</time>
      </trkpt>
      <trkpt lat="48.09935" lon="-1.74312">
        <ele>72</ele>
        <time>2025-05-16T12:02:38Z</time>
      </trkpt>
      <trkpt lat="48.09939" lon="-1.74309">
        <ele>72</ele>
        <time>2025-05-16T12:02:39Z</time>
      </trkpt>
      <trkpt lat="48.09942" lon="-1.74305">
        <ele>73</ele>
        <time>2025-05-16T12:02:40Z</time>
      </trkpt>
      <trkpt lat="48.09945" lon="-1.74301">
        <ele>73</ele>
        <time>2025-05-16T12:02:41Z</time>
      </trkpt>
      <trkpt lat="48.09948" lon="-1.74297">
        <ele>73</ele>
        <time>2025-05-16T12:02:42Z</time>
      </trkpt>
      <trkpt lat="48.0995" lon="-1.74293">
        <ele>73</ele>
        <time>2025-05-16T12:02:43Z</time>
      </trkpt>
      <trkpt lat="48.09953" lon="-1.74289">
        <ele>73</ele>
        <time>2025-05-16T12:02:44Z</time>
      </trkpt>
      <trkpt lat="48.09956" lon="-1.74284">
        <ele>73</ele>
        <time>2025-05-16T12:02:45Z</time>
      </trkpt>
      <trkpt lat="48.09959" lon="-1.74281">
        <ele>73</ele>
        <time>2025-05-16T12:02:46Z</time>
      </trkpt>
      <trkpt lat="48.09962" lon="-1.74277">
        <ele>73</ele>
        <time>2025-05-16T12:02:47Z</time>
      </trkpt>
      <trkpt lat="48.09964" lon="-1.74274">
        <ele>72</ele>
        <time>2025-05-16T12:02:48Z</time>
      </trkpt>
      <trkpt lat="48.09967" lon="-1.74269">
        <ele>73</ele>
        <time>2025-05-16T12:02:49Z</time>
      </trkpt>
      <trkpt lat="48.0997" lon="-1.74266">
        <ele>73</ele>
        <time>2025-05-16T12:02:50Z</time>
      </trkpt>
      <trkpt lat="48.09973" lon="-1.74262">
        <ele>73</ele>
        <time>2025-05-16T12:02:51Z</time>
      </trkpt>
      <trkpt lat="48.09975" lon="-1.74258">
        <ele>73</ele>
        <time>2025-05-16T12:02:52Z</time>
      </trkpt>
      <trkpt lat="48.09978" lon="-1.74254">
        <ele>73</ele>
        <time>2025-05-16T12:02:53Z</time>
      </trkpt>
      <trkpt lat="48.0998" lon="-1.7425">
        <ele>73</ele>
        <time>2025-05-16T12:02:54Z</time>
      </trkpt>
      <trkpt lat="48.09983" lon="-1.74247">
        <ele>73</ele>
        <time>2025-05-16T12:02:55Z</time>
      </trkpt>
      <trkpt lat="48.09986" lon="-1.74243">
        <ele>73</ele>
        <time>2025-05-16T12:02:56Z</time>
      </trkpt>
      <trkpt lat="48.09988" lon="-1.74239">
        <ele>73</ele>
        <time>2025-05-16T12:02:57Z</time>
      </trkpt>
      <trkpt lat="48.09991" lon="-1.74235">
        <ele>73</ele>
        <time>2025-05-16T12:02:58Z</time>
      </trkpt>
      <trkpt lat="48.09993" lon="-1.7423">
        <ele>73</ele>
        <time>2025-05-16T12:02:59Z</time>
      </trkpt>
      <trkpt lat="48.09996" lon="-1.74226">
        <ele>73</ele>
        <time>2025-05-16T12:03:00Z</time>
      </trkpt>
      <trkpt lat="48.09999" lon="-1.74222">
        <ele>73</ele>
        <time>2025-05-16T12:03:01Z</time>
      </trkpt>
      <trkpt lat="48.10002" lon="-1.74218">
        <ele>73</ele>
        <time>2025-05-16T12:03:02Z</time>
      </trkpt>
      <trkpt lat="48.10004" lon="-1.74214">
        <ele>73</ele>
        <time>2025-05-16T12:03:03Z</time>
      </trkpt>
      <trkpt lat="48.10007" lon="-1.7421">
        <ele>74</ele>
        <time>2025-05-16T12:03:04Z</time>
      </trkpt>
      <trkpt lat="48.10009" lon="-1.74206">
        <ele>74</ele>
        <time>2025-05-16T12:03:05Z</time>
      </trkpt>
      <trkpt lat="48.10012" lon="-1.74202">
        <ele>73</ele>
        <time>2025-05-16T12:03:06Z</time>
      </trkpt>
      <trkpt lat="48.10015" lon="-1.74199">
        <ele>73</ele>
        <time>2025-05-16T12:03:07Z</time>
      </trkpt>
      <trkpt lat="48.10017" lon="-1.74194">
        <ele>74</ele>
        <time>2025-05-16T12:03:08Z</time>
      </trkpt>
      <trkpt lat="48.1002" lon="-1.7419">
        <ele>74</ele>
        <time>2025-05-16T12:03:09Z</time>
      </trkpt>
      <trkpt lat="48.10023" lon="-1.74186">
        <ele>74</ele>
        <time>2025-05-16T12:03:10Z</time>
      </trkpt>
      <trkpt lat="48.10025" lon="-1.74181">
        <ele>74</ele>
        <time>2025-05-16T12:03:11Z</time>
      </trkpt>
      <trkpt lat="48.10028" lon="-1.74177">
        <ele>74</ele>
        <time>2025-05-16T12:03:12Z</time>
      </trkpt>
      <trkpt lat="48.1003" lon="-1.74173">
        <ele>74</ele>
        <time>2025-05-16T12:03:13Z</time>
      </trkpt>
      <trkpt lat="48.10033" lon="-1.74169">
        <ele>74</ele>
        <time>2025-05-16T12:03:14Z</time>
      </trkpt>
      <trkpt lat="48.10036" lon="-1.74164">
        <ele>74</ele>
        <time>2025-05-16T12:03:15Z</time>
      </trkpt>
      <trkpt lat="48.10038" lon="-1.7416">
        <ele>74</ele>
        <time>2025-05-16T12:03:16Z</time>
      </trkpt>
      <trkpt lat="48.10041" lon="-1.74156">
        <ele>74</ele>
        <time>2025-05-16T12:03:17Z</time>
      </trkpt>
      <trkpt lat="48.10043" lon="-1.74151">
        <ele>74</ele>
        <time>2025-05-16T12:03:18Z</time>
      </trkpt>
      <trkpt lat="48.10046" lon="-1.74147">
        <ele>74</ele>
        <time>2025-05-16T12:03:19Z</time>
      </trkpt>
      <trkpt lat="48.10048" lon="-1.74142">
        <ele>74</ele>
        <time>2025-05-16T12:03:20Z</time>
      </trkpt>
      <trkpt lat="48.1005" lon="-1.74137">
        <ele>73</ele>
        <time>2025-05-16T12:03:21Z</time>
      </trkpt>
      <trkpt lat="48.10052" lon="-1.74133">
        <ele>73</ele>
        <time>2025-05-16T12:03:22Z</time>
      </trkpt>
      <trkpt lat="48.10054" lon="-1.74129">
        <ele>73</ele>
        <time>2025-05-16T12:03:23Z</time>
      </trkpt>
      <trkpt lat="48.10056" lon="-1.74125">
        <ele>73</ele>
        <time>2025-05-16T12:03:24Z</time>
      </trkpt>
      <trkpt lat="48.10058" lon="-1.74121">
        <ele>73</ele>
        <time>2025-05-16T12:03:25Z</time>
      </trkpt>
      <trkpt lat="48.1006" lon="-1.74116">
        <ele>73</ele>
        <time>2025-05-16T12:03:26Z</time>
      </trkpt>
      <trkpt lat="48.10062" lon="-1.74112">
        <ele>73</ele>
        <time>2025-05-16T12:03:27Z</time>
      </trkpt>
      <trkpt lat="48.10063" lon="-1.74108">
        <ele>73</ele>
        <time>2025-05-16T12:03:28Z</time>
      </trkpt>
      <trkpt lat="48.10065" lon="-1.74104">
        <ele>73</ele>
        <time>2025-05-16T12:03:29Z</time>
      </trkpt>
      <trkpt lat="48.10067" lon="-1.741">
        <ele>72</ele>
        <time>2025-05-16T12:03:30Z</time>
      </trkpt>
      <trkpt lat="48.10069" lon="-1.74095">
        <ele>73</ele>
        <time>2025-05-16T12:03:31Z</time>
      </trkpt>
      <trkpt lat="48.10071" lon="-1.74091">
        <ele>72</ele>
        <time>2025-05-16T12:03:32Z</time>
      </trkpt>
      <trkpt lat="48.10072" lon="-1.74086">
        <ele>72</ele>
        <time>2025-05-16T12:03:33Z</time>
      </trkpt>
      <trkpt lat="48.10074" lon="-1.74082">
        <ele>72</ele>
        <time>2025-05-16T12:03:34Z</time>
      </trkpt>
      <trkpt lat="48.10076" lon="-1.74077">
        <ele>72</ele>
        <time>2025-05-16T12:03:35Z</time>
      </trkpt>
      <trkpt lat="48.10078" lon="-1.74073">
        <ele>72</ele>
        <time>2025-05-16T12:03:36Z</time>
      </trkpt>
      <trkpt lat="48.10079" lon="-1.74069">
        <ele>72</ele>
        <time>2025-05-16T12:03:37Z</time>
      </trkpt>
      <trkpt lat="48.10081" lon="-1.74065">
        <ele>73</ele>
        <time>2025-05-16T12:03:38Z</time>
      </trkpt>
      <trkpt lat="48.10082" lon="-1.7406">
        <ele>73</ele>
        <time>2025-05-16T12:03:39Z</time>
      </trkpt>
      <trkpt lat="48.10084" lon="-1.74056">
        <ele>73</ele>
        <time>2025-05-16T12:03:40Z</time>
      </trkpt>
      <trkpt lat="48.10085" lon="-1.74051">
        <ele>73</ele>
        <time>2025-05-16T12:03:41Z</time>
      </trkpt>
      <trkpt lat="48.10087" lon="-1.74047">
        <ele>73</ele>
        <time>2025-05-16T12:03:42Z</time>
      </trkpt>
      <trkpt lat="48.10089" lon="-1.74042">
        <ele>74</ele>
        <time>2025-05-16T12:03:43Z</time>
      </trkpt>
      <trkpt lat="48.1009" lon="-1.74037">
        <ele>74</ele>
        <time>2025-05-16T12:03:44Z</time>
      </trkpt>
      <trkpt lat="48.10091" lon="-1.74033">
        <ele>73</ele>
        <time>2025-05-16T12:03:45Z</time>
      </trkpt>
      <trkpt lat="48.10093" lon="-1.74028">
        <ele>73</ele>
        <time>2025-05-16T12:03:46Z</time>
      </trkpt>
      <trkpt lat="48.10094" lon="-1.74023">
        <ele>73</ele>
        <time>2025-05-16T12:03:47Z</time>
      </trkpt>
      <trkpt lat="48.10095" lon="-1.74018">
        <ele>73</ele>
        <time>2025-05-16T12:03:48Z</time>
      </trkpt>
      <trkpt lat="48.10096" lon="-1.74013">
        <ele>73</ele>
        <time>2025-05-16T12:03:49Z</time>
      </trkpt>
      <trkpt lat="48.10097" lon="-1.74009">
        <ele>73</ele>
        <time>2025-05-16T12:03:50Z</time>
      </trkpt>
      <trkpt lat="48.10099" lon="-1.74004">
        <ele>73</ele>
        <time>2025-05-16T12:03:51Z</time>
      </trkpt>
      <trkpt lat="48.10099" lon="-1.73999">
        <ele>73</ele>
        <time>2025-05-16T12:03:52Z</time>
      </trkpt>
      <trkpt lat="48.101" lon="-1.73994">
        <ele>73</ele>
        <time>2025-05-16T12:03:53Z</time>
      </trkpt>
      <trkpt lat="48.101" lon="-1.73989">
        <ele>72</ele>
        <time>2025-05-16T12:03:54Z</time>
      </trkpt>
      <trkpt lat="48.10101" lon="-1.73985">
        <ele>72</ele>
        <time>2025-05-16T12:03:55Z</time>
      </trkpt>
      <trkpt lat="48.10102" lon="-1.7398">
        <ele>72</ele>
        <time>2025-05-16T12:03:56Z</time>
      </trkpt>
      <trkpt lat="48.10102" lon="-1.73974">
        <ele>72</ele>
        <time>2025-05-16T12:03:57Z</time>
      </trkpt>
      <trkpt lat="48.10103" lon="-1.73969">
        <ele>72</ele>
        <time>2025-05-16T12:03:58Z</time>
      </trkpt>
      <trkpt lat="48.10103" lon="-1.73964">
        <ele>72</ele>
        <time>2025-05-16T12:03:59Z</time>
      </trkpt>
      <trkpt lat="48.10104" lon="-1.73959">
        <ele>72</ele>
        <time>2025-05-16T12:04:00Z</time>
      </trkpt>
      <trkpt lat="48.10103" lon="-1.73953">
        <ele>72</ele>
        <time>2025-05-16T12:04:01Z</time>
      </trkpt>
      <trkpt lat="48.10104" lon="-1.73948">
        <ele>72</ele>
        <time>2025-05-16T12:04:02Z</time>
      </trkpt>
      <trkpt lat="48.10104" lon="-1.73943">
        <ele>72</ele>
        <time>2025-05-16T12:04:03Z</time>
      </trkpt>
      <trkpt lat="48.10104" lon="-1.73938">
        <ele>72</ele>
        <time>2025-05-16T12:04:04Z</time>
      </trkpt>
      <trkpt lat="48.10104" lon="-1.73932">
        <ele>72</ele>
        <time>2025-05-16T12:04:05Z</time>
      </trkpt>
      <trkpt lat="48.10105" lon="-1.73927">
        <ele>72</ele>
        <time>2025-05-16T12:04:06Z</time>
      </trkpt>
      <trkpt lat="48.10105" lon="-1.73922">
        <ele>72</ele>
        <time>2025-05-16T12:04:07Z</time>
      </trkpt>
      <trkpt lat="48.10105" lon="-1.73917">
        <ele>72</ele>
        <time>2025-05-16T12:04:08Z</time>
      </trkpt>
      <trkpt lat="48.10106" lon="-1.73912">
        <ele>72</ele>
        <time>2025-05-16T12:04:09Z</time>
      </trkpt>
      <trkpt lat="48.10106" lon="-1.73907">
        <ele>72</ele>
        <time>2025-05-16T12:04:10Z</time>
      </trkpt>
      <trkpt lat="48.10106" lon="-1.73901">
        <ele>73</ele>
        <time>2025-05-16T12:04:11Z</time>
      </trkpt>
      <trkpt lat="48.10107" lon="-1.73896">
        <ele>73</ele>
        <time>2025-05-16T12:04:12Z</time>
      </trkpt>
      <trkpt lat="48.10107" lon="-1.73891">
        <ele>73</ele>
        <time>2025-05-16T12:04:13Z</time>
      </trkpt>
      <trkpt lat="48.10108" lon="-1.73886">
        <ele>73</ele>
        <time>2025-05-16T12:04:14Z</time>
      </trkpt>
      <trkpt lat="48.10108" lon="-1.73881">
        <ele>73</ele>
        <time>2025-05-16T12:04:15Z</time>
      </trkpt>
      <trkpt lat="48.10107" lon="-1.73875">
        <ele>73</ele>
        <time>2025-05-16T12:04:16Z</time>
      </trkpt>
      <trkpt lat="48.10107" lon="-1.7387">
        <ele>73</ele>
        <time>2025-05-16T12:04:17Z</time>
      </trkpt>
      <trkpt lat="48.10107" lon="-1.73865">
        <ele>73</ele>
        <time>2025-05-16T12:04:18Z</time>
      </trkpt>
      <trkpt lat="48.10106" lon="-1.7386">
        <ele>73</ele>
        <time>2025-05-16T12:04:19Z</time>
      </trkpt>
      <trkpt lat="48.10106" lon="-1.73855">
        <ele>73</ele>
        <time>2025-05-16T12:04:20Z</time>
      </trkpt>
      <trkpt lat="48.10106" lon="-1.73851">
        <ele>73</ele>
        <time>2025-05-16T12:04:21Z</time>
      </trkpt>
      <trkpt lat="48.10106" lon="-1.73846">
        <ele>73</ele>
        <time>2025-05-16T12:04:22Z</time>
      </trkpt>
      <trkpt lat="48.10106" lon="-1.7384">
        <ele>73</ele>
        <time>2025-05-16T12:04:23Z</time>
      </trkpt>
      <trkpt lat="48.10106" lon="-1.73835">
        <ele>73</ele>
        <time>2025-05-16T12:04:24Z</time>
      </trkpt>
      <trkpt lat="48.10106" lon="-1.73831">
        <ele>73</ele>
        <time>2025-05-16T12:04:25Z</time>
      </trkpt>
      <trkpt lat="48.10106" lon="-1.73826">
        <ele>73</ele>
        <time>2025-05-16T12:04:26Z</time>
      </trkpt>
      <trkpt lat="48.10105" lon="-1.73821">
        <ele>73</ele>
        <time>2025-05-16T12:04:27Z</time>
      </trkpt>
      <trkpt lat="48.10104" lon="-1.73815">
        <ele>72</ele>
        <time>2025-05-16T12:04:28Z</time>
      </trkpt>
      <trkpt lat="48.10104" lon="-1.7381">
        <ele>72</ele>
        <time>2025-05-16T12:04:29Z</time>
      </trkpt>
      <trkpt lat="48.10103" lon="-1.73804">
        <ele>72</ele>
        <time>2025-05-16T12:04:30Z</time>
      </trkpt>
      <trkpt lat="48.10102" lon="-1.73799">
        <ele>72</ele>
        <time>2025-05-16T12:04:31Z</time>
      </trkpt>
      <trkpt lat="48.10101" lon="-1.73794">
        <ele>72</ele>
        <time>2025-05-16T12:04:32Z</time>
      </trkpt>
      <trkpt lat="48.10101" lon="-1.73788">
        <ele>72</ele>
        <time>2025-05-16T12:04:33Z</time>
      </trkpt>
      <trkpt lat="48.101" lon="-1.73783">
        <ele>72</ele>
        <time>2025-05-16T12:04:34Z</time>
      </trkpt>
      <trkpt lat="48.10099" lon="-1.73777">
        <ele>72</ele>
        <time>2025-05-16T12:04:35Z</time>
      </trkpt>
      <trkpt lat="48.10098" lon="-1.73771">
        <ele>72</ele>
        <time>2025-05-16T12:04:36Z</time>
      </trkpt>
      <trkpt lat="48.10097" lon="-1.73765">
        <ele>72</ele>
        <time>2025-05-16T12:04:37Z</time>
      </trkpt>
      <trkpt lat="48.10096" lon="-1.7376">
        <ele>73</ele>
        <time>2025-05-16T12:04:38Z</time>
      </trkpt>
      <trkpt lat="48.10095" lon="-1.73754">
        <ele>73</ele>
        <time>2025-05-16T12:04:39Z</time>
      </trkpt>
      <trkpt lat="48.10093" lon="-1.73749">
        <ele>73</ele>
        <time>2025-05-16T12:04:40Z</time>
      </trkpt>
      <trkpt lat="48.10092" lon="-1.73743">
        <ele>73</ele>
        <time>2025-05-16T12:04:41Z</time>
      </trkpt>
      <trkpt lat="48.10091" lon="-1.73738">
        <ele>73</ele>
        <time>2025-05-16T12:04:42Z</time>
      </trkpt>
      <trkpt lat="48.10089" lon="-1.73733">
        <ele>72</ele>
        <time>2025-05-16T12:04:43Z</time>
      </trkpt>
      <trkpt lat="48.10088" lon="-1.73727">
        <ele>72</ele>
        <time>2025-05-16T12:04:44Z</time>
      </trkpt>
      <trkpt lat="48.10086" lon="-1.73721">
        <ele>72</ele>
        <time>2025-05-16T12:04:45Z</time>
      </trkpt>
      <trkpt lat="48.10085" lon="-1.73716">
        <ele>72</ele>
        <time>2025-05-16T12:04:46Z</time>
      </trkpt>
      <trkpt lat="48.10083" lon="-1.7371">
        <ele>72</ele>
        <time>2025-05-16T12:04:47Z</time>
      </trkpt>
      <trkpt lat="48.10081" lon="-1.73704">
        <ele>72</ele>
        <time>2025-05-16T12:04:48Z</time>
      </trkpt>
      <trkpt lat="48.10079" lon="-1.73699">
        <ele>72</ele>
        <time>2025-05-16T12:04:49Z</time>
      </trkpt>
      <trkpt lat="48.10077" lon="-1.73693">
        <ele>72</ele>
        <time>2025-05-16T12:04:50Z</time>
      </trkpt>
      <trkpt lat="48.10075" lon="-1.73688">
        <ele>71</ele>
        <time>2025-05-16T12:04:51Z</time>
      </trkpt>
      <trkpt lat="48.10073" lon="-1.73683">
        <ele>71</ele>
        <time>2025-05-16T12:04:52Z</time>
      </trkpt>
      <trkpt lat="48.10071" lon="-1.73678">
        <ele>71</ele>
        <time>2025-05-16T12:04:53Z</time>
      </trkpt>
      <trkpt lat="48.10069" lon="-1.73672">
        <ele>71</ele>
        <time>2025-05-16T12:04:54Z</time>
      </trkpt>
      <trkpt lat="48.10067" lon="-1.73666">
        <ele>71</ele>
        <time>2025-05-16T12:04:55Z</time>
      </trkpt>
      <trkpt lat="48.10065" lon="-1.73661">
        <ele>71</ele>
        <time>2025-05-16T12:04:56Z</time>
      </trkpt>
      <trkpt lat="48.10064" lon="-1.73655">
        <ele>71</ele>
        <time>2025-05-16T12:04:57Z</time>
      </trkpt>
      <trkpt lat="48.10062" lon="-1.7365">
        <ele>71</ele>
        <time>2025-05-16T12:04:58Z</time>
      </trkpt>
      <trkpt lat="48.1006" lon="-1.73644">
        <ele>71</ele>
        <time>2025-05-16T12:04:59Z</time>
      </trkpt>
      <trkpt lat="48.10058" lon="-1.73639">
        <ele>72</ele>
        <time>2025-05-16T12:05:00Z</time>
      </trkpt>
      <trkpt lat="48.10056" lon="-1.73634">
        <ele>72</ele>
        <time>2025-05-16T12:05:01Z</time>
      </trkpt>
      <trkpt lat="48.10055" lon="-1.7363">
        <ele>71</ele>
        <time>2025-05-16T12:05:02Z</time>
      </trkpt>
      <trkpt lat="48.10053" lon="-1.73624">
        <ele>71</ele>
        <time>2025-05-16T12:05:03Z</time>
      </trkpt>
      <trkpt lat="48.10051" lon="-1.73619">
        <ele>71</ele>
        <time>2025-05-16T12:05:04Z</time>
      </trkpt>
      <trkpt lat="48.1005" lon="-1.73615">
        <ele>71</ele>
        <time>2025-05-16T12:05:05Z</time>
      </trkpt>
      <trkpt lat="48.10048" lon="-1.7361">
        <ele>71</ele>
        <time>2025-05-16T12:05:06Z</time>
      </trkpt>
      <trkpt lat="48.10047" lon="-1.73605">
        <ele>72</ele>
        <time>2025-05-16T12:05:07Z</time>
      </trkpt>
      <trkpt lat="48.10045" lon="-1.736">
        <ele>72</ele>
        <time>2025-05-16T12:05:08Z</time>
      </trkpt>
      <trkpt lat="48.10044" lon="-1.73595">
        <ele>72</ele>
        <time>2025-05-16T12:05:09Z</time>
      </trkpt>
      <trkpt lat="48.10043" lon="-1.7359">
        <ele>72</ele>
        <time>2025-05-16T12:05:10Z</time>
      </trkpt>
      <trkpt lat="48.10041" lon="-1.73585">
        <ele>72</ele>
        <time>2025-05-16T12:05:11Z</time>
      </trkpt>
      <trkpt lat="48.10039" lon="-1.7358">
        <ele>72</ele>
        <time>2025-05-16T12:05:12Z</time>
      </trkpt>
      <trkpt lat="48.10038" lon="-1.73575">
        <ele>72</ele>
        <time>2025-05-16T12:05:13Z</time>
      </trkpt>
      <trkpt lat="48.10036" lon="-1.7357">
        <ele>72</ele>
        <time>2025-05-16T12:05:14Z</time>
      </trkpt>
      <trkpt lat="48.10034" lon="-1.73565">
        <ele>72</ele>
        <time>2025-05-16T12:05:15Z</time>
      </trkpt>
      <trkpt lat="48.10032" lon="-1.7356">
        <ele>72</ele>
        <time>2025-05-16T12:05:16Z</time>
      </trkpt>
      <trkpt lat="48.10031" lon="-1.73555">
        <ele>72</ele>
        <time>2025-05-16T12:05:17Z</time>
      </trkpt>
      <trkpt lat="48.10029" lon="-1.7355">
        <ele>72</ele>
        <time>2025-05-16T12:05:18Z</time>
      </trkpt>
      <trkpt lat="48.10027" lon="-1.73545">
        <ele>72</ele>
        <time>2025-05-16T12:05:19Z</time>
      </trkpt>
      <trkpt lat="48.10025" lon="-1.73541">
        <ele>72</ele>
        <time>2025-05-16T12:05:20Z</time>
      </trkpt>
      <trkpt lat="48.10024" lon="-1.73537">
        <ele>72</ele>
        <time>2025-05-16T12:05:21Z</time>
      </trkpt>
      <trkpt lat="48.10022" lon="-1.73532">
        <ele>72</ele>
        <time>2025-05-16T12:05:22Z</time>
      </trkpt>
      <trkpt lat="48.1002" lon="-1.73527">
        <ele>72</ele>
        <time>2025-05-16T12:05:23Z</time>
      </trkpt>
      <trkpt lat="48.10019" lon="-1.73523">
        <ele>72</ele>
        <time>2025-05-16T12:05:24Z</time>
      </trkpt>
      <trkpt lat="48.10018" lon="-1.73518">
        <ele>72</ele>
        <time>2025-05-16T12:05:25Z</time>
      </trkpt>
      <trkpt lat="48.10017" lon="-1.73514">
        <ele>72</ele>
        <time>2025-05-16T12:05:26Z</time>
      </trkpt>
      <trkpt lat="48.10015" lon="-1.73509">
        <ele>72</ele>
        <time>2025-05-16T12:05:27Z</time>
      </trkpt>
      <trkpt lat="48.10013" lon="-1.73503">
        <ele>71</ele>
        <time>2025-05-16T12:05:28Z</time>
      </trkpt>
      <trkpt lat="48.10011" lon="-1.73498">
        <ele>71</ele>
        <time>2025-05-16T12:05:29Z</time>
      </trkpt>
      <trkpt lat="48.10009" lon="-1.73493">
        <ele>71</ele>
        <time>2025-05-16T12:05:30Z</time>
      </trkpt>
      <trkpt lat="48.10008" lon="-1.73488">
        <ele>71</ele>
        <time>2025-05-16T12:05:31Z</time>
      </trkpt>
      <trkpt lat="48.10007" lon="-1.73483">
        <ele>71</ele>
        <time>2025-05-16T12:05:32Z</time>
      </trkpt>
      <trkpt lat="48.10004" lon="-1.73478">
        <ele>71</ele>
        <time>2025-05-16T12:05:33Z</time>
      </trkpt>
      <trkpt lat="48.10002" lon="-1.73473">
        <ele>71</ele>
        <time>2025-05-16T12:05:34Z</time>
      </trkpt>
      <trkpt lat="48.1" lon="-1.73468">
        <ele>71</ele>
        <time>2025-05-16T12:05:35Z</time>
      </trkpt>
      <trkpt lat="48.09998" lon="-1.73463">
        <ele>72</ele>
        <time>2025-05-16T12:05:36Z</time>
      </trkpt>
      <trkpt lat="48.09995" lon="-1.73457">
        <ele>72</ele>
        <time>2025-05-16T12:05:37Z</time>
      </trkpt>
      <trkpt lat="48.09994" lon="-1.73452">
        <ele>72</ele>
        <time>2025-05-16T12:05:38Z</time>
      </trkpt>
      <trkpt lat="48.09992" lon="-1.73447">
        <ele>71</ele>
        <time>2025-05-16T12:05:39Z</time>
      </trkpt>
      <trkpt lat="48.09991" lon="-1.73442">
        <ele>71</ele>
        <time>2025-05-16T12:05:40Z</time>
      </trkpt>
      <trkpt lat="48.09989" lon="-1.73437">
        <ele>71</ele>
        <time>2025-05-16T12:05:41Z</time>
      </trkpt>
      <trkpt lat="48.09987" lon="-1.73432">
        <ele>71</ele>
        <time>2025-05-16T12:05:42Z</time>
      </trkpt>
      <trkpt lat="48.09986" lon="-1.73427">
        <ele>71</ele>
        <time>2025-05-16T12:05:43Z</time>
      </trkpt>
      <trkpt lat="48.09984" lon="-1.73422">
        <ele>71</ele>
        <time>2025-05-16T12:05:44Z</time>
      </trkpt>
      <trkpt lat="48.09982" lon="-1.73417">
        <ele>71</ele>
        <time>2025-05-16T12:05:45Z</time>
      </trkpt>
      <trkpt lat="48.0998" lon="-1.73412">
        <ele>71</ele>
        <time>2025-05-16T12:05:46Z</time>
      </trkpt>
      <trkpt lat="48.09979" lon="-1.73406">
        <ele>71</ele>
        <time>2025-05-16T12:05:47Z</time>
      </trkpt>
      <trkpt lat="48.09977" lon="-1.73401">
        <ele>71</ele>
        <time>2025-05-16T12:05:48Z</time>
      </trkpt>
      <trkpt lat="48.09976" lon="-1.73395">
        <ele>71</ele>
        <time>2025-05-16T12:05:49Z</time>
      </trkpt>
      <trkpt lat="48.09974" lon="-1.7339">
        <ele>72</ele>
        <time>2025-05-16T12:05:50Z</time>
      </trkpt>
      <trkpt lat="48.09972" lon="-1.73385">
        <ele>71</ele>
        <time>2025-05-16T12:05:51Z</time>
      </trkpt>
      <trkpt lat="48.0997" lon="-1.7338">
        <ele>72</ele>
        <time>2025-05-16T12:05:52Z</time>
      </trkpt>
      <trkpt lat="48.09969" lon="-1.73375">
        <ele>72</ele>
        <time>2025-05-16T12:05:53Z</time>
      </trkpt>
      <trkpt lat="48.09967" lon="-1.7337">
        <ele>72</ele>
        <time>2025-05-16T12:05:54Z</time>
      </trkpt>
      <trkpt lat="48.09965" lon="-1.73365">
        <ele>73</ele>
        <time>2025-05-16T12:05:55Z</time>
      </trkpt>
      <trkpt lat="48.09963" lon="-1.7336">
        <ele>73</ele>
        <time>2025-05-16T12:05:56Z</time>
      </trkpt>
      <trkpt lat="48.09962" lon="-1.73355">
        <ele>72</ele>
        <time>2025-05-16T12:05:57Z</time>
      </trkpt>
      <trkpt lat="48.0996" lon="-1.73349">
        <ele>72</ele>
        <time>2025-05-16T12:05:58Z</time>
      </trkpt>
      <trkpt lat="48.09958" lon="-1.73344">
        <ele>72</ele>
        <time>2025-05-16T12:05:59Z</time>
      </trkpt>
      <trkpt lat="48.09956" lon="-1.7334">
        <ele>72</ele>
        <time>2025-05-16T12:06:00Z</time>
      </trkpt>
      <trkpt lat="48.09954" lon="-1.73335">
        <ele>71</ele>
        <time>2025-05-16T12:06:01Z</time>
      </trkpt>
      <trkpt lat="48.09953" lon="-1.7333">
        <ele>71</ele>
        <time>2025-05-16T12:06:02Z</time>
      </trkpt>
      <trkpt lat="48.09951" lon="-1.73325">
        <ele>71</ele>
        <time>2025-05-16T12:06:03Z</time>
      </trkpt>
      <trkpt lat="48.09949" lon="-1.7332">
        <ele>72</ele>
        <time>2025-05-16T12:06:04Z</time>
      </trkpt>
      <trkpt lat="48.09948" lon="-1.73315">
        <ele>72</ele>
        <time>2025-05-16T12:06:05Z</time>
      </trkpt>
      <trkpt lat="48.09946" lon="-1.7331">
        <ele>72</ele>
        <time>2025-05-16T12:06:06Z</time>
      </trkpt>
      <trkpt lat="48.09945" lon="-1.73305">
        <ele>72</ele>
        <time>2025-05-16T12:06:07Z</time>
      </trkpt>
      <trkpt lat="48.09943" lon="-1.73301">
        <ele>73</ele>
        <time>2025-05-16T12:06:08Z</time>
      </trkpt>
      <trkpt lat="48.09941" lon="-1.73296">
        <ele>73</ele>
        <time>2025-05-16T12:06:09Z</time>
      </trkpt>
      <trkpt lat="48.0994" lon="-1.73292">
        <ele>73</ele>
        <time>2025-05-16T12:06:10Z</time>
      </trkpt>
      <trkpt lat="48.09938" lon="-1.73287">
        <ele>73</ele>
        <time>2025-05-16T12:06:11Z</time>
      </trkpt>
      <trkpt lat="48.09937" lon="-1.73282">
        <ele>73</ele>
        <time>2025-05-16T12:06:12Z</time>
      </trkpt>
      <trkpt lat="48.09935" lon="-1.73277">
        <ele>73</ele>
        <time>2025-05-16T12:06:13Z</time>
      </trkpt>
      <trkpt lat="48.09934" lon="-1.73272">
        <ele>73</ele>
        <time>2025-05-16T12:06:14Z</time>
      </trkpt>
      <trkpt lat="48.09933" lon="-1.73267">
        <ele>73</ele>
        <time>2025-05-16T12:06:15Z</time>
      </trkpt>
      <trkpt lat="48.09932" lon="-1.73263">
        <ele>73</ele>
        <time>2025-05-16T12:06:16Z</time>
      </trkpt>
      <trkpt lat="48.09931" lon="-1.73258">
        <ele>73</ele>
        <time>2025-05-16T12:06:17Z</time>
      </trkpt>
      <trkpt lat="48.09929" lon="-1.73253">
        <ele>73</ele>
        <time>2025-05-16T12:06:18Z</time>
      </trkpt>
      <trkpt lat="48.09928" lon="-1.73248">
        <ele>73</ele>
        <time>2025-05-16T12:06:19Z</time>
      </trkpt>
      <trkpt lat="48.09927" lon="-1.73243">
        <ele>73</ele>
        <time>2025-05-16T12:06:20Z</time>
      </trkpt>
      <trkpt lat="48.09926" lon="-1.73238">
        <ele>73</ele>
        <time>2025-05-16T12:06:21Z</time>
      </trkpt>
      <trkpt lat="48.09925" lon="-1.73233">
        <ele>72</ele>
        <time>2025-05-16T12:06:22Z</time>
      </trkpt>
      <trkpt lat="48.09924" lon="-1.73228">
        <ele>72</ele>
        <time>2025-05-16T12:06:23Z</time>
      </trkpt>
      <trkpt lat="48.09923" lon="-1.73223">
        <ele>72</ele>
        <time>2025-05-16T12:06:24Z</time>
      </trkpt>
      <trkpt lat="48.09923" lon="-1.73217">
        <ele>72</ele>
        <time>2025-05-16T12:06:25Z</time>
      </trkpt>
      <trkpt lat="48.09922" lon="-1.73212">
        <ele>72</ele>
        <time>2025-05-16T12:06:26Z</time>
      </trkpt>
      <trkpt lat="48.09922" lon="-1.73206">
        <ele>72</ele>
        <time>2025-05-16T12:06:27Z</time>
      </trkpt>
      <trkpt lat="48.09921" lon="-1.732">
        <ele>72</ele>
        <time>2025-05-16T12:06:28Z</time>
      </trkpt>
      <trkpt lat="48.0992" lon="-1.73195">
        <ele>72</ele>
        <time>2025-05-16T12:06:29Z</time>
      </trkpt>
      <trkpt lat="48.0992" lon="-1.73189">
        <ele>72</ele>
        <time>2025-05-16T12:06:30Z</time>
      </trkpt>
      <trkpt lat="48.09919" lon="-1.73184">
        <ele>72</ele>
        <time>2025-05-16T12:06:31Z</time>
      </trkpt>
      <trkpt lat="48.09918" lon="-1.73178">
        <ele>72</ele>
        <time>2025-05-16T12:06:32Z</time>
      </trkpt>
      <trkpt lat="48.09918" lon="-1.73173">
        <ele>72</ele>
        <time>2025-05-16T12:06:33Z</time>
      </trkpt>
      <trkpt lat="48.09917" lon="-1.73168">
        <ele>72</ele>
        <time>2025-05-16T12:06:34Z</time>
      </trkpt>
      <trkpt lat="48.09917" lon="-1.73163">
        <ele>72</ele>
        <time>2025-05-16T12:06:35Z</time>
      </trkpt>
      <trkpt lat="48.09917" lon="-1.73157">
        <ele>72</ele>
        <time>2025-05-16T12:06:36Z</time>
      </trkpt>
      <trkpt lat="48.09917" lon="-1.73151">
        <ele>72</ele>
        <time>2025-05-16T12:06:37Z</time>
      </trkpt>
      <trkpt lat="48.09917" lon="-1.73146">
        <ele>72</ele>
        <time>2025-05-16T12:06:38Z</time>
      </trkpt>
      <trkpt lat="48.09917" lon="-1.7314">
        <ele>73</ele>
        <time>2025-05-16T12:06:39Z</time>
      </trkpt>
      <trkpt lat="48.09917" lon="-1.73134">
        <ele>73</ele>
        <time>2025-05-16T12:06:40Z</time>
      </trkpt>
      <trkpt lat="48.09918" lon="-1.73128">
        <ele>73</ele>
        <time>2025-05-16T12:06:41Z</time>
      </trkpt>
      <trkpt lat="48.09918" lon="-1.73123">
        <ele>73</ele>
        <time>2025-05-16T12:06:42Z</time>
      </trkpt>
      <trkpt lat="48.09919" lon="-1.73117">
        <ele>73</ele>
        <time>2025-05-16T12:06:43Z</time>
      </trkpt>
      <trkpt lat="48.09921" lon="-1.73112">
        <ele>73</ele>
        <time>2025-05-16T12:06:44Z</time>
      </trkpt>
      <trkpt lat="48.09922" lon="-1.73107">
        <ele>73</ele>
        <time>2025-05-16T12:06:45Z</time>
      </trkpt>
      <trkpt lat="48.09923" lon="-1.73101">
        <ele>74</ele>
        <time>2025-05-16T12:06:46Z</time>
      </trkpt>
      <trkpt lat="48.09925" lon="-1.73097">
        <ele>73</ele>
        <time>2025-05-16T12:06:47Z</time>
      </trkpt>
      <trkpt lat="48.09926" lon="-1.73092">
        <ele>73</ele>
        <time>2025-05-16T12:06:48Z</time>
      </trkpt>
      <trkpt lat="48.09928" lon="-1.73087">
        <ele>73</ele>
        <time>2025-05-16T12:06:49Z</time>
      </trkpt>
      <trkpt lat="48.0993" lon="-1.73083">
        <ele>73</ele>
        <time>2025-05-16T12:06:50Z</time>
      </trkpt>
      <trkpt lat="48.09932" lon="-1.73078">
        <ele>73</ele>
        <time>2025-05-16T12:06:51Z</time>
      </trkpt>
      <trkpt lat="48.09935" lon="-1.73075">
        <ele>73</ele>
        <time>2025-05-16T12:06:52Z</time>
      </trkpt>
      <trkpt lat="48.09938" lon="-1.73071">
        <ele>73</ele>
        <time>2025-05-16T12:06:53Z</time>
      </trkpt>
      <trkpt lat="48.09941" lon="-1.73068">
        <ele>72</ele>
        <time>2025-05-16T12:06:54Z</time>
      </trkpt>
      <trkpt lat="48.09944" lon="-1.73064">
        <ele>72</ele>
        <time>2025-05-16T12:06:55Z</time>
      </trkpt>
      <trkpt lat="48.09946" lon="-1.73061">
        <ele>72</ele>
        <time>2025-05-16T12:06:56Z</time>
      </trkpt>
      <trkpt lat="48.09949" lon="-1.73057">
        <ele>72</ele>
        <time>2025-05-16T12:06:57Z</time>
      </trkpt>
      <trkpt lat="48.09952" lon="-1.73054">
        <ele>72</ele>
        <time>2025-05-16T12:06:58Z</time>
      </trkpt>
      <trkpt lat="48.09956" lon="-1.73051">
        <ele>72</ele>
        <time>2025-05-16T12:06:59Z</time>
      </trkpt>
      <trkpt lat="48.09959" lon="-1.73047">
        <ele>72</ele>
        <time>2025-05-16T12:07:00Z</time>
      </trkpt>
      <trkpt lat="48.09962" lon="-1.73044">
        <ele>72</ele>
        <time>2025-05-16T12:07:01Z</time>
      </trkpt>
      <trkpt lat="48.09966" lon="-1.7304">
        <ele>72</ele>
        <time>2025-05-16T12:07:02Z</time>
      </trkpt>
      <trkpt lat="48.09969" lon="-1.73037">
        <ele>72</ele>
        <time>2025-05-16T12:07:03Z</time>
      </trkpt>
      <trkpt lat="48.09972" lon="-1.73034">
        <ele>72</ele>
        <time>2025-05-16T12:07:04Z</time>
      </trkpt>
      <trkpt lat="48.09976" lon="-1.73031">
        <ele>72</ele>
        <time>2025-05-16T12:07:05Z</time>
      </trkpt>
      <trkpt lat="48.09979" lon="-1.73028">
        <ele>72</ele>
        <time>2025-05-16T12:07:06Z</time>
      </trkpt>
      <trkpt lat="48.09982" lon="-1.73025">
        <ele>73</ele>
        <time>2025-05-16T12:07:07Z</time>
      </trkpt>
      <trkpt lat="48.09985" lon="-1.73021">
        <ele>73</ele>
        <time>2025-05-16T12:07:08Z</time>
      </trkpt>
      <trkpt lat="48.09988" lon="-1.73017">
        <ele>73</ele>
        <time>2025-05-16T12:07:09Z</time>
      </trkpt>
      <trkpt lat="48.09991" lon="-1.73013">
        <ele>73</ele>
        <time>2025-05-16T12:07:10Z</time>
      </trkpt>
      <trkpt lat="48.09993" lon="-1.73009">
        <ele>74</ele>
        <time>2025-05-16T12:07:11Z</time>
      </trkpt>
      <trkpt lat="48.09996" lon="-1.73004">
        <ele>74</ele>
        <time>2025-05-16T12:07:12Z</time>
      </trkpt>
      <trkpt lat="48.09998" lon="-1.72999">
        <ele>74</ele>
        <time>2025-05-16T12:07:13Z</time>
      </trkpt>
      <trkpt lat="48.1" lon="-1.72995">
        <ele>74</ele>
        <time>2025-05-16T12:07:14Z</time>
      </trkpt>
      <trkpt lat="48.10003" lon="-1.72991">
        <ele>74</ele>
        <time>2025-05-16T12:07:15Z</time>
      </trkpt>
      <trkpt lat="48.10005" lon="-1.72987">
        <ele>74</ele>
        <time>2025-05-16T12:07:16Z</time>
      </trkpt>
      <trkpt lat="48.10007" lon="-1.72983">
        <ele>75</ele>
        <time>2025-05-16T12:07:17Z</time>
      </trkpt>
      <trkpt lat="48.10009" lon="-1.72979">
        <ele>75</ele>
        <time>2025-05-16T12:07:18Z</time>
      </trkpt>
      <trkpt lat="48.10011" lon="-1.72974">
        <ele>75</ele>
        <time>2025-05-16T12:07:19Z</time>
      </trkpt>
      <trkpt lat="48.10012" lon="-1.72969">
        <ele>74</ele>
        <time>2025-05-16T12:07:20Z</time>
      </trkpt>
      <trkpt lat="48.10015" lon="-1.72964">
        <ele>74</ele>
        <time>2025-05-16T12:07:21Z</time>
      </trkpt>
      <trkpt lat="48.10016" lon="-1.72959">
        <ele>74</ele>
        <time>2025-05-16T12:07:22Z</time>
      </trkpt>
      <trkpt lat="48.10017" lon="-1.72953">
        <ele>73</ele>
        <time>2025-05-16T12:07:23Z</time>
      </trkpt>
      <trkpt lat="48.10018" lon="-1.72948">
        <ele>73</ele>
        <time>2025-05-16T12:07:24Z</time>
      </trkpt>
      <trkpt lat="48.10019" lon="-1.72943">
        <ele>73</ele>
        <time>2025-05-16T12:07:25Z</time>
      </trkpt>
      <trkpt lat="48.1002" lon="-1.72938">
        <ele>73</ele>
        <time>2025-05-16T12:07:26Z</time>
      </trkpt>
      <trkpt lat="48.10022" lon="-1.72932">
        <ele>73</ele>
        <time>2025-05-16T12:07:27Z</time>
      </trkpt>
      <trkpt lat="48.10023" lon="-1.72927">
        <ele>72</ele>
        <time>2025-05-16T12:07:28Z</time>
      </trkpt>
      <trkpt lat="48.10023" lon="-1.72922">
        <ele>72</ele>
        <time>2025-05-16T12:07:29Z</time>
      </trkpt>
      <trkpt lat="48.10024" lon="-1.72917">
        <ele>72</ele>
        <time>2025-05-16T12:07:30Z</time>
      </trkpt>
      <trkpt lat="48.10024" lon="-1.72911">
        <ele>71</ele>
        <time>2025-05-16T12:07:31Z</time>
      </trkpt>
      <trkpt lat="48.10025" lon="-1.72906">
        <ele>71</ele>
        <time>2025-05-16T12:07:32Z</time>
      </trkpt>
      <trkpt lat="48.10025" lon="-1.729">
        <ele>71</ele>
        <time>2025-05-16T12:07:33Z</time>
      </trkpt>
      <trkpt lat="48.10026" lon="-1.72895">
        <ele>70</ele>
        <time>2025-05-16T12:07:34Z</time>
      </trkpt>
      <trkpt lat="48.10027" lon="-1.7289">
        <ele>69</ele>
        <time>2025-05-16T12:07:35Z</time>
      </trkpt>
      <trkpt lat="48.10028" lon="-1.72884">
        <ele>69</ele>
        <time>2025-05-16T12:07:36Z</time>
      </trkpt>
      <trkpt lat="48.10029" lon="-1.72879">
        <ele>68</ele>
        <time>2025-05-16T12:07:37Z</time>
      </trkpt>
      <trkpt lat="48.1003" lon="-1.72873">
        <ele>69</ele>
        <time>2025-05-16T12:07:38Z</time>
      </trkpt>
      <trkpt lat="48.10031" lon="-1.72868">
        <ele>69</ele>
        <time>2025-05-16T12:07:39Z</time>
      </trkpt>
      <trkpt lat="48.10032" lon="-1.72862">
        <ele>69</ele>
        <time>2025-05-16T12:07:40Z</time>
      </trkpt>
      <trkpt lat="48.10033" lon="-1.72856">
        <ele>69</ele>
        <time>2025-05-16T12:07:41Z</time>
      </trkpt>
      <trkpt lat="48.10035" lon="-1.7285">
        <ele>69</ele>
        <time>2025-05-16T12:07:42Z</time>
      </trkpt>
      <trkpt lat="48.10037" lon="-1.72844">
        <ele>70</ele>
        <time>2025-05-16T12:07:43Z</time>
      </trkpt>
      <trkpt lat="48.10038" lon="-1.72838">
        <ele>70</ele>
        <time>2025-05-16T12:07:44Z</time>
      </trkpt>
      <trkpt lat="48.10039" lon="-1.72833">
        <ele>70</ele>
        <time>2025-05-16T12:07:45Z</time>
      </trkpt>
      <trkpt lat="48.1004" lon="-1.72827">
        <ele>71</ele>
        <time>2025-05-16T12:07:46Z</time>
      </trkpt>
      <trkpt lat="48.10042" lon="-1.7282">
        <ele>71</ele>
        <time>2025-05-16T12:07:47Z</time>
      </trkpt>
      <trkpt lat="48.10043" lon="-1.72814">
        <ele>71</ele>
        <time>2025-05-16T12:07:48Z</time>
      </trkpt>
      <trkpt lat="48.10045" lon="-1.72808">
        <ele>72</ele>
        <time>2025-05-16T12:07:49Z</time>
      </trkpt>
      <trkpt lat="48.10046" lon="-1.72801">
        <ele>72</ele>
        <time>2025-05-16T12:07:50Z</time>
      </trkpt>
      <trkpt lat="48.10047" lon="-1.72795">
        <ele>72</ele>
        <time>2025-05-16T12:07:51Z</time>
      </trkpt>
      <trkpt lat="48.10048" lon="-1.72788">
        <ele>72</ele>
        <time>2025-05-16T12:07:52Z</time>
      </trkpt>
      <trkpt lat="48.10048" lon="-1.72782">
        <ele>72</ele>
        <time>2025-05-16T12:07:53Z</time>
      </trkpt>
      <trkpt lat="48.10049" lon="-1.72776">
        <ele>72</ele>
        <time>2025-05-16T12:07:54Z</time>
      </trkpt>
      <trkpt lat="48.10051" lon="-1.72771">
        <ele>73</ele>
        <time>2025-05-16T12:07:55Z</time>
      </trkpt>
      <trkpt lat="48.10052" lon="-1.72764">
        <ele>73</ele>
        <time>2025-05-16T12:07:56Z</time>
      </trkpt>
      <trkpt lat="48.10053" lon="-1.72758">
        <ele>73</ele>
        <time>2025-05-16T12:07:57Z</time>
      </trkpt>
      <trkpt lat="48.10053" lon="-1.72752">
        <ele>73</ele>
        <time>2025-05-16T12:07:58Z</time>
      </trkpt>
      <trkpt lat="48.10054" lon="-1.72746">
        <ele>73</ele>
        <time>2025-05-16T12:07:59Z</time>
      </trkpt>
      <trkpt lat="48.10055" lon="-1.72741">
        <ele>72</ele>
        <time>2025-05-16T12:08:00Z</time>
      </trkpt>
      <trkpt lat="48.10056" lon="-1.72734">
        <ele>72</ele>
        <time>2025-05-16T12:08:01Z</time>
      </trkpt>
      <trkpt lat="48.10056" lon="-1.72727">
        <ele>72</ele>
        <time>2025-05-16T12:08:02Z</time>
      </trkpt>
      <trkpt lat="48.10057" lon="-1.72721">
        <ele>72</ele>
        <time>2025-05-16T12:08:03Z</time>
      </trkpt>
      <trkpt lat="48.10058" lon="-1.72714">
        <ele>72</ele>
        <time>2025-05-16T12:08:04Z</time>
      </trkpt>
      <trkpt lat="48.10059" lon="-1.72707">
        <ele>72</ele>
        <time>2025-05-16T12:08:05Z</time>
      </trkpt>
      <trkpt lat="48.1006" lon="-1.72701">
        <ele>72</ele>
        <time>2025-05-16T12:08:06Z</time>
      </trkpt>
      <trkpt lat="48.10061" lon="-1.72696">
        <ele>72</ele>
        <time>2025-05-16T12:08:07Z</time>
      </trkpt>
      <trkpt lat="48.10062" lon="-1.7269">
        <ele>73</ele>
        <time>2025-05-16T12:08:08Z</time>
      </trkpt>
      <trkpt lat="48.10063" lon="-1.72684">
        <ele>72</ele>
        <time>2025-05-16T12:08:09Z</time>
      </trkpt>
      <trkpt lat="48.10064" lon="-1.72678">
        <ele>71</ele>
        <time>2025-05-16T12:08:10Z</time>
      </trkpt>
      <trkpt lat="48.10065" lon="-1.72672">
        <ele>71</ele>
        <time>2025-05-16T12:08:11Z</time>
      </trkpt>
      <trkpt lat="48.10066" lon="-1.72666">
        <ele>71</ele>
        <time>2025-05-16T12:08:12Z</time>
      </trkpt>
      <trkpt lat="48.10068" lon="-1.7266">
        <ele>71</ele>
        <time>2025-05-16T12:08:13Z</time>
      </trkpt>
      <trkpt lat="48.10069" lon="-1.72654">
        <ele>71</ele>
        <time>2025-05-16T12:08:14Z</time>
      </trkpt>
      <trkpt lat="48.10071" lon="-1.72649">
        <ele>72</ele>
        <time>2025-05-16T12:08:15Z</time>
      </trkpt>
      <trkpt lat="48.10072" lon="-1.72643">
        <ele>72</ele>
        <time>2025-05-16T12:08:16Z</time>
      </trkpt>
      <trkpt lat="48.10073" lon="-1.72637">
        <ele>72</ele>
        <time>2025-05-16T12:08:17Z</time>
      </trkpt>
      <trkpt lat="48.10073" lon="-1.72631">
        <ele>72</ele>
        <time>2025-05-16T12:08:18Z</time>
      </trkpt>
      <trkpt lat="48.10074" lon="-1.72625">
        <ele>72</ele>
        <time>2025-05-16T12:08:19Z</time>
      </trkpt>
      <trkpt lat="48.10075" lon="-1.72619">
        <ele>71</ele>
        <time>2025-05-16T12:08:20Z</time>
      </trkpt>
      <trkpt lat="48.10076" lon="-1.72613">
        <ele>71</ele>
        <time>2025-05-16T12:08:21Z</time>
      </trkpt>
      <trkpt lat="48.10077" lon="-1.72607">
        <ele>71</ele>
        <time>2025-05-16T12:08:22Z</time>
      </trkpt>
      <trkpt lat="48.10078" lon="-1.72601">
        <ele>72</ele>
        <time>2025-05-16T12:08:23Z</time>
      </trkpt>
      <trkpt lat="48.10079" lon="-1.72595">
        <ele>72</ele>
        <time>2025-05-16T12:08:24Z</time>
      </trkpt>
      <trkpt lat="48.1008" lon="-1.7259">
        <ele>72</ele>
        <time>2025-05-16T12:08:25Z</time>
      </trkpt>
      <trkpt lat="48.10081" lon="-1.72584">
        <ele>72</ele>
        <time>2025-05-16T12:08:26Z</time>
      </trkpt>
      <trkpt lat="48.10082" lon="-1.72579">
        <ele>72</ele>
        <time>2025-05-16T12:08:27Z</time>
      </trkpt>
      <trkpt lat="48.10084" lon="-1.72573">
        <ele>72</ele>
        <time>2025-05-16T12:08:28Z</time>
      </trkpt>
      <trkpt lat="48.10084" lon="-1.72567">
        <ele>72</ele>
        <time>2025-05-16T12:08:29Z</time>
      </trkpt>
      <trkpt lat="48.10085" lon="-1.72562">
        <ele>72</ele>
        <time>2025-05-16T12:08:30Z</time>
      </trkpt>
      <trkpt lat="48.10086" lon="-1.72556">
        <ele>72</ele>
        <time>2025-05-16T12:08:31Z</time>
      </trkpt>
      <trkpt lat="48.10087" lon="-1.7255">
        <ele>72</ele>
        <time>2025-05-16T12:08:32Z</time>
      </trkpt>
      <trkpt lat="48.10088" lon="-1.72544">
        <ele>71</ele>
        <time>2025-05-16T12:08:33Z</time>
      </trkpt>
      <trkpt lat="48.10089" lon="-1.72539">
        <ele>72</ele>
        <time>2025-05-16T12:08:34Z</time>
      </trkpt>
      <trkpt lat="48.1009" lon="-1.72533">
        <ele>72</ele>
        <time>2025-05-16T12:08:35Z</time>
      </trkpt>
      <trkpt lat="48.10091" lon="-1.72527">
        <ele>72</ele>
        <time>2025-05-16T12:08:36Z</time>
      </trkpt>
      <trkpt lat="48.10092" lon="-1.72521">
        <ele>72</ele>
        <time>2025-05-16T12:08:37Z</time>
      </trkpt>
      <trkpt lat="48.10094" lon="-1.72515">
        <ele>72</ele>
        <time>2025-05-16T12:08:38Z</time>
      </trkpt>
      <trkpt lat="48.10095" lon="-1.7251">
        <ele>72</ele>
        <time>2025-05-16T12:08:39Z</time>
      </trkpt>
      <trkpt lat="48.10096" lon="-1.72504">
        <ele>72</ele>
        <time>2025-05-16T12:08:40Z</time>
      </trkpt>
      <trkpt lat="48.10097" lon="-1.72498">
        <ele>72</ele>
        <time>2025-05-16T12:08:41Z</time>
      </trkpt>
      <trkpt lat="48.10098" lon="-1.72493">
        <ele>72</ele>
        <time>2025-05-16T12:08:42Z</time>
      </trkpt>
      <trkpt lat="48.10099" lon="-1.72487">
        <ele>72</ele>
        <time>2025-05-16T12:08:43Z</time>
      </trkpt>
      <trkpt lat="48.101" lon="-1.72481">
        <ele>72</ele>
        <time>2025-05-16T12:08:44Z</time>
      </trkpt>
      <trkpt lat="48.10101" lon="-1.72476">
        <ele>72</ele>
        <time>2025-05-16T12:08:45Z</time>
      </trkpt>
      <trkpt lat="48.10102" lon="-1.7247">
        <ele>72</ele>
        <time>2025-05-16T12:08:46Z</time>
      </trkpt>
      <trkpt lat="48.10103" lon="-1.72464">
        <ele>71</ele>
        <time>2025-05-16T12:08:47Z</time>
      </trkpt>
      <trkpt lat="48.10105" lon="-1.72458">
        <ele>71</ele>
        <time>2025-05-16T12:08:48Z</time>
      </trkpt>
      <trkpt lat="48.10106" lon="-1.72452">
        <ele>71</ele>
        <time>2025-05-16T12:08:49Z</time>
      </trkpt>
      <trkpt lat="48.10107" lon="-1.72446">
        <ele>71</ele>
        <time>2025-05-16T12:08:50Z</time>
      </trkpt>
      <trkpt lat="48.10108" lon="-1.72439">
        <ele>71</ele>
        <time>2025-05-16T12:08:51Z</time>
      </trkpt>
      <trkpt lat="48.10109" lon="-1.72434">
        <ele>71</ele>
        <time>2025-05-16T12:08:52Z</time>
      </trkpt>
      <trkpt lat="48.1011" lon="-1.72428">
        <ele>71</ele>
        <time>2025-05-16T12:08:53Z</time>
      </trkpt>
      <trkpt lat="48.10112" lon="-1.72422">
        <ele>71</ele>
        <time>2025-05-16T12:08:54Z</time>
      </trkpt>
      <trkpt lat="48.10114" lon="-1.72416">
        <ele>71</ele>
        <time>2025-05-16T12:08:55Z</time>
      </trkpt>
      <trkpt lat="48.10115" lon="-1.72411">
        <ele>71</ele>
        <time>2025-05-16T12:08:56Z</time>
      </trkpt>
      <trkpt lat="48.10117" lon="-1.72405">
        <ele>71</ele>
        <time>2025-05-16T12:08:57Z</time>
      </trkpt>
      <trkpt lat="48.10119" lon="-1.72399">
        <ele>72</ele>
        <time>2025-05-16T12:08:58Z</time>
      </trkpt>
      <trkpt lat="48.1012" lon="-1.72394">
        <ele>72</ele>
        <time>2025-05-16T12:08:59Z</time>
      </trkpt>
      <trkpt lat="48.10122" lon="-1.72388">
        <ele>72</ele>
        <time>2025-05-16T12:09:00Z</time>
      </trkpt>
      <trkpt lat="48.10123" lon="-1.72383">
        <ele>72</ele>
        <time>2025-05-16T12:09:01Z</time>
      </trkpt>
      <trkpt lat="48.10125" lon="-1.72377">
        <ele>73</ele>
        <time>2025-05-16T12:09:02Z</time>
      </trkpt>
      <trkpt lat="48.10127" lon="-1.72372">
        <ele>73</ele>
        <time>2025-05-16T12:09:03Z</time>
      </trkpt>
      <trkpt lat="48.10129" lon="-1.72367">
        <ele>73</ele>
        <time>2025-05-16T12:09:04Z</time>
      </trkpt>
      <trkpt lat="48.1013" lon="-1.72361">
        <ele>73</ele>
        <time>2025-05-16T12:09:05Z</time>
      </trkpt>
      <trkpt lat="48.10132" lon="-1.72356">
        <ele>73</ele>
        <time>2025-05-16T12:09:06Z</time>
      </trkpt>
      <trkpt lat="48.10134" lon="-1.72351">
        <ele>73</ele>
        <time>2025-05-16T12:09:07Z</time>
      </trkpt>
      <trkpt lat="48.10135" lon="-1.72345">
        <ele>73</ele>
        <time>2025-05-16T12:09:08Z</time>
      </trkpt>
      <trkpt lat="48.10137" lon="-1.7234">
        <ele>73</ele>
        <time>2025-05-16T12:09:09Z</time>
      </trkpt>
      <trkpt lat="48.10138" lon="-1.72335">
        <ele>73</ele>
        <time>2025-05-16T12:09:10Z</time>
      </trkpt>
      <trkpt lat="48.10139" lon="-1.72329">
        <ele>73</ele>
        <time>2025-05-16T12:09:11Z</time>
      </trkpt>
      <trkpt lat="48.1014" lon="-1.72324">
        <ele>73</ele>
        <time>2025-05-16T12:09:12Z</time>
      </trkpt>
      <trkpt lat="48.10141" lon="-1.72318">
        <ele>73</ele>
        <time>2025-05-16T12:09:13Z</time>
      </trkpt>
      <trkpt lat="48.10143" lon="-1.72313">
        <ele>73</ele>
        <time>2025-05-16T12:09:14Z</time>
      </trkpt>
      <trkpt lat="48.10144" lon="-1.72308">
        <ele>72</ele>
        <time>2025-05-16T12:09:15Z</time>
      </trkpt>
      <trkpt lat="48.10146" lon="-1.72303">
        <ele>72</ele>
        <time>2025-05-16T12:09:16Z</time>
      </trkpt>
      <trkpt lat="48.10149" lon="-1.72298">
        <ele>72</ele>
        <time>2025-05-16T12:09:17Z</time>
      </trkpt>
      <trkpt lat="48.10152" lon="-1.72292">
        <ele>73</ele>
        <time>2025-05-16T12:09:18Z</time>
      </trkpt>
      <trkpt lat="48.10155" lon="-1.72287">
        <ele>72</ele>
        <time>2025-05-16T12:09:19Z</time>
      </trkpt>
      <trkpt lat="48.10157" lon="-1.72283">
        <ele>72</ele>
        <time>2025-05-16T12:09:20Z</time>
      </trkpt>
      <trkpt lat="48.1016" lon="-1.72278">
        <ele>72</ele>
        <time>2025-05-16T12:09:21Z</time>
      </trkpt>
      <trkpt lat="48.10163" lon="-1.72273">
        <ele>72</ele>
        <time>2025-05-16T12:09:22Z</time>
      </trkpt>
      <trkpt lat="48.10167" lon="-1.72269">
        <ele>72</ele>
        <time>2025-05-16T12:09:23Z</time>
      </trkpt>
      <trkpt lat="48.1017" lon="-1.72265">
        <ele>71</ele>
        <time>2025-05-16T12:09:24Z</time>
      </trkpt>
      <trkpt lat="48.10174" lon="-1.72261">
        <ele>71</ele>
        <time>2025-05-16T12:09:25Z</time>
      </trkpt>
      <trkpt lat="48.10177" lon="-1.72257">
        <ele>71</ele>
        <time>2025-05-16T12:09:26Z</time>
      </trkpt>
      <trkpt lat="48.1018" lon="-1.72253">
        <ele>71</ele>
        <time>2025-05-16T12:09:27Z</time>
      </trkpt>
      <trkpt lat="48.10184" lon="-1.7225">
        <ele>71</ele>
        <time>2025-05-16T12:09:28Z</time>
      </trkpt>
      <trkpt lat="48.10188" lon="-1.72247">
        <ele>71</ele>
        <time>2025-05-16T12:09:29Z</time>
      </trkpt>
      <trkpt lat="48.10191" lon="-1.72243">
        <ele>71</ele>
        <time>2025-05-16T12:09:30Z</time>
      </trkpt>
      <trkpt lat="48.10195" lon="-1.7224">
        <ele>71</ele>
        <time>2025-05-16T12:09:31Z</time>
      </trkpt>
      <trkpt lat="48.10199" lon="-1.72238">
        <ele>71</ele>
        <time>2025-05-16T12:09:32Z</time>
      </trkpt>
      <trkpt lat="48.10202" lon="-1.72236">
        <ele>71</ele>
        <time>2025-05-16T12:09:33Z</time>
      </trkpt>
      <trkpt lat="48.10206" lon="-1.72233">
        <ele>71</ele>
        <time>2025-05-16T12:09:34Z</time>
      </trkpt>
      <trkpt lat="48.1021" lon="-1.7223">
        <ele>70</ele>
        <time>2025-05-16T12:09:35Z</time>
      </trkpt>
      <trkpt lat="48.10214" lon="-1.72228">
        <ele>70</ele>
        <time>2025-05-16T12:09:36Z</time>
      </trkpt>
      <trkpt lat="48.10218" lon="-1.72226">
        <ele>70</ele>
        <time>2025-05-16T12:09:37Z</time>
      </trkpt>
      <trkpt lat="48.10221" lon="-1.72224">
        <ele>70</ele>
        <time>2025-05-16T12:09:38Z</time>
      </trkpt>
      <trkpt lat="48.10225" lon="-1.72222">
        <ele>70</ele>
        <time>2025-05-16T12:09:39Z</time>
      </trkpt>
      <trkpt lat="48.10229" lon="-1.7222">
        <ele>70</ele>
        <time>2025-05-16T12:09:40Z</time>
      </trkpt>
      <trkpt lat="48.10233" lon="-1.72218">
        <ele>70</ele>
        <time>2025-05-16T12:09:41Z</time>
      </trkpt>
      <trkpt lat="48.10236" lon="-1.72216">
        <ele>70</ele>
        <time>2025-05-16T12:09:42Z</time>
      </trkpt>
      <trkpt lat="48.1024" lon="-1.72214">
        <ele>70</ele>
        <time>2025-05-16T12:09:43Z</time>
      </trkpt>
      <trkpt lat="48.10244" lon="-1.72211">
        <ele>70</ele>
        <time>2025-05-16T12:09:44Z</time>
      </trkpt>
      <trkpt lat="48.10247" lon="-1.72209">
        <ele>70</ele>
        <time>2025-05-16T12:09:45Z</time>
      </trkpt>
      <trkpt lat="48.1025" lon="-1.72206">
        <ele>70</ele>
        <time>2025-05-16T12:09:46Z</time>
      </trkpt>
      <trkpt lat="48.10254" lon="-1.72204">
        <ele>70</ele>
        <time>2025-05-16T12:09:47Z</time>
      </trkpt>
      <trkpt lat="48.10257" lon="-1.72201">
        <ele>70</ele>
        <time>2025-05-16T12:09:48Z</time>
      </trkpt>
      <trkpt lat="48.10261" lon="-1.72199">
        <ele>71</ele>
        <time>2025-05-16T12:09:49Z</time>
      </trkpt>
      <trkpt lat="48.10265" lon="-1.72196">
        <ele>71</ele>
        <time>2025-05-16T12:09:50Z</time>
      </trkpt>
      <trkpt lat="48.10269" lon="-1.72193">
        <ele>71</ele>
        <time>2025-05-16T12:09:51Z</time>
      </trkpt>
      <trkpt lat="48.10273" lon="-1.7219">
        <ele>70</ele>
        <time>2025-05-16T12:09:52Z</time>
      </trkpt>
      <trkpt lat="48.10276" lon="-1.72188">
        <ele>70</ele>
        <time>2025-05-16T12:09:53Z</time>
      </trkpt>
      <trkpt lat="48.10279" lon="-1.72185">
        <ele>71</ele>
        <time>2025-05-16T12:09:54Z</time>
      </trkpt>
      <trkpt lat="48.10282" lon="-1.72182">
        <ele>71</ele>
        <time>2025-05-16T12:09:55Z</time>
      </trkpt>
      <trkpt lat="48.10285" lon="-1.72178">
        <ele>70</ele>
        <time>2025-05-16T12:09:56Z</time>
      </trkpt>
      <trkpt lat="48.10288" lon="-1.72174">
        <ele>71</ele>
        <time>2025-05-16T12:09:57Z</time>
      </trkpt>
      <trkpt lat="48.1029" lon="-1.7217">
        <ele>71</ele>
        <time>2025-05-16T12:09:58Z</time>
      </trkpt>
      <trkpt lat="48.10292" lon="-1.72166">
        <ele>71</ele>
        <time>2025-05-16T12:09:59Z</time>
      </trkpt>
      <trkpt lat="48.10295" lon="-1.72162">
        <ele>71</ele>
        <time>2025-05-16T12:10:00Z</time>
      </trkpt>
      <trkpt lat="48.10297" lon="-1.72158">
        <ele>71</ele>
        <time>2025-05-16T12:10:01Z</time>
      </trkpt>
      <trkpt lat="48.10299" lon="-1.72153">
        <ele>70</ele>
        <time>2025-05-16T12:10:02Z</time>
      </trkpt>
      <trkpt lat="48.10302" lon="-1.72149">
        <ele>70</ele>
        <time>2025-05-16T12:10:03Z</time>
      </trkpt>
      <trkpt lat="48.10303" lon="-1.72144">
        <ele>71</ele>
        <time>2025-05-16T12:10:04Z</time>
      </trkpt>
      <trkpt lat="48.10305" lon="-1.7214">
        <ele>71</ele>
        <time>2025-05-16T12:10:05Z</time>
      </trkpt>
      <trkpt lat="48.10306" lon="-1.72134">
        <ele>71</ele>
        <time>2025-05-16T12:10:06Z</time>
      </trkpt>
      <trkpt lat="48.10307" lon="-1.72129">
        <ele>71</ele>
        <time>2025-05-16T12:10:07Z</time>
      </trkpt>
      <trkpt lat="48.10308" lon="-1.72124">
        <ele>71</ele>
        <time>2025-05-16T12:10:08Z</time>
      </trkpt>
      <trkpt lat="48.10309" lon="-1.72119">
        <ele>72</ele>
        <time>2025-05-16T12:10:09Z</time>
      </trkpt>
      <trkpt lat="48.1031" lon="-1.72114">
        <ele>72</ele>
        <time>2025-05-16T12:10:10Z</time>
      </trkpt>
      <trkpt lat="48.10312" lon="-1.72109">
        <ele>72</ele>
        <time>2025-05-16T12:10:11Z</time>
      </trkpt>
      <trkpt lat="48.10314" lon="-1.72104">
        <ele>72</ele>
        <time>2025-05-16T12:10:12Z</time>
      </trkpt>
      <trkpt lat="48.10315" lon="-1.72099">
        <ele>72</ele>
        <time>2025-05-16T12:10:13Z</time>
      </trkpt>
      <trkpt lat="48.10317" lon="-1.72093">
        <ele>72</ele>
        <time>2025-05-16T12:10:14Z</time>
      </trkpt>
      <trkpt lat="48.10319" lon="-1.72089">
        <ele>72</ele>
        <time>2025-05-16T12:10:15Z</time>
      </trkpt>
      <trkpt lat="48.10321" lon="-1.72083">
        <ele>72</ele>
        <time>2025-05-16T12:10:16Z</time>
      </trkpt>
      <trkpt lat="48.10323" lon="-1.72078">
        <ele>72</ele>
        <time>2025-05-16T12:10:17Z</time>
      </trkpt>
      <trkpt lat="48.10324" lon="-1.72072">
        <ele>71</ele>
        <time>2025-05-16T12:10:18Z</time>
      </trkpt>
      <trkpt lat="48.10325" lon="-1.72066">
        <ele>71</ele>
        <time>2025-05-16T12:10:19Z</time>
      </trkpt>
      <trkpt lat="48.10327" lon="-1.72061">
        <ele>71</ele>
        <time>2025-05-16T12:10:20Z</time>
      </trkpt>
      <trkpt lat="48.10329" lon="-1.72056">
        <ele>71</ele>
        <time>2025-05-16T12:10:21Z</time>
      </trkpt>
      <trkpt lat="48.1033" lon="-1.7205">
        <ele>72</ele>
        <time>2025-05-16T12:10:22Z</time>
      </trkpt>
      <trkpt lat="48.10332" lon="-1.72045">
        <ele>72</ele>
        <time>2025-05-16T12:10:23Z</time>
      </trkpt>
      <trkpt lat="48.10333" lon="-1.7204">
        <ele>72</ele>
        <time>2025-05-16T12:10:24Z</time>
      </trkpt>
      <trkpt lat="48.10335" lon="-1.72034">
        <ele>72</ele>
        <time>2025-05-16T12:10:25Z</time>
      </trkpt>
      <trkpt lat="48.10337" lon="-1.72029">
        <ele>72</ele>
        <time>2025-05-16T12:10:26Z</time>
      </trkpt>
      <trkpt lat="48.10338" lon="-1.72024">
        <ele>72</ele>
        <time>2025-05-16T12:10:27Z</time>
      </trkpt>
      <trkpt lat="48.10339" lon="-1.72019">
        <ele>72</ele>
        <time>2025-05-16T12:10:28Z</time>
      </trkpt>
      <trkpt lat="48.1034" lon="-1.72014">
        <ele>72</ele>
        <time>2025-05-16T12:10:29Z</time>
      </trkpt>
      <trkpt lat="48.10342" lon="-1.72008">
        <ele>72</ele>
        <time>2025-05-16T12:10:30Z</time>
      </trkpt>
      <trkpt lat="48.10343" lon="-1.72003">
        <ele>72</ele>
        <time>2025-05-16T12:10:31Z</time>
      </trkpt>
      <trkpt lat="48.10344" lon="-1.71998">
        <ele>72</ele>
        <time>2025-05-16T12:10:32Z</time>
      </trkpt>
      <trkpt lat="48.10345" lon="-1.71993">
        <ele>72</ele>
        <time>2025-05-16T12:10:33Z</time>
      </trkpt>
      <trkpt lat="48.10346" lon="-1.71988">
        <ele>72</ele>
        <time>2025-05-16T12:10:34Z</time>
      </trkpt>
      <trkpt lat="48.10348" lon="-1.71982">
        <ele>72</ele>
        <time>2025-05-16T12:10:35Z</time>
      </trkpt>
      <trkpt lat="48.10349" lon="-1.71977">
        <ele>72</ele>
        <time>2025-05-16T12:10:36Z</time>
      </trkpt>
      <trkpt lat="48.1035" lon="-1.71972">
        <ele>72</ele>
        <time>2025-05-16T12:10:37Z</time>
      </trkpt>
      <trkpt lat="48.10351" lon="-1.71966">
        <ele>72</ele>
        <time>2025-05-16T12:10:38Z</time>
      </trkpt>
      <trkpt lat="48.10353" lon="-1.71962">
        <ele>72</ele>
        <time>2025-05-16T12:10:39Z</time>
      </trkpt>
      <trkpt lat="48.10354" lon="-1.71956">
        <ele>72</ele>
        <time>2025-05-16T12:10:40Z</time>
      </trkpt>
      <trkpt lat="48.10356" lon="-1.71951">
        <ele>73</ele>
        <time>2025-05-16T12:10:41Z</time>
      </trkpt>
      <trkpt lat="48.10357" lon="-1.71946">
        <ele>73</ele>
        <time>2025-05-16T12:10:42Z</time>
      </trkpt>
      <trkpt lat="48.10359" lon="-1.7194">
        <ele>73</ele>
        <time>2025-05-16T12:10:43Z</time>
      </trkpt>
      <trkpt lat="48.1036" lon="-1.71935">
        <ele>73</ele>
        <time>2025-05-16T12:10:44Z</time>
      </trkpt>
      <trkpt lat="48.10361" lon="-1.7193">
        <ele>73</ele>
        <time>2025-05-16T12:10:45Z</time>
      </trkpt>
      <trkpt lat="48.10363" lon="-1.71925">
        <ele>74</ele>
        <time>2025-05-16T12:10:46Z</time>
      </trkpt>
      <trkpt lat="48.10365" lon="-1.7192">
        <ele>73</ele>
        <time>2025-05-16T12:10:47Z</time>
      </trkpt>
      <trkpt lat="48.10367" lon="-1.71915">
        <ele>73</ele>
        <time>2025-05-16T12:10:48Z</time>
      </trkpt>
      <trkpt lat="48.10369" lon="-1.7191">
        <ele>73</ele>
        <time>2025-05-16T12:10:49Z</time>
      </trkpt>
      <trkpt lat="48.10371" lon="-1.71905">
        <ele>72</ele>
        <time>2025-05-16T12:10:50Z</time>
      </trkpt>
      <trkpt lat="48.10373" lon="-1.719">
        <ele>72</ele>
        <time>2025-05-16T12:10:51Z</time>
      </trkpt>
      <trkpt lat="48.10376" lon="-1.71895">
        <ele>72</ele>
        <time>2025-05-16T12:10:52Z</time>
      </trkpt>
      <trkpt lat="48.10379" lon="-1.71889">
        <ele>72</ele>
        <time>2025-05-16T12:10:53Z</time>
      </trkpt>
      <trkpt lat="48.10382" lon="-1.71883">
        <ele>72</ele>
        <time>2025-05-16T12:10:54Z</time>
      </trkpt>
      <trkpt lat="48.10385" lon="-1.71878">
        <ele>72</ele>
        <time>2025-05-16T12:10:55Z</time>
      </trkpt>
      <trkpt lat="48.10388" lon="-1.71872">
        <ele>72</ele>
        <time>2025-05-16T12:10:56Z</time>
      </trkpt>
      <trkpt lat="48.10392" lon="-1.71867">
        <ele>73</ele>
        <time>2025-05-16T12:10:57Z</time>
      </trkpt>
      <trkpt lat="48.10395" lon="-1.71862">
        <ele>72</ele>
        <time>2025-05-16T12:10:58Z</time>
      </trkpt>
      <trkpt lat="48.10397" lon="-1.71857">
        <ele>72</ele>
        <time>2025-05-16T12:10:59Z</time>
      </trkpt>
      <trkpt lat="48.104" lon="-1.71852">
        <ele>72</ele>
        <time>2025-05-16T12:11:00Z</time>
      </trkpt>
      <trkpt lat="48.10403" lon="-1.71848">
        <ele>72</ele>
        <time>2025-05-16T12:11:01Z</time>
      </trkpt>
      <trkpt lat="48.10406" lon="-1.71843">
        <ele>72</ele>
        <time>2025-05-16T12:11:02Z</time>
      </trkpt>
      <trkpt lat="48.10409" lon="-1.71839">
        <ele>72</ele>
        <time>2025-05-16T12:11:03Z</time>
      </trkpt>
      <trkpt lat="48.10412" lon="-1.71835">
        <ele>72</ele>
        <time>2025-05-16T12:11:04Z</time>
      </trkpt>
      <trkpt lat="48.10416" lon="-1.71831">
        <ele>72</ele>
        <time>2025-05-16T12:11:05Z</time>
      </trkpt>
      <trkpt lat="48.10419" lon="-1.71827">
        <ele>71</ele>
        <time>2025-05-16T12:11:06Z</time>
      </trkpt>
      <trkpt lat="48.10422" lon="-1.71823">
        <ele>71</ele>
        <time>2025-05-16T12:11:07Z</time>
      </trkpt>
      <trkpt lat="48.10425" lon="-1.71819">
        <ele>71</ele>
        <time>2025-05-16T12:11:08Z</time>
      </trkpt>
      <trkpt lat="48.10428" lon="-1.71816">
        <ele>71</ele>
        <time>2025-05-16T12:11:09Z</time>
      </trkpt>
      <trkpt lat="48.10432" lon="-1.71813">
        <ele>71</ele>
        <time>2025-05-16T12:11:10Z</time>
      </trkpt>
      <trkpt lat="48.10435" lon="-1.71809">
        <ele>72</ele>
        <time>2025-05-16T12:11:11Z</time>
      </trkpt>
      <trkpt lat="48.10439" lon="-1.71806">
        <ele>72</ele>
        <time>2025-05-16T12:11:12Z</time>
      </trkpt>
      <trkpt lat="48.10442" lon="-1.71803">
        <ele>72</ele>
        <time>2025-05-16T12:11:13Z</time>
      </trkpt>
      <trkpt lat="48.10446" lon="-1.718">
        <ele>72</ele>
        <time>2025-05-16T12:11:14Z</time>
      </trkpt>
      <trkpt lat="48.10449" lon="-1.71797">
        <ele>72</ele>
        <time>2025-05-16T12:11:15Z</time>
      </trkpt>
      <trkpt lat="48.10453" lon="-1.71793">
        <ele>72</ele>
        <time>2025-05-16T12:11:16Z</time>
      </trkpt>
      <trkpt lat="48.10456" lon="-1.71789">
        <ele>72</ele>
        <time>2025-05-16T12:11:17Z</time>
      </trkpt>
      <trkpt lat="48.10459" lon="-1.71785">
        <ele>72</ele>
        <time>2025-05-16T12:11:18Z</time>
      </trkpt>
      <trkpt lat="48.10462" lon="-1.7178">
        <ele>72</ele>
        <time>2025-05-16T12:11:19Z</time>
      </trkpt>
      <trkpt lat="48.10465" lon="-1.71776">
        <ele>72</ele>
        <time>2025-05-16T12:11:20Z</time>
      </trkpt>
      <trkpt lat="48.10468" lon="-1.71772">
        <ele>72</ele>
        <time>2025-05-16T12:11:21Z</time>
      </trkpt>
      <trkpt lat="48.10471" lon="-1.71768">
        <ele>72</ele>
        <time>2025-05-16T12:11:22Z</time>
      </trkpt>
      <trkpt lat="48.10474" lon="-1.71764">
        <ele>71</ele>
        <time>2025-05-16T12:11:23Z</time>
      </trkpt>
      <trkpt lat="48.10477" lon="-1.7176">
        <ele>72</ele>
        <time>2025-05-16T12:11:24Z</time>
      </trkpt>
      <trkpt lat="48.1048" lon="-1.71756">
        <ele>72</ele>
        <time>2025-05-16T12:11:25Z</time>
      </trkpt>
      <trkpt lat="48.10483" lon="-1.71752">
        <ele>72</ele>
        <time>2025-05-16T12:11:26Z</time>
      </trkpt>
      <trkpt lat="48.10486" lon="-1.71748">
        <ele>72</ele>
        <time>2025-05-16T12:11:27Z</time>
      </trkpt>
      <trkpt lat="48.10489" lon="-1.71745">
        <ele>72</ele>
        <time>2025-05-16T12:11:28Z</time>
      </trkpt>
      <trkpt lat="48.10492" lon="-1.71741">
        <ele>73</ele>
        <time>2025-05-16T12:11:29Z</time>
      </trkpt>
      <trkpt lat="48.10495" lon="-1.71738">
        <ele>73</ele>
        <time>2025-05-16T12:11:30Z</time>
      </trkpt>
      <trkpt lat="48.10498" lon="-1.71734">
        <ele>73</ele>
        <time>2025-05-16T12:11:31Z</time>
      </trkpt>
      <trkpt lat="48.10501" lon="-1.7173">
        <ele>73</ele>
        <time>2025-05-16T12:11:32Z</time>
      </trkpt>
      <trkpt lat="48.10504" lon="-1.71726">
        <ele>74</ele>
        <time>2025-05-16T12:11:33Z</time>
      </trkpt>
      <trkpt lat="48.10507" lon="-1.71721">
        <ele>74</ele>
        <time>2025-05-16T12:11:34Z</time>
      </trkpt>
      <trkpt lat="48.10509" lon="-1.71717">
        <ele>74</ele>
        <time>2025-05-16T12:11:35Z</time>
      </trkpt>
      <trkpt lat="48.10511" lon="-1.71713">
        <ele>74</ele>
        <time>2025-05-16T12:11:36Z</time>
      </trkpt>
      <trkpt lat="48.10514" lon="-1.7171">
        <ele>75</ele>
        <time>2025-05-16T12:11:37Z</time>
      </trkpt>
      <trkpt lat="48.10516" lon="-1.71706">
        <ele>75</ele>
        <time>2025-05-16T12:11:38Z</time>
      </trkpt>
      <trkpt lat="48.10518" lon="-1.71702">
        <ele>74</ele>
        <time>2025-05-16T12:11:39Z</time>
      </trkpt>
      <trkpt lat="48.10521" lon="-1.71698">
        <ele>73</ele>
        <time>2025-05-16T12:11:40Z</time>
      </trkpt>
      <trkpt lat="48.10523" lon="-1.71694">
        <ele>73</ele>
        <time>2025-05-16T12:11:41Z</time>
      </trkpt>
      <trkpt lat="48.10526" lon="-1.7169">
        <ele>72</ele>
        <time>2025-05-16T12:11:42Z</time>
      </trkpt>
      <trkpt lat="48.10529" lon="-1.71686">
        <ele>72</ele>
        <time>2025-05-16T12:11:43Z</time>
      </trkpt>
      <trkpt lat="48.10531" lon="-1.71682">
        <ele>71</ele>
        <time>2025-05-16T12:11:44Z</time>
      </trkpt>
      <trkpt lat="48.10533" lon="-1.71679">
        <ele>72</ele>
        <time>2025-05-16T12:11:45Z</time>
      </trkpt>
      <trkpt lat="48.10535" lon="-1.71675">
        <ele>73</ele>
        <time>2025-05-16T12:11:46Z</time>
      </trkpt>
      <trkpt lat="48.10537" lon="-1.71671">
        <ele>73</ele>
        <time>2025-05-16T12:11:47Z</time>
      </trkpt>
      <trkpt lat="48.1054" lon="-1.71667">
        <ele>73</ele>
        <time>2025-05-16T12:11:48Z</time>
      </trkpt>
      <trkpt lat="48.10542" lon="-1.71664">
        <ele>73</ele>
        <time>2025-05-16T12:11:49Z</time>
      </trkpt>
      <trkpt lat="48.10544" lon="-1.7166">
        <ele>73</ele>
        <time>2025-05-16T12:11:50Z</time>
      </trkpt>
      <trkpt lat="48.10547" lon="-1.71657">
        <ele>74</ele>
        <time>2025-05-16T12:11:51Z</time>
      </trkpt>
      <trkpt lat="48.10549" lon="-1.71654">
        <ele>75</ele>
        <time>2025-05-16T12:11:52Z</time>
      </trkpt>
      <trkpt lat="48.10551" lon="-1.71651">
        <ele>75</ele>
        <time>2025-05-16T12:11:53Z</time>
      </trkpt>
      <trkpt lat="48.10553" lon="-1.71648">
        <ele>75</ele>
        <time>2025-05-16T12:11:54Z</time>
      </trkpt>
      <trkpt lat="48.10555" lon="-1.71646">
        <ele>74</ele>
        <time>2025-05-16T12:11:55Z</time>
      </trkpt>
      <trkpt lat="48.10558" lon="-1.71642">
        <ele>74</ele>
        <time>2025-05-16T12:11:56Z</time>
      </trkpt>
      <trkpt lat="48.1056" lon="-1.71639">
        <ele>75</ele>
        <time>2025-05-16T12:11:57Z</time>
      </trkpt>
      <trkpt lat="48.10563" lon="-1.71635">
        <ele>74</ele>
        <time>2025-05-16T12:11:58Z</time>
      </trkpt>
      <trkpt lat="48.10564" lon="-1.71631">
        <ele>74</ele>
        <time>2025-05-16T12:11:59Z</time>
      </trkpt>
      <trkpt lat="48.10566" lon="-1.71628">
        <ele>74</ele>
        <time>2025-05-16T12:12:00Z</time>
      </trkpt>
      <trkpt lat="48.10568" lon="-1.71624">
        <ele>74</ele>
        <time>2025-05-16T12:12:01Z</time>
      </trkpt>
      <trkpt lat="48.10571" lon="-1.7162">
        <ele>74</ele>
        <time>2025-05-16T12:12:02Z</time>
      </trkpt>
      <trkpt lat="48.10573" lon="-1.71616">
        <ele>74</ele>
        <time>2025-05-16T12:12:03Z</time>
      </trkpt>
      <trkpt lat="48.10575" lon="-1.71613">
        <ele>74</ele>
        <time>2025-05-16T12:12:04Z</time>
      </trkpt>
      <trkpt lat="48.10577" lon="-1.71609">
        <ele>74</ele>
        <time>2025-05-16T12:12:05Z</time>
      </trkpt>
      <trkpt lat="48.10579" lon="-1.71605">
        <ele>74</ele>
        <time>2025-05-16T12:12:06Z</time>
      </trkpt>
      <trkpt lat="48.1058" lon="-1.716">
        <ele>74</ele>
        <time>2025-05-16T12:12:07Z</time>
      </trkpt>
      <trkpt lat="48.10582" lon="-1.71596">
        <ele>74</ele>
        <time>2025-05-16T12:12:08Z</time>
      </trkpt>
      <trkpt lat="48.10584" lon="-1.71592">
        <ele>74</ele>
        <time>2025-05-16T12:12:09Z</time>
      </trkpt>
      <trkpt lat="48.10585" lon="-1.71588">
        <ele>74</ele>
        <time>2025-05-16T12:12:10Z</time>
      </trkpt>
      <trkpt lat="48.10586" lon="-1.71585">
        <ele>74</ele>
        <time>2025-05-16T12:12:11Z</time>
      </trkpt>
      <trkpt lat="48.10587" lon="-1.71581">
        <ele>74</ele>
        <time>2025-05-16T12:12:12Z</time>
      </trkpt>
      <trkpt lat="48.10588" lon="-1.71579">
        <ele>74</ele>
        <time>2025-05-16T12:12:13Z</time>
      </trkpt>
      <trkpt lat="48.10589" lon="-1.71576">
        <ele>75</ele>
        <time>2025-05-16T12:12:14Z</time>
      </trkpt>
      <trkpt lat="48.1059" lon="-1.71573">
        <ele>75</ele>
        <time>2025-05-16T12:12:15Z</time>
      </trkpt>
      <trkpt lat="48.10591" lon="-1.71571">
        <ele>75</ele>
        <time>2025-05-16T12:12:16Z</time>
      </trkpt>
      <trkpt lat="48.10593" lon="-1.71568">
        <ele>75</ele>
        <time>2025-05-16T12:12:17Z</time>
      </trkpt>
      <trkpt lat="48.10595" lon="-1.71566">
        <ele>75</ele>
        <time>2025-05-16T12:12:18Z</time>
      </trkpt>
      <trkpt lat="48.10596" lon="-1.71562">
        <ele>75</ele>
        <time>2025-05-16T12:12:19Z</time>
      </trkpt>
      <trkpt lat="48.10598" lon="-1.71559">
        <ele>74</ele>
        <time>2025-05-16T12:12:20Z</time>
      </trkpt>
      <trkpt lat="48.106" lon="-1.71554">
        <ele>74</ele>
        <time>2025-05-16T12:12:21Z</time>
      </trkpt>
      <trkpt lat="48.10602" lon="-1.7155">
        <ele>75</ele>
        <time>2025-05-16T12:12:22Z</time>
      </trkpt>
      <trkpt lat="48.10604" lon="-1.71545">
        <ele>74</ele>
        <time>2025-05-16T12:12:23Z</time>
      </trkpt>
      <trkpt lat="48.10606" lon="-1.71539">
        <ele>74</ele>
        <time>2025-05-16T12:12:24Z</time>
      </trkpt>
      <trkpt lat="48.10608" lon="-1.71534">
        <ele>74</ele>
        <time>2025-05-16T12:12:25Z</time>
      </trkpt>
      <trkpt lat="48.1061" lon="-1.71528">
        <ele>74</ele>
        <time>2025-05-16T12:12:26Z</time>
      </trkpt>
      <trkpt lat="48.10612" lon="-1.71523">
        <ele>74</ele>
        <time>2025-05-16T12:12:27Z</time>
      </trkpt>
      <trkpt lat="48.10615" lon="-1.71517">
        <ele>74</ele>
        <time>2025-05-16T12:12:28Z</time>
      </trkpt>
      <trkpt lat="48.10616" lon="-1.71511">
        <ele>74</ele>
        <time>2025-05-16T12:12:29Z</time>
      </trkpt>
      <trkpt lat="48.10617" lon="-1.71505">
        <ele>74</ele>
        <time>2025-05-16T12:12:30Z</time>
      </trkpt>
      <trkpt lat="48.10618" lon="-1.715">
        <ele>74</ele>
        <time>2025-05-16T12:12:31Z</time>
      </trkpt>
      <trkpt lat="48.10619" lon="-1.71494">
        <ele>75</ele>
        <time>2025-05-16T12:12:32Z</time>
      </trkpt>
      <trkpt lat="48.1062" lon="-1.71488">
        <ele>75</ele>
        <time>2025-05-16T12:12:33Z</time>
      </trkpt>
      <trkpt lat="48.1062" lon="-1.71482">
        <ele>75</ele>
        <time>2025-05-16T12:12:34Z</time>
      </trkpt>
      <trkpt lat="48.10621" lon="-1.71476">
        <ele>75</ele>
        <time>2025-05-16T12:12:35Z</time>
      </trkpt>
      <trkpt lat="48.10621" lon="-1.71471">
        <ele>76</ele>
        <time>2025-05-16T12:12:36Z</time>
      </trkpt>
      <trkpt lat="48.1062" lon="-1.71466">
        <ele>76</ele>
        <time>2025-05-16T12:12:37Z</time>
      </trkpt>
      <trkpt lat="48.1062" lon="-1.71461">
        <ele>76</ele>
        <time>2025-05-16T12:12:38Z</time>
      </trkpt>
      <trkpt lat="48.1062" lon="-1.71455">
        <ele>75</ele>
        <time>2025-05-16T12:12:39Z</time>
      </trkpt>
      <trkpt lat="48.10621" lon="-1.71449">
        <ele>75</ele>
        <time>2025-05-16T12:12:40Z</time>
      </trkpt>
      <trkpt lat="48.10621" lon="-1.71443">
        <ele>75</ele>
        <time>2025-05-16T12:12:41Z</time>
      </trkpt>
      <trkpt lat="48.10622" lon="-1.71437">
        <ele>75</ele>
        <time>2025-05-16T12:12:42Z</time>
      </trkpt>
      <trkpt lat="48.10622" lon="-1.71431">
        <ele>75</ele>
        <time>2025-05-16T12:12:43Z</time>
      </trkpt>
      <trkpt lat="48.10622" lon="-1.71425">
        <ele>75</ele>
        <time>2025-05-16T12:12:44Z</time>
      </trkpt>
      <trkpt lat="48.10622" lon="-1.71419">
        <ele>76</ele>
        <time>2025-05-16T12:12:45Z</time>
      </trkpt>
      <trkpt lat="48.10622" lon="-1.71413">
        <ele>76</ele>
        <time>2025-05-16T12:12:46Z</time>
      </trkpt>
      <trkpt lat="48.10622" lon="-1.71408">
        <ele>76</ele>
        <time>2025-05-16T12:12:47Z</time>
      </trkpt>
      <trkpt lat="48.10622" lon="-1.71402">
        <ele>76</ele>
        <time>2025-05-16T12:12:48Z</time>
      </trkpt>
      <trkpt lat="48.10623" lon="-1.71396">
        <ele>77</ele>
        <time>2025-05-16T12:12:49Z</time>
      </trkpt>
      <trkpt lat="48.10623" lon="-1.7139">
        <ele>77</ele>
        <time>2025-05-16T12:12:50Z</time>
      </trkpt>
      <trkpt lat="48.10623" lon="-1.71385">
        <ele>77</ele>
        <time>2025-05-16T12:12:51Z</time>
      </trkpt>
      <trkpt lat="48.10623" lon="-1.71379">
        <ele>76</ele>
        <time>2025-05-16T12:12:52Z</time>
      </trkpt>
      <trkpt lat="48.10623" lon="-1.71373">
        <ele>75</ele>
        <time>2025-05-16T12:12:53Z</time>
      </trkpt>
      <trkpt lat="48.10623" lon="-1.71368">
        <ele>75</ele>
        <time>2025-05-16T12:12:54Z</time>
      </trkpt>
      <trkpt lat="48.10623" lon="-1.71362">
        <ele>75</ele>
        <time>2025-05-16T12:12:55Z</time>
      </trkpt>
      <trkpt lat="48.10623" lon="-1.71357">
        <ele>75</ele>
        <time>2025-05-16T12:12:56Z</time>
      </trkpt>
      <trkpt lat="48.10623" lon="-1.71351">
        <ele>74</ele>
        <time>2025-05-16T12:12:57Z</time>
      </trkpt>
      <trkpt lat="48.10623" lon="-1.71346">
        <ele>74</ele>
        <time>2025-05-16T12:12:58Z</time>
      </trkpt>
      <trkpt lat="48.10624" lon="-1.7134">
        <ele>74</ele>
        <time>2025-05-16T12:12:59Z</time>
      </trkpt>
      <trkpt lat="48.10624" lon="-1.71334">
        <ele>74</ele>
        <time>2025-05-16T12:13:00Z</time>
      </trkpt>
      <trkpt lat="48.10624" lon="-1.71329">
        <ele>74</ele>
        <time>2025-05-16T12:13:01Z</time>
      </trkpt>
      <trkpt lat="48.10625" lon="-1.71323">
        <ele>74</ele>
        <time>2025-05-16T12:13:02Z</time>
      </trkpt>
      <trkpt lat="48.10625" lon="-1.71317">
        <ele>74</ele>
        <time>2025-05-16T12:13:03Z</time>
      </trkpt>
      <trkpt lat="48.10625" lon="-1.71311">
        <ele>74</ele>
        <time>2025-05-16T12:13:04Z</time>
      </trkpt>
      <trkpt lat="48.10624" lon="-1.71306">
        <ele>74</ele>
        <time>2025-05-16T12:13:05Z</time>
      </trkpt>
      <trkpt lat="48.10624" lon="-1.713">
        <ele>74</ele>
        <time>2025-05-16T12:13:06Z</time>
      </trkpt>
      <trkpt lat="48.10624" lon="-1.71295">
        <ele>74</ele>
        <time>2025-05-16T12:13:07Z</time>
      </trkpt>
      <trkpt lat="48.10624" lon="-1.7129">
        <ele>74</ele>
        <time>2025-05-16T12:13:08Z</time>
      </trkpt>
      <trkpt lat="48.10624" lon="-1.71286">
        <ele>74</ele>
        <time>2025-05-16T12:13:09Z</time>
      </trkpt>
      <trkpt lat="48.10624" lon="-1.71282">
        <ele>74</ele>
        <time>2025-05-16T12:13:10Z</time>
      </trkpt>
      <trkpt lat="48.10624" lon="-1.71279">
        <ele>74</ele>
        <time>2025-05-16T12:13:11Z</time>
      </trkpt>
      <trkpt lat="48.10625" lon="-1.71275">
        <ele>74</ele>
        <time>2025-05-16T12:13:12Z</time>
      </trkpt>
      <trkpt lat="48.10625" lon="-1.71271">
        <ele>73</ele>
        <time>2025-05-16T12:13:13Z</time>
      </trkpt>
      <trkpt lat="48.10625" lon="-1.71268">
        <ele>73</ele>
        <time>2025-05-16T12:13:14Z</time>
      </trkpt>
      <trkpt lat="48.10625" lon="-1.71265">
        <ele>73</ele>
        <time>2025-05-16T12:13:15Z</time>
      </trkpt>
      <trkpt lat="48.10625" lon="-1.71262">
        <ele>73</ele>
        <time>2025-05-16T12:13:16Z</time>
      </trkpt>
      <trkpt lat="48.10625" lon="-1.71259">
        <ele>73</ele>
        <time>2025-05-16T12:13:17Z</time>
      </trkpt>
      <trkpt lat="48.10626" lon="-1.71256">
        <ele>73</ele>
        <time>2025-05-16T12:13:18Z</time>
      </trkpt>
      <trkpt lat="48.10626" lon="-1.71253">
        <ele>73</ele>
        <time>2025-05-16T12:13:19Z</time>
      </trkpt>
      <trkpt lat="48.10626" lon="-1.71249">
        <ele>73</ele>
        <time>2025-05-16T12:13:20Z</time>
      </trkpt>
      <trkpt lat="48.10625" lon="-1.71244">
        <ele>74</ele>
        <time>2025-05-16T12:13:21Z</time>
      </trkpt>
      <trkpt lat="48.10625" lon="-1.7124">
        <ele>74</ele>
        <time>2025-05-16T12:13:22Z</time>
      </trkpt>
      <trkpt lat="48.10625" lon="-1.71235">
        <ele>74</ele>
        <time>2025-05-16T12:13:23Z</time>
      </trkpt>
      <trkpt lat="48.10625" lon="-1.71231">
        <ele>74</ele>
        <time>2025-05-16T12:13:24Z</time>
      </trkpt>
      <trkpt lat="48.10626" lon="-1.71226">
        <ele>73</ele>
        <time>2025-05-16T12:13:25Z</time>
      </trkpt>
      <trkpt lat="48.10626" lon="-1.71221">
        <ele>73</ele>
        <time>2025-05-16T12:13:26Z</time>
      </trkpt>
      <trkpt lat="48.10627" lon="-1.71216">
        <ele>73</ele>
        <time>2025-05-16T12:13:27Z</time>
      </trkpt>
      <trkpt lat="48.10627" lon="-1.71211">
        <ele>73</ele>
        <time>2025-05-16T12:13:28Z</time>
      </trkpt>
      <trkpt lat="48.10627" lon="-1.71206">
        <ele>73</ele>
        <time>2025-05-16T12:13:29Z</time>
      </trkpt>
      <trkpt lat="48.10628" lon="-1.71201">
        <ele>74</ele>
        <time>2025-05-16T12:13:30Z</time>
      </trkpt>
      <trkpt lat="48.10628" lon="-1.71196">
        <ele>74</ele>
        <time>2025-05-16T12:13:31Z</time>
      </trkpt>
      <trkpt lat="48.10628" lon="-1.71191">
        <ele>74</ele>
        <time>2025-05-16T12:13:32Z</time>
      </trkpt>
      <trkpt lat="48.10628" lon="-1.71186">
        <ele>74</ele>
        <time>2025-05-16T12:13:33Z</time>
      </trkpt>
      <trkpt lat="48.10628" lon="-1.71181">
        <ele>74</ele>
        <time>2025-05-16T12:13:34Z</time>
      </trkpt>
      <trkpt lat="48.10628" lon="-1.71176">
        <ele>73</ele>
        <time>2025-05-16T12:13:35Z</time>
      </trkpt>
      <trkpt lat="48.10628" lon="-1.71171">
        <ele>73</ele>
        <time>2025-05-16T12:13:36Z</time>
      </trkpt>
      <trkpt lat="48.10628" lon="-1.71166">
        <ele>74</ele>
        <time>2025-05-16T12:13:37Z</time>
      </trkpt>
      <trkpt lat="48.10628" lon="-1.71161">
        <ele>74</ele>
        <time>2025-05-16T12:13:38Z</time>
      </trkpt>
      <trkpt lat="48.10628" lon="-1.71156">
        <ele>74</ele>
        <time>2025-05-16T12:13:39Z</time>
      </trkpt>
      <trkpt lat="48.10628" lon="-1.71151">
        <ele>74</ele>
        <time>2025-05-16T12:13:40Z</time>
      </trkpt>
      <trkpt lat="48.10628" lon="-1.71146">
        <ele>74</ele>
        <time>2025-05-16T12:13:41Z</time>
      </trkpt>
      <trkpt lat="48.10628" lon="-1.71142">
        <ele>74</ele>
        <time>2025-05-16T12:13:42Z</time>
      </trkpt>
      <trkpt lat="48.10628" lon="-1.71136">
        <ele>74</ele>
        <time>2025-05-16T12:13:43Z</time>
      </trkpt>
      <trkpt lat="48.10628" lon="-1.71131">
        <ele>74</ele>
        <time>2025-05-16T12:13:44Z</time>
      </trkpt>
      <trkpt lat="48.10628" lon="-1.71126">
        <ele>74</ele>
        <time>2025-05-16T12:13:45Z</time>
      </trkpt>
      <trkpt lat="48.10628" lon="-1.71121">
        <ele>74</ele>
        <time>2025-05-16T12:13:46Z</time>
      </trkpt>
      <trkpt lat="48.10628" lon="-1.71116">
        <ele>74</ele>
        <time>2025-05-16T12:13:47Z</time>
      </trkpt>
      <trkpt lat="48.10628" lon="-1.71111">
        <ele>74</ele>
        <time>2025-05-16T12:13:48Z</time>
      </trkpt>
      <trkpt lat="48.10629" lon="-1.71106">
        <ele>74</ele>
        <time>2025-05-16T12:13:49Z</time>
      </trkpt>
      <trkpt lat="48.10629" lon="-1.711">
        <ele>74</ele>
        <time>2025-05-16T12:13:50Z</time>
      </trkpt>
      <trkpt lat="48.10628" lon="-1.71095">
        <ele>73</ele>
        <time>2025-05-16T12:13:51Z</time>
      </trkpt>
      <trkpt lat="48.10629" lon="-1.71089">
        <ele>73</ele>
        <time>2025-05-16T12:13:52Z</time>
      </trkpt>
      <trkpt lat="48.10629" lon="-1.71084">
        <ele>74</ele>
        <time>2025-05-16T12:13:53Z</time>
      </trkpt>
      <trkpt lat="48.10629" lon="-1.71079">
        <ele>74</ele>
        <time>2025-05-16T12:13:54Z</time>
      </trkpt>
      <trkpt lat="48.10629" lon="-1.71074">
        <ele>74</ele>
        <time>2025-05-16T12:13:55Z</time>
      </trkpt>
      <trkpt lat="48.10629" lon="-1.7107">
        <ele>74</ele>
        <time>2025-05-16T12:13:56Z</time>
      </trkpt>
      <trkpt lat="48.10629" lon="-1.71065">
        <ele>74</ele>
        <time>2025-05-16T12:13:57Z</time>
      </trkpt>
      <trkpt lat="48.10629" lon="-1.71061">
        <ele>74</ele>
        <time>2025-05-16T12:13:58Z</time>
      </trkpt>
      <trkpt lat="48.10629" lon="-1.71058">
        <ele>74</ele>
        <time>2025-05-16T12:13:59Z</time>
      </trkpt>
      <trkpt lat="48.10629" lon="-1.71054">
        <ele>75</ele>
        <time>2025-05-16T12:14:00Z</time>
      </trkpt>
      <trkpt lat="48.10629" lon="-1.7105">
        <ele>75</ele>
        <time>2025-05-16T12:14:01Z</time>
      </trkpt>
      <trkpt lat="48.10629" lon="-1.71047">
        <ele>75</ele>
        <time>2025-05-16T12:14:02Z</time>
      </trkpt>
      <trkpt lat="48.10629" lon="-1.71044">
        <ele>74</ele>
        <time>2025-05-16T12:14:03Z</time>
      </trkpt>
      <trkpt lat="48.10629" lon="-1.71041">
        <ele>74</ele>
        <time>2025-05-16T12:14:04Z</time>
      </trkpt>
      <trkpt lat="48.10629" lon="-1.71038">
        <ele>74</ele>
        <time>2025-05-16T12:14:05Z</time>
      </trkpt>
      <trkpt lat="48.10629" lon="-1.71036">
        <ele>74</ele>
        <time>2025-05-16T12:14:06Z</time>
      </trkpt>
      <trkpt lat="48.10629" lon="-1.71033">
        <ele>74</ele>
        <time>2025-05-16T12:14:07Z</time>
      </trkpt>
      <trkpt lat="48.10629" lon="-1.7103">
        <ele>75</ele>
        <time>2025-05-16T12:14:08Z</time>
      </trkpt>
      <trkpt lat="48.10629" lon="-1.71027">
        <ele>75</ele>
        <time>2025-05-16T12:14:09Z</time>
      </trkpt>
      <trkpt lat="48.10629" lon="-1.71026">
        <ele>75</ele>
        <time>2025-05-16T12:14:10Z</time>
      </trkpt>
      <trkpt lat="48.10629" lon="-1.71024">
        <ele>75</ele>
        <time>2025-05-16T12:14:11Z</time>
      </trkpt>
      <trkpt lat="48.10629" lon="-1.71024">
        <ele>75</ele>
        <time>2025-05-16T12:14:12Z</time>
      </trkpt>
      <trkpt lat="48.10629" lon="-1.71024">
        <ele>75</ele>
        <time>2025-05-16T12:14:13Z</time>
      </trkpt>
      <trkpt lat="48.10629" lon="-1.71024">
        <ele>75</ele>
        <time>2025-05-16T12:14:14Z</time>
      </trkpt>
      <trkpt lat="48.10629" lon="-1.71024">
        <ele>75</ele>
        <time>2025-05-16T12:14:15Z</time>
      </trkpt>
      <trkpt lat="48.10629" lon="-1.71024">
        <ele>75</ele>
        <time>2025-05-16T12:14:16Z</time>
      </trkpt>
      <trkpt lat="48.10629" lon="-1.71024">
        <ele>75</ele>
        <time>2025-05-16T12:14:17Z</time>
      </trkpt>
      <trkpt lat="48.10629" lon="-1.71024">
        <ele>75</ele>
        <time>2025-05-16T12:14:18Z</time>
      </trkpt>
      <trkpt lat="48.10629" lon="-1.71024">
        <ele>75</ele>
        <time>2025-05-16T12:14:19Z</time>
      </trkpt>
      <trkpt lat="48.10629" lon="-1.71024">
        <ele>75</ele>
        <time>2025-05-16T12:14:20Z</time>
      </trkpt>
      <trkpt lat="48.10629" lon="-1.71024">
        <ele>75</ele>
        <time>2025-05-16T12:14:21Z</time>
      </trkpt>
      <trkpt lat="48.10629" lon="-1.71024">
        <ele>75</ele>
        <time>2025-05-16T12:14:22Z</time>
      </trkpt>
      <trkpt lat="48.10629" lon="-1.71024">
        <ele>75</ele>
        <time>2025-05-16T12:14:23Z</time>
      </trkpt>
      <trkpt lat="48.10629" lon="-1.71024">
        <ele>75</ele>
        <time>2025-05-16T12:14:24Z</time>
      </trkpt>
      <trkpt lat="48.10629" lon="-1.71024">
        <ele>75</ele>
        <time>2025-05-16T12:14:25Z</time>
      </trkpt>
      <trkpt lat="48.10629" lon="-1.71024">
        <ele>75</ele>
        <time>2025-05-16T12:14:26Z</time>
      </trkpt>
      <trkpt lat="48.10629" lon="-1.71024">
        <ele>75</ele>
        <time>2025-05-16T12:14:27Z</time>
      </trkpt>
      <trkpt lat="48.10629" lon="-1.71024">
        <ele>75</ele>
        <time>2025-05-16T12:14:28Z</time>
      </trkpt>
      <trkpt lat="48.10629" lon="-1.71024">
        <ele>75</ele>
        <time>2025-05-16T12:14:29Z</time>
      </trkpt>
      <trkpt lat="48.10629" lon="-1.71024">
        <ele>75</ele>
        <time>2025-05-16T12:14:30Z</time>
      </trkpt>
      <trkpt lat="48.10629" lon="-1.71024">
        <ele>75</ele>
        <time>2025-05-16T12:14:31Z</time>
      </trkpt>
      <trkpt lat="48.10629" lon="-1.71024">
        <ele>75</ele>
        <time>2025-05-16T12:14:32Z</time>
      </trkpt>
      <trkpt lat="48.10629" lon="-1.71024">
        <ele>75</ele>
        <time>2025-05-16T12:14:33Z</time>
      </trkpt>
      <trkpt lat="48.10629" lon="-1.71024">
        <ele>75</ele>
        <time>2025-05-16T12:14:34Z</time>
      </trkpt>
      <trkpt lat="48.10629" lon="-1.71024">
        <ele>75</ele>
        <time>2025-05-16T12:14:35Z</time>
      </trkpt>
      <trkpt lat="48.10629" lon="-1.71024">
        <ele>75</ele>
        <time>2025-05-16T12:14:36Z</time>
      </trkpt>
      <trkpt lat="48.10629" lon="-1.71024">
        <ele>75</ele>
        <time>2025-05-16T12:14:37Z</time>
      </trkpt>
      <trkpt lat="48.10629" lon="-1.71024">
        <ele>75</ele>
        <time>2025-05-16T12:14:38Z</time>
      </trkpt>
      <trkpt lat="48.10629" lon="-1.71024">
        <ele>75</ele>
        <time>2025-05-16T12:14:39Z</time>
      </trkpt>
      <trkpt lat="48.10629" lon="-1.71024">
        <ele>75</ele>
        <time>2025-05-16T12:14:40Z</time>
      </trkpt>
      <trkpt lat="48.10629" lon="-1.71024">
        <ele>75</ele>
        <time>2025-05-16T12:14:41Z</time>
      </trkpt>
      <trkpt lat="48.10629" lon="-1.71024">
        <ele>75</ele>
        <time>2025-05-16T12:14:42Z</time>
      </trkpt>
      <trkpt lat="48.10629" lon="-1.71024">
        <ele>75</ele>
        <time>2025-05-16T12:14:43Z</time>
      </trkpt>
      <trkpt lat="48.10629" lon="-1.71024">
        <ele>75</ele>
        <time>2025-05-16T12:14:44Z</time>
      </trkpt>
      <trkpt lat="48.10629" lon="-1.71024">
        <ele>75</ele>
        <time>2025-05-16T12:14:45Z</time>
      </trkpt>
      <trkpt lat="48.10629" lon="-1.71024">
        <ele>75</ele>
        <time>2025-05-16T12:14:46Z</time>
      </trkpt>
      <trkpt lat="48.10629" lon="-1.71024">
        <ele>75</ele>
        <time>2025-05-16T12:14:47Z</time>
      </trkpt>
      <trkpt lat="48.10629" lon="-1.71024">
        <ele>75</ele>
        <time>2025-05-16T12:14:48Z</time>
      </trkpt>
      <trkpt lat="48.10629" lon="-1.71024">
        <ele>75</ele>
        <time>2025-05-16T12:14:49Z</time>
      </trkpt>
      <trkpt lat="48.10629" lon="-1.71024">
        <ele>75</ele>
        <time>2025-05-16T12:14:50Z</time>
      </trkpt>
      <trkpt lat="48.10629" lon="-1.71024">
        <ele>75</ele>
        <time>2025-05-16T12:14:51Z</time>
      </trkpt>
      <trkpt lat="48.10629" lon="-1.71024">
        <ele>75</ele>
        <time>2025-05-16T12:14:52Z</time>
      </trkpt>
      <trkpt lat="48.10629" lon="-1.71024">
        <ele>75</ele>
        <time>2025-05-16T12:14:53Z</time>
      </trkpt>
      <trkpt lat="48.10629" lon="-1.71024">
        <ele>75</ele>
        <time>2025-05-16T12:14:54Z</time>
      </trkpt>
      <trkpt lat="48.10629" lon="-1.71024">
        <ele>75</ele>
        <time>2025-05-16T12:14:55Z</time>
      </trkpt>
      <trkpt lat="48.10629" lon="-1.71024">
        <ele>75</ele>
        <time>2025-05-16T12:14:56Z</time>
      </trkpt>
      <trkpt lat="48.10629" lon="-1.71024">
        <ele>75</ele>
        <time>2025-05-16T12:14:57Z</time>
      </trkpt>
      <trkpt lat="48.10629" lon="-1.71024">
        <ele>75</ele>
        <time>2025-05-16T12:14:58Z</time>
      </trkpt>
      <trkpt lat="48.10629" lon="-1.71024">
        <ele>75</ele>
        <time>2025-05-16T12:14:59Z</time>
      </trkpt>
      <trkpt lat="48.10629" lon="-1.71024">
        <ele>75</ele>
        <time>2025-05-16T12:15:00Z</time>
      </trkpt>
      <trkpt lat="48.10629" lon="-1.71024">
        <ele>75</ele>
        <time>2025-05-16T12:15:01Z</time>
      </trkpt>
      <trkpt lat="48.10629" lon="-1.71024">
        <ele>75</ele>
        <time>2025-05-16T12:15:02Z</time>
      </trkpt>
      <trkpt lat="48.10629" lon="-1.71024">
        <ele>75</ele>
        <time>2025-05-16T12:15:03Z</time>
      </trkpt>
      <trkpt lat="48.10629" lon="-1.71024">
        <ele>75</ele>
        <time>2025-05-16T12:15:04Z</time>
      </trkpt>
      <trkpt lat="48.10629" lon="-1.71024">
        <ele>75</ele>
        <time>2025-05-16T12:15:05Z</time>
      </trkpt>
      <trkpt lat="48.10629" lon="-1.71024">
        <ele>75</ele>
        <time>2025-05-16T12:15:06Z</time>
      </trkpt>
      <trkpt lat="48.10629" lon="-1.71024">
        <ele>75</ele>
        <time>2025-05-16T12:15:07Z</time>
      </trkpt>
      <trkpt lat="48.10629" lon="-1.71024">
        <ele>75</ele>
        <time>2025-05-16T12:15:08Z</time>
      </trkpt>
      <trkpt lat="48.10629" lon="-1.71024">
        <ele>75</ele>
        <time>2025-05-16T12:15:09Z</time>
      </trkpt>
      <trkpt lat="48.10629" lon="-1.71024">
        <ele>75</ele>
        <time>2025-05-16T12:15:10Z</time>
      </trkpt>
      <trkpt lat="48.10629" lon="-1.71024">
        <ele>75</ele>
        <time>2025-05-16T12:15:11Z</time>
      </trkpt>
      <trkpt lat="48.10629" lon="-1.71024">
        <ele>75</ele>
        <time>2025-05-16T12:15:12Z</time>
      </trkpt>
      <trkpt lat="48.10629" lon="-1.71024">
        <ele>75</ele>
        <time>2025-05-16T12:15:13Z</time>
      </trkpt>
      <trkpt lat="48.10629" lon="-1.71024">
        <ele>75</ele>
        <time>2025-05-16T12:15:14Z</time>
      </trkpt>
      <trkpt lat="48.10629" lon="-1.71024">
        <ele>75</ele>
        <time>2025-05-16T12:15:15Z</time>
      </trkpt>
      <trkpt lat="48.10629" lon="-1.71024">
        <ele>75</ele>
        <time>2025-05-16T12:15:16Z</time>
      </trkpt>
      <trkpt lat="48.10629" lon="-1.71024">
        <ele>75</ele>
        <time>2025-05-16T12:15:17Z</time>
      </trkpt>
      <trkpt lat="48.10629" lon="-1.71024">
        <ele>75</ele>
        <time>2025-05-16T12:15:18Z</time>
      </trkpt>
      <trkpt lat="48.10629" lon="-1.71024">
        <ele>75</ele>
        <time>2025-05-16T12:15:19Z</time>
      </trkpt>
      <trkpt lat="48.10629" lon="-1.71024">
        <ele>75</ele>
        <time>2025-05-16T12:15:20Z</time>
      </trkpt>
      <trkpt lat="48.10629" lon="-1.71024">
        <ele>75</ele>
        <time>2025-05-16T12:15:21Z</time>
      </trkpt>
      <trkpt lat="48.10629" lon="-1.71024">
        <ele>75</ele>
        <time>2025-05-16T12:15:22Z</time>
      </trkpt>
      <trkpt lat="48.10629" lon="-1.71024">
        <ele>75</ele>
        <time>2025-05-16T12:16:17Z</time>
      </trkpt>
      <trkpt lat="48.10629" lon="-1.71024">
        <ele>75</ele>
        <time>2025-05-16T12:16:18Z</time>
      </trkpt>
      <trkpt lat="48.10629" lon="-1.71024">
        <ele>75</ele>
        <time>2025-05-16T12:16:19Z</time>
      </trkpt>
      <trkpt lat="48.1063" lon="-1.7102">
        <ele>78</ele>
        <time>2025-05-16T12:16:20Z</time>
      </trkpt>
      <trkpt lat="48.1063" lon="-1.71018">
        <ele>78</ele>
        <time>2025-05-16T12:16:21Z</time>
      </trkpt>
      <trkpt lat="48.1063" lon="-1.71015">
        <ele>77</ele>
        <time>2025-05-16T12:16:22Z</time>
      </trkpt>
      <trkpt lat="48.1063" lon="-1.71013">
        <ele>77</ele>
        <time>2025-05-16T12:16:23Z</time>
      </trkpt>
      <trkpt lat="48.10631" lon="-1.7101">
        <ele>77</ele>
        <time>2025-05-16T12:16:24Z</time>
      </trkpt>
      <trkpt lat="48.10631" lon="-1.71006">
        <ele>76</ele>
        <time>2025-05-16T12:16:25Z</time>
      </trkpt>
      <trkpt lat="48.10631" lon="-1.71002">
        <ele>76</ele>
        <time>2025-05-16T12:16:26Z</time>
      </trkpt>
      <trkpt lat="48.10631" lon="-1.70998">
        <ele>76</ele>
        <time>2025-05-16T12:16:27Z</time>
      </trkpt>
      <trkpt lat="48.10631" lon="-1.70994">
        <ele>76</ele>
        <time>2025-05-16T12:16:28Z</time>
      </trkpt>
      <trkpt lat="48.10631" lon="-1.7099">
        <ele>76</ele>
        <time>2025-05-16T12:16:29Z</time>
      </trkpt>
      <trkpt lat="48.10631" lon="-1.70986">
        <ele>76</ele>
        <time>2025-05-16T12:16:30Z</time>
      </trkpt>
      <trkpt lat="48.10631" lon="-1.70981">
        <ele>76</ele>
        <time>2025-05-16T12:16:31Z</time>
      </trkpt>
      <trkpt lat="48.10631" lon="-1.70976">
        <ele>75</ele>
        <time>2025-05-16T12:16:32Z</time>
      </trkpt>
      <trkpt lat="48.10631" lon="-1.70971">
        <ele>75</ele>
        <time>2025-05-16T12:16:33Z</time>
      </trkpt>
      <trkpt lat="48.10631" lon="-1.70966">
        <ele>75</ele>
        <time>2025-05-16T12:16:34Z</time>
      </trkpt>
      <trkpt lat="48.10631" lon="-1.70961">
        <ele>74</ele>
        <time>2025-05-16T12:16:35Z</time>
      </trkpt>
      <trkpt lat="48.10631" lon="-1.70956">
        <ele>74</ele>
        <time>2025-05-16T12:16:36Z</time>
      </trkpt>
      <trkpt lat="48.10631" lon="-1.70951">
        <ele>74</ele>
        <time>2025-05-16T12:16:37Z</time>
      </trkpt>
      <trkpt lat="48.10632" lon="-1.70945">
        <ele>74</ele>
        <time>2025-05-16T12:16:38Z</time>
      </trkpt>
      <trkpt lat="48.10632" lon="-1.7094">
        <ele>74</ele>
        <time>2025-05-16T12:16:39Z</time>
      </trkpt>
      <trkpt lat="48.10632" lon="-1.70934">
        <ele>74</ele>
        <time>2025-05-16T12:16:40Z</time>
      </trkpt>
      <trkpt lat="48.10632" lon="-1.70929">
        <ele>74</ele>
        <time>2025-05-16T12:16:41Z</time>
      </trkpt>
      <trkpt lat="48.10632" lon="-1.70924">
        <ele>74</ele>
        <time>2025-05-16T12:16:42Z</time>
      </trkpt>
      <trkpt lat="48.10632" lon="-1.70918">
        <ele>74</ele>
        <time>2025-05-16T12:16:43Z</time>
      </trkpt>
      <trkpt lat="48.10632" lon="-1.70913">
        <ele>74</ele>
        <time>2025-05-16T12:16:44Z</time>
      </trkpt>
      <trkpt lat="48.10632" lon="-1.70909">
        <ele>74</ele>
        <time>2025-05-16T12:16:45Z</time>
      </trkpt>
      <trkpt lat="48.10632" lon="-1.70904">
        <ele>74</ele>
        <time>2025-05-16T12:16:46Z</time>
      </trkpt>
      <trkpt lat="48.10633" lon="-1.70898">
        <ele>74</ele>
        <time>2025-05-16T12:16:47Z</time>
      </trkpt>
      <trkpt lat="48.10633" lon="-1.70893">
        <ele>73</ele>
        <time>2025-05-16T12:16:48Z</time>
      </trkpt>
      <trkpt lat="48.10633" lon="-1.70887">
        <ele>73</ele>
        <time>2025-05-16T12:16:49Z</time>
      </trkpt>
      <trkpt lat="48.10633" lon="-1.70882">
        <ele>73</ele>
        <time>2025-05-16T12:16:50Z</time>
      </trkpt>
      <trkpt lat="48.10633" lon="-1.70876">
        <ele>73</ele>
        <time>2025-05-16T12:16:51Z</time>
      </trkpt>
      <trkpt lat="48.10633" lon="-1.70871">
        <ele>73</ele>
        <time>2025-05-16T12:16:52Z</time>
      </trkpt>
      <trkpt lat="48.10633" lon="-1.70867">
        <ele>73</ele>
        <time>2025-05-16T12:16:53Z</time>
      </trkpt>
      <trkpt lat="48.10631" lon="-1.70863">
        <ele>72</ele>
        <time>2025-05-16T12:16:54Z</time>
      </trkpt>
      <trkpt lat="48.10628" lon="-1.70861">
        <ele>72</ele>
        <time>2025-05-16T12:16:55Z</time>
      </trkpt>
      <trkpt lat="48.10625" lon="-1.70859">
        <ele>73</ele>
        <time>2025-05-16T12:16:56Z</time>
      </trkpt>
      <trkpt lat="48.10622" lon="-1.70858">
        <ele>73</ele>
        <time>2025-05-16T12:16:57Z</time>
      </trkpt>
      <trkpt lat="48.10619" lon="-1.70856">
        <ele>74</ele>
        <time>2025-05-16T12:16:58Z</time>
      </trkpt>
      <trkpt lat="48.10617" lon="-1.70855">
        <ele>74</ele>
        <time>2025-05-16T12:16:59Z</time>
      </trkpt>
      <trkpt lat="48.10614" lon="-1.70853">
        <ele>74</ele>
        <time>2025-05-16T12:17:00Z</time>
      </trkpt>
      <trkpt lat="48.10613" lon="-1.7085">
        <ele>74</ele>
        <time>2025-05-16T12:17:01Z</time>
      </trkpt>
      <trkpt lat="48.10611" lon="-1.70846">
        <ele>74</ele>
        <time>2025-05-16T12:17:02Z</time>
      </trkpt>
      <trkpt lat="48.1061" lon="-1.70843">
        <ele>74</ele>
        <time>2025-05-16T12:17:03Z</time>
      </trkpt>
      <trkpt lat="48.1061" lon="-1.70839">
        <ele>74</ele>
        <time>2025-05-16T12:17:04Z</time>
      </trkpt>
      <trkpt lat="48.1061" lon="-1.70835">
        <ele>74</ele>
        <time>2025-05-16T12:17:05Z</time>
      </trkpt>
      <trkpt lat="48.10609" lon="-1.70831">
        <ele>74</ele>
        <time>2025-05-16T12:17:06Z</time>
      </trkpt>
      <trkpt lat="48.10609" lon="-1.70826">
        <ele>74</ele>
        <time>2025-05-16T12:17:07Z</time>
      </trkpt>
      <trkpt lat="48.10608" lon="-1.70821">
        <ele>74</ele>
        <time>2025-05-16T12:17:08Z</time>
      </trkpt>
      <trkpt lat="48.10606" lon="-1.70815">
        <ele>74</ele>
        <time>2025-05-16T12:17:09Z</time>
      </trkpt>
      <trkpt lat="48.10605" lon="-1.7081">
        <ele>74</ele>
        <time>2025-05-16T12:17:10Z</time>
      </trkpt>
      <trkpt lat="48.10605" lon="-1.70804">
        <ele>74</ele>
        <time>2025-05-16T12:17:11Z</time>
      </trkpt>
      <trkpt lat="48.10604" lon="-1.70798">
        <ele>74</ele>
        <time>2025-05-16T12:17:12Z</time>
      </trkpt>
      <trkpt lat="48.10604" lon="-1.70793">
        <ele>74</ele>
        <time>2025-05-16T12:17:13Z</time>
      </trkpt>
      <trkpt lat="48.10603" lon="-1.70787">
        <ele>74</ele>
        <time>2025-05-16T12:17:14Z</time>
      </trkpt>
      <trkpt lat="48.10602" lon="-1.70781">
        <ele>74</ele>
        <time>2025-05-16T12:17:15Z</time>
      </trkpt>
      <trkpt lat="48.10601" lon="-1.70776">
        <ele>75</ele>
        <time>2025-05-16T12:17:16Z</time>
      </trkpt>
      <trkpt lat="48.106" lon="-1.70771">
        <ele>75</ele>
        <time>2025-05-16T12:17:17Z</time>
      </trkpt>
      <trkpt lat="48.106" lon="-1.70765">
        <ele>75</ele>
        <time>2025-05-16T12:17:18Z</time>
      </trkpt>
      <trkpt lat="48.10599" lon="-1.7076">
        <ele>75</ele>
        <time>2025-05-16T12:17:19Z</time>
      </trkpt>
      <trkpt lat="48.10598" lon="-1.70754">
        <ele>76</ele>
        <time>2025-05-16T12:17:20Z</time>
      </trkpt>
      <trkpt lat="48.10596" lon="-1.70748">
        <ele>77</ele>
        <time>2025-05-16T12:17:21Z</time>
      </trkpt>
      <trkpt lat="48.10595" lon="-1.70743">
        <ele>78</ele>
        <time>2025-05-16T12:17:22Z</time>
      </trkpt>
      <trkpt lat="48.10593" lon="-1.70738">
        <ele>79</ele>
        <time>2025-05-16T12:17:23Z</time>
      </trkpt>
      <trkpt lat="48.10591" lon="-1.70733">
        <ele>78</ele>
        <time>2025-05-16T12:17:24Z</time>
      </trkpt>
      <trkpt lat="48.1059" lon="-1.70727">
        <ele>78</ele>
        <time>2025-05-16T12:17:25Z</time>
      </trkpt>
      <trkpt lat="48.10589" lon="-1.70721">
        <ele>78</ele>
        <time>2025-05-16T12:17:26Z</time>
      </trkpt>
      <trkpt lat="48.10588" lon="-1.70715">
        <ele>78</ele>
        <time>2025-05-16T12:17:27Z</time>
      </trkpt>
      <trkpt lat="48.10588" lon="-1.70709">
        <ele>77</ele>
        <time>2025-05-16T12:17:28Z</time>
      </trkpt>
      <trkpt lat="48.10587" lon="-1.70703">
        <ele>77</ele>
        <time>2025-05-16T12:17:29Z</time>
      </trkpt>
      <trkpt lat="48.10586" lon="-1.70697">
        <ele>77</ele>
        <time>2025-05-16T12:17:30Z</time>
      </trkpt>
      <trkpt lat="48.10586" lon="-1.70691">
        <ele>76</ele>
        <time>2025-05-16T12:17:31Z</time>
      </trkpt>
      <trkpt lat="48.10585" lon="-1.70685">
        <ele>76</ele>
        <time>2025-05-16T12:17:32Z</time>
      </trkpt>
      <trkpt lat="48.10584" lon="-1.70679">
        <ele>75</ele>
        <time>2025-05-16T12:17:33Z</time>
      </trkpt>
      <trkpt lat="48.10583" lon="-1.70672">
        <ele>75</ele>
        <time>2025-05-16T12:17:34Z</time>
      </trkpt>
      <trkpt lat="48.10581" lon="-1.70666">
        <ele>75</ele>
        <time>2025-05-16T12:17:35Z</time>
      </trkpt>
      <trkpt lat="48.10581" lon="-1.7066">
        <ele>75</ele>
        <time>2025-05-16T12:17:36Z</time>
      </trkpt>
      <trkpt lat="48.1058" lon="-1.70654">
        <ele>76</ele>
        <time>2025-05-16T12:17:37Z</time>
      </trkpt>
      <trkpt lat="48.10578" lon="-1.70649">
        <ele>76</ele>
        <time>2025-05-16T12:17:38Z</time>
      </trkpt>
      <trkpt lat="48.10577" lon="-1.70643">
        <ele>76</ele>
        <time>2025-05-16T12:17:39Z</time>
      </trkpt>
      <trkpt lat="48.10576" lon="-1.70638">
        <ele>76</ele>
        <time>2025-05-16T12:17:40Z</time>
      </trkpt>
      <trkpt lat="48.10575" lon="-1.70632">
        <ele>77</ele>
        <time>2025-05-16T12:17:41Z</time>
      </trkpt>
      <trkpt lat="48.10575" lon="-1.70627">
        <ele>77</ele>
        <time>2025-05-16T12:17:42Z</time>
      </trkpt>
      <trkpt lat="48.10573" lon="-1.70622">
        <ele>77</ele>
        <time>2025-05-16T12:17:43Z</time>
      </trkpt>
      <trkpt lat="48.10573" lon="-1.70616">
        <ele>77</ele>
        <time>2025-05-16T12:17:44Z</time>
      </trkpt>
      <trkpt lat="48.10572" lon="-1.70611">
        <ele>76</ele>
        <time>2025-05-16T12:17:45Z</time>
      </trkpt>
      <trkpt lat="48.10571" lon="-1.70605">
        <ele>76</ele>
        <time>2025-05-16T12:17:46Z</time>
      </trkpt>
      <trkpt lat="48.10571" lon="-1.706">
        <ele>76</ele>
        <time>2025-05-16T12:17:47Z</time>
      </trkpt>
      <trkpt lat="48.1057" lon="-1.70595">
        <ele>75</ele>
        <time>2025-05-16T12:17:48Z</time>
      </trkpt>
      <trkpt lat="48.10569" lon="-1.70589">
        <ele>75</ele>
        <time>2025-05-16T12:17:49Z</time>
      </trkpt>
      <trkpt lat="48.10569" lon="-1.70584">
        <ele>75</ele>
        <time>2025-05-16T12:17:50Z</time>
      </trkpt>
      <trkpt lat="48.10568" lon="-1.70578">
        <ele>75</ele>
        <time>2025-05-16T12:17:51Z</time>
      </trkpt>
      <trkpt lat="48.10567" lon="-1.70571">
        <ele>76</ele>
        <time>2025-05-16T12:17:52Z</time>
      </trkpt>
      <trkpt lat="48.10566" lon="-1.70565">
        <ele>76</ele>
        <time>2025-05-16T12:17:53Z</time>
      </trkpt>
      <trkpt lat="48.10565" lon="-1.70558">
        <ele>76</ele>
        <time>2025-05-16T12:17:54Z</time>
      </trkpt>
      <trkpt lat="48.10564" lon="-1.70552">
        <ele>76</ele>
        <time>2025-05-16T12:17:55Z</time>
      </trkpt>
      <trkpt lat="48.10563" lon="-1.70546">
        <ele>77</ele>
        <time>2025-05-16T12:17:56Z</time>
      </trkpt>
      <trkpt lat="48.10562" lon="-1.70539">
        <ele>77</ele>
        <time>2025-05-16T12:17:57Z</time>
      </trkpt>
      <trkpt lat="48.1056" lon="-1.70533">
        <ele>77</ele>
        <time>2025-05-16T12:17:58Z</time>
      </trkpt>
      <trkpt lat="48.10559" lon="-1.70528">
        <ele>77</ele>
        <time>2025-05-16T12:17:59Z</time>
      </trkpt>
      <trkpt lat="48.10558" lon="-1.70522">
        <ele>76</ele>
        <time>2025-05-16T12:18:00Z</time>
      </trkpt>
      <trkpt lat="48.10557" lon="-1.70515">
        <ele>76</ele>
        <time>2025-05-16T12:18:01Z</time>
      </trkpt>
      <trkpt lat="48.10556" lon="-1.70509">
        <ele>76</ele>
        <time>2025-05-16T12:18:02Z</time>
      </trkpt>
      <trkpt lat="48.10556" lon="-1.70503">
        <ele>76</ele>
        <time>2025-05-16T12:18:03Z</time>
      </trkpt>
      <trkpt lat="48.10555" lon="-1.70498">
        <ele>75</ele>
        <time>2025-05-16T12:18:04Z</time>
      </trkpt>
      <trkpt lat="48.10553" lon="-1.70493">
        <ele>75</ele>
        <time>2025-05-16T12:18:05Z</time>
      </trkpt>
      <trkpt lat="48.10553" lon="-1.70488">
        <ele>74</ele>
        <time>2025-05-16T12:18:06Z</time>
      </trkpt>
      <trkpt lat="48.10552" lon="-1.70482">
        <ele>74</ele>
        <time>2025-05-16T12:18:07Z</time>
      </trkpt>
      <trkpt lat="48.10552" lon="-1.70476">
        <ele>74</ele>
        <time>2025-05-16T12:18:08Z</time>
      </trkpt>
      <trkpt lat="48.10551" lon="-1.7047">
        <ele>74</ele>
        <time>2025-05-16T12:18:09Z</time>
      </trkpt>
      <trkpt lat="48.10549" lon="-1.70465">
        <ele>74</ele>
        <time>2025-05-16T12:18:10Z</time>
      </trkpt>
      <trkpt lat="48.10548" lon="-1.70459">
        <ele>74</ele>
        <time>2025-05-16T12:18:11Z</time>
      </trkpt>
      <trkpt lat="48.10548" lon="-1.70454">
        <ele>74</ele>
        <time>2025-05-16T12:18:12Z</time>
      </trkpt>
      <trkpt lat="48.10546" lon="-1.70449">
        <ele>74</ele>
        <time>2025-05-16T12:18:13Z</time>
      </trkpt>
      <trkpt lat="48.10545" lon="-1.70443">
        <ele>73</ele>
        <time>2025-05-16T12:18:14Z</time>
      </trkpt>
      <trkpt lat="48.10545" lon="-1.70438">
        <ele>73</ele>
        <time>2025-05-16T12:18:15Z</time>
      </trkpt>
      <trkpt lat="48.10545" lon="-1.70432">
        <ele>74</ele>
        <time>2025-05-16T12:18:16Z</time>
      </trkpt>
      <trkpt lat="48.10544" lon="-1.70427">
        <ele>74</ele>
        <time>2025-05-16T12:18:17Z</time>
      </trkpt>
      <trkpt lat="48.10544" lon="-1.70422">
        <ele>75</ele>
        <time>2025-05-16T12:18:18Z</time>
      </trkpt>
      <trkpt lat="48.10543" lon="-1.70417">
        <ele>75</ele>
        <time>2025-05-16T12:18:19Z</time>
      </trkpt>
      <trkpt lat="48.10541" lon="-1.70414">
        <ele>76</ele>
        <time>2025-05-16T12:18:20Z</time>
      </trkpt>
      <trkpt lat="48.10539" lon="-1.70411">
        <ele>76</ele>
        <time>2025-05-16T12:18:21Z</time>
      </trkpt>
      <trkpt lat="48.10537" lon="-1.7041">
        <ele>76</ele>
        <time>2025-05-16T12:18:22Z</time>
      </trkpt>
      <trkpt lat="48.10536" lon="-1.7041">
        <ele>77</ele>
        <time>2025-05-16T12:18:23Z</time>
      </trkpt>
      <trkpt lat="48.10535" lon="-1.70411">
        <ele>77</ele>
        <time>2025-05-16T12:18:24Z</time>
      </trkpt>
      <trkpt lat="48.10534" lon="-1.70411">
        <ele>77</ele>
        <time>2025-05-16T12:18:25Z</time>
      </trkpt>
      <trkpt lat="48.10534" lon="-1.70411">
        <ele>77</ele>
        <time>2025-05-16T12:18:26Z</time>
      </trkpt>
      <trkpt lat="48.10534" lon="-1.70411">
        <ele>77</ele>
        <time>2025-05-16T12:18:27Z</time>
      </trkpt>
      <trkpt lat="48.10534" lon="-1.70411">
        <ele>77</ele>
        <time>2025-05-16T12:18:28Z</time>
      </trkpt>
      <trkpt lat="48.10534" lon="-1.70411">
        <ele>77</ele>
        <time>2025-05-16T12:18:29Z</time>
      </trkpt>
      <trkpt lat="48.10534" lon="-1.70411">
        <ele>77</ele>
        <time>2025-05-16T12:18:30Z</time>
      </trkpt>
      <trkpt lat="48.10534" lon="-1.70411">
        <ele>77</ele>
        <time>2025-05-16T12:18:31Z</time>
      </trkpt>
      <trkpt lat="48.10534" lon="-1.70411">
        <ele>77</ele>
        <time>2025-05-16T12:18:32Z</time>
      </trkpt>
      <trkpt lat="48.10534" lon="-1.70411">
        <ele>77</ele>
        <time>2025-05-16T12:18:33Z</time>
      </trkpt>
      <trkpt lat="48.10534" lon="-1.70411">
        <ele>77</ele>
        <time>2025-05-16T12:18:34Z</time>
      </trkpt>
      <trkpt lat="48.10534" lon="-1.70411">
        <ele>77</ele>
        <time>2025-05-16T12:18:35Z</time>
      </trkpt>
      <trkpt lat="48.10534" lon="-1.70411">
        <ele>77</ele>
        <time>2025-05-16T12:18:36Z</time>
      </trkpt>
      <trkpt lat="48.10534" lon="-1.70411">
        <ele>77</ele>
        <time>2025-05-16T12:18:37Z</time>
      </trkpt>
      <trkpt lat="48.10534" lon="-1.70411">
        <ele>77</ele>
        <time>2025-05-16T12:18:38Z</time>
      </trkpt>
      <trkpt lat="48.10534" lon="-1.70411">
        <ele>77</ele>
        <time>2025-05-16T12:18:39Z</time>
      </trkpt>
      <trkpt lat="48.10534" lon="-1.70411">
        <ele>77</ele>
        <time>2025-05-16T12:18:40Z</time>
      </trkpt>
      <trkpt lat="48.10534" lon="-1.70411">
        <ele>77</ele>
        <time>2025-05-16T12:18:41Z</time>
      </trkpt>
      <trkpt lat="48.10534" lon="-1.70411">
        <ele>77</ele>
        <time>2025-05-16T12:18:42Z</time>
      </trkpt>
      <trkpt lat="48.10534" lon="-1.70411">
        <ele>77</ele>
        <time>2025-05-16T12:18:43Z</time>
      </trkpt>
      <trkpt lat="48.10534" lon="-1.70411">
        <ele>77</ele>
        <time>2025-05-16T12:18:44Z</time>
      </trkpt>
      <trkpt lat="48.10534" lon="-1.70411">
        <ele>77</ele>
        <time>2025-05-16T12:18:45Z</time>
      </trkpt>
      <trkpt lat="48.10534" lon="-1.70411">
        <ele>77</ele>
        <time>2025-05-16T12:18:46Z</time>
      </trkpt>
      <trkpt lat="48.10534" lon="-1.70411">
        <ele>77</ele>
        <time>2025-05-16T12:18:47Z</time>
      </trkpt>
      <trkpt lat="48.10534" lon="-1.70411">
        <ele>77</ele>
        <time>2025-05-16T12:18:48Z</time>
      </trkpt>
      <trkpt lat="48.10534" lon="-1.70411">
        <ele>77</ele>
        <time>2025-05-16T12:18:49Z</time>
      </trkpt>
      <trkpt lat="48.10534" lon="-1.70411">
        <ele>77</ele>
        <time>2025-05-16T12:18:50Z</time>
      </trkpt>
      <trkpt lat="48.10534" lon="-1.70411">
        <ele>77</ele>
        <time>2025-05-16T12:18:51Z</time>
      </trkpt>
      <trkpt lat="48.10534" lon="-1.70411">
        <ele>77</ele>
        <time>2025-05-16T12:18:52Z</time>
      </trkpt>
      <trkpt lat="48.10534" lon="-1.70411">
        <ele>77</ele>
        <time>2025-05-16T12:18:53Z</time>
      </trkpt>
      <trkpt lat="48.10534" lon="-1.70411">
        <ele>77</ele>
        <time>2025-05-16T12:18:54Z</time>
      </trkpt>
      <trkpt lat="48.10534" lon="-1.70411">
        <ele>77</ele>
        <time>2025-05-16T12:18:55Z</time>
      </trkpt>
      <trkpt lat="48.10534" lon="-1.70411">
        <ele>77</ele>
        <time>2025-05-16T12:18:56Z</time>
      </trkpt>
      <trkpt lat="48.10534" lon="-1.70411">
        <ele>77</ele>
        <time>2025-05-16T12:18:57Z</time>
      </trkpt>
      <trkpt lat="48.10534" lon="-1.70411">
        <ele>77</ele>
        <time>2025-05-16T12:18:58Z</time>
      </trkpt>
      <trkpt lat="48.10534" lon="-1.70411">
        <ele>77</ele>
        <time>2025-05-16T12:18:59Z</time>
      </trkpt>
      <trkpt lat="48.10534" lon="-1.70411">
        <ele>77</ele>
        <time>2025-05-16T12:19:00Z</time>
      </trkpt>
      <trkpt lat="48.10534" lon="-1.70411">
        <ele>77</ele>
        <time>2025-05-16T12:19:01Z</time>
      </trkpt>
      <trkpt lat="48.10534" lon="-1.70411">
        <ele>77</ele>
        <time>2025-05-16T12:19:02Z</time>
      </trkpt>
      <trkpt lat="48.10534" lon="-1.70411">
        <ele>77</ele>
        <time>2025-05-16T12:19:03Z</time>
      </trkpt>
      <trkpt lat="48.10534" lon="-1.70411">
        <ele>77</ele>
        <time>2025-05-16T12:19:04Z</time>
      </trkpt>
      <trkpt lat="48.10534" lon="-1.70411">
        <ele>77</ele>
        <time>2025-05-16T12:19:05Z</time>
      </trkpt>
      <trkpt lat="48.10534" lon="-1.70411">
        <ele>77</ele>
        <time>2025-05-16T12:19:06Z</time>
      </trkpt>
      <trkpt lat="48.10534" lon="-1.70411">
        <ele>77</ele>
        <time>2025-05-16T12:19:07Z</time>
      </trkpt>
      <trkpt lat="48.10534" lon="-1.70411">
        <ele>77</ele>
        <time>2025-05-16T12:19:08Z</time>
      </trkpt>
      <trkpt lat="48.10534" lon="-1.70411">
        <ele>77</ele>
        <time>2025-05-16T12:19:09Z</time>
      </trkpt>
      <trkpt lat="48.10534" lon="-1.70411">
        <ele>77</ele>
        <time>2025-05-16T12:19:10Z</time>
      </trkpt>
      <trkpt lat="48.10534" lon="-1.70411">
        <ele>77</ele>
        <time>2025-05-16T12:19:11Z</time>
      </trkpt>
      <trkpt lat="48.10534" lon="-1.70411">
        <ele>77</ele>
        <time>2025-05-16T12:19:12Z</time>
      </trkpt>
      <trkpt lat="48.10534" lon="-1.70411">
        <ele>77</ele>
        <time>2025-05-16T12:19:13Z</time>
      </trkpt>
      <trkpt lat="48.1053" lon="-1.70411">
        <ele>78</ele>
        <time>2025-05-16T12:19:14Z</time>
      </trkpt>
      <trkpt lat="48.10528" lon="-1.70411">
        <ele>77</ele>
        <time>2025-05-16T12:19:15Z</time>
      </trkpt>
      <trkpt lat="48.10526" lon="-1.70409">
        <ele>77</ele>
        <time>2025-05-16T12:19:16Z</time>
      </trkpt>
      <trkpt lat="48.10524" lon="-1.70406">
        <ele>77</ele>
        <time>2025-05-16T12:19:17Z</time>
      </trkpt>
      <trkpt lat="48.10522" lon="-1.70402">
        <ele>77</ele>
        <time>2025-05-16T12:19:18Z</time>
      </trkpt>
      <trkpt lat="48.10521" lon="-1.70398">
        <ele>77</ele>
        <time>2025-05-16T12:19:19Z</time>
      </trkpt>
      <trkpt lat="48.10521" lon="-1.70393">
        <ele>77</ele>
        <time>2025-05-16T12:19:20Z</time>
      </trkpt>
      <trkpt lat="48.1052" lon="-1.70389">
        <ele>77</ele>
        <time>2025-05-16T12:19:21Z</time>
      </trkpt>
      <trkpt lat="48.1052" lon="-1.70384">
        <ele>77</ele>
        <time>2025-05-16T12:19:22Z</time>
      </trkpt>
      <trkpt lat="48.1052" lon="-1.70379">
        <ele>76</ele>
        <time>2025-05-16T12:19:23Z</time>
      </trkpt>
      <trkpt lat="48.1052" lon="-1.70374">
        <ele>76</ele>
        <time>2025-05-16T12:19:24Z</time>
      </trkpt>
      <trkpt lat="48.1052" lon="-1.70368">
        <ele>75</ele>
        <time>2025-05-16T12:19:25Z</time>
      </trkpt>
      <trkpt lat="48.10519" lon="-1.70362">
        <ele>75</ele>
        <time>2025-05-16T12:19:26Z</time>
      </trkpt>
      <trkpt lat="48.10519" lon="-1.70356">
        <ele>75</ele>
        <time>2025-05-16T12:19:27Z</time>
      </trkpt>
      <trkpt lat="48.10519" lon="-1.7035">
        <ele>75</ele>
        <time>2025-05-16T12:19:28Z</time>
      </trkpt>
      <trkpt lat="48.10519" lon="-1.70344">
        <ele>75</ele>
        <time>2025-05-16T12:19:29Z</time>
      </trkpt>
      <trkpt lat="48.10519" lon="-1.70339">
        <ele>74</ele>
        <time>2025-05-16T12:19:30Z</time>
      </trkpt>
      <trkpt lat="48.10519" lon="-1.70333">
        <ele>74</ele>
        <time>2025-05-16T12:19:31Z</time>
      </trkpt>
      <trkpt lat="48.10519" lon="-1.70326">
        <ele>74</ele>
        <time>2025-05-16T12:19:32Z</time>
      </trkpt>
      <trkpt lat="48.10519" lon="-1.7032">
        <ele>74</ele>
        <time>2025-05-16T12:19:33Z</time>
      </trkpt>
      <trkpt lat="48.10519" lon="-1.70314">
        <ele>73</ele>
        <time>2025-05-16T12:19:34Z</time>
      </trkpt>
      <trkpt lat="48.10519" lon="-1.70308">
        <ele>73</ele>
        <time>2025-05-16T12:19:35Z</time>
      </trkpt>
      <trkpt lat="48.10519" lon="-1.70301">
        <ele>73</ele>
        <time>2025-05-16T12:19:36Z</time>
      </trkpt>
      <trkpt lat="48.10518" lon="-1.70296">
        <ele>73</ele>
        <time>2025-05-16T12:19:37Z</time>
      </trkpt>
      <trkpt lat="48.10519" lon="-1.7029">
        <ele>73</ele>
        <time>2025-05-16T12:19:38Z</time>
      </trkpt>
      <trkpt lat="48.10519" lon="-1.70285">
        <ele>73</ele>
        <time>2025-05-16T12:19:39Z</time>
      </trkpt>
      <trkpt lat="48.10519" lon="-1.70279">
        <ele>73</ele>
        <time>2025-05-16T12:19:40Z</time>
      </trkpt>
      <trkpt lat="48.10518" lon="-1.70273">
        <ele>73</ele>
        <time>2025-05-16T12:19:41Z</time>
      </trkpt>
      <trkpt lat="48.10518" lon="-1.70268">
        <ele>73</ele>
        <time>2025-05-16T12:19:42Z</time>
      </trkpt>
      <trkpt lat="48.10516" lon="-1.70262">
        <ele>74</ele>
        <time>2025-05-16T12:19:43Z</time>
      </trkpt>
      <trkpt lat="48.10515" lon="-1.70256">
        <ele>74</ele>
        <time>2025-05-16T12:19:44Z</time>
      </trkpt>
      <trkpt lat="48.10515" lon="-1.7025">
        <ele>74</ele>
        <time>2025-05-16T12:19:45Z</time>
      </trkpt>
      <trkpt lat="48.10515" lon="-1.70244">
        <ele>73</ele>
        <time>2025-05-16T12:19:46Z</time>
      </trkpt>
      <trkpt lat="48.10514" lon="-1.70239">
        <ele>73</ele>
        <time>2025-05-16T12:19:47Z</time>
      </trkpt>
      <trkpt lat="48.10514" lon="-1.70233">
        <ele>73</ele>
        <time>2025-05-16T12:19:48Z</time>
      </trkpt>
      <trkpt lat="48.10513" lon="-1.70228">
        <ele>72</ele>
        <time>2025-05-16T12:19:49Z</time>
      </trkpt>
      <trkpt lat="48.10512" lon="-1.70222">
        <ele>73</ele>
        <time>2025-05-16T12:19:50Z</time>
      </trkpt>
      <trkpt lat="48.10512" lon="-1.70216">
        <ele>73</ele>
        <time>2025-05-16T12:19:51Z</time>
      </trkpt>
      <trkpt lat="48.10512" lon="-1.7021">
        <ele>73</ele>
        <time>2025-05-16T12:19:52Z</time>
      </trkpt>
      <trkpt lat="48.10512" lon="-1.70204">
        <ele>73</ele>
        <time>2025-05-16T12:19:53Z</time>
      </trkpt>
      <trkpt lat="48.10512" lon="-1.70198">
        <ele>73</ele>
        <time>2025-05-16T12:19:54Z</time>
      </trkpt>
      <trkpt lat="48.10511" lon="-1.70192">
        <ele>73</ele>
        <time>2025-05-16T12:19:55Z</time>
      </trkpt>
      <trkpt lat="48.10511" lon="-1.70186">
        <ele>72</ele>
        <time>2025-05-16T12:19:56Z</time>
      </trkpt>
      <trkpt lat="48.10511" lon="-1.7018">
        <ele>73</ele>
        <time>2025-05-16T12:19:57Z</time>
      </trkpt>
      <trkpt lat="48.10511" lon="-1.70173">
        <ele>73</ele>
        <time>2025-05-16T12:19:58Z</time>
      </trkpt>
      <trkpt lat="48.10511" lon="-1.70167">
        <ele>73</ele>
        <time>2025-05-16T12:19:59Z</time>
      </trkpt>
      <trkpt lat="48.10511" lon="-1.7016">
        <ele>73</ele>
        <time>2025-05-16T12:20:00Z</time>
      </trkpt>
      <trkpt lat="48.10511" lon="-1.70154">
        <ele>73</ele>
        <time>2025-05-16T12:20:01Z</time>
      </trkpt>
      <trkpt lat="48.10511" lon="-1.70148">
        <ele>74</ele>
        <time>2025-05-16T12:20:02Z</time>
      </trkpt>
      <trkpt lat="48.1051" lon="-1.70142">
        <ele>73</ele>
        <time>2025-05-16T12:20:03Z</time>
      </trkpt>
      <trkpt lat="48.10509" lon="-1.70136">
        <ele>73</ele>
        <time>2025-05-16T12:20:04Z</time>
      </trkpt>
      <trkpt lat="48.10509" lon="-1.70131">
        <ele>73</ele>
        <time>2025-05-16T12:20:05Z</time>
      </trkpt>
      <trkpt lat="48.10509" lon="-1.70125">
        <ele>74</ele>
        <time>2025-05-16T12:20:06Z</time>
      </trkpt>
      <trkpt lat="48.10509" lon="-1.7012">
        <ele>74</ele>
        <time>2025-05-16T12:20:07Z</time>
      </trkpt>
      <trkpt lat="48.1051" lon="-1.70114">
        <ele>74</ele>
        <time>2025-05-16T12:20:08Z</time>
      </trkpt>
      <trkpt lat="48.1051" lon="-1.70108">
        <ele>74</ele>
        <time>2025-05-16T12:20:09Z</time>
      </trkpt>
      <trkpt lat="48.10511" lon="-1.70104">
        <ele>75</ele>
        <time>2025-05-16T12:20:10Z</time>
      </trkpt>
      <trkpt lat="48.10511" lon="-1.70099">
        <ele>76</ele>
        <time>2025-05-16T12:20:11Z</time>
      </trkpt>
      <trkpt lat="48.10511" lon="-1.70095">
        <ele>76</ele>
        <time>2025-05-16T12:20:12Z</time>
      </trkpt>
      <trkpt lat="48.10511" lon="-1.70091">
        <ele>76</ele>
        <time>2025-05-16T12:20:13Z</time>
      </trkpt>
      <trkpt lat="48.10511" lon="-1.70088">
        <ele>76</ele>
        <time>2025-05-16T12:20:14Z</time>
      </trkpt>
      <trkpt lat="48.10511" lon="-1.70084">
        <ele>75</ele>
        <time>2025-05-16T12:20:15Z</time>
      </trkpt>
      <trkpt lat="48.10511" lon="-1.7008">
        <ele>75</ele>
        <time>2025-05-16T12:20:16Z</time>
      </trkpt>
      <trkpt lat="48.10511" lon="-1.70077">
        <ele>75</ele>
        <time>2025-05-16T12:20:17Z</time>
      </trkpt>
      <trkpt lat="48.10511" lon="-1.70075">
        <ele>74</ele>
        <time>2025-05-16T12:20:18Z</time>
      </trkpt>
      <trkpt lat="48.10511" lon="-1.70073">
        <ele>74</ele>
        <time>2025-05-16T12:20:19Z</time>
      </trkpt>
      <trkpt lat="48.10511" lon="-1.70073">
        <ele>74</ele>
        <time>2025-05-16T12:20:20Z</time>
      </trkpt>
      <trkpt lat="48.10511" lon="-1.70073">
        <ele>74</ele>
        <time>2025-05-16T12:20:21Z</time>
      </trkpt>
      <trkpt lat="48.10511" lon="-1.70073">
        <ele>74</ele>
        <time>2025-05-16T12:20:22Z</time>
      </trkpt>
      <trkpt lat="48.10511" lon="-1.70073">
        <ele>74</ele>
        <time>2025-05-16T12:20:23Z</time>
      </trkpt>
      <trkpt lat="48.10511" lon="-1.70073">
        <ele>74</ele>
        <time>2025-05-16T12:20:24Z</time>
      </trkpt>
      <trkpt lat="48.10511" lon="-1.70073">
        <ele>74</ele>
        <time>2025-05-16T12:20:25Z</time>
      </trkpt>
      <trkpt lat="48.10511" lon="-1.70073">
        <ele>74</ele>
        <time>2025-05-16T12:20:26Z</time>
      </trkpt>
      <trkpt lat="48.10511" lon="-1.70073">
        <ele>74</ele>
        <time>2025-05-16T12:20:27Z</time>
      </trkpt>
      <trkpt lat="48.10511" lon="-1.70073">
        <ele>74</ele>
        <time>2025-05-16T12:20:28Z</time>
      </trkpt>
      <trkpt lat="48.10511" lon="-1.70073">
        <ele>74</ele>
        <time>2025-05-16T12:20:29Z</time>
      </trkpt>
      <trkpt lat="48.10511" lon="-1.70073">
        <ele>74</ele>
        <time>2025-05-16T12:20:30Z</time>
      </trkpt>
      <trkpt lat="48.10511" lon="-1.70073">
        <ele>74</ele>
        <time>2025-05-16T12:20:31Z</time>
      </trkpt>
      <trkpt lat="48.10511" lon="-1.70073">
        <ele>74</ele>
        <time>2025-05-16T12:20:32Z</time>
      </trkpt>
      <trkpt lat="48.10511" lon="-1.70073">
        <ele>74</ele>
        <time>2025-05-16T12:20:33Z</time>
      </trkpt>
      <trkpt lat="48.10511" lon="-1.70073">
        <ele>74</ele>
        <time>2025-05-16T12:20:34Z</time>
      </trkpt>
      <trkpt lat="48.10511" lon="-1.70073">
        <ele>74</ele>
        <time>2025-05-16T12:20:35Z</time>
      </trkpt>
      <trkpt lat="48.10511" lon="-1.70073">
        <ele>74</ele>
        <time>2025-05-16T12:20:36Z</time>
      </trkpt>
      <trkpt lat="48.10511" lon="-1.70073">
        <ele>74</ele>
        <time>2025-05-16T12:20:37Z</time>
      </trkpt>
      <trkpt lat="48.10511" lon="-1.70073">
        <ele>74</ele>
        <time>2025-05-16T12:20:38Z</time>
      </trkpt>
      <trkpt lat="48.10511" lon="-1.70073">
        <ele>74</ele>
        <time>2025-05-16T12:20:39Z</time>
      </trkpt>
      <trkpt lat="48.10511" lon="-1.70073">
        <ele>74</ele>
        <time>2025-05-16T12:20:40Z</time>
      </trkpt>
      <trkpt lat="48.10511" lon="-1.70073">
        <ele>74</ele>
        <time>2025-05-16T12:20:41Z</time>
      </trkpt>
      <trkpt lat="48.10511" lon="-1.70072">
        <ele>74</ele>
        <time>2025-05-16T12:20:42Z</time>
      </trkpt>
      <trkpt lat="48.10511" lon="-1.70069">
        <ele>74</ele>
        <time>2025-05-16T12:20:43Z</time>
      </trkpt>
      <trkpt lat="48.1051" lon="-1.70065">
        <ele>74</ele>
        <time>2025-05-16T12:20:44Z</time>
      </trkpt>
      <trkpt lat="48.1051" lon="-1.70061">
        <ele>73</ele>
        <time>2025-05-16T12:20:45Z</time>
      </trkpt>
      <trkpt lat="48.10509" lon="-1.70056">
        <ele>72</ele>
        <time>2025-05-16T12:20:46Z</time>
      </trkpt>
      <trkpt lat="48.10509" lon="-1.7005">
        <ele>73</ele>
        <time>2025-05-16T12:20:47Z</time>
      </trkpt>
      <trkpt lat="48.1051" lon="-1.70044">
        <ele>73</ele>
        <time>2025-05-16T12:20:48Z</time>
      </trkpt>
      <trkpt lat="48.10511" lon="-1.70039">
        <ele>73</ele>
        <time>2025-05-16T12:20:49Z</time>
      </trkpt>
      <trkpt lat="48.10511" lon="-1.70033">
        <ele>74</ele>
        <time>2025-05-16T12:20:50Z</time>
      </trkpt>
      <trkpt lat="48.10512" lon="-1.70028">
        <ele>74</ele>
        <time>2025-05-16T12:20:51Z</time>
      </trkpt>
      <trkpt lat="48.10512" lon="-1.70022">
        <ele>74</ele>
        <time>2025-05-16T12:20:52Z</time>
      </trkpt>
      <trkpt lat="48.10513" lon="-1.70017">
        <ele>75</ele>
        <time>2025-05-16T12:20:53Z</time>
      </trkpt>
      <trkpt lat="48.10513" lon="-1.70011">
        <ele>75</ele>
        <time>2025-05-16T12:20:54Z</time>
      </trkpt>
      <trkpt lat="48.10513" lon="-1.70005">
        <ele>75</ele>
        <time>2025-05-16T12:20:55Z</time>
      </trkpt>
      <trkpt lat="48.10513" lon="-1.69999">
        <ele>75</ele>
        <time>2025-05-16T12:20:56Z</time>
      </trkpt>
      <trkpt lat="48.10514" lon="-1.69993">
        <ele>75</ele>
        <time>2025-05-16T12:20:57Z</time>
      </trkpt>
      <trkpt lat="48.10513" lon="-1.69988">
        <ele>75</ele>
        <time>2025-05-16T12:20:58Z</time>
      </trkpt>
      <trkpt lat="48.10512" lon="-1.69984">
        <ele>75</ele>
        <time>2025-05-16T12:20:59Z</time>
      </trkpt>
      <trkpt lat="48.10511" lon="-1.6998">
        <ele>75</ele>
        <time>2025-05-16T12:21:00Z</time>
      </trkpt>
      <trkpt lat="48.10509" lon="-1.69976">
        <ele>74</ele>
        <time>2025-05-16T12:21:01Z</time>
      </trkpt>
      <trkpt lat="48.10509" lon="-1.6997">
        <ele>75</ele>
        <time>2025-05-16T12:21:02Z</time>
      </trkpt>
      <trkpt lat="48.1051" lon="-1.69963">
        <ele>76</ele>
        <time>2025-05-16T12:21:03Z</time>
      </trkpt>
      <trkpt lat="48.1051" lon="-1.69956">
        <ele>76</ele>
        <time>2025-05-16T12:21:04Z</time>
      </trkpt>
      <trkpt lat="48.1051" lon="-1.69948">
        <ele>75</ele>
        <time>2025-05-16T12:21:05Z</time>
      </trkpt>
      <trkpt lat="48.1051" lon="-1.6994">
        <ele>74</ele>
        <time>2025-05-16T12:21:06Z</time>
      </trkpt>
      <trkpt lat="48.1051" lon="-1.69933">
        <ele>74</ele>
        <time>2025-05-16T12:21:07Z</time>
      </trkpt>
      <trkpt lat="48.1051" lon="-1.69926">
        <ele>74</ele>
        <time>2025-05-16T12:21:08Z</time>
      </trkpt>
      <trkpt lat="48.10511" lon="-1.6992">
        <ele>74</ele>
        <time>2025-05-16T12:21:09Z</time>
      </trkpt>
      <trkpt lat="48.10511" lon="-1.69913">
        <ele>74</ele>
        <time>2025-05-16T12:21:10Z</time>
      </trkpt>
      <trkpt lat="48.10511" lon="-1.69907">
        <ele>73</ele>
        <time>2025-05-16T12:21:11Z</time>
      </trkpt>
      <trkpt lat="48.10511" lon="-1.699">
        <ele>73</ele>
        <time>2025-05-16T12:21:12Z</time>
      </trkpt>
      <trkpt lat="48.10511" lon="-1.69894">
        <ele>73</ele>
        <time>2025-05-16T12:21:13Z</time>
      </trkpt>
      <trkpt lat="48.10511" lon="-1.69887">
        <ele>73</ele>
        <time>2025-05-16T12:21:14Z</time>
      </trkpt>
      <trkpt lat="48.10511" lon="-1.69881">
        <ele>73</ele>
        <time>2025-05-16T12:21:15Z</time>
      </trkpt>
      <trkpt lat="48.10511" lon="-1.69875">
        <ele>73</ele>
        <time>2025-05-16T12:21:16Z</time>
      </trkpt>
      <trkpt lat="48.10511" lon="-1.69869">
        <ele>73</ele>
        <time>2025-05-16T12:21:17Z</time>
      </trkpt>
      <trkpt lat="48.1051" lon="-1.69862">
        <ele>73</ele>
        <time>2025-05-16T12:21:18Z</time>
      </trkpt>
      <trkpt lat="48.1051" lon="-1.69857">
        <ele>73</ele>
        <time>2025-05-16T12:21:19Z</time>
      </trkpt>
      <trkpt lat="48.10509" lon="-1.69851">
        <ele>73</ele>
        <time>2025-05-16T12:21:20Z</time>
      </trkpt>
      <trkpt lat="48.10509" lon="-1.69846">
        <ele>72</ele>
        <time>2025-05-16T12:21:21Z</time>
      </trkpt>
      <trkpt lat="48.10509" lon="-1.69841">
        <ele>72</ele>
        <time>2025-05-16T12:21:22Z</time>
      </trkpt>
      <trkpt lat="48.10509" lon="-1.69836">
        <ele>72</ele>
        <time>2025-05-16T12:21:23Z</time>
      </trkpt>
      <trkpt lat="48.10509" lon="-1.69832">
        <ele>72</ele>
        <time>2025-05-16T12:21:24Z</time>
      </trkpt>
      <trkpt lat="48.10509" lon="-1.69828">
        <ele>72</ele>
        <time>2025-05-16T12:21:25Z</time>
      </trkpt>
      <trkpt lat="48.10508" lon="-1.69825">
        <ele>72</ele>
        <time>2025-05-16T12:21:26Z</time>
      </trkpt>
      <trkpt lat="48.10505" lon="-1.69823">
        <ele>72</ele>
        <time>2025-05-16T12:21:27Z</time>
      </trkpt>
      <trkpt lat="48.10503" lon="-1.69822">
        <ele>72</ele>
        <time>2025-05-16T12:21:28Z</time>
      </trkpt>
      <trkpt lat="48.10499" lon="-1.69823">
        <ele>72</ele>
        <time>2025-05-16T12:21:29Z</time>
      </trkpt>
      <trkpt lat="48.10496" lon="-1.69823">
        <ele>72</ele>
        <time>2025-05-16T12:21:30Z</time>
      </trkpt>
      <trkpt lat="48.10492" lon="-1.69823">
        <ele>72</ele>
        <time>2025-05-16T12:21:31Z</time>
      </trkpt>
      <trkpt lat="48.10488" lon="-1.69824">
        <ele>72</ele>
        <time>2025-05-16T12:21:32Z</time>
      </trkpt>
      <trkpt lat="48.10484" lon="-1.69824">
        <ele>72</ele>
        <time>2025-05-16T12:21:33Z</time>
      </trkpt>
      <trkpt lat="48.1048" lon="-1.69824">
        <ele>72</ele>
        <time>2025-05-16T12:21:34Z</time>
      </trkpt>
      <trkpt lat="48.10476" lon="-1.69824">
        <ele>73</ele>
        <time>2025-05-16T12:21:35Z</time>
      </trkpt>
      <trkpt lat="48.10472" lon="-1.69823">
        <ele>73</ele>
        <time>2025-05-16T12:21:36Z</time>
      </trkpt>
      <trkpt lat="48.10468" lon="-1.69823">
        <ele>73</ele>
        <time>2025-05-16T12:21:37Z</time>
      </trkpt>
      <trkpt lat="48.10464" lon="-1.69823">
        <ele>75</ele>
        <time>2025-05-16T12:21:38Z</time>
      </trkpt>
      <trkpt lat="48.10459" lon="-1.69823">
        <ele>75</ele>
        <time>2025-05-16T12:21:39Z</time>
      </trkpt>
      <trkpt lat="48.10455" lon="-1.69822">
        <ele>75</ele>
        <time>2025-05-16T12:21:40Z</time>
      </trkpt>
      <trkpt lat="48.1045" lon="-1.69822">
        <ele>76</ele>
        <time>2025-05-16T12:21:41Z</time>
      </trkpt>
      <trkpt lat="48.10446" lon="-1.69821">
        <ele>77</ele>
        <time>2025-05-16T12:21:42Z</time>
      </trkpt>
      <trkpt lat="48.10442" lon="-1.69819">
        <ele>78</ele>
        <time>2025-05-16T12:21:43Z</time>
      </trkpt>
      <trkpt lat="48.10439" lon="-1.69816">
        <ele>78</ele>
        <time>2025-05-16T12:21:44Z</time>
      </trkpt>
      <trkpt lat="48.10436" lon="-1.69813">
        <ele>79</ele>
        <time>2025-05-16T12:21:45Z</time>
      </trkpt>
      <trkpt lat="48.10431" lon="-1.69809">
        <ele>80</ele>
        <time>2025-05-16T12:21:46Z</time>
      </trkpt>
      <trkpt lat="48.10428" lon="-1.69806">
        <ele>80</ele>
        <time>2025-05-16T12:21:47Z</time>
      </trkpt>
      <trkpt lat="48.10424" lon="-1.69801">
        <ele>81</ele>
        <time>2025-05-16T12:21:48Z</time>
      </trkpt>
      <trkpt lat="48.1042" lon="-1.69797">
        <ele>83</ele>
        <time>2025-05-16T12:21:49Z</time>
      </trkpt>
      <trkpt lat="48.10416" lon="-1.69793">
        <ele>83</ele>
        <time>2025-05-16T12:21:50Z</time>
      </trkpt>
      <trkpt lat="48.10414" lon="-1.69789">
        <ele>82</ele>
        <time>2025-05-16T12:21:51Z</time>
      </trkpt>
      <trkpt lat="48.10411" lon="-1.69785">
        <ele>82</ele>
        <time>2025-05-16T12:21:52Z</time>
      </trkpt>
      <trkpt lat="48.10408" lon="-1.69782">
        <ele>82</ele>
        <time>2025-05-16T12:21:53Z</time>
      </trkpt>
      <trkpt lat="48.10403" lon="-1.6978">
        <ele>83</ele>
        <time>2025-05-16T12:21:54Z</time>
      </trkpt>
      <trkpt lat="48.10399" lon="-1.69776">
        <ele>83</ele>
        <time>2025-05-16T12:21:55Z</time>
      </trkpt>
      <trkpt lat="48.10395" lon="-1.69772">
        <ele>84</ele>
        <time>2025-05-16T12:21:56Z</time>
      </trkpt>
      <trkpt lat="48.10391" lon="-1.6977">
        <ele>84</ele>
        <time>2025-05-16T12:21:57Z</time>
      </trkpt>
      <trkpt lat="48.10389" lon="-1.69768">
        <ele>83</ele>
        <time>2025-05-16T12:21:58Z</time>
      </trkpt>
      <trkpt lat="48.10386" lon="-1.69765">
        <ele>82</ele>
        <time>2025-05-16T12:21:59Z</time>
      </trkpt>
      <trkpt lat="48.10383" lon="-1.69763">
        <ele>81</ele>
        <time>2025-05-16T12:22:00Z</time>
      </trkpt>
      <trkpt lat="48.1038" lon="-1.6976">
        <ele>81</ele>
        <time>2025-05-16T12:22:01Z</time>
      </trkpt>
      <trkpt lat="48.10376" lon="-1.69757">
        <ele>80</ele>
        <time>2025-05-16T12:22:02Z</time>
      </trkpt>
      <trkpt lat="48.10374" lon="-1.69754">
        <ele>79</ele>
        <time>2025-05-16T12:22:03Z</time>
      </trkpt>
      <trkpt lat="48.10371" lon="-1.69752">
        <ele>78</ele>
        <time>2025-05-16T12:22:04Z</time>
      </trkpt>
      <trkpt lat="48.10369" lon="-1.69749">
        <ele>78</ele>
        <time>2025-05-16T12:22:05Z</time>
      </trkpt>
      <trkpt lat="48.10366" lon="-1.69746">
        <ele>78</ele>
        <time>2025-05-16T12:22:06Z</time>
      </trkpt>
      <trkpt lat="48.10363" lon="-1.69744">
        <ele>78</ele>
        <time>2025-05-16T12:22:07Z</time>
      </trkpt>
      <trkpt lat="48.10361" lon="-1.69741">
        <ele>78</ele>
        <time>2025-05-16T12:22:08Z</time>
      </trkpt>
      <trkpt lat="48.10359" lon="-1.6974">
        <ele>77</ele>
        <time>2025-05-16T12:22:09Z</time>
      </trkpt>
      <trkpt lat="48.10358" lon="-1.69737">
        <ele>77</ele>
        <time>2025-05-16T12:22:10Z</time>
      </trkpt>
      <trkpt lat="48.10356" lon="-1.69735">
        <ele>77</ele>
        <time>2025-05-16T12:22:11Z</time>
      </trkpt>
      <trkpt lat="48.10354" lon="-1.69734">
        <ele>78</ele>
        <time>2025-05-16T12:22:12Z</time>
      </trkpt>
      <trkpt lat="48.10352" lon="-1.69733">
        <ele>78</ele>
        <time>2025-05-16T12:22:13Z</time>
      </trkpt>
      <trkpt lat="48.10349" lon="-1.69732">
        <ele>78</ele>
        <time>2025-05-16T12:22:14Z</time>
      </trkpt>
      <trkpt lat="48.10347" lon="-1.6973">
        <ele>78</ele>
        <time>2025-05-16T12:22:15Z</time>
      </trkpt>
      <trkpt lat="48.10344" lon="-1.69729">
        <ele>78</ele>
        <time>2025-05-16T12:22:16Z</time>
      </trkpt>
      <trkpt lat="48.10342" lon="-1.69729">
        <ele>78</ele>
        <time>2025-05-16T12:22:17Z</time>
      </trkpt>
      <trkpt lat="48.1034" lon="-1.69728">
        <ele>78</ele>
        <time>2025-05-16T12:22:18Z</time>
      </trkpt>
      <trkpt lat="48.10337" lon="-1.69729">
        <ele>77</ele>
        <time>2025-05-16T12:22:19Z</time>
      </trkpt>
      <trkpt lat="48.10335" lon="-1.69729">
        <ele>77</ele>
        <time>2025-05-16T12:22:20Z</time>
      </trkpt>
      <trkpt lat="48.10332" lon="-1.69728">
        <ele>77</ele>
        <time>2025-05-16T12:22:21Z</time>
      </trkpt>
      <trkpt lat="48.1033" lon="-1.69728">
        <ele>77</ele>
        <time>2025-05-16T12:22:22Z</time>
      </trkpt>
      <trkpt lat="48.10327" lon="-1.69727">
        <ele>77</ele>
        <time>2025-05-16T12:22:23Z</time>
      </trkpt>
      <trkpt lat="48.10326" lon="-1.69725">
        <ele>77</ele>
        <time>2025-05-16T12:22:24Z</time>
      </trkpt>
      <trkpt lat="48.10324" lon="-1.69723">
        <ele>77</ele>
        <time>2025-05-16T12:22:25Z</time>
      </trkpt>
      <trkpt lat="48.10323" lon="-1.69721">
        <ele>78</ele>
        <time>2025-05-16T12:22:26Z</time>
      </trkpt>
      <trkpt lat="48.10322" lon="-1.69719">
        <ele>78</ele>
        <time>2025-05-16T12:22:27Z</time>
      </trkpt>
      <trkpt lat="48.10321" lon="-1.69716">
        <ele>79</ele>
        <time>2025-05-16T12:22:28Z</time>
      </trkpt>
      <trkpt lat="48.10319" lon="-1.69713">
        <ele>80</ele>
        <time>2025-05-16T12:22:29Z</time>
      </trkpt>
      <trkpt lat="48.10317" lon="-1.6971">
        <ele>80</ele>
        <time>2025-05-16T12:22:30Z</time>
      </trkpt>
      <trkpt lat="48.10315" lon="-1.69707">
        <ele>80</ele>
        <time>2025-05-16T12:22:31Z</time>
      </trkpt>
      <trkpt lat="48.10313" lon="-1.69704">
        <ele>80</ele>
        <time>2025-05-16T12:22:32Z</time>
      </trkpt>
      <trkpt lat="48.10311" lon="-1.69701">
        <ele>81</ele>
        <time>2025-05-16T12:22:33Z</time>
      </trkpt>
      <trkpt lat="48.10309" lon="-1.69697">
        <ele>81</ele>
        <time>2025-05-16T12:22:34Z</time>
      </trkpt>
      <trkpt lat="48.10307" lon="-1.69694">
        <ele>81</ele>
        <time>2025-05-16T12:22:35Z</time>
      </trkpt>
      <trkpt lat="48.10304" lon="-1.6969">
        <ele>82</ele>
        <time>2025-05-16T12:22:36Z</time>
      </trkpt>
      <trkpt lat="48.10302" lon="-1.69687">
        <ele>82</ele>
        <time>2025-05-16T12:22:37Z</time>
      </trkpt>
      <trkpt lat="48.10301" lon="-1.69684">
        <ele>82</ele>
        <time>2025-05-16T12:22:38Z</time>
      </trkpt>
      <trkpt lat="48.10299" lon="-1.69681">
        <ele>82</ele>
        <time>2025-05-16T12:22:39Z</time>
      </trkpt>
      <trkpt lat="48.10297" lon="-1.69678">
        <ele>83</ele>
        <time>2025-05-16T12:22:40Z</time>
      </trkpt>
      <trkpt lat="48.10296" lon="-1.69674">
        <ele>83</ele>
        <time>2025-05-16T12:22:41Z</time>
      </trkpt>
      <trkpt lat="48.10294" lon="-1.69671">
        <ele>83</ele>
        <time>2025-05-16T12:22:42Z</time>
      </trkpt>
      <trkpt lat="48.10293" lon="-1.69667">
        <ele>83</ele>
        <time>2025-05-16T12:22:43Z</time>
      </trkpt>
      <trkpt lat="48.10292" lon="-1.69664">
        <ele>82</ele>
        <time>2025-05-16T12:22:44Z</time>
      </trkpt>
      <trkpt lat="48.10291" lon="-1.6966">
        <ele>82</ele>
        <time>2025-05-16T12:22:45Z</time>
      </trkpt>
      <trkpt lat="48.1029" lon="-1.69657">
        <ele>81</ele>
        <time>2025-05-16T12:22:46Z</time>
      </trkpt>
      <trkpt lat="48.10289" lon="-1.69654">
        <ele>81</ele>
        <time>2025-05-16T12:22:47Z</time>
      </trkpt>
      <trkpt lat="48.10288" lon="-1.6965">
        <ele>80</ele>
        <time>2025-05-16T12:22:48Z</time>
      </trkpt>
      <trkpt lat="48.10287" lon="-1.69647">
        <ele>80</ele>
        <time>2025-05-16T12:22:49Z</time>
      </trkpt>
      <trkpt lat="48.10285" lon="-1.69643">
        <ele>79</ele>
        <time>2025-05-16T12:22:50Z</time>
      </trkpt>
      <trkpt lat="48.10283" lon="-1.6964">
        <ele>79</ele>
        <time>2025-05-16T12:22:51Z</time>
      </trkpt>
      <trkpt lat="48.10281" lon="-1.69637">
        <ele>79</ele>
        <time>2025-05-16T12:22:52Z</time>
      </trkpt>
      <trkpt lat="48.10279" lon="-1.69634">
        <ele>79</ele>
        <time>2025-05-16T12:22:53Z</time>
      </trkpt>
      <trkpt lat="48.10277" lon="-1.6963">
        <ele>79</ele>
        <time>2025-05-16T12:22:54Z</time>
      </trkpt>
      <trkpt lat="48.10274" lon="-1.69627">
        <ele>79</ele>
        <time>2025-05-16T12:22:55Z</time>
      </trkpt>
      <trkpt lat="48.10272" lon="-1.69624">
        <ele>80</ele>
        <time>2025-05-16T12:22:56Z</time>
      </trkpt>
      <trkpt lat="48.1027" lon="-1.69621">
        <ele>80</ele>
        <time>2025-05-16T12:22:57Z</time>
      </trkpt>
      <trkpt lat="48.10268" lon="-1.69618">
        <ele>80</ele>
        <time>2025-05-16T12:22:58Z</time>
      </trkpt>
      <trkpt lat="48.10264" lon="-1.69615">
        <ele>80</ele>
        <time>2025-05-16T12:22:59Z</time>
      </trkpt>
      <trkpt lat="48.10262" lon="-1.69612">
        <ele>79</ele>
        <time>2025-05-16T12:23:00Z</time>
      </trkpt>
      <trkpt lat="48.1026" lon="-1.69608">
        <ele>79</ele>
        <time>2025-05-16T12:23:01Z</time>
      </trkpt>
      <trkpt lat="48.10258" lon="-1.69605">
        <ele>79</ele>
        <time>2025-05-16T12:23:02Z</time>
      </trkpt>
      <trkpt lat="48.10257" lon="-1.69601">
        <ele>79</ele>
        <time>2025-05-16T12:23:03Z</time>
      </trkpt>
      <trkpt lat="48.10256" lon="-1.69597">
        <ele>79</ele>
        <time>2025-05-16T12:23:04Z</time>
      </trkpt>
      <trkpt lat="48.10255" lon="-1.69593">
        <ele>79</ele>
        <time>2025-05-16T12:23:05Z</time>
      </trkpt>
      <trkpt lat="48.10254" lon="-1.69589">
        <ele>79</ele>
        <time>2025-05-16T12:23:06Z</time>
      </trkpt>
      <trkpt lat="48.10253" lon="-1.69586">
        <ele>79</ele>
        <time>2025-05-16T12:23:07Z</time>
      </trkpt>
      <trkpt lat="48.10252" lon="-1.69582">
        <ele>81</ele>
        <time>2025-05-16T12:23:08Z</time>
      </trkpt>
      <trkpt lat="48.10251" lon="-1.69577">
        <ele>82</ele>
        <time>2025-05-16T12:23:09Z</time>
      </trkpt>
      <trkpt lat="48.1025" lon="-1.69572">
        <ele>82</ele>
        <time>2025-05-16T12:23:10Z</time>
      </trkpt>
      <trkpt lat="48.10248" lon="-1.69567">
        <ele>82</ele>
        <time>2025-05-16T12:23:11Z</time>
      </trkpt>
      <trkpt lat="48.10247" lon="-1.69562">
        <ele>83</ele>
        <time>2025-05-16T12:23:12Z</time>
      </trkpt>
      <trkpt lat="48.10246" lon="-1.69557">
        <ele>83</ele>
        <time>2025-05-16T12:23:13Z</time>
      </trkpt>
      <trkpt lat="48.10244" lon="-1.69553">
        <ele>84</ele>
        <time>2025-05-16T12:23:14Z</time>
      </trkpt>
      <trkpt lat="48.10242" lon="-1.69549">
        <ele>84</ele>
        <time>2025-05-16T12:23:15Z</time>
      </trkpt>
      <trkpt lat="48.1024" lon="-1.69545">
        <ele>85</ele>
        <time>2025-05-16T12:23:16Z</time>
      </trkpt>
      <trkpt lat="48.10239" lon="-1.69541">
        <ele>85</ele>
        <time>2025-05-16T12:23:17Z</time>
      </trkpt>
      <trkpt lat="48.10237" lon="-1.69537">
        <ele>85</ele>
        <time>2025-05-16T12:23:18Z</time>
      </trkpt>
      <trkpt lat="48.10236" lon="-1.69534">
        <ele>84</ele>
        <time>2025-05-16T12:23:19Z</time>
      </trkpt>
      <trkpt lat="48.10235" lon="-1.6953">
        <ele>84</ele>
        <time>2025-05-16T12:23:20Z</time>
      </trkpt>
      <trkpt lat="48.10233" lon="-1.69526">
        <ele>84</ele>
        <time>2025-05-16T12:23:21Z</time>
      </trkpt>
      <trkpt lat="48.10232" lon="-1.69524">
        <ele>84</ele>
        <time>2025-05-16T12:23:22Z</time>
      </trkpt>
      <trkpt lat="48.10231" lon="-1.6952">
        <ele>83</ele>
        <time>2025-05-16T12:23:23Z</time>
      </trkpt>
      <trkpt lat="48.10229" lon="-1.69517">
        <ele>83</ele>
        <time>2025-05-16T12:23:24Z</time>
      </trkpt>
      <trkpt lat="48.10228" lon="-1.69514">
        <ele>83</ele>
        <time>2025-05-16T12:23:25Z</time>
      </trkpt>
      <trkpt lat="48.10226" lon="-1.69512">
        <ele>84</ele>
        <time>2025-05-16T12:23:26Z</time>
      </trkpt>
      <trkpt lat="48.10225" lon="-1.6951">
        <ele>84</ele>
        <time>2025-05-16T12:23:27Z</time>
      </trkpt>
      <trkpt lat="48.10223" lon="-1.69507">
        <ele>84</ele>
        <time>2025-05-16T12:23:28Z</time>
      </trkpt>
      <trkpt lat="48.1022" lon="-1.69506">
        <ele>85</ele>
        <time>2025-05-16T12:23:29Z</time>
      </trkpt>
      <trkpt lat="48.10218" lon="-1.69504">
        <ele>85</ele>
        <time>2025-05-16T12:23:30Z</time>
      </trkpt>
      <trkpt lat="48.10215" lon="-1.69503">
        <ele>86</ele>
        <time>2025-05-16T12:23:31Z</time>
      </trkpt>
      <trkpt lat="48.10212" lon="-1.69501">
        <ele>86</ele>
        <time>2025-05-16T12:23:32Z</time>
      </trkpt>
      <trkpt lat="48.10209" lon="-1.69499">
        <ele>86</ele>
        <time>2025-05-16T12:23:33Z</time>
      </trkpt>
      <trkpt lat="48.10205" lon="-1.69497">
        <ele>86</ele>
        <time>2025-05-16T12:23:34Z</time>
      </trkpt>
      <trkpt lat="48.10203" lon="-1.69494">
        <ele>85</ele>
        <time>2025-05-16T12:23:35Z</time>
      </trkpt>
      <trkpt lat="48.102" lon="-1.6949">
        <ele>86</ele>
        <time>2025-05-16T12:23:36Z</time>
      </trkpt>
      <trkpt lat="48.10197" lon="-1.69487">
        <ele>86</ele>
        <time>2025-05-16T12:23:37Z</time>
      </trkpt>
      <trkpt lat="48.10195" lon="-1.69482">
        <ele>86</ele>
        <time>2025-05-16T12:23:38Z</time>
      </trkpt>
      <trkpt lat="48.10193" lon="-1.69477">
        <ele>86</ele>
        <time>2025-05-16T12:23:39Z</time>
      </trkpt>
      <trkpt lat="48.10192" lon="-1.69474">
        <ele>84</ele>
        <time>2025-05-16T12:23:40Z</time>
      </trkpt>
      <trkpt lat="48.10191" lon="-1.6947">
        <ele>84</ele>
        <time>2025-05-16T12:23:41Z</time>
      </trkpt>
      <trkpt lat="48.10189" lon="-1.69466">
        <ele>84</ele>
        <time>2025-05-16T12:23:42Z</time>
      </trkpt>
      <trkpt lat="48.10187" lon="-1.69462">
        <ele>83</ele>
        <time>2025-05-16T12:23:43Z</time>
      </trkpt>
      <trkpt lat="48.10186" lon="-1.69458">
        <ele>83</ele>
        <time>2025-05-16T12:23:44Z</time>
      </trkpt>
      <trkpt lat="48.10184" lon="-1.69453">
        <ele>83</ele>
        <time>2025-05-16T12:23:45Z</time>
      </trkpt>
      <trkpt lat="48.10183" lon="-1.69449">
        <ele>82</ele>
        <time>2025-05-16T12:23:46Z</time>
      </trkpt>
      <trkpt lat="48.10182" lon="-1.69445">
        <ele>82</ele>
        <time>2025-05-16T12:23:47Z</time>
      </trkpt>
      <trkpt lat="48.1018" lon="-1.69441">
        <ele>82</ele>
        <time>2025-05-16T12:23:48Z</time>
      </trkpt>
      <trkpt lat="48.10179" lon="-1.69437">
        <ele>82</ele>
        <time>2025-05-16T12:23:49Z</time>
      </trkpt>
      <trkpt lat="48.10177" lon="-1.69433">
        <ele>82</ele>
        <time>2025-05-16T12:23:50Z</time>
      </trkpt>
      <trkpt lat="48.10176" lon="-1.69428">
        <ele>82</ele>
        <time>2025-05-16T12:23:51Z</time>
      </trkpt>
      <trkpt lat="48.10175" lon="-1.69423">
        <ele>82</ele>
        <time>2025-05-16T12:23:52Z</time>
      </trkpt>
      <trkpt lat="48.10174" lon="-1.69419">
        <ele>82</ele>
        <time>2025-05-16T12:23:53Z</time>
      </trkpt>
      <trkpt lat="48.10173" lon="-1.69414">
        <ele>83</ele>
        <time>2025-05-16T12:23:54Z</time>
      </trkpt>
      <trkpt lat="48.10172" lon="-1.69409">
        <ele>83</ele>
        <time>2025-05-16T12:23:55Z</time>
      </trkpt>
      <trkpt lat="48.10171" lon="-1.69404">
        <ele>83</ele>
        <time>2025-05-16T12:23:56Z</time>
      </trkpt>
      <trkpt lat="48.1017" lon="-1.694">
        <ele>83</ele>
        <time>2025-05-16T12:23:57Z</time>
      </trkpt>
      <trkpt lat="48.10169" lon="-1.69395">
        <ele>83</ele>
        <time>2025-05-16T12:23:58Z</time>
      </trkpt>
      <trkpt lat="48.10168" lon="-1.6939">
        <ele>83</ele>
        <time>2025-05-16T12:23:59Z</time>
      </trkpt>
      <trkpt lat="48.10167" lon="-1.69385">
        <ele>83</ele>
        <time>2025-05-16T12:24:00Z</time>
      </trkpt>
      <trkpt lat="48.10165" lon="-1.69381">
        <ele>83</ele>
        <time>2025-05-16T12:24:01Z</time>
      </trkpt>
      <trkpt lat="48.10164" lon="-1.69376">
        <ele>83</ele>
        <time>2025-05-16T12:24:02Z</time>
      </trkpt>
      <trkpt lat="48.10162" lon="-1.69371">
        <ele>82</ele>
        <time>2025-05-16T12:24:03Z</time>
      </trkpt>
      <trkpt lat="48.10161" lon="-1.69366">
        <ele>82</ele>
        <time>2025-05-16T12:24:04Z</time>
      </trkpt>
      <trkpt lat="48.1016" lon="-1.69361">
        <ele>82</ele>
        <time>2025-05-16T12:24:05Z</time>
      </trkpt>
      <trkpt lat="48.10158" lon="-1.69356">
        <ele>82</ele>
        <time>2025-05-16T12:24:06Z</time>
      </trkpt>
      <trkpt lat="48.10157" lon="-1.69351">
        <ele>82</ele>
        <time>2025-05-16T12:24:07Z</time>
      </trkpt>
      <trkpt lat="48.10156" lon="-1.69346">
        <ele>82</ele>
        <time>2025-05-16T12:24:08Z</time>
      </trkpt>
      <trkpt lat="48.10156" lon="-1.69342">
        <ele>81</ele>
        <time>2025-05-16T12:24:09Z</time>
      </trkpt>
      <trkpt lat="48.10155" lon="-1.69337">
        <ele>81</ele>
        <time>2025-05-16T12:24:10Z</time>
      </trkpt>
      <trkpt lat="48.10155" lon="-1.69333">
        <ele>80</ele>
        <time>2025-05-16T12:24:11Z</time>
      </trkpt>
      <trkpt lat="48.10154" lon="-1.69328">
        <ele>80</ele>
        <time>2025-05-16T12:24:12Z</time>
      </trkpt>
      <trkpt lat="48.10153" lon="-1.69323">
        <ele>80</ele>
        <time>2025-05-16T12:24:13Z</time>
      </trkpt>
      <trkpt lat="48.10152" lon="-1.69317">
        <ele>80</ele>
        <time>2025-05-16T12:24:14Z</time>
      </trkpt>
      <trkpt lat="48.10151" lon="-1.69312">
        <ele>81</ele>
        <time>2025-05-16T12:24:15Z</time>
      </trkpt>
      <trkpt lat="48.1015" lon="-1.69307">
        <ele>81</ele>
        <time>2025-05-16T12:24:16Z</time>
      </trkpt>
      <trkpt lat="48.10149" lon="-1.69301">
        <ele>82</ele>
        <time>2025-05-16T12:24:17Z</time>
      </trkpt>
      <trkpt lat="48.10147" lon="-1.69296">
        <ele>82</ele>
        <time>2025-05-16T12:24:18Z</time>
      </trkpt>
      <trkpt lat="48.10146" lon="-1.69291">
        <ele>82</ele>
        <time>2025-05-16T12:24:19Z</time>
      </trkpt>
      <trkpt lat="48.10144" lon="-1.69285">
        <ele>82</ele>
        <time>2025-05-16T12:24:20Z</time>
      </trkpt>
      <trkpt lat="48.10143" lon="-1.6928">
        <ele>82</ele>
        <time>2025-05-16T12:24:21Z</time>
      </trkpt>
      <trkpt lat="48.10142" lon="-1.69275">
        <ele>82</ele>
        <time>2025-05-16T12:24:22Z</time>
      </trkpt>
      <trkpt lat="48.1014" lon="-1.6927">
        <ele>82</ele>
        <time>2025-05-16T12:24:23Z</time>
      </trkpt>
      <trkpt lat="48.1014" lon="-1.69265">
        <ele>82</ele>
        <time>2025-05-16T12:24:24Z</time>
      </trkpt>
      <trkpt lat="48.10138" lon="-1.6926">
        <ele>82</ele>
        <time>2025-05-16T12:24:25Z</time>
      </trkpt>
      <trkpt lat="48.10137" lon="-1.69254">
        <ele>82</ele>
        <time>2025-05-16T12:24:26Z</time>
      </trkpt>
      <trkpt lat="48.10136" lon="-1.69249">
        <ele>83</ele>
        <time>2025-05-16T12:24:27Z</time>
      </trkpt>
      <trkpt lat="48.10135" lon="-1.69243">
        <ele>83</ele>
        <time>2025-05-16T12:24:28Z</time>
      </trkpt>
      <trkpt lat="48.10135" lon="-1.69237">
        <ele>83</ele>
        <time>2025-05-16T12:24:29Z</time>
      </trkpt>
      <trkpt lat="48.10134" lon="-1.69231">
        <ele>83</ele>
        <time>2025-05-16T12:24:30Z</time>
      </trkpt>
      <trkpt lat="48.10133" lon="-1.69226">
        <ele>83</ele>
        <time>2025-05-16T12:24:31Z</time>
      </trkpt>
      <trkpt lat="48.10132" lon="-1.6922">
        <ele>83</ele>
        <time>2025-05-16T12:24:32Z</time>
      </trkpt>
      <trkpt lat="48.1013" lon="-1.69214">
        <ele>83</ele>
        <time>2025-05-16T12:24:33Z</time>
      </trkpt>
      <trkpt lat="48.1013" lon="-1.69208">
        <ele>83</ele>
        <time>2025-05-16T12:24:34Z</time>
      </trkpt>
      <trkpt lat="48.10129" lon="-1.69203">
        <ele>83</ele>
        <time>2025-05-16T12:24:35Z</time>
      </trkpt>
      <trkpt lat="48.10129" lon="-1.69198">
        <ele>82</ele>
        <time>2025-05-16T12:24:36Z</time>
      </trkpt>
      <trkpt lat="48.10128" lon="-1.69192">
        <ele>82</ele>
        <time>2025-05-16T12:24:37Z</time>
      </trkpt>
      <trkpt lat="48.10128" lon="-1.69186">
        <ele>82</ele>
        <time>2025-05-16T12:24:38Z</time>
      </trkpt>
      <trkpt lat="48.10128" lon="-1.69181">
        <ele>81</ele>
        <time>2025-05-16T12:24:39Z</time>
      </trkpt>
      <trkpt lat="48.10128" lon="-1.69174">
        <ele>81</ele>
        <time>2025-05-16T12:24:40Z</time>
      </trkpt>
      <trkpt lat="48.10128" lon="-1.69167">
        <ele>82</ele>
        <time>2025-05-16T12:24:41Z</time>
      </trkpt>
      <trkpt lat="48.10128" lon="-1.6916">
        <ele>82</ele>
        <time>2025-05-16T12:24:42Z</time>
      </trkpt>
      <trkpt lat="48.10128" lon="-1.69154">
        <ele>81</ele>
        <time>2025-05-16T12:24:43Z</time>
      </trkpt>
      <trkpt lat="48.10129" lon="-1.69147">
        <ele>81</ele>
        <time>2025-05-16T12:24:44Z</time>
      </trkpt>
      <trkpt lat="48.10129" lon="-1.6914">
        <ele>81</ele>
        <time>2025-05-16T12:24:45Z</time>
      </trkpt>
      <trkpt lat="48.10129" lon="-1.69134">
        <ele>81</ele>
        <time>2025-05-16T12:24:46Z</time>
      </trkpt>
      <trkpt lat="48.10128" lon="-1.69127">
        <ele>81</ele>
        <time>2025-05-16T12:24:47Z</time>
      </trkpt>
      <trkpt lat="48.10128" lon="-1.69121">
        <ele>81</ele>
        <time>2025-05-16T12:24:48Z</time>
      </trkpt>
      <trkpt lat="48.10127" lon="-1.69115">
        <ele>81</ele>
        <time>2025-05-16T12:24:49Z</time>
      </trkpt>
      <trkpt lat="48.10126" lon="-1.6911">
        <ele>81</ele>
        <time>2025-05-16T12:24:50Z</time>
      </trkpt>
      <trkpt lat="48.10125" lon="-1.69105">
        <ele>81</ele>
        <time>2025-05-16T12:24:51Z</time>
      </trkpt>
      <trkpt lat="48.10125" lon="-1.69099">
        <ele>81</ele>
        <time>2025-05-16T12:24:52Z</time>
      </trkpt>
      <trkpt lat="48.10125" lon="-1.69094">
        <ele>81</ele>
        <time>2025-05-16T12:24:53Z</time>
      </trkpt>
      <trkpt lat="48.10125" lon="-1.69089">
        <ele>81</ele>
        <time>2025-05-16T12:24:54Z</time>
      </trkpt>
      <trkpt lat="48.10125" lon="-1.69083">
        <ele>81</ele>
        <time>2025-05-16T12:24:55Z</time>
      </trkpt>
      <trkpt lat="48.10124" lon="-1.69078">
        <ele>81</ele>
        <time>2025-05-16T12:24:56Z</time>
      </trkpt>
      <trkpt lat="48.10124" lon="-1.69072">
        <ele>81</ele>
        <time>2025-05-16T12:24:57Z</time>
      </trkpt>
      <trkpt lat="48.10124" lon="-1.69067">
        <ele>81</ele>
        <time>2025-05-16T12:24:58Z</time>
      </trkpt>
      <trkpt lat="48.10124" lon="-1.69062">
        <ele>81</ele>
        <time>2025-05-16T12:24:59Z</time>
      </trkpt>
      <trkpt lat="48.10124" lon="-1.69057">
        <ele>80</ele>
        <time>2025-05-16T12:25:00Z</time>
      </trkpt>
      <trkpt lat="48.10124" lon="-1.69052">
        <ele>80</ele>
        <time>2025-05-16T12:25:01Z</time>
      </trkpt>
      <trkpt lat="48.10124" lon="-1.69048">
        <ele>80</ele>
        <time>2025-05-16T12:25:02Z</time>
      </trkpt>
      <trkpt lat="48.10124" lon="-1.69044">
        <ele>80</ele>
        <time>2025-05-16T12:25:03Z</time>
      </trkpt>
      <trkpt lat="48.10124" lon="-1.6904">
        <ele>80</ele>
        <time>2025-05-16T12:25:04Z</time>
      </trkpt>
      <trkpt lat="48.10124" lon="-1.69036">
        <ele>81</ele>
        <time>2025-05-16T12:25:05Z</time>
      </trkpt>
      <trkpt lat="48.10124" lon="-1.69033">
        <ele>80</ele>
        <time>2025-05-16T12:25:06Z</time>
      </trkpt>
      <trkpt lat="48.10123" lon="-1.6903">
        <ele>80</ele>
        <time>2025-05-16T12:25:07Z</time>
      </trkpt>
      <trkpt lat="48.10123" lon="-1.69028">
        <ele>80</ele>
        <time>2025-05-16T12:25:08Z</time>
      </trkpt>
      <trkpt lat="48.10123" lon="-1.69027">
        <ele>79</ele>
        <time>2025-05-16T12:25:09Z</time>
      </trkpt>
      <trkpt lat="48.10123" lon="-1.69026">
        <ele>80</ele>
        <time>2025-05-16T12:25:10Z</time>
      </trkpt>
      <trkpt lat="48.10123" lon="-1.69026">
        <ele>80</ele>
        <time>2025-05-16T12:25:11Z</time>
      </trkpt>
      <trkpt lat="48.10123" lon="-1.69026">
        <ele>80</ele>
        <time>2025-05-16T12:25:12Z</time>
      </trkpt>
      <trkpt lat="48.10123" lon="-1.69026">
        <ele>80</ele>
        <time>2025-05-16T12:25:13Z</time>
      </trkpt>
      <trkpt lat="48.10123" lon="-1.69026">
        <ele>80</ele>
        <time>2025-05-16T12:25:14Z</time>
      </trkpt>
      <trkpt lat="48.10123" lon="-1.69026">
        <ele>80</ele>
        <time>2025-05-16T12:25:15Z</time>
      </trkpt>
      <trkpt lat="48.10123" lon="-1.69026">
        <ele>80</ele>
        <time>2025-05-16T12:25:16Z</time>
      </trkpt>
      <trkpt lat="48.10123" lon="-1.69026">
        <ele>80</ele>
        <time>2025-05-16T12:25:17Z</time>
      </trkpt>
      <trkpt lat="48.10123" lon="-1.69026">
        <ele>80</ele>
        <time>2025-05-16T12:25:18Z</time>
      </trkpt>
      <trkpt lat="48.10123" lon="-1.69026">
        <ele>80</ele>
        <time>2025-05-16T12:25:19Z</time>
      </trkpt>
      <trkpt lat="48.10123" lon="-1.69026">
        <ele>80</ele>
        <time>2025-05-16T12:25:20Z</time>
      </trkpt>
      <trkpt lat="48.10123" lon="-1.69026">
        <ele>80</ele>
        <time>2025-05-16T12:25:21Z</time>
      </trkpt>
      <trkpt lat="48.10123" lon="-1.69022">
        <ele>81</ele>
        <time>2025-05-16T12:25:22Z</time>
      </trkpt>
      <trkpt lat="48.10122" lon="-1.69019">
        <ele>81</ele>
        <time>2025-05-16T12:25:23Z</time>
      </trkpt>
      <trkpt lat="48.10122" lon="-1.69015">
        <ele>81</ele>
        <time>2025-05-16T12:25:24Z</time>
      </trkpt>
      <trkpt lat="48.10122" lon="-1.6901">
        <ele>81</ele>
        <time>2025-05-16T12:25:25Z</time>
      </trkpt>
      <trkpt lat="48.10122" lon="-1.69006">
        <ele>82</ele>
        <time>2025-05-16T12:25:26Z</time>
      </trkpt>
      <trkpt lat="48.10121" lon="-1.69001">
        <ele>83</ele>
        <time>2025-05-16T12:25:27Z</time>
      </trkpt>
      <trkpt lat="48.10121" lon="-1.68996">
        <ele>83</ele>
        <time>2025-05-16T12:25:28Z</time>
      </trkpt>
      <trkpt lat="48.10121" lon="-1.68991">
        <ele>82</ele>
        <time>2025-05-16T12:25:29Z</time>
      </trkpt>
      <trkpt lat="48.10121" lon="-1.68986">
        <ele>82</ele>
        <time>2025-05-16T12:25:30Z</time>
      </trkpt>
      <trkpt lat="48.1012" lon="-1.68981">
        <ele>82</ele>
        <time>2025-05-16T12:25:31Z</time>
      </trkpt>
      <trkpt lat="48.1012" lon="-1.68976">
        <ele>81</ele>
        <time>2025-05-16T12:25:32Z</time>
      </trkpt>
      <trkpt lat="48.10119" lon="-1.68971">
        <ele>81</ele>
        <time>2025-05-16T12:25:33Z</time>
      </trkpt>
      <trkpt lat="48.10119" lon="-1.68966">
        <ele>81</ele>
        <time>2025-05-16T12:25:34Z</time>
      </trkpt>
      <trkpt lat="48.10119" lon="-1.68961">
        <ele>80</ele>
        <time>2025-05-16T12:25:35Z</time>
      </trkpt>
      <trkpt lat="48.1012" lon="-1.68956">
        <ele>79</ele>
        <time>2025-05-16T12:25:36Z</time>
      </trkpt>
      <trkpt lat="48.1012" lon="-1.68951">
        <ele>79</ele>
        <time>2025-05-16T12:25:37Z</time>
      </trkpt>
      <trkpt lat="48.1012" lon="-1.68947">
        <ele>79</ele>
        <time>2025-05-16T12:25:38Z</time>
      </trkpt>
      <trkpt lat="48.1012" lon="-1.68942">
        <ele>79</ele>
        <time>2025-05-16T12:25:39Z</time>
      </trkpt>
      <trkpt lat="48.1012" lon="-1.68937">
        <ele>79</ele>
        <time>2025-05-16T12:25:40Z</time>
      </trkpt>
      <trkpt lat="48.1012" lon="-1.68932">
        <ele>79</ele>
        <time>2025-05-16T12:25:41Z</time>
      </trkpt>
      <trkpt lat="48.1012" lon="-1.68927">
        <ele>79</ele>
        <time>2025-05-16T12:25:42Z</time>
      </trkpt>
      <trkpt lat="48.10121" lon="-1.68922">
        <ele>79</ele>
        <time>2025-05-16T12:25:43Z</time>
      </trkpt>
      <trkpt lat="48.10121" lon="-1.68918">
        <ele>79</ele>
        <time>2025-05-16T12:25:44Z</time>
      </trkpt>
      <trkpt lat="48.10121" lon="-1.68913">
        <ele>80</ele>
        <time>2025-05-16T12:25:45Z</time>
      </trkpt>
      <trkpt lat="48.10121" lon="-1.68908">
        <ele>80</ele>
        <time>2025-05-16T12:25:46Z</time>
      </trkpt>
      <trkpt lat="48.10122" lon="-1.68904">
        <ele>80</ele>
        <time>2025-05-16T12:25:47Z</time>
      </trkpt>
      <trkpt lat="48.10122" lon="-1.68899">
        <ele>80</ele>
        <time>2025-05-16T12:25:48Z</time>
      </trkpt>
      <trkpt lat="48.10122" lon="-1.68894">
        <ele>80</ele>
        <time>2025-05-16T12:25:49Z</time>
      </trkpt>
      <trkpt lat="48.10122" lon="-1.6889">
        <ele>80</ele>
        <time>2025-05-16T12:25:50Z</time>
      </trkpt>
      <trkpt lat="48.10123" lon="-1.68885">
        <ele>80</ele>
        <time>2025-05-16T12:25:51Z</time>
      </trkpt>
      <trkpt lat="48.10124" lon="-1.6888">
        <ele>80</ele>
        <time>2025-05-16T12:25:52Z</time>
      </trkpt>
      <trkpt lat="48.10125" lon="-1.68875">
        <ele>80</ele>
        <time>2025-05-16T12:25:53Z</time>
      </trkpt>
      <trkpt lat="48.10125" lon="-1.68869">
        <ele>80</ele>
        <time>2025-05-16T12:25:54Z</time>
      </trkpt>
      <trkpt lat="48.10126" lon="-1.68863">
        <ele>80</ele>
        <time>2025-05-16T12:25:55Z</time>
      </trkpt>
      <trkpt lat="48.10126" lon="-1.68858">
        <ele>80</ele>
        <time>2025-05-16T12:25:56Z</time>
      </trkpt>
      <trkpt lat="48.10127" lon="-1.68853">
        <ele>80</ele>
        <time>2025-05-16T12:25:57Z</time>
      </trkpt>
      <trkpt lat="48.10127" lon="-1.68849">
        <ele>80</ele>
        <time>2025-05-16T12:25:58Z</time>
      </trkpt>
      <trkpt lat="48.10127" lon="-1.68844">
        <ele>80</ele>
        <time>2025-05-16T12:25:59Z</time>
      </trkpt>
      <trkpt lat="48.10127" lon="-1.68839">
        <ele>80</ele>
        <time>2025-05-16T12:26:00Z</time>
      </trkpt>
      <trkpt lat="48.10128" lon="-1.68834">
        <ele>80</ele>
        <time>2025-05-16T12:26:01Z</time>
      </trkpt>
      <trkpt lat="48.10129" lon="-1.68829">
        <ele>80</ele>
        <time>2025-05-16T12:26:02Z</time>
      </trkpt>
      <trkpt lat="48.10129" lon="-1.68824">
        <ele>79</ele>
        <time>2025-05-16T12:26:03Z</time>
      </trkpt>
      <trkpt lat="48.1013" lon="-1.68819">
        <ele>79</ele>
        <time>2025-05-16T12:26:04Z</time>
      </trkpt>
      <trkpt lat="48.1013" lon="-1.68813">
        <ele>79</ele>
        <time>2025-05-16T12:26:05Z</time>
      </trkpt>
      <trkpt lat="48.10131" lon="-1.68808">
        <ele>80</ele>
        <time>2025-05-16T12:26:06Z</time>
      </trkpt>
      <trkpt lat="48.10132" lon="-1.68803">
        <ele>80</ele>
        <time>2025-05-16T12:26:07Z</time>
      </trkpt>
      <trkpt lat="48.10133" lon="-1.68798">
        <ele>80</ele>
        <time>2025-05-16T12:26:08Z</time>
      </trkpt>
      <trkpt lat="48.10133" lon="-1.68793">
        <ele>80</ele>
        <time>2025-05-16T12:26:09Z</time>
      </trkpt>
      <trkpt lat="48.10135" lon="-1.68788">
        <ele>80</ele>
        <time>2025-05-16T12:26:10Z</time>
      </trkpt>
      <trkpt lat="48.10136" lon="-1.68782">
        <ele>79</ele>
        <time>2025-05-16T12:26:11Z</time>
      </trkpt>
      <trkpt lat="48.10137" lon="-1.68777">
        <ele>79</ele>
        <time>2025-05-16T12:26:12Z</time>
      </trkpt>
      <trkpt lat="48.10138" lon="-1.68771">
        <ele>79</ele>
        <time>2025-05-16T12:26:13Z</time>
      </trkpt>
      <trkpt lat="48.10139" lon="-1.68766">
        <ele>79</ele>
        <time>2025-05-16T12:26:14Z</time>
      </trkpt>
      <trkpt lat="48.10139" lon="-1.6876">
        <ele>79</ele>
        <time>2025-05-16T12:26:15Z</time>
      </trkpt>
      <trkpt lat="48.1014" lon="-1.68755">
        <ele>79</ele>
        <time>2025-05-16T12:26:16Z</time>
      </trkpt>
      <trkpt lat="48.1014" lon="-1.68749">
        <ele>79</ele>
        <time>2025-05-16T12:26:17Z</time>
      </trkpt>
      <trkpt lat="48.10141" lon="-1.68744">
        <ele>79</ele>
        <time>2025-05-16T12:26:18Z</time>
      </trkpt>
      <trkpt lat="48.10142" lon="-1.68738">
        <ele>79</ele>
        <time>2025-05-16T12:26:19Z</time>
      </trkpt>
      <trkpt lat="48.10143" lon="-1.68733">
        <ele>79</ele>
        <time>2025-05-16T12:26:20Z</time>
      </trkpt>
      <trkpt lat="48.10143" lon="-1.68726">
        <ele>79</ele>
        <time>2025-05-16T12:26:21Z</time>
      </trkpt>
      <trkpt lat="48.10144" lon="-1.6872">
        <ele>79</ele>
        <time>2025-05-16T12:26:22Z</time>
      </trkpt>
      <trkpt lat="48.10144" lon="-1.68714">
        <ele>79</ele>
        <time>2025-05-16T12:26:23Z</time>
      </trkpt>
      <trkpt lat="48.10144" lon="-1.68708">
        <ele>79</ele>
        <time>2025-05-16T12:26:24Z</time>
      </trkpt>
      <trkpt lat="48.10145" lon="-1.68703">
        <ele>79</ele>
        <time>2025-05-16T12:26:25Z</time>
      </trkpt>
      <trkpt lat="48.10146" lon="-1.68696">
        <ele>79</ele>
        <time>2025-05-16T12:26:26Z</time>
      </trkpt>
      <trkpt lat="48.10147" lon="-1.6869">
        <ele>79</ele>
        <time>2025-05-16T12:26:27Z</time>
      </trkpt>
      <trkpt lat="48.10148" lon="-1.68684">
        <ele>78</ele>
        <time>2025-05-16T12:26:28Z</time>
      </trkpt>
      <trkpt lat="48.10149" lon="-1.68679">
        <ele>78</ele>
        <time>2025-05-16T12:26:29Z</time>
      </trkpt>
      <trkpt lat="48.1015" lon="-1.68673">
        <ele>78</ele>
        <time>2025-05-16T12:26:30Z</time>
      </trkpt>
      <trkpt lat="48.1015" lon="-1.68667">
        <ele>78</ele>
        <time>2025-05-16T12:26:31Z</time>
      </trkpt>
      <trkpt lat="48.10151" lon="-1.68662">
        <ele>78</ele>
        <time>2025-05-16T12:26:32Z</time>
      </trkpt>
      <trkpt lat="48.10151" lon="-1.68656">
        <ele>79</ele>
        <time>2025-05-16T12:26:33Z</time>
      </trkpt>
      <trkpt lat="48.10152" lon="-1.68651">
        <ele>79</ele>
        <time>2025-05-16T12:26:34Z</time>
      </trkpt>
      <trkpt lat="48.10153" lon="-1.68645">
        <ele>79</ele>
        <time>2025-05-16T12:26:35Z</time>
      </trkpt>
      <trkpt lat="48.10153" lon="-1.68639">
        <ele>79</ele>
        <time>2025-05-16T12:26:36Z</time>
      </trkpt>
      <trkpt lat="48.10154" lon="-1.68634">
        <ele>79</ele>
        <time>2025-05-16T12:26:37Z</time>
      </trkpt>
      <trkpt lat="48.10155" lon="-1.68628">
        <ele>79</ele>
        <time>2025-05-16T12:26:38Z</time>
      </trkpt>
      <trkpt lat="48.10156" lon="-1.68623">
        <ele>79</ele>
        <time>2025-05-16T12:26:39Z</time>
      </trkpt>
      <trkpt lat="48.10157" lon="-1.68617">
        <ele>79</ele>
        <time>2025-05-16T12:26:40Z</time>
      </trkpt>
      <trkpt lat="48.10157" lon="-1.68611">
        <ele>79</ele>
        <time>2025-05-16T12:26:41Z</time>
      </trkpt>
      <trkpt lat="48.10158" lon="-1.68605">
        <ele>79</ele>
        <time>2025-05-16T12:26:42Z</time>
      </trkpt>
      <trkpt lat="48.10159" lon="-1.68599">
        <ele>79</ele>
        <time>2025-05-16T12:26:43Z</time>
      </trkpt>
      <trkpt lat="48.1016" lon="-1.68594">
        <ele>79</ele>
        <time>2025-05-16T12:26:44Z</time>
      </trkpt>
      <trkpt lat="48.10161" lon="-1.68589">
        <ele>79</ele>
        <time>2025-05-16T12:26:45Z</time>
      </trkpt>
      <trkpt lat="48.10162" lon="-1.68583">
        <ele>79</ele>
        <time>2025-05-16T12:26:46Z</time>
      </trkpt>
      <trkpt lat="48.10162" lon="-1.68577">
        <ele>78</ele>
        <time>2025-05-16T12:26:47Z</time>
      </trkpt>
      <trkpt lat="48.10163" lon="-1.68572">
        <ele>78</ele>
        <time>2025-05-16T12:26:48Z</time>
      </trkpt>
      <trkpt lat="48.10163" lon="-1.68566">
        <ele>78</ele>
        <time>2025-05-16T12:26:49Z</time>
      </trkpt>
      <trkpt lat="48.10164" lon="-1.6856">
        <ele>78</ele>
        <time>2025-05-16T12:26:50Z</time>
      </trkpt>
      <trkpt lat="48.10165" lon="-1.68555">
        <ele>78</ele>
        <time>2025-05-16T12:26:51Z</time>
      </trkpt>
      <trkpt lat="48.10166" lon="-1.68549">
        <ele>78</ele>
        <time>2025-05-16T12:26:52Z</time>
      </trkpt>
      <trkpt lat="48.10167" lon="-1.68544">
        <ele>78</ele>
        <time>2025-05-16T12:26:53Z</time>
      </trkpt>
      <trkpt lat="48.10167" lon="-1.68538">
        <ele>78</ele>
        <time>2025-05-16T12:26:54Z</time>
      </trkpt>
      <trkpt lat="48.10168" lon="-1.68533">
        <ele>78</ele>
        <time>2025-05-16T12:26:55Z</time>
      </trkpt>
      <trkpt lat="48.10168" lon="-1.68528">
        <ele>77</ele>
        <time>2025-05-16T12:26:56Z</time>
      </trkpt>
      <trkpt lat="48.10169" lon="-1.68522">
        <ele>77</ele>
        <time>2025-05-16T12:26:57Z</time>
      </trkpt>
      <trkpt lat="48.10171" lon="-1.68516">
        <ele>76</ele>
        <time>2025-05-16T12:26:58Z</time>
      </trkpt>
      <trkpt lat="48.10171" lon="-1.6851">
        <ele>76</ele>
        <time>2025-05-16T12:26:59Z</time>
      </trkpt>
      <trkpt lat="48.10172" lon="-1.68505">
        <ele>77</ele>
        <time>2025-05-16T12:27:00Z</time>
      </trkpt>
      <trkpt lat="48.10173" lon="-1.685">
        <ele>77</ele>
        <time>2025-05-16T12:27:01Z</time>
      </trkpt>
      <trkpt lat="48.10174" lon="-1.68495">
        <ele>77</ele>
        <time>2025-05-16T12:27:02Z</time>
      </trkpt>
      <trkpt lat="48.10174" lon="-1.68491">
        <ele>77</ele>
        <time>2025-05-16T12:27:03Z</time>
      </trkpt>
      <trkpt lat="48.10175" lon="-1.68488">
        <ele>78</ele>
        <time>2025-05-16T12:27:04Z</time>
      </trkpt>
      <trkpt lat="48.10175" lon="-1.68485">
        <ele>78</ele>
        <time>2025-05-16T12:27:05Z</time>
      </trkpt>
      <trkpt lat="48.10176" lon="-1.68481">
        <ele>78</ele>
        <time>2025-05-16T12:27:06Z</time>
      </trkpt>
      <trkpt lat="48.10176" lon="-1.68479">
        <ele>78</ele>
        <time>2025-05-16T12:27:07Z</time>
      </trkpt>
      <trkpt lat="48.10176" lon="-1.68476">
        <ele>78</ele>
        <time>2025-05-16T12:27:08Z</time>
      </trkpt>
      <trkpt lat="48.10175" lon="-1.68473">
        <ele>77</ele>
        <time>2025-05-16T12:27:09Z</time>
      </trkpt>
      <trkpt lat="48.10173" lon="-1.6847">
        <ele>78</ele>
        <time>2025-05-16T12:27:10Z</time>
      </trkpt>
      <trkpt lat="48.10172" lon="-1.68466">
        <ele>78</ele>
        <time>2025-05-16T12:27:11Z</time>
      </trkpt>
      <trkpt lat="48.10172" lon="-1.68463">
        <ele>78</ele>
        <time>2025-05-16T12:27:12Z</time>
      </trkpt>
      <trkpt lat="48.10173" lon="-1.68461">
        <ele>78</ele>
        <time>2025-05-16T12:27:13Z</time>
      </trkpt>
      <trkpt lat="48.10173" lon="-1.68459">
        <ele>78</ele>
        <time>2025-05-16T12:27:14Z</time>
      </trkpt>
      <trkpt lat="48.10173" lon="-1.68459">
        <ele>78</ele>
        <time>2025-05-16T12:27:15Z</time>
      </trkpt>
      <trkpt lat="48.10173" lon="-1.68459">
        <ele>78</ele>
        <time>2025-05-16T12:27:16Z</time>
      </trkpt>
      <trkpt lat="48.10173" lon="-1.68459">
        <ele>78</ele>
        <time>2025-05-16T12:27:17Z</time>
      </trkpt>
      <trkpt lat="48.10173" lon="-1.68459">
        <ele>78</ele>
        <time>2025-05-16T12:27:18Z</time>
      </trkpt>
      <trkpt lat="48.10173" lon="-1.68459">
        <ele>78</ele>
        <time>2025-05-16T12:27:19Z</time>
      </trkpt>
      <trkpt lat="48.10173" lon="-1.68459">
        <ele>78</ele>
        <time>2025-05-16T12:27:20Z</time>
      </trkpt>
      <trkpt lat="48.10173" lon="-1.68459">
        <ele>78</ele>
        <time>2025-05-16T12:27:21Z</time>
      </trkpt>
      <trkpt lat="48.10173" lon="-1.68459">
        <ele>78</ele>
        <time>2025-05-16T12:27:22Z</time>
      </trkpt>
      <trkpt lat="48.10173" lon="-1.68459">
        <ele>78</ele>
        <time>2025-05-16T12:27:23Z</time>
      </trkpt>
      <trkpt lat="48.10173" lon="-1.68459">
        <ele>78</ele>
        <time>2025-05-16T12:27:24Z</time>
      </trkpt>
      <trkpt lat="48.10173" lon="-1.68459">
        <ele>78</ele>
        <time>2025-05-16T12:27:25Z</time>
      </trkpt>
      <trkpt lat="48.10173" lon="-1.68459">
        <ele>78</ele>
        <time>2025-05-16T12:27:26Z</time>
      </trkpt>
      <trkpt lat="48.10173" lon="-1.68459">
        <ele>78</ele>
        <time>2025-05-16T12:27:27Z</time>
      </trkpt>
      <trkpt lat="48.10173" lon="-1.68459">
        <ele>78</ele>
        <time>2025-05-16T12:27:28Z</time>
      </trkpt>
      <trkpt lat="48.10173" lon="-1.68459">
        <ele>78</ele>
        <time>2025-05-16T12:27:29Z</time>
      </trkpt>
      <trkpt lat="48.10173" lon="-1.68459">
        <ele>78</ele>
        <time>2025-05-16T12:27:30Z</time>
      </trkpt>
      <trkpt lat="48.10173" lon="-1.68459">
        <ele>78</ele>
        <time>2025-05-16T12:27:31Z</time>
      </trkpt>
      <trkpt lat="48.10173" lon="-1.68459">
        <ele>78</ele>
        <time>2025-05-16T12:27:32Z</time>
      </trkpt>
      <trkpt lat="48.10173" lon="-1.68459">
        <ele>78</ele>
        <time>2025-05-16T12:27:33Z</time>
      </trkpt>
      <trkpt lat="48.10173" lon="-1.68459">
        <ele>78</ele>
        <time>2025-05-16T12:27:34Z</time>
      </trkpt>
      <trkpt lat="48.10173" lon="-1.68459">
        <ele>78</ele>
        <time>2025-05-16T12:27:35Z</time>
      </trkpt>
      <trkpt lat="48.10173" lon="-1.68459">
        <ele>78</ele>
        <time>2025-05-16T12:27:36Z</time>
      </trkpt>
      <trkpt lat="48.10173" lon="-1.68459">
        <ele>78</ele>
        <time>2025-05-16T12:27:37Z</time>
      </trkpt>
      <trkpt lat="48.10173" lon="-1.68456">
        <ele>78</ele>
        <time>2025-05-16T12:27:38Z</time>
      </trkpt>
      <trkpt lat="48.10174" lon="-1.68454">
        <ele>78</ele>
        <time>2025-05-16T12:27:39Z</time>
      </trkpt>
      <trkpt lat="48.10174" lon="-1.68451">
        <ele>78</ele>
        <time>2025-05-16T12:27:40Z</time>
      </trkpt>
      <trkpt lat="48.10174" lon="-1.68447">
        <ele>78</ele>
        <time>2025-05-16T12:27:41Z</time>
      </trkpt>
      <trkpt lat="48.10175" lon="-1.68443">
        <ele>78</ele>
        <time>2025-05-16T12:27:42Z</time>
      </trkpt>
      <trkpt lat="48.10175" lon="-1.68438">
        <ele>78</ele>
        <time>2025-05-16T12:27:43Z</time>
      </trkpt>
      <trkpt lat="48.10176" lon="-1.68434">
        <ele>78</ele>
        <time>2025-05-16T12:27:44Z</time>
      </trkpt>
      <trkpt lat="48.10177" lon="-1.68429">
        <ele>78</ele>
        <time>2025-05-16T12:27:45Z</time>
      </trkpt>
      <trkpt lat="48.10179" lon="-1.68425">
        <ele>78</ele>
        <time>2025-05-16T12:27:46Z</time>
      </trkpt>
      <trkpt lat="48.1018" lon="-1.6842">
        <ele>78</ele>
        <time>2025-05-16T12:27:47Z</time>
      </trkpt>
      <trkpt lat="48.10181" lon="-1.68415">
        <ele>77</ele>
        <time>2025-05-16T12:27:48Z</time>
      </trkpt>
      <trkpt lat="48.10183" lon="-1.6841">
        <ele>77</ele>
        <time>2025-05-16T12:27:49Z</time>
      </trkpt>
      <trkpt lat="48.10185" lon="-1.68405">
        <ele>76</ele>
        <time>2025-05-16T12:27:50Z</time>
      </trkpt>
      <trkpt lat="48.10185" lon="-1.68399">
        <ele>76</ele>
        <time>2025-05-16T12:27:51Z</time>
      </trkpt>
      <trkpt lat="48.10186" lon="-1.68393">
        <ele>76</ele>
        <time>2025-05-16T12:27:52Z</time>
      </trkpt>
      <trkpt lat="48.10187" lon="-1.68387">
        <ele>76</ele>
        <time>2025-05-16T12:27:53Z</time>
      </trkpt>
      <trkpt lat="48.10188" lon="-1.68382">
        <ele>76</ele>
        <time>2025-05-16T12:27:54Z</time>
      </trkpt>
      <trkpt lat="48.10188" lon="-1.68376">
        <ele>76</ele>
        <time>2025-05-16T12:27:55Z</time>
      </trkpt>
      <trkpt lat="48.10188" lon="-1.6837">
        <ele>76</ele>
        <time>2025-05-16T12:27:56Z</time>
      </trkpt>
      <trkpt lat="48.10189" lon="-1.68364">
        <ele>76</ele>
        <time>2025-05-16T12:27:57Z</time>
      </trkpt>
      <trkpt lat="48.1019" lon="-1.68358">
        <ele>76</ele>
        <time>2025-05-16T12:27:58Z</time>
      </trkpt>
      <trkpt lat="48.10191" lon="-1.68351">
        <ele>77</ele>
        <time>2025-05-16T12:27:59Z</time>
      </trkpt>
      <trkpt lat="48.10191" lon="-1.68345">
        <ele>76</ele>
        <time>2025-05-16T12:28:00Z</time>
      </trkpt>
      <trkpt lat="48.10192" lon="-1.68339">
        <ele>76</ele>
        <time>2025-05-16T12:28:01Z</time>
      </trkpt>
      <trkpt lat="48.10192" lon="-1.68333">
        <ele>76</ele>
        <time>2025-05-16T12:28:02Z</time>
      </trkpt>
      <trkpt lat="48.10193" lon="-1.68327">
        <ele>76</ele>
        <time>2025-05-16T12:28:03Z</time>
      </trkpt>
      <trkpt lat="48.10194" lon="-1.68321">
        <ele>76</ele>
        <time>2025-05-16T12:28:04Z</time>
      </trkpt>
      <trkpt lat="48.10194" lon="-1.68316">
        <ele>76</ele>
        <time>2025-05-16T12:28:05Z</time>
      </trkpt>
      <trkpt lat="48.10195" lon="-1.6831">
        <ele>77</ele>
        <time>2025-05-16T12:28:06Z</time>
      </trkpt>
      <trkpt lat="48.10195" lon="-1.68304">
        <ele>76</ele>
        <time>2025-05-16T12:28:07Z</time>
      </trkpt>
      <trkpt lat="48.10195" lon="-1.68299">
        <ele>76</ele>
        <time>2025-05-16T12:28:08Z</time>
      </trkpt>
      <trkpt lat="48.10196" lon="-1.68293">
        <ele>75</ele>
        <time>2025-05-16T12:28:09Z</time>
      </trkpt>
      <trkpt lat="48.10198" lon="-1.68287">
        <ele>75</ele>
        <time>2025-05-16T12:28:10Z</time>
      </trkpt>
      <trkpt lat="48.10199" lon="-1.6828">
        <ele>74</ele>
        <time>2025-05-16T12:28:11Z</time>
      </trkpt>
      <trkpt lat="48.102" lon="-1.68274">
        <ele>74</ele>
        <time>2025-05-16T12:28:12Z</time>
      </trkpt>
      <trkpt lat="48.10201" lon="-1.68269">
        <ele>74</ele>
        <time>2025-05-16T12:28:13Z</time>
      </trkpt>
      <trkpt lat="48.10203" lon="-1.68263">
        <ele>74</ele>
        <time>2025-05-16T12:28:14Z</time>
      </trkpt>
      <trkpt lat="48.10204" lon="-1.68257">
        <ele>74</ele>
        <time>2025-05-16T12:28:15Z</time>
      </trkpt>
      <trkpt lat="48.10204" lon="-1.68251">
        <ele>75</ele>
        <time>2025-05-16T12:28:16Z</time>
      </trkpt>
      <trkpt lat="48.10205" lon="-1.68245">
        <ele>75</ele>
        <time>2025-05-16T12:28:17Z</time>
      </trkpt>
      <trkpt lat="48.10206" lon="-1.68239">
        <ele>75</ele>
        <time>2025-05-16T12:28:18Z</time>
      </trkpt>
      <trkpt lat="48.10207" lon="-1.68232">
        <ele>75</ele>
        <time>2025-05-16T12:28:19Z</time>
      </trkpt>
      <trkpt lat="48.10208" lon="-1.68226">
        <ele>76</ele>
        <time>2025-05-16T12:28:20Z</time>
      </trkpt>
      <trkpt lat="48.10209" lon="-1.6822">
        <ele>76</ele>
        <time>2025-05-16T12:28:21Z</time>
      </trkpt>
      <trkpt lat="48.10209" lon="-1.68213">
        <ele>76</ele>
        <time>2025-05-16T12:28:22Z</time>
      </trkpt>
      <trkpt lat="48.1021" lon="-1.68207">
        <ele>77</ele>
        <time>2025-05-16T12:28:23Z</time>
      </trkpt>
      <trkpt lat="48.10211" lon="-1.68201">
        <ele>77</ele>
        <time>2025-05-16T12:28:24Z</time>
      </trkpt>
      <trkpt lat="48.10212" lon="-1.68195">
        <ele>77</ele>
        <time>2025-05-16T12:28:25Z</time>
      </trkpt>
      <trkpt lat="48.10213" lon="-1.68189">
        <ele>77</ele>
        <time>2025-05-16T12:28:26Z</time>
      </trkpt>
      <trkpt lat="48.10214" lon="-1.68182">
        <ele>77</ele>
        <time>2025-05-16T12:28:27Z</time>
      </trkpt>
      <trkpt lat="48.10214" lon="-1.68175">
        <ele>77</ele>
        <time>2025-05-16T12:28:28Z</time>
      </trkpt>
      <trkpt lat="48.10215" lon="-1.68169">
        <ele>77</ele>
        <time>2025-05-16T12:28:29Z</time>
      </trkpt>
      <trkpt lat="48.10216" lon="-1.68162">
        <ele>77</ele>
        <time>2025-05-16T12:28:30Z</time>
      </trkpt>
      <trkpt lat="48.10217" lon="-1.68155">
        <ele>77</ele>
        <time>2025-05-16T12:28:31Z</time>
      </trkpt>
      <trkpt lat="48.10218" lon="-1.68148">
        <ele>77</ele>
        <time>2025-05-16T12:28:32Z</time>
      </trkpt>
      <trkpt lat="48.10219" lon="-1.68141">
        <ele>77</ele>
        <time>2025-05-16T12:28:33Z</time>
      </trkpt>
      <trkpt lat="48.10219" lon="-1.68135">
        <ele>76</ele>
        <time>2025-05-16T12:28:34Z</time>
      </trkpt>
      <trkpt lat="48.1022" lon="-1.68128">
        <ele>76</ele>
        <time>2025-05-16T12:28:35Z</time>
      </trkpt>
      <trkpt lat="48.10221" lon="-1.68121">
        <ele>76</ele>
        <time>2025-05-16T12:28:36Z</time>
      </trkpt>
      <trkpt lat="48.10221" lon="-1.68114">
        <ele>76</ele>
        <time>2025-05-16T12:28:37Z</time>
      </trkpt>
      <trkpt lat="48.10222" lon="-1.68107">
        <ele>76</ele>
        <time>2025-05-16T12:28:38Z</time>
      </trkpt>
      <trkpt lat="48.10222" lon="-1.681">
        <ele>75</ele>
        <time>2025-05-16T12:28:39Z</time>
      </trkpt>
      <trkpt lat="48.10223" lon="-1.68094">
        <ele>75</ele>
        <time>2025-05-16T12:28:40Z</time>
      </trkpt>
      <trkpt lat="48.10223" lon="-1.68087">
        <ele>75</ele>
        <time>2025-05-16T12:28:41Z</time>
      </trkpt>
      <trkpt lat="48.10224" lon="-1.6808">
        <ele>75</ele>
        <time>2025-05-16T12:28:42Z</time>
      </trkpt>
      <trkpt lat="48.10225" lon="-1.68073">
        <ele>75</ele>
        <time>2025-05-16T12:28:43Z</time>
      </trkpt>
      <trkpt lat="48.10226" lon="-1.68066">
        <ele>75</ele>
        <time>2025-05-16T12:28:44Z</time>
      </trkpt>
      <trkpt lat="48.10227" lon="-1.6806">
        <ele>75</ele>
        <time>2025-05-16T12:28:45Z</time>
      </trkpt>
      <trkpt lat="48.10228" lon="-1.68052">
        <ele>75</ele>
        <time>2025-05-16T12:28:46Z</time>
      </trkpt>
      <trkpt lat="48.10228" lon="-1.68045">
        <ele>74</ele>
        <time>2025-05-16T12:28:47Z</time>
      </trkpt>
      <trkpt lat="48.10229" lon="-1.68038">
        <ele>75</ele>
        <time>2025-05-16T12:28:48Z</time>
      </trkpt>
      <trkpt lat="48.1023" lon="-1.68032">
        <ele>75</ele>
        <time>2025-05-16T12:28:49Z</time>
      </trkpt>
      <trkpt lat="48.10231" lon="-1.68025">
        <ele>75</ele>
        <time>2025-05-16T12:28:50Z</time>
      </trkpt>
      <trkpt lat="48.10231" lon="-1.68018">
        <ele>75</ele>
        <time>2025-05-16T12:28:51Z</time>
      </trkpt>
      <trkpt lat="48.10232" lon="-1.68011">
        <ele>75</ele>
        <time>2025-05-16T12:28:52Z</time>
      </trkpt>
      <trkpt lat="48.10233" lon="-1.68005">
        <ele>75</ele>
        <time>2025-05-16T12:28:53Z</time>
      </trkpt>
      <trkpt lat="48.10234" lon="-1.67998">
        <ele>75</ele>
        <time>2025-05-16T12:28:54Z</time>
      </trkpt>
      <trkpt lat="48.10234" lon="-1.67991">
        <ele>75</ele>
        <time>2025-05-16T12:28:55Z</time>
      </trkpt>
      <trkpt lat="48.10235" lon="-1.67985">
        <ele>75</ele>
        <time>2025-05-16T12:28:56Z</time>
      </trkpt>
      <trkpt lat="48.10236" lon="-1.67978">
        <ele>75</ele>
        <time>2025-05-16T12:28:57Z</time>
      </trkpt>
      <trkpt lat="48.10237" lon="-1.67972">
        <ele>75</ele>
        <time>2025-05-16T12:28:58Z</time>
      </trkpt>
      <trkpt lat="48.10238" lon="-1.67965">
        <ele>75</ele>
        <time>2025-05-16T12:28:59Z</time>
      </trkpt>
      <trkpt lat="48.10238" lon="-1.67959">
        <ele>75</ele>
        <time>2025-05-16T12:29:00Z</time>
      </trkpt>
      <trkpt lat="48.10239" lon="-1.67953">
        <ele>75</ele>
        <time>2025-05-16T12:29:01Z</time>
      </trkpt>
      <trkpt lat="48.1024" lon="-1.67946">
        <ele>75</ele>
        <time>2025-05-16T12:29:02Z</time>
      </trkpt>
      <trkpt lat="48.10241" lon="-1.6794">
        <ele>76</ele>
        <time>2025-05-16T12:29:03Z</time>
      </trkpt>
      <trkpt lat="48.10242" lon="-1.67934">
        <ele>76</ele>
        <time>2025-05-16T12:29:04Z</time>
      </trkpt>
      <trkpt lat="48.10243" lon="-1.67928">
        <ele>77</ele>
        <time>2025-05-16T12:29:05Z</time>
      </trkpt>
      <trkpt lat="48.10244" lon="-1.67922">
        <ele>78</ele>
        <time>2025-05-16T12:29:06Z</time>
      </trkpt>
      <trkpt lat="48.10245" lon="-1.67916">
        <ele>79</ele>
        <time>2025-05-16T12:29:07Z</time>
      </trkpt>
      <trkpt lat="48.10246" lon="-1.6791">
        <ele>80</ele>
        <time>2025-05-16T12:29:08Z</time>
      </trkpt>
      <trkpt lat="48.10247" lon="-1.67904">
        <ele>80</ele>
        <time>2025-05-16T12:29:09Z</time>
      </trkpt>
      <trkpt lat="48.10248" lon="-1.67899">
        <ele>81</ele>
        <time>2025-05-16T12:29:10Z</time>
      </trkpt>
      <trkpt lat="48.10249" lon="-1.67893">
        <ele>81</ele>
        <time>2025-05-16T12:29:11Z</time>
      </trkpt>
      <trkpt lat="48.1025" lon="-1.67888">
        <ele>81</ele>
        <time>2025-05-16T12:29:12Z</time>
      </trkpt>
      <trkpt lat="48.10251" lon="-1.67883">
        <ele>81</ele>
        <time>2025-05-16T12:29:13Z</time>
      </trkpt>
      <trkpt lat="48.10252" lon="-1.67877">
        <ele>81</ele>
        <time>2025-05-16T12:29:14Z</time>
      </trkpt>
      <trkpt lat="48.10253" lon="-1.67871">
        <ele>82</ele>
        <time>2025-05-16T12:29:15Z</time>
      </trkpt>
      <trkpt lat="48.10254" lon="-1.67866">
        <ele>82</ele>
        <time>2025-05-16T12:29:16Z</time>
      </trkpt>
      <trkpt lat="48.10254" lon="-1.6786">
        <ele>82</ele>
        <time>2025-05-16T12:29:17Z</time>
      </trkpt>
      <trkpt lat="48.10255" lon="-1.67854">
        <ele>82</ele>
        <time>2025-05-16T12:29:18Z</time>
      </trkpt>
      <trkpt lat="48.10256" lon="-1.67848">
        <ele>83</ele>
        <time>2025-05-16T12:29:19Z</time>
      </trkpt>
      <trkpt lat="48.10257" lon="-1.67843">
        <ele>83</ele>
        <time>2025-05-16T12:29:20Z</time>
      </trkpt>
      <trkpt lat="48.10258" lon="-1.67837">
        <ele>83</ele>
        <time>2025-05-16T12:29:21Z</time>
      </trkpt>
      <trkpt lat="48.10258" lon="-1.67832">
        <ele>82</ele>
        <time>2025-05-16T12:29:22Z</time>
      </trkpt>
      <trkpt lat="48.10259" lon="-1.67826">
        <ele>82</ele>
        <time>2025-05-16T12:29:23Z</time>
      </trkpt>
      <trkpt lat="48.1026" lon="-1.67821">
        <ele>82</ele>
        <time>2025-05-16T12:29:24Z</time>
      </trkpt>
      <trkpt lat="48.10261" lon="-1.67815">
        <ele>82</ele>
        <time>2025-05-16T12:29:25Z</time>
      </trkpt>
      <trkpt lat="48.10262" lon="-1.6781">
        <ele>81</ele>
        <time>2025-05-16T12:29:26Z</time>
      </trkpt>
      <trkpt lat="48.10263" lon="-1.67804">
        <ele>81</ele>
        <time>2025-05-16T12:29:27Z</time>
      </trkpt>
      <trkpt lat="48.10264" lon="-1.67799">
        <ele>81</ele>
        <time>2025-05-16T12:29:28Z</time>
      </trkpt>
      <trkpt lat="48.10265" lon="-1.67793">
        <ele>81</ele>
        <time>2025-05-16T12:29:29Z</time>
      </trkpt>
      <trkpt lat="48.10266" lon="-1.67788">
        <ele>80</ele>
        <time>2025-05-16T12:29:30Z</time>
      </trkpt>
      <trkpt lat="48.10268" lon="-1.67782">
        <ele>80</ele>
        <time>2025-05-16T12:29:31Z</time>
      </trkpt>
      <trkpt lat="48.10269" lon="-1.67777">
        <ele>80</ele>
        <time>2025-05-16T12:29:32Z</time>
      </trkpt>
      <trkpt lat="48.1027" lon="-1.67771">
        <ele>80</ele>
        <time>2025-05-16T12:29:33Z</time>
      </trkpt>
      <trkpt lat="48.10272" lon="-1.67766">
        <ele>80</ele>
        <time>2025-05-16T12:29:34Z</time>
      </trkpt>
      <trkpt lat="48.10273" lon="-1.6776">
        <ele>81</ele>
        <time>2025-05-16T12:29:35Z</time>
      </trkpt>
      <trkpt lat="48.10275" lon="-1.67755">
        <ele>81</ele>
        <time>2025-05-16T12:29:36Z</time>
      </trkpt>
      <trkpt lat="48.10277" lon="-1.6775">
        <ele>81</ele>
        <time>2025-05-16T12:29:37Z</time>
      </trkpt>
      <trkpt lat="48.10278" lon="-1.67745">
        <ele>81</ele>
        <time>2025-05-16T12:29:38Z</time>
      </trkpt>
      <trkpt lat="48.1028" lon="-1.6774">
        <ele>81</ele>
        <time>2025-05-16T12:29:39Z</time>
      </trkpt>
      <trkpt lat="48.1028" lon="-1.67735">
        <ele>81</ele>
        <time>2025-05-16T12:29:40Z</time>
      </trkpt>
      <trkpt lat="48.10281" lon="-1.67729">
        <ele>81</ele>
        <time>2025-05-16T12:29:41Z</time>
      </trkpt>
      <trkpt lat="48.10282" lon="-1.67724">
        <ele>81</ele>
        <time>2025-05-16T12:29:42Z</time>
      </trkpt>
      <trkpt lat="48.10283" lon="-1.67718">
        <ele>81</ele>
        <time>2025-05-16T12:29:43Z</time>
      </trkpt>
      <trkpt lat="48.10284" lon="-1.67712">
        <ele>81</ele>
        <time>2025-05-16T12:29:44Z</time>
      </trkpt>
      <trkpt lat="48.10285" lon="-1.67706">
        <ele>83</ele>
        <time>2025-05-16T12:29:45Z</time>
      </trkpt>
      <trkpt lat="48.10287" lon="-1.677">
        <ele>84</ele>
        <time>2025-05-16T12:29:46Z</time>
      </trkpt>
      <trkpt lat="48.10287" lon="-1.67695">
        <ele>85</ele>
        <time>2025-05-16T12:29:47Z</time>
      </trkpt>
      <trkpt lat="48.10288" lon="-1.6769">
        <ele>86</ele>
        <time>2025-05-16T12:29:48Z</time>
      </trkpt>
      <trkpt lat="48.10289" lon="-1.67686">
        <ele>86</ele>
        <time>2025-05-16T12:29:49Z</time>
      </trkpt>
      <trkpt lat="48.1029" lon="-1.67682">
        <ele>86</ele>
        <time>2025-05-16T12:29:50Z</time>
      </trkpt>
      <trkpt lat="48.10291" lon="-1.67679">
        <ele>86</ele>
        <time>2025-05-16T12:29:51Z</time>
      </trkpt>
      <trkpt lat="48.10292" lon="-1.67676">
        <ele>86</ele>
        <time>2025-05-16T12:29:52Z</time>
      </trkpt>
      <trkpt lat="48.10295" lon="-1.67673">
        <ele>85</ele>
        <time>2025-05-16T12:29:53Z</time>
      </trkpt>
      <trkpt lat="48.10298" lon="-1.6767">
        <ele>85</ele>
        <time>2025-05-16T12:29:54Z</time>
      </trkpt>
      <trkpt lat="48.10301" lon="-1.67667">
        <ele>85</ele>
        <time>2025-05-16T12:29:55Z</time>
      </trkpt>
      <trkpt lat="48.10303" lon="-1.67664">
        <ele>84</ele>
        <time>2025-05-16T12:29:56Z</time>
      </trkpt>
      <trkpt lat="48.10305" lon="-1.6766">
        <ele>84</ele>
        <time>2025-05-16T12:29:57Z</time>
      </trkpt>
      <trkpt lat="48.10306" lon="-1.67655">
        <ele>85</ele>
        <time>2025-05-16T12:29:58Z</time>
      </trkpt>
      <trkpt lat="48.10308" lon="-1.6765">
        <ele>85</ele>
        <time>2025-05-16T12:29:59Z</time>
      </trkpt>
      <trkpt lat="48.10307" lon="-1.67642">
        <ele>86</ele>
        <time>2025-05-16T12:30:00Z</time>
      </trkpt>
      <trkpt lat="48.10305" lon="-1.67633">
        <ele>86</ele>
        <time>2025-05-16T12:30:01Z</time>
      </trkpt>
      <trkpt lat="48.10305" lon="-1.67625">
        <ele>86</ele>
        <time>2025-05-16T12:30:02Z</time>
      </trkpt>
      <trkpt lat="48.10306" lon="-1.67618">
        <ele>86</ele>
        <time>2025-05-16T12:30:03Z</time>
      </trkpt>
      <trkpt lat="48.10307" lon="-1.67613">
        <ele>86</ele>
        <time>2025-05-16T12:30:04Z</time>
      </trkpt>
      <trkpt lat="48.10308" lon="-1.67608">
        <ele>86</ele>
        <time>2025-05-16T12:30:05Z</time>
      </trkpt>
      <trkpt lat="48.1031" lon="-1.67603">
        <ele>86</ele>
        <time>2025-05-16T12:30:06Z</time>
      </trkpt>
      <trkpt lat="48.10313" lon="-1.67599">
        <ele>85</ele>
        <time>2025-05-16T12:30:07Z</time>
      </trkpt>
      <trkpt lat="48.10315" lon="-1.67596">
        <ele>84</ele>
        <time>2025-05-16T12:30:08Z</time>
      </trkpt>
      <trkpt lat="48.10317" lon="-1.67592">
        <ele>84</ele>
        <time>2025-05-16T12:30:09Z</time>
      </trkpt>
      <trkpt lat="48.1032" lon="-1.67588">
        <ele>83</ele>
        <time>2025-05-16T12:30:10Z</time>
      </trkpt>
      <trkpt lat="48.10323" lon="-1.67584">
        <ele>82</ele>
        <time>2025-05-16T12:30:11Z</time>
      </trkpt>
      <trkpt lat="48.10325" lon="-1.6758">
        <ele>82</ele>
        <time>2025-05-16T12:30:12Z</time>
      </trkpt>
      <trkpt lat="48.10328" lon="-1.67577">
        <ele>82</ele>
        <time>2025-05-16T12:30:13Z</time>
      </trkpt>
      <trkpt lat="48.1033" lon="-1.67573">
        <ele>81</ele>
        <time>2025-05-16T12:30:14Z</time>
      </trkpt>
      <trkpt lat="48.10333" lon="-1.67569">
        <ele>81</ele>
        <time>2025-05-16T12:30:15Z</time>
      </trkpt>
      <trkpt lat="48.10335" lon="-1.67565">
        <ele>81</ele>
        <time>2025-05-16T12:30:16Z</time>
      </trkpt>
      <trkpt lat="48.10337" lon="-1.67561">
        <ele>81</ele>
        <time>2025-05-16T12:30:17Z</time>
      </trkpt>
      <trkpt lat="48.10339" lon="-1.67556">
        <ele>81</ele>
        <time>2025-05-16T12:30:18Z</time>
      </trkpt>
      <trkpt lat="48.10341" lon="-1.67552">
        <ele>81</ele>
        <time>2025-05-16T12:30:19Z</time>
      </trkpt>
      <trkpt lat="48.10343" lon="-1.67549">
        <ele>80</ele>
        <time>2025-05-16T12:30:20Z</time>
      </trkpt>
      <trkpt lat="48.10345" lon="-1.67545">
        <ele>80</ele>
        <time>2025-05-16T12:30:21Z</time>
      </trkpt>
      <trkpt lat="48.10348" lon="-1.67541">
        <ele>81</ele>
        <time>2025-05-16T12:30:22Z</time>
      </trkpt>
      <trkpt lat="48.1035" lon="-1.67538">
        <ele>81</ele>
        <time>2025-05-16T12:30:23Z</time>
      </trkpt>
      <trkpt lat="48.10352" lon="-1.67535">
        <ele>83</ele>
        <time>2025-05-16T12:30:24Z</time>
      </trkpt>
      <trkpt lat="48.10353" lon="-1.67533">
        <ele>83</ele>
        <time>2025-05-16T12:30:25Z</time>
      </trkpt>
      <trkpt lat="48.10355" lon="-1.67532">
        <ele>83</ele>
        <time>2025-05-16T12:30:26Z</time>
      </trkpt>
      <trkpt lat="48.10356" lon="-1.67531">
        <ele>83</ele>
        <time>2025-05-16T12:30:27Z</time>
      </trkpt>
      <trkpt lat="48.10358" lon="-1.67529">
        <ele>83</ele>
        <time>2025-05-16T12:30:28Z</time>
      </trkpt>
      <trkpt lat="48.1036" lon="-1.67526">
        <ele>83</ele>
        <time>2025-05-16T12:30:29Z</time>
      </trkpt>
      <trkpt lat="48.10361" lon="-1.67523">
        <ele>83</ele>
        <time>2025-05-16T12:30:30Z</time>
      </trkpt>
      <trkpt lat="48.10362" lon="-1.6752">
        <ele>84</ele>
        <time>2025-05-16T12:30:31Z</time>
      </trkpt>
      <trkpt lat="48.10364" lon="-1.67518">
        <ele>84</ele>
        <time>2025-05-16T12:30:32Z</time>
      </trkpt>
      <trkpt lat="48.10366" lon="-1.67515">
        <ele>84</ele>
        <time>2025-05-16T12:30:33Z</time>
      </trkpt>
      <trkpt lat="48.10367" lon="-1.67511">
        <ele>84</ele>
        <time>2025-05-16T12:30:34Z</time>
      </trkpt>
      <trkpt lat="48.10367" lon="-1.67507">
        <ele>84</ele>
        <time>2025-05-16T12:30:35Z</time>
      </trkpt>
      <trkpt lat="48.10368" lon="-1.67503">
        <ele>84</ele>
        <time>2025-05-16T12:30:36Z</time>
      </trkpt>
      <trkpt lat="48.10368" lon="-1.67498">
        <ele>83</ele>
        <time>2025-05-16T12:30:37Z</time>
      </trkpt>
      <trkpt lat="48.10369" lon="-1.67493">
        <ele>83</ele>
        <time>2025-05-16T12:30:38Z</time>
      </trkpt>
      <trkpt lat="48.10369" lon="-1.67488">
        <ele>83</ele>
        <time>2025-05-16T12:30:39Z</time>
      </trkpt>
      <trkpt lat="48.10369" lon="-1.67482">
        <ele>83</ele>
        <time>2025-05-16T12:30:40Z</time>
      </trkpt>
      <trkpt lat="48.1037" lon="-1.67477">
        <ele>83</ele>
        <time>2025-05-16T12:30:41Z</time>
      </trkpt>
      <trkpt lat="48.10371" lon="-1.67471">
        <ele>83</ele>
        <time>2025-05-16T12:30:42Z</time>
      </trkpt>
      <trkpt lat="48.10372" lon="-1.67465">
        <ele>83</ele>
        <time>2025-05-16T12:30:43Z</time>
      </trkpt>
      <trkpt lat="48.10373" lon="-1.67459">
        <ele>82</ele>
        <time>2025-05-16T12:30:44Z</time>
      </trkpt>
      <trkpt lat="48.10374" lon="-1.67453">
        <ele>82</ele>
        <time>2025-05-16T12:30:45Z</time>
      </trkpt>
      <trkpt lat="48.10375" lon="-1.67448">
        <ele>82</ele>
        <time>2025-05-16T12:30:46Z</time>
      </trkpt>
      <trkpt lat="48.10376" lon="-1.67442">
        <ele>82</ele>
        <time>2025-05-16T12:30:47Z</time>
      </trkpt>
      <trkpt lat="48.10376" lon="-1.67436">
        <ele>82</ele>
        <time>2025-05-16T12:30:48Z</time>
      </trkpt>
      <trkpt lat="48.10376" lon="-1.67431">
        <ele>82</ele>
        <time>2025-05-16T12:30:49Z</time>
      </trkpt>
      <trkpt lat="48.10377" lon="-1.67426">
        <ele>82</ele>
        <time>2025-05-16T12:30:50Z</time>
      </trkpt>
      <trkpt lat="48.10377" lon="-1.67422">
        <ele>82</ele>
        <time>2025-05-16T12:30:51Z</time>
      </trkpt>
      <trkpt lat="48.10377" lon="-1.67418">
        <ele>82</ele>
        <time>2025-05-16T12:30:52Z</time>
      </trkpt>
      <trkpt lat="48.10378" lon="-1.67415">
        <ele>82</ele>
        <time>2025-05-16T12:30:53Z</time>
      </trkpt>
      <trkpt lat="48.10378" lon="-1.67413">
        <ele>82</ele>
        <time>2025-05-16T12:30:54Z</time>
      </trkpt>
      <trkpt lat="48.10379" lon="-1.67411">
        <ele>82</ele>
        <time>2025-05-16T12:30:55Z</time>
      </trkpt>
      <trkpt lat="48.10379" lon="-1.67408">
        <ele>82</ele>
        <time>2025-05-16T12:30:56Z</time>
      </trkpt>
      <trkpt lat="48.10379" lon="-1.67405">
        <ele>82</ele>
        <time>2025-05-16T12:30:57Z</time>
      </trkpt>
      <trkpt lat="48.1038" lon="-1.67401">
        <ele>82</ele>
        <time>2025-05-16T12:30:58Z</time>
      </trkpt>
      <trkpt lat="48.1038" lon="-1.67397">
        <ele>81</ele>
        <time>2025-05-16T12:30:59Z</time>
      </trkpt>
      <trkpt lat="48.10381" lon="-1.67392">
        <ele>81</ele>
        <time>2025-05-16T12:31:00Z</time>
      </trkpt>
      <trkpt lat="48.10381" lon="-1.67388">
        <ele>80</ele>
        <time>2025-05-16T12:31:01Z</time>
      </trkpt>
      <trkpt lat="48.10382" lon="-1.67382">
        <ele>80</ele>
        <time>2025-05-16T12:31:02Z</time>
      </trkpt>
      <trkpt lat="48.10382" lon="-1.67377">
        <ele>80</ele>
        <time>2025-05-16T12:31:03Z</time>
      </trkpt>
      <trkpt lat="48.10383" lon="-1.67371">
        <ele>80</ele>
        <time>2025-05-16T12:31:04Z</time>
      </trkpt>
      <trkpt lat="48.10383" lon="-1.67366">
        <ele>79</ele>
        <time>2025-05-16T12:31:05Z</time>
      </trkpt>
      <trkpt lat="48.10383" lon="-1.67361">
        <ele>79</ele>
        <time>2025-05-16T12:31:06Z</time>
      </trkpt>
      <trkpt lat="48.10382" lon="-1.67357">
        <ele>80</ele>
        <time>2025-05-16T12:31:07Z</time>
      </trkpt>
      <trkpt lat="48.10382" lon="-1.67354">
        <ele>80</ele>
        <time>2025-05-16T12:31:08Z</time>
      </trkpt>
      <trkpt lat="48.10382" lon="-1.67353">
        <ele>80</ele>
        <time>2025-05-16T12:31:09Z</time>
      </trkpt>
      <trkpt lat="48.10382" lon="-1.67352">
        <ele>80</ele>
        <time>2025-05-16T12:31:10Z</time>
      </trkpt>
      <trkpt lat="48.10382" lon="-1.67351">
        <ele>80</ele>
        <time>2025-05-16T12:31:11Z</time>
      </trkpt>
      <trkpt lat="48.10382" lon="-1.67351">
        <ele>80</ele>
        <time>2025-05-16T12:31:12Z</time>
      </trkpt>
      <trkpt lat="48.10382" lon="-1.67352">
        <ele>80</ele>
        <time>2025-05-16T12:31:13Z</time>
      </trkpt>
      <trkpt lat="48.10382" lon="-1.67352">
        <ele>80</ele>
        <time>2025-05-16T12:31:14Z</time>
      </trkpt>
      <trkpt lat="48.10382" lon="-1.67352">
        <ele>80</ele>
        <time>2025-05-16T12:31:15Z</time>
      </trkpt>
      <trkpt lat="48.10382" lon="-1.67352">
        <ele>80</ele>
        <time>2025-05-16T12:31:16Z</time>
      </trkpt>
      <trkpt lat="48.10382" lon="-1.67352">
        <ele>80</ele>
        <time>2025-05-16T12:31:17Z</time>
      </trkpt>
      <trkpt lat="48.10382" lon="-1.67352">
        <ele>80</ele>
        <time>2025-05-16T12:31:18Z</time>
      </trkpt>
      <trkpt lat="48.10382" lon="-1.67352">
        <ele>80</ele>
        <time>2025-05-16T12:31:19Z</time>
      </trkpt>
      <trkpt lat="48.10382" lon="-1.67352">
        <ele>80</ele>
        <time>2025-05-16T12:31:20Z</time>
      </trkpt>
      <trkpt lat="48.10382" lon="-1.67352">
        <ele>80</ele>
        <time>2025-05-16T12:31:21Z</time>
      </trkpt>
      <trkpt lat="48.10382" lon="-1.67352">
        <ele>80</ele>
        <time>2025-05-16T12:31:22Z</time>
      </trkpt>
      <trkpt lat="48.10382" lon="-1.67352">
        <ele>80</ele>
        <time>2025-05-16T12:31:23Z</time>
      </trkpt>
      <trkpt lat="48.10382" lon="-1.67352">
        <ele>80</ele>
        <time>2025-05-16T12:31:24Z</time>
      </trkpt>
      <trkpt lat="48.10382" lon="-1.67352">
        <ele>80</ele>
        <time>2025-05-16T12:31:25Z</time>
      </trkpt>
      <trkpt lat="48.10382" lon="-1.67352">
        <ele>80</ele>
        <time>2025-05-16T12:31:26Z</time>
      </trkpt>
      <trkpt lat="48.10382" lon="-1.67352">
        <ele>80</ele>
        <time>2025-05-16T12:31:27Z</time>
      </trkpt>
      <trkpt lat="48.10382" lon="-1.67352">
        <ele>80</ele>
        <time>2025-05-16T12:31:28Z</time>
      </trkpt>
      <trkpt lat="48.10382" lon="-1.67352">
        <ele>80</ele>
        <time>2025-05-16T12:31:29Z</time>
      </trkpt>
      <trkpt lat="48.10382" lon="-1.67352">
        <ele>80</ele>
        <time>2025-05-16T12:31:30Z</time>
      </trkpt>
      <trkpt lat="48.10382" lon="-1.67352">
        <ele>80</ele>
        <time>2025-05-16T12:31:31Z</time>
      </trkpt>
      <trkpt lat="48.10382" lon="-1.67352">
        <ele>80</ele>
        <time>2025-05-16T12:31:32Z</time>
      </trkpt>
      <trkpt lat="48.10383" lon="-1.67348">
        <ele>80</ele>
        <time>2025-05-16T12:31:33Z</time>
      </trkpt>
      <trkpt lat="48.10384" lon="-1.67345">
        <ele>80</ele>
        <time>2025-05-16T12:31:34Z</time>
      </trkpt>
      <trkpt lat="48.10385" lon="-1.67342">
        <ele>80</ele>
        <time>2025-05-16T12:31:35Z</time>
      </trkpt>
      <trkpt lat="48.10385" lon="-1.67339">
        <ele>79</ele>
        <time>2025-05-16T12:31:36Z</time>
      </trkpt>
      <trkpt lat="48.10386" lon="-1.67335">
        <ele>79</ele>
        <time>2025-05-16T12:31:37Z</time>
      </trkpt>
      <trkpt lat="48.10388" lon="-1.67332">
        <ele>79</ele>
        <time>2025-05-16T12:31:38Z</time>
      </trkpt>
      <trkpt lat="48.1039" lon="-1.67329">
        <ele>79</ele>
        <time>2025-05-16T12:31:39Z</time>
      </trkpt>
      <trkpt lat="48.10391" lon="-1.67325">
        <ele>79</ele>
        <time>2025-05-16T12:31:40Z</time>
      </trkpt>
      <trkpt lat="48.10393" lon="-1.67322">
        <ele>79</ele>
        <time>2025-05-16T12:31:41Z</time>
      </trkpt>
      <trkpt lat="48.10394" lon="-1.67319">
        <ele>79</ele>
        <time>2025-05-16T12:31:42Z</time>
      </trkpt>
      <trkpt lat="48.10396" lon="-1.67316">
        <ele>79</ele>
        <time>2025-05-16T12:31:43Z</time>
      </trkpt>
      <trkpt lat="48.10397" lon="-1.67314">
        <ele>79</ele>
        <time>2025-05-16T12:31:44Z</time>
      </trkpt>
      <trkpt lat="48.10397" lon="-1.6731">
        <ele>79</ele>
        <time>2025-05-16T12:31:45Z</time>
      </trkpt>
      <trkpt lat="48.10397" lon="-1.67306">
        <ele>80</ele>
        <time>2025-05-16T12:31:46Z</time>
      </trkpt>
      <trkpt lat="48.10397" lon="-1.67303">
        <ele>80</ele>
        <time>2025-05-16T12:31:47Z</time>
      </trkpt>
      <trkpt lat="48.10397" lon="-1.673">
        <ele>80</ele>
        <time>2025-05-16T12:31:48Z</time>
      </trkpt>
      <trkpt lat="48.10398" lon="-1.67297">
        <ele>80</ele>
        <time>2025-05-16T12:31:49Z</time>
      </trkpt>
      <trkpt lat="48.104" lon="-1.67294">
        <ele>80</ele>
        <time>2025-05-16T12:31:50Z</time>
      </trkpt>
      <trkpt lat="48.10401" lon="-1.67292">
        <ele>80</ele>
        <time>2025-05-16T12:31:51Z</time>
      </trkpt>
      <trkpt lat="48.10402" lon="-1.67289">
        <ele>80</ele>
        <time>2025-05-16T12:31:52Z</time>
      </trkpt>
      <trkpt lat="48.10403" lon="-1.67287">
        <ele>80</ele>
        <time>2025-05-16T12:31:53Z</time>
      </trkpt>
      <trkpt lat="48.10403" lon="-1.67286">
        <ele>80</ele>
        <time>2025-05-16T12:31:54Z</time>
      </trkpt>
      <trkpt lat="48.10403" lon="-1.67285">
        <ele>80</ele>
        <time>2025-05-16T12:31:55Z</time>
      </trkpt>
      <trkpt lat="48.10404" lon="-1.67285">
        <ele>80</ele>
        <time>2025-05-16T12:31:56Z</time>
      </trkpt>
      <trkpt lat="48.10404" lon="-1.67285">
        <ele>80</ele>
        <time>2025-05-16T12:31:57Z</time>
      </trkpt>
      <trkpt lat="48.10404" lon="-1.67285">
        <ele>80</ele>
        <time>2025-05-16T12:31:58Z</time>
      </trkpt>
      <trkpt lat="48.10404" lon="-1.67285">
        <ele>80</ele>
        <time>2025-05-16T12:31:59Z</time>
      </trkpt>
      <trkpt lat="48.10404" lon="-1.67285">
        <ele>80</ele>
        <time>2025-05-16T12:32:00Z</time>
      </trkpt>
      <trkpt lat="48.10404" lon="-1.67285">
        <ele>80</ele>
        <time>2025-05-16T12:32:01Z</time>
      </trkpt>
      <trkpt lat="48.10404" lon="-1.67285">
        <ele>80</ele>
        <time>2025-05-16T12:32:02Z</time>
      </trkpt>
      <trkpt lat="48.10404" lon="-1.67285">
        <ele>80</ele>
        <time>2025-05-16T12:32:03Z</time>
      </trkpt>
      <trkpt lat="48.10404" lon="-1.67285">
        <ele>80</ele>
        <time>2025-05-16T12:32:04Z</time>
      </trkpt>
      <trkpt lat="48.10404" lon="-1.67285">
        <ele>80</ele>
        <time>2025-05-16T12:32:05Z</time>
      </trkpt>
      <trkpt lat="48.10404" lon="-1.67285">
        <ele>80</ele>
        <time>2025-05-16T12:32:06Z</time>
      </trkpt>
      <trkpt lat="48.10404" lon="-1.67285">
        <ele>80</ele>
        <time>2025-05-16T12:32:07Z</time>
      </trkpt>
      <trkpt lat="48.10404" lon="-1.67285">
        <ele>80</ele>
        <time>2025-05-16T12:32:08Z</time>
      </trkpt>
      <trkpt lat="48.10404" lon="-1.67285">
        <ele>80</ele>
        <time>2025-05-16T12:32:09Z</time>
      </trkpt>
      <trkpt lat="48.10404" lon="-1.67285">
        <ele>80</ele>
        <time>2025-05-16T12:32:10Z</time>
      </trkpt>
      <trkpt lat="48.10404" lon="-1.67285">
        <ele>80</ele>
        <time>2025-05-16T12:32:11Z</time>
      </trkpt>
      <trkpt lat="48.10404" lon="-1.67285">
        <ele>80</ele>
        <time>2025-05-16T12:32:12Z</time>
      </trkpt>
      <trkpt lat="48.10404" lon="-1.67285">
        <ele>80</ele>
        <time>2025-05-16T12:32:13Z</time>
      </trkpt>
      <trkpt lat="48.10404" lon="-1.67285">
        <ele>80</ele>
        <time>2025-05-16T12:32:14Z</time>
      </trkpt>
      <trkpt lat="48.10404" lon="-1.67285">
        <ele>80</ele>
        <time>2025-05-16T12:32:15Z</time>
      </trkpt>
      <trkpt lat="48.10404" lon="-1.67285">
        <ele>80</ele>
        <time>2025-05-16T12:32:16Z</time>
      </trkpt>
      <trkpt lat="48.10404" lon="-1.67285">
        <ele>80</ele>
        <time>2025-05-16T12:32:17Z</time>
      </trkpt>
      <trkpt lat="48.10404" lon="-1.67285">
        <ele>80</ele>
        <time>2025-05-16T12:32:18Z</time>
      </trkpt>
      <trkpt lat="48.10404" lon="-1.67285">
        <ele>80</ele>
        <time>2025-05-16T12:32:19Z</time>
      </trkpt>
      <trkpt lat="48.10404" lon="-1.67285">
        <ele>80</ele>
        <time>2025-05-16T12:32:20Z</time>
      </trkpt>
      <trkpt lat="48.10404" lon="-1.67285">
        <ele>80</ele>
        <time>2025-05-16T12:32:21Z</time>
      </trkpt>
      <trkpt lat="48.10404" lon="-1.67285">
        <ele>80</ele>
        <time>2025-05-16T12:32:22Z</time>
      </trkpt>
      <trkpt lat="48.10404" lon="-1.67285">
        <ele>80</ele>
        <time>2025-05-16T12:32:23Z</time>
      </trkpt>
      <trkpt lat="48.10404" lon="-1.67285">
        <ele>80</ele>
        <time>2025-05-16T12:32:24Z</time>
      </trkpt>
      <trkpt lat="48.10404" lon="-1.67285">
        <ele>80</ele>
        <time>2025-05-16T12:32:25Z</time>
      </trkpt>
      <trkpt lat="48.10404" lon="-1.67285">
        <ele>80</ele>
        <time>2025-05-16T12:32:26Z</time>
      </trkpt>
      <trkpt lat="48.10404" lon="-1.67285">
        <ele>80</ele>
        <time>2025-05-16T12:32:27Z</time>
      </trkpt>
      <trkpt lat="48.10404" lon="-1.67285">
        <ele>80</ele>
        <time>2025-05-16T12:32:28Z</time>
      </trkpt>
      <trkpt lat="48.10404" lon="-1.67285">
        <ele>80</ele>
        <time>2025-05-16T12:32:29Z</time>
      </trkpt>
      <trkpt lat="48.10404" lon="-1.67285">
        <ele>80</ele>
        <time>2025-05-16T12:32:30Z</time>
      </trkpt>
      <trkpt lat="48.10404" lon="-1.67285">
        <ele>80</ele>
        <time>2025-05-16T12:32:31Z</time>
      </trkpt>
      <trkpt lat="48.10404" lon="-1.67285">
        <ele>80</ele>
        <time>2025-05-16T12:32:32Z</time>
      </trkpt>
      <trkpt lat="48.10404" lon="-1.67285">
        <ele>80</ele>
        <time>2025-05-16T12:32:33Z</time>
      </trkpt>
      <trkpt lat="48.10404" lon="-1.67285">
        <ele>80</ele>
        <time>2025-05-16T12:32:34Z</time>
      </trkpt>
      <trkpt lat="48.10404" lon="-1.67285">
        <ele>80</ele>
        <time>2025-05-16T12:32:35Z</time>
      </trkpt>
      <trkpt lat="48.10404" lon="-1.67285">
        <ele>80</ele>
        <time>2025-05-16T12:32:36Z</time>
      </trkpt>
      <trkpt lat="48.10404" lon="-1.67285">
        <ele>80</ele>
        <time>2025-05-16T12:32:37Z</time>
      </trkpt>
      <trkpt lat="48.10404" lon="-1.67285">
        <ele>80</ele>
        <time>2025-05-16T12:32:38Z</time>
      </trkpt>
      <trkpt lat="48.10404" lon="-1.67285">
        <ele>80</ele>
        <time>2025-05-16T12:32:39Z</time>
      </trkpt>
      <trkpt lat="48.10404" lon="-1.67285">
        <ele>80</ele>
        <time>2025-05-16T12:32:40Z</time>
      </trkpt>
      <trkpt lat="48.10405" lon="-1.67282">
        <ele>80</ele>
        <time>2025-05-16T12:32:41Z</time>
      </trkpt>
      <trkpt lat="48.10406" lon="-1.67281">
        <ele>80</ele>
        <time>2025-05-16T12:32:42Z</time>
      </trkpt>
      <trkpt lat="48.10408" lon="-1.67279">
        <ele>80</ele>
        <time>2025-05-16T12:32:43Z</time>
      </trkpt>
      <trkpt lat="48.10409" lon="-1.67277">
        <ele>80</ele>
        <time>2025-05-16T12:32:44Z</time>
      </trkpt>
      <trkpt lat="48.10409" lon="-1.67274">
        <ele>80</ele>
        <time>2025-05-16T12:32:45Z</time>
      </trkpt>
      <trkpt lat="48.10409" lon="-1.67272">
        <ele>80</ele>
        <time>2025-05-16T12:32:46Z</time>
      </trkpt>
      <trkpt lat="48.10409" lon="-1.67269">
        <ele>80</ele>
        <time>2025-05-16T12:32:47Z</time>
      </trkpt>
      <trkpt lat="48.1041" lon="-1.67267">
        <ele>80</ele>
        <time>2025-05-16T12:32:48Z</time>
      </trkpt>
      <trkpt lat="48.10411" lon="-1.67264">
        <ele>80</ele>
        <time>2025-05-16T12:32:49Z</time>
      </trkpt>
      <trkpt lat="48.10411" lon="-1.67261">
        <ele>80</ele>
        <time>2025-05-16T12:32:50Z</time>
      </trkpt>
      <trkpt lat="48.10411" lon="-1.67258">
        <ele>80</ele>
        <time>2025-05-16T12:32:51Z</time>
      </trkpt>
      <trkpt lat="48.1041" lon="-1.67255">
        <ele>80</ele>
        <time>2025-05-16T12:32:52Z</time>
      </trkpt>
      <trkpt lat="48.10409" lon="-1.67253">
        <ele>80</ele>
        <time>2025-05-16T12:32:53Z</time>
      </trkpt>
      <trkpt lat="48.10409" lon="-1.67251">
        <ele>80</ele>
        <time>2025-05-16T12:32:54Z</time>
      </trkpt>
      <trkpt lat="48.10408" lon="-1.6725">
        <ele>80</ele>
        <time>2025-05-16T12:32:55Z</time>
      </trkpt>
      <trkpt lat="48.10407" lon="-1.67249">
        <ele>80</ele>
        <time>2025-05-16T12:32:56Z</time>
      </trkpt>
      <trkpt lat="48.10407" lon="-1.67248">
        <ele>81</ele>
        <time>2025-05-16T12:32:57Z</time>
      </trkpt>
      <trkpt lat="48.10406" lon="-1.67247">
        <ele>81</ele>
        <time>2025-05-16T12:32:58Z</time>
      </trkpt>
      <trkpt lat="48.10405" lon="-1.67245">
        <ele>81</ele>
        <time>2025-05-16T12:32:59Z</time>
      </trkpt>
      <trkpt lat="48.10404" lon="-1.67244">
        <ele>81</ele>
        <time>2025-05-16T12:33:00Z</time>
      </trkpt>
      <trkpt lat="48.10404" lon="-1.67243">
        <ele>81</ele>
        <time>2025-05-16T12:33:01Z</time>
      </trkpt>
      <trkpt lat="48.10403" lon="-1.67241">
        <ele>81</ele>
        <time>2025-05-16T12:33:02Z</time>
      </trkpt>
      <trkpt lat="48.10402" lon="-1.67241">
        <ele>81</ele>
        <time>2025-05-16T12:33:03Z</time>
      </trkpt>
      <trkpt lat="48.10401" lon="-1.6724">
        <ele>81</ele>
        <time>2025-05-16T12:33:04Z</time>
      </trkpt>
      <trkpt lat="48.104" lon="-1.67239">
        <ele>81</ele>
        <time>2025-05-16T12:33:05Z</time>
      </trkpt>
      <trkpt lat="48.10399" lon="-1.67238">
        <ele>81</ele>
        <time>2025-05-16T12:33:06Z</time>
      </trkpt>
      <trkpt lat="48.10399" lon="-1.67237">
        <ele>82</ele>
        <time>2025-05-16T12:33:07Z</time>
      </trkpt>
      <trkpt lat="48.10398" lon="-1.67236">
        <ele>82</ele>
        <time>2025-05-16T12:33:08Z</time>
      </trkpt>
      <trkpt lat="48.10397" lon="-1.67236">
        <ele>82</ele>
        <time>2025-05-16T12:33:09Z</time>
      </trkpt>
      <trkpt lat="48.10396" lon="-1.67235">
        <ele>83</ele>
        <time>2025-05-16T12:33:10Z</time>
      </trkpt>
      <trkpt lat="48.10395" lon="-1.67235">
        <ele>83</ele>
        <time>2025-05-16T12:33:11Z</time>
      </trkpt>
      <trkpt lat="48.10394" lon="-1.67234">
        <ele>83</ele>
        <time>2025-05-16T12:33:12Z</time>
      </trkpt>
      <trkpt lat="48.10393" lon="-1.67234">
        <ele>83</ele>
        <time>2025-05-16T12:33:13Z</time>
      </trkpt>
      <trkpt lat="48.10392" lon="-1.67233">
        <ele>83</ele>
        <time>2025-05-16T12:33:14Z</time>
      </trkpt>
      <trkpt lat="48.10392" lon="-1.67232">
        <ele>83</ele>
        <time>2025-05-16T12:33:15Z</time>
      </trkpt>
      <trkpt lat="48.10391" lon="-1.67231">
        <ele>83</ele>
        <time>2025-05-16T12:33:16Z</time>
      </trkpt>
      <trkpt lat="48.1039" lon="-1.6723">
        <ele>84</ele>
        <time>2025-05-16T12:33:17Z</time>
      </trkpt>
      <trkpt lat="48.10389" lon="-1.67229">
        <ele>84</ele>
        <time>2025-05-16T12:33:18Z</time>
      </trkpt>
      <trkpt lat="48.10388" lon="-1.67229">
        <ele>84</ele>
        <time>2025-05-16T12:33:19Z</time>
      </trkpt>
      <trkpt lat="48.10387" lon="-1.67228">
        <ele>84</ele>
        <time>2025-05-16T12:33:20Z</time>
      </trkpt>
      <trkpt lat="48.10386" lon="-1.67226">
        <ele>84</ele>
        <time>2025-05-16T12:33:21Z</time>
      </trkpt>
      <trkpt lat="48.10385" lon="-1.67224">
        <ele>84</ele>
        <time>2025-05-16T12:33:22Z</time>
      </trkpt>
      <trkpt lat="48.10385" lon="-1.67222">
        <ele>84</ele>
        <time>2025-05-16T12:33:23Z</time>
      </trkpt>
      <trkpt lat="48.10385" lon="-1.6722">
        <ele>83</ele>
        <time>2025-05-16T12:33:24Z</time>
      </trkpt>
      <trkpt lat="48.10385" lon="-1.67218">
        <ele>83</ele>
        <time>2025-05-16T12:33:25Z</time>
      </trkpt>
      <trkpt lat="48.10385" lon="-1.67217">
        <ele>83</ele>
        <time>2025-05-16T12:33:26Z</time>
      </trkpt>
      <trkpt lat="48.10384" lon="-1.67215">
        <ele>83</ele>
        <time>2025-05-16T12:33:27Z</time>
      </trkpt>
      <trkpt lat="48.10385" lon="-1.67214">
        <ele>84</ele>
        <time>2025-05-16T12:33:28Z</time>
      </trkpt>
      <trkpt lat="48.10384" lon="-1.67212">
        <ele>84</ele>
        <time>2025-05-16T12:33:29Z</time>
      </trkpt>
      <trkpt lat="48.10384" lon="-1.67211">
        <ele>84</ele>
        <time>2025-05-16T12:33:30Z</time>
      </trkpt>
      <trkpt lat="48.10384" lon="-1.67211">
        <ele>84</ele>
        <time>2025-05-16T12:33:31Z</time>
      </trkpt>
      <trkpt lat="48.10383" lon="-1.67211">
        <ele>84</ele>
        <time>2025-05-16T12:33:32Z</time>
      </trkpt>
      <trkpt lat="48.10383" lon="-1.67211">
        <ele>84</ele>
        <time>2025-05-16T12:33:33Z</time>
      </trkpt>
      <trkpt lat="48.10383" lon="-1.67211">
        <ele>84</ele>
        <time>2025-05-16T12:33:34Z</time>
      </trkpt>
      <trkpt lat="48.10382" lon="-1.67214">
        <ele>84</ele>
        <time>2025-05-16T12:33:35Z</time>
      </trkpt>
      <trkpt lat="48.10381" lon="-1.67216">
        <ele>84</ele>
        <time>2025-05-16T12:33:36Z</time>
      </trkpt>
      <trkpt lat="48.10381" lon="-1.67218">
        <ele>84</ele>
        <time>2025-05-16T12:33:37Z</time>
      </trkpt>
      <trkpt lat="48.10381" lon="-1.6722">
        <ele>85</ele>
        <time>2025-05-16T12:33:38Z</time>
      </trkpt>
      <trkpt lat="48.1038" lon="-1.67222">
        <ele>85</ele>
        <time>2025-05-16T12:33:39Z</time>
      </trkpt>
      <trkpt lat="48.1038" lon="-1.67224">
        <ele>85</ele>
        <time>2025-05-16T12:33:40Z</time>
      </trkpt>
      <trkpt lat="48.10379" lon="-1.67226">
        <ele>85</ele>
        <time>2025-05-16T12:33:41Z</time>
      </trkpt>
      <trkpt lat="48.10379" lon="-1.67227">
        <ele>85</ele>
        <time>2025-05-16T12:33:42Z</time>
      </trkpt>
      <trkpt lat="48.10373" lon="-1.67246">
        <ele>85</ele>
        <time>2025-05-16T12:33:53Z</time>
      </trkpt>
      <trkpt lat="48.10373" lon="-1.67247">
        <ele>84</ele>
        <time>2025-05-16T12:33:54Z</time>
      </trkpt>
      <trkpt lat="48.10372" lon="-1.67249">
        <ele>84</ele>
        <time>2025-05-16T12:33:55Z</time>
      </trkpt>
      <trkpt lat="48.10372" lon="-1.67251">
        <ele>84</ele>
        <time>2025-05-16T12:33:56Z</time>
      </trkpt>
      <trkpt lat="48.10371" lon="-1.67253">
        <ele>84</ele>
        <time>2025-05-16T12:33:57Z</time>
      </trkpt>
      <trkpt lat="48.1037" lon="-1.67254">
        <ele>85</ele>
        <time>2025-05-16T12:33:58Z</time>
      </trkpt>
      <trkpt lat="48.1037" lon="-1.67256">
        <ele>85</ele>
        <time>2025-05-16T12:33:59Z</time>
      </trkpt>
      <trkpt lat="48.1037" lon="-1.67257">
        <ele>85</ele>
        <time>2025-05-16T12:34:00Z</time>
      </trkpt>
      <trkpt lat="48.10369" lon="-1.67259">
        <ele>85</ele>
        <time>2025-05-16T12:34:01Z</time>
      </trkpt>
      <trkpt lat="48.10369" lon="-1.6726">
        <ele>85</ele>
        <time>2025-05-16T12:34:02Z</time>
      </trkpt>
      <trkpt lat="48.10368" lon="-1.67261">
        <ele>85</ele>
        <time>2025-05-16T12:34:03Z</time>
      </trkpt>
      <trkpt lat="48.10368" lon="-1.67263">
        <ele>84</ele>
        <time>2025-05-16T12:34:04Z</time>
      </trkpt>
      <trkpt lat="48.10367" lon="-1.67264">
        <ele>84</ele>
        <time>2025-05-16T12:34:05Z</time>
      </trkpt>
      <trkpt lat="48.10367" lon="-1.67266">
        <ele>85</ele>
        <time>2025-05-16T12:34:06Z</time>
      </trkpt>
      <trkpt lat="48.10366" lon="-1.67267">
        <ele>85</ele>
        <time>2025-05-16T12:34:07Z</time>
      </trkpt>
      <trkpt lat="48.10366" lon="-1.67268">
        <ele>85</ele>
        <time>2025-05-16T12:34:08Z</time>
      </trkpt>
      <trkpt lat="48.10365" lon="-1.6727">
        <ele>85</ele>
        <time>2025-05-16T12:34:09Z</time>
      </trkpt>
      <trkpt lat="48.10364" lon="-1.67271">
        <ele>85</ele>
        <time>2025-05-16T12:34:10Z</time>
      </trkpt>
      <trkpt lat="48.10364" lon="-1.67273">
        <ele>85</ele>
        <time>2025-05-16T12:34:11Z</time>
      </trkpt>
      <trkpt lat="48.10363" lon="-1.67274">
        <ele>85</ele>
        <time>2025-05-16T12:34:12Z</time>
      </trkpt>
      <trkpt lat="48.10363" lon="-1.67276">
        <ele>85</ele>
        <time>2025-05-16T12:34:13Z</time>
      </trkpt>
      <trkpt lat="48.10363" lon="-1.67277">
        <ele>85</ele>
        <time>2025-05-16T12:34:14Z</time>
      </trkpt>
      <trkpt lat="48.10362" lon="-1.67279">
        <ele>85</ele>
        <time>2025-05-16T12:34:15Z</time>
      </trkpt>
      <trkpt lat="48.10362" lon="-1.6728">
        <ele>85</ele>
        <time>2025-05-16T12:34:16Z</time>
      </trkpt>
      <trkpt lat="48.10361" lon="-1.67281">
        <ele>86</ele>
        <time>2025-05-16T12:34:17Z</time>
      </trkpt>
      <trkpt lat="48.10361" lon="-1.67282">
        <ele>86</ele>
        <time>2025-05-16T12:34:18Z</time>
      </trkpt>
      <trkpt lat="48.1036" lon="-1.67283">
        <ele>86</ele>
        <time>2025-05-16T12:34:19Z</time>
      </trkpt>
      <trkpt lat="48.1036" lon="-1.67284">
        <ele>86</ele>
        <time>2025-05-16T12:34:20Z</time>
      </trkpt>
      <trkpt lat="48.10359" lon="-1.67285">
        <ele>86</ele>
        <time>2025-05-16T12:34:21Z</time>
      </trkpt>
      <trkpt lat="48.10359" lon="-1.67286">
        <ele>86</ele>
        <time>2025-05-16T12:34:22Z</time>
      </trkpt>
      <trkpt lat="48.10358" lon="-1.67287">
        <ele>86</ele>
        <time>2025-05-16T12:34:23Z</time>
      </trkpt>
      <trkpt lat="48.10357" lon="-1.67288">
        <ele>86</ele>
        <time>2025-05-16T12:34:24Z</time>
      </trkpt>
      <trkpt lat="48.10357" lon="-1.6729">
        <ele>86</ele>
        <time>2025-05-16T12:34:25Z</time>
      </trkpt>
      <trkpt lat="48.10357" lon="-1.67292">
        <ele>86</ele>
        <time>2025-05-16T12:34:26Z</time>
      </trkpt>
      <trkpt lat="48.10356" lon="-1.67293">
        <ele>86</ele>
        <time>2025-05-16T12:34:27Z</time>
      </trkpt>
      <trkpt lat="48.10355" lon="-1.67294">
        <ele>86</ele>
        <time>2025-05-16T12:34:28Z</time>
      </trkpt>
      <trkpt lat="48.10355" lon="-1.67295">
        <ele>86</ele>
        <time>2025-05-16T12:34:29Z</time>
      </trkpt>
      <trkpt lat="48.10355" lon="-1.67296">
        <ele>86</ele>
        <time>2025-05-16T12:34:30Z</time>
      </trkpt>
      <trkpt lat="48.10355" lon="-1.67296">
        <ele>86</ele>
        <time>2025-05-16T12:34:31Z</time>
      </trkpt>
      <trkpt lat="48.10355" lon="-1.67296">
        <ele>86</ele>
        <time>2025-05-16T12:34:32Z</time>
      </trkpt>
      <trkpt lat="48.10355" lon="-1.67296">
        <ele>86</ele>
        <time>2025-05-16T12:34:33Z</time>
      </trkpt>
      <trkpt lat="48.10355" lon="-1.67296">
        <ele>86</ele>
        <time>2025-05-16T12:34:34Z</time>
      </trkpt>
      <trkpt lat="48.10355" lon="-1.67296">
        <ele>86</ele>
        <time>2025-05-16T12:34:35Z</time>
      </trkpt>
      <trkpt lat="48.10355" lon="-1.67296">
        <ele>86</ele>
        <time>2025-05-16T12:34:36Z</time>
      </trkpt>
      <trkpt lat="48.10355" lon="-1.67296">
        <ele>86</ele>
        <time>2025-05-16T12:34:37Z</time>
      </trkpt>
      <trkpt lat="48.10355" lon="-1.67296">
        <ele>86</ele>
        <time>2025-05-16T12:34:38Z</time>
      </trkpt>
      <trkpt lat="48.10355" lon="-1.67296">
        <ele>86</ele>
        <time>2025-05-16T12:34:39Z</time>
      </trkpt>
      <trkpt lat="48.10355" lon="-1.67296">
        <ele>86</ele>
        <time>2025-05-16T12:34:40Z</time>
      </trkpt>
      <trkpt lat="48.10355" lon="-1.67296">
        <ele>86</ele>
        <time>2025-05-16T12:34:41Z</time>
      </trkpt>
      <trkpt lat="48.10355" lon="-1.67296">
        <ele>86</ele>
        <time>2025-05-16T12:34:42Z</time>
      </trkpt>
      <trkpt lat="48.10355" lon="-1.67296">
        <ele>86</ele>
        <time>2025-05-16T12:34:43Z</time>
      </trkpt>
      <trkpt lat="48.10355" lon="-1.67296">
        <ele>86</ele>
        <time>2025-05-16T12:34:44Z</time>
      </trkpt>
      <trkpt lat="48.10355" lon="-1.67296">
        <ele>86</ele>
        <time>2025-05-16T12:34:45Z</time>
      </trkpt>
      <trkpt lat="48.10355" lon="-1.67296">
        <ele>86</ele>
        <time>2025-05-16T12:34:46Z</time>
      </trkpt>
      <trkpt lat="48.10355" lon="-1.67296">
        <ele>86</ele>
        <time>2025-05-16T12:34:47Z</time>
      </trkpt>
      <trkpt lat="48.10355" lon="-1.67296">
        <ele>86</ele>
        <time>2025-05-16T12:34:48Z</time>
      </trkpt>
      <trkpt lat="48.10355" lon="-1.67296">
        <ele>86</ele>
        <time>2025-05-16T12:34:49Z</time>
      </trkpt>
      <trkpt lat="48.10355" lon="-1.67296">
        <ele>86</ele>
        <time>2025-05-16T12:34:50Z</time>
      </trkpt>
      <trkpt lat="48.10353" lon="-1.67303">
        <ele>87</ele>
        <time>2025-05-16T12:34:51Z</time>
      </trkpt>
      <trkpt lat="48.10352" lon="-1.67305">
        <ele>88</ele>
        <time>2025-05-16T12:34:52Z</time>
      </trkpt>
      <trkpt lat="48.10351" lon="-1.67306">
        <ele>88</ele>
        <time>2025-05-16T12:34:53Z</time>
      </trkpt>
      <trkpt lat="48.1035" lon="-1.67307">
        <ele>88</ele>
        <time>2025-05-16T12:34:54Z</time>
      </trkpt>
      <trkpt lat="48.10349" lon="-1.67308">
        <ele>88</ele>
        <time>2025-05-16T12:34:55Z</time>
      </trkpt>
      <trkpt lat="48.10348" lon="-1.67309">
        <ele>88</ele>
        <time>2025-05-16T12:34:56Z</time>
      </trkpt>
      <trkpt lat="48.10347" lon="-1.67311">
        <ele>88</ele>
        <time>2025-05-16T12:34:57Z</time>
      </trkpt>
      <trkpt lat="48.10347" lon="-1.67311">
        <ele>87</ele>
        <time>2025-05-16T12:34:58Z</time>
      </trkpt>
      <trkpt lat="48.10346" lon="-1.67312">
        <ele>87</ele>
        <time>2025-05-16T12:34:59Z</time>
      </trkpt>
      <trkpt lat="48.10345" lon="-1.67313">
        <ele>87</ele>
        <time>2025-05-16T12:35:00Z</time>
      </trkpt>
      <trkpt lat="48.10345" lon="-1.67314">
        <ele>87</ele>
        <time>2025-05-16T12:35:01Z</time>
      </trkpt>
      <trkpt lat="48.10345" lon="-1.67314">
        <ele>87</ele>
        <time>2025-05-16T12:35:02Z</time>
      </trkpt>
      <trkpt lat="48.10345" lon="-1.67314">
        <ele>87</ele>
        <time>2025-05-16T12:35:03Z</time>
      </trkpt>
      <trkpt lat="48.10345" lon="-1.67314">
        <ele>87</ele>
        <time>2025-05-16T12:35:04Z</time>
      </trkpt>
      <trkpt lat="48.10345" lon="-1.67314">
        <ele>87</ele>
        <time>2025-05-16T12:35:05Z</time>
      </trkpt>
      <trkpt lat="48.10345" lon="-1.67314">
        <ele>87</ele>
        <time>2025-05-16T12:35:06Z</time>
      </trkpt>
      <trkpt lat="48.10345" lon="-1.67314">
        <ele>87</ele>
        <time>2025-05-16T12:35:07Z</time>
      </trkpt>
      <trkpt lat="48.10345" lon="-1.67314">
        <ele>87</ele>
        <time>2025-05-16T12:35:08Z</time>
      </trkpt>
      <trkpt lat="48.10345" lon="-1.67314">
        <ele>87</ele>
        <time>2025-05-16T12:35:09Z</time>
      </trkpt>
      <trkpt lat="48.10345" lon="-1.67314">
        <ele>87</ele>
        <time>2025-05-16T12:35:10Z</time>
      </trkpt>
      <trkpt lat="48.10345" lon="-1.67314">
        <ele>87</ele>
        <time>2025-05-16T12:35:11Z</time>
      </trkpt>
      <trkpt lat="48.10345" lon="-1.67314">
        <ele>87</ele>
        <time>2025-05-16T12:35:12Z</time>
      </trkpt>
      <trkpt lat="48.10345" lon="-1.67314">
        <ele>87</ele>
        <time>2025-05-16T12:35:13Z</time>
      </trkpt>
      <trkpt lat="48.10345" lon="-1.67314">
        <ele>87</ele>
        <time>2025-05-16T12:35:14Z</time>
      </trkpt>
      <trkpt lat="48.10345" lon="-1.67314">
        <ele>87</ele>
        <time>2025-05-16T12:35:15Z</time>
      </trkpt>
      <trkpt lat="48.10345" lon="-1.67314">
        <ele>87</ele>
        <time>2025-05-16T12:35:16Z</time>
      </trkpt>
    </trkseg>
  </trk>
</gpx>